<?xml version="1.0" encoding="UTF-8" standalone="no" ?>
<gpx xmlns="http://www.topografix.com/GPX/1/1" xmlns:xsi="http://www.w3.org/2001/XMLSchema-instance" xsi:schemaLocation="http://www.topografix.com/GPX/1/1 http://www.topografix.com/GPX/1/1/gpx.xsd" version="1.1" creator="VisuGPX - https://www.visugpx.com">
  <metadata>
    <name>2018-09-07 Bike ride-Chatillon-Limas v39k</name>
    <desc><![CDATA[2018-09-07 Bike ride-Chatillon-Limas v39k]]></desc>
  </metadata>
  <wpt lat="45.92457" lon="4.7372">
    <ele>174</ele>
    <name><![CDATA[2018-09-07 10:26 (Start)]]></name>
  </wpt>
  <wpt lat="45.92459" lon="4.73712">
    <ele>174</ele>
    <name><![CDATA[2018-09-07 10:26 (End)]]></name>
  </wpt>
  <trk>
    <name><![CDATA[2018-09-07 10:26]]></name>
    <trkseg>
      <trkpt lat="45.92457" lon="4.7372">
        <ele>174</ele>
        <time>2018-09-07T08:26:32.653Z</time>
      </trkpt>
      <trkpt lat="45.92456" lon="4.73707">
        <ele>174</ele>
        <time>2018-09-07T08:26:42Z</time>
      </trkpt>
      <trkpt lat="45.92456" lon="4.73706">
        <ele>174</ele>
        <time>2018-09-07T08:26:43Z</time>
      </trkpt>
      <trkpt lat="45.92463" lon="4.73701">
        <ele>174</ele>
        <time>2018-09-07T08:26:52Z</time>
      </trkpt>
      <trkpt lat="45.92464" lon="4.73699">
        <ele>174</ele>
        <time>2018-09-07T08:26:53Z</time>
      </trkpt>
      <trkpt lat="45.92467" lon="4.73689">
        <ele>174</ele>
        <time>2018-09-07T08:26:56Z</time>
      </trkpt>
      <trkpt lat="45.92468" lon="4.73685">
        <ele>174</ele>
        <time>2018-09-07T08:26:57Z</time>
      </trkpt>
      <trkpt lat="45.92469" lon="4.73676">
        <ele>174</ele>
        <time>2018-09-07T08:26:59Z</time>
      </trkpt>
      <trkpt lat="45.9247" lon="4.73663">
        <ele>174</ele>
        <time>2018-09-07T08:27:00Z</time>
      </trkpt>
      <trkpt lat="45.92471" lon="4.73651">
        <ele>174</ele>
        <time>2018-09-07T08:27:02Z</time>
      </trkpt>
      <trkpt lat="45.92471" lon="4.73649">
        <ele>174</ele>
        <time>2018-09-07T08:27:03Z</time>
      </trkpt>
      <trkpt lat="45.92473" lon="4.73636">
        <ele>174</ele>
        <time>2018-09-07T08:27:04Z</time>
      </trkpt>
      <trkpt lat="45.92473" lon="4.7363">
        <ele>174</ele>
        <time>2018-09-07T08:27:05Z</time>
      </trkpt>
      <trkpt lat="45.92473" lon="4.73618">
        <ele>174</ele>
        <time>2018-09-07T08:27:07Z</time>
      </trkpt>
      <trkpt lat="45.92471" lon="4.73611">
        <ele>174</ele>
        <time>2018-09-07T08:27:08Z</time>
      </trkpt>
      <trkpt lat="45.92472" lon="4.73603">
        <ele>174</ele>
        <time>2018-09-07T08:27:09Z</time>
      </trkpt>
      <trkpt lat="45.9247" lon="4.73597">
        <ele>174</ele>
        <time>2018-09-07T08:27:10Z</time>
      </trkpt>
      <trkpt lat="45.92471" lon="4.73588">
        <ele>174</ele>
        <time>2018-09-07T08:27:11Z</time>
      </trkpt>
      <trkpt lat="45.92469" lon="4.73582">
        <ele>173</ele>
        <time>2018-09-07T08:27:12Z</time>
      </trkpt>
      <trkpt lat="45.92469" lon="4.7357">
        <ele>173</ele>
        <time>2018-09-07T08:27:14Z</time>
      </trkpt>
      <trkpt lat="45.92468" lon="4.73563">
        <ele>173</ele>
        <time>2018-09-07T08:27:15Z</time>
      </trkpt>
      <trkpt lat="45.92469" lon="4.73552">
        <ele>173</ele>
        <time>2018-09-07T08:27:18Z</time>
      </trkpt>
      <trkpt lat="45.92468" lon="4.73548">
        <ele>173</ele>
        <time>2018-09-07T08:27:19Z</time>
      </trkpt>
      <trkpt lat="45.92468" lon="4.73545">
        <ele>173</ele>
        <time>2018-09-07T08:27:20Z</time>
      </trkpt>
      <trkpt lat="45.92461" lon="4.73539">
        <ele>174</ele>
        <time>2018-09-07T08:27:21Z</time>
      </trkpt>
      <trkpt lat="45.92453" lon="4.7354">
        <ele>173</ele>
        <time>2018-09-07T08:27:23Z</time>
      </trkpt>
      <trkpt lat="45.92449" lon="4.73544">
        <ele>174</ele>
        <time>2018-09-07T08:27:24Z</time>
      </trkpt>
      <trkpt lat="45.92441" lon="4.73547">
        <ele>174</ele>
        <time>2018-09-07T08:27:26Z</time>
      </trkpt>
      <trkpt lat="45.92436" lon="4.7355">
        <ele>174</ele>
        <time>2018-09-07T08:27:27Z</time>
      </trkpt>
      <trkpt lat="45.92431" lon="4.73553">
        <ele>174</ele>
        <time>2018-09-07T08:27:28Z</time>
      </trkpt>
      <trkpt lat="45.92427" lon="4.73555">
        <ele>174</ele>
        <time>2018-09-07T08:27:29Z</time>
      </trkpt>
      <trkpt lat="45.92424" lon="4.73559">
        <ele>174</ele>
        <time>2018-09-07T08:27:30Z</time>
      </trkpt>
      <trkpt lat="45.92419" lon="4.73561">
        <ele>174</ele>
        <time>2018-09-07T08:27:31Z</time>
      </trkpt>
      <trkpt lat="45.92415" lon="4.73565">
        <ele>173</ele>
        <time>2018-09-07T08:27:32Z</time>
      </trkpt>
      <trkpt lat="45.9241" lon="4.73568">
        <ele>173</ele>
        <time>2018-09-07T08:27:33Z</time>
      </trkpt>
      <trkpt lat="45.92404" lon="4.73571">
        <ele>173</ele>
        <time>2018-09-07T08:27:34Z</time>
      </trkpt>
      <trkpt lat="45.92398" lon="4.73572">
        <ele>173</ele>
        <time>2018-09-07T08:27:35Z</time>
      </trkpt>
      <trkpt lat="45.92394" lon="4.73576">
        <ele>173</ele>
        <time>2018-09-07T08:27:36Z</time>
      </trkpt>
      <trkpt lat="45.92391" lon="4.73579">
        <ele>173</ele>
        <time>2018-09-07T08:27:37Z</time>
      </trkpt>
      <trkpt lat="45.92385" lon="4.7358">
        <ele>173</ele>
        <time>2018-09-07T08:27:38Z</time>
      </trkpt>
      <trkpt lat="45.92381" lon="4.73584">
        <ele>173</ele>
        <time>2018-09-07T08:27:39Z</time>
      </trkpt>
      <trkpt lat="45.92376" lon="4.73587">
        <ele>173</ele>
        <time>2018-09-07T08:27:40Z</time>
      </trkpt>
      <trkpt lat="45.92371" lon="4.73589">
        <ele>173</ele>
        <time>2018-09-07T08:27:41Z</time>
      </trkpt>
      <trkpt lat="45.92366" lon="4.73591">
        <ele>173</ele>
        <time>2018-09-07T08:27:42Z</time>
      </trkpt>
      <trkpt lat="45.92361" lon="4.73592">
        <ele>173</ele>
        <time>2018-09-07T08:27:43Z</time>
      </trkpt>
      <trkpt lat="45.92356" lon="4.73595">
        <ele>173</ele>
        <time>2018-09-07T08:27:44Z</time>
      </trkpt>
      <trkpt lat="45.92352" lon="4.73599">
        <ele>173</ele>
        <time>2018-09-07T08:27:45Z</time>
      </trkpt>
      <trkpt lat="45.92348" lon="4.73601">
        <ele>173</ele>
        <time>2018-09-07T08:27:46Z</time>
      </trkpt>
      <trkpt lat="45.92343" lon="4.73604">
        <ele>173</ele>
        <time>2018-09-07T08:27:47Z</time>
      </trkpt>
      <trkpt lat="45.92338" lon="4.73607">
        <ele>173</ele>
        <time>2018-09-07T08:27:48Z</time>
      </trkpt>
      <trkpt lat="45.92332" lon="4.73609">
        <ele>172</ele>
        <time>2018-09-07T08:27:49Z</time>
      </trkpt>
      <trkpt lat="45.92328" lon="4.73614">
        <ele>172</ele>
        <time>2018-09-07T08:27:50Z</time>
      </trkpt>
      <trkpt lat="45.92323" lon="4.73616">
        <ele>172</ele>
        <time>2018-09-07T08:27:51Z</time>
      </trkpt>
      <trkpt lat="45.92318" lon="4.73619">
        <ele>172</ele>
        <time>2018-09-07T08:27:52Z</time>
      </trkpt>
      <trkpt lat="45.92313" lon="4.73622">
        <ele>172</ele>
        <time>2018-09-07T08:27:53Z</time>
      </trkpt>
      <trkpt lat="45.92308" lon="4.73625">
        <ele>172</ele>
        <time>2018-09-07T08:27:54Z</time>
      </trkpt>
      <trkpt lat="45.92302" lon="4.73627">
        <ele>172</ele>
        <time>2018-09-07T08:27:55Z</time>
      </trkpt>
      <trkpt lat="45.92297" lon="4.7363">
        <ele>172</ele>
        <time>2018-09-07T08:27:56Z</time>
      </trkpt>
      <trkpt lat="45.92292" lon="4.73633">
        <ele>172</ele>
        <time>2018-09-07T08:27:57Z</time>
      </trkpt>
      <trkpt lat="45.92287" lon="4.73637">
        <ele>172</ele>
        <time>2018-09-07T08:27:58Z</time>
      </trkpt>
      <trkpt lat="45.92283" lon="4.73642">
        <ele>172</ele>
        <time>2018-09-07T08:27:59Z</time>
      </trkpt>
      <trkpt lat="45.92278" lon="4.73644">
        <ele>172</ele>
        <time>2018-09-07T08:28:00Z</time>
      </trkpt>
      <trkpt lat="45.92274" lon="4.73649">
        <ele>172</ele>
        <time>2018-09-07T08:28:01Z</time>
      </trkpt>
      <trkpt lat="45.92268" lon="4.73651">
        <ele>171</ele>
        <time>2018-09-07T08:28:02Z</time>
      </trkpt>
      <trkpt lat="45.92264" lon="4.73654">
        <ele>171</ele>
        <time>2018-09-07T08:28:03Z</time>
      </trkpt>
      <trkpt lat="45.92259" lon="4.73656">
        <ele>171</ele>
        <time>2018-09-07T08:28:04Z</time>
      </trkpt>
      <trkpt lat="45.92254" lon="4.73658">
        <ele>171</ele>
        <time>2018-09-07T08:28:05Z</time>
      </trkpt>
      <trkpt lat="45.9225" lon="4.73662">
        <ele>171</ele>
        <time>2018-09-07T08:28:06Z</time>
      </trkpt>
      <trkpt lat="45.92245" lon="4.73665">
        <ele>171</ele>
        <time>2018-09-07T08:28:07Z</time>
      </trkpt>
      <trkpt lat="45.92239" lon="4.73668">
        <ele>171</ele>
        <time>2018-09-07T08:28:08Z</time>
      </trkpt>
      <trkpt lat="45.92234" lon="4.7367">
        <ele>171</ele>
        <time>2018-09-07T08:28:09Z</time>
      </trkpt>
      <trkpt lat="45.92229" lon="4.73673">
        <ele>171</ele>
        <time>2018-09-07T08:28:10Z</time>
      </trkpt>
      <trkpt lat="45.92224" lon="4.73675">
        <ele>171</ele>
        <time>2018-09-07T08:28:11Z</time>
      </trkpt>
      <trkpt lat="45.92219" lon="4.73678">
        <ele>171</ele>
        <time>2018-09-07T08:28:12Z</time>
      </trkpt>
      <trkpt lat="45.92213" lon="4.73681">
        <ele>171</ele>
        <time>2018-09-07T08:28:13Z</time>
      </trkpt>
      <trkpt lat="45.92207" lon="4.73686">
        <ele>171</ele>
        <time>2018-09-07T08:28:14Z</time>
      </trkpt>
      <trkpt lat="45.92203" lon="4.73691">
        <ele>171</ele>
        <time>2018-09-07T08:28:15Z</time>
      </trkpt>
      <trkpt lat="45.92197" lon="4.73693">
        <ele>171</ele>
        <time>2018-09-07T08:28:16Z</time>
      </trkpt>
      <trkpt lat="45.92192" lon="4.73696">
        <ele>171</ele>
        <time>2018-09-07T08:28:17Z</time>
      </trkpt>
      <trkpt lat="45.92187" lon="4.73699">
        <ele>171</ele>
        <time>2018-09-07T08:28:18Z</time>
      </trkpt>
      <trkpt lat="45.92181" lon="4.73702">
        <ele>171</ele>
        <time>2018-09-07T08:28:19Z</time>
      </trkpt>
      <trkpt lat="45.92175" lon="4.73703">
        <ele>171</ele>
        <time>2018-09-07T08:28:20Z</time>
      </trkpt>
      <trkpt lat="45.9217" lon="4.73706">
        <ele>171</ele>
        <time>2018-09-07T08:28:21Z</time>
      </trkpt>
      <trkpt lat="45.92165" lon="4.73709">
        <ele>171</ele>
        <time>2018-09-07T08:28:22Z</time>
      </trkpt>
      <trkpt lat="45.9216" lon="4.73712">
        <ele>171</ele>
        <time>2018-09-07T08:28:23Z</time>
      </trkpt>
      <trkpt lat="45.92155" lon="4.73715">
        <ele>171</ele>
        <time>2018-09-07T08:28:24Z</time>
      </trkpt>
      <trkpt lat="45.9215" lon="4.73717">
        <ele>171</ele>
        <time>2018-09-07T08:28:25Z</time>
      </trkpt>
      <trkpt lat="45.92144" lon="4.73718">
        <ele>171</ele>
        <time>2018-09-07T08:28:26Z</time>
      </trkpt>
      <trkpt lat="45.92138" lon="4.7372">
        <ele>171</ele>
        <time>2018-09-07T08:28:27Z</time>
      </trkpt>
      <trkpt lat="45.92132" lon="4.73721">
        <ele>171</ele>
        <time>2018-09-07T08:28:28Z</time>
      </trkpt>
      <trkpt lat="45.92127" lon="4.73723">
        <ele>171</ele>
        <time>2018-09-07T08:28:29Z</time>
      </trkpt>
      <trkpt lat="45.92124" lon="4.73727">
        <ele>171</ele>
        <time>2018-09-07T08:28:30Z</time>
      </trkpt>
      <trkpt lat="45.92118" lon="4.73729">
        <ele>171</ele>
        <time>2018-09-07T08:28:31Z</time>
      </trkpt>
      <trkpt lat="45.92112" lon="4.73728">
        <ele>171</ele>
        <time>2018-09-07T08:28:32Z</time>
      </trkpt>
      <trkpt lat="45.92105" lon="4.73734">
        <ele>171</ele>
        <time>2018-09-07T08:28:33Z</time>
      </trkpt>
      <trkpt lat="45.92101" lon="4.73739">
        <ele>171</ele>
        <time>2018-09-07T08:28:34Z</time>
      </trkpt>
      <trkpt lat="45.92096" lon="4.7374">
        <ele>171</ele>
        <time>2018-09-07T08:28:35Z</time>
      </trkpt>
      <trkpt lat="45.9209" lon="4.73739">
        <ele>171</ele>
        <time>2018-09-07T08:28:36Z</time>
      </trkpt>
      <trkpt lat="45.92085" lon="4.73742">
        <ele>171</ele>
        <time>2018-09-07T08:28:37Z</time>
      </trkpt>
      <trkpt lat="45.92076" lon="4.73742">
        <ele>171</ele>
        <time>2018-09-07T08:28:39Z</time>
      </trkpt>
      <trkpt lat="45.92072" lon="4.73741">
        <ele>171</ele>
        <time>2018-09-07T08:28:40Z</time>
      </trkpt>
      <trkpt lat="45.92063" lon="4.73739">
        <ele>171</ele>
        <time>2018-09-07T08:28:42Z</time>
      </trkpt>
      <trkpt lat="45.92058" lon="4.73739">
        <ele>171</ele>
        <time>2018-09-07T08:28:43Z</time>
      </trkpt>
      <trkpt lat="45.92053" lon="4.73738">
        <ele>171</ele>
        <time>2018-09-07T08:28:44Z</time>
      </trkpt>
      <trkpt lat="45.92047" lon="4.73738">
        <ele>171</ele>
        <time>2018-09-07T08:28:45Z</time>
      </trkpt>
      <trkpt lat="45.92042" lon="4.73738">
        <ele>171</ele>
        <time>2018-09-07T08:28:46Z</time>
      </trkpt>
      <trkpt lat="45.92036" lon="4.73738">
        <ele>171</ele>
        <time>2018-09-07T08:28:47Z</time>
      </trkpt>
      <trkpt lat="45.9203" lon="4.73736">
        <ele>171</ele>
        <time>2018-09-07T08:28:48Z</time>
      </trkpt>
      <trkpt lat="45.92024" lon="4.73736">
        <ele>171</ele>
        <time>2018-09-07T08:28:49Z</time>
      </trkpt>
      <trkpt lat="45.92017" lon="4.73735">
        <ele>171</ele>
        <time>2018-09-07T08:28:50Z</time>
      </trkpt>
      <trkpt lat="45.92012" lon="4.73735">
        <ele>171</ele>
        <time>2018-09-07T08:28:51Z</time>
      </trkpt>
      <trkpt lat="45.92006" lon="4.73735">
        <ele>171</ele>
        <time>2018-09-07T08:28:52Z</time>
      </trkpt>
      <trkpt lat="45.91999" lon="4.73735">
        <ele>171</ele>
        <time>2018-09-07T08:28:53Z</time>
      </trkpt>
      <trkpt lat="45.91992" lon="4.73734">
        <ele>171</ele>
        <time>2018-09-07T08:28:54Z</time>
      </trkpt>
      <trkpt lat="45.91986" lon="4.73734">
        <ele>171</ele>
        <time>2018-09-07T08:28:55Z</time>
      </trkpt>
      <trkpt lat="45.91979" lon="4.73734">
        <ele>171</ele>
        <time>2018-09-07T08:28:56Z</time>
      </trkpt>
      <trkpt lat="45.91973" lon="4.73735">
        <ele>171</ele>
        <time>2018-09-07T08:28:57Z</time>
      </trkpt>
      <trkpt lat="45.91967" lon="4.73736">
        <ele>171</ele>
        <time>2018-09-07T08:28:58Z</time>
      </trkpt>
      <trkpt lat="45.91961" lon="4.73735">
        <ele>171</ele>
        <time>2018-09-07T08:28:59Z</time>
      </trkpt>
      <trkpt lat="45.91956" lon="4.73736">
        <ele>170</ele>
        <time>2018-09-07T08:29:00Z</time>
      </trkpt>
      <trkpt lat="45.91949" lon="4.73736">
        <ele>170</ele>
        <time>2018-09-07T08:29:01Z</time>
      </trkpt>
      <trkpt lat="45.91944" lon="4.73737">
        <ele>170</ele>
        <time>2018-09-07T08:29:02Z</time>
      </trkpt>
      <trkpt lat="45.91938" lon="4.73737">
        <ele>170</ele>
        <time>2018-09-07T08:29:03Z</time>
      </trkpt>
      <trkpt lat="45.91933" lon="4.73737">
        <ele>170</ele>
        <time>2018-09-07T08:29:04Z</time>
      </trkpt>
      <trkpt lat="45.91927" lon="4.73737">
        <ele>170</ele>
        <time>2018-09-07T08:29:05Z</time>
      </trkpt>
      <trkpt lat="45.9192" lon="4.73738">
        <ele>170</ele>
        <time>2018-09-07T08:29:06Z</time>
      </trkpt>
      <trkpt lat="45.91914" lon="4.73738">
        <ele>171</ele>
        <time>2018-09-07T08:29:07Z</time>
      </trkpt>
      <trkpt lat="45.91908" lon="4.73738">
        <ele>171</ele>
        <time>2018-09-07T08:29:08Z</time>
      </trkpt>
      <trkpt lat="45.91901" lon="4.73737">
        <ele>171</ele>
        <time>2018-09-07T08:29:09Z</time>
      </trkpt>
      <trkpt lat="45.91896" lon="4.73738">
        <ele>171</ele>
        <time>2018-09-07T08:29:10Z</time>
      </trkpt>
      <trkpt lat="45.9189" lon="4.73736">
        <ele>171</ele>
        <time>2018-09-07T08:29:11Z</time>
      </trkpt>
      <trkpt lat="45.91883" lon="4.7374">
        <ele>171</ele>
        <time>2018-09-07T08:29:12Z</time>
      </trkpt>
      <trkpt lat="45.91877" lon="4.7374">
        <ele>171</ele>
        <time>2018-09-07T08:29:13Z</time>
      </trkpt>
      <trkpt lat="45.91871" lon="4.7374">
        <ele>171</ele>
        <time>2018-09-07T08:29:14Z</time>
      </trkpt>
      <trkpt lat="45.91865" lon="4.7374">
        <ele>171</ele>
        <time>2018-09-07T08:29:15Z</time>
      </trkpt>
      <trkpt lat="45.91859" lon="4.7374">
        <ele>171</ele>
        <time>2018-09-07T08:29:16Z</time>
      </trkpt>
      <trkpt lat="45.91854" lon="4.7374">
        <ele>171</ele>
        <time>2018-09-07T08:29:17Z</time>
      </trkpt>
      <trkpt lat="45.91848" lon="4.7374">
        <ele>172</ele>
        <time>2018-09-07T08:29:18Z</time>
      </trkpt>
      <trkpt lat="45.91842" lon="4.7374">
        <ele>172</ele>
        <time>2018-09-07T08:29:19Z</time>
      </trkpt>
      <trkpt lat="45.91835" lon="4.7374">
        <ele>172</ele>
        <time>2018-09-07T08:29:20Z</time>
      </trkpt>
      <trkpt lat="45.91829" lon="4.7374">
        <ele>172</ele>
        <time>2018-09-07T08:29:21Z</time>
      </trkpt>
      <trkpt lat="45.91822" lon="4.7374">
        <ele>172</ele>
        <time>2018-09-07T08:29:22Z</time>
      </trkpt>
      <trkpt lat="45.91816" lon="4.73739">
        <ele>172</ele>
        <time>2018-09-07T08:29:23Z</time>
      </trkpt>
      <trkpt lat="45.91809" lon="4.73738">
        <ele>172</ele>
        <time>2018-09-07T08:29:24Z</time>
      </trkpt>
      <trkpt lat="45.91803" lon="4.73738">
        <ele>172</ele>
        <time>2018-09-07T08:29:25Z</time>
      </trkpt>
      <trkpt lat="45.91797" lon="4.73738">
        <ele>172</ele>
        <time>2018-09-07T08:29:26Z</time>
      </trkpt>
      <trkpt lat="45.91791" lon="4.7374">
        <ele>173</ele>
        <time>2018-09-07T08:29:27Z</time>
      </trkpt>
      <trkpt lat="45.91786" lon="4.7374">
        <ele>173</ele>
        <time>2018-09-07T08:29:28Z</time>
      </trkpt>
      <trkpt lat="45.91782" lon="4.7374">
        <ele>173</ele>
        <time>2018-09-07T08:29:29Z</time>
      </trkpt>
      <trkpt lat="45.91777" lon="4.7374">
        <ele>173</ele>
        <time>2018-09-07T08:29:30Z</time>
      </trkpt>
      <trkpt lat="45.91771" lon="4.7374">
        <ele>173</ele>
        <time>2018-09-07T08:29:31Z</time>
      </trkpt>
      <trkpt lat="45.91766" lon="4.7374">
        <ele>173</ele>
        <time>2018-09-07T08:29:32Z</time>
      </trkpt>
      <trkpt lat="45.91761" lon="4.7374">
        <ele>173</ele>
        <time>2018-09-07T08:29:33Z</time>
      </trkpt>
      <trkpt lat="45.91755" lon="4.73739">
        <ele>173</ele>
        <time>2018-09-07T08:29:34Z</time>
      </trkpt>
      <trkpt lat="45.91749" lon="4.73739">
        <ele>173</ele>
        <time>2018-09-07T08:29:35Z</time>
      </trkpt>
      <trkpt lat="45.91744" lon="4.73738">
        <ele>173</ele>
        <time>2018-09-07T08:29:36Z</time>
      </trkpt>
      <trkpt lat="45.91738" lon="4.7374">
        <ele>173</ele>
        <time>2018-09-07T08:29:37Z</time>
      </trkpt>
      <trkpt lat="45.91733" lon="4.73739">
        <ele>173</ele>
        <time>2018-09-07T08:29:38Z</time>
      </trkpt>
      <trkpt lat="45.91727" lon="4.73739">
        <ele>173</ele>
        <time>2018-09-07T08:29:39Z</time>
      </trkpt>
      <trkpt lat="45.91721" lon="4.73741">
        <ele>173</ele>
        <time>2018-09-07T08:29:40Z</time>
      </trkpt>
      <trkpt lat="45.91715" lon="4.7374">
        <ele>173</ele>
        <time>2018-09-07T08:29:41Z</time>
      </trkpt>
      <trkpt lat="45.91708" lon="4.73737">
        <ele>172</ele>
        <time>2018-09-07T08:29:42Z</time>
      </trkpt>
      <trkpt lat="45.91703" lon="4.73736">
        <ele>172</ele>
        <time>2018-09-07T08:29:43Z</time>
      </trkpt>
      <trkpt lat="45.91698" lon="4.73737">
        <ele>172</ele>
        <time>2018-09-07T08:29:44Z</time>
      </trkpt>
      <trkpt lat="45.91693" lon="4.73737">
        <ele>172</ele>
        <time>2018-09-07T08:29:45Z</time>
      </trkpt>
      <trkpt lat="45.91687" lon="4.73737">
        <ele>172</ele>
        <time>2018-09-07T08:29:46Z</time>
      </trkpt>
      <trkpt lat="45.91682" lon="4.73737">
        <ele>172</ele>
        <time>2018-09-07T08:29:47Z</time>
      </trkpt>
      <trkpt lat="45.91676" lon="4.73737">
        <ele>172</ele>
        <time>2018-09-07T08:29:48Z</time>
      </trkpt>
      <trkpt lat="45.9167" lon="4.73737">
        <ele>172</ele>
        <time>2018-09-07T08:29:49Z</time>
      </trkpt>
      <trkpt lat="45.91665" lon="4.73737">
        <ele>172</ele>
        <time>2018-09-07T08:29:50Z</time>
      </trkpt>
      <trkpt lat="45.9166" lon="4.73737">
        <ele>172</ele>
        <time>2018-09-07T08:29:51Z</time>
      </trkpt>
      <trkpt lat="45.91654" lon="4.73738">
        <ele>172</ele>
        <time>2018-09-07T08:29:52Z</time>
      </trkpt>
      <trkpt lat="45.91649" lon="4.73738">
        <ele>172</ele>
        <time>2018-09-07T08:29:53Z</time>
      </trkpt>
      <trkpt lat="45.91644" lon="4.73737">
        <ele>172</ele>
        <time>2018-09-07T08:29:54Z</time>
      </trkpt>
      <trkpt lat="45.91638" lon="4.73737">
        <ele>172</ele>
        <time>2018-09-07T08:29:55Z</time>
      </trkpt>
      <trkpt lat="45.91633" lon="4.73736">
        <ele>172</ele>
        <time>2018-09-07T08:29:56Z</time>
      </trkpt>
      <trkpt lat="45.91627" lon="4.73735">
        <ele>172</ele>
        <time>2018-09-07T08:29:57Z</time>
      </trkpt>
      <trkpt lat="45.91621" lon="4.73735">
        <ele>173</ele>
        <time>2018-09-07T08:29:58Z</time>
      </trkpt>
      <trkpt lat="45.91616" lon="4.73735">
        <ele>173</ele>
        <time>2018-09-07T08:29:59Z</time>
      </trkpt>
      <trkpt lat="45.91609" lon="4.73735">
        <ele>173</ele>
        <time>2018-09-07T08:30:00Z</time>
      </trkpt>
      <trkpt lat="45.91604" lon="4.73737">
        <ele>173</ele>
        <time>2018-09-07T08:30:01Z</time>
      </trkpt>
      <trkpt lat="45.91597" lon="4.73736">
        <ele>173</ele>
        <time>2018-09-07T08:30:02Z</time>
      </trkpt>
      <trkpt lat="45.91591" lon="4.73737">
        <ele>173</ele>
        <time>2018-09-07T08:30:03Z</time>
      </trkpt>
      <trkpt lat="45.91585" lon="4.73737">
        <ele>173</ele>
        <time>2018-09-07T08:30:04Z</time>
      </trkpt>
      <trkpt lat="45.91579" lon="4.73737">
        <ele>173</ele>
        <time>2018-09-07T08:30:05Z</time>
      </trkpt>
      <trkpt lat="45.91573" lon="4.73737">
        <ele>173</ele>
        <time>2018-09-07T08:30:06Z</time>
      </trkpt>
      <trkpt lat="45.91567" lon="4.73737">
        <ele>173</ele>
        <time>2018-09-07T08:30:07Z</time>
      </trkpt>
      <trkpt lat="45.91561" lon="4.73737">
        <ele>173</ele>
        <time>2018-09-07T08:30:08Z</time>
      </trkpt>
      <trkpt lat="45.91556" lon="4.73736">
        <ele>174</ele>
        <time>2018-09-07T08:30:09Z</time>
      </trkpt>
      <trkpt lat="45.91545" lon="4.73739">
        <ele>174</ele>
        <time>2018-09-07T08:30:10Z</time>
      </trkpt>
      <trkpt lat="45.91541" lon="4.73737">
        <ele>174</ele>
        <time>2018-09-07T08:30:11Z</time>
      </trkpt>
      <trkpt lat="45.91535" lon="4.73738">
        <ele>174</ele>
        <time>2018-09-07T08:30:12Z</time>
      </trkpt>
      <trkpt lat="45.91529" lon="4.73739">
        <ele>174</ele>
        <time>2018-09-07T08:30:13Z</time>
      </trkpt>
      <trkpt lat="45.91524" lon="4.73738">
        <ele>174</ele>
        <time>2018-09-07T08:30:14Z</time>
      </trkpt>
      <trkpt lat="45.91517" lon="4.73739">
        <ele>174</ele>
        <time>2018-09-07T08:30:15Z</time>
      </trkpt>
      <trkpt lat="45.91511" lon="4.73739">
        <ele>174</ele>
        <time>2018-09-07T08:30:16Z</time>
      </trkpt>
      <trkpt lat="45.91504" lon="4.7374">
        <ele>174</ele>
        <time>2018-09-07T08:30:17Z</time>
      </trkpt>
      <trkpt lat="45.91498" lon="4.7374">
        <ele>174</ele>
        <time>2018-09-07T08:30:18Z</time>
      </trkpt>
      <trkpt lat="45.91492" lon="4.73744">
        <ele>174</ele>
        <time>2018-09-07T08:30:19Z</time>
      </trkpt>
      <trkpt lat="45.91486" lon="4.73743">
        <ele>174</ele>
        <time>2018-09-07T08:30:20Z</time>
      </trkpt>
      <trkpt lat="45.9148" lon="4.73742">
        <ele>174</ele>
        <time>2018-09-07T08:30:21Z</time>
      </trkpt>
      <trkpt lat="45.91475" lon="4.73741">
        <ele>174</ele>
        <time>2018-09-07T08:30:22Z</time>
      </trkpt>
      <trkpt lat="45.91469" lon="4.73741">
        <ele>174</ele>
        <time>2018-09-07T08:30:23Z</time>
      </trkpt>
      <trkpt lat="45.91463" lon="4.73741">
        <ele>174</ele>
        <time>2018-09-07T08:30:24Z</time>
      </trkpt>
      <trkpt lat="45.91456" lon="4.73741">
        <ele>173</ele>
        <time>2018-09-07T08:30:25Z</time>
      </trkpt>
      <trkpt lat="45.9145" lon="4.7374">
        <ele>173</ele>
        <time>2018-09-07T08:30:26Z</time>
      </trkpt>
      <trkpt lat="45.91444" lon="4.73741">
        <ele>173</ele>
        <time>2018-09-07T08:30:27Z</time>
      </trkpt>
      <trkpt lat="45.91437" lon="4.7374">
        <ele>173</ele>
        <time>2018-09-07T08:30:28Z</time>
      </trkpt>
      <trkpt lat="45.9143" lon="4.73739">
        <ele>173</ele>
        <time>2018-09-07T08:30:29Z</time>
      </trkpt>
      <trkpt lat="45.91424" lon="4.73738">
        <ele>173</ele>
        <time>2018-09-07T08:30:30Z</time>
      </trkpt>
      <trkpt lat="45.91417" lon="4.73738">
        <ele>173</ele>
        <time>2018-09-07T08:30:31Z</time>
      </trkpt>
      <trkpt lat="45.9141" lon="4.73736">
        <ele>173</ele>
        <time>2018-09-07T08:30:32Z</time>
      </trkpt>
      <trkpt lat="45.91405" lon="4.73736">
        <ele>173</ele>
        <time>2018-09-07T08:30:33Z</time>
      </trkpt>
      <trkpt lat="45.91398" lon="4.73736">
        <ele>173</ele>
        <time>2018-09-07T08:30:34Z</time>
      </trkpt>
      <trkpt lat="45.91392" lon="4.73736">
        <ele>173</ele>
        <time>2018-09-07T08:30:38.937Z</time>
      </trkpt>
      <trkpt lat="45.91386" lon="4.73736">
        <ele>173</ele>
        <time>2018-09-07T08:30:36Z</time>
      </trkpt>
      <trkpt lat="45.91381" lon="4.73738">
        <ele>173</ele>
        <time>2018-09-07T08:30:37Z</time>
      </trkpt>
      <trkpt lat="45.91376" lon="4.73737">
        <ele>173</ele>
        <time>2018-09-07T08:30:38Z</time>
      </trkpt>
      <trkpt lat="45.91371" lon="4.73737">
        <ele>173</ele>
        <time>2018-09-07T08:30:39Z</time>
      </trkpt>
      <trkpt lat="45.91365" lon="4.73737">
        <ele>173</ele>
        <time>2018-09-07T08:30:40Z</time>
      </trkpt>
      <trkpt lat="45.9136" lon="4.73738">
        <ele>173</ele>
        <time>2018-09-07T08:30:41Z</time>
      </trkpt>
      <trkpt lat="45.91353" lon="4.73738">
        <ele>173</ele>
        <time>2018-09-07T08:30:42Z</time>
      </trkpt>
      <trkpt lat="45.91347" lon="4.73739">
        <ele>173</ele>
        <time>2018-09-07T08:30:43Z</time>
      </trkpt>
      <trkpt lat="45.91341" lon="4.73738">
        <ele>173</ele>
        <time>2018-09-07T08:30:44Z</time>
      </trkpt>
      <trkpt lat="45.91335" lon="4.73738">
        <ele>173</ele>
        <time>2018-09-07T08:30:45Z</time>
      </trkpt>
      <trkpt lat="45.91331" lon="4.73739">
        <ele>173</ele>
        <time>2018-09-07T08:30:46Z</time>
      </trkpt>
      <trkpt lat="45.91325" lon="4.73739">
        <ele>173</ele>
        <time>2018-09-07T08:30:47Z</time>
      </trkpt>
      <trkpt lat="45.91319" lon="4.7374">
        <ele>174</ele>
        <time>2018-09-07T08:30:48Z</time>
      </trkpt>
      <trkpt lat="45.91312" lon="4.73739">
        <ele>174</ele>
        <time>2018-09-07T08:30:49Z</time>
      </trkpt>
      <trkpt lat="45.91306" lon="4.73739">
        <ele>174</ele>
        <time>2018-09-07T08:30:50Z</time>
      </trkpt>
      <trkpt lat="45.91299" lon="4.73738">
        <ele>174</ele>
        <time>2018-09-07T08:30:51Z</time>
      </trkpt>
      <trkpt lat="45.91293" lon="4.73738">
        <ele>174</ele>
        <time>2018-09-07T08:30:52Z</time>
      </trkpt>
      <trkpt lat="45.91287" lon="4.73739">
        <ele>174</ele>
        <time>2018-09-07T08:30:53Z</time>
      </trkpt>
      <trkpt lat="45.91281" lon="4.73739">
        <ele>174</ele>
        <time>2018-09-07T08:30:54Z</time>
      </trkpt>
      <trkpt lat="45.91276" lon="4.73739">
        <ele>174</ele>
        <time>2018-09-07T08:30:55Z</time>
      </trkpt>
      <trkpt lat="45.9127" lon="4.7374">
        <ele>174</ele>
        <time>2018-09-07T08:30:56Z</time>
      </trkpt>
      <trkpt lat="45.91263" lon="4.73744">
        <ele>175</ele>
        <time>2018-09-07T08:30:57Z</time>
      </trkpt>
      <trkpt lat="45.91257" lon="4.73747">
        <ele>175</ele>
        <time>2018-09-07T08:30:58Z</time>
      </trkpt>
      <trkpt lat="45.91251" lon="4.73748">
        <ele>175</ele>
        <time>2018-09-07T08:30:59Z</time>
      </trkpt>
      <trkpt lat="45.91245" lon="4.73748">
        <ele>175</ele>
        <time>2018-09-07T08:31:00Z</time>
      </trkpt>
      <trkpt lat="45.91239" lon="4.73748">
        <ele>175</ele>
        <time>2018-09-07T08:31:01Z</time>
      </trkpt>
      <trkpt lat="45.91233" lon="4.73749">
        <ele>175</ele>
        <time>2018-09-07T08:31:02Z</time>
      </trkpt>
      <trkpt lat="45.91227" lon="4.7375">
        <ele>175</ele>
        <time>2018-09-07T08:31:03Z</time>
      </trkpt>
      <trkpt lat="45.91222" lon="4.73749">
        <ele>175</ele>
        <time>2018-09-07T08:31:04Z</time>
      </trkpt>
      <trkpt lat="45.91217" lon="4.73747">
        <ele>175</ele>
        <time>2018-09-07T08:31:05Z</time>
      </trkpt>
      <trkpt lat="45.91213" lon="4.73752">
        <ele>175</ele>
        <time>2018-09-07T08:31:06Z</time>
      </trkpt>
      <trkpt lat="45.91207" lon="4.73752">
        <ele>175</ele>
        <time>2018-09-07T08:31:07Z</time>
      </trkpt>
      <trkpt lat="45.91202" lon="4.73751">
        <ele>175</ele>
        <time>2018-09-07T08:31:08Z</time>
      </trkpt>
      <trkpt lat="45.91196" lon="4.73749">
        <ele>175</ele>
        <time>2018-09-07T08:31:09Z</time>
      </trkpt>
      <trkpt lat="45.91191" lon="4.73748">
        <ele>175</ele>
        <time>2018-09-07T08:31:10Z</time>
      </trkpt>
      <trkpt lat="45.91185" lon="4.73745">
        <ele>175</ele>
        <time>2018-09-07T08:31:11Z</time>
      </trkpt>
      <trkpt lat="45.91179" lon="4.73743">
        <ele>175</ele>
        <time>2018-09-07T08:31:12Z</time>
      </trkpt>
      <trkpt lat="45.91174" lon="4.73741">
        <ele>175</ele>
        <time>2018-09-07T08:31:13Z</time>
      </trkpt>
      <trkpt lat="45.91168" lon="4.7374">
        <ele>175</ele>
        <time>2018-09-07T08:31:14Z</time>
      </trkpt>
      <trkpt lat="45.91163" lon="4.73739">
        <ele>175</ele>
        <time>2018-09-07T08:31:15Z</time>
      </trkpt>
      <trkpt lat="45.91159" lon="4.73735">
        <ele>175</ele>
        <time>2018-09-07T08:31:16Z</time>
      </trkpt>
      <trkpt lat="45.91156" lon="4.73727">
        <ele>175</ele>
        <time>2018-09-07T08:31:20.878Z</time>
      </trkpt>
      <trkpt lat="45.91153" lon="4.73721">
        <ele>175</ele>
        <time>2018-09-07T08:31:18Z</time>
      </trkpt>
      <trkpt lat="45.91151" lon="4.73714">
        <ele>174</ele>
        <time>2018-09-07T08:31:19Z</time>
      </trkpt>
      <trkpt lat="45.91149" lon="4.73708">
        <ele>174</ele>
        <time>2018-09-07T08:31:20Z</time>
      </trkpt>
      <trkpt lat="45.91145" lon="4.73701">
        <ele>174</ele>
        <time>2018-09-07T08:31:21Z</time>
      </trkpt>
      <trkpt lat="45.91143" lon="4.73694">
        <ele>174</ele>
        <time>2018-09-07T08:31:22Z</time>
      </trkpt>
      <trkpt lat="45.9114" lon="4.73687">
        <ele>174</ele>
        <time>2018-09-07T08:31:23Z</time>
      </trkpt>
      <trkpt lat="45.91137" lon="4.7368">
        <ele>174</ele>
        <time>2018-09-07T08:31:24Z</time>
      </trkpt>
      <trkpt lat="45.91134" lon="4.73673">
        <ele>174</ele>
        <time>2018-09-07T08:31:25Z</time>
      </trkpt>
      <trkpt lat="45.91129" lon="4.73667">
        <ele>174</ele>
        <time>2018-09-07T08:31:26Z</time>
      </trkpt>
      <trkpt lat="45.91125" lon="4.73659">
        <ele>174</ele>
        <time>2018-09-07T08:31:27Z</time>
      </trkpt>
      <trkpt lat="45.91122" lon="4.73652">
        <ele>174</ele>
        <time>2018-09-07T08:31:28Z</time>
      </trkpt>
      <trkpt lat="45.9112" lon="4.73646">
        <ele>174</ele>
        <time>2018-09-07T08:31:29Z</time>
      </trkpt>
      <trkpt lat="45.91117" lon="4.7364">
        <ele>174</ele>
        <time>2018-09-07T08:31:30Z</time>
      </trkpt>
      <trkpt lat="45.91114" lon="4.73634">
        <ele>174</ele>
        <time>2018-09-07T08:31:31Z</time>
      </trkpt>
      <trkpt lat="45.91112" lon="4.73627">
        <ele>174</ele>
        <time>2018-09-07T08:31:32Z</time>
      </trkpt>
      <trkpt lat="45.91109" lon="4.7362">
        <ele>174</ele>
        <time>2018-09-07T08:31:33Z</time>
      </trkpt>
      <trkpt lat="45.91107" lon="4.73613">
        <ele>174</ele>
        <time>2018-09-07T08:31:34Z</time>
      </trkpt>
      <trkpt lat="45.91104" lon="4.73607">
        <ele>174</ele>
        <time>2018-09-07T08:31:35Z</time>
      </trkpt>
      <trkpt lat="45.91101" lon="4.736">
        <ele>174</ele>
        <time>2018-09-07T08:31:36Z</time>
      </trkpt>
      <trkpt lat="45.91095" lon="4.73586">
        <ele>174</ele>
        <time>2018-09-07T08:31:37Z</time>
      </trkpt>
      <trkpt lat="45.91092" lon="4.73581">
        <ele>174</ele>
        <time>2018-09-07T08:31:41.935Z</time>
      </trkpt>
      <trkpt lat="45.91089" lon="4.73574">
        <ele>174</ele>
        <time>2018-09-07T08:31:39Z</time>
      </trkpt>
      <trkpt lat="45.91088" lon="4.73568">
        <ele>174</ele>
        <time>2018-09-07T08:31:40Z</time>
      </trkpt>
      <trkpt lat="45.91086" lon="4.73562">
        <ele>174</ele>
        <time>2018-09-07T08:31:41Z</time>
      </trkpt>
      <trkpt lat="45.91083" lon="4.73555">
        <ele>174</ele>
        <time>2018-09-07T08:31:42Z</time>
      </trkpt>
      <trkpt lat="45.91081" lon="4.73548">
        <ele>174</ele>
        <time>2018-09-07T08:31:43Z</time>
      </trkpt>
      <trkpt lat="45.91076" lon="4.73541">
        <ele>175</ele>
        <time>2018-09-07T08:31:44Z</time>
      </trkpt>
      <trkpt lat="45.91074" lon="4.73535">
        <ele>175</ele>
        <time>2018-09-07T08:31:45Z</time>
      </trkpt>
      <trkpt lat="45.91071" lon="4.73527">
        <ele>175</ele>
        <time>2018-09-07T08:31:46Z</time>
      </trkpt>
      <trkpt lat="45.91068" lon="4.73521">
        <ele>175</ele>
        <time>2018-09-07T08:31:47Z</time>
      </trkpt>
      <trkpt lat="45.91063" lon="4.73514">
        <ele>175</ele>
        <time>2018-09-07T08:31:48Z</time>
      </trkpt>
      <trkpt lat="45.9106" lon="4.73508">
        <ele>175</ele>
        <time>2018-09-07T08:31:49Z</time>
      </trkpt>
      <trkpt lat="45.91057" lon="4.73501">
        <ele>175</ele>
        <time>2018-09-07T08:31:50Z</time>
      </trkpt>
      <trkpt lat="45.91055" lon="4.73493">
        <ele>175</ele>
        <time>2018-09-07T08:31:51Z</time>
      </trkpt>
      <trkpt lat="45.9105" lon="4.73487">
        <ele>175</ele>
        <time>2018-09-07T08:31:52Z</time>
      </trkpt>
      <trkpt lat="45.91044" lon="4.73481">
        <ele>175</ele>
        <time>2018-09-07T08:31:53Z</time>
      </trkpt>
      <trkpt lat="45.91041" lon="4.7347">
        <ele>175</ele>
        <time>2018-09-07T08:31:55Z</time>
      </trkpt>
      <trkpt lat="45.91039" lon="4.73464">
        <ele>175</ele>
        <time>2018-09-07T08:31:56Z</time>
      </trkpt>
      <trkpt lat="45.91039" lon="4.73458">
        <ele>175</ele>
        <time>2018-09-07T08:31:57Z</time>
      </trkpt>
      <trkpt lat="45.91036" lon="4.73449">
        <ele>175</ele>
        <time>2018-09-07T08:31:58Z</time>
      </trkpt>
      <trkpt lat="45.91035" lon="4.73443">
        <ele>175</ele>
        <time>2018-09-07T08:31:59Z</time>
      </trkpt>
      <trkpt lat="45.91036" lon="4.73435">
        <ele>175</ele>
        <time>2018-09-07T08:32:00Z</time>
      </trkpt>
      <trkpt lat="45.91034" lon="4.7343">
        <ele>175</ele>
        <time>2018-09-07T08:32:01Z</time>
      </trkpt>
      <trkpt lat="45.91032" lon="4.73422">
        <ele>175</ele>
        <time>2018-09-07T08:32:02Z</time>
      </trkpt>
      <trkpt lat="45.91029" lon="4.73415">
        <ele>174</ele>
        <time>2018-09-07T08:32:03Z</time>
      </trkpt>
      <trkpt lat="45.91026" lon="4.73409">
        <ele>174</ele>
        <time>2018-09-07T08:32:04Z</time>
      </trkpt>
      <trkpt lat="45.91017" lon="4.73409">
        <ele>174</ele>
        <time>2018-09-07T08:32:05Z</time>
      </trkpt>
      <trkpt lat="45.91013" lon="4.73412">
        <ele>175</ele>
        <time>2018-09-07T08:32:06Z</time>
      </trkpt>
      <trkpt lat="45.91007" lon="4.73416">
        <ele>175</ele>
        <time>2018-09-07T08:32:07Z</time>
      </trkpt>
      <trkpt lat="45.91003" lon="4.73421">
        <ele>175</ele>
        <time>2018-09-07T08:32:08Z</time>
      </trkpt>
      <trkpt lat="45.90999" lon="4.73426">
        <ele>175</ele>
        <time>2018-09-07T08:32:09Z</time>
      </trkpt>
      <trkpt lat="45.90995" lon="4.73431">
        <ele>175</ele>
        <time>2018-09-07T08:32:10Z</time>
      </trkpt>
      <trkpt lat="45.9099" lon="4.73435">
        <ele>175</ele>
        <time>2018-09-07T08:32:11Z</time>
      </trkpt>
      <trkpt lat="45.90985" lon="4.73438">
        <ele>175</ele>
        <time>2018-09-07T08:32:12Z</time>
      </trkpt>
      <trkpt lat="45.9098" lon="4.73442">
        <ele>175</ele>
        <time>2018-09-07T08:32:13Z</time>
      </trkpt>
      <trkpt lat="45.90974" lon="4.73444">
        <ele>175</ele>
        <time>2018-09-07T08:32:14Z</time>
      </trkpt>
      <trkpt lat="45.90968" lon="4.73446">
        <ele>175</ele>
        <time>2018-09-07T08:32:15Z</time>
      </trkpt>
      <trkpt lat="45.90963" lon="4.73448">
        <ele>175</ele>
        <time>2018-09-07T08:32:16Z</time>
      </trkpt>
      <trkpt lat="45.90957" lon="4.73448">
        <ele>175</ele>
        <time>2018-09-07T08:32:17Z</time>
      </trkpt>
      <trkpt lat="45.90952" lon="4.7345">
        <ele>175</ele>
        <time>2018-09-07T08:32:18Z</time>
      </trkpt>
      <trkpt lat="45.90947" lon="4.73453">
        <ele>175</ele>
        <time>2018-09-07T08:32:19Z</time>
      </trkpt>
      <trkpt lat="45.90942" lon="4.73456">
        <ele>175</ele>
        <time>2018-09-07T08:32:20Z</time>
      </trkpt>
      <trkpt lat="45.90937" lon="4.7346">
        <ele>175</ele>
        <time>2018-09-07T08:32:21Z</time>
      </trkpt>
      <trkpt lat="45.90933" lon="4.73463">
        <ele>175</ele>
        <time>2018-09-07T08:32:22Z</time>
      </trkpt>
      <trkpt lat="45.9093" lon="4.73467">
        <ele>175</ele>
        <time>2018-09-07T08:32:23Z</time>
      </trkpt>
      <trkpt lat="45.90924" lon="4.73469">
        <ele>175</ele>
        <time>2018-09-07T08:32:24Z</time>
      </trkpt>
      <trkpt lat="45.90921" lon="4.73474">
        <ele>175</ele>
        <time>2018-09-07T08:32:25Z</time>
      </trkpt>
      <trkpt lat="45.90915" lon="4.73477">
        <ele>175</ele>
        <time>2018-09-07T08:32:26Z</time>
      </trkpt>
      <trkpt lat="45.90909" lon="4.7348">
        <ele>175</ele>
        <time>2018-09-07T08:32:27Z</time>
      </trkpt>
      <trkpt lat="45.90903" lon="4.73482">
        <ele>175</ele>
        <time>2018-09-07T08:32:28Z</time>
      </trkpt>
      <trkpt lat="45.90898" lon="4.73484">
        <ele>175</ele>
        <time>2018-09-07T08:32:29Z</time>
      </trkpt>
      <trkpt lat="45.90892" lon="4.73486">
        <ele>175</ele>
        <time>2018-09-07T08:32:30Z</time>
      </trkpt>
      <trkpt lat="45.90889" lon="4.73492">
        <ele>175</ele>
        <time>2018-09-07T08:32:31Z</time>
      </trkpt>
      <trkpt lat="45.90885" lon="4.73495">
        <ele>175</ele>
        <time>2018-09-07T08:32:32Z</time>
      </trkpt>
      <trkpt lat="45.90879" lon="4.73497">
        <ele>175</ele>
        <time>2018-09-07T08:32:33Z</time>
      </trkpt>
      <trkpt lat="45.90873" lon="4.73499">
        <ele>175</ele>
        <time>2018-09-07T08:32:34Z</time>
      </trkpt>
      <trkpt lat="45.90867" lon="4.73501">
        <ele>174</ele>
        <time>2018-09-07T08:32:35Z</time>
      </trkpt>
      <trkpt lat="45.90861" lon="4.73503">
        <ele>174</ele>
        <time>2018-09-07T08:32:36Z</time>
      </trkpt>
      <trkpt lat="45.90857" lon="4.73512">
        <ele>174</ele>
        <time>2018-09-07T08:32:37Z</time>
      </trkpt>
      <trkpt lat="45.90852" lon="4.73515">
        <ele>174</ele>
        <time>2018-09-07T08:32:38Z</time>
      </trkpt>
      <trkpt lat="45.90846" lon="4.73518">
        <ele>174</ele>
        <time>2018-09-07T08:32:42.87Z</time>
      </trkpt>
      <trkpt lat="45.90842" lon="4.73518">
        <ele>174</ele>
        <time>2018-09-07T08:32:40Z</time>
      </trkpt>
      <trkpt lat="45.90837" lon="4.73521">
        <ele>174</ele>
        <time>2018-09-07T08:32:41Z</time>
      </trkpt>
      <trkpt lat="45.90832" lon="4.73524">
        <ele>175</ele>
        <time>2018-09-07T08:32:42Z</time>
      </trkpt>
      <trkpt lat="45.90826" lon="4.73526">
        <ele>175</ele>
        <time>2018-09-07T08:32:43Z</time>
      </trkpt>
      <trkpt lat="45.9082" lon="4.73528">
        <ele>175</ele>
        <time>2018-09-07T08:32:44Z</time>
      </trkpt>
      <trkpt lat="45.90815" lon="4.73528">
        <ele>175</ele>
        <time>2018-09-07T08:32:45Z</time>
      </trkpt>
      <trkpt lat="45.90811" lon="4.73533">
        <ele>175</ele>
        <time>2018-09-07T08:32:46Z</time>
      </trkpt>
      <trkpt lat="45.90806" lon="4.73536">
        <ele>175</ele>
        <time>2018-09-07T08:32:47Z</time>
      </trkpt>
      <trkpt lat="45.908" lon="4.73537">
        <ele>176</ele>
        <time>2018-09-07T08:32:48Z</time>
      </trkpt>
      <trkpt lat="45.90795" lon="4.73539">
        <ele>176</ele>
        <time>2018-09-07T08:32:49Z</time>
      </trkpt>
      <trkpt lat="45.90791" lon="4.73542">
        <ele>176</ele>
        <time>2018-09-07T08:32:50Z</time>
      </trkpt>
      <trkpt lat="45.90785" lon="4.73544">
        <ele>176</ele>
        <time>2018-09-07T08:32:51Z</time>
      </trkpt>
      <trkpt lat="45.90779" lon="4.73545">
        <ele>176</ele>
        <time>2018-09-07T08:32:52Z</time>
      </trkpt>
      <trkpt lat="45.90774" lon="4.73546">
        <ele>176</ele>
        <time>2018-09-07T08:32:53Z</time>
      </trkpt>
      <trkpt lat="45.90768" lon="4.73547">
        <ele>176</ele>
        <time>2018-09-07T08:32:54Z</time>
      </trkpt>
      <trkpt lat="45.90763" lon="4.73548">
        <ele>176</ele>
        <time>2018-09-07T08:32:55Z</time>
      </trkpt>
      <trkpt lat="45.90758" lon="4.73549">
        <ele>176</ele>
        <time>2018-09-07T08:32:56Z</time>
      </trkpt>
      <trkpt lat="45.90752" lon="4.73551">
        <ele>177</ele>
        <time>2018-09-07T08:32:57Z</time>
      </trkpt>
      <trkpt lat="45.90748" lon="4.73554">
        <ele>178</ele>
        <time>2018-09-07T08:32:58Z</time>
      </trkpt>
      <trkpt lat="45.90743" lon="4.73558">
        <ele>178</ele>
        <time>2018-09-07T08:32:59Z</time>
      </trkpt>
      <trkpt lat="45.90738" lon="4.7356">
        <ele>178</ele>
        <time>2018-09-07T08:33:00Z</time>
      </trkpt>
      <trkpt lat="45.90735" lon="4.73561">
        <ele>178</ele>
        <time>2018-09-07T08:33:01Z</time>
      </trkpt>
      <trkpt lat="45.90729" lon="4.73564">
        <ele>178</ele>
        <time>2018-09-07T08:33:02Z</time>
      </trkpt>
      <trkpt lat="45.90721" lon="4.7357">
        <ele>178</ele>
        <time>2018-09-07T08:33:04Z</time>
      </trkpt>
      <trkpt lat="45.90716" lon="4.73572">
        <ele>178</ele>
        <time>2018-09-07T08:33:05Z</time>
      </trkpt>
      <trkpt lat="45.90711" lon="4.73574">
        <ele>178</ele>
        <time>2018-09-07T08:33:06Z</time>
      </trkpt>
      <trkpt lat="45.90706" lon="4.73576">
        <ele>178</ele>
        <time>2018-09-07T08:33:07Z</time>
      </trkpt>
      <trkpt lat="45.90701" lon="4.73576">
        <ele>178</ele>
        <time>2018-09-07T08:33:08Z</time>
      </trkpt>
      <trkpt lat="45.90695" lon="4.7358">
        <ele>178</ele>
        <time>2018-09-07T08:33:09Z</time>
      </trkpt>
      <trkpt lat="45.90687" lon="4.73583">
        <ele>179</ele>
        <time>2018-09-07T08:33:11Z</time>
      </trkpt>
      <trkpt lat="45.90683" lon="4.73585">
        <ele>181</ele>
        <time>2018-09-07T08:33:12Z</time>
      </trkpt>
      <trkpt lat="45.90676" lon="4.73586">
        <ele>180</ele>
        <time>2018-09-07T08:33:14Z</time>
      </trkpt>
      <trkpt lat="45.90671" lon="4.73587">
        <ele>180</ele>
        <time>2018-09-07T08:33:15Z</time>
      </trkpt>
      <trkpt lat="45.90666" lon="4.73589">
        <ele>180</ele>
        <time>2018-09-07T08:33:16Z</time>
      </trkpt>
      <trkpt lat="45.90662" lon="4.73591">
        <ele>180</ele>
        <time>2018-09-07T08:33:17Z</time>
      </trkpt>
      <trkpt lat="45.90653" lon="4.73594">
        <ele>181</ele>
        <time>2018-09-07T08:33:19Z</time>
      </trkpt>
      <trkpt lat="45.9065" lon="4.73598">
        <ele>181</ele>
        <time>2018-09-07T08:33:20Z</time>
      </trkpt>
      <trkpt lat="45.90642" lon="4.736">
        <ele>181</ele>
        <time>2018-09-07T08:33:22Z</time>
      </trkpt>
      <trkpt lat="45.90638" lon="4.73601">
        <ele>181</ele>
        <time>2018-09-07T08:33:23Z</time>
      </trkpt>
      <trkpt lat="45.9063" lon="4.73604">
        <ele>181</ele>
        <time>2018-09-07T08:33:25Z</time>
      </trkpt>
      <trkpt lat="45.90625" lon="4.73606">
        <ele>181</ele>
        <time>2018-09-07T08:33:26Z</time>
      </trkpt>
      <trkpt lat="45.9062" lon="4.73608">
        <ele>181</ele>
        <time>2018-09-07T08:33:27Z</time>
      </trkpt>
      <trkpt lat="45.90615" lon="4.7361">
        <ele>181</ele>
        <time>2018-09-07T08:33:28Z</time>
      </trkpt>
      <trkpt lat="45.9061" lon="4.73613">
        <ele>181</ele>
        <time>2018-09-07T08:33:29Z</time>
      </trkpt>
      <trkpt lat="45.90605" lon="4.73615">
        <ele>181</ele>
        <time>2018-09-07T08:33:30Z</time>
      </trkpt>
      <trkpt lat="45.906" lon="4.73617">
        <ele>181</ele>
        <time>2018-09-07T08:33:31Z</time>
      </trkpt>
      <trkpt lat="45.90595" lon="4.73619">
        <ele>181</ele>
        <time>2018-09-07T08:33:32Z</time>
      </trkpt>
      <trkpt lat="45.9059" lon="4.7362">
        <ele>180</ele>
        <time>2018-09-07T08:33:33Z</time>
      </trkpt>
      <trkpt lat="45.90585" lon="4.73622">
        <ele>180</ele>
        <time>2018-09-07T08:33:34Z</time>
      </trkpt>
      <trkpt lat="45.9058" lon="4.73623">
        <ele>179</ele>
        <time>2018-09-07T08:33:35Z</time>
      </trkpt>
      <trkpt lat="45.90575" lon="4.73626">
        <ele>179</ele>
        <time>2018-09-07T08:33:36Z</time>
      </trkpt>
      <trkpt lat="45.90569" lon="4.73628">
        <ele>179</ele>
        <time>2018-09-07T08:33:37Z</time>
      </trkpt>
      <trkpt lat="45.90566" lon="4.7363">
        <ele>179</ele>
        <time>2018-09-07T08:33:38Z</time>
      </trkpt>
      <trkpt lat="45.9056" lon="4.73632">
        <ele>179</ele>
        <time>2018-09-07T08:33:39Z</time>
      </trkpt>
      <trkpt lat="45.90555" lon="4.73635">
        <ele>179</ele>
        <time>2018-09-07T08:33:40Z</time>
      </trkpt>
      <trkpt lat="45.90551" lon="4.73637">
        <ele>179</ele>
        <time>2018-09-07T08:33:41Z</time>
      </trkpt>
      <trkpt lat="45.90546" lon="4.73639">
        <ele>178</ele>
        <time>2018-09-07T08:33:42Z</time>
      </trkpt>
      <trkpt lat="45.90541" lon="4.73641">
        <ele>178</ele>
        <time>2018-09-07T08:33:43Z</time>
      </trkpt>
      <trkpt lat="45.90536" lon="4.73643">
        <ele>178</ele>
        <time>2018-09-07T08:33:44Z</time>
      </trkpt>
      <trkpt lat="45.90531" lon="4.73645">
        <ele>178</ele>
        <time>2018-09-07T08:33:45Z</time>
      </trkpt>
      <trkpt lat="45.90526" lon="4.73647">
        <ele>178</ele>
        <time>2018-09-07T08:33:46Z</time>
      </trkpt>
      <trkpt lat="45.90522" lon="4.73646">
        <ele>178</ele>
        <time>2018-09-07T08:33:47Z</time>
      </trkpt>
      <trkpt lat="45.90517" lon="4.73648">
        <ele>178</ele>
        <time>2018-09-07T08:33:48Z</time>
      </trkpt>
      <trkpt lat="45.90512" lon="4.7365">
        <ele>178</ele>
        <time>2018-09-07T08:33:49Z</time>
      </trkpt>
      <trkpt lat="45.90507" lon="4.73652">
        <ele>178</ele>
        <time>2018-09-07T08:33:50Z</time>
      </trkpt>
      <trkpt lat="45.90498" lon="4.73656">
        <ele>177</ele>
        <time>2018-09-07T08:33:52Z</time>
      </trkpt>
      <trkpt lat="45.90493" lon="4.73658">
        <ele>177</ele>
        <time>2018-09-07T08:33:53Z</time>
      </trkpt>
      <trkpt lat="45.90488" lon="4.7366">
        <ele>177</ele>
        <time>2018-09-07T08:33:54Z</time>
      </trkpt>
      <trkpt lat="45.90483" lon="4.7366">
        <ele>177</ele>
        <time>2018-09-07T08:33:55Z</time>
      </trkpt>
      <trkpt lat="45.90478" lon="4.73664">
        <ele>177</ele>
        <time>2018-09-07T08:33:56Z</time>
      </trkpt>
      <trkpt lat="45.90473" lon="4.73669">
        <ele>176</ele>
        <time>2018-09-07T08:33:57Z</time>
      </trkpt>
      <trkpt lat="45.90468" lon="4.73671">
        <ele>176</ele>
        <time>2018-09-07T08:33:58Z</time>
      </trkpt>
      <trkpt lat="45.90462" lon="4.73673">
        <ele>176</ele>
        <time>2018-09-07T08:33:59Z</time>
      </trkpt>
      <trkpt lat="45.90456" lon="4.73676">
        <ele>176</ele>
        <time>2018-09-07T08:34:00Z</time>
      </trkpt>
      <trkpt lat="45.90452" lon="4.73679">
        <ele>176</ele>
        <time>2018-09-07T08:34:01Z</time>
      </trkpt>
      <trkpt lat="45.90445" lon="4.73683">
        <ele>176</ele>
        <time>2018-09-07T08:34:02Z</time>
      </trkpt>
      <trkpt lat="45.90439" lon="4.73685">
        <ele>176</ele>
        <time>2018-09-07T08:34:03Z</time>
      </trkpt>
      <trkpt lat="45.90433" lon="4.73688">
        <ele>176</ele>
        <time>2018-09-07T08:34:04Z</time>
      </trkpt>
      <trkpt lat="45.90426" lon="4.73689">
        <ele>176</ele>
        <time>2018-09-07T08:34:05Z</time>
      </trkpt>
      <trkpt lat="45.90421" lon="4.73694">
        <ele>176</ele>
        <time>2018-09-07T08:34:06Z</time>
      </trkpt>
      <trkpt lat="45.90414" lon="4.73695">
        <ele>177</ele>
        <time>2018-09-07T08:34:07Z</time>
      </trkpt>
      <trkpt lat="45.90407" lon="4.73698">
        <ele>177</ele>
        <time>2018-09-07T08:34:08Z</time>
      </trkpt>
      <trkpt lat="45.90402" lon="4.737">
        <ele>177</ele>
        <time>2018-09-07T08:34:09Z</time>
      </trkpt>
      <trkpt lat="45.90395" lon="4.73704">
        <ele>177</ele>
        <time>2018-09-07T08:34:10Z</time>
      </trkpt>
      <trkpt lat="45.90389" lon="4.73707">
        <ele>177</ele>
        <time>2018-09-07T08:34:11Z</time>
      </trkpt>
      <trkpt lat="45.90381" lon="4.73709">
        <ele>177</ele>
        <time>2018-09-07T08:34:12Z</time>
      </trkpt>
      <trkpt lat="45.90374" lon="4.73712">
        <ele>177</ele>
        <time>2018-09-07T08:34:13Z</time>
      </trkpt>
      <trkpt lat="45.90368" lon="4.73714">
        <ele>177</ele>
        <time>2018-09-07T08:34:14Z</time>
      </trkpt>
      <trkpt lat="45.9036" lon="4.73717">
        <ele>177</ele>
        <time>2018-09-07T08:34:15Z</time>
      </trkpt>
      <trkpt lat="45.90353" lon="4.7372">
        <ele>177</ele>
        <time>2018-09-07T08:34:16Z</time>
      </trkpt>
      <trkpt lat="45.90346" lon="4.73722">
        <ele>177</ele>
        <time>2018-09-07T08:34:17Z</time>
      </trkpt>
      <trkpt lat="45.90338" lon="4.73725">
        <ele>177</ele>
        <time>2018-09-07T08:34:18Z</time>
      </trkpt>
      <trkpt lat="45.90329" lon="4.73728">
        <ele>177</ele>
        <time>2018-09-07T08:34:19Z</time>
      </trkpt>
      <trkpt lat="45.90322" lon="4.73731">
        <ele>177</ele>
        <time>2018-09-07T08:34:20Z</time>
      </trkpt>
      <trkpt lat="45.90314" lon="4.73733">
        <ele>177</ele>
        <time>2018-09-07T08:34:21Z</time>
      </trkpt>
      <trkpt lat="45.90307" lon="4.73736">
        <ele>177</ele>
        <time>2018-09-07T08:34:22Z</time>
      </trkpt>
      <trkpt lat="45.90301" lon="4.73742">
        <ele>177</ele>
        <time>2018-09-07T08:34:23Z</time>
      </trkpt>
      <trkpt lat="45.90295" lon="4.73746">
        <ele>177</ele>
        <time>2018-09-07T08:34:24Z</time>
      </trkpt>
      <trkpt lat="45.90291" lon="4.73757">
        <ele>177</ele>
        <time>2018-09-07T08:34:25Z</time>
      </trkpt>
      <trkpt lat="45.90284" lon="4.73759">
        <ele>177</ele>
        <time>2018-09-07T08:34:26Z</time>
      </trkpt>
      <trkpt lat="45.90276" lon="4.7376">
        <ele>177</ele>
        <time>2018-09-07T08:34:27Z</time>
      </trkpt>
      <trkpt lat="45.9027" lon="4.73762">
        <ele>177</ele>
        <time>2018-09-07T08:34:28Z</time>
      </trkpt>
      <trkpt lat="45.90263" lon="4.73765">
        <ele>177</ele>
        <time>2018-09-07T08:34:29Z</time>
      </trkpt>
      <trkpt lat="45.90256" lon="4.73766">
        <ele>177</ele>
        <time>2018-09-07T08:34:30Z</time>
      </trkpt>
      <trkpt lat="45.9025" lon="4.73769">
        <ele>178</ele>
        <time>2018-09-07T08:34:31Z</time>
      </trkpt>
      <trkpt lat="45.90242" lon="4.7377">
        <ele>177</ele>
        <time>2018-09-07T08:34:32Z</time>
      </trkpt>
      <trkpt lat="45.90235" lon="4.73772">
        <ele>177</ele>
        <time>2018-09-07T08:34:33Z</time>
      </trkpt>
      <trkpt lat="45.9023" lon="4.73775">
        <ele>177</ele>
        <time>2018-09-07T08:34:34Z</time>
      </trkpt>
      <trkpt lat="45.90224" lon="4.73777">
        <ele>177</ele>
        <time>2018-09-07T08:34:35Z</time>
      </trkpt>
      <trkpt lat="45.90218" lon="4.73779">
        <ele>177</ele>
        <time>2018-09-07T08:34:36Z</time>
      </trkpt>
      <trkpt lat="45.90212" lon="4.73782">
        <ele>177</ele>
        <time>2018-09-07T08:34:37Z</time>
      </trkpt>
      <trkpt lat="45.90206" lon="4.73784">
        <ele>177</ele>
        <time>2018-09-07T08:34:38Z</time>
      </trkpt>
      <trkpt lat="45.90199" lon="4.73786">
        <ele>177</ele>
        <time>2018-09-07T08:34:39Z</time>
      </trkpt>
      <trkpt lat="45.90194" lon="4.73786">
        <ele>177</ele>
        <time>2018-09-07T08:34:40Z</time>
      </trkpt>
      <trkpt lat="45.90187" lon="4.73787">
        <ele>177</ele>
        <time>2018-09-07T08:34:41Z</time>
      </trkpt>
      <trkpt lat="45.9018" lon="4.73788">
        <ele>177</ele>
        <time>2018-09-07T08:34:42Z</time>
      </trkpt>
      <trkpt lat="45.90175" lon="4.7379">
        <ele>177</ele>
        <time>2018-09-07T08:34:43Z</time>
      </trkpt>
      <trkpt lat="45.90169" lon="4.73792">
        <ele>177</ele>
        <time>2018-09-07T08:34:44Z</time>
      </trkpt>
      <trkpt lat="45.90163" lon="4.73794">
        <ele>176</ele>
        <time>2018-09-07T08:34:45Z</time>
      </trkpt>
      <trkpt lat="45.90156" lon="4.73795">
        <ele>177</ele>
        <time>2018-09-07T08:34:46Z</time>
      </trkpt>
      <trkpt lat="45.9015" lon="4.73797">
        <ele>177</ele>
        <time>2018-09-07T08:34:47Z</time>
      </trkpt>
      <trkpt lat="45.90144" lon="4.73799">
        <ele>177</ele>
        <time>2018-09-07T08:34:48Z</time>
      </trkpt>
      <trkpt lat="45.90138" lon="4.73801">
        <ele>177</ele>
        <time>2018-09-07T08:34:49Z</time>
      </trkpt>
      <trkpt lat="45.90133" lon="4.73802">
        <ele>177</ele>
        <time>2018-09-07T08:34:50Z</time>
      </trkpt>
      <trkpt lat="45.90127" lon="4.73804">
        <ele>177</ele>
        <time>2018-09-07T08:34:51Z</time>
      </trkpt>
      <trkpt lat="45.90122" lon="4.73807">
        <ele>177</ele>
        <time>2018-09-07T08:34:56.75Z</time>
      </trkpt>
      <trkpt lat="45.90116" lon="4.73809">
        <ele>177</ele>
        <time>2018-09-07T08:34:53Z</time>
      </trkpt>
      <trkpt lat="45.90111" lon="4.7381">
        <ele>177</ele>
        <time>2018-09-07T08:34:54Z</time>
      </trkpt>
      <trkpt lat="45.90105" lon="4.73813">
        <ele>177</ele>
        <time>2018-09-07T08:34:55Z</time>
      </trkpt>
      <trkpt lat="45.90098" lon="4.73816">
        <ele>177</ele>
        <time>2018-09-07T08:34:56Z</time>
      </trkpt>
      <trkpt lat="45.90092" lon="4.73819">
        <ele>177</ele>
        <time>2018-09-07T08:34:57Z</time>
      </trkpt>
      <trkpt lat="45.90086" lon="4.73822">
        <ele>178</ele>
        <time>2018-09-07T08:34:58Z</time>
      </trkpt>
      <trkpt lat="45.9008" lon="4.73826">
        <ele>178</ele>
        <time>2018-09-07T08:34:59Z</time>
      </trkpt>
      <trkpt lat="45.90074" lon="4.73828">
        <ele>178</ele>
        <time>2018-09-07T08:35:00Z</time>
      </trkpt>
      <trkpt lat="45.90068" lon="4.73831">
        <ele>178</ele>
        <time>2018-09-07T08:35:01Z</time>
      </trkpt>
      <trkpt lat="45.90063" lon="4.73833">
        <ele>178</ele>
        <time>2018-09-07T08:35:02Z</time>
      </trkpt>
      <trkpt lat="45.90057" lon="4.73833">
        <ele>178</ele>
        <time>2018-09-07T08:35:03Z</time>
      </trkpt>
      <trkpt lat="45.90052" lon="4.73837">
        <ele>178</ele>
        <time>2018-09-07T08:35:04Z</time>
      </trkpt>
      <trkpt lat="45.90046" lon="4.73839">
        <ele>178</ele>
        <time>2018-09-07T08:35:05Z</time>
      </trkpt>
      <trkpt lat="45.9004" lon="4.73842">
        <ele>178</ele>
        <time>2018-09-07T08:35:06Z</time>
      </trkpt>
      <trkpt lat="45.90035" lon="4.73844">
        <ele>178</ele>
        <time>2018-09-07T08:35:07Z</time>
      </trkpt>
      <trkpt lat="45.90029" lon="4.73846">
        <ele>178</ele>
        <time>2018-09-07T08:35:08Z</time>
      </trkpt>
      <trkpt lat="45.90023" lon="4.73849">
        <ele>178</ele>
        <time>2018-09-07T08:35:09Z</time>
      </trkpt>
      <trkpt lat="45.90018" lon="4.73851">
        <ele>178</ele>
        <time>2018-09-07T08:35:10Z</time>
      </trkpt>
      <trkpt lat="45.90012" lon="4.73853">
        <ele>178</ele>
        <time>2018-09-07T08:35:11Z</time>
      </trkpt>
      <trkpt lat="45.90006" lon="4.73854">
        <ele>178</ele>
        <time>2018-09-07T08:35:12Z</time>
      </trkpt>
      <trkpt lat="45.9" lon="4.73854">
        <ele>178</ele>
        <time>2018-09-07T08:35:13Z</time>
      </trkpt>
      <trkpt lat="45.89995" lon="4.73857">
        <ele>178</ele>
        <time>2018-09-07T08:35:14Z</time>
      </trkpt>
      <trkpt lat="45.89989" lon="4.73859">
        <ele>178</ele>
        <time>2018-09-07T08:35:15Z</time>
      </trkpt>
      <trkpt lat="45.89984" lon="4.73864">
        <ele>178</ele>
        <time>2018-09-07T08:35:16Z</time>
      </trkpt>
      <trkpt lat="45.89978" lon="4.73866">
        <ele>178</ele>
        <time>2018-09-07T08:35:17Z</time>
      </trkpt>
      <trkpt lat="45.89972" lon="4.73868">
        <ele>178</ele>
        <time>2018-09-07T08:35:18Z</time>
      </trkpt>
      <trkpt lat="45.89966" lon="4.73871">
        <ele>178</ele>
        <time>2018-09-07T08:35:19Z</time>
      </trkpt>
      <trkpt lat="45.89962" lon="4.73875">
        <ele>178</ele>
        <time>2018-09-07T08:35:20Z</time>
      </trkpt>
      <trkpt lat="45.89956" lon="4.73878">
        <ele>178</ele>
        <time>2018-09-07T08:35:21Z</time>
      </trkpt>
      <trkpt lat="45.89951" lon="4.73882">
        <ele>178</ele>
        <time>2018-09-07T08:35:22Z</time>
      </trkpt>
      <trkpt lat="45.89946" lon="4.73884">
        <ele>178</ele>
        <time>2018-09-07T08:35:23Z</time>
      </trkpt>
      <trkpt lat="45.8994" lon="4.73885">
        <ele>178</ele>
        <time>2018-09-07T08:35:24Z</time>
      </trkpt>
      <trkpt lat="45.89936" lon="4.7389">
        <ele>178</ele>
        <time>2018-09-07T08:35:25Z</time>
      </trkpt>
      <trkpt lat="45.89928" lon="4.7389">
        <ele>178</ele>
        <time>2018-09-07T08:35:26Z</time>
      </trkpt>
      <trkpt lat="45.89923" lon="4.73893">
        <ele>178</ele>
        <time>2018-09-07T08:35:27Z</time>
      </trkpt>
      <trkpt lat="45.89918" lon="4.73896">
        <ele>178</ele>
        <time>2018-09-07T08:35:28Z</time>
      </trkpt>
      <trkpt lat="45.89912" lon="4.73899">
        <ele>178</ele>
        <time>2018-09-07T08:35:29Z</time>
      </trkpt>
      <trkpt lat="45.89906" lon="4.73901">
        <ele>178</ele>
        <time>2018-09-07T08:35:30Z</time>
      </trkpt>
      <trkpt lat="45.899" lon="4.73903">
        <ele>178</ele>
        <time>2018-09-07T08:35:31Z</time>
      </trkpt>
      <trkpt lat="45.89894" lon="4.73903">
        <ele>179</ele>
        <time>2018-09-07T08:35:32Z</time>
      </trkpt>
      <trkpt lat="45.89889" lon="4.73906">
        <ele>179</ele>
        <time>2018-09-07T08:35:33Z</time>
      </trkpt>
      <trkpt lat="45.89884" lon="4.73908">
        <ele>179</ele>
        <time>2018-09-07T08:35:34Z</time>
      </trkpt>
      <trkpt lat="45.89878" lon="4.7391">
        <ele>179</ele>
        <time>2018-09-07T08:35:35Z</time>
      </trkpt>
      <trkpt lat="45.89872" lon="4.7391">
        <ele>179</ele>
        <time>2018-09-07T08:35:36Z</time>
      </trkpt>
      <trkpt lat="45.89866" lon="4.73913">
        <ele>179</ele>
        <time>2018-09-07T08:35:37Z</time>
      </trkpt>
      <trkpt lat="45.89861" lon="4.73916">
        <ele>179</ele>
        <time>2018-09-07T08:35:38Z</time>
      </trkpt>
      <trkpt lat="45.89855" lon="4.73918">
        <ele>179</ele>
        <time>2018-09-07T08:35:39Z</time>
      </trkpt>
      <trkpt lat="45.89849" lon="4.73922">
        <ele>179</ele>
        <time>2018-09-07T08:35:40Z</time>
      </trkpt>
      <trkpt lat="45.89844" lon="4.73925">
        <ele>179</ele>
        <time>2018-09-07T08:35:41Z</time>
      </trkpt>
      <trkpt lat="45.89839" lon="4.73927">
        <ele>179</ele>
        <time>2018-09-07T08:35:42Z</time>
      </trkpt>
      <trkpt lat="45.89833" lon="4.7393">
        <ele>179</ele>
        <time>2018-09-07T08:35:43Z</time>
      </trkpt>
      <trkpt lat="45.89827" lon="4.73931">
        <ele>179</ele>
        <time>2018-09-07T08:35:44Z</time>
      </trkpt>
      <trkpt lat="45.89823" lon="4.73933">
        <ele>179</ele>
        <time>2018-09-07T08:35:45Z</time>
      </trkpt>
      <trkpt lat="45.89818" lon="4.73934">
        <ele>179</ele>
        <time>2018-09-07T08:35:46Z</time>
      </trkpt>
      <trkpt lat="45.89813" lon="4.73936">
        <ele>179</ele>
        <time>2018-09-07T08:35:47Z</time>
      </trkpt>
      <trkpt lat="45.89808" lon="4.73941">
        <ele>179</ele>
        <time>2018-09-07T08:35:48Z</time>
      </trkpt>
      <trkpt lat="45.89803" lon="4.73943">
        <ele>179</ele>
        <time>2018-09-07T08:35:49Z</time>
      </trkpt>
      <trkpt lat="45.89799" lon="4.73947">
        <ele>179</ele>
        <time>2018-09-07T08:35:50Z</time>
      </trkpt>
      <trkpt lat="45.89793" lon="4.73948">
        <ele>179</ele>
        <time>2018-09-07T08:35:51Z</time>
      </trkpt>
      <trkpt lat="45.89789" lon="4.73951">
        <ele>179</ele>
        <time>2018-09-07T08:35:52Z</time>
      </trkpt>
      <trkpt lat="45.89783" lon="4.73953">
        <ele>179</ele>
        <time>2018-09-07T08:35:53Z</time>
      </trkpt>
      <trkpt lat="45.89777" lon="4.73955">
        <ele>179</ele>
        <time>2018-09-07T08:35:54Z</time>
      </trkpt>
      <trkpt lat="45.89771" lon="4.73957">
        <ele>179</ele>
        <time>2018-09-07T08:35:55Z</time>
      </trkpt>
      <trkpt lat="45.89765" lon="4.73959">
        <ele>179</ele>
        <time>2018-09-07T08:35:56Z</time>
      </trkpt>
      <trkpt lat="45.8976" lon="4.73962">
        <ele>179</ele>
        <time>2018-09-07T08:35:57Z</time>
      </trkpt>
      <trkpt lat="45.89755" lon="4.73964">
        <ele>178</ele>
        <time>2018-09-07T08:35:58Z</time>
      </trkpt>
      <trkpt lat="45.89749" lon="4.73965">
        <ele>178</ele>
        <time>2018-09-07T08:35:59Z</time>
      </trkpt>
      <trkpt lat="45.89743" lon="4.73968">
        <ele>178</ele>
        <time>2018-09-07T08:36:00Z</time>
      </trkpt>
      <trkpt lat="45.89738" lon="4.7397">
        <ele>178</ele>
        <time>2018-09-07T08:36:01Z</time>
      </trkpt>
      <trkpt lat="45.89733" lon="4.73972">
        <ele>178</ele>
        <time>2018-09-07T08:36:02Z</time>
      </trkpt>
      <trkpt lat="45.89727" lon="4.73975">
        <ele>178</ele>
        <time>2018-09-07T08:36:03Z</time>
      </trkpt>
      <trkpt lat="45.89723" lon="4.73979">
        <ele>178</ele>
        <time>2018-09-07T08:36:04Z</time>
      </trkpt>
      <trkpt lat="45.89718" lon="4.73982">
        <ele>178</ele>
        <time>2018-09-07T08:36:05Z</time>
      </trkpt>
      <trkpt lat="45.89712" lon="4.73984">
        <ele>178</ele>
        <time>2018-09-07T08:36:06Z</time>
      </trkpt>
      <trkpt lat="45.89707" lon="4.73984">
        <ele>178</ele>
        <time>2018-09-07T08:36:07Z</time>
      </trkpt>
      <trkpt lat="45.89702" lon="4.73987">
        <ele>178</ele>
        <time>2018-09-07T08:36:08Z</time>
      </trkpt>
      <trkpt lat="45.89697" lon="4.73988">
        <ele>178</ele>
        <time>2018-09-07T08:36:09Z</time>
      </trkpt>
      <trkpt lat="45.89692" lon="4.73992">
        <ele>178</ele>
        <time>2018-09-07T08:36:10Z</time>
      </trkpt>
      <trkpt lat="45.89687" lon="4.73995">
        <ele>179</ele>
        <time>2018-09-07T08:36:11Z</time>
      </trkpt>
      <trkpt lat="45.89681" lon="4.73997">
        <ele>179</ele>
        <time>2018-09-07T08:36:12Z</time>
      </trkpt>
      <trkpt lat="45.89676" lon="4.74">
        <ele>179</ele>
        <time>2018-09-07T08:36:13Z</time>
      </trkpt>
      <trkpt lat="45.89669" lon="4.74002">
        <ele>179</ele>
        <time>2018-09-07T08:36:14Z</time>
      </trkpt>
      <trkpt lat="45.89663" lon="4.74004">
        <ele>179</ele>
        <time>2018-09-07T08:36:15Z</time>
      </trkpt>
      <trkpt lat="45.89657" lon="4.74006">
        <ele>179</ele>
        <time>2018-09-07T08:36:16Z</time>
      </trkpt>
      <trkpt lat="45.89651" lon="4.74008">
        <ele>180</ele>
        <time>2018-09-07T08:36:17Z</time>
      </trkpt>
      <trkpt lat="45.89646" lon="4.74012">
        <ele>180</ele>
        <time>2018-09-07T08:36:18Z</time>
      </trkpt>
      <trkpt lat="45.8964" lon="4.74014">
        <ele>180</ele>
        <time>2018-09-07T08:36:19Z</time>
      </trkpt>
      <trkpt lat="45.89635" lon="4.74016">
        <ele>180</ele>
        <time>2018-09-07T08:36:20Z</time>
      </trkpt>
      <trkpt lat="45.8963" lon="4.74019">
        <ele>180</ele>
        <time>2018-09-07T08:36:21Z</time>
      </trkpt>
      <trkpt lat="45.89625" lon="4.7402">
        <ele>180</ele>
        <time>2018-09-07T08:36:22Z</time>
      </trkpt>
      <trkpt lat="45.89621" lon="4.74022">
        <ele>180</ele>
        <time>2018-09-07T08:36:23Z</time>
      </trkpt>
      <trkpt lat="45.89617" lon="4.74024">
        <ele>180</ele>
        <time>2018-09-07T08:36:24Z</time>
      </trkpt>
      <trkpt lat="45.89612" lon="4.74026">
        <ele>180</ele>
        <time>2018-09-07T08:36:25Z</time>
      </trkpt>
      <trkpt lat="45.89608" lon="4.74029">
        <ele>180</ele>
        <time>2018-09-07T08:36:26Z</time>
      </trkpt>
      <trkpt lat="45.89603" lon="4.7403">
        <ele>180</ele>
        <time>2018-09-07T08:36:27Z</time>
      </trkpt>
      <trkpt lat="45.89597" lon="4.74031">
        <ele>180</ele>
        <time>2018-09-07T08:36:28Z</time>
      </trkpt>
      <trkpt lat="45.89591" lon="4.74033">
        <ele>180</ele>
        <time>2018-09-07T08:36:29Z</time>
      </trkpt>
      <trkpt lat="45.89586" lon="4.74035">
        <ele>180</ele>
        <time>2018-09-07T08:36:30Z</time>
      </trkpt>
      <trkpt lat="45.89581" lon="4.74038">
        <ele>181</ele>
        <time>2018-09-07T08:36:31Z</time>
      </trkpt>
      <trkpt lat="45.89575" lon="4.7404">
        <ele>181</ele>
        <time>2018-09-07T08:36:32Z</time>
      </trkpt>
      <trkpt lat="45.89569" lon="4.74041">
        <ele>181</ele>
        <time>2018-09-07T08:36:33Z</time>
      </trkpt>
      <trkpt lat="45.89563" lon="4.74043">
        <ele>181</ele>
        <time>2018-09-07T08:36:34Z</time>
      </trkpt>
      <trkpt lat="45.89557" lon="4.74046">
        <ele>181</ele>
        <time>2018-09-07T08:36:35Z</time>
      </trkpt>
      <trkpt lat="45.8955" lon="4.74053">
        <ele>181</ele>
        <time>2018-09-07T08:36:37Z</time>
      </trkpt>
      <trkpt lat="45.89544" lon="4.74056">
        <ele>181</ele>
        <time>2018-09-07T08:36:38Z</time>
      </trkpt>
      <trkpt lat="45.89539" lon="4.74059">
        <ele>181</ele>
        <time>2018-09-07T08:36:39Z</time>
      </trkpt>
      <trkpt lat="45.89534" lon="4.74061">
        <ele>181</ele>
        <time>2018-09-07T08:36:40Z</time>
      </trkpt>
      <trkpt lat="45.89528" lon="4.74064">
        <ele>181</ele>
        <time>2018-09-07T08:36:41Z</time>
      </trkpt>
      <trkpt lat="45.89522" lon="4.74065">
        <ele>181</ele>
        <time>2018-09-07T08:36:42Z</time>
      </trkpt>
      <trkpt lat="45.89516" lon="4.74068">
        <ele>181</ele>
        <time>2018-09-07T08:36:43Z</time>
      </trkpt>
      <trkpt lat="45.89511" lon="4.7407">
        <ele>181</ele>
        <time>2018-09-07T08:36:44Z</time>
      </trkpt>
      <trkpt lat="45.89505" lon="4.74072">
        <ele>181</ele>
        <time>2018-09-07T08:36:45Z</time>
      </trkpt>
      <trkpt lat="45.89499" lon="4.74077">
        <ele>181</ele>
        <time>2018-09-07T08:36:46Z</time>
      </trkpt>
      <trkpt lat="45.89493" lon="4.7408">
        <ele>181</ele>
        <time>2018-09-07T08:36:47Z</time>
      </trkpt>
      <trkpt lat="45.89488" lon="4.74084">
        <ele>182</ele>
        <time>2018-09-07T08:36:48Z</time>
      </trkpt>
      <trkpt lat="45.89483" lon="4.74086">
        <ele>182</ele>
        <time>2018-09-07T08:36:49Z</time>
      </trkpt>
      <trkpt lat="45.89477" lon="4.74088">
        <ele>182</ele>
        <time>2018-09-07T08:36:50Z</time>
      </trkpt>
      <trkpt lat="45.89471" lon="4.7409">
        <ele>182</ele>
        <time>2018-09-07T08:36:51Z</time>
      </trkpt>
      <trkpt lat="45.89466" lon="4.74092">
        <ele>182</ele>
        <time>2018-09-07T08:36:52Z</time>
      </trkpt>
      <trkpt lat="45.89462" lon="4.74096">
        <ele>182</ele>
        <time>2018-09-07T08:36:53Z</time>
      </trkpt>
      <trkpt lat="45.89456" lon="4.741">
        <ele>182</ele>
        <time>2018-09-07T08:36:54Z</time>
      </trkpt>
      <trkpt lat="45.8945" lon="4.74102">
        <ele>182</ele>
        <time>2018-09-07T08:36:55Z</time>
      </trkpt>
      <trkpt lat="45.89444" lon="4.74105">
        <ele>183</ele>
        <time>2018-09-07T08:36:56Z</time>
      </trkpt>
      <trkpt lat="45.89439" lon="4.74108">
        <ele>183</ele>
        <time>2018-09-07T08:36:57Z</time>
      </trkpt>
      <trkpt lat="45.89433" lon="4.74111">
        <ele>183</ele>
        <time>2018-09-07T08:36:58Z</time>
      </trkpt>
      <trkpt lat="45.89427" lon="4.74114">
        <ele>183</ele>
        <time>2018-09-07T08:36:59Z</time>
      </trkpt>
      <trkpt lat="45.89421" lon="4.74116">
        <ele>183</ele>
        <time>2018-09-07T08:37:00Z</time>
      </trkpt>
      <trkpt lat="45.89415" lon="4.74118">
        <ele>183</ele>
        <time>2018-09-07T08:37:01Z</time>
      </trkpt>
      <trkpt lat="45.8941" lon="4.7412">
        <ele>184</ele>
        <time>2018-09-07T08:37:02Z</time>
      </trkpt>
      <trkpt lat="45.89404" lon="4.74122">
        <ele>184</ele>
        <time>2018-09-07T08:37:03Z</time>
      </trkpt>
      <trkpt lat="45.89399" lon="4.74124">
        <ele>184</ele>
        <time>2018-09-07T08:37:04Z</time>
      </trkpt>
      <trkpt lat="45.89391" lon="4.7413">
        <ele>184</ele>
        <time>2018-09-07T08:37:06Z</time>
      </trkpt>
      <trkpt lat="45.89386" lon="4.74133">
        <ele>184</ele>
        <time>2018-09-07T08:37:07Z</time>
      </trkpt>
      <trkpt lat="45.8938" lon="4.74133">
        <ele>184</ele>
        <time>2018-09-07T08:37:08Z</time>
      </trkpt>
      <trkpt lat="45.89374" lon="4.74135">
        <ele>184</ele>
        <time>2018-09-07T08:37:09Z</time>
      </trkpt>
      <trkpt lat="45.89369" lon="4.74137">
        <ele>184</ele>
        <time>2018-09-07T08:37:10Z</time>
      </trkpt>
      <trkpt lat="45.89364" lon="4.7414">
        <ele>184</ele>
        <time>2018-09-07T08:37:11Z</time>
      </trkpt>
      <trkpt lat="45.8936" lon="4.74146">
        <ele>185</ele>
        <time>2018-09-07T08:37:12Z</time>
      </trkpt>
      <trkpt lat="45.89354" lon="4.74149">
        <ele>185</ele>
        <time>2018-09-07T08:37:13Z</time>
      </trkpt>
      <trkpt lat="45.89348" lon="4.7415">
        <ele>185</ele>
        <time>2018-09-07T08:37:14Z</time>
      </trkpt>
      <trkpt lat="45.89342" lon="4.74152">
        <ele>185</ele>
        <time>2018-09-07T08:37:15Z</time>
      </trkpt>
      <trkpt lat="45.89336" lon="4.74152">
        <ele>185</ele>
        <time>2018-09-07T08:37:16Z</time>
      </trkpt>
      <trkpt lat="45.8933" lon="4.74154">
        <ele>185</ele>
        <time>2018-09-07T08:37:17Z</time>
      </trkpt>
      <trkpt lat="45.89326" lon="4.74157">
        <ele>185</ele>
        <time>2018-09-07T08:37:18Z</time>
      </trkpt>
      <trkpt lat="45.89321" lon="4.74159">
        <ele>185</ele>
        <time>2018-09-07T08:37:19Z</time>
      </trkpt>
      <trkpt lat="45.89316" lon="4.74161">
        <ele>185</ele>
        <time>2018-09-07T08:37:20Z</time>
      </trkpt>
      <trkpt lat="45.89312" lon="4.74161">
        <ele>185</ele>
        <time>2018-09-07T08:37:21Z</time>
      </trkpt>
      <trkpt lat="45.89307" lon="4.74163">
        <ele>185</ele>
        <time>2018-09-07T08:37:22Z</time>
      </trkpt>
      <trkpt lat="45.89302" lon="4.74164">
        <ele>185</ele>
        <time>2018-09-07T08:37:23Z</time>
      </trkpt>
      <trkpt lat="45.89297" lon="4.74166">
        <ele>185</ele>
        <time>2018-09-07T08:37:24Z</time>
      </trkpt>
      <trkpt lat="45.8929" lon="4.74166">
        <ele>185</ele>
        <time>2018-09-07T08:37:25Z</time>
      </trkpt>
      <trkpt lat="45.89285" lon="4.7417">
        <ele>186</ele>
        <time>2018-09-07T08:37:26Z</time>
      </trkpt>
      <trkpt lat="45.8928" lon="4.74172">
        <ele>186</ele>
        <time>2018-09-07T08:37:27Z</time>
      </trkpt>
      <trkpt lat="45.89274" lon="4.74172">
        <ele>186</ele>
        <time>2018-09-07T08:37:28Z</time>
      </trkpt>
      <trkpt lat="45.89268" lon="4.74174">
        <ele>186</ele>
        <time>2018-09-07T08:37:29Z</time>
      </trkpt>
      <trkpt lat="45.89263" lon="4.74175">
        <ele>185</ele>
        <time>2018-09-07T08:37:30Z</time>
      </trkpt>
      <trkpt lat="45.89257" lon="4.74176">
        <ele>185</ele>
        <time>2018-09-07T08:37:31Z</time>
      </trkpt>
      <trkpt lat="45.89253" lon="4.74178">
        <ele>185</ele>
        <time>2018-09-07T08:37:32Z</time>
      </trkpt>
      <trkpt lat="45.89247" lon="4.74181">
        <ele>185</ele>
        <time>2018-09-07T08:37:33Z</time>
      </trkpt>
      <trkpt lat="45.89242" lon="4.74182">
        <ele>186</ele>
        <time>2018-09-07T08:37:34Z</time>
      </trkpt>
      <trkpt lat="45.89236" lon="4.74181">
        <ele>186</ele>
        <time>2018-09-07T08:37:35Z</time>
      </trkpt>
      <trkpt lat="45.8923" lon="4.74183">
        <ele>186</ele>
        <time>2018-09-07T08:37:36Z</time>
      </trkpt>
      <trkpt lat="45.89225" lon="4.74185">
        <ele>186</ele>
        <time>2018-09-07T08:37:37Z</time>
      </trkpt>
      <trkpt lat="45.8922" lon="4.74188">
        <ele>186</ele>
        <time>2018-09-07T08:37:38Z</time>
      </trkpt>
      <trkpt lat="45.89215" lon="4.74189">
        <ele>186</ele>
        <time>2018-09-07T08:37:39Z</time>
      </trkpt>
      <trkpt lat="45.89209" lon="4.74191">
        <ele>186</ele>
        <time>2018-09-07T08:37:40Z</time>
      </trkpt>
      <trkpt lat="45.89204" lon="4.74194">
        <ele>186</ele>
        <time>2018-09-07T08:37:41Z</time>
      </trkpt>
      <trkpt lat="45.89199" lon="4.74197">
        <ele>186</ele>
        <time>2018-09-07T08:37:42Z</time>
      </trkpt>
      <trkpt lat="45.89194" lon="4.74203">
        <ele>186</ele>
        <time>2018-09-07T08:37:43Z</time>
      </trkpt>
      <trkpt lat="45.89189" lon="4.74207">
        <ele>186</ele>
        <time>2018-09-07T08:37:44Z</time>
      </trkpt>
      <trkpt lat="45.89183" lon="4.7421">
        <ele>186</ele>
        <time>2018-09-07T08:37:45Z</time>
      </trkpt>
      <trkpt lat="45.8918" lon="4.74214">
        <ele>186</ele>
        <time>2018-09-07T08:37:46Z</time>
      </trkpt>
      <trkpt lat="45.89174" lon="4.74216">
        <ele>186</ele>
        <time>2018-09-07T08:37:47Z</time>
      </trkpt>
      <trkpt lat="45.89169" lon="4.74216">
        <ele>186</ele>
        <time>2018-09-07T08:37:48Z</time>
      </trkpt>
      <trkpt lat="45.89163" lon="4.74218">
        <ele>186</ele>
        <time>2018-09-07T08:37:49Z</time>
      </trkpt>
      <trkpt lat="45.89157" lon="4.7422">
        <ele>186</ele>
        <time>2018-09-07T08:37:50Z</time>
      </trkpt>
      <trkpt lat="45.89152" lon="4.74223">
        <ele>186</ele>
        <time>2018-09-07T08:37:51Z</time>
      </trkpt>
      <trkpt lat="45.89147" lon="4.74226">
        <ele>186</ele>
        <time>2018-09-07T08:37:52Z</time>
      </trkpt>
      <trkpt lat="45.89142" lon="4.7423">
        <ele>186</ele>
        <time>2018-09-07T08:37:53Z</time>
      </trkpt>
      <trkpt lat="45.89136" lon="4.74233">
        <ele>186</ele>
        <time>2018-09-07T08:37:54Z</time>
      </trkpt>
      <trkpt lat="45.89129" lon="4.74233">
        <ele>186</ele>
        <time>2018-09-07T08:37:55Z</time>
      </trkpt>
      <trkpt lat="45.89124" lon="4.74234">
        <ele>186</ele>
        <time>2018-09-07T08:37:56Z</time>
      </trkpt>
      <trkpt lat="45.89118" lon="4.74236">
        <ele>186</ele>
        <time>2018-09-07T08:37:57Z</time>
      </trkpt>
      <trkpt lat="45.89111" lon="4.7424">
        <ele>186</ele>
        <time>2018-09-07T08:37:59Z</time>
      </trkpt>
      <trkpt lat="45.89104" lon="4.7424">
        <ele>186</ele>
        <time>2018-09-07T08:38:00Z</time>
      </trkpt>
      <trkpt lat="45.89098" lon="4.74243">
        <ele>186</ele>
        <time>2018-09-07T08:38:01Z</time>
      </trkpt>
      <trkpt lat="45.89092" lon="4.74245">
        <ele>186</ele>
        <time>2018-09-07T08:38:02Z</time>
      </trkpt>
      <trkpt lat="45.89086" lon="4.74247">
        <ele>186</ele>
        <time>2018-09-07T08:38:03Z</time>
      </trkpt>
      <trkpt lat="45.8908" lon="4.7425">
        <ele>186</ele>
        <time>2018-09-07T08:38:04Z</time>
      </trkpt>
      <trkpt lat="45.89073" lon="4.74252">
        <ele>186</ele>
        <time>2018-09-07T08:38:05Z</time>
      </trkpt>
      <trkpt lat="45.89067" lon="4.74254">
        <ele>186</ele>
        <time>2018-09-07T08:38:06Z</time>
      </trkpt>
      <trkpt lat="45.8906" lon="4.74256">
        <ele>186</ele>
        <time>2018-09-07T08:38:07Z</time>
      </trkpt>
      <trkpt lat="45.89054" lon="4.74259">
        <ele>187</ele>
        <time>2018-09-07T08:38:08Z</time>
      </trkpt>
      <trkpt lat="45.89049" lon="4.7426">
        <ele>187</ele>
        <time>2018-09-07T08:38:09Z</time>
      </trkpt>
      <trkpt lat="45.89042" lon="4.74263">
        <ele>187</ele>
        <time>2018-09-07T08:38:10Z</time>
      </trkpt>
      <trkpt lat="45.89037" lon="4.74265">
        <ele>187</ele>
        <time>2018-09-07T08:38:11Z</time>
      </trkpt>
      <trkpt lat="45.89031" lon="4.74268">
        <ele>187</ele>
        <time>2018-09-07T08:38:12Z</time>
      </trkpt>
      <trkpt lat="45.89026" lon="4.7427">
        <ele>187</ele>
        <time>2018-09-07T08:38:13Z</time>
      </trkpt>
      <trkpt lat="45.8902" lon="4.74271">
        <ele>187</ele>
        <time>2018-09-07T08:38:14Z</time>
      </trkpt>
      <trkpt lat="45.89014" lon="4.74273">
        <ele>187</ele>
        <time>2018-09-07T08:38:15Z</time>
      </trkpt>
      <trkpt lat="45.89009" lon="4.74274">
        <ele>187</ele>
        <time>2018-09-07T08:38:16Z</time>
      </trkpt>
      <trkpt lat="45.89004" lon="4.74275">
        <ele>187</ele>
        <time>2018-09-07T08:38:17Z</time>
      </trkpt>
      <trkpt lat="45.88997" lon="4.74276">
        <ele>187</ele>
        <time>2018-09-07T08:38:18Z</time>
      </trkpt>
      <trkpt lat="45.88989" lon="4.7428">
        <ele>187</ele>
        <time>2018-09-07T08:38:20Z</time>
      </trkpt>
      <trkpt lat="45.88985" lon="4.74279">
        <ele>187</ele>
        <time>2018-09-07T08:38:21Z</time>
      </trkpt>
      <trkpt lat="45.88976" lon="4.7428">
        <ele>187</ele>
        <time>2018-09-07T08:38:23Z</time>
      </trkpt>
      <trkpt lat="45.88974" lon="4.7428">
        <ele>187</ele>
        <time>2018-09-07T08:38:24Z</time>
      </trkpt>
      <trkpt lat="45.88968" lon="4.74275">
        <ele>187</ele>
        <time>2018-09-07T08:38:25Z</time>
      </trkpt>
      <trkpt lat="45.88963" lon="4.74275">
        <ele>187</ele>
        <time>2018-09-07T08:38:26Z</time>
      </trkpt>
      <trkpt lat="45.88956" lon="4.74274">
        <ele>187</ele>
        <time>2018-09-07T08:38:28Z</time>
      </trkpt>
      <trkpt lat="45.88953" lon="4.74273">
        <ele>187</ele>
        <time>2018-09-07T08:38:29Z</time>
      </trkpt>
      <trkpt lat="45.88948" lon="4.74271">
        <ele>187</ele>
        <time>2018-09-07T08:38:30Z</time>
      </trkpt>
      <trkpt lat="45.88943" lon="4.7427">
        <ele>187</ele>
        <time>2018-09-07T08:38:31Z</time>
      </trkpt>
      <trkpt lat="45.88938" lon="4.74267">
        <ele>187</ele>
        <time>2018-09-07T08:38:32Z</time>
      </trkpt>
      <trkpt lat="45.88933" lon="4.74265">
        <ele>187</ele>
        <time>2018-09-07T08:38:33Z</time>
      </trkpt>
      <trkpt lat="45.88927" lon="4.74264">
        <ele>187</ele>
        <time>2018-09-07T08:38:34Z</time>
      </trkpt>
      <trkpt lat="45.88923" lon="4.7426">
        <ele>187</ele>
        <time>2018-09-07T08:38:35Z</time>
      </trkpt>
      <trkpt lat="45.88918" lon="4.74258">
        <ele>187</ele>
        <time>2018-09-07T08:38:36Z</time>
      </trkpt>
      <trkpt lat="45.88914" lon="4.74254">
        <ele>187</ele>
        <time>2018-09-07T08:38:37Z</time>
      </trkpt>
      <trkpt lat="45.8891" lon="4.7425">
        <ele>187</ele>
        <time>2018-09-07T08:38:38Z</time>
      </trkpt>
      <trkpt lat="45.88905" lon="4.74247">
        <ele>187</ele>
        <time>2018-09-07T08:38:39Z</time>
      </trkpt>
      <trkpt lat="45.88901" lon="4.74243">
        <ele>187</ele>
        <time>2018-09-07T08:38:40Z</time>
      </trkpt>
      <trkpt lat="45.88897" lon="4.74239">
        <ele>187</ele>
        <time>2018-09-07T08:38:41Z</time>
      </trkpt>
      <trkpt lat="45.88893" lon="4.74235">
        <ele>187</ele>
        <time>2018-09-07T08:38:42Z</time>
      </trkpt>
      <trkpt lat="45.88888" lon="4.74231">
        <ele>187</ele>
        <time>2018-09-07T08:38:43Z</time>
      </trkpt>
      <trkpt lat="45.88883" lon="4.74226">
        <ele>187</ele>
        <time>2018-09-07T08:38:44Z</time>
      </trkpt>
      <trkpt lat="45.88878" lon="4.74222">
        <ele>187</ele>
        <time>2018-09-07T08:38:45Z</time>
      </trkpt>
      <trkpt lat="45.88874" lon="4.74216">
        <ele>187</ele>
        <time>2018-09-07T08:38:46Z</time>
      </trkpt>
      <trkpt lat="45.88868" lon="4.74214">
        <ele>187</ele>
        <time>2018-09-07T08:38:47Z</time>
      </trkpt>
      <trkpt lat="45.88863" lon="4.7421">
        <ele>187</ele>
        <time>2018-09-07T08:38:48Z</time>
      </trkpt>
      <trkpt lat="45.88858" lon="4.74206">
        <ele>187</ele>
        <time>2018-09-07T08:38:49Z</time>
      </trkpt>
      <trkpt lat="45.88853" lon="4.74205">
        <ele>187</ele>
        <time>2018-09-07T08:38:50Z</time>
      </trkpt>
      <trkpt lat="45.88849" lon="4.74203">
        <ele>187</ele>
        <time>2018-09-07T08:38:51Z</time>
      </trkpt>
      <trkpt lat="45.88844" lon="4.742">
        <ele>187</ele>
        <time>2018-09-07T08:38:52Z</time>
      </trkpt>
      <trkpt lat="45.88839" lon="4.74197">
        <ele>186</ele>
        <time>2018-09-07T08:38:53Z</time>
      </trkpt>
      <trkpt lat="45.88834" lon="4.74194">
        <ele>186</ele>
        <time>2018-09-07T08:38:54Z</time>
      </trkpt>
      <trkpt lat="45.8883" lon="4.74191">
        <ele>187</ele>
        <time>2018-09-07T08:38:55Z</time>
      </trkpt>
      <trkpt lat="45.88825" lon="4.74188">
        <ele>187</ele>
        <time>2018-09-07T08:38:56Z</time>
      </trkpt>
      <trkpt lat="45.88821" lon="4.74185">
        <ele>187</ele>
        <time>2018-09-07T08:38:57Z</time>
      </trkpt>
      <trkpt lat="45.88817" lon="4.74181">
        <ele>187</ele>
        <time>2018-09-07T08:38:58Z</time>
      </trkpt>
      <trkpt lat="45.88811" lon="4.74179">
        <ele>187</ele>
        <time>2018-09-07T08:38:59Z</time>
      </trkpt>
      <trkpt lat="45.88806" lon="4.74176">
        <ele>187</ele>
        <time>2018-09-07T08:39:00Z</time>
      </trkpt>
      <trkpt lat="45.88801" lon="4.74174">
        <ele>187</ele>
        <time>2018-09-07T08:39:01Z</time>
      </trkpt>
      <trkpt lat="45.88797" lon="4.74174">
        <ele>187</ele>
        <time>2018-09-07T08:39:02Z</time>
      </trkpt>
      <trkpt lat="45.88791" lon="4.7417">
        <ele>187</ele>
        <time>2018-09-07T08:39:03Z</time>
      </trkpt>
      <trkpt lat="45.88786" lon="4.74167">
        <ele>188</ele>
        <time>2018-09-07T08:39:04Z</time>
      </trkpt>
      <trkpt lat="45.88782" lon="4.74164">
        <ele>187</ele>
        <time>2018-09-07T08:39:05Z</time>
      </trkpt>
      <trkpt lat="45.88777" lon="4.74161">
        <ele>187</ele>
        <time>2018-09-07T08:39:06Z</time>
      </trkpt>
      <trkpt lat="45.88773" lon="4.74158">
        <ele>187</ele>
        <time>2018-09-07T08:39:07Z</time>
      </trkpt>
      <trkpt lat="45.88768" lon="4.74155">
        <ele>187</ele>
        <time>2018-09-07T08:39:08Z</time>
      </trkpt>
      <trkpt lat="45.88764" lon="4.74151">
        <ele>187</ele>
        <time>2018-09-07T08:39:09Z</time>
      </trkpt>
      <trkpt lat="45.88757" lon="4.74144">
        <ele>187</ele>
        <time>2018-09-07T08:39:11Z</time>
      </trkpt>
      <trkpt lat="45.88753" lon="4.74142">
        <ele>187</ele>
        <time>2018-09-07T08:39:12Z</time>
      </trkpt>
      <trkpt lat="45.88747" lon="4.74139">
        <ele>188</ele>
        <time>2018-09-07T08:39:13Z</time>
      </trkpt>
      <trkpt lat="45.88743" lon="4.74136">
        <ele>188</ele>
        <time>2018-09-07T08:39:14Z</time>
      </trkpt>
      <trkpt lat="45.88739" lon="4.74133">
        <ele>188</ele>
        <time>2018-09-07T08:39:15Z</time>
      </trkpt>
      <trkpt lat="45.88734" lon="4.74129">
        <ele>188</ele>
        <time>2018-09-07T08:39:16Z</time>
      </trkpt>
      <trkpt lat="45.8873" lon="4.74126">
        <ele>188</ele>
        <time>2018-09-07T08:39:17Z</time>
      </trkpt>
      <trkpt lat="45.88725" lon="4.74122">
        <ele>188</ele>
        <time>2018-09-07T08:39:18Z</time>
      </trkpt>
      <trkpt lat="45.88722" lon="4.74119">
        <ele>188</ele>
        <time>2018-09-07T08:39:19Z</time>
      </trkpt>
      <trkpt lat="45.88717" lon="4.74115">
        <ele>188</ele>
        <time>2018-09-07T08:39:20Z</time>
      </trkpt>
      <trkpt lat="45.88712" lon="4.74113">
        <ele>188</ele>
        <time>2018-09-07T08:39:21Z</time>
      </trkpt>
      <trkpt lat="45.88706" lon="4.74112">
        <ele>188</ele>
        <time>2018-09-07T08:39:22Z</time>
      </trkpt>
      <trkpt lat="45.88701" lon="4.74111">
        <ele>188</ele>
        <time>2018-09-07T08:39:23Z</time>
      </trkpt>
      <trkpt lat="45.88695" lon="4.74111">
        <ele>188</ele>
        <time>2018-09-07T08:39:24Z</time>
      </trkpt>
      <trkpt lat="45.88686" lon="4.74109">
        <ele>188</ele>
        <time>2018-09-07T08:39:26Z</time>
      </trkpt>
      <trkpt lat="45.88683" lon="4.74106">
        <ele>188</ele>
        <time>2018-09-07T08:39:27Z</time>
      </trkpt>
      <trkpt lat="45.88683" lon="4.741">
        <ele>188</ele>
        <time>2018-09-07T08:39:28Z</time>
      </trkpt>
      <trkpt lat="45.88679" lon="4.74094">
        <ele>188</ele>
        <time>2018-09-07T08:39:29Z</time>
      </trkpt>
      <trkpt lat="45.88674" lon="4.74084">
        <ele>188</ele>
        <time>2018-09-07T08:39:31Z</time>
      </trkpt>
      <trkpt lat="45.8867" lon="4.74077">
        <ele>188</ele>
        <time>2018-09-07T08:39:32Z</time>
      </trkpt>
      <trkpt lat="45.88667" lon="4.74068">
        <ele>187</ele>
        <time>2018-09-07T08:39:33Z</time>
      </trkpt>
      <trkpt lat="45.88665" lon="4.74061">
        <ele>187</ele>
        <time>2018-09-07T08:39:34Z</time>
      </trkpt>
      <trkpt lat="45.88662" lon="4.74053">
        <ele>187</ele>
        <time>2018-09-07T08:39:35Z</time>
      </trkpt>
      <trkpt lat="45.8866" lon="4.74047">
        <ele>187</ele>
        <time>2018-09-07T08:39:36Z</time>
      </trkpt>
      <trkpt lat="45.88658" lon="4.74039">
        <ele>187</ele>
        <time>2018-09-07T08:39:37Z</time>
      </trkpt>
      <trkpt lat="45.88657" lon="4.74031">
        <ele>187</ele>
        <time>2018-09-07T08:39:38Z</time>
      </trkpt>
      <trkpt lat="45.88655" lon="4.74022">
        <ele>187</ele>
        <time>2018-09-07T08:39:39Z</time>
      </trkpt>
      <trkpt lat="45.88657" lon="4.74016">
        <ele>187</ele>
        <time>2018-09-07T08:39:40Z</time>
      </trkpt>
      <trkpt lat="45.88655" lon="4.74008">
        <ele>187</ele>
        <time>2018-09-07T08:39:41Z</time>
      </trkpt>
      <trkpt lat="45.88655" lon="4.74">
        <ele>186</ele>
        <time>2018-09-07T08:39:42Z</time>
      </trkpt>
      <trkpt lat="45.88655" lon="4.73993">
        <ele>186</ele>
        <time>2018-09-07T08:39:43Z</time>
      </trkpt>
      <trkpt lat="45.88654" lon="4.73984">
        <ele>186</ele>
        <time>2018-09-07T08:39:44Z</time>
      </trkpt>
      <trkpt lat="45.88654" lon="4.73975">
        <ele>187</ele>
        <time>2018-09-07T08:39:45Z</time>
      </trkpt>
      <trkpt lat="45.88651" lon="4.73965">
        <ele>187</ele>
        <time>2018-09-07T08:39:46Z</time>
      </trkpt>
      <trkpt lat="45.88649" lon="4.73957">
        <ele>187</ele>
        <time>2018-09-07T08:39:47Z</time>
      </trkpt>
      <trkpt lat="45.88649" lon="4.73947">
        <ele>187</ele>
        <time>2018-09-07T08:39:48Z</time>
      </trkpt>
      <trkpt lat="45.88649" lon="4.73938">
        <ele>187</ele>
        <time>2018-09-07T08:39:49Z</time>
      </trkpt>
      <trkpt lat="45.88649" lon="4.7393">
        <ele>187</ele>
        <time>2018-09-07T08:39:50Z</time>
      </trkpt>
      <trkpt lat="45.88648" lon="4.7392">
        <ele>187</ele>
        <time>2018-09-07T08:39:51Z</time>
      </trkpt>
      <trkpt lat="45.88646" lon="4.73911">
        <ele>187</ele>
        <time>2018-09-07T08:39:52Z</time>
      </trkpt>
      <trkpt lat="45.88645" lon="4.73903">
        <ele>187</ele>
        <time>2018-09-07T08:39:53Z</time>
      </trkpt>
      <trkpt lat="45.88645" lon="4.73895">
        <ele>187</ele>
        <time>2018-09-07T08:39:54Z</time>
      </trkpt>
      <trkpt lat="45.88645" lon="4.73887">
        <ele>187</ele>
        <time>2018-09-07T08:39:55Z</time>
      </trkpt>
      <trkpt lat="45.88644" lon="4.7388">
        <ele>187</ele>
        <time>2018-09-07T08:39:56Z</time>
      </trkpt>
      <trkpt lat="45.88644" lon="4.73872">
        <ele>187</ele>
        <time>2018-09-07T08:39:57Z</time>
      </trkpt>
      <trkpt lat="45.88645" lon="4.73865">
        <ele>187</ele>
        <time>2018-09-07T08:39:58Z</time>
      </trkpt>
      <trkpt lat="45.88646" lon="4.73857">
        <ele>187</ele>
        <time>2018-09-07T08:39:59Z</time>
      </trkpt>
      <trkpt lat="45.88645" lon="4.7385">
        <ele>187</ele>
        <time>2018-09-07T08:40:00Z</time>
      </trkpt>
      <trkpt lat="45.88645" lon="4.73843">
        <ele>187</ele>
        <time>2018-09-07T08:40:01Z</time>
      </trkpt>
      <trkpt lat="45.88645" lon="4.73836">
        <ele>187</ele>
        <time>2018-09-07T08:40:02Z</time>
      </trkpt>
      <trkpt lat="45.88644" lon="4.73827">
        <ele>187</ele>
        <time>2018-09-07T08:40:03Z</time>
      </trkpt>
      <trkpt lat="45.88645" lon="4.73819">
        <ele>187</ele>
        <time>2018-09-07T08:40:04Z</time>
      </trkpt>
      <trkpt lat="45.88646" lon="4.73811">
        <ele>187</ele>
        <time>2018-09-07T08:40:05Z</time>
      </trkpt>
      <trkpt lat="45.88647" lon="4.73803">
        <ele>187</ele>
        <time>2018-09-07T08:40:06Z</time>
      </trkpt>
      <trkpt lat="45.88644" lon="4.73795">
        <ele>187</ele>
        <time>2018-09-07T08:40:07Z</time>
      </trkpt>
      <trkpt lat="45.88645" lon="4.73787">
        <ele>187</ele>
        <time>2018-09-07T08:40:08Z</time>
      </trkpt>
      <trkpt lat="45.88645" lon="4.7378">
        <ele>187</ele>
        <time>2018-09-07T08:40:09Z</time>
      </trkpt>
      <trkpt lat="45.88646" lon="4.73773">
        <ele>187</ele>
        <time>2018-09-07T08:40:10Z</time>
      </trkpt>
      <trkpt lat="45.88646" lon="4.73765">
        <ele>187</ele>
        <time>2018-09-07T08:40:11Z</time>
      </trkpt>
      <trkpt lat="45.88648" lon="4.73759">
        <ele>187</ele>
        <time>2018-09-07T08:40:12Z</time>
      </trkpt>
      <trkpt lat="45.88649" lon="4.73747">
        <ele>187</ele>
        <time>2018-09-07T08:40:14Z</time>
      </trkpt>
      <trkpt lat="45.88648" lon="4.73739">
        <ele>187</ele>
        <time>2018-09-07T08:40:15Z</time>
      </trkpt>
      <trkpt lat="45.88649" lon="4.73727">
        <ele>186</ele>
        <time>2018-09-07T08:40:17Z</time>
      </trkpt>
      <trkpt lat="45.88649" lon="4.73722">
        <ele>186</ele>
        <time>2018-09-07T08:40:18Z</time>
      </trkpt>
      <trkpt lat="45.88648" lon="4.73714">
        <ele>186</ele>
        <time>2018-09-07T08:40:19Z</time>
      </trkpt>
      <trkpt lat="45.88649" lon="4.73707">
        <ele>186</ele>
        <time>2018-09-07T08:40:20Z</time>
      </trkpt>
      <trkpt lat="45.88649" lon="4.737">
        <ele>186</ele>
        <time>2018-09-07T08:40:21Z</time>
      </trkpt>
      <trkpt lat="45.88647" lon="4.73694">
        <ele>186</ele>
        <time>2018-09-07T08:40:22Z</time>
      </trkpt>
      <trkpt lat="45.88645" lon="4.73686">
        <ele>186</ele>
        <time>2018-09-07T08:40:23Z</time>
      </trkpt>
      <trkpt lat="45.88645" lon="4.7368">
        <ele>186</ele>
        <time>2018-09-07T08:40:24Z</time>
      </trkpt>
      <trkpt lat="45.88645" lon="4.73671">
        <ele>186</ele>
        <time>2018-09-07T08:40:25Z</time>
      </trkpt>
      <trkpt lat="45.88646" lon="4.73664">
        <ele>186</ele>
        <time>2018-09-07T08:40:26Z</time>
      </trkpt>
      <trkpt lat="45.88646" lon="4.73654">
        <ele>186</ele>
        <time>2018-09-07T08:40:27Z</time>
      </trkpt>
      <trkpt lat="45.88647" lon="4.73647">
        <ele>186</ele>
        <time>2018-09-07T08:40:28Z</time>
      </trkpt>
      <trkpt lat="45.88647" lon="4.73639">
        <ele>186</ele>
        <time>2018-09-07T08:40:29Z</time>
      </trkpt>
      <trkpt lat="45.88648" lon="4.73631">
        <ele>186</ele>
        <time>2018-09-07T08:40:30Z</time>
      </trkpt>
      <trkpt lat="45.88648" lon="4.73624">
        <ele>186</ele>
        <time>2018-09-07T08:40:31Z</time>
      </trkpt>
      <trkpt lat="45.88649" lon="4.73617">
        <ele>186</ele>
        <time>2018-09-07T08:40:32Z</time>
      </trkpt>
      <trkpt lat="45.88649" lon="4.7361">
        <ele>186</ele>
        <time>2018-09-07T08:40:33Z</time>
      </trkpt>
      <trkpt lat="45.8865" lon="4.73604">
        <ele>186</ele>
        <time>2018-09-07T08:40:34Z</time>
      </trkpt>
      <trkpt lat="45.8865" lon="4.73598">
        <ele>185</ele>
        <time>2018-09-07T08:40:35Z</time>
      </trkpt>
      <trkpt lat="45.88651" lon="4.7359">
        <ele>185</ele>
        <time>2018-09-07T08:40:36Z</time>
      </trkpt>
      <trkpt lat="45.88653" lon="4.73582">
        <ele>185</ele>
        <time>2018-09-07T08:40:37Z</time>
      </trkpt>
      <trkpt lat="45.88651" lon="4.73571">
        <ele>185</ele>
        <time>2018-09-07T08:40:38Z</time>
      </trkpt>
      <trkpt lat="45.88649" lon="4.7356">
        <ele>185</ele>
        <time>2018-09-07T08:40:39Z</time>
      </trkpt>
      <trkpt lat="45.88652" lon="4.73552">
        <ele>185</ele>
        <time>2018-09-07T08:40:40Z</time>
      </trkpt>
      <trkpt lat="45.88653" lon="4.73543">
        <ele>185</ele>
        <time>2018-09-07T08:40:41Z</time>
      </trkpt>
      <trkpt lat="45.88653" lon="4.73533">
        <ele>185</ele>
        <time>2018-09-07T08:40:42Z</time>
      </trkpt>
      <trkpt lat="45.88653" lon="4.73523">
        <ele>185</ele>
        <time>2018-09-07T08:40:43Z</time>
      </trkpt>
      <trkpt lat="45.88652" lon="4.73512">
        <ele>185</ele>
        <time>2018-09-07T08:40:44Z</time>
      </trkpt>
      <trkpt lat="45.88657" lon="4.73506">
        <ele>184</ele>
        <time>2018-09-07T08:40:45Z</time>
      </trkpt>
      <trkpt lat="45.88658" lon="4.73498">
        <ele>184</ele>
        <time>2018-09-07T08:40:46Z</time>
      </trkpt>
      <trkpt lat="45.88659" lon="4.73489">
        <ele>184</ele>
        <time>2018-09-07T08:40:47Z</time>
      </trkpt>
      <trkpt lat="45.88658" lon="4.73481">
        <ele>184</ele>
        <time>2018-09-07T08:40:48Z</time>
      </trkpt>
      <trkpt lat="45.88651" lon="4.73474">
        <ele>184</ele>
        <time>2018-09-07T08:40:50Z</time>
      </trkpt>
      <trkpt lat="45.88647" lon="4.7347">
        <ele>184</ele>
        <time>2018-09-07T08:40:51Z</time>
      </trkpt>
      <trkpt lat="45.88642" lon="4.73466">
        <ele>184</ele>
        <time>2018-09-07T08:40:52Z</time>
      </trkpt>
      <trkpt lat="45.88638" lon="4.7346">
        <ele>184</ele>
        <time>2018-09-07T08:40:53Z</time>
      </trkpt>
      <trkpt lat="45.88637" lon="4.73453">
        <ele>184</ele>
        <time>2018-09-07T08:40:54Z</time>
      </trkpt>
      <trkpt lat="45.88637" lon="4.73445">
        <ele>184</ele>
        <time>2018-09-07T08:40:55Z</time>
      </trkpt>
      <trkpt lat="45.88638" lon="4.73438">
        <ele>184</ele>
        <time>2018-09-07T08:40:56Z</time>
      </trkpt>
      <trkpt lat="45.88639" lon="4.7343">
        <ele>184</ele>
        <time>2018-09-07T08:40:57Z</time>
      </trkpt>
      <trkpt lat="45.88641" lon="4.73422">
        <ele>184</ele>
        <time>2018-09-07T08:40:58Z</time>
      </trkpt>
      <trkpt lat="45.88644" lon="4.73414">
        <ele>184</ele>
        <time>2018-09-07T08:40:59Z</time>
      </trkpt>
      <trkpt lat="45.88642" lon="4.73405">
        <ele>184</ele>
        <time>2018-09-07T08:41:00Z</time>
      </trkpt>
      <trkpt lat="45.8864" lon="4.734">
        <ele>184</ele>
        <time>2018-09-07T08:41:01Z</time>
      </trkpt>
      <trkpt lat="45.88637" lon="4.73394">
        <ele>184</ele>
        <time>2018-09-07T08:41:02Z</time>
      </trkpt>
      <trkpt lat="45.8863" lon="4.73391">
        <ele>183</ele>
        <time>2018-09-07T08:41:03Z</time>
      </trkpt>
      <trkpt lat="45.88624" lon="4.73388">
        <ele>183</ele>
        <time>2018-09-07T08:41:04Z</time>
      </trkpt>
      <trkpt lat="45.88619" lon="4.73388">
        <ele>183</ele>
        <time>2018-09-07T08:41:05Z</time>
      </trkpt>
      <trkpt lat="45.88613" lon="4.73387">
        <ele>183</ele>
        <time>2018-09-07T08:41:06Z</time>
      </trkpt>
      <trkpt lat="45.88608" lon="4.73388">
        <ele>183</ele>
        <time>2018-09-07T08:41:07Z</time>
      </trkpt>
      <trkpt lat="45.88602" lon="4.73389">
        <ele>183</ele>
        <time>2018-09-07T08:41:08Z</time>
      </trkpt>
      <trkpt lat="45.88595" lon="4.73389">
        <ele>183</ele>
        <time>2018-09-07T08:41:09Z</time>
      </trkpt>
      <trkpt lat="45.8859" lon="4.73391">
        <ele>183</ele>
        <time>2018-09-07T08:41:10Z</time>
      </trkpt>
      <trkpt lat="45.88585" lon="4.73393">
        <ele>183</ele>
        <time>2018-09-07T08:41:11Z</time>
      </trkpt>
      <trkpt lat="45.88577" lon="4.73399">
        <ele>183</ele>
        <time>2018-09-07T08:41:13Z</time>
      </trkpt>
      <trkpt lat="45.88572" lon="4.734">
        <ele>183</ele>
        <time>2018-09-07T08:41:14Z</time>
      </trkpt>
      <trkpt lat="45.88566" lon="4.73401">
        <ele>183</ele>
        <time>2018-09-07T08:41:15Z</time>
      </trkpt>
      <trkpt lat="45.8856" lon="4.73401">
        <ele>183</ele>
        <time>2018-09-07T08:41:16Z</time>
      </trkpt>
      <trkpt lat="45.88555" lon="4.73403">
        <ele>183</ele>
        <time>2018-09-07T08:41:17Z</time>
      </trkpt>
      <trkpt lat="45.88549" lon="4.73404">
        <ele>183</ele>
        <time>2018-09-07T08:41:18Z</time>
      </trkpt>
      <trkpt lat="45.88543" lon="4.73405">
        <ele>183</ele>
        <time>2018-09-07T08:41:19Z</time>
      </trkpt>
      <trkpt lat="45.8854" lon="4.73409">
        <ele>183</ele>
        <time>2018-09-07T08:41:20Z</time>
      </trkpt>
      <trkpt lat="45.88535" lon="4.7341">
        <ele>183</ele>
        <time>2018-09-07T08:41:21Z</time>
      </trkpt>
      <trkpt lat="45.8853" lon="4.73413">
        <ele>183</ele>
        <time>2018-09-07T08:41:22Z</time>
      </trkpt>
      <trkpt lat="45.88521" lon="4.73415">
        <ele>184</ele>
        <time>2018-09-07T08:41:24Z</time>
      </trkpt>
      <trkpt lat="45.88516" lon="4.73418">
        <ele>184</ele>
        <time>2018-09-07T08:41:25Z</time>
      </trkpt>
      <trkpt lat="45.88511" lon="4.7342">
        <ele>184</ele>
        <time>2018-09-07T08:41:26Z</time>
      </trkpt>
      <trkpt lat="45.88505" lon="4.73422">
        <ele>184</ele>
        <time>2018-09-07T08:41:27Z</time>
      </trkpt>
      <trkpt lat="45.885" lon="4.73423">
        <ele>184</ele>
        <time>2018-09-07T08:41:28Z</time>
      </trkpt>
      <trkpt lat="45.88495" lon="4.73425">
        <ele>184</ele>
        <time>2018-09-07T08:41:29Z</time>
      </trkpt>
      <trkpt lat="45.8849" lon="4.73426">
        <ele>184</ele>
        <time>2018-09-07T08:41:30Z</time>
      </trkpt>
      <trkpt lat="45.88485" lon="4.73426">
        <ele>184</ele>
        <time>2018-09-07T08:41:31Z</time>
      </trkpt>
      <trkpt lat="45.8848" lon="4.73428">
        <ele>184</ele>
        <time>2018-09-07T08:41:32Z</time>
      </trkpt>
      <trkpt lat="45.88475" lon="4.73429">
        <ele>184</ele>
        <time>2018-09-07T08:41:33Z</time>
      </trkpt>
      <trkpt lat="45.88471" lon="4.73431">
        <ele>184</ele>
        <time>2018-09-07T08:41:34Z</time>
      </trkpt>
      <trkpt lat="45.88466" lon="4.73433">
        <ele>184</ele>
        <time>2018-09-07T08:41:35Z</time>
      </trkpt>
      <trkpt lat="45.88458" lon="4.73436">
        <ele>184</ele>
        <time>2018-09-07T08:41:37Z</time>
      </trkpt>
      <trkpt lat="45.88452" lon="4.73437">
        <ele>184</ele>
        <time>2018-09-07T08:41:38Z</time>
      </trkpt>
      <trkpt lat="45.88447" lon="4.7344">
        <ele>184</ele>
        <time>2018-09-07T08:41:39Z</time>
      </trkpt>
      <trkpt lat="45.88442" lon="4.73442">
        <ele>184</ele>
        <time>2018-09-07T08:41:40Z</time>
      </trkpt>
      <trkpt lat="45.88436" lon="4.73443">
        <ele>184</ele>
        <time>2018-09-07T08:41:41Z</time>
      </trkpt>
      <trkpt lat="45.8843" lon="4.73445">
        <ele>184</ele>
        <time>2018-09-07T08:41:42Z</time>
      </trkpt>
      <trkpt lat="45.88424" lon="4.73446">
        <ele>184</ele>
        <time>2018-09-07T08:41:43Z</time>
      </trkpt>
      <trkpt lat="45.88419" lon="4.73447">
        <ele>184</ele>
        <time>2018-09-07T08:41:44Z</time>
      </trkpt>
      <trkpt lat="45.88413" lon="4.73448">
        <ele>184</ele>
        <time>2018-09-07T08:41:45Z</time>
      </trkpt>
      <trkpt lat="45.8841" lon="4.73449">
        <ele>184</ele>
        <time>2018-09-07T08:41:46Z</time>
      </trkpt>
      <trkpt lat="45.88402" lon="4.73454">
        <ele>184</ele>
        <time>2018-09-07T08:41:48Z</time>
      </trkpt>
      <trkpt lat="45.88396" lon="4.73455">
        <ele>184</ele>
        <time>2018-09-07T08:41:49Z</time>
      </trkpt>
      <trkpt lat="45.8839" lon="4.73457">
        <ele>184</ele>
        <time>2018-09-07T08:41:50Z</time>
      </trkpt>
      <trkpt lat="45.88385" lon="4.73459">
        <ele>184</ele>
        <time>2018-09-07T08:41:51Z</time>
      </trkpt>
      <trkpt lat="45.8838" lon="4.73458">
        <ele>184</ele>
        <time>2018-09-07T08:41:52Z</time>
      </trkpt>
      <trkpt lat="45.88374" lon="4.7346">
        <ele>184</ele>
        <time>2018-09-07T08:41:53Z</time>
      </trkpt>
      <trkpt lat="45.88368" lon="4.73463">
        <ele>184</ele>
        <time>2018-09-07T08:41:54Z</time>
      </trkpt>
      <trkpt lat="45.88363" lon="4.73463">
        <ele>184</ele>
        <time>2018-09-07T08:41:55Z</time>
      </trkpt>
      <trkpt lat="45.88357" lon="4.73465">
        <ele>184</ele>
        <time>2018-09-07T08:41:56Z</time>
      </trkpt>
      <trkpt lat="45.88352" lon="4.73466">
        <ele>184</ele>
        <time>2018-09-07T08:41:57Z</time>
      </trkpt>
      <trkpt lat="45.88347" lon="4.73467">
        <ele>184</ele>
        <time>2018-09-07T08:41:58Z</time>
      </trkpt>
      <trkpt lat="45.88342" lon="4.73469">
        <ele>184</ele>
        <time>2018-09-07T08:41:59Z</time>
      </trkpt>
      <trkpt lat="45.88334" lon="4.73474">
        <ele>184</ele>
        <time>2018-09-07T08:42:01Z</time>
      </trkpt>
      <trkpt lat="45.88329" lon="4.73474">
        <ele>184</ele>
        <time>2018-09-07T08:42:02Z</time>
      </trkpt>
      <trkpt lat="45.88321" lon="4.73477">
        <ele>184</ele>
        <time>2018-09-07T08:42:04Z</time>
      </trkpt>
      <trkpt lat="45.88316" lon="4.73478">
        <ele>184</ele>
        <time>2018-09-07T08:42:05Z</time>
      </trkpt>
      <trkpt lat="45.8831" lon="4.73478">
        <ele>184</ele>
        <time>2018-09-07T08:42:06Z</time>
      </trkpt>
      <trkpt lat="45.88306" lon="4.7348">
        <ele>184</ele>
        <time>2018-09-07T08:42:07Z</time>
      </trkpt>
      <trkpt lat="45.88301" lon="4.73482">
        <ele>184</ele>
        <time>2018-09-07T08:42:08Z</time>
      </trkpt>
      <trkpt lat="45.88296" lon="4.73484">
        <ele>184</ele>
        <time>2018-09-07T08:42:09Z</time>
      </trkpt>
      <trkpt lat="45.88292" lon="4.73487">
        <ele>184</ele>
        <time>2018-09-07T08:42:10Z</time>
      </trkpt>
      <trkpt lat="45.88288" lon="4.7349">
        <ele>184</ele>
        <time>2018-09-07T08:42:11Z</time>
      </trkpt>
      <trkpt lat="45.88283" lon="4.73492">
        <ele>184</ele>
        <time>2018-09-07T08:42:12Z</time>
      </trkpt>
      <trkpt lat="45.88278" lon="4.73496">
        <ele>184</ele>
        <time>2018-09-07T08:42:13Z</time>
      </trkpt>
      <trkpt lat="45.88274" lon="4.73501">
        <ele>185</ele>
        <time>2018-09-07T08:42:14Z</time>
      </trkpt>
      <trkpt lat="45.8827" lon="4.73504">
        <ele>185</ele>
        <time>2018-09-07T08:42:15Z</time>
      </trkpt>
      <trkpt lat="45.88265" lon="4.73504">
        <ele>185</ele>
        <time>2018-09-07T08:42:16Z</time>
      </trkpt>
      <trkpt lat="45.8826" lon="4.73507">
        <ele>185</ele>
        <time>2018-09-07T08:42:17Z</time>
      </trkpt>
      <trkpt lat="45.88255" lon="4.73511">
        <ele>185</ele>
        <time>2018-09-07T08:42:18Z</time>
      </trkpt>
      <trkpt lat="45.88251" lon="4.73514">
        <ele>185</ele>
        <time>2018-09-07T08:42:19Z</time>
      </trkpt>
      <trkpt lat="45.88246" lon="4.73516">
        <ele>185</ele>
        <time>2018-09-07T08:42:20Z</time>
      </trkpt>
      <trkpt lat="45.88242" lon="4.7352">
        <ele>185</ele>
        <time>2018-09-07T08:42:21Z</time>
      </trkpt>
      <trkpt lat="45.88237" lon="4.73521">
        <ele>185</ele>
        <time>2018-09-07T08:42:22Z</time>
      </trkpt>
      <trkpt lat="45.88233" lon="4.73523">
        <ele>185</ele>
        <time>2018-09-07T08:42:23Z</time>
      </trkpt>
      <trkpt lat="45.88228" lon="4.73526">
        <ele>185</ele>
        <time>2018-09-07T08:42:24Z</time>
      </trkpt>
      <trkpt lat="45.88223" lon="4.73529">
        <ele>185</ele>
        <time>2018-09-07T08:42:25Z</time>
      </trkpt>
      <trkpt lat="45.88218" lon="4.73531">
        <ele>185</ele>
        <time>2018-09-07T08:42:26Z</time>
      </trkpt>
      <trkpt lat="45.88215" lon="4.73537">
        <ele>185</ele>
        <time>2018-09-07T08:42:27Z</time>
      </trkpt>
      <trkpt lat="45.8821" lon="4.73539">
        <ele>185</ele>
        <time>2018-09-07T08:42:28Z</time>
      </trkpt>
      <trkpt lat="45.88205" lon="4.73543">
        <ele>186</ele>
        <time>2018-09-07T08:42:29Z</time>
      </trkpt>
      <trkpt lat="45.88198" lon="4.7355">
        <ele>186</ele>
        <time>2018-09-07T08:42:31Z</time>
      </trkpt>
      <trkpt lat="45.88194" lon="4.73554">
        <ele>186</ele>
        <time>2018-09-07T08:42:32Z</time>
      </trkpt>
      <trkpt lat="45.88189" lon="4.73557">
        <ele>186</ele>
        <time>2018-09-07T08:42:33Z</time>
      </trkpt>
      <trkpt lat="45.88185" lon="4.73562">
        <ele>186</ele>
        <time>2018-09-07T08:42:34Z</time>
      </trkpt>
      <trkpt lat="45.8818" lon="4.73564">
        <ele>186</ele>
        <time>2018-09-07T08:42:35Z</time>
      </trkpt>
      <trkpt lat="45.88175" lon="4.73568">
        <ele>186</ele>
        <time>2018-09-07T08:42:36Z</time>
      </trkpt>
      <trkpt lat="45.88171" lon="4.73571">
        <ele>186</ele>
        <time>2018-09-07T08:42:37Z</time>
      </trkpt>
      <trkpt lat="45.88167" lon="4.73574">
        <ele>186</ele>
        <time>2018-09-07T08:42:38Z</time>
      </trkpt>
      <trkpt lat="45.8816" lon="4.73579">
        <ele>186</ele>
        <time>2018-09-07T08:42:40Z</time>
      </trkpt>
      <trkpt lat="45.88157" lon="4.73583">
        <ele>186</ele>
        <time>2018-09-07T08:42:41Z</time>
      </trkpt>
      <trkpt lat="45.88148" lon="4.73585">
        <ele>187</ele>
        <time>2018-09-07T08:42:43Z</time>
      </trkpt>
      <trkpt lat="45.88145" lon="4.73588">
        <ele>187</ele>
        <time>2018-09-07T08:42:44Z</time>
      </trkpt>
      <trkpt lat="45.88139" lon="4.73588">
        <ele>187</ele>
        <time>2018-09-07T08:42:45Z</time>
      </trkpt>
      <trkpt lat="45.88135" lon="4.73591">
        <ele>187</ele>
        <time>2018-09-07T08:42:46Z</time>
      </trkpt>
      <trkpt lat="45.88131" lon="4.73593">
        <ele>187</ele>
        <time>2018-09-07T08:42:47Z</time>
      </trkpt>
      <trkpt lat="45.88125" lon="4.73594">
        <ele>187</ele>
        <time>2018-09-07T08:42:48Z</time>
      </trkpt>
      <trkpt lat="45.88121" lon="4.73596">
        <ele>187</ele>
        <time>2018-09-07T08:42:49Z</time>
      </trkpt>
      <trkpt lat="45.88116" lon="4.736">
        <ele>187</ele>
        <time>2018-09-07T08:42:50Z</time>
      </trkpt>
      <trkpt lat="45.88113" lon="4.73603">
        <ele>188</ele>
        <time>2018-09-07T08:42:51Z</time>
      </trkpt>
      <trkpt lat="45.88108" lon="4.73607">
        <ele>188</ele>
        <time>2018-09-07T08:42:52Z</time>
      </trkpt>
      <trkpt lat="45.88104" lon="4.73611">
        <ele>188</ele>
        <time>2018-09-07T08:42:53Z</time>
      </trkpt>
      <trkpt lat="45.881" lon="4.73613">
        <ele>188</ele>
        <time>2018-09-07T08:42:54Z</time>
      </trkpt>
      <trkpt lat="45.88095" lon="4.73616">
        <ele>188</ele>
        <time>2018-09-07T08:42:55Z</time>
      </trkpt>
      <trkpt lat="45.8809" lon="4.73618">
        <ele>188</ele>
        <time>2018-09-07T08:42:56Z</time>
      </trkpt>
      <trkpt lat="45.88085" lon="4.73621">
        <ele>188</ele>
        <time>2018-09-07T08:42:57Z</time>
      </trkpt>
      <trkpt lat="45.8808" lon="4.73625">
        <ele>189</ele>
        <time>2018-09-07T08:42:58Z</time>
      </trkpt>
      <trkpt lat="45.88076" lon="4.73628">
        <ele>189</ele>
        <time>2018-09-07T08:42:59Z</time>
      </trkpt>
      <trkpt lat="45.88072" lon="4.73631">
        <ele>189</ele>
        <time>2018-09-07T08:43:00Z</time>
      </trkpt>
      <trkpt lat="45.88068" lon="4.73635">
        <ele>189</ele>
        <time>2018-09-07T08:43:01Z</time>
      </trkpt>
      <trkpt lat="45.88062" lon="4.73637">
        <ele>189</ele>
        <time>2018-09-07T08:43:02Z</time>
      </trkpt>
      <trkpt lat="45.88055" lon="4.73643">
        <ele>189</ele>
        <time>2018-09-07T08:43:04Z</time>
      </trkpt>
      <trkpt lat="45.88051" lon="4.73646">
        <ele>189</ele>
        <time>2018-09-07T08:43:05Z</time>
      </trkpt>
      <trkpt lat="45.88047" lon="4.73648">
        <ele>189</ele>
        <time>2018-09-07T08:43:06Z</time>
      </trkpt>
      <trkpt lat="45.88041" lon="4.7365">
        <ele>189</ele>
        <time>2018-09-07T08:43:07Z</time>
      </trkpt>
      <trkpt lat="45.88036" lon="4.73652">
        <ele>189</ele>
        <time>2018-09-07T08:43:08Z</time>
      </trkpt>
      <trkpt lat="45.88031" lon="4.73654">
        <ele>189</ele>
        <time>2018-09-07T08:43:09Z</time>
      </trkpt>
      <trkpt lat="45.88025" lon="4.73654">
        <ele>189</ele>
        <time>2018-09-07T08:43:10Z</time>
      </trkpt>
      <trkpt lat="45.88021" lon="4.73655">
        <ele>189</ele>
        <time>2018-09-07T08:43:11Z</time>
      </trkpt>
      <trkpt lat="45.88016" lon="4.73654">
        <ele>189</ele>
        <time>2018-09-07T08:43:12Z</time>
      </trkpt>
      <trkpt lat="45.88011" lon="4.73654">
        <ele>189</ele>
        <time>2018-09-07T08:43:13Z</time>
      </trkpt>
      <trkpt lat="45.88002" lon="4.73653">
        <ele>189</ele>
        <time>2018-09-07T08:43:15Z</time>
      </trkpt>
      <trkpt lat="45.87998" lon="4.73652">
        <ele>190</ele>
        <time>2018-09-07T08:43:16Z</time>
      </trkpt>
      <trkpt lat="45.87992" lon="4.73648">
        <ele>190</ele>
        <time>2018-09-07T08:43:17Z</time>
      </trkpt>
      <trkpt lat="45.87986" lon="4.73648">
        <ele>190</ele>
        <time>2018-09-07T08:43:18Z</time>
      </trkpt>
      <trkpt lat="45.87982" lon="4.73649">
        <ele>190</ele>
        <time>2018-09-07T08:43:19Z</time>
      </trkpt>
      <trkpt lat="45.87977" lon="4.73647">
        <ele>190</ele>
        <time>2018-09-07T08:43:20Z</time>
      </trkpt>
      <trkpt lat="45.87972" lon="4.73646">
        <ele>189</ele>
        <time>2018-09-07T08:43:21Z</time>
      </trkpt>
      <trkpt lat="45.87967" lon="4.73645">
        <ele>189</ele>
        <time>2018-09-07T08:43:22Z</time>
      </trkpt>
      <trkpt lat="45.87962" lon="4.73643">
        <ele>189</ele>
        <time>2018-09-07T08:43:23Z</time>
      </trkpt>
      <trkpt lat="45.87957" lon="4.73642">
        <ele>189</ele>
        <time>2018-09-07T08:43:24Z</time>
      </trkpt>
      <trkpt lat="45.87951" lon="4.73643">
        <ele>190</ele>
        <time>2018-09-07T08:43:25Z</time>
      </trkpt>
      <trkpt lat="45.87945" lon="4.73642">
        <ele>190</ele>
        <time>2018-09-07T08:43:26Z</time>
      </trkpt>
      <trkpt lat="45.8794" lon="4.7364">
        <ele>190</ele>
        <time>2018-09-07T08:43:27Z</time>
      </trkpt>
      <trkpt lat="45.87936" lon="4.73639">
        <ele>190</ele>
        <time>2018-09-07T08:43:28Z</time>
      </trkpt>
      <trkpt lat="45.87928" lon="4.73638">
        <ele>190</ele>
        <time>2018-09-07T08:43:30Z</time>
      </trkpt>
      <trkpt lat="45.87923" lon="4.73636">
        <ele>190</ele>
        <time>2018-09-07T08:43:31Z</time>
      </trkpt>
      <trkpt lat="45.87918" lon="4.73634">
        <ele>190</ele>
        <time>2018-09-07T08:43:32Z</time>
      </trkpt>
      <trkpt lat="45.87913" lon="4.73633">
        <ele>190</ele>
        <time>2018-09-07T08:43:33Z</time>
      </trkpt>
      <trkpt lat="45.87908" lon="4.73631">
        <ele>190</ele>
        <time>2018-09-07T08:43:34Z</time>
      </trkpt>
      <trkpt lat="45.87903" lon="4.73629">
        <ele>190</ele>
        <time>2018-09-07T08:43:35Z</time>
      </trkpt>
      <trkpt lat="45.87898" lon="4.73628">
        <ele>190</ele>
        <time>2018-09-07T08:43:36Z</time>
      </trkpt>
      <trkpt lat="45.87891" lon="4.73627">
        <ele>190</ele>
        <time>2018-09-07T08:43:37Z</time>
      </trkpt>
      <trkpt lat="45.87886" lon="4.73626">
        <ele>190</ele>
        <time>2018-09-07T08:43:38Z</time>
      </trkpt>
      <trkpt lat="45.87881" lon="4.73626">
        <ele>190</ele>
        <time>2018-09-07T08:43:39Z</time>
      </trkpt>
      <trkpt lat="45.87872" lon="4.73626">
        <ele>190</ele>
        <time>2018-09-07T08:43:41Z</time>
      </trkpt>
      <trkpt lat="45.87867" lon="4.73628">
        <ele>190</ele>
        <time>2018-09-07T08:43:42Z</time>
      </trkpt>
      <trkpt lat="45.8786" lon="4.73634">
        <ele>191</ele>
        <time>2018-09-07T08:43:44Z</time>
      </trkpt>
      <trkpt lat="45.87856" lon="4.73637">
        <ele>191</ele>
        <time>2018-09-07T08:43:45Z</time>
      </trkpt>
      <trkpt lat="45.8785" lon="4.73643">
        <ele>191</ele>
        <time>2018-09-07T08:43:47Z</time>
      </trkpt>
      <trkpt lat="45.87842" lon="4.73633">
        <ele>191</ele>
        <time>2018-09-07T08:43:48Z</time>
      </trkpt>
      <trkpt lat="45.87836" lon="4.73623">
        <ele>190</ele>
        <time>2018-09-07T08:43:50Z</time>
      </trkpt>
      <trkpt lat="45.87833" lon="4.73616">
        <ele>190</ele>
        <time>2018-09-07T08:43:51Z</time>
      </trkpt>
      <trkpt lat="45.87829" lon="4.73604">
        <ele>190</ele>
        <time>2018-09-07T08:43:53Z</time>
      </trkpt>
      <trkpt lat="45.87826" lon="4.73598">
        <ele>190</ele>
        <time>2018-09-07T08:43:54Z</time>
      </trkpt>
      <trkpt lat="45.8782" lon="4.73591">
        <ele>190</ele>
        <time>2018-09-07T08:43:55Z</time>
      </trkpt>
      <trkpt lat="45.87816" lon="4.73585">
        <ele>190</ele>
        <time>2018-09-07T08:43:56Z</time>
      </trkpt>
      <trkpt lat="45.87811" lon="4.73578">
        <ele>189</ele>
        <time>2018-09-07T08:43:57Z</time>
      </trkpt>
      <trkpt lat="45.87806" lon="4.73571">
        <ele>189</ele>
        <time>2018-09-07T08:43:58Z</time>
      </trkpt>
      <trkpt lat="45.87803" lon="4.73564">
        <ele>189</ele>
        <time>2018-09-07T08:43:59Z</time>
      </trkpt>
      <trkpt lat="45.87802" lon="4.73558">
        <ele>189</ele>
        <time>2018-09-07T08:44:00Z</time>
      </trkpt>
      <trkpt lat="45.87802" lon="4.73546">
        <ele>189</ele>
        <time>2018-09-07T08:44:02Z</time>
      </trkpt>
      <trkpt lat="45.87799" lon="4.73537">
        <ele>189</ele>
        <time>2018-09-07T08:44:03Z</time>
      </trkpt>
      <trkpt lat="45.87797" lon="4.73531">
        <ele>189</ele>
        <time>2018-09-07T08:44:04Z</time>
      </trkpt>
      <trkpt lat="45.87793" lon="4.73523">
        <ele>189</ele>
        <time>2018-09-07T08:44:05Z</time>
      </trkpt>
      <trkpt lat="45.87791" lon="4.73517">
        <ele>189</ele>
        <time>2018-09-07T08:44:06Z</time>
      </trkpt>
      <trkpt lat="45.87787" lon="4.7351">
        <ele>189</ele>
        <time>2018-09-07T08:44:07Z</time>
      </trkpt>
      <trkpt lat="45.87784" lon="4.73503">
        <ele>189</ele>
        <time>2018-09-07T08:44:08Z</time>
      </trkpt>
      <trkpt lat="45.87779" lon="4.73495">
        <ele>188</ele>
        <time>2018-09-07T08:44:09Z</time>
      </trkpt>
      <trkpt lat="45.87776" lon="4.73488">
        <ele>188</ele>
        <time>2018-09-07T08:44:10Z</time>
      </trkpt>
      <trkpt lat="45.87771" lon="4.7348">
        <ele>188</ele>
        <time>2018-09-07T08:44:11Z</time>
      </trkpt>
      <trkpt lat="45.87768" lon="4.73473">
        <ele>188</ele>
        <time>2018-09-07T08:44:12Z</time>
      </trkpt>
      <trkpt lat="45.87765" lon="4.73467">
        <ele>188</ele>
        <time>2018-09-07T08:44:13Z</time>
      </trkpt>
      <trkpt lat="45.87762" lon="4.73459">
        <ele>188</ele>
        <time>2018-09-07T08:44:14Z</time>
      </trkpt>
      <trkpt lat="45.87758" lon="4.73454">
        <ele>188</ele>
        <time>2018-09-07T08:44:15Z</time>
      </trkpt>
      <trkpt lat="45.87755" lon="4.73447">
        <ele>188</ele>
        <time>2018-09-07T08:44:16Z</time>
      </trkpt>
      <trkpt lat="45.87752" lon="4.73441">
        <ele>188</ele>
        <time>2018-09-07T08:44:17Z</time>
      </trkpt>
      <trkpt lat="45.87751" lon="4.73435">
        <ele>188</ele>
        <time>2018-09-07T08:44:18Z</time>
      </trkpt>
      <trkpt lat="45.8774" lon="4.73429">
        <ele>188</ele>
        <time>2018-09-07T08:44:19Z</time>
      </trkpt>
      <trkpt lat="45.87738" lon="4.73423">
        <ele>188</ele>
        <time>2018-09-07T08:44:20Z</time>
      </trkpt>
      <trkpt lat="45.87733" lon="4.73416">
        <ele>188</ele>
        <time>2018-09-07T08:44:21Z</time>
      </trkpt>
      <trkpt lat="45.8773" lon="4.73408">
        <ele>188</ele>
        <time>2018-09-07T08:44:22Z</time>
      </trkpt>
      <trkpt lat="45.87727" lon="4.73401">
        <ele>188</ele>
        <time>2018-09-07T08:44:23Z</time>
      </trkpt>
      <trkpt lat="45.87726" lon="4.73394">
        <ele>188</ele>
        <time>2018-09-07T08:44:24Z</time>
      </trkpt>
      <trkpt lat="45.87721" lon="4.73385">
        <ele>188</ele>
        <time>2018-09-07T08:44:25Z</time>
      </trkpt>
      <trkpt lat="45.87716" lon="4.7338">
        <ele>187</ele>
        <time>2018-09-07T08:44:26Z</time>
      </trkpt>
      <trkpt lat="45.8771" lon="4.73372">
        <ele>187</ele>
        <time>2018-09-07T08:44:27Z</time>
      </trkpt>
      <trkpt lat="45.87707" lon="4.73365">
        <ele>187</ele>
        <time>2018-09-07T08:44:28Z</time>
      </trkpt>
      <trkpt lat="45.877" lon="4.73358">
        <ele>187</ele>
        <time>2018-09-07T08:44:29Z</time>
      </trkpt>
      <trkpt lat="45.87697" lon="4.73352">
        <ele>188</ele>
        <time>2018-09-07T08:44:30Z</time>
      </trkpt>
      <trkpt lat="45.87694" lon="4.73346">
        <ele>188</ele>
        <time>2018-09-07T08:44:31Z</time>
      </trkpt>
      <trkpt lat="45.87692" lon="4.73337">
        <ele>188</ele>
        <time>2018-09-07T08:44:33Z</time>
      </trkpt>
      <trkpt lat="45.8769" lon="4.73331">
        <ele>188</ele>
        <time>2018-09-07T08:44:34Z</time>
      </trkpt>
      <trkpt lat="45.87688" lon="4.73326">
        <ele>188</ele>
        <time>2018-09-07T08:44:35Z</time>
      </trkpt>
      <trkpt lat="45.87683" lon="4.73319">
        <ele>188</ele>
        <time>2018-09-07T08:44:36Z</time>
      </trkpt>
      <trkpt lat="45.87682" lon="4.73312">
        <ele>188</ele>
        <time>2018-09-07T08:44:37Z</time>
      </trkpt>
      <trkpt lat="45.87679" lon="4.73307">
        <ele>188</ele>
        <time>2018-09-07T08:44:38Z</time>
      </trkpt>
      <trkpt lat="45.87676" lon="4.73295">
        <ele>188</ele>
        <time>2018-09-07T08:44:40Z</time>
      </trkpt>
      <trkpt lat="45.87673" lon="4.73289">
        <ele>188</ele>
        <time>2018-09-07T08:44:41Z</time>
      </trkpt>
      <trkpt lat="45.8767" lon="4.73283">
        <ele>188</ele>
        <time>2018-09-07T08:44:42Z</time>
      </trkpt>
      <trkpt lat="45.87666" lon="4.73277">
        <ele>189</ele>
        <time>2018-09-07T08:44:43Z</time>
      </trkpt>
      <trkpt lat="45.87663" lon="4.73266">
        <ele>189</ele>
        <time>2018-09-07T08:44:45Z</time>
      </trkpt>
      <trkpt lat="45.8766" lon="4.7326">
        <ele>189</ele>
        <time>2018-09-07T08:44:46Z</time>
      </trkpt>
      <trkpt lat="45.87658" lon="4.73252">
        <ele>189</ele>
        <time>2018-09-07T08:44:47Z</time>
      </trkpt>
      <trkpt lat="45.87655" lon="4.73246">
        <ele>189</ele>
        <time>2018-09-07T08:44:48Z</time>
      </trkpt>
      <trkpt lat="45.87651" lon="4.73239">
        <ele>188</ele>
        <time>2018-09-07T08:44:49Z</time>
      </trkpt>
      <trkpt lat="45.87648" lon="4.73232">
        <ele>188</ele>
        <time>2018-09-07T08:44:50Z</time>
      </trkpt>
      <trkpt lat="45.87646" lon="4.73225">
        <ele>188</ele>
        <time>2018-09-07T08:44:51Z</time>
      </trkpt>
      <trkpt lat="45.87641" lon="4.73219">
        <ele>188</ele>
        <time>2018-09-07T08:44:52Z</time>
      </trkpt>
      <trkpt lat="45.87639" lon="4.73212">
        <ele>188</ele>
        <time>2018-09-07T08:44:53Z</time>
      </trkpt>
      <trkpt lat="45.87636" lon="4.73205">
        <ele>188</ele>
        <time>2018-09-07T08:44:54Z</time>
      </trkpt>
      <trkpt lat="45.87631" lon="4.73198">
        <ele>188</ele>
        <time>2018-09-07T08:44:55Z</time>
      </trkpt>
      <trkpt lat="45.87626" lon="4.73192">
        <ele>188</ele>
        <time>2018-09-07T08:44:56Z</time>
      </trkpt>
      <trkpt lat="45.87623" lon="4.73185">
        <ele>188</ele>
        <time>2018-09-07T08:44:57Z</time>
      </trkpt>
      <trkpt lat="45.87618" lon="4.73179">
        <ele>188</ele>
        <time>2018-09-07T08:44:58Z</time>
      </trkpt>
      <trkpt lat="45.87614" lon="4.73174">
        <ele>187</ele>
        <time>2018-09-07T08:44:59Z</time>
      </trkpt>
      <trkpt lat="45.8761" lon="4.73167">
        <ele>187</ele>
        <time>2018-09-07T08:45:00Z</time>
      </trkpt>
      <trkpt lat="45.87608" lon="4.73159">
        <ele>187</ele>
        <time>2018-09-07T08:45:01Z</time>
      </trkpt>
      <trkpt lat="45.87605" lon="4.73152">
        <ele>187</ele>
        <time>2018-09-07T08:45:02Z</time>
      </trkpt>
      <trkpt lat="45.87602" lon="4.73146">
        <ele>187</ele>
        <time>2018-09-07T08:45:03Z</time>
      </trkpt>
      <trkpt lat="45.87599" lon="4.73139">
        <ele>187</ele>
        <time>2018-09-07T08:45:04Z</time>
      </trkpt>
      <trkpt lat="45.87596" lon="4.73132">
        <ele>187</ele>
        <time>2018-09-07T08:45:05Z</time>
      </trkpt>
      <trkpt lat="45.87594" lon="4.73125">
        <ele>188</ele>
        <time>2018-09-07T08:45:06Z</time>
      </trkpt>
      <trkpt lat="45.87592" lon="4.73117">
        <ele>188</ele>
        <time>2018-09-07T08:45:07Z</time>
      </trkpt>
      <trkpt lat="45.87588" lon="4.73109">
        <ele>188</ele>
        <time>2018-09-07T08:45:08Z</time>
      </trkpt>
      <trkpt lat="45.87584" lon="4.731">
        <ele>188</ele>
        <time>2018-09-07T08:45:09Z</time>
      </trkpt>
      <trkpt lat="45.87581" lon="4.73092">
        <ele>188</ele>
        <time>2018-09-07T08:45:10Z</time>
      </trkpt>
      <trkpt lat="45.87576" lon="4.73084">
        <ele>188</ele>
        <time>2018-09-07T08:45:11Z</time>
      </trkpt>
      <trkpt lat="45.87572" lon="4.73075">
        <ele>188</ele>
        <time>2018-09-07T08:45:12Z</time>
      </trkpt>
      <trkpt lat="45.87567" lon="4.73068">
        <ele>188</ele>
        <time>2018-09-07T08:45:13Z</time>
      </trkpt>
      <trkpt lat="45.87563" lon="4.73059">
        <ele>188</ele>
        <time>2018-09-07T08:45:14Z</time>
      </trkpt>
      <trkpt lat="45.8756" lon="4.73055">
        <ele>188</ele>
        <time>2018-09-07T08:45:15Z</time>
      </trkpt>
      <trkpt lat="45.87557" lon="4.73047">
        <ele>188</ele>
        <time>2018-09-07T08:45:16Z</time>
      </trkpt>
      <trkpt lat="45.87555" lon="4.7304">
        <ele>188</ele>
        <time>2018-09-07T08:45:17Z</time>
      </trkpt>
      <trkpt lat="45.87552" lon="4.73034">
        <ele>188</ele>
        <time>2018-09-07T08:45:18Z</time>
      </trkpt>
      <trkpt lat="45.87546" lon="4.73026">
        <ele>188</ele>
        <time>2018-09-07T08:45:19Z</time>
      </trkpt>
      <trkpt lat="45.87543" lon="4.7302">
        <ele>188</ele>
        <time>2018-09-07T08:45:20Z</time>
      </trkpt>
      <trkpt lat="45.8754" lon="4.73013">
        <ele>187</ele>
        <time>2018-09-07T08:45:21Z</time>
      </trkpt>
      <trkpt lat="45.87537" lon="4.73006">
        <ele>187</ele>
        <time>2018-09-07T08:45:22Z</time>
      </trkpt>
      <trkpt lat="45.87536" lon="4.73002">
        <ele>187</ele>
        <time>2018-09-07T08:45:23Z</time>
      </trkpt>
      <trkpt lat="45.87532" lon="4.72994">
        <ele>187</ele>
        <time>2018-09-07T08:45:24Z</time>
      </trkpt>
      <trkpt lat="45.87531" lon="4.72983">
        <ele>187</ele>
        <time>2018-09-07T08:45:26Z</time>
      </trkpt>
      <trkpt lat="45.8753" lon="4.72977">
        <ele>187</ele>
        <time>2018-09-07T08:45:27Z</time>
      </trkpt>
      <trkpt lat="45.87527" lon="4.72972">
        <ele>187</ele>
        <time>2018-09-07T08:45:28Z</time>
      </trkpt>
      <trkpt lat="45.87522" lon="4.72965">
        <ele>187</ele>
        <time>2018-09-07T08:45:29Z</time>
      </trkpt>
      <trkpt lat="45.87522" lon="4.72961">
        <ele>187</ele>
        <time>2018-09-07T08:45:30Z</time>
      </trkpt>
      <trkpt lat="45.87516" lon="4.72955">
        <ele>187</ele>
        <time>2018-09-07T08:45:31Z</time>
      </trkpt>
      <trkpt lat="45.87511" lon="4.72949">
        <ele>187</ele>
        <time>2018-09-07T08:45:32Z</time>
      </trkpt>
      <trkpt lat="45.87509" lon="4.72946">
        <ele>187</ele>
        <time>2018-09-07T08:45:33Z</time>
      </trkpt>
      <trkpt lat="45.87504" lon="4.72942">
        <ele>187</ele>
        <time>2018-09-07T08:45:34Z</time>
      </trkpt>
      <trkpt lat="45.87499" lon="4.7294">
        <ele>188</ele>
        <time>2018-09-07T08:45:35Z</time>
      </trkpt>
      <trkpt lat="45.87491" lon="4.72934">
        <ele>188</ele>
        <time>2018-09-07T08:45:37Z</time>
      </trkpt>
      <trkpt lat="45.87488" lon="4.7293">
        <ele>188</ele>
        <time>2018-09-07T08:45:38Z</time>
      </trkpt>
      <trkpt lat="45.87484" lon="4.72926">
        <ele>188</ele>
        <time>2018-09-07T08:45:39Z</time>
      </trkpt>
      <trkpt lat="45.87481" lon="4.72921">
        <ele>188</ele>
        <time>2018-09-07T08:45:40Z</time>
      </trkpt>
      <trkpt lat="45.87475" lon="4.72917">
        <ele>188</ele>
        <time>2018-09-07T08:45:41Z</time>
      </trkpt>
      <trkpt lat="45.87473" lon="4.72912">
        <ele>188</ele>
        <time>2018-09-07T08:45:42Z</time>
      </trkpt>
      <trkpt lat="45.87471" lon="4.72902">
        <ele>188</ele>
        <time>2018-09-07T08:45:44Z</time>
      </trkpt>
      <trkpt lat="45.87471" lon="4.72899">
        <ele>188</ele>
        <time>2018-09-07T08:45:45Z</time>
      </trkpt>
      <trkpt lat="45.8747" lon="4.72895">
        <ele>188</ele>
        <time>2018-09-07T08:45:46Z</time>
      </trkpt>
      <trkpt lat="45.87467" lon="4.72883">
        <ele>188</ele>
        <time>2018-09-07T08:45:47Z</time>
      </trkpt>
      <trkpt lat="45.87464" lon="4.72876">
        <ele>188</ele>
        <time>2018-09-07T08:45:48Z</time>
      </trkpt>
      <trkpt lat="45.87464" lon="4.72869">
        <ele>188</ele>
        <time>2018-09-07T08:45:49Z</time>
      </trkpt>
      <trkpt lat="45.87461" lon="4.72862">
        <ele>188</ele>
        <time>2018-09-07T08:45:50Z</time>
      </trkpt>
      <trkpt lat="45.87459" lon="4.72855">
        <ele>188</ele>
        <time>2018-09-07T08:45:51Z</time>
      </trkpt>
      <trkpt lat="45.87453" lon="4.72848">
        <ele>188</ele>
        <time>2018-09-07T08:45:52Z</time>
      </trkpt>
      <trkpt lat="45.87451" lon="4.7284">
        <ele>188</ele>
        <time>2018-09-07T08:45:53Z</time>
      </trkpt>
      <trkpt lat="45.87448" lon="4.72834">
        <ele>188</ele>
        <time>2018-09-07T08:45:54Z</time>
      </trkpt>
      <trkpt lat="45.87444" lon="4.72827">
        <ele>189</ele>
        <time>2018-09-07T08:45:55Z</time>
      </trkpt>
      <trkpt lat="45.87442" lon="4.72821">
        <ele>189</ele>
        <time>2018-09-07T08:45:56Z</time>
      </trkpt>
      <trkpt lat="45.87438" lon="4.72814">
        <ele>189</ele>
        <time>2018-09-07T08:45:57Z</time>
      </trkpt>
      <trkpt lat="45.87435" lon="4.72809">
        <ele>189</ele>
        <time>2018-09-07T08:45:58Z</time>
      </trkpt>
      <trkpt lat="45.87432" lon="4.72802">
        <ele>189</ele>
        <time>2018-09-07T08:45:59Z</time>
      </trkpt>
      <trkpt lat="45.87429" lon="4.72795">
        <ele>189</ele>
        <time>2018-09-07T08:46:00Z</time>
      </trkpt>
      <trkpt lat="45.87428" lon="4.7279">
        <ele>189</ele>
        <time>2018-09-07T08:46:01Z</time>
      </trkpt>
      <trkpt lat="45.87425" lon="4.72783">
        <ele>189</ele>
        <time>2018-09-07T08:46:02Z</time>
      </trkpt>
      <trkpt lat="45.87423" lon="4.72777">
        <ele>189</ele>
        <time>2018-09-07T08:46:03Z</time>
      </trkpt>
      <trkpt lat="45.87421" lon="4.7277">
        <ele>189</ele>
        <time>2018-09-07T08:46:04Z</time>
      </trkpt>
      <trkpt lat="45.87418" lon="4.72764">
        <ele>189</ele>
        <time>2018-09-07T08:46:05Z</time>
      </trkpt>
      <trkpt lat="45.87413" lon="4.72754">
        <ele>189</ele>
        <time>2018-09-07T08:46:07Z</time>
      </trkpt>
      <trkpt lat="45.87409" lon="4.72749">
        <ele>189</ele>
        <time>2018-09-07T08:46:08Z</time>
      </trkpt>
      <trkpt lat="45.87406" lon="4.72744">
        <ele>189</ele>
        <time>2018-09-07T08:46:09Z</time>
      </trkpt>
      <trkpt lat="45.87403" lon="4.7274">
        <ele>189</ele>
        <time>2018-09-07T08:46:10Z</time>
      </trkpt>
      <trkpt lat="45.87399" lon="4.72736">
        <ele>189</ele>
        <time>2018-09-07T08:46:11Z</time>
      </trkpt>
      <trkpt lat="45.87395" lon="4.72732">
        <ele>190</ele>
        <time>2018-09-07T08:46:12Z</time>
      </trkpt>
      <trkpt lat="45.87393" lon="4.72727">
        <ele>190</ele>
        <time>2018-09-07T08:46:13Z</time>
      </trkpt>
      <trkpt lat="45.87389" lon="4.72721">
        <ele>190</ele>
        <time>2018-09-07T08:46:14Z</time>
      </trkpt>
      <trkpt lat="45.87387" lon="4.72713">
        <ele>190</ele>
        <time>2018-09-07T08:46:15Z</time>
      </trkpt>
      <trkpt lat="45.87384" lon="4.72707">
        <ele>190</ele>
        <time>2018-09-07T08:46:16Z</time>
      </trkpt>
      <trkpt lat="45.87383" lon="4.727">
        <ele>190</ele>
        <time>2018-09-07T08:46:17Z</time>
      </trkpt>
      <trkpt lat="45.87379" lon="4.72694">
        <ele>190</ele>
        <time>2018-09-07T08:46:18Z</time>
      </trkpt>
      <trkpt lat="45.87376" lon="4.72688">
        <ele>190</ele>
        <time>2018-09-07T08:46:19Z</time>
      </trkpt>
      <trkpt lat="45.87371" lon="4.72684">
        <ele>190</ele>
        <time>2018-09-07T08:46:20Z</time>
      </trkpt>
      <trkpt lat="45.87369" lon="4.72678">
        <ele>190</ele>
        <time>2018-09-07T08:46:21Z</time>
      </trkpt>
      <trkpt lat="45.87363" lon="4.72673">
        <ele>190</ele>
        <time>2018-09-07T08:46:22Z</time>
      </trkpt>
      <trkpt lat="45.87358" lon="4.72668">
        <ele>190</ele>
        <time>2018-09-07T08:46:24Z</time>
      </trkpt>
      <trkpt lat="45.87355" lon="4.72664">
        <ele>191</ele>
        <time>2018-09-07T08:46:25Z</time>
      </trkpt>
      <trkpt lat="45.87352" lon="4.72659">
        <ele>191</ele>
        <time>2018-09-07T08:46:26Z</time>
      </trkpt>
      <trkpt lat="45.87347" lon="4.72656">
        <ele>190</ele>
        <time>2018-09-07T08:46:27Z</time>
      </trkpt>
      <trkpt lat="45.87342" lon="4.72652">
        <ele>191</ele>
        <time>2018-09-07T08:46:28Z</time>
      </trkpt>
      <trkpt lat="45.87339" lon="4.72648">
        <ele>191</ele>
        <time>2018-09-07T08:46:29Z</time>
      </trkpt>
      <trkpt lat="45.87336" lon="4.72645">
        <ele>191</ele>
        <time>2018-09-07T08:46:30Z</time>
      </trkpt>
      <trkpt lat="45.87331" lon="4.72641">
        <ele>192</ele>
        <time>2018-09-07T08:46:31Z</time>
      </trkpt>
      <trkpt lat="45.87324" lon="4.72633">
        <ele>193</ele>
        <time>2018-09-07T08:46:33Z</time>
      </trkpt>
      <trkpt lat="45.87321" lon="4.72628">
        <ele>193</ele>
        <time>2018-09-07T08:46:34Z</time>
      </trkpt>
      <trkpt lat="45.87318" lon="4.72624">
        <ele>193</ele>
        <time>2018-09-07T08:46:35Z</time>
      </trkpt>
      <trkpt lat="45.87315" lon="4.72619">
        <ele>193</ele>
        <time>2018-09-07T08:46:36Z</time>
      </trkpt>
      <trkpt lat="45.87308" lon="4.72612">
        <ele>193</ele>
        <time>2018-09-07T08:46:38Z</time>
      </trkpt>
      <trkpt lat="45.87304" lon="4.72606">
        <ele>193</ele>
        <time>2018-09-07T08:46:39Z</time>
      </trkpt>
      <trkpt lat="45.87297" lon="4.72598">
        <ele>194</ele>
        <time>2018-09-07T08:46:41Z</time>
      </trkpt>
      <trkpt lat="45.87294" lon="4.72594">
        <ele>194</ele>
        <time>2018-09-07T08:46:42Z</time>
      </trkpt>
      <trkpt lat="45.87289" lon="4.72585">
        <ele>194</ele>
        <time>2018-09-07T08:46:44Z</time>
      </trkpt>
      <trkpt lat="45.87286" lon="4.72579">
        <ele>194</ele>
        <time>2018-09-07T08:46:45Z</time>
      </trkpt>
      <trkpt lat="45.8728" lon="4.7257">
        <ele>194</ele>
        <time>2018-09-07T08:46:47Z</time>
      </trkpt>
      <trkpt lat="45.87277" lon="4.72567">
        <ele>194</ele>
        <time>2018-09-07T08:46:48Z</time>
      </trkpt>
      <trkpt lat="45.87273" lon="4.72557">
        <ele>194</ele>
        <time>2018-09-07T08:46:52Z</time>
      </trkpt>
      <trkpt lat="45.87271" lon="4.72555">
        <ele>194</ele>
        <time>2018-09-07T08:46:53Z</time>
      </trkpt>
      <trkpt lat="45.87267" lon="4.72547">
        <ele>194</ele>
        <time>2018-09-07T08:46:57Z</time>
      </trkpt>
      <trkpt lat="45.87266" lon="4.72545">
        <ele>194</ele>
        <time>2018-09-07T08:46:58Z</time>
      </trkpt>
      <trkpt lat="45.87262" lon="4.72534">
        <ele>193</ele>
        <time>2018-09-07T08:47:05Z</time>
      </trkpt>
      <trkpt lat="45.87261" lon="4.72531">
        <ele>193</ele>
        <time>2018-09-07T08:47:06Z</time>
      </trkpt>
      <trkpt lat="45.87257" lon="4.72522">
        <ele>193</ele>
        <time>2018-09-07T08:47:08Z</time>
      </trkpt>
      <trkpt lat="45.87255" lon="4.7252">
        <ele>193</ele>
        <time>2018-09-07T08:47:09Z</time>
      </trkpt>
      <trkpt lat="45.87249" lon="4.72511">
        <ele>195</ele>
        <time>2018-09-07T08:47:11Z</time>
      </trkpt>
      <trkpt lat="45.87248" lon="4.72509">
        <ele>195</ele>
        <time>2018-09-07T08:47:12Z</time>
      </trkpt>
      <trkpt lat="45.87242" lon="4.725">
        <ele>195</ele>
        <time>2018-09-07T08:47:14Z</time>
      </trkpt>
      <trkpt lat="45.87239" lon="4.72496">
        <ele>193</ele>
        <time>2018-09-07T08:47:15Z</time>
      </trkpt>
      <trkpt lat="45.87236" lon="4.72492">
        <ele>194</ele>
        <time>2018-09-07T08:47:16Z</time>
      </trkpt>
      <trkpt lat="45.87233" lon="4.72486">
        <ele>194</ele>
        <time>2018-09-07T08:47:17Z</time>
      </trkpt>
      <trkpt lat="45.87228" lon="4.72475">
        <ele>194</ele>
        <time>2018-09-07T08:47:19Z</time>
      </trkpt>
      <trkpt lat="45.87226" lon="4.72471">
        <ele>194</ele>
        <time>2018-09-07T08:47:20Z</time>
      </trkpt>
      <trkpt lat="45.87222" lon="4.72468">
        <ele>194</ele>
        <time>2018-09-07T08:47:21Z</time>
      </trkpt>
      <trkpt lat="45.8722" lon="4.7246">
        <ele>194</ele>
        <time>2018-09-07T08:47:22Z</time>
      </trkpt>
      <trkpt lat="45.87211" lon="4.72459">
        <ele>194</ele>
        <time>2018-09-07T08:47:24Z</time>
      </trkpt>
      <trkpt lat="45.87209" lon="4.72455">
        <ele>194</ele>
        <time>2018-09-07T08:47:25Z</time>
      </trkpt>
      <trkpt lat="45.87205" lon="4.72447">
        <ele>194</ele>
        <time>2018-09-07T08:47:27Z</time>
      </trkpt>
      <trkpt lat="45.87204" lon="4.72444">
        <ele>194</ele>
        <time>2018-09-07T08:47:28Z</time>
      </trkpt>
      <trkpt lat="45.87199" lon="4.72436">
        <ele>194</ele>
        <time>2018-09-07T08:47:31Z</time>
      </trkpt>
      <trkpt lat="45.87197" lon="4.72433">
        <ele>194</ele>
        <time>2018-09-07T08:47:32Z</time>
      </trkpt>
      <trkpt lat="45.87191" lon="4.72424">
        <ele>194</ele>
        <time>2018-09-07T08:47:35Z</time>
      </trkpt>
      <trkpt lat="45.87189" lon="4.7242">
        <ele>194</ele>
        <time>2018-09-07T08:47:36Z</time>
      </trkpt>
      <trkpt lat="45.87183" lon="4.7241">
        <ele>191</ele>
        <time>2018-09-07T08:47:37Z</time>
      </trkpt>
      <trkpt lat="45.8718" lon="4.72405">
        <ele>191</ele>
        <time>2018-09-07T08:47:38Z</time>
      </trkpt>
      <trkpt lat="45.87173" lon="4.72399">
        <ele>191</ele>
        <time>2018-09-07T08:47:39Z</time>
      </trkpt>
      <trkpt lat="45.8717" lon="4.72393">
        <ele>191</ele>
        <time>2018-09-07T08:47:40Z</time>
      </trkpt>
      <trkpt lat="45.87167" lon="4.72386">
        <ele>191</ele>
        <time>2018-09-07T08:47:41Z</time>
      </trkpt>
      <trkpt lat="45.87164" lon="4.7238">
        <ele>197</ele>
        <time>2018-09-07T08:47:42Z</time>
      </trkpt>
      <trkpt lat="45.87162" lon="4.72373">
        <ele>197</ele>
        <time>2018-09-07T08:47:43Z</time>
      </trkpt>
      <trkpt lat="45.87159" lon="4.72367">
        <ele>196</ele>
        <time>2018-09-07T08:47:44Z</time>
      </trkpt>
      <trkpt lat="45.87155" lon="4.72359">
        <ele>196</ele>
        <time>2018-09-07T08:47:45Z</time>
      </trkpt>
      <trkpt lat="45.8715" lon="4.72351">
        <ele>196</ele>
        <time>2018-09-07T08:47:47Z</time>
      </trkpt>
      <trkpt lat="45.87148" lon="4.72345">
        <ele>195</ele>
        <time>2018-09-07T08:47:48Z</time>
      </trkpt>
      <trkpt lat="45.87144" lon="4.72338">
        <ele>196</ele>
        <time>2018-09-07T08:47:50Z</time>
      </trkpt>
      <trkpt lat="45.87142" lon="4.72333">
        <ele>194</ele>
        <time>2018-09-07T08:47:51Z</time>
      </trkpt>
      <trkpt lat="45.87138" lon="4.72327">
        <ele>195</ele>
        <time>2018-09-07T08:47:52Z</time>
      </trkpt>
      <trkpt lat="45.87136" lon="4.72322">
        <ele>195</ele>
        <time>2018-09-07T08:47:53Z</time>
      </trkpt>
      <trkpt lat="45.87134" lon="4.72315">
        <ele>195</ele>
        <time>2018-09-07T08:47:54Z</time>
      </trkpt>
      <trkpt lat="45.87131" lon="4.72309">
        <ele>196</ele>
        <time>2018-09-07T08:47:55Z</time>
      </trkpt>
      <trkpt lat="45.87127" lon="4.72302">
        <ele>196</ele>
        <time>2018-09-07T08:47:56Z</time>
      </trkpt>
      <trkpt lat="45.87124" lon="4.72297">
        <ele>196</ele>
        <time>2018-09-07T08:47:57Z</time>
      </trkpt>
      <trkpt lat="45.8712" lon="4.7229">
        <ele>196</ele>
        <time>2018-09-07T08:47:58Z</time>
      </trkpt>
      <trkpt lat="45.87117" lon="4.72286">
        <ele>196</ele>
        <time>2018-09-07T08:47:59Z</time>
      </trkpt>
      <trkpt lat="45.87115" lon="4.72281">
        <ele>197</ele>
        <time>2018-09-07T08:48:00Z</time>
      </trkpt>
      <trkpt lat="45.87111" lon="4.72276">
        <ele>197</ele>
        <time>2018-09-07T08:48:01Z</time>
      </trkpt>
      <trkpt lat="45.87107" lon="4.72272">
        <ele>197</ele>
        <time>2018-09-07T08:48:02Z</time>
      </trkpt>
      <trkpt lat="45.87104" lon="4.72267">
        <ele>197</ele>
        <time>2018-09-07T08:48:03Z</time>
      </trkpt>
      <trkpt lat="45.87099" lon="4.72262">
        <ele>197</ele>
        <time>2018-09-07T08:48:04Z</time>
      </trkpt>
      <trkpt lat="45.87094" lon="4.72257">
        <ele>198</ele>
        <time>2018-09-07T08:48:05Z</time>
      </trkpt>
      <trkpt lat="45.8709" lon="4.72252">
        <ele>198</ele>
        <time>2018-09-07T08:48:06Z</time>
      </trkpt>
      <trkpt lat="45.87086" lon="4.72247">
        <ele>198</ele>
        <time>2018-09-07T08:48:07Z</time>
      </trkpt>
      <trkpt lat="45.87081" lon="4.7224">
        <ele>200</ele>
        <time>2018-09-07T08:48:08Z</time>
      </trkpt>
      <trkpt lat="45.87076" lon="4.72235">
        <ele>200</ele>
        <time>2018-09-07T08:48:09Z</time>
      </trkpt>
      <trkpt lat="45.8707" lon="4.7223">
        <ele>200</ele>
        <time>2018-09-07T08:48:10Z</time>
      </trkpt>
      <trkpt lat="45.87065" lon="4.72224">
        <ele>200</ele>
        <time>2018-09-07T08:48:11Z</time>
      </trkpt>
      <trkpt lat="45.87061" lon="4.72218">
        <ele>200</ele>
        <time>2018-09-07T08:48:12Z</time>
      </trkpt>
      <trkpt lat="45.87056" lon="4.72213">
        <ele>200</ele>
        <time>2018-09-07T08:48:13Z</time>
      </trkpt>
      <trkpt lat="45.87052" lon="4.72209">
        <ele>200</ele>
        <time>2018-09-07T08:48:14Z</time>
      </trkpt>
      <trkpt lat="45.87047" lon="4.72205">
        <ele>200</ele>
        <time>2018-09-07T08:48:15Z</time>
      </trkpt>
      <trkpt lat="45.87042" lon="4.72201">
        <ele>200</ele>
        <time>2018-09-07T08:48:16Z</time>
      </trkpt>
      <trkpt lat="45.87038" lon="4.72199">
        <ele>200</ele>
        <time>2018-09-07T08:48:17Z</time>
      </trkpt>
      <trkpt lat="45.87033" lon="4.72194">
        <ele>200</ele>
        <time>2018-09-07T08:48:18Z</time>
      </trkpt>
      <trkpt lat="45.87029" lon="4.72193">
        <ele>201</ele>
        <time>2018-09-07T08:48:19Z</time>
      </trkpt>
      <trkpt lat="45.87024" lon="4.7219">
        <ele>201</ele>
        <time>2018-09-07T08:48:20Z</time>
      </trkpt>
      <trkpt lat="45.87017" lon="4.72186">
        <ele>201</ele>
        <time>2018-09-07T08:48:21Z</time>
      </trkpt>
      <trkpt lat="45.87013" lon="4.72182">
        <ele>201</ele>
        <time>2018-09-07T08:48:22Z</time>
      </trkpt>
      <trkpt lat="45.87007" lon="4.72178">
        <ele>201</ele>
        <time>2018-09-07T08:48:23Z</time>
      </trkpt>
      <trkpt lat="45.87001" lon="4.72174">
        <ele>201</ele>
        <time>2018-09-07T08:48:24Z</time>
      </trkpt>
      <trkpt lat="45.86995" lon="4.7217">
        <ele>203</ele>
        <time>2018-09-07T08:48:25Z</time>
      </trkpt>
      <trkpt lat="45.86989" lon="4.72167">
        <ele>205</ele>
        <time>2018-09-07T08:48:26Z</time>
      </trkpt>
      <trkpt lat="45.86982" lon="4.72169">
        <ele>207</ele>
        <time>2018-09-07T08:48:27Z</time>
      </trkpt>
      <trkpt lat="45.86976" lon="4.72168">
        <ele>208</ele>
        <time>2018-09-07T08:48:28Z</time>
      </trkpt>
      <trkpt lat="45.86971" lon="4.72163">
        <ele>201</ele>
        <time>2018-09-07T08:48:29Z</time>
      </trkpt>
      <trkpt lat="45.86966" lon="4.72159">
        <ele>201</ele>
        <time>2018-09-07T08:48:30Z</time>
      </trkpt>
      <trkpt lat="45.86961" lon="4.72156">
        <ele>201</ele>
        <time>2018-09-07T08:48:31Z</time>
      </trkpt>
      <trkpt lat="45.86956" lon="4.72153">
        <ele>201</ele>
        <time>2018-09-07T08:48:32Z</time>
      </trkpt>
      <trkpt lat="45.86947" lon="4.72152">
        <ele>202</ele>
        <time>2018-09-07T08:48:33Z</time>
      </trkpt>
      <trkpt lat="45.86942" lon="4.7215">
        <ele>203</ele>
        <time>2018-09-07T08:48:34Z</time>
      </trkpt>
      <trkpt lat="45.86936" lon="4.72147">
        <ele>203</ele>
        <time>2018-09-07T08:48:35Z</time>
      </trkpt>
      <trkpt lat="45.8693" lon="4.72144">
        <ele>203</ele>
        <time>2018-09-07T08:48:36Z</time>
      </trkpt>
      <trkpt lat="45.86924" lon="4.7214">
        <ele>203</ele>
        <time>2018-09-07T08:48:37Z</time>
      </trkpt>
      <trkpt lat="45.86918" lon="4.72136">
        <ele>202</ele>
        <time>2018-09-07T08:48:38Z</time>
      </trkpt>
      <trkpt lat="45.86912" lon="4.72133">
        <ele>204</ele>
        <time>2018-09-07T08:48:39Z</time>
      </trkpt>
      <trkpt lat="45.86906" lon="4.72131">
        <ele>203</ele>
        <time>2018-09-07T08:48:40Z</time>
      </trkpt>
      <trkpt lat="45.86901" lon="4.72129">
        <ele>203</ele>
        <time>2018-09-07T08:48:41Z</time>
      </trkpt>
      <trkpt lat="45.86896" lon="4.72125">
        <ele>203</ele>
        <time>2018-09-07T08:48:42Z</time>
      </trkpt>
      <trkpt lat="45.86889" lon="4.72122">
        <ele>202</ele>
        <time>2018-09-07T08:48:43Z</time>
      </trkpt>
      <trkpt lat="45.86882" lon="4.72119">
        <ele>202</ele>
        <time>2018-09-07T08:48:44Z</time>
      </trkpt>
      <trkpt lat="45.86876" lon="4.72115">
        <ele>201</ele>
        <time>2018-09-07T08:48:45Z</time>
      </trkpt>
      <trkpt lat="45.86868" lon="4.72113">
        <ele>201</ele>
        <time>2018-09-07T08:48:46Z</time>
      </trkpt>
      <trkpt lat="45.86862" lon="4.7211">
        <ele>201</ele>
        <time>2018-09-07T08:48:47Z</time>
      </trkpt>
      <trkpt lat="45.86856" lon="4.72108">
        <ele>200</ele>
        <time>2018-09-07T08:48:48Z</time>
      </trkpt>
      <trkpt lat="45.8685" lon="4.72104">
        <ele>200</ele>
        <time>2018-09-07T08:48:49Z</time>
      </trkpt>
      <trkpt lat="45.86843" lon="4.72102">
        <ele>199</ele>
        <time>2018-09-07T08:48:50Z</time>
      </trkpt>
      <trkpt lat="45.86836" lon="4.721">
        <ele>198</ele>
        <time>2018-09-07T08:48:51Z</time>
      </trkpt>
      <trkpt lat="45.86831" lon="4.72096">
        <ele>198</ele>
        <time>2018-09-07T08:48:52Z</time>
      </trkpt>
      <trkpt lat="45.86825" lon="4.72092">
        <ele>198</ele>
        <time>2018-09-07T08:48:53Z</time>
      </trkpt>
      <trkpt lat="45.86818" lon="4.7209">
        <ele>199</ele>
        <time>2018-09-07T08:48:54Z</time>
      </trkpt>
      <trkpt lat="45.86812" lon="4.72086">
        <ele>200</ele>
        <time>2018-09-07T08:48:55Z</time>
      </trkpt>
      <trkpt lat="45.86806" lon="4.72084">
        <ele>200</ele>
        <time>2018-09-07T08:48:56Z</time>
      </trkpt>
      <trkpt lat="45.86801" lon="4.72081">
        <ele>194</ele>
        <time>2018-09-07T08:48:57Z</time>
      </trkpt>
      <trkpt lat="45.86796" lon="4.72079">
        <ele>194</ele>
        <time>2018-09-07T08:48:58Z</time>
      </trkpt>
      <trkpt lat="45.8679" lon="4.72076">
        <ele>194</ele>
        <time>2018-09-07T08:48:59Z</time>
      </trkpt>
      <trkpt lat="45.86783" lon="4.72074">
        <ele>194</ele>
        <time>2018-09-07T08:49:00Z</time>
      </trkpt>
      <trkpt lat="45.86778" lon="4.72072">
        <ele>195</ele>
        <time>2018-09-07T08:49:01Z</time>
      </trkpt>
      <trkpt lat="45.86773" lon="4.72073">
        <ele>195</ele>
        <time>2018-09-07T08:49:02Z</time>
      </trkpt>
      <trkpt lat="45.86768" lon="4.7207">
        <ele>195</ele>
        <time>2018-09-07T08:49:03Z</time>
      </trkpt>
      <trkpt lat="45.86762" lon="4.72068">
        <ele>195</ele>
        <time>2018-09-07T08:49:04Z</time>
      </trkpt>
      <trkpt lat="45.86756" lon="4.72065">
        <ele>195</ele>
        <time>2018-09-07T08:49:05Z</time>
      </trkpt>
      <trkpt lat="45.86751" lon="4.72063">
        <ele>195</ele>
        <time>2018-09-07T08:49:06Z</time>
      </trkpt>
      <trkpt lat="45.86746" lon="4.7206">
        <ele>197</ele>
        <time>2018-09-07T08:49:07Z</time>
      </trkpt>
      <trkpt lat="45.86741" lon="4.72058">
        <ele>197</ele>
        <time>2018-09-07T08:49:08Z</time>
      </trkpt>
      <trkpt lat="45.86736" lon="4.72055">
        <ele>197</ele>
        <time>2018-09-07T08:49:09Z</time>
      </trkpt>
      <trkpt lat="45.8673" lon="4.72052">
        <ele>197</ele>
        <time>2018-09-07T08:49:10Z</time>
      </trkpt>
      <trkpt lat="45.86725" lon="4.72048">
        <ele>197</ele>
        <time>2018-09-07T08:49:11Z</time>
      </trkpt>
      <trkpt lat="45.86721" lon="4.72044">
        <ele>197</ele>
        <time>2018-09-07T08:49:15.889Z</time>
      </trkpt>
      <trkpt lat="45.86716" lon="4.7204">
        <ele>197</ele>
        <time>2018-09-07T08:49:13Z</time>
      </trkpt>
      <trkpt lat="45.86711" lon="4.72038">
        <ele>197</ele>
        <time>2018-09-07T08:49:14Z</time>
      </trkpt>
      <trkpt lat="45.86706" lon="4.72034">
        <ele>197</ele>
        <time>2018-09-07T08:49:15Z</time>
      </trkpt>
      <trkpt lat="45.86701" lon="4.7203">
        <ele>197</ele>
        <time>2018-09-07T08:49:16Z</time>
      </trkpt>
      <trkpt lat="45.86697" lon="4.72026">
        <ele>197</ele>
        <time>2018-09-07T08:49:17Z</time>
      </trkpt>
      <trkpt lat="45.86691" lon="4.72022">
        <ele>197</ele>
        <time>2018-09-07T08:49:18Z</time>
      </trkpt>
      <trkpt lat="45.86685" lon="4.72017">
        <ele>196</ele>
        <time>2018-09-07T08:49:19Z</time>
      </trkpt>
      <trkpt lat="45.86681" lon="4.72012">
        <ele>196</ele>
        <time>2018-09-07T08:49:20Z</time>
      </trkpt>
      <trkpt lat="45.86676" lon="4.72008">
        <ele>196</ele>
        <time>2018-09-07T08:49:21Z</time>
      </trkpt>
      <trkpt lat="45.86672" lon="4.72005">
        <ele>196</ele>
        <time>2018-09-07T08:49:22Z</time>
      </trkpt>
      <trkpt lat="45.86667" lon="4.72002">
        <ele>195</ele>
        <time>2018-09-07T08:49:23Z</time>
      </trkpt>
      <trkpt lat="45.86659" lon="4.71996">
        <ele>195</ele>
        <time>2018-09-07T08:49:25Z</time>
      </trkpt>
      <trkpt lat="45.86655" lon="4.71994">
        <ele>195</ele>
        <time>2018-09-07T08:49:26Z</time>
      </trkpt>
      <trkpt lat="45.86651" lon="4.7199">
        <ele>195</ele>
        <time>2018-09-07T08:49:27Z</time>
      </trkpt>
      <trkpt lat="45.86646" lon="4.71987">
        <ele>195</ele>
        <time>2018-09-07T08:49:28Z</time>
      </trkpt>
      <trkpt lat="45.86642" lon="4.71982">
        <ele>195</ele>
        <time>2018-09-07T08:49:29Z</time>
      </trkpt>
      <trkpt lat="45.86638" lon="4.71979">
        <ele>195</ele>
        <time>2018-09-07T08:49:30Z</time>
      </trkpt>
      <trkpt lat="45.86634" lon="4.71972">
        <ele>195</ele>
        <time>2018-09-07T08:49:31Z</time>
      </trkpt>
      <trkpt lat="45.86629" lon="4.71969">
        <ele>195</ele>
        <time>2018-09-07T08:49:32Z</time>
      </trkpt>
      <trkpt lat="45.86624" lon="4.71965">
        <ele>195</ele>
        <time>2018-09-07T08:49:33Z</time>
      </trkpt>
      <trkpt lat="45.86619" lon="4.7196">
        <ele>195</ele>
        <time>2018-09-07T08:49:34Z</time>
      </trkpt>
      <trkpt lat="45.86615" lon="4.71956">
        <ele>194</ele>
        <time>2018-09-07T08:49:35Z</time>
      </trkpt>
      <trkpt lat="45.86611" lon="4.71952">
        <ele>194</ele>
        <time>2018-09-07T08:49:36Z</time>
      </trkpt>
      <trkpt lat="45.86605" lon="4.71949">
        <ele>194</ele>
        <time>2018-09-07T08:49:37Z</time>
      </trkpt>
      <trkpt lat="45.866" lon="4.71946">
        <ele>194</ele>
        <time>2018-09-07T08:49:38Z</time>
      </trkpt>
      <trkpt lat="45.86596" lon="4.71942">
        <ele>194</ele>
        <time>2018-09-07T08:49:39Z</time>
      </trkpt>
      <trkpt lat="45.86591" lon="4.71938">
        <ele>194</ele>
        <time>2018-09-07T08:49:40Z</time>
      </trkpt>
      <trkpt lat="45.86586" lon="4.71934">
        <ele>194</ele>
        <time>2018-09-07T08:49:41Z</time>
      </trkpt>
      <trkpt lat="45.86582" lon="4.7193">
        <ele>195</ele>
        <time>2018-09-07T08:49:42Z</time>
      </trkpt>
      <trkpt lat="45.86577" lon="4.71926">
        <ele>195</ele>
        <time>2018-09-07T08:49:43Z</time>
      </trkpt>
      <trkpt lat="45.86572" lon="4.71923">
        <ele>195</ele>
        <time>2018-09-07T08:49:44Z</time>
      </trkpt>
      <trkpt lat="45.86569" lon="4.71918">
        <ele>195</ele>
        <time>2018-09-07T08:49:45Z</time>
      </trkpt>
      <trkpt lat="45.86565" lon="4.71914">
        <ele>195</ele>
        <time>2018-09-07T08:49:46Z</time>
      </trkpt>
      <trkpt lat="45.86561" lon="4.7191">
        <ele>195</ele>
        <time>2018-09-07T08:49:47Z</time>
      </trkpt>
      <trkpt lat="45.86555" lon="4.7191">
        <ele>195</ele>
        <time>2018-09-07T08:49:48Z</time>
      </trkpt>
      <trkpt lat="45.8655" lon="4.71905">
        <ele>195</ele>
        <time>2018-09-07T08:49:49Z</time>
      </trkpt>
      <trkpt lat="45.86546" lon="4.71902">
        <ele>195</ele>
        <time>2018-09-07T08:49:50Z</time>
      </trkpt>
      <trkpt lat="45.86542" lon="4.71897">
        <ele>195</ele>
        <time>2018-09-07T08:49:51Z</time>
      </trkpt>
      <trkpt lat="45.86537" lon="4.71893">
        <ele>195</ele>
        <time>2018-09-07T08:49:52Z</time>
      </trkpt>
      <trkpt lat="45.86532" lon="4.71889">
        <ele>195</ele>
        <time>2018-09-07T08:49:53Z</time>
      </trkpt>
      <trkpt lat="45.86527" lon="4.71886">
        <ele>195</ele>
        <time>2018-09-07T08:49:54Z</time>
      </trkpt>
      <trkpt lat="45.86521" lon="4.71883">
        <ele>195</ele>
        <time>2018-09-07T08:49:55Z</time>
      </trkpt>
      <trkpt lat="45.86516" lon="4.71879">
        <ele>195</ele>
        <time>2018-09-07T08:49:56Z</time>
      </trkpt>
      <trkpt lat="45.86509" lon="4.71876">
        <ele>195</ele>
        <time>2018-09-07T08:49:58Z</time>
      </trkpt>
      <trkpt lat="45.86505" lon="4.71874">
        <ele>195</ele>
        <time>2018-09-07T08:49:59Z</time>
      </trkpt>
      <trkpt lat="45.86501" lon="4.71867">
        <ele>195</ele>
        <time>2018-09-07T08:50:00Z</time>
      </trkpt>
      <trkpt lat="45.86497" lon="4.71864">
        <ele>198</ele>
        <time>2018-09-07T08:50:01Z</time>
      </trkpt>
      <trkpt lat="45.86489" lon="4.7186">
        <ele>198</ele>
        <time>2018-09-07T08:50:03Z</time>
      </trkpt>
      <trkpt lat="45.86486" lon="4.71857">
        <ele>198</ele>
        <time>2018-09-07T08:50:04Z</time>
      </trkpt>
      <trkpt lat="45.86482" lon="4.71853">
        <ele>198</ele>
        <time>2018-09-07T08:50:05Z</time>
      </trkpt>
      <trkpt lat="45.86478" lon="4.71849">
        <ele>198</ele>
        <time>2018-09-07T08:50:06Z</time>
      </trkpt>
      <trkpt lat="45.86475" lon="4.71846">
        <ele>198</ele>
        <time>2018-09-07T08:50:07Z</time>
      </trkpt>
      <trkpt lat="45.86469" lon="4.71842">
        <ele>199</ele>
        <time>2018-09-07T08:50:08Z</time>
      </trkpt>
      <trkpt lat="45.86463" lon="4.71836">
        <ele>199</ele>
        <time>2018-09-07T08:50:10Z</time>
      </trkpt>
      <trkpt lat="45.86459" lon="4.71832">
        <ele>196</ele>
        <time>2018-09-07T08:50:11Z</time>
      </trkpt>
      <trkpt lat="45.86455" lon="4.71829">
        <ele>197</ele>
        <time>2018-09-07T08:50:12Z</time>
      </trkpt>
      <trkpt lat="45.86451" lon="4.71824">
        <ele>197</ele>
        <time>2018-09-07T08:50:13Z</time>
      </trkpt>
      <trkpt lat="45.86447" lon="4.71821">
        <ele>197</ele>
        <time>2018-09-07T08:50:14Z</time>
      </trkpt>
      <trkpt lat="45.86443" lon="4.71817">
        <ele>197</ele>
        <time>2018-09-07T08:50:15Z</time>
      </trkpt>
      <trkpt lat="45.86435" lon="4.71811">
        <ele>197</ele>
        <time>2018-09-07T08:50:17Z</time>
      </trkpt>
      <trkpt lat="45.86431" lon="4.71805">
        <ele>197</ele>
        <time>2018-09-07T08:50:18Z</time>
      </trkpt>
      <trkpt lat="45.86426" lon="4.71801">
        <ele>197</ele>
        <time>2018-09-07T08:50:19Z</time>
      </trkpt>
      <trkpt lat="45.86423" lon="4.71796">
        <ele>197</ele>
        <time>2018-09-07T08:50:20Z</time>
      </trkpt>
      <trkpt lat="45.86419" lon="4.71791">
        <ele>196</ele>
        <time>2018-09-07T08:50:21Z</time>
      </trkpt>
      <trkpt lat="45.86416" lon="4.71788">
        <ele>198</ele>
        <time>2018-09-07T08:50:22Z</time>
      </trkpt>
      <trkpt lat="45.86411" lon="4.71784">
        <ele>198</ele>
        <time>2018-09-07T08:50:23Z</time>
      </trkpt>
      <trkpt lat="45.86407" lon="4.71782">
        <ele>198</ele>
        <time>2018-09-07T08:50:24Z</time>
      </trkpt>
      <trkpt lat="45.86402" lon="4.71779">
        <ele>198</ele>
        <time>2018-09-07T08:50:25Z</time>
      </trkpt>
      <trkpt lat="45.86398" lon="4.71776">
        <ele>197</ele>
        <time>2018-09-07T08:50:26Z</time>
      </trkpt>
      <trkpt lat="45.86394" lon="4.71772">
        <ele>197</ele>
        <time>2018-09-07T08:50:27Z</time>
      </trkpt>
      <trkpt lat="45.8639" lon="4.71768">
        <ele>197</ele>
        <time>2018-09-07T08:50:28Z</time>
      </trkpt>
      <trkpt lat="45.86386" lon="4.71763">
        <ele>197</ele>
        <time>2018-09-07T08:50:29Z</time>
      </trkpt>
      <trkpt lat="45.8638" lon="4.71757">
        <ele>197</ele>
        <time>2018-09-07T08:50:30Z</time>
      </trkpt>
      <trkpt lat="45.86372" lon="4.71754">
        <ele>197</ele>
        <time>2018-09-07T08:50:32Z</time>
      </trkpt>
      <trkpt lat="45.86368" lon="4.71748">
        <ele>194</ele>
        <time>2018-09-07T08:50:33Z</time>
      </trkpt>
      <trkpt lat="45.86362" lon="4.71745">
        <ele>194</ele>
        <time>2018-09-07T08:50:34Z</time>
      </trkpt>
      <trkpt lat="45.86356" lon="4.71741">
        <ele>194</ele>
        <time>2018-09-07T08:50:35Z</time>
      </trkpt>
      <trkpt lat="45.8635" lon="4.71738">
        <ele>195</ele>
        <time>2018-09-07T08:50:36Z</time>
      </trkpt>
      <trkpt lat="45.86346" lon="4.71734">
        <ele>195</ele>
        <time>2018-09-07T08:50:37Z</time>
      </trkpt>
      <trkpt lat="45.86341" lon="4.71731">
        <ele>195</ele>
        <time>2018-09-07T08:50:38Z</time>
      </trkpt>
      <trkpt lat="45.86336" lon="4.71727">
        <ele>195</ele>
        <time>2018-09-07T08:50:39Z</time>
      </trkpt>
      <trkpt lat="45.86332" lon="4.71723">
        <ele>196</ele>
        <time>2018-09-07T08:50:40Z</time>
      </trkpt>
      <trkpt lat="45.86328" lon="4.7172">
        <ele>196</ele>
        <time>2018-09-07T08:50:41Z</time>
      </trkpt>
      <trkpt lat="45.86323" lon="4.71717">
        <ele>195</ele>
        <time>2018-09-07T08:50:42Z</time>
      </trkpt>
      <trkpt lat="45.86319" lon="4.71714">
        <ele>195</ele>
        <time>2018-09-07T08:50:43Z</time>
      </trkpt>
      <trkpt lat="45.86314" lon="4.7171">
        <ele>195</ele>
        <time>2018-09-07T08:50:44Z</time>
      </trkpt>
      <trkpt lat="45.86309" lon="4.71705">
        <ele>195</ele>
        <time>2018-09-07T08:50:45Z</time>
      </trkpt>
      <trkpt lat="45.86304" lon="4.71701">
        <ele>195</ele>
        <time>2018-09-07T08:50:46Z</time>
      </trkpt>
      <trkpt lat="45.86299" lon="4.71697">
        <ele>195</ele>
        <time>2018-09-07T08:50:47Z</time>
      </trkpt>
      <trkpt lat="45.86294" lon="4.71693">
        <ele>195</ele>
        <time>2018-09-07T08:50:48Z</time>
      </trkpt>
      <trkpt lat="45.8629" lon="4.71692">
        <ele>195</ele>
        <time>2018-09-07T08:50:49Z</time>
      </trkpt>
      <trkpt lat="45.86284" lon="4.71689">
        <ele>195</ele>
        <time>2018-09-07T08:50:50Z</time>
      </trkpt>
      <trkpt lat="45.86279" lon="4.71685">
        <ele>195</ele>
        <time>2018-09-07T08:50:51Z</time>
      </trkpt>
      <trkpt lat="45.86274" lon="4.71681">
        <ele>195</ele>
        <time>2018-09-07T08:50:52Z</time>
      </trkpt>
      <trkpt lat="45.86269" lon="4.71678">
        <ele>195</ele>
        <time>2018-09-07T08:50:53Z</time>
      </trkpt>
      <trkpt lat="45.86264" lon="4.71674">
        <ele>195</ele>
        <time>2018-09-07T08:50:54Z</time>
      </trkpt>
      <trkpt lat="45.8626" lon="4.71667">
        <ele>195</ele>
        <time>2018-09-07T08:50:55Z</time>
      </trkpt>
      <trkpt lat="45.86254" lon="4.71663">
        <ele>195</ele>
        <time>2018-09-07T08:50:57Z</time>
      </trkpt>
      <trkpt lat="45.8625" lon="4.71662">
        <ele>195</ele>
        <time>2018-09-07T08:50:58Z</time>
      </trkpt>
      <trkpt lat="45.86245" lon="4.71659">
        <ele>195</ele>
        <time>2018-09-07T08:50:59Z</time>
      </trkpt>
      <trkpt lat="45.86241" lon="4.71654">
        <ele>195</ele>
        <time>2018-09-07T08:51:00Z</time>
      </trkpt>
      <trkpt lat="45.86234" lon="4.71652">
        <ele>195</ele>
        <time>2018-09-07T08:51:01Z</time>
      </trkpt>
      <trkpt lat="45.8623" lon="4.71649">
        <ele>195</ele>
        <time>2018-09-07T08:51:02Z</time>
      </trkpt>
      <trkpt lat="45.86226" lon="4.71644">
        <ele>195</ele>
        <time>2018-09-07T08:51:03Z</time>
      </trkpt>
      <trkpt lat="45.86222" lon="4.7164">
        <ele>195</ele>
        <time>2018-09-07T08:51:04Z</time>
      </trkpt>
      <trkpt lat="45.8622" lon="4.71634">
        <ele>195</ele>
        <time>2018-09-07T08:51:05Z</time>
      </trkpt>
      <trkpt lat="45.86218" lon="4.71627">
        <ele>195</ele>
        <time>2018-09-07T08:51:06Z</time>
      </trkpt>
      <trkpt lat="45.86217" lon="4.71619">
        <ele>195</ele>
        <time>2018-09-07T08:51:07Z</time>
      </trkpt>
      <trkpt lat="45.86214" lon="4.71611">
        <ele>195</ele>
        <time>2018-09-07T08:51:08Z</time>
      </trkpt>
      <trkpt lat="45.86211" lon="4.71604">
        <ele>195</ele>
        <time>2018-09-07T08:51:09Z</time>
      </trkpt>
      <trkpt lat="45.86206" lon="4.71597">
        <ele>195</ele>
        <time>2018-09-07T08:51:10Z</time>
      </trkpt>
      <trkpt lat="45.86201" lon="4.71592">
        <ele>195</ele>
        <time>2018-09-07T08:51:11Z</time>
      </trkpt>
      <trkpt lat="45.86197" lon="4.71587">
        <ele>195</ele>
        <time>2018-09-07T08:51:12Z</time>
      </trkpt>
      <trkpt lat="45.86193" lon="4.71583">
        <ele>195</ele>
        <time>2018-09-07T08:51:13Z</time>
      </trkpt>
      <trkpt lat="45.86189" lon="4.71577">
        <ele>195</ele>
        <time>2018-09-07T08:51:14Z</time>
      </trkpt>
      <trkpt lat="45.86184" lon="4.71567">
        <ele>195</ele>
        <time>2018-09-07T08:51:16Z</time>
      </trkpt>
      <trkpt lat="45.86184" lon="4.71563">
        <ele>195</ele>
        <time>2018-09-07T08:51:17Z</time>
      </trkpt>
      <trkpt lat="45.86177" lon="4.71553">
        <ele>195</ele>
        <time>2018-09-07T08:51:19Z</time>
      </trkpt>
      <trkpt lat="45.86174" lon="4.71549">
        <ele>195</ele>
        <time>2018-09-07T08:51:20Z</time>
      </trkpt>
      <trkpt lat="45.8617" lon="4.71543">
        <ele>195</ele>
        <time>2018-09-07T08:51:21Z</time>
      </trkpt>
      <trkpt lat="45.86167" lon="4.71538">
        <ele>195</ele>
        <time>2018-09-07T08:51:22Z</time>
      </trkpt>
      <trkpt lat="45.86165" lon="4.71533">
        <ele>195</ele>
        <time>2018-09-07T08:51:23Z</time>
      </trkpt>
      <trkpt lat="45.86162" lon="4.71527">
        <ele>195</ele>
        <time>2018-09-07T08:51:24Z</time>
      </trkpt>
      <trkpt lat="45.86158" lon="4.71521">
        <ele>195</ele>
        <time>2018-09-07T08:51:25Z</time>
      </trkpt>
      <trkpt lat="45.86154" lon="4.71515">
        <ele>195</ele>
        <time>2018-09-07T08:51:26Z</time>
      </trkpt>
      <trkpt lat="45.86152" lon="4.71507">
        <ele>195</ele>
        <time>2018-09-07T08:51:27Z</time>
      </trkpt>
      <trkpt lat="45.86148" lon="4.71501">
        <ele>195</ele>
        <time>2018-09-07T08:51:28Z</time>
      </trkpt>
      <trkpt lat="45.86144" lon="4.71495">
        <ele>195</ele>
        <time>2018-09-07T08:51:29Z</time>
      </trkpt>
      <trkpt lat="45.8614" lon="4.71489">
        <ele>195</ele>
        <time>2018-09-07T08:51:30Z</time>
      </trkpt>
      <trkpt lat="45.86138" lon="4.71481">
        <ele>195</ele>
        <time>2018-09-07T08:51:31Z</time>
      </trkpt>
      <trkpt lat="45.86135" lon="4.71475">
        <ele>195</ele>
        <time>2018-09-07T08:51:32Z</time>
      </trkpt>
      <trkpt lat="45.86133" lon="4.71469">
        <ele>195</ele>
        <time>2018-09-07T08:51:33Z</time>
      </trkpt>
      <trkpt lat="45.8613" lon="4.71461">
        <ele>195</ele>
        <time>2018-09-07T08:51:34Z</time>
      </trkpt>
      <trkpt lat="45.86128" lon="4.71454">
        <ele>195</ele>
        <time>2018-09-07T08:51:35Z</time>
      </trkpt>
      <trkpt lat="45.86126" lon="4.71448">
        <ele>195</ele>
        <time>2018-09-07T08:51:36Z</time>
      </trkpt>
      <trkpt lat="45.86124" lon="4.7144">
        <ele>195</ele>
        <time>2018-09-07T08:51:37Z</time>
      </trkpt>
      <trkpt lat="45.86124" lon="4.71435">
        <ele>195</ele>
        <time>2018-09-07T08:51:38Z</time>
      </trkpt>
      <trkpt lat="45.86123" lon="4.71428">
        <ele>195</ele>
        <time>2018-09-07T08:51:39Z</time>
      </trkpt>
      <trkpt lat="45.86123" lon="4.7142">
        <ele>195</ele>
        <time>2018-09-07T08:51:40Z</time>
      </trkpt>
      <trkpt lat="45.86122" lon="4.71414">
        <ele>196</ele>
        <time>2018-09-07T08:51:41Z</time>
      </trkpt>
      <trkpt lat="45.8612" lon="4.71408">
        <ele>196</ele>
        <time>2018-09-07T08:51:42Z</time>
      </trkpt>
      <trkpt lat="45.86119" lon="4.71401">
        <ele>196</ele>
        <time>2018-09-07T08:51:43Z</time>
      </trkpt>
      <trkpt lat="45.86117" lon="4.71392">
        <ele>196</ele>
        <time>2018-09-07T08:51:44Z</time>
      </trkpt>
      <trkpt lat="45.86117" lon="4.71385">
        <ele>196</ele>
        <time>2018-09-07T08:51:45Z</time>
      </trkpt>
      <trkpt lat="45.86117" lon="4.71378">
        <ele>196</ele>
        <time>2018-09-07T08:51:46Z</time>
      </trkpt>
      <trkpt lat="45.86117" lon="4.71371">
        <ele>196</ele>
        <time>2018-09-07T08:51:47Z</time>
      </trkpt>
      <trkpt lat="45.86115" lon="4.71363">
        <ele>196</ele>
        <time>2018-09-07T08:51:48Z</time>
      </trkpt>
      <trkpt lat="45.86113" lon="4.71354">
        <ele>196</ele>
        <time>2018-09-07T08:51:50Z</time>
      </trkpt>
      <trkpt lat="45.86109" lon="4.71345">
        <ele>196</ele>
        <time>2018-09-07T08:51:51Z</time>
      </trkpt>
      <trkpt lat="45.8611" lon="4.71333">
        <ele>196</ele>
        <time>2018-09-07T08:51:53Z</time>
      </trkpt>
      <trkpt lat="45.86109" lon="4.71326">
        <ele>196</ele>
        <time>2018-09-07T08:51:54Z</time>
      </trkpt>
      <trkpt lat="45.86108" lon="4.71319">
        <ele>196</ele>
        <time>2018-09-07T08:51:55Z</time>
      </trkpt>
      <trkpt lat="45.86106" lon="4.7131">
        <ele>196</ele>
        <time>2018-09-07T08:51:56Z</time>
      </trkpt>
      <trkpt lat="45.86106" lon="4.71304">
        <ele>196</ele>
        <time>2018-09-07T08:51:57Z</time>
      </trkpt>
      <trkpt lat="45.86104" lon="4.71296">
        <ele>197</ele>
        <time>2018-09-07T08:51:58Z</time>
      </trkpt>
      <trkpt lat="45.86102" lon="4.71288">
        <ele>197</ele>
        <time>2018-09-07T08:51:59Z</time>
      </trkpt>
      <trkpt lat="45.86102" lon="4.71282">
        <ele>197</ele>
        <time>2018-09-07T08:52:00Z</time>
      </trkpt>
      <trkpt lat="45.86099" lon="4.71271">
        <ele>197</ele>
        <time>2018-09-07T08:52:02Z</time>
      </trkpt>
      <trkpt lat="45.86096" lon="4.71264">
        <ele>197</ele>
        <time>2018-09-07T08:52:03Z</time>
      </trkpt>
      <trkpt lat="45.86092" lon="4.71259">
        <ele>197</ele>
        <time>2018-09-07T08:52:04Z</time>
      </trkpt>
      <trkpt lat="45.8609" lon="4.71254">
        <ele>198</ele>
        <time>2018-09-07T08:52:05Z</time>
      </trkpt>
      <trkpt lat="45.86087" lon="4.71249">
        <ele>198</ele>
        <time>2018-09-07T08:52:06Z</time>
      </trkpt>
      <trkpt lat="45.86086" lon="4.71242">
        <ele>198</ele>
        <time>2018-09-07T08:52:07Z</time>
      </trkpt>
      <trkpt lat="45.86085" lon="4.71235">
        <ele>197</ele>
        <time>2018-09-07T08:52:08Z</time>
      </trkpt>
      <trkpt lat="45.86084" lon="4.71228">
        <ele>197</ele>
        <time>2018-09-07T08:52:09Z</time>
      </trkpt>
      <trkpt lat="45.86084" lon="4.71221">
        <ele>197</ele>
        <time>2018-09-07T08:52:10Z</time>
      </trkpt>
      <trkpt lat="45.86085" lon="4.71214">
        <ele>197</ele>
        <time>2018-09-07T08:52:11Z</time>
      </trkpt>
      <trkpt lat="45.86086" lon="4.71207">
        <ele>197</ele>
        <time>2018-09-07T08:52:12Z</time>
      </trkpt>
      <trkpt lat="45.86088" lon="4.71201">
        <ele>197</ele>
        <time>2018-09-07T08:52:13Z</time>
      </trkpt>
      <trkpt lat="45.86089" lon="4.71195">
        <ele>197</ele>
        <time>2018-09-07T08:52:14Z</time>
      </trkpt>
      <trkpt lat="45.8609" lon="4.71187">
        <ele>197</ele>
        <time>2018-09-07T08:52:15Z</time>
      </trkpt>
      <trkpt lat="45.8609" lon="4.71181">
        <ele>197</ele>
        <time>2018-09-07T08:52:16Z</time>
      </trkpt>
      <trkpt lat="45.86091" lon="4.71174">
        <ele>197</ele>
        <time>2018-09-07T08:52:17Z</time>
      </trkpt>
      <trkpt lat="45.86093" lon="4.71165">
        <ele>197</ele>
        <time>2018-09-07T08:52:19Z</time>
      </trkpt>
      <trkpt lat="45.86095" lon="4.71161">
        <ele>197</ele>
        <time>2018-09-07T08:52:20Z</time>
      </trkpt>
      <trkpt lat="45.86094" lon="4.71149">
        <ele>197</ele>
        <time>2018-09-07T08:52:22Z</time>
      </trkpt>
      <trkpt lat="45.86094" lon="4.71145">
        <ele>197</ele>
        <time>2018-09-07T08:52:23Z</time>
      </trkpt>
      <trkpt lat="45.86091" lon="4.71141">
        <ele>197</ele>
        <time>2018-09-07T08:52:24Z</time>
      </trkpt>
      <trkpt lat="45.86087" lon="4.71137">
        <ele>197</ele>
        <time>2018-09-07T08:52:25Z</time>
      </trkpt>
      <trkpt lat="45.8608" lon="4.71131">
        <ele>197</ele>
        <time>2018-09-07T08:52:26Z</time>
      </trkpt>
      <trkpt lat="45.86076" lon="4.71127">
        <ele>197</ele>
        <time>2018-09-07T08:52:27Z</time>
      </trkpt>
      <trkpt lat="45.86072" lon="4.71123">
        <ele>197</ele>
        <time>2018-09-07T08:52:28Z</time>
      </trkpt>
      <trkpt lat="45.86068" lon="4.71119">
        <ele>197</ele>
        <time>2018-09-07T08:52:29Z</time>
      </trkpt>
      <trkpt lat="45.86063" lon="4.71113">
        <ele>197</ele>
        <time>2018-09-07T08:52:30Z</time>
      </trkpt>
      <trkpt lat="45.86059" lon="4.71104">
        <ele>197</ele>
        <time>2018-09-07T08:52:31Z</time>
      </trkpt>
      <trkpt lat="45.86055" lon="4.71099">
        <ele>197</ele>
        <time>2018-09-07T08:52:32Z</time>
      </trkpt>
      <trkpt lat="45.86052" lon="4.71094">
        <ele>197</ele>
        <time>2018-09-07T08:52:33Z</time>
      </trkpt>
      <trkpt lat="45.86049" lon="4.71084">
        <ele>197</ele>
        <time>2018-09-07T08:52:35Z</time>
      </trkpt>
      <trkpt lat="45.86047" lon="4.71078">
        <ele>196</ele>
        <time>2018-09-07T08:52:36Z</time>
      </trkpt>
      <trkpt lat="45.86044" lon="4.71073">
        <ele>196</ele>
        <time>2018-09-07T08:52:37Z</time>
      </trkpt>
      <trkpt lat="45.86043" lon="4.71065">
        <ele>196</ele>
        <time>2018-09-07T08:52:38Z</time>
      </trkpt>
      <trkpt lat="45.86041" lon="4.71058">
        <ele>197</ele>
        <time>2018-09-07T08:52:39Z</time>
      </trkpt>
      <trkpt lat="45.8604" lon="4.71052">
        <ele>197</ele>
        <time>2018-09-07T08:52:40Z</time>
      </trkpt>
      <trkpt lat="45.86038" lon="4.71045">
        <ele>197</ele>
        <time>2018-09-07T08:52:41Z</time>
      </trkpt>
      <trkpt lat="45.86037" lon="4.71037">
        <ele>197</ele>
        <time>2018-09-07T08:52:42Z</time>
      </trkpt>
      <trkpt lat="45.86035" lon="4.7103">
        <ele>197</ele>
        <time>2018-09-07T08:52:43Z</time>
      </trkpt>
      <trkpt lat="45.86034" lon="4.71023">
        <ele>197</ele>
        <time>2018-09-07T08:52:44Z</time>
      </trkpt>
      <trkpt lat="45.86031" lon="4.71012">
        <ele>197</ele>
        <time>2018-09-07T08:52:46Z</time>
      </trkpt>
      <trkpt lat="45.86025" lon="4.71007">
        <ele>197</ele>
        <time>2018-09-07T08:52:47Z</time>
      </trkpt>
      <trkpt lat="45.8602" lon="4.70999">
        <ele>196</ele>
        <time>2018-09-07T08:52:49Z</time>
      </trkpt>
      <trkpt lat="45.86018" lon="4.70994">
        <ele>197</ele>
        <time>2018-09-07T08:52:50Z</time>
      </trkpt>
      <trkpt lat="45.86014" lon="4.70991">
        <ele>197</ele>
        <time>2018-09-07T08:52:51Z</time>
      </trkpt>
      <trkpt lat="45.86009" lon="4.70987">
        <ele>197</ele>
        <time>2018-09-07T08:52:52Z</time>
      </trkpt>
      <trkpt lat="45.86001" lon="4.70981">
        <ele>197</ele>
        <time>2018-09-07T08:52:54Z</time>
      </trkpt>
      <trkpt lat="45.85995" lon="4.70976">
        <ele>197</ele>
        <time>2018-09-07T08:52:55Z</time>
      </trkpt>
      <trkpt lat="45.8599" lon="4.70973">
        <ele>197</ele>
        <time>2018-09-07T08:52:56Z</time>
      </trkpt>
      <trkpt lat="45.85985" lon="4.70971">
        <ele>197</ele>
        <time>2018-09-07T08:52:57Z</time>
      </trkpt>
      <trkpt lat="45.85979" lon="4.70969">
        <ele>197</ele>
        <time>2018-09-07T08:52:58Z</time>
      </trkpt>
      <trkpt lat="45.85974" lon="4.70968">
        <ele>197</ele>
        <time>2018-09-07T08:52:59Z</time>
      </trkpt>
      <trkpt lat="45.85966" lon="4.70968">
        <ele>197</ele>
        <time>2018-09-07T08:53:01Z</time>
      </trkpt>
      <trkpt lat="45.85961" lon="4.70968">
        <ele>197</ele>
        <time>2018-09-07T08:53:02Z</time>
      </trkpt>
      <trkpt lat="45.85952" lon="4.70967">
        <ele>197</ele>
        <time>2018-09-07T08:53:04Z</time>
      </trkpt>
      <trkpt lat="45.85947" lon="4.70966">
        <ele>197</ele>
        <time>2018-09-07T08:53:05Z</time>
      </trkpt>
      <trkpt lat="45.85944" lon="4.70956">
        <ele>197</ele>
        <time>2018-09-07T08:53:07Z</time>
      </trkpt>
      <trkpt lat="45.85944" lon="4.70951">
        <ele>197</ele>
        <time>2018-09-07T08:53:08Z</time>
      </trkpt>
      <trkpt lat="45.85945" lon="4.70938">
        <ele>197</ele>
        <time>2018-09-07T08:53:10Z</time>
      </trkpt>
      <trkpt lat="45.85947" lon="4.70932">
        <ele>197</ele>
        <time>2018-09-07T08:53:11Z</time>
      </trkpt>
      <trkpt lat="45.85948" lon="4.70924">
        <ele>197</ele>
        <time>2018-09-07T08:53:12Z</time>
      </trkpt>
      <trkpt lat="45.8595" lon="4.70916">
        <ele>197</ele>
        <time>2018-09-07T08:53:13Z</time>
      </trkpt>
      <trkpt lat="45.85952" lon="4.70909">
        <ele>197</ele>
        <time>2018-09-07T08:53:14Z</time>
      </trkpt>
      <trkpt lat="45.85953" lon="4.70901">
        <ele>197</ele>
        <time>2018-09-07T08:53:15Z</time>
      </trkpt>
      <trkpt lat="45.85954" lon="4.70894">
        <ele>197</ele>
        <time>2018-09-07T08:53:16Z</time>
      </trkpt>
      <trkpt lat="45.85956" lon="4.70887">
        <ele>197</ele>
        <time>2018-09-07T08:53:17Z</time>
      </trkpt>
      <trkpt lat="45.85958" lon="4.70879">
        <ele>197</ele>
        <time>2018-09-07T08:53:18Z</time>
      </trkpt>
      <trkpt lat="45.85958" lon="4.70872">
        <ele>196</ele>
        <time>2018-09-07T08:53:19Z</time>
      </trkpt>
      <trkpt lat="45.8596" lon="4.70867">
        <ele>196</ele>
        <time>2018-09-07T08:53:20Z</time>
      </trkpt>
      <trkpt lat="45.85962" lon="4.7086">
        <ele>196</ele>
        <time>2018-09-07T08:53:21Z</time>
      </trkpt>
      <trkpt lat="45.85964" lon="4.70847">
        <ele>196</ele>
        <time>2018-09-07T08:53:23Z</time>
      </trkpt>
      <trkpt lat="45.85965" lon="4.70842">
        <ele>196</ele>
        <time>2018-09-07T08:53:24Z</time>
      </trkpt>
      <trkpt lat="45.85964" lon="4.70834">
        <ele>196</ele>
        <time>2018-09-07T08:53:25Z</time>
      </trkpt>
      <trkpt lat="45.85964" lon="4.70826">
        <ele>196</ele>
        <time>2018-09-07T08:53:26Z</time>
      </trkpt>
      <trkpt lat="45.85963" lon="4.7082">
        <ele>195</ele>
        <time>2018-09-07T08:53:27Z</time>
      </trkpt>
      <trkpt lat="45.85963" lon="4.70811">
        <ele>195</ele>
        <time>2018-09-07T08:53:28Z</time>
      </trkpt>
      <trkpt lat="45.85959" lon="4.70804">
        <ele>195</ele>
        <time>2018-09-07T08:53:29Z</time>
      </trkpt>
      <trkpt lat="45.85959" lon="4.70796">
        <ele>195</ele>
        <time>2018-09-07T08:53:30Z</time>
      </trkpt>
      <trkpt lat="45.85959" lon="4.70788">
        <ele>195</ele>
        <time>2018-09-07T08:53:31Z</time>
      </trkpt>
      <trkpt lat="45.85961" lon="4.70781">
        <ele>195</ele>
        <time>2018-09-07T08:53:32Z</time>
      </trkpt>
      <trkpt lat="45.85963" lon="4.70773">
        <ele>195</ele>
        <time>2018-09-07T08:53:33Z</time>
      </trkpt>
      <trkpt lat="45.85964" lon="4.70766">
        <ele>195</ele>
        <time>2018-09-07T08:53:34Z</time>
      </trkpt>
      <trkpt lat="45.85964" lon="4.70759">
        <ele>195</ele>
        <time>2018-09-07T08:53:35Z</time>
      </trkpt>
      <trkpt lat="45.85964" lon="4.70753">
        <ele>195</ele>
        <time>2018-09-07T08:53:36Z</time>
      </trkpt>
      <trkpt lat="45.85965" lon="4.70747">
        <ele>194</ele>
        <time>2018-09-07T08:53:37Z</time>
      </trkpt>
      <trkpt lat="45.85964" lon="4.70738">
        <ele>194</ele>
        <time>2018-09-07T08:53:38Z</time>
      </trkpt>
      <trkpt lat="45.85964" lon="4.7073">
        <ele>194</ele>
        <time>2018-09-07T08:53:39Z</time>
      </trkpt>
      <trkpt lat="45.85963" lon="4.70722">
        <ele>194</ele>
        <time>2018-09-07T08:53:40Z</time>
      </trkpt>
      <trkpt lat="45.85965" lon="4.70716">
        <ele>194</ele>
        <time>2018-09-07T08:53:41Z</time>
      </trkpt>
      <trkpt lat="45.85967" lon="4.7071">
        <ele>194</ele>
        <time>2018-09-07T08:53:42Z</time>
      </trkpt>
      <trkpt lat="45.8597" lon="4.70698">
        <ele>194</ele>
        <time>2018-09-07T08:53:44Z</time>
      </trkpt>
      <trkpt lat="45.85969" lon="4.70691">
        <ele>194</ele>
        <time>2018-09-07T08:53:45Z</time>
      </trkpt>
      <trkpt lat="45.85966" lon="4.70682">
        <ele>194</ele>
        <time>2018-09-07T08:53:46Z</time>
      </trkpt>
      <trkpt lat="45.85965" lon="4.70676">
        <ele>194</ele>
        <time>2018-09-07T08:53:47Z</time>
      </trkpt>
      <trkpt lat="45.8596" lon="4.70666">
        <ele>194</ele>
        <time>2018-09-07T08:53:49Z</time>
      </trkpt>
      <trkpt lat="45.85957" lon="4.7066">
        <ele>194</ele>
        <time>2018-09-07T08:53:50Z</time>
      </trkpt>
      <trkpt lat="45.85953" lon="4.70654">
        <ele>194</ele>
        <time>2018-09-07T08:53:51Z</time>
      </trkpt>
      <trkpt lat="45.85949" lon="4.70647">
        <ele>194</ele>
        <time>2018-09-07T08:53:52Z</time>
      </trkpt>
      <trkpt lat="45.85946" lon="4.70642">
        <ele>194</ele>
        <time>2018-09-07T08:53:53Z</time>
      </trkpt>
      <trkpt lat="45.85941" lon="4.70635">
        <ele>194</ele>
        <time>2018-09-07T08:53:54Z</time>
      </trkpt>
      <trkpt lat="45.85938" lon="4.70628">
        <ele>194</ele>
        <time>2018-09-07T08:53:55Z</time>
      </trkpt>
      <trkpt lat="45.85934" lon="4.70622">
        <ele>194</ele>
        <time>2018-09-07T08:53:56Z</time>
      </trkpt>
      <trkpt lat="45.85929" lon="4.70616">
        <ele>194</ele>
        <time>2018-09-07T08:53:57Z</time>
      </trkpt>
      <trkpt lat="45.85926" lon="4.7061">
        <ele>194</ele>
        <time>2018-09-07T08:53:58Z</time>
      </trkpt>
      <trkpt lat="45.8592" lon="4.70601">
        <ele>194</ele>
        <time>2018-09-07T08:54:00Z</time>
      </trkpt>
      <trkpt lat="45.85916" lon="4.70596">
        <ele>195</ele>
        <time>2018-09-07T08:54:01Z</time>
      </trkpt>
      <trkpt lat="45.85913" lon="4.70591">
        <ele>195</ele>
        <time>2018-09-07T08:54:02Z</time>
      </trkpt>
      <trkpt lat="45.85909" lon="4.70585">
        <ele>195</ele>
        <time>2018-09-07T08:54:03Z</time>
      </trkpt>
      <trkpt lat="45.85905" lon="4.70582">
        <ele>195</ele>
        <time>2018-09-07T08:54:04Z</time>
      </trkpt>
      <trkpt lat="45.859" lon="4.70579">
        <ele>195</ele>
        <time>2018-09-07T08:54:05Z</time>
      </trkpt>
      <trkpt lat="45.85895" lon="4.70576">
        <ele>195</ele>
        <time>2018-09-07T08:54:06Z</time>
      </trkpt>
      <trkpt lat="45.85889" lon="4.70574">
        <ele>195</ele>
        <time>2018-09-07T08:54:07Z</time>
      </trkpt>
      <trkpt lat="45.85884" lon="4.70572">
        <ele>195</ele>
        <time>2018-09-07T08:54:08Z</time>
      </trkpt>
      <trkpt lat="45.85878" lon="4.7057">
        <ele>195</ele>
        <time>2018-09-07T08:54:09Z</time>
      </trkpt>
      <trkpt lat="45.85871" lon="4.70569">
        <ele>195</ele>
        <time>2018-09-07T08:54:10Z</time>
      </trkpt>
      <trkpt lat="45.85866" lon="4.70567">
        <ele>195</ele>
        <time>2018-09-07T08:54:11Z</time>
      </trkpt>
      <trkpt lat="45.85861" lon="4.70565">
        <ele>195</ele>
        <time>2018-09-07T08:54:12Z</time>
      </trkpt>
      <trkpt lat="45.85857" lon="4.70564">
        <ele>195</ele>
        <time>2018-09-07T08:54:13Z</time>
      </trkpt>
      <trkpt lat="45.8585" lon="4.70563">
        <ele>195</ele>
        <time>2018-09-07T08:54:14Z</time>
      </trkpt>
      <trkpt lat="45.85846" lon="4.70561">
        <ele>195</ele>
        <time>2018-09-07T08:54:15Z</time>
      </trkpt>
      <trkpt lat="45.85839" lon="4.70558">
        <ele>195</ele>
        <time>2018-09-07T08:54:16Z</time>
      </trkpt>
      <trkpt lat="45.85834" lon="4.70556">
        <ele>195</ele>
        <time>2018-09-07T08:54:17Z</time>
      </trkpt>
      <trkpt lat="45.85829" lon="4.70553">
        <ele>195</ele>
        <time>2018-09-07T08:54:18Z</time>
      </trkpt>
      <trkpt lat="45.85823" lon="4.70553">
        <ele>195</ele>
        <time>2018-09-07T08:54:19Z</time>
      </trkpt>
      <trkpt lat="45.85817" lon="4.70551">
        <ele>195</ele>
        <time>2018-09-07T08:54:20Z</time>
      </trkpt>
      <trkpt lat="45.85811" lon="4.70549">
        <ele>195</ele>
        <time>2018-09-07T08:54:21Z</time>
      </trkpt>
      <trkpt lat="45.85806" lon="4.70546">
        <ele>195</ele>
        <time>2018-09-07T08:54:22Z</time>
      </trkpt>
      <trkpt lat="45.858" lon="4.70544">
        <ele>195</ele>
        <time>2018-09-07T08:54:23Z</time>
      </trkpt>
      <trkpt lat="45.85795" lon="4.70544">
        <ele>195</ele>
        <time>2018-09-07T08:54:24Z</time>
      </trkpt>
      <trkpt lat="45.8579" lon="4.70541">
        <ele>196</ele>
        <time>2018-09-07T08:54:25Z</time>
      </trkpt>
      <trkpt lat="45.85785" lon="4.70538">
        <ele>196</ele>
        <time>2018-09-07T08:54:26Z</time>
      </trkpt>
      <trkpt lat="45.85779" lon="4.70535">
        <ele>196</ele>
        <time>2018-09-07T08:54:27Z</time>
      </trkpt>
      <trkpt lat="45.85773" lon="4.70534">
        <ele>196</ele>
        <time>2018-09-07T08:54:28Z</time>
      </trkpt>
      <trkpt lat="45.8577" lon="4.70531">
        <ele>196</ele>
        <time>2018-09-07T08:54:29Z</time>
      </trkpt>
      <trkpt lat="45.85766" lon="4.70525">
        <ele>196</ele>
        <time>2018-09-07T08:54:30Z</time>
      </trkpt>
      <trkpt lat="45.85762" lon="4.70522">
        <ele>196</ele>
        <time>2018-09-07T08:54:31Z</time>
      </trkpt>
      <trkpt lat="45.85758" lon="4.70517">
        <ele>196</ele>
        <time>2018-09-07T08:54:32Z</time>
      </trkpt>
      <trkpt lat="45.85754" lon="4.70514">
        <ele>196</ele>
        <time>2018-09-07T08:54:33Z</time>
      </trkpt>
      <trkpt lat="45.85749" lon="4.70512">
        <ele>196</ele>
        <time>2018-09-07T08:54:34Z</time>
      </trkpt>
      <trkpt lat="45.85743" lon="4.7051">
        <ele>196</ele>
        <time>2018-09-07T08:54:35Z</time>
      </trkpt>
      <trkpt lat="45.8574" lon="4.705">
        <ele>196</ele>
        <time>2018-09-07T08:54:37Z</time>
      </trkpt>
      <trkpt lat="45.85737" lon="4.70495">
        <ele>196</ele>
        <time>2018-09-07T08:54:38Z</time>
      </trkpt>
      <trkpt lat="45.85733" lon="4.70489">
        <ele>196</ele>
        <time>2018-09-07T08:54:39Z</time>
      </trkpt>
      <trkpt lat="45.85729" lon="4.7048">
        <ele>196</ele>
        <time>2018-09-07T08:54:40Z</time>
      </trkpt>
      <trkpt lat="45.85726" lon="4.70473">
        <ele>196</ele>
        <time>2018-09-07T08:54:41Z</time>
      </trkpt>
      <trkpt lat="45.85724" lon="4.70464">
        <ele>196</ele>
        <time>2018-09-07T08:54:42Z</time>
      </trkpt>
      <trkpt lat="45.85723" lon="4.70456">
        <ele>196</ele>
        <time>2018-09-07T08:54:43Z</time>
      </trkpt>
      <trkpt lat="45.85722" lon="4.70448">
        <ele>196</ele>
        <time>2018-09-07T08:54:44Z</time>
      </trkpt>
      <trkpt lat="45.85721" lon="4.7044">
        <ele>196</ele>
        <time>2018-09-07T08:54:45Z</time>
      </trkpt>
      <trkpt lat="45.85721" lon="4.70431">
        <ele>196</ele>
        <time>2018-09-07T08:54:46Z</time>
      </trkpt>
      <trkpt lat="45.85719" lon="4.70423">
        <ele>196</ele>
        <time>2018-09-07T08:54:47Z</time>
      </trkpt>
      <trkpt lat="45.85717" lon="4.70415">
        <ele>196</ele>
        <time>2018-09-07T08:54:48Z</time>
      </trkpt>
      <trkpt lat="45.85716" lon="4.70406">
        <ele>196</ele>
        <time>2018-09-07T08:54:49Z</time>
      </trkpt>
      <trkpt lat="45.85716" lon="4.70398">
        <ele>196</ele>
        <time>2018-09-07T08:54:50Z</time>
      </trkpt>
      <trkpt lat="45.85713" lon="4.70388">
        <ele>196</ele>
        <time>2018-09-07T08:54:51Z</time>
      </trkpt>
      <trkpt lat="45.85711" lon="4.7038">
        <ele>196</ele>
        <time>2018-09-07T08:54:52Z</time>
      </trkpt>
      <trkpt lat="45.85711" lon="4.70372">
        <ele>196</ele>
        <time>2018-09-07T08:54:53Z</time>
      </trkpt>
      <trkpt lat="45.85709" lon="4.70364">
        <ele>196</ele>
        <time>2018-09-07T08:54:54Z</time>
      </trkpt>
      <trkpt lat="45.85707" lon="4.70356">
        <ele>196</ele>
        <time>2018-09-07T08:54:55Z</time>
      </trkpt>
      <trkpt lat="45.85706" lon="4.70348">
        <ele>196</ele>
        <time>2018-09-07T08:54:56Z</time>
      </trkpt>
      <trkpt lat="45.85706" lon="4.70341">
        <ele>196</ele>
        <time>2018-09-07T08:54:57Z</time>
      </trkpt>
      <trkpt lat="45.85706" lon="4.70332">
        <ele>197</ele>
        <time>2018-09-07T08:54:58Z</time>
      </trkpt>
      <trkpt lat="45.85705" lon="4.70324">
        <ele>197</ele>
        <time>2018-09-07T08:54:59Z</time>
      </trkpt>
      <trkpt lat="45.85705" lon="4.70314">
        <ele>197</ele>
        <time>2018-09-07T08:55:00Z</time>
      </trkpt>
      <trkpt lat="45.85705" lon="4.70305">
        <ele>197</ele>
        <time>2018-09-07T08:55:01Z</time>
      </trkpt>
      <trkpt lat="45.85706" lon="4.70297">
        <ele>197</ele>
        <time>2018-09-07T08:55:02Z</time>
      </trkpt>
      <trkpt lat="45.85706" lon="4.70288">
        <ele>197</ele>
        <time>2018-09-07T08:55:03Z</time>
      </trkpt>
      <trkpt lat="45.85703" lon="4.70279">
        <ele>197</ele>
        <time>2018-09-07T08:55:04Z</time>
      </trkpt>
      <trkpt lat="45.85701" lon="4.7027">
        <ele>197</ele>
        <time>2018-09-07T08:55:05Z</time>
      </trkpt>
      <trkpt lat="45.85702" lon="4.70262">
        <ele>197</ele>
        <time>2018-09-07T08:55:06Z</time>
      </trkpt>
      <trkpt lat="45.857" lon="4.70255">
        <ele>197</ele>
        <time>2018-09-07T08:55:07Z</time>
      </trkpt>
      <trkpt lat="45.85699" lon="4.70248">
        <ele>197</ele>
        <time>2018-09-07T08:55:08Z</time>
      </trkpt>
      <trkpt lat="45.85698" lon="4.7024">
        <ele>197</ele>
        <time>2018-09-07T08:55:09Z</time>
      </trkpt>
      <trkpt lat="45.85698" lon="4.70231">
        <ele>197</ele>
        <time>2018-09-07T08:55:10Z</time>
      </trkpt>
      <trkpt lat="45.85696" lon="4.70223">
        <ele>197</ele>
        <time>2018-09-07T08:55:11Z</time>
      </trkpt>
      <trkpt lat="45.85696" lon="4.70214">
        <ele>197</ele>
        <time>2018-09-07T08:55:12Z</time>
      </trkpt>
      <trkpt lat="45.85694" lon="4.70204">
        <ele>197</ele>
        <time>2018-09-07T08:55:13Z</time>
      </trkpt>
      <trkpt lat="45.85694" lon="4.70196">
        <ele>197</ele>
        <time>2018-09-07T08:55:14Z</time>
      </trkpt>
      <trkpt lat="45.8569" lon="4.7019">
        <ele>197</ele>
        <time>2018-09-07T08:55:15Z</time>
      </trkpt>
      <trkpt lat="45.8569" lon="4.70182">
        <ele>197</ele>
        <time>2018-09-07T08:55:16Z</time>
      </trkpt>
      <trkpt lat="45.85688" lon="4.70171">
        <ele>197</ele>
        <time>2018-09-07T08:55:17Z</time>
      </trkpt>
      <trkpt lat="45.85687" lon="4.70166">
        <ele>197</ele>
        <time>2018-09-07T08:55:18Z</time>
      </trkpt>
      <trkpt lat="45.85684" lon="4.70156">
        <ele>197</ele>
        <time>2018-09-07T08:55:19Z</time>
      </trkpt>
      <trkpt lat="45.85683" lon="4.7015">
        <ele>197</ele>
        <time>2018-09-07T08:55:20Z</time>
      </trkpt>
      <trkpt lat="45.85682" lon="4.70143">
        <ele>197</ele>
        <time>2018-09-07T08:55:21Z</time>
      </trkpt>
      <trkpt lat="45.85682" lon="4.70135">
        <ele>197</ele>
        <time>2018-09-07T08:55:22Z</time>
      </trkpt>
      <trkpt lat="45.85681" lon="4.70126">
        <ele>197</ele>
        <time>2018-09-07T08:55:23Z</time>
      </trkpt>
      <trkpt lat="45.8568" lon="4.70119">
        <ele>197</ele>
        <time>2018-09-07T08:55:24Z</time>
      </trkpt>
      <trkpt lat="45.8568" lon="4.70111">
        <ele>197</ele>
        <time>2018-09-07T08:55:25Z</time>
      </trkpt>
      <trkpt lat="45.85681" lon="4.70103">
        <ele>196</ele>
        <time>2018-09-07T08:55:26Z</time>
      </trkpt>
      <trkpt lat="45.85683" lon="4.70096">
        <ele>196</ele>
        <time>2018-09-07T08:55:27Z</time>
      </trkpt>
      <trkpt lat="45.85682" lon="4.70086">
        <ele>196</ele>
        <time>2018-09-07T08:55:28Z</time>
      </trkpt>
      <trkpt lat="45.85682" lon="4.70079">
        <ele>196</ele>
        <time>2018-09-07T08:55:29Z</time>
      </trkpt>
      <trkpt lat="45.85683" lon="4.70071">
        <ele>196</ele>
        <time>2018-09-07T08:55:30Z</time>
      </trkpt>
      <trkpt lat="45.85685" lon="4.70065">
        <ele>196</ele>
        <time>2018-09-07T08:55:31Z</time>
      </trkpt>
      <trkpt lat="45.85685" lon="4.70057">
        <ele>195</ele>
        <time>2018-09-07T08:55:32Z</time>
      </trkpt>
      <trkpt lat="45.85688" lon="4.70045">
        <ele>195</ele>
        <time>2018-09-07T08:55:34Z</time>
      </trkpt>
      <trkpt lat="45.8569" lon="4.7004">
        <ele>195</ele>
        <time>2018-09-07T08:55:35Z</time>
      </trkpt>
      <trkpt lat="45.85691" lon="4.70028">
        <ele>195</ele>
        <time>2018-09-07T08:55:37Z</time>
      </trkpt>
      <trkpt lat="45.85692" lon="4.70022">
        <ele>195</ele>
        <time>2018-09-07T08:55:38Z</time>
      </trkpt>
      <trkpt lat="45.85693" lon="4.70014">
        <ele>195</ele>
        <time>2018-09-07T08:55:39Z</time>
      </trkpt>
      <trkpt lat="45.85694" lon="4.70008">
        <ele>195</ele>
        <time>2018-09-07T08:55:40Z</time>
      </trkpt>
      <trkpt lat="45.85694" lon="4.7">
        <ele>195</ele>
        <time>2018-09-07T08:55:41Z</time>
      </trkpt>
      <trkpt lat="45.85694" lon="4.69991">
        <ele>195</ele>
        <time>2018-09-07T08:55:42Z</time>
      </trkpt>
      <trkpt lat="45.85692" lon="4.69982">
        <ele>195</ele>
        <time>2018-09-07T08:55:43Z</time>
      </trkpt>
      <trkpt lat="45.85691" lon="4.69973">
        <ele>195</ele>
        <time>2018-09-07T08:55:44Z</time>
      </trkpt>
      <trkpt lat="45.8569" lon="4.69966">
        <ele>195</ele>
        <time>2018-09-07T08:55:45Z</time>
      </trkpt>
      <trkpt lat="45.85687" lon="4.69958">
        <ele>195</ele>
        <time>2018-09-07T08:55:46Z</time>
      </trkpt>
      <trkpt lat="45.85685" lon="4.6995">
        <ele>195</ele>
        <time>2018-09-07T08:55:47Z</time>
      </trkpt>
      <trkpt lat="45.85684" lon="4.69942">
        <ele>195</ele>
        <time>2018-09-07T08:55:48Z</time>
      </trkpt>
      <trkpt lat="45.85682" lon="4.69934">
        <ele>195</ele>
        <time>2018-09-07T08:55:49Z</time>
      </trkpt>
      <trkpt lat="45.85679" lon="4.69925">
        <ele>195</ele>
        <time>2018-09-07T08:55:50Z</time>
      </trkpt>
      <trkpt lat="45.85677" lon="4.69918">
        <ele>195</ele>
        <time>2018-09-07T08:55:51Z</time>
      </trkpt>
      <trkpt lat="45.85672" lon="4.6991">
        <ele>195</ele>
        <time>2018-09-07T08:55:52Z</time>
      </trkpt>
      <trkpt lat="45.8567" lon="4.69901">
        <ele>195</ele>
        <time>2018-09-07T08:55:53Z</time>
      </trkpt>
      <trkpt lat="45.85667" lon="4.69893">
        <ele>195</ele>
        <time>2018-09-07T08:55:54Z</time>
      </trkpt>
      <trkpt lat="45.85664" lon="4.69885">
        <ele>195</ele>
        <time>2018-09-07T08:55:55Z</time>
      </trkpt>
      <trkpt lat="45.85665" lon="4.69877">
        <ele>195</ele>
        <time>2018-09-07T08:55:56Z</time>
      </trkpt>
      <trkpt lat="45.85664" lon="4.69864">
        <ele>195</ele>
        <time>2018-09-07T08:55:58Z</time>
      </trkpt>
      <trkpt lat="45.85665" lon="4.69859">
        <ele>195</ele>
        <time>2018-09-07T08:55:59Z</time>
      </trkpt>
      <trkpt lat="45.85664" lon="4.6985">
        <ele>195</ele>
        <time>2018-09-07T08:56:00Z</time>
      </trkpt>
      <trkpt lat="45.8566" lon="4.69845">
        <ele>195</ele>
        <time>2018-09-07T08:56:01Z</time>
      </trkpt>
      <trkpt lat="45.8566" lon="4.69837">
        <ele>195</ele>
        <time>2018-09-07T08:56:02Z</time>
      </trkpt>
      <trkpt lat="45.85659" lon="4.6983">
        <ele>195</ele>
        <time>2018-09-07T08:56:03Z</time>
      </trkpt>
      <trkpt lat="45.85658" lon="4.69823">
        <ele>195</ele>
        <time>2018-09-07T08:56:04Z</time>
      </trkpt>
      <trkpt lat="45.85657" lon="4.69814">
        <ele>195</ele>
        <time>2018-09-07T08:56:05Z</time>
      </trkpt>
      <trkpt lat="45.85657" lon="4.69806">
        <ele>195</ele>
        <time>2018-09-07T08:56:06Z</time>
      </trkpt>
      <trkpt lat="45.85657" lon="4.69801">
        <ele>195</ele>
        <time>2018-09-07T08:56:07Z</time>
      </trkpt>
      <trkpt lat="45.85657" lon="4.69794">
        <ele>195</ele>
        <time>2018-09-07T08:56:08Z</time>
      </trkpt>
      <trkpt lat="45.85656" lon="4.69787">
        <ele>195</ele>
        <time>2018-09-07T08:56:09Z</time>
      </trkpt>
      <trkpt lat="45.85655" lon="4.69779">
        <ele>195</ele>
        <time>2018-09-07T08:56:10Z</time>
      </trkpt>
      <trkpt lat="45.85654" lon="4.69772">
        <ele>195</ele>
        <time>2018-09-07T08:56:11Z</time>
      </trkpt>
      <trkpt lat="45.85651" lon="4.69759">
        <ele>195</ele>
        <time>2018-09-07T08:56:13Z</time>
      </trkpt>
      <trkpt lat="45.85651" lon="4.69755">
        <ele>195</ele>
        <time>2018-09-07T08:56:14Z</time>
      </trkpt>
      <trkpt lat="45.85651" lon="4.69743">
        <ele>195</ele>
        <time>2018-09-07T08:56:16Z</time>
      </trkpt>
      <trkpt lat="45.8565" lon="4.69735">
        <ele>195</ele>
        <time>2018-09-07T08:56:17Z</time>
      </trkpt>
      <trkpt lat="45.8565" lon="4.69729">
        <ele>195</ele>
        <time>2018-09-07T08:56:18Z</time>
      </trkpt>
      <trkpt lat="45.8565" lon="4.69721">
        <ele>196</ele>
        <time>2018-09-07T08:56:19Z</time>
      </trkpt>
      <trkpt lat="45.85649" lon="4.69714">
        <ele>196</ele>
        <time>2018-09-07T08:56:20Z</time>
      </trkpt>
      <trkpt lat="45.85648" lon="4.69707">
        <ele>196</ele>
        <time>2018-09-07T08:56:21Z</time>
      </trkpt>
      <trkpt lat="45.85648" lon="4.697">
        <ele>196</ele>
        <time>2018-09-07T08:56:22Z</time>
      </trkpt>
      <trkpt lat="45.85647" lon="4.69694">
        <ele>196</ele>
        <time>2018-09-07T08:56:23Z</time>
      </trkpt>
      <trkpt lat="45.85648" lon="4.69682">
        <ele>196</ele>
        <time>2018-09-07T08:56:25Z</time>
      </trkpt>
      <trkpt lat="45.85649" lon="4.69674">
        <ele>196</ele>
        <time>2018-09-07T08:56:26Z</time>
      </trkpt>
      <trkpt lat="45.85647" lon="4.69662">
        <ele>197</ele>
        <time>2018-09-07T08:56:28Z</time>
      </trkpt>
      <trkpt lat="45.85647" lon="4.69654">
        <ele>197</ele>
        <time>2018-09-07T08:56:29Z</time>
      </trkpt>
      <trkpt lat="45.85646" lon="4.69648">
        <ele>197</ele>
        <time>2018-09-07T08:56:30Z</time>
      </trkpt>
      <trkpt lat="45.85647" lon="4.6964">
        <ele>197</ele>
        <time>2018-09-07T08:56:31Z</time>
      </trkpt>
      <trkpt lat="45.85646" lon="4.69633">
        <ele>197</ele>
        <time>2018-09-07T08:56:32Z</time>
      </trkpt>
      <trkpt lat="45.85646" lon="4.69626">
        <ele>197</ele>
        <time>2018-09-07T08:56:33Z</time>
      </trkpt>
      <trkpt lat="45.85647" lon="4.69621">
        <ele>197</ele>
        <time>2018-09-07T08:56:34Z</time>
      </trkpt>
      <trkpt lat="45.85646" lon="4.69612">
        <ele>197</ele>
        <time>2018-09-07T08:56:35Z</time>
      </trkpt>
      <trkpt lat="45.85646" lon="4.69605">
        <ele>197</ele>
        <time>2018-09-07T08:56:36Z</time>
      </trkpt>
      <trkpt lat="45.85645" lon="4.69598">
        <ele>197</ele>
        <time>2018-09-07T08:56:37Z</time>
      </trkpt>
      <trkpt lat="45.85644" lon="4.69589">
        <ele>197</ele>
        <time>2018-09-07T08:56:38Z</time>
      </trkpt>
      <trkpt lat="45.85644" lon="4.69581">
        <ele>198</ele>
        <time>2018-09-07T08:56:39Z</time>
      </trkpt>
      <trkpt lat="45.85643" lon="4.69572">
        <ele>198</ele>
        <time>2018-09-07T08:56:40Z</time>
      </trkpt>
      <trkpt lat="45.85642" lon="4.69566">
        <ele>198</ele>
        <time>2018-09-07T08:56:41Z</time>
      </trkpt>
      <trkpt lat="45.8564" lon="4.69558">
        <ele>198</ele>
        <time>2018-09-07T08:56:42Z</time>
      </trkpt>
      <trkpt lat="45.8564" lon="4.69552">
        <ele>198</ele>
        <time>2018-09-07T08:56:43Z</time>
      </trkpt>
      <trkpt lat="45.85639" lon="4.69545">
        <ele>198</ele>
        <time>2018-09-07T08:56:44Z</time>
      </trkpt>
      <trkpt lat="45.85639" lon="4.69539">
        <ele>198</ele>
        <time>2018-09-07T08:56:45Z</time>
      </trkpt>
      <trkpt lat="45.85637" lon="4.69534">
        <ele>198</ele>
        <time>2018-09-07T08:56:46Z</time>
      </trkpt>
      <trkpt lat="45.85636" lon="4.69526">
        <ele>198</ele>
        <time>2018-09-07T08:56:47Z</time>
      </trkpt>
      <trkpt lat="45.85635" lon="4.69516">
        <ele>198</ele>
        <time>2018-09-07T08:56:49Z</time>
      </trkpt>
      <trkpt lat="45.85634" lon="4.6951">
        <ele>198</ele>
        <time>2018-09-07T08:56:50Z</time>
      </trkpt>
      <trkpt lat="45.85633" lon="4.69499">
        <ele>198</ele>
        <time>2018-09-07T08:56:52Z</time>
      </trkpt>
      <trkpt lat="45.85633" lon="4.69491">
        <ele>198</ele>
        <time>2018-09-07T08:56:53Z</time>
      </trkpt>
      <trkpt lat="45.85632" lon="4.69484">
        <ele>198</ele>
        <time>2018-09-07T08:56:54Z</time>
      </trkpt>
      <trkpt lat="45.85632" lon="4.69477">
        <ele>198</ele>
        <time>2018-09-07T08:56:55Z</time>
      </trkpt>
      <trkpt lat="45.8563" lon="4.6947">
        <ele>198</ele>
        <time>2018-09-07T08:56:56Z</time>
      </trkpt>
      <trkpt lat="45.8563" lon="4.69462">
        <ele>198</ele>
        <time>2018-09-07T08:56:57Z</time>
      </trkpt>
      <trkpt lat="45.85629" lon="4.69449">
        <ele>198</ele>
        <time>2018-09-07T08:56:59Z</time>
      </trkpt>
      <trkpt lat="45.85627" lon="4.6944">
        <ele>198</ele>
        <time>2018-09-07T08:57:00Z</time>
      </trkpt>
      <trkpt lat="45.85627" lon="4.69432">
        <ele>198</ele>
        <time>2018-09-07T08:57:01Z</time>
      </trkpt>
      <trkpt lat="45.85625" lon="4.69425">
        <ele>198</ele>
        <time>2018-09-07T08:57:02Z</time>
      </trkpt>
      <trkpt lat="45.85623" lon="4.69413">
        <ele>198</ele>
        <time>2018-09-07T08:57:04Z</time>
      </trkpt>
      <trkpt lat="45.85623" lon="4.69407">
        <ele>198</ele>
        <time>2018-09-07T08:57:05Z</time>
      </trkpt>
      <trkpt lat="45.85622" lon="4.69399">
        <ele>198</ele>
        <time>2018-09-07T08:57:06Z</time>
      </trkpt>
      <trkpt lat="45.85621" lon="4.69391">
        <ele>198</ele>
        <time>2018-09-07T08:57:07Z</time>
      </trkpt>
      <trkpt lat="45.8562" lon="4.69379">
        <ele>198</ele>
        <time>2018-09-07T08:57:09Z</time>
      </trkpt>
      <trkpt lat="45.85619" lon="4.69372">
        <ele>198</ele>
        <time>2018-09-07T08:57:10Z</time>
      </trkpt>
      <trkpt lat="45.85618" lon="4.69365">
        <ele>198</ele>
        <time>2018-09-07T08:57:11Z</time>
      </trkpt>
      <trkpt lat="45.85618" lon="4.69358">
        <ele>198</ele>
        <time>2018-09-07T08:57:12Z</time>
      </trkpt>
      <trkpt lat="45.85617" lon="4.6935">
        <ele>198</ele>
        <time>2018-09-07T08:57:13Z</time>
      </trkpt>
      <trkpt lat="45.85616" lon="4.69344">
        <ele>198</ele>
        <time>2018-09-07T08:57:14Z</time>
      </trkpt>
      <trkpt lat="45.85615" lon="4.69336">
        <ele>198</ele>
        <time>2018-09-07T08:57:15Z</time>
      </trkpt>
      <trkpt lat="45.85614" lon="4.69329">
        <ele>198</ele>
        <time>2018-09-07T08:57:16Z</time>
      </trkpt>
      <trkpt lat="45.85613" lon="4.69322">
        <ele>198</ele>
        <time>2018-09-07T08:57:17Z</time>
      </trkpt>
      <trkpt lat="45.85613" lon="4.69314">
        <ele>198</ele>
        <time>2018-09-07T08:57:18Z</time>
      </trkpt>
      <trkpt lat="45.85612" lon="4.69307">
        <ele>198</ele>
        <time>2018-09-07T08:57:19Z</time>
      </trkpt>
      <trkpt lat="45.85611" lon="4.69301">
        <ele>198</ele>
        <time>2018-09-07T08:57:20Z</time>
      </trkpt>
      <trkpt lat="45.8561" lon="4.69294">
        <ele>198</ele>
        <time>2018-09-07T08:57:21Z</time>
      </trkpt>
      <trkpt lat="45.85611" lon="4.69287">
        <ele>198</ele>
        <time>2018-09-07T08:57:22Z</time>
      </trkpt>
      <trkpt lat="45.85613" lon="4.69278">
        <ele>198</ele>
        <time>2018-09-07T08:57:23Z</time>
      </trkpt>
      <trkpt lat="45.85614" lon="4.69271">
        <ele>198</ele>
        <time>2018-09-07T08:57:24Z</time>
      </trkpt>
      <trkpt lat="45.85614" lon="4.69264">
        <ele>198</ele>
        <time>2018-09-07T08:57:25Z</time>
      </trkpt>
      <trkpt lat="45.85616" lon="4.69256">
        <ele>198</ele>
        <time>2018-09-07T08:57:26Z</time>
      </trkpt>
      <trkpt lat="45.85611" lon="4.69245">
        <ele>199</ele>
        <time>2018-09-07T08:57:28Z</time>
      </trkpt>
      <trkpt lat="45.85608" lon="4.69239">
        <ele>199</ele>
        <time>2018-09-07T08:57:29Z</time>
      </trkpt>
      <trkpt lat="45.85607" lon="4.69232">
        <ele>199</ele>
        <time>2018-09-07T08:57:30Z</time>
      </trkpt>
      <trkpt lat="45.85608" lon="4.69221">
        <ele>199</ele>
        <time>2018-09-07T08:57:31Z</time>
      </trkpt>
      <trkpt lat="45.85606" lon="4.69215">
        <ele>199</ele>
        <time>2018-09-07T08:57:32Z</time>
      </trkpt>
      <trkpt lat="45.85605" lon="4.69207">
        <ele>199</ele>
        <time>2018-09-07T08:57:33Z</time>
      </trkpt>
      <trkpt lat="45.85604" lon="4.69196">
        <ele>199</ele>
        <time>2018-09-07T08:57:35Z</time>
      </trkpt>
      <trkpt lat="45.85604" lon="4.6919">
        <ele>199</ele>
        <time>2018-09-07T08:57:36Z</time>
      </trkpt>
      <trkpt lat="45.85602" lon="4.69184">
        <ele>199</ele>
        <time>2018-09-07T08:57:37Z</time>
      </trkpt>
      <trkpt lat="45.85602" lon="4.69176">
        <ele>199</ele>
        <time>2018-09-07T08:57:38Z</time>
      </trkpt>
      <trkpt lat="45.85602" lon="4.69169">
        <ele>199</ele>
        <time>2018-09-07T08:57:39Z</time>
      </trkpt>
      <trkpt lat="45.85602" lon="4.69162">
        <ele>199</ele>
        <time>2018-09-07T08:57:40Z</time>
      </trkpt>
      <trkpt lat="45.85601" lon="4.69155">
        <ele>199</ele>
        <time>2018-09-07T08:57:41Z</time>
      </trkpt>
      <trkpt lat="45.85601" lon="4.69148">
        <ele>199</ele>
        <time>2018-09-07T08:57:42Z</time>
      </trkpt>
      <trkpt lat="45.85599" lon="4.69141">
        <ele>199</ele>
        <time>2018-09-07T08:57:43Z</time>
      </trkpt>
      <trkpt lat="45.85598" lon="4.69134">
        <ele>198</ele>
        <time>2018-09-07T08:57:44Z</time>
      </trkpt>
      <trkpt lat="45.85595" lon="4.69125">
        <ele>198</ele>
        <time>2018-09-07T08:57:45Z</time>
      </trkpt>
      <trkpt lat="45.85593" lon="4.69116">
        <ele>199</ele>
        <time>2018-09-07T08:57:46Z</time>
      </trkpt>
      <trkpt lat="45.85592" lon="4.69108">
        <ele>199</ele>
        <time>2018-09-07T08:57:47Z</time>
      </trkpt>
      <trkpt lat="45.85591" lon="4.69099">
        <ele>199</ele>
        <time>2018-09-07T08:57:48Z</time>
      </trkpt>
      <trkpt lat="45.8559" lon="4.69091">
        <ele>199</ele>
        <time>2018-09-07T08:57:49Z</time>
      </trkpt>
      <trkpt lat="45.85592" lon="4.69084">
        <ele>199</ele>
        <time>2018-09-07T08:57:50Z</time>
      </trkpt>
      <trkpt lat="45.8559" lon="4.69076">
        <ele>199</ele>
        <time>2018-09-07T08:57:51Z</time>
      </trkpt>
      <trkpt lat="45.8559" lon="4.69069">
        <ele>199</ele>
        <time>2018-09-07T08:57:52Z</time>
      </trkpt>
      <trkpt lat="45.85588" lon="4.69062">
        <ele>199</ele>
        <time>2018-09-07T08:57:53Z</time>
      </trkpt>
      <trkpt lat="45.85586" lon="4.69055">
        <ele>199</ele>
        <time>2018-09-07T08:57:54Z</time>
      </trkpt>
      <trkpt lat="45.85587" lon="4.69046">
        <ele>199</ele>
        <time>2018-09-07T08:57:55Z</time>
      </trkpt>
      <trkpt lat="45.85586" lon="4.6904">
        <ele>199</ele>
        <time>2018-09-07T08:57:56Z</time>
      </trkpt>
      <trkpt lat="45.85586" lon="4.69032">
        <ele>199</ele>
        <time>2018-09-07T08:57:57Z</time>
      </trkpt>
      <trkpt lat="45.85584" lon="4.69024">
        <ele>199</ele>
        <time>2018-09-07T08:57:58Z</time>
      </trkpt>
      <trkpt lat="45.85583" lon="4.69016">
        <ele>200</ele>
        <time>2018-09-07T08:57:59Z</time>
      </trkpt>
      <trkpt lat="45.85582" lon="4.69009">
        <ele>200</ele>
        <time>2018-09-07T08:58:00Z</time>
      </trkpt>
      <trkpt lat="45.85582" lon="4.69002">
        <ele>200</ele>
        <time>2018-09-07T08:58:01Z</time>
      </trkpt>
      <trkpt lat="45.85581" lon="4.68995">
        <ele>200</ele>
        <time>2018-09-07T08:58:02Z</time>
      </trkpt>
      <trkpt lat="45.85581" lon="4.68987">
        <ele>200</ele>
        <time>2018-09-07T08:58:03Z</time>
      </trkpt>
      <trkpt lat="45.8558" lon="4.68979">
        <ele>200</ele>
        <time>2018-09-07T08:58:04Z</time>
      </trkpt>
      <trkpt lat="45.85579" lon="4.68969">
        <ele>200</ele>
        <time>2018-09-07T08:58:06Z</time>
      </trkpt>
      <trkpt lat="45.85578" lon="4.6896">
        <ele>200</ele>
        <time>2018-09-07T08:58:07Z</time>
      </trkpt>
      <trkpt lat="45.85576" lon="4.68954">
        <ele>200</ele>
        <time>2018-09-07T08:58:08Z</time>
      </trkpt>
      <trkpt lat="45.85576" lon="4.68947">
        <ele>200</ele>
        <time>2018-09-07T08:58:09Z</time>
      </trkpt>
      <trkpt lat="45.85575" lon="4.6894">
        <ele>200</ele>
        <time>2018-09-07T08:58:10Z</time>
      </trkpt>
      <trkpt lat="45.85572" lon="4.68932">
        <ele>200</ele>
        <time>2018-09-07T08:58:11Z</time>
      </trkpt>
      <trkpt lat="45.85571" lon="4.68924">
        <ele>200</ele>
        <time>2018-09-07T08:58:12Z</time>
      </trkpt>
      <trkpt lat="45.85571" lon="4.68917">
        <ele>200</ele>
        <time>2018-09-07T08:58:13Z</time>
      </trkpt>
      <trkpt lat="45.85571" lon="4.6891">
        <ele>200</ele>
        <time>2018-09-07T08:58:14Z</time>
      </trkpt>
      <trkpt lat="45.85569" lon="4.68903">
        <ele>200</ele>
        <time>2018-09-07T08:58:15Z</time>
      </trkpt>
      <trkpt lat="45.85568" lon="4.68896">
        <ele>200</ele>
        <time>2018-09-07T08:58:16Z</time>
      </trkpt>
      <trkpt lat="45.85565" lon="4.68886">
        <ele>200</ele>
        <time>2018-09-07T08:58:17Z</time>
      </trkpt>
      <trkpt lat="45.85563" lon="4.6888">
        <ele>200</ele>
        <time>2018-09-07T08:58:18Z</time>
      </trkpt>
      <trkpt lat="45.85564" lon="4.68873">
        <ele>200</ele>
        <time>2018-09-07T08:58:19Z</time>
      </trkpt>
      <trkpt lat="45.85563" lon="4.68861">
        <ele>200</ele>
        <time>2018-09-07T08:58:21Z</time>
      </trkpt>
      <trkpt lat="45.85565" lon="4.68854">
        <ele>200</ele>
        <time>2018-09-07T08:58:22Z</time>
      </trkpt>
      <trkpt lat="45.85564" lon="4.68845">
        <ele>200</ele>
        <time>2018-09-07T08:58:23Z</time>
      </trkpt>
      <trkpt lat="45.85563" lon="4.68835">
        <ele>200</ele>
        <time>2018-09-07T08:58:24Z</time>
      </trkpt>
      <trkpt lat="45.85564" lon="4.68824">
        <ele>200</ele>
        <time>2018-09-07T08:58:25Z</time>
      </trkpt>
      <trkpt lat="45.85564" lon="4.68818">
        <ele>200</ele>
        <time>2018-09-07T08:58:26Z</time>
      </trkpt>
      <trkpt lat="45.85564" lon="4.6881">
        <ele>200</ele>
        <time>2018-09-07T08:58:27Z</time>
      </trkpt>
      <trkpt lat="45.85563" lon="4.68802">
        <ele>200</ele>
        <time>2018-09-07T08:58:28Z</time>
      </trkpt>
      <trkpt lat="45.85562" lon="4.68794">
        <ele>200</ele>
        <time>2018-09-07T08:58:29Z</time>
      </trkpt>
      <trkpt lat="45.85561" lon="4.68784">
        <ele>200</ele>
        <time>2018-09-07T08:58:30Z</time>
      </trkpt>
      <trkpt lat="45.85562" lon="4.68776">
        <ele>200</ele>
        <time>2018-09-07T08:58:31Z</time>
      </trkpt>
      <trkpt lat="45.85563" lon="4.68767">
        <ele>200</ele>
        <time>2018-09-07T08:58:32Z</time>
      </trkpt>
      <trkpt lat="45.85561" lon="4.68758">
        <ele>200</ele>
        <time>2018-09-07T08:58:33Z</time>
      </trkpt>
      <trkpt lat="45.85563" lon="4.68751">
        <ele>200</ele>
        <time>2018-09-07T08:58:34Z</time>
      </trkpt>
      <trkpt lat="45.85561" lon="4.68742">
        <ele>200</ele>
        <time>2018-09-07T08:58:35Z</time>
      </trkpt>
      <trkpt lat="45.8556" lon="4.6873">
        <ele>200</ele>
        <time>2018-09-07T08:58:36Z</time>
      </trkpt>
      <trkpt lat="45.85559" lon="4.68722">
        <ele>200</ele>
        <time>2018-09-07T08:58:37Z</time>
      </trkpt>
      <trkpt lat="45.85558" lon="4.68712">
        <ele>200</ele>
        <time>2018-09-07T08:58:38Z</time>
      </trkpt>
      <trkpt lat="45.85557" lon="4.68705">
        <ele>200</ele>
        <time>2018-09-07T08:58:39Z</time>
      </trkpt>
      <trkpt lat="45.85556" lon="4.68696">
        <ele>200</ele>
        <time>2018-09-07T08:58:40Z</time>
      </trkpt>
      <trkpt lat="45.85554" lon="4.68687">
        <ele>200</ele>
        <time>2018-09-07T08:58:41Z</time>
      </trkpt>
      <trkpt lat="45.85554" lon="4.68681">
        <ele>200</ele>
        <time>2018-09-07T08:58:42Z</time>
      </trkpt>
      <trkpt lat="45.85552" lon="4.68676">
        <ele>200</ele>
        <time>2018-09-07T08:58:43Z</time>
      </trkpt>
      <trkpt lat="45.85553" lon="4.68666">
        <ele>200</ele>
        <time>2018-09-07T08:58:44Z</time>
      </trkpt>
      <trkpt lat="45.85554" lon="4.68659">
        <ele>200</ele>
        <time>2018-09-07T08:58:45Z</time>
      </trkpt>
      <trkpt lat="45.85553" lon="4.68653">
        <ele>201</ele>
        <time>2018-09-07T08:58:46Z</time>
      </trkpt>
      <trkpt lat="45.85553" lon="4.68646">
        <ele>201</ele>
        <time>2018-09-07T08:58:47Z</time>
      </trkpt>
      <trkpt lat="45.85552" lon="4.6864">
        <ele>201</ele>
        <time>2018-09-07T08:58:48Z</time>
      </trkpt>
      <trkpt lat="45.85552" lon="4.68634">
        <ele>201</ele>
        <time>2018-09-07T08:58:49Z</time>
      </trkpt>
      <trkpt lat="45.8555" lon="4.68624">
        <ele>201</ele>
        <time>2018-09-07T08:58:50Z</time>
      </trkpt>
      <trkpt lat="45.8555" lon="4.68619">
        <ele>201</ele>
        <time>2018-09-07T08:58:51Z</time>
      </trkpt>
      <trkpt lat="45.85546" lon="4.68608">
        <ele>201</ele>
        <time>2018-09-07T08:58:52Z</time>
      </trkpt>
      <trkpt lat="45.85546" lon="4.686">
        <ele>201</ele>
        <time>2018-09-07T08:58:53Z</time>
      </trkpt>
      <trkpt lat="45.85547" lon="4.6859">
        <ele>201</ele>
        <time>2018-09-07T08:58:54Z</time>
      </trkpt>
      <trkpt lat="45.85546" lon="4.68581">
        <ele>201</ele>
        <time>2018-09-07T08:58:55Z</time>
      </trkpt>
      <trkpt lat="45.85549" lon="4.68575">
        <ele>201</ele>
        <time>2018-09-07T08:58:56Z</time>
      </trkpt>
      <trkpt lat="45.85549" lon="4.68569">
        <ele>201</ele>
        <time>2018-09-07T08:58:57Z</time>
      </trkpt>
      <trkpt lat="45.85548" lon="4.6856">
        <ele>201</ele>
        <time>2018-09-07T08:58:58Z</time>
      </trkpt>
      <trkpt lat="45.85547" lon="4.68548">
        <ele>201</ele>
        <time>2018-09-07T08:59:00Z</time>
      </trkpt>
      <trkpt lat="45.85547" lon="4.6854">
        <ele>201</ele>
        <time>2018-09-07T08:59:01Z</time>
      </trkpt>
      <trkpt lat="45.85547" lon="4.68533">
        <ele>201</ele>
        <time>2018-09-07T08:59:02Z</time>
      </trkpt>
      <trkpt lat="45.85547" lon="4.68526">
        <ele>201</ele>
        <time>2018-09-07T08:59:03Z</time>
      </trkpt>
      <trkpt lat="45.85545" lon="4.68517">
        <ele>201</ele>
        <time>2018-09-07T08:59:04Z</time>
      </trkpt>
      <trkpt lat="45.85546" lon="4.68511">
        <ele>201</ele>
        <time>2018-09-07T08:59:05Z</time>
      </trkpt>
      <trkpt lat="45.85546" lon="4.68504">
        <ele>201</ele>
        <time>2018-09-07T08:59:06Z</time>
      </trkpt>
      <trkpt lat="45.85546" lon="4.68498">
        <ele>200</ele>
        <time>2018-09-07T08:59:07Z</time>
      </trkpt>
      <trkpt lat="45.85544" lon="4.68491">
        <ele>200</ele>
        <time>2018-09-07T08:59:08Z</time>
      </trkpt>
      <trkpt lat="45.85544" lon="4.68485">
        <ele>200</ele>
        <time>2018-09-07T08:59:09Z</time>
      </trkpt>
      <trkpt lat="45.8554" lon="4.68479">
        <ele>200</ele>
        <time>2018-09-07T08:59:10Z</time>
      </trkpt>
      <trkpt lat="45.8554" lon="4.68472">
        <ele>200</ele>
        <time>2018-09-07T08:59:11Z</time>
      </trkpt>
      <trkpt lat="45.85539" lon="4.68464">
        <ele>200</ele>
        <time>2018-09-07T08:59:12Z</time>
      </trkpt>
      <trkpt lat="45.85538" lon="4.68457">
        <ele>200</ele>
        <time>2018-09-07T08:59:13Z</time>
      </trkpt>
      <trkpt lat="45.85536" lon="4.68448">
        <ele>200</ele>
        <time>2018-09-07T08:59:14Z</time>
      </trkpt>
      <trkpt lat="45.85537" lon="4.6844">
        <ele>200</ele>
        <time>2018-09-07T08:59:15Z</time>
      </trkpt>
      <trkpt lat="45.85535" lon="4.68432">
        <ele>200</ele>
        <time>2018-09-07T08:59:16Z</time>
      </trkpt>
      <trkpt lat="45.85534" lon="4.68424">
        <ele>200</ele>
        <time>2018-09-07T08:59:17Z</time>
      </trkpt>
      <trkpt lat="45.85533" lon="4.68415">
        <ele>200</ele>
        <time>2018-09-07T08:59:18Z</time>
      </trkpt>
      <trkpt lat="45.85532" lon="4.68408">
        <ele>200</ele>
        <time>2018-09-07T08:59:19Z</time>
      </trkpt>
      <trkpt lat="45.85532" lon="4.68405">
        <ele>200</ele>
        <time>2018-09-07T08:59:20Z</time>
      </trkpt>
      <trkpt lat="45.85531" lon="4.68394">
        <ele>200</ele>
        <time>2018-09-07T08:59:21Z</time>
      </trkpt>
      <trkpt lat="45.8553" lon="4.68387">
        <ele>200</ele>
        <time>2018-09-07T08:59:22Z</time>
      </trkpt>
      <trkpt lat="45.85529" lon="4.6838">
        <ele>201</ele>
        <time>2018-09-07T08:59:23Z</time>
      </trkpt>
      <trkpt lat="45.85526" lon="4.68372">
        <ele>201</ele>
        <time>2018-09-07T08:59:24Z</time>
      </trkpt>
      <trkpt lat="45.85526" lon="4.68365">
        <ele>201</ele>
        <time>2018-09-07T08:59:25Z</time>
      </trkpt>
      <trkpt lat="45.85525" lon="4.68357">
        <ele>201</ele>
        <time>2018-09-07T08:59:26Z</time>
      </trkpt>
      <trkpt lat="45.85523" lon="4.6835">
        <ele>201</ele>
        <time>2018-09-07T08:59:27Z</time>
      </trkpt>
      <trkpt lat="45.85523" lon="4.68343">
        <ele>201</ele>
        <time>2018-09-07T08:59:28Z</time>
      </trkpt>
      <trkpt lat="45.85523" lon="4.68335">
        <ele>201</ele>
        <time>2018-09-07T08:59:29Z</time>
      </trkpt>
      <trkpt lat="45.85521" lon="4.68329">
        <ele>202</ele>
        <time>2018-09-07T08:59:30Z</time>
      </trkpt>
      <trkpt lat="45.85521" lon="4.68323">
        <ele>202</ele>
        <time>2018-09-07T08:59:31Z</time>
      </trkpt>
      <trkpt lat="45.85521" lon="4.68316">
        <ele>202</ele>
        <time>2018-09-07T08:59:32Z</time>
      </trkpt>
      <trkpt lat="45.85519" lon="4.68307">
        <ele>202</ele>
        <time>2018-09-07T08:59:33Z</time>
      </trkpt>
      <trkpt lat="45.85521" lon="4.683">
        <ele>202</ele>
        <time>2018-09-07T08:59:34Z</time>
      </trkpt>
      <trkpt lat="45.85518" lon="4.68292">
        <ele>202</ele>
        <time>2018-09-07T08:59:35Z</time>
      </trkpt>
      <trkpt lat="45.85517" lon="4.68285">
        <ele>202</ele>
        <time>2018-09-07T08:59:36Z</time>
      </trkpt>
      <trkpt lat="45.85515" lon="4.68277">
        <ele>202</ele>
        <time>2018-09-07T08:59:37Z</time>
      </trkpt>
      <trkpt lat="45.85515" lon="4.6827">
        <ele>202</ele>
        <time>2018-09-07T08:59:38Z</time>
      </trkpt>
      <trkpt lat="45.85517" lon="4.68262">
        <ele>202</ele>
        <time>2018-09-07T08:59:39Z</time>
      </trkpt>
      <trkpt lat="45.85516" lon="4.68255">
        <ele>203</ele>
        <time>2018-09-07T08:59:40Z</time>
      </trkpt>
      <trkpt lat="45.85516" lon="4.68248">
        <ele>203</ele>
        <time>2018-09-07T08:59:41Z</time>
      </trkpt>
      <trkpt lat="45.85516" lon="4.68236">
        <ele>203</ele>
        <time>2018-09-07T08:59:43Z</time>
      </trkpt>
      <trkpt lat="45.85517" lon="4.68229">
        <ele>203</ele>
        <time>2018-09-07T08:59:44Z</time>
      </trkpt>
      <trkpt lat="45.85518" lon="4.68222">
        <ele>203</ele>
        <time>2018-09-07T08:59:45Z</time>
      </trkpt>
      <trkpt lat="45.85518" lon="4.68215">
        <ele>203</ele>
        <time>2018-09-07T08:59:46Z</time>
      </trkpt>
      <trkpt lat="45.85518" lon="4.68206">
        <ele>203</ele>
        <time>2018-09-07T08:59:47Z</time>
      </trkpt>
      <trkpt lat="45.85516" lon="4.68198">
        <ele>203</ele>
        <time>2018-09-07T08:59:48Z</time>
      </trkpt>
      <trkpt lat="45.85516" lon="4.68191">
        <ele>203</ele>
        <time>2018-09-07T08:59:49Z</time>
      </trkpt>
      <trkpt lat="45.85513" lon="4.68183">
        <ele>203</ele>
        <time>2018-09-07T08:59:50Z</time>
      </trkpt>
      <trkpt lat="45.85512" lon="4.68176">
        <ele>204</ele>
        <time>2018-09-07T08:59:51Z</time>
      </trkpt>
      <trkpt lat="45.8551" lon="4.68167">
        <ele>204</ele>
        <time>2018-09-07T08:59:52Z</time>
      </trkpt>
      <trkpt lat="45.8551" lon="4.68161">
        <ele>204</ele>
        <time>2018-09-07T08:59:53Z</time>
      </trkpt>
      <trkpt lat="45.8551" lon="4.68153">
        <ele>203</ele>
        <time>2018-09-07T08:59:54Z</time>
      </trkpt>
      <trkpt lat="45.8551" lon="4.68145">
        <ele>203</ele>
        <time>2018-09-07T08:59:55Z</time>
      </trkpt>
      <trkpt lat="45.85509" lon="4.68136">
        <ele>203</ele>
        <time>2018-09-07T08:59:56Z</time>
      </trkpt>
      <trkpt lat="45.85509" lon="4.6813">
        <ele>203</ele>
        <time>2018-09-07T08:59:57Z</time>
      </trkpt>
      <trkpt lat="45.85508" lon="4.68122">
        <ele>203</ele>
        <time>2018-09-07T08:59:58Z</time>
      </trkpt>
      <trkpt lat="45.85507" lon="4.6811">
        <ele>203</ele>
        <time>2018-09-07T09:00:00Z</time>
      </trkpt>
      <trkpt lat="45.85507" lon="4.68104">
        <ele>203</ele>
        <time>2018-09-07T09:00:01Z</time>
      </trkpt>
      <trkpt lat="45.85507" lon="4.68097">
        <ele>203</ele>
        <time>2018-09-07T09:00:02Z</time>
      </trkpt>
      <trkpt lat="45.85506" lon="4.6809">
        <ele>203</ele>
        <time>2018-09-07T09:00:03Z</time>
      </trkpt>
      <trkpt lat="45.85506" lon="4.68084">
        <ele>204</ele>
        <time>2018-09-07T09:00:04Z</time>
      </trkpt>
      <trkpt lat="45.85503" lon="4.68076">
        <ele>204</ele>
        <time>2018-09-07T09:00:05Z</time>
      </trkpt>
      <trkpt lat="45.85503" lon="4.68064">
        <ele>203</ele>
        <time>2018-09-07T09:00:07Z</time>
      </trkpt>
      <trkpt lat="45.855" lon="4.68056">
        <ele>203</ele>
        <time>2018-09-07T09:00:08Z</time>
      </trkpt>
      <trkpt lat="45.85499" lon="4.68045">
        <ele>206</ele>
        <time>2018-09-07T09:00:10Z</time>
      </trkpt>
      <trkpt lat="45.85497" lon="4.68036">
        <ele>207</ele>
        <time>2018-09-07T09:00:11Z</time>
      </trkpt>
      <trkpt lat="45.85498" lon="4.68024">
        <ele>207</ele>
        <time>2018-09-07T09:00:13Z</time>
      </trkpt>
      <trkpt lat="45.85497" lon="4.68017">
        <ele>207</ele>
        <time>2018-09-07T09:00:14Z</time>
      </trkpt>
      <trkpt lat="45.85498" lon="4.68009">
        <ele>206</ele>
        <time>2018-09-07T09:00:15Z</time>
      </trkpt>
      <trkpt lat="45.85501" lon="4.68004">
        <ele>205</ele>
        <time>2018-09-07T09:00:16Z</time>
      </trkpt>
      <trkpt lat="45.85503" lon="4.67995">
        <ele>206</ele>
        <time>2018-09-07T09:00:17Z</time>
      </trkpt>
      <trkpt lat="45.85507" lon="4.67989">
        <ele>206</ele>
        <time>2018-09-07T09:00:18Z</time>
      </trkpt>
      <trkpt lat="45.85514" lon="4.67986">
        <ele>206</ele>
        <time>2018-09-07T09:00:20Z</time>
      </trkpt>
      <trkpt lat="45.85518" lon="4.67983">
        <ele>206</ele>
        <time>2018-09-07T09:00:21Z</time>
      </trkpt>
      <trkpt lat="45.85523" lon="4.67977">
        <ele>205</ele>
        <time>2018-09-07T09:00:22Z</time>
      </trkpt>
      <trkpt lat="45.85529" lon="4.67973">
        <ele>205</ele>
        <time>2018-09-07T09:00:23Z</time>
      </trkpt>
      <trkpt lat="45.85533" lon="4.67969">
        <ele>205</ele>
        <time>2018-09-07T09:00:24Z</time>
      </trkpt>
      <trkpt lat="45.85535" lon="4.67964">
        <ele>205</ele>
        <time>2018-09-07T09:00:25Z</time>
      </trkpt>
      <trkpt lat="45.85539" lon="4.6796">
        <ele>205</ele>
        <time>2018-09-07T09:00:26Z</time>
      </trkpt>
      <trkpt lat="45.85542" lon="4.67952">
        <ele>205</ele>
        <time>2018-09-07T09:00:27Z</time>
      </trkpt>
      <trkpt lat="45.85546" lon="4.67948">
        <ele>205</ele>
        <time>2018-09-07T09:00:28Z</time>
      </trkpt>
      <trkpt lat="45.8555" lon="4.67942">
        <ele>205</ele>
        <time>2018-09-07T09:00:29Z</time>
      </trkpt>
      <trkpt lat="45.85555" lon="4.67936">
        <ele>205</ele>
        <time>2018-09-07T09:00:30Z</time>
      </trkpt>
      <trkpt lat="45.85558" lon="4.67932">
        <ele>205</ele>
        <time>2018-09-07T09:00:31Z</time>
      </trkpt>
      <trkpt lat="45.85565" lon="4.67929">
        <ele>205</ele>
        <time>2018-09-07T09:00:33Z</time>
      </trkpt>
      <trkpt lat="45.85569" lon="4.67931">
        <ele>205</ele>
        <time>2018-09-07T09:00:34Z</time>
      </trkpt>
      <trkpt lat="45.85572" lon="4.67923">
        <ele>205</ele>
        <time>2018-09-07T09:00:35Z</time>
      </trkpt>
      <trkpt lat="45.85573" lon="4.67917">
        <ele>204</ele>
        <time>2018-09-07T09:00:36Z</time>
      </trkpt>
      <trkpt lat="45.85573" lon="4.6791">
        <ele>205</ele>
        <time>2018-09-07T09:00:37Z</time>
      </trkpt>
      <trkpt lat="45.85573" lon="4.67903">
        <ele>206</ele>
        <time>2018-09-07T09:00:38Z</time>
      </trkpt>
      <trkpt lat="45.85573" lon="4.67895">
        <ele>206</ele>
        <time>2018-09-07T09:00:39Z</time>
      </trkpt>
      <trkpt lat="45.85573" lon="4.67886">
        <ele>206</ele>
        <time>2018-09-07T09:00:40Z</time>
      </trkpt>
      <trkpt lat="45.85573" lon="4.6788">
        <ele>206</ele>
        <time>2018-09-07T09:00:41Z</time>
      </trkpt>
      <trkpt lat="45.85572" lon="4.6787">
        <ele>207</ele>
        <time>2018-09-07T09:00:42Z</time>
      </trkpt>
      <trkpt lat="45.85573" lon="4.6786">
        <ele>206</ele>
        <time>2018-09-07T09:00:43Z</time>
      </trkpt>
      <trkpt lat="45.85573" lon="4.67854">
        <ele>206</ele>
        <time>2018-09-07T09:00:44Z</time>
      </trkpt>
      <trkpt lat="45.85574" lon="4.67843">
        <ele>206</ele>
        <time>2018-09-07T09:00:46Z</time>
      </trkpt>
      <trkpt lat="45.85575" lon="4.67838">
        <ele>206</ele>
        <time>2018-09-07T09:00:47Z</time>
      </trkpt>
      <trkpt lat="45.85578" lon="4.67831">
        <ele>205</ele>
        <time>2018-09-07T09:00:48Z</time>
      </trkpt>
      <trkpt lat="45.85577" lon="4.67824">
        <ele>206</ele>
        <time>2018-09-07T09:00:49Z</time>
      </trkpt>
      <trkpt lat="45.8558" lon="4.67812">
        <ele>206</ele>
        <time>2018-09-07T09:00:51Z</time>
      </trkpt>
      <trkpt lat="45.85582" lon="4.67806">
        <ele>206</ele>
        <time>2018-09-07T09:00:52Z</time>
      </trkpt>
      <trkpt lat="45.85584" lon="4.678">
        <ele>209</ele>
        <time>2018-09-07T09:00:53Z</time>
      </trkpt>
      <trkpt lat="45.85585" lon="4.67793">
        <ele>209</ele>
        <time>2018-09-07T09:00:54Z</time>
      </trkpt>
      <trkpt lat="45.85588" lon="4.67785">
        <ele>209</ele>
        <time>2018-09-07T09:00:55Z</time>
      </trkpt>
      <trkpt lat="45.85589" lon="4.67777">
        <ele>209</ele>
        <time>2018-09-07T09:00:56Z</time>
      </trkpt>
      <trkpt lat="45.85591" lon="4.67771">
        <ele>208</ele>
        <time>2018-09-07T09:00:57Z</time>
      </trkpt>
      <trkpt lat="45.85594" lon="4.67765">
        <ele>208</ele>
        <time>2018-09-07T09:00:58Z</time>
      </trkpt>
      <trkpt lat="45.85596" lon="4.67758">
        <ele>208</ele>
        <time>2018-09-07T09:00:59Z</time>
      </trkpt>
      <trkpt lat="45.85599" lon="4.67752">
        <ele>208</ele>
        <time>2018-09-07T09:01:00Z</time>
      </trkpt>
      <trkpt lat="45.85602" lon="4.67747">
        <ele>207</ele>
        <time>2018-09-07T09:01:01Z</time>
      </trkpt>
      <trkpt lat="45.85605" lon="4.67742">
        <ele>207</ele>
        <time>2018-09-07T09:01:02Z</time>
      </trkpt>
      <trkpt lat="45.85608" lon="4.67734">
        <ele>208</ele>
        <time>2018-09-07T09:01:03Z</time>
      </trkpt>
      <trkpt lat="45.85612" lon="4.6773">
        <ele>208</ele>
        <time>2018-09-07T09:01:04Z</time>
      </trkpt>
      <trkpt lat="45.85616" lon="4.67723">
        <ele>209</ele>
        <time>2018-09-07T09:01:05Z</time>
      </trkpt>
      <trkpt lat="45.8562" lon="4.67716">
        <ele>209</ele>
        <time>2018-09-07T09:01:06Z</time>
      </trkpt>
      <trkpt lat="45.85624" lon="4.67713">
        <ele>209</ele>
        <time>2018-09-07T09:01:07Z</time>
      </trkpt>
      <trkpt lat="45.8563" lon="4.67709">
        <ele>209</ele>
        <time>2018-09-07T09:01:08Z</time>
      </trkpt>
      <trkpt lat="45.85633" lon="4.67703">
        <ele>209</ele>
        <time>2018-09-07T09:01:09Z</time>
      </trkpt>
      <trkpt lat="45.85638" lon="4.67699">
        <ele>209</ele>
        <time>2018-09-07T09:01:10Z</time>
      </trkpt>
      <trkpt lat="45.85644" lon="4.67699">
        <ele>210</ele>
        <time>2018-09-07T09:01:12Z</time>
      </trkpt>
      <trkpt lat="45.8565" lon="4.67691">
        <ele>210</ele>
        <time>2018-09-07T09:01:13Z</time>
      </trkpt>
      <trkpt lat="45.85654" lon="4.67693">
        <ele>210</ele>
        <time>2018-09-07T09:01:14Z</time>
      </trkpt>
      <trkpt lat="45.8566" lon="4.67688">
        <ele>210</ele>
        <time>2018-09-07T09:01:15Z</time>
      </trkpt>
      <trkpt lat="45.85666" lon="4.67678">
        <ele>209</ele>
        <time>2018-09-07T09:01:16Z</time>
      </trkpt>
      <trkpt lat="45.85672" lon="4.67672">
        <ele>213</ele>
        <time>2018-09-07T09:01:17Z</time>
      </trkpt>
      <trkpt lat="45.85677" lon="4.67668">
        <ele>214</ele>
        <time>2018-09-07T09:01:18Z</time>
      </trkpt>
      <trkpt lat="45.85682" lon="4.67666">
        <ele>210</ele>
        <time>2018-09-07T09:01:19Z</time>
      </trkpt>
      <trkpt lat="45.85686" lon="4.67663">
        <ele>210</ele>
        <time>2018-09-07T09:01:20Z</time>
      </trkpt>
      <trkpt lat="45.85691" lon="4.67662">
        <ele>211</ele>
        <time>2018-09-07T09:01:21Z</time>
      </trkpt>
      <trkpt lat="45.85695" lon="4.67659">
        <ele>211</ele>
        <time>2018-09-07T09:01:22Z</time>
      </trkpt>
      <trkpt lat="45.857" lon="4.67656">
        <ele>211</ele>
        <time>2018-09-07T09:01:23Z</time>
      </trkpt>
      <trkpt lat="45.85705" lon="4.67657">
        <ele>212</ele>
        <time>2018-09-07T09:01:25Z</time>
      </trkpt>
      <trkpt lat="45.8571" lon="4.67652">
        <ele>212</ele>
        <time>2018-09-07T09:01:26Z</time>
      </trkpt>
      <trkpt lat="45.85717" lon="4.67644">
        <ele>212</ele>
        <time>2018-09-07T09:01:27Z</time>
      </trkpt>
      <trkpt lat="45.8572" lon="4.67642">
        <ele>212</ele>
        <time>2018-09-07T09:01:28Z</time>
      </trkpt>
      <trkpt lat="45.85724" lon="4.67638">
        <ele>212</ele>
        <time>2018-09-07T09:01:29Z</time>
      </trkpt>
      <trkpt lat="45.8573" lon="4.67638">
        <ele>213</ele>
        <time>2018-09-07T09:01:30Z</time>
      </trkpt>
      <trkpt lat="45.85734" lon="4.67634">
        <ele>213</ele>
        <time>2018-09-07T09:01:31Z</time>
      </trkpt>
      <trkpt lat="45.8574" lon="4.67633">
        <ele>213</ele>
        <time>2018-09-07T09:01:32Z</time>
      </trkpt>
      <trkpt lat="45.85746" lon="4.6763">
        <ele>213</ele>
        <time>2018-09-07T09:01:33Z</time>
      </trkpt>
      <trkpt lat="45.85751" lon="4.67629">
        <ele>220</ele>
        <time>2018-09-07T09:01:34Z</time>
      </trkpt>
      <trkpt lat="45.85756" lon="4.67625">
        <ele>220</ele>
        <time>2018-09-07T09:01:35Z</time>
      </trkpt>
      <trkpt lat="45.8576" lon="4.67618">
        <ele>219</ele>
        <time>2018-09-07T09:01:36Z</time>
      </trkpt>
      <trkpt lat="45.85769" lon="4.67613">
        <ele>219</ele>
        <time>2018-09-07T09:01:38Z</time>
      </trkpt>
      <trkpt lat="45.85771" lon="4.67605">
        <ele>218</ele>
        <time>2018-09-07T09:01:39Z</time>
      </trkpt>
      <trkpt lat="45.85777" lon="4.67602">
        <ele>218</ele>
        <time>2018-09-07T09:01:40Z</time>
      </trkpt>
      <trkpt lat="45.85781" lon="4.67596">
        <ele>218</ele>
        <time>2018-09-07T09:01:41Z</time>
      </trkpt>
      <trkpt lat="45.85785" lon="4.67591">
        <ele>219</ele>
        <time>2018-09-07T09:01:42Z</time>
      </trkpt>
      <trkpt lat="45.8579" lon="4.67586">
        <ele>219</ele>
        <time>2018-09-07T09:01:43Z</time>
      </trkpt>
      <trkpt lat="45.85796" lon="4.67582">
        <ele>212</ele>
        <time>2018-09-07T09:01:44Z</time>
      </trkpt>
      <trkpt lat="45.85799" lon="4.67578">
        <ele>212</ele>
        <time>2018-09-07T09:01:45Z</time>
      </trkpt>
      <trkpt lat="45.85805" lon="4.67573">
        <ele>213</ele>
        <time>2018-09-07T09:01:46Z</time>
      </trkpt>
      <trkpt lat="45.85808" lon="4.67568">
        <ele>213</ele>
        <time>2018-09-07T09:01:47Z</time>
      </trkpt>
      <trkpt lat="45.85813" lon="4.67562">
        <ele>213</ele>
        <time>2018-09-07T09:01:48Z</time>
      </trkpt>
      <trkpt lat="45.85817" lon="4.67556">
        <ele>212</ele>
        <time>2018-09-07T09:01:49Z</time>
      </trkpt>
      <trkpt lat="45.8582" lon="4.67551">
        <ele>212</ele>
        <time>2018-09-07T09:01:50Z</time>
      </trkpt>
      <trkpt lat="45.85824" lon="4.67545">
        <ele>211</ele>
        <time>2018-09-07T09:01:51Z</time>
      </trkpt>
      <trkpt lat="45.85828" lon="4.67538">
        <ele>210</ele>
        <time>2018-09-07T09:01:52Z</time>
      </trkpt>
      <trkpt lat="45.85834" lon="4.67535">
        <ele>220</ele>
        <time>2018-09-07T09:01:53Z</time>
      </trkpt>
      <trkpt lat="45.85839" lon="4.67533">
        <ele>220</ele>
        <time>2018-09-07T09:01:54Z</time>
      </trkpt>
      <trkpt lat="45.85842" lon="4.67527">
        <ele>219</ele>
        <time>2018-09-07T09:01:55Z</time>
      </trkpt>
      <trkpt lat="45.85847" lon="4.67523">
        <ele>219</ele>
        <time>2018-09-07T09:01:56Z</time>
      </trkpt>
      <trkpt lat="45.85848" lon="4.67514">
        <ele>217</ele>
        <time>2018-09-07T09:01:57Z</time>
      </trkpt>
      <trkpt lat="45.85849" lon="4.67504">
        <ele>216</ele>
        <time>2018-09-07T09:01:58Z</time>
      </trkpt>
      <trkpt lat="45.85852" lon="4.67497">
        <ele>211</ele>
        <time>2018-09-07T09:01:59Z</time>
      </trkpt>
      <trkpt lat="45.85854" lon="4.6749">
        <ele>212</ele>
        <time>2018-09-07T09:02:00Z</time>
      </trkpt>
      <trkpt lat="45.85855" lon="4.67481">
        <ele>213</ele>
        <time>2018-09-07T09:02:01Z</time>
      </trkpt>
      <trkpt lat="45.85859" lon="4.67475">
        <ele>213</ele>
        <time>2018-09-07T09:02:02Z</time>
      </trkpt>
      <trkpt lat="45.85862" lon="4.67469">
        <ele>214</ele>
        <time>2018-09-07T09:02:03Z</time>
      </trkpt>
      <trkpt lat="45.85863" lon="4.6746">
        <ele>214</ele>
        <time>2018-09-07T09:02:04Z</time>
      </trkpt>
      <trkpt lat="45.85864" lon="4.67453">
        <ele>214</ele>
        <time>2018-09-07T09:02:05Z</time>
      </trkpt>
      <trkpt lat="45.85864" lon="4.67445">
        <ele>213</ele>
        <time>2018-09-07T09:02:06Z</time>
      </trkpt>
      <trkpt lat="45.85865" lon="4.67436">
        <ele>213</ele>
        <time>2018-09-07T09:02:07Z</time>
      </trkpt>
      <trkpt lat="45.85867" lon="4.67428">
        <ele>213</ele>
        <time>2018-09-07T09:02:08Z</time>
      </trkpt>
      <trkpt lat="45.85867" lon="4.67418">
        <ele>213</ele>
        <time>2018-09-07T09:02:09Z</time>
      </trkpt>
      <trkpt lat="45.85869" lon="4.67408">
        <ele>209</ele>
        <time>2018-09-07T09:02:10Z</time>
      </trkpt>
      <trkpt lat="45.8587" lon="4.67399">
        <ele>209</ele>
        <time>2018-09-07T09:02:11Z</time>
      </trkpt>
      <trkpt lat="45.8587" lon="4.67391">
        <ele>209</ele>
        <time>2018-09-07T09:02:12Z</time>
      </trkpt>
      <trkpt lat="45.85871" lon="4.67382">
        <ele>209</ele>
        <time>2018-09-07T09:02:13Z</time>
      </trkpt>
      <trkpt lat="45.85872" lon="4.67373">
        <ele>209</ele>
        <time>2018-09-07T09:02:14Z</time>
      </trkpt>
      <trkpt lat="45.85872" lon="4.67364">
        <ele>209</ele>
        <time>2018-09-07T09:02:15Z</time>
      </trkpt>
      <trkpt lat="45.85874" lon="4.67354">
        <ele>208</ele>
        <time>2018-09-07T09:02:16Z</time>
      </trkpt>
      <trkpt lat="45.85874" lon="4.67347">
        <ele>208</ele>
        <time>2018-09-07T09:02:17Z</time>
      </trkpt>
      <trkpt lat="45.85876" lon="4.67339">
        <ele>208</ele>
        <time>2018-09-07T09:02:18Z</time>
      </trkpt>
      <trkpt lat="45.85876" lon="4.67331">
        <ele>206</ele>
        <time>2018-09-07T09:02:19Z</time>
      </trkpt>
      <trkpt lat="45.85877" lon="4.67322">
        <ele>206</ele>
        <time>2018-09-07T09:02:20Z</time>
      </trkpt>
      <trkpt lat="45.85877" lon="4.67314">
        <ele>206</ele>
        <time>2018-09-07T09:02:21Z</time>
      </trkpt>
      <trkpt lat="45.85879" lon="4.67308">
        <ele>206</ele>
        <time>2018-09-07T09:02:22Z</time>
      </trkpt>
      <trkpt lat="45.8588" lon="4.67301">
        <ele>206</ele>
        <time>2018-09-07T09:02:23Z</time>
      </trkpt>
      <trkpt lat="45.8588" lon="4.67293">
        <ele>205</ele>
        <time>2018-09-07T09:02:24Z</time>
      </trkpt>
      <trkpt lat="45.8588" lon="4.67285">
        <ele>205</ele>
        <time>2018-09-07T09:02:25Z</time>
      </trkpt>
      <trkpt lat="45.85881" lon="4.67277">
        <ele>205</ele>
        <time>2018-09-07T09:02:26Z</time>
      </trkpt>
      <trkpt lat="45.85883" lon="4.6727">
        <ele>205</ele>
        <time>2018-09-07T09:02:27Z</time>
      </trkpt>
      <trkpt lat="45.85883" lon="4.67261">
        <ele>205</ele>
        <time>2018-09-07T09:02:28Z</time>
      </trkpt>
      <trkpt lat="45.85884" lon="4.6725">
        <ele>204</ele>
        <time>2018-09-07T09:02:29Z</time>
      </trkpt>
      <trkpt lat="45.85885" lon="4.67242">
        <ele>204</ele>
        <time>2018-09-07T09:02:30Z</time>
      </trkpt>
      <trkpt lat="45.85886" lon="4.67233">
        <ele>204</ele>
        <time>2018-09-07T09:02:31Z</time>
      </trkpt>
      <trkpt lat="45.85887" lon="4.67225">
        <ele>204</ele>
        <time>2018-09-07T09:02:32Z</time>
      </trkpt>
      <trkpt lat="45.85887" lon="4.67217">
        <ele>204</ele>
        <time>2018-09-07T09:02:33Z</time>
      </trkpt>
      <trkpt lat="45.85888" lon="4.6721">
        <ele>204</ele>
        <time>2018-09-07T09:02:34Z</time>
      </trkpt>
      <trkpt lat="45.85888" lon="4.67203">
        <ele>204</ele>
        <time>2018-09-07T09:02:35Z</time>
      </trkpt>
      <trkpt lat="45.85888" lon="4.67195">
        <ele>204</ele>
        <time>2018-09-07T09:02:36Z</time>
      </trkpt>
      <trkpt lat="45.85889" lon="4.67186">
        <ele>204</ele>
        <time>2018-09-07T09:02:37Z</time>
      </trkpt>
      <trkpt lat="45.8589" lon="4.67177">
        <ele>205</ele>
        <time>2018-09-07T09:02:38Z</time>
      </trkpt>
      <trkpt lat="45.85891" lon="4.67169">
        <ele>205</ele>
        <time>2018-09-07T09:02:39Z</time>
      </trkpt>
      <trkpt lat="45.85893" lon="4.67161">
        <ele>205</ele>
        <time>2018-09-07T09:02:40Z</time>
      </trkpt>
      <trkpt lat="45.85893" lon="4.67153">
        <ele>204</ele>
        <time>2018-09-07T09:02:41Z</time>
      </trkpt>
      <trkpt lat="45.85894" lon="4.67145">
        <ele>204</ele>
        <time>2018-09-07T09:02:42Z</time>
      </trkpt>
      <trkpt lat="45.85894" lon="4.67136">
        <ele>204</ele>
        <time>2018-09-07T09:02:43Z</time>
      </trkpt>
      <trkpt lat="45.85895" lon="4.67128">
        <ele>204</ele>
        <time>2018-09-07T09:02:44Z</time>
      </trkpt>
      <trkpt lat="45.85895" lon="4.6712">
        <ele>204</ele>
        <time>2018-09-07T09:02:45Z</time>
      </trkpt>
      <trkpt lat="45.85896" lon="4.6711">
        <ele>204</ele>
        <time>2018-09-07T09:02:46Z</time>
      </trkpt>
      <trkpt lat="45.85896" lon="4.67101">
        <ele>204</ele>
        <time>2018-09-07T09:02:47Z</time>
      </trkpt>
      <trkpt lat="45.85897" lon="4.67092">
        <ele>204</ele>
        <time>2018-09-07T09:02:48Z</time>
      </trkpt>
      <trkpt lat="45.85899" lon="4.67084">
        <ele>204</ele>
        <time>2018-09-07T09:02:49Z</time>
      </trkpt>
      <trkpt lat="45.85901" lon="4.67077">
        <ele>204</ele>
        <time>2018-09-07T09:02:50Z</time>
      </trkpt>
      <trkpt lat="45.85902" lon="4.6707">
        <ele>205</ele>
        <time>2018-09-07T09:02:51Z</time>
      </trkpt>
      <trkpt lat="45.85902" lon="4.67062">
        <ele>205</ele>
        <time>2018-09-07T09:02:52Z</time>
      </trkpt>
      <trkpt lat="45.85903" lon="4.67055">
        <ele>205</ele>
        <time>2018-09-07T09:02:53Z</time>
      </trkpt>
      <trkpt lat="45.85904" lon="4.67048">
        <ele>205</ele>
        <time>2018-09-07T09:02:54Z</time>
      </trkpt>
      <trkpt lat="45.85906" lon="4.67042">
        <ele>205</ele>
        <time>2018-09-07T09:02:55Z</time>
      </trkpt>
      <trkpt lat="45.85907" lon="4.67035">
        <ele>205</ele>
        <time>2018-09-07T09:02:56Z</time>
      </trkpt>
      <trkpt lat="45.85908" lon="4.67028">
        <ele>205</ele>
        <time>2018-09-07T09:02:57Z</time>
      </trkpt>
      <trkpt lat="45.85909" lon="4.67022">
        <ele>205</ele>
        <time>2018-09-07T09:02:58Z</time>
      </trkpt>
      <trkpt lat="45.8591" lon="4.67015">
        <ele>206</ele>
        <time>2018-09-07T09:02:59Z</time>
      </trkpt>
      <trkpt lat="45.85913" lon="4.67004">
        <ele>206</ele>
        <time>2018-09-07T09:03:01Z</time>
      </trkpt>
      <trkpt lat="45.85915" lon="4.67001">
        <ele>206</ele>
        <time>2018-09-07T09:03:02Z</time>
      </trkpt>
      <trkpt lat="45.85919" lon="4.66996">
        <ele>207</ele>
        <time>2018-09-07T09:03:03Z</time>
      </trkpt>
      <trkpt lat="45.85922" lon="4.66992">
        <ele>207</ele>
        <time>2018-09-07T09:03:04Z</time>
      </trkpt>
      <trkpt lat="45.85925" lon="4.66986">
        <ele>208</ele>
        <time>2018-09-07T09:03:05Z</time>
      </trkpt>
      <trkpt lat="45.85927" lon="4.6698">
        <ele>208</ele>
        <time>2018-09-07T09:03:06Z</time>
      </trkpt>
      <trkpt lat="45.85928" lon="4.66972">
        <ele>208</ele>
        <time>2018-09-07T09:03:07Z</time>
      </trkpt>
      <trkpt lat="45.85927" lon="4.66966">
        <ele>209</ele>
        <time>2018-09-07T09:03:08Z</time>
      </trkpt>
      <trkpt lat="45.85927" lon="4.66959">
        <ele>209</ele>
        <time>2018-09-07T09:03:09Z</time>
      </trkpt>
      <trkpt lat="45.85926" lon="4.6695">
        <ele>209</ele>
        <time>2018-09-07T09:03:10Z</time>
      </trkpt>
      <trkpt lat="45.85926" lon="4.66943">
        <ele>209</ele>
        <time>2018-09-07T09:03:11Z</time>
      </trkpt>
      <trkpt lat="45.85925" lon="4.66936">
        <ele>208</ele>
        <time>2018-09-07T09:03:12Z</time>
      </trkpt>
      <trkpt lat="45.85926" lon="4.66928">
        <ele>208</ele>
        <time>2018-09-07T09:03:13Z</time>
      </trkpt>
      <trkpt lat="45.85928" lon="4.66922">
        <ele>208</ele>
        <time>2018-09-07T09:03:14Z</time>
      </trkpt>
      <trkpt lat="45.85929" lon="4.66914">
        <ele>208</ele>
        <time>2018-09-07T09:03:15Z</time>
      </trkpt>
      <trkpt lat="45.85931" lon="4.66908">
        <ele>209</ele>
        <time>2018-09-07T09:03:16Z</time>
      </trkpt>
      <trkpt lat="45.85932" lon="4.66901">
        <ele>209</ele>
        <time>2018-09-07T09:03:17Z</time>
      </trkpt>
      <trkpt lat="45.85934" lon="4.66895">
        <ele>210</ele>
        <time>2018-09-07T09:03:18Z</time>
      </trkpt>
      <trkpt lat="45.85935" lon="4.66887">
        <ele>210</ele>
        <time>2018-09-07T09:03:19Z</time>
      </trkpt>
      <trkpt lat="45.85936" lon="4.66879">
        <ele>210</ele>
        <time>2018-09-07T09:03:20Z</time>
      </trkpt>
      <trkpt lat="45.85938" lon="4.66872">
        <ele>210</ele>
        <time>2018-09-07T09:03:21Z</time>
      </trkpt>
      <trkpt lat="45.85939" lon="4.66866">
        <ele>210</ele>
        <time>2018-09-07T09:03:22Z</time>
      </trkpt>
      <trkpt lat="45.85941" lon="4.66855">
        <ele>210</ele>
        <time>2018-09-07T09:03:24Z</time>
      </trkpt>
      <trkpt lat="45.85943" lon="4.66848">
        <ele>210</ele>
        <time>2018-09-07T09:03:25Z</time>
      </trkpt>
      <trkpt lat="45.85946" lon="4.66842">
        <ele>210</ele>
        <time>2018-09-07T09:03:26Z</time>
      </trkpt>
      <trkpt lat="45.85947" lon="4.66834">
        <ele>211</ele>
        <time>2018-09-07T09:03:27Z</time>
      </trkpt>
      <trkpt lat="45.85948" lon="4.66827">
        <ele>212</ele>
        <time>2018-09-07T09:03:28Z</time>
      </trkpt>
      <trkpt lat="45.8595" lon="4.6682">
        <ele>212</ele>
        <time>2018-09-07T09:03:29Z</time>
      </trkpt>
      <trkpt lat="45.85952" lon="4.66813">
        <ele>213</ele>
        <time>2018-09-07T09:03:30Z</time>
      </trkpt>
      <trkpt lat="45.85954" lon="4.66807">
        <ele>213</ele>
        <time>2018-09-07T09:03:31Z</time>
      </trkpt>
      <trkpt lat="45.85956" lon="4.66797">
        <ele>213</ele>
        <time>2018-09-07T09:03:33Z</time>
      </trkpt>
      <trkpt lat="45.85957" lon="4.66791">
        <ele>213</ele>
        <time>2018-09-07T09:03:34Z</time>
      </trkpt>
      <trkpt lat="45.85964" lon="4.66784">
        <ele>214</ele>
        <time>2018-09-07T09:03:35Z</time>
      </trkpt>
      <trkpt lat="45.8597" lon="4.66779">
        <ele>214</ele>
        <time>2018-09-07T09:03:36Z</time>
      </trkpt>
      <trkpt lat="45.85971" lon="4.66767">
        <ele>214</ele>
        <time>2018-09-07T09:03:39Z</time>
      </trkpt>
      <trkpt lat="45.85974" lon="4.66761">
        <ele>214</ele>
        <time>2018-09-07T09:03:40Z</time>
      </trkpt>
      <trkpt lat="45.8598" lon="4.66753">
        <ele>215</ele>
        <time>2018-09-07T09:03:41Z</time>
      </trkpt>
      <trkpt lat="45.85982" lon="4.66747">
        <ele>216</ele>
        <time>2018-09-07T09:03:42Z</time>
      </trkpt>
      <trkpt lat="45.85983" lon="4.66735">
        <ele>216</ele>
        <time>2018-09-07T09:03:43Z</time>
      </trkpt>
      <trkpt lat="45.85986" lon="4.66733">
        <ele>216</ele>
        <time>2018-09-07T09:03:44Z</time>
      </trkpt>
      <trkpt lat="45.85989" lon="4.66727">
        <ele>216</ele>
        <time>2018-09-07T09:03:45Z</time>
      </trkpt>
      <trkpt lat="45.85994" lon="4.66723">
        <ele>216</ele>
        <time>2018-09-07T09:03:46Z</time>
      </trkpt>
      <trkpt lat="45.85997" lon="4.66714">
        <ele>215</ele>
        <time>2018-09-07T09:03:48Z</time>
      </trkpt>
      <trkpt lat="45.85998" lon="4.66708">
        <ele>215</ele>
        <time>2018-09-07T09:03:49Z</time>
      </trkpt>
      <trkpt lat="45.86004" lon="4.66698">
        <ele>219</ele>
        <time>2018-09-07T09:03:51Z</time>
      </trkpt>
      <trkpt lat="45.86008" lon="4.66695">
        <ele>218</ele>
        <time>2018-09-07T09:03:52Z</time>
      </trkpt>
      <trkpt lat="45.86013" lon="4.66685">
        <ele>218</ele>
        <time>2018-09-07T09:03:54Z</time>
      </trkpt>
      <trkpt lat="45.86015" lon="4.6668">
        <ele>217</ele>
        <time>2018-09-07T09:03:55Z</time>
      </trkpt>
      <trkpt lat="45.86018" lon="4.66675">
        <ele>217</ele>
        <time>2018-09-07T09:03:56Z</time>
      </trkpt>
      <trkpt lat="45.86022" lon="4.6667">
        <ele>218</ele>
        <time>2018-09-07T09:03:57Z</time>
      </trkpt>
      <trkpt lat="45.86027" lon="4.66665">
        <ele>213</ele>
        <time>2018-09-07T09:03:58Z</time>
      </trkpt>
      <trkpt lat="45.8603" lon="4.66661">
        <ele>214</ele>
        <time>2018-09-07T09:03:59Z</time>
      </trkpt>
      <trkpt lat="45.86035" lon="4.66657">
        <ele>214</ele>
        <time>2018-09-07T09:04:00Z</time>
      </trkpt>
      <trkpt lat="45.86038" lon="4.66651">
        <ele>214</ele>
        <time>2018-09-07T09:04:01Z</time>
      </trkpt>
      <trkpt lat="45.86045" lon="4.66644">
        <ele>214</ele>
        <time>2018-09-07T09:04:03Z</time>
      </trkpt>
      <trkpt lat="45.86048" lon="4.66638">
        <ele>214</ele>
        <time>2018-09-07T09:04:04Z</time>
      </trkpt>
      <trkpt lat="45.86056" lon="4.66633">
        <ele>214</ele>
        <time>2018-09-07T09:04:06Z</time>
      </trkpt>
      <trkpt lat="45.86059" lon="4.6663">
        <ele>214</ele>
        <time>2018-09-07T09:04:07Z</time>
      </trkpt>
      <trkpt lat="45.86063" lon="4.66627">
        <ele>214</ele>
        <time>2018-09-07T09:04:08Z</time>
      </trkpt>
      <trkpt lat="45.86067" lon="4.66624">
        <ele>214</ele>
        <time>2018-09-07T09:04:09Z</time>
      </trkpt>
      <trkpt lat="45.86071" lon="4.66619">
        <ele>214</ele>
        <time>2018-09-07T09:04:10Z</time>
      </trkpt>
      <trkpt lat="45.86076" lon="4.66615">
        <ele>213</ele>
        <time>2018-09-07T09:04:11Z</time>
      </trkpt>
      <trkpt lat="45.86083" lon="4.66608">
        <ele>213</ele>
        <time>2018-09-07T09:04:13Z</time>
      </trkpt>
      <trkpt lat="45.86088" lon="4.66605">
        <ele>218</ele>
        <time>2018-09-07T09:04:14Z</time>
      </trkpt>
      <trkpt lat="45.86094" lon="4.66602">
        <ele>218</ele>
        <time>2018-09-07T09:04:15Z</time>
      </trkpt>
      <trkpt lat="45.86098" lon="4.66597">
        <ele>218</ele>
        <time>2018-09-07T09:04:16Z</time>
      </trkpt>
      <trkpt lat="45.86105" lon="4.66596">
        <ele>219</ele>
        <time>2018-09-07T09:04:18Z</time>
      </trkpt>
      <trkpt lat="45.8611" lon="4.66593">
        <ele>219</ele>
        <time>2018-09-07T09:04:19Z</time>
      </trkpt>
      <trkpt lat="45.86116" lon="4.66591">
        <ele>220</ele>
        <time>2018-09-07T09:04:20Z</time>
      </trkpt>
      <trkpt lat="45.86121" lon="4.66585">
        <ele>221</ele>
        <time>2018-09-07T09:04:21Z</time>
      </trkpt>
      <trkpt lat="45.86126" lon="4.66584">
        <ele>221</ele>
        <time>2018-09-07T09:04:22Z</time>
      </trkpt>
      <trkpt lat="45.86132" lon="4.6658">
        <ele>215</ele>
        <time>2018-09-07T09:04:23Z</time>
      </trkpt>
      <trkpt lat="45.86136" lon="4.66578">
        <ele>215</ele>
        <time>2018-09-07T09:04:24Z</time>
      </trkpt>
      <trkpt lat="45.86142" lon="4.66574">
        <ele>216</ele>
        <time>2018-09-07T09:04:25Z</time>
      </trkpt>
      <trkpt lat="45.86145" lon="4.6657">
        <ele>216</ele>
        <time>2018-09-07T09:04:26Z</time>
      </trkpt>
      <trkpt lat="45.8615" lon="4.66563">
        <ele>216</ele>
        <time>2018-09-07T09:04:27Z</time>
      </trkpt>
      <trkpt lat="45.86154" lon="4.66559">
        <ele>216</ele>
        <time>2018-09-07T09:04:28Z</time>
      </trkpt>
      <trkpt lat="45.86156" lon="4.66553">
        <ele>215</ele>
        <time>2018-09-07T09:04:29Z</time>
      </trkpt>
      <trkpt lat="45.86161" lon="4.66548">
        <ele>215</ele>
        <time>2018-09-07T09:04:30Z</time>
      </trkpt>
      <trkpt lat="45.86165" lon="4.66542">
        <ele>214</ele>
        <time>2018-09-07T09:04:31Z</time>
      </trkpt>
      <trkpt lat="45.86169" lon="4.66535">
        <ele>219</ele>
        <time>2018-09-07T09:04:32Z</time>
      </trkpt>
      <trkpt lat="45.86174" lon="4.66529">
        <ele>218</ele>
        <time>2018-09-07T09:04:33Z</time>
      </trkpt>
      <trkpt lat="45.86178" lon="4.66521">
        <ele>217</ele>
        <time>2018-09-07T09:04:35Z</time>
      </trkpt>
      <trkpt lat="45.86182" lon="4.66513">
        <ele>216</ele>
        <time>2018-09-07T09:04:36Z</time>
      </trkpt>
      <trkpt lat="45.86187" lon="4.66508">
        <ele>217</ele>
        <time>2018-09-07T09:04:37Z</time>
      </trkpt>
      <trkpt lat="45.86191" lon="4.665">
        <ele>213</ele>
        <time>2018-09-07T09:04:38Z</time>
      </trkpt>
      <trkpt lat="45.86194" lon="4.66496">
        <ele>213</ele>
        <time>2018-09-07T09:04:39Z</time>
      </trkpt>
      <trkpt lat="45.86197" lon="4.66488">
        <ele>213</ele>
        <time>2018-09-07T09:04:40Z</time>
      </trkpt>
      <trkpt lat="45.862" lon="4.66484">
        <ele>213</ele>
        <time>2018-09-07T09:04:41Z</time>
      </trkpt>
      <trkpt lat="45.86204" lon="4.66478">
        <ele>213</ele>
        <time>2018-09-07T09:04:42Z</time>
      </trkpt>
      <trkpt lat="45.86209" lon="4.66468">
        <ele>213</ele>
        <time>2018-09-07T09:04:44Z</time>
      </trkpt>
      <trkpt lat="45.86213" lon="4.66463">
        <ele>213</ele>
        <time>2018-09-07T09:04:45Z</time>
      </trkpt>
      <trkpt lat="45.86216" lon="4.66457">
        <ele>214</ele>
        <time>2018-09-07T09:04:46Z</time>
      </trkpt>
      <trkpt lat="45.86219" lon="4.66452">
        <ele>214</ele>
        <time>2018-09-07T09:04:47Z</time>
      </trkpt>
      <trkpt lat="45.86223" lon="4.66444">
        <ele>214</ele>
        <time>2018-09-07T09:04:48Z</time>
      </trkpt>
      <trkpt lat="45.86227" lon="4.66435">
        <ele>214</ele>
        <time>2018-09-07T09:04:49Z</time>
      </trkpt>
      <trkpt lat="45.8623" lon="4.66428">
        <ele>214</ele>
        <time>2018-09-07T09:04:50Z</time>
      </trkpt>
      <trkpt lat="45.86234" lon="4.6642">
        <ele>214</ele>
        <time>2018-09-07T09:04:51Z</time>
      </trkpt>
      <trkpt lat="45.86238" lon="4.66413">
        <ele>213</ele>
        <time>2018-09-07T09:04:52Z</time>
      </trkpt>
      <trkpt lat="45.86242" lon="4.66408">
        <ele>213</ele>
        <time>2018-09-07T09:04:53Z</time>
      </trkpt>
      <trkpt lat="45.86246" lon="4.66403">
        <ele>213</ele>
        <time>2018-09-07T09:04:54Z</time>
      </trkpt>
      <trkpt lat="45.86249" lon="4.66397">
        <ele>213</ele>
        <time>2018-09-07T09:04:55Z</time>
      </trkpt>
      <trkpt lat="45.86251" lon="4.6639">
        <ele>216</ele>
        <time>2018-09-07T09:04:56Z</time>
      </trkpt>
      <trkpt lat="45.86254" lon="4.66384">
        <ele>216</ele>
        <time>2018-09-07T09:04:57Z</time>
      </trkpt>
      <trkpt lat="45.86258" lon="4.66377">
        <ele>216</ele>
        <time>2018-09-07T09:04:58Z</time>
      </trkpt>
      <trkpt lat="45.86263" lon="4.66372">
        <ele>216</ele>
        <time>2018-09-07T09:04:59Z</time>
      </trkpt>
      <trkpt lat="45.86266" lon="4.66366">
        <ele>216</ele>
        <time>2018-09-07T09:05:00Z</time>
      </trkpt>
      <trkpt lat="45.86269" lon="4.66361">
        <ele>216</ele>
        <time>2018-09-07T09:05:01Z</time>
      </trkpt>
      <trkpt lat="45.86272" lon="4.66355">
        <ele>216</ele>
        <time>2018-09-07T09:05:02Z</time>
      </trkpt>
      <trkpt lat="45.86274" lon="4.66346">
        <ele>216</ele>
        <time>2018-09-07T09:05:03Z</time>
      </trkpt>
      <trkpt lat="45.86278" lon="4.66338">
        <ele>216</ele>
        <time>2018-09-07T09:05:04Z</time>
      </trkpt>
      <trkpt lat="45.86281" lon="4.66331">
        <ele>214</ele>
        <time>2018-09-07T09:05:05Z</time>
      </trkpt>
      <trkpt lat="45.86287" lon="4.66326">
        <ele>214</ele>
        <time>2018-09-07T09:05:06Z</time>
      </trkpt>
      <trkpt lat="45.86291" lon="4.66321">
        <ele>214</ele>
        <time>2018-09-07T09:05:07Z</time>
      </trkpt>
      <trkpt lat="45.86294" lon="4.66315">
        <ele>214</ele>
        <time>2018-09-07T09:05:08Z</time>
      </trkpt>
      <trkpt lat="45.86298" lon="4.6631">
        <ele>215</ele>
        <time>2018-09-07T09:05:09Z</time>
      </trkpt>
      <trkpt lat="45.86302" lon="4.66305">
        <ele>215</ele>
        <time>2018-09-07T09:05:10Z</time>
      </trkpt>
      <trkpt lat="45.86306" lon="4.663">
        <ele>215</ele>
        <time>2018-09-07T09:05:11Z</time>
      </trkpt>
      <trkpt lat="45.86309" lon="4.66295">
        <ele>214</ele>
        <time>2018-09-07T09:05:12Z</time>
      </trkpt>
      <trkpt lat="45.86313" lon="4.66291">
        <ele>214</ele>
        <time>2018-09-07T09:05:13Z</time>
      </trkpt>
      <trkpt lat="45.86316" lon="4.66286">
        <ele>214</ele>
        <time>2018-09-07T09:05:14Z</time>
      </trkpt>
      <trkpt lat="45.86319" lon="4.66282">
        <ele>214</ele>
        <time>2018-09-07T09:05:15Z</time>
      </trkpt>
      <trkpt lat="45.86323" lon="4.66278">
        <ele>214</ele>
        <time>2018-09-07T09:05:16Z</time>
      </trkpt>
      <trkpt lat="45.86328" lon="4.66276">
        <ele>214</ele>
        <time>2018-09-07T09:05:17Z</time>
      </trkpt>
      <trkpt lat="45.86333" lon="4.66273">
        <ele>214</ele>
        <time>2018-09-07T09:05:18Z</time>
      </trkpt>
      <trkpt lat="45.86338" lon="4.66269">
        <ele>217</ele>
        <time>2018-09-07T09:05:19Z</time>
      </trkpt>
      <trkpt lat="45.86343" lon="4.66265">
        <ele>217</ele>
        <time>2018-09-07T09:05:20Z</time>
      </trkpt>
      <trkpt lat="45.86347" lon="4.66263">
        <ele>217</ele>
        <time>2018-09-07T09:05:21Z</time>
      </trkpt>
      <trkpt lat="45.8635" lon="4.6626">
        <ele>217</ele>
        <time>2018-09-07T09:05:22Z</time>
      </trkpt>
      <trkpt lat="45.86354" lon="4.66256">
        <ele>217</ele>
        <time>2018-09-07T09:05:23Z</time>
      </trkpt>
      <trkpt lat="45.8636" lon="4.66252">
        <ele>218</ele>
        <time>2018-09-07T09:05:24Z</time>
      </trkpt>
      <trkpt lat="45.86365" lon="4.66248">
        <ele>213</ele>
        <time>2018-09-07T09:05:25Z</time>
      </trkpt>
      <trkpt lat="45.8637" lon="4.66246">
        <ele>214</ele>
        <time>2018-09-07T09:05:26Z</time>
      </trkpt>
      <trkpt lat="45.86374" lon="4.66243">
        <ele>214</ele>
        <time>2018-09-07T09:05:27Z</time>
      </trkpt>
      <trkpt lat="45.86379" lon="4.66239">
        <ele>214</ele>
        <time>2018-09-07T09:05:28Z</time>
      </trkpt>
      <trkpt lat="45.86383" lon="4.66234">
        <ele>214</ele>
        <time>2018-09-07T09:05:29Z</time>
      </trkpt>
      <trkpt lat="45.8639" lon="4.66233">
        <ele>214</ele>
        <time>2018-09-07T09:05:31Z</time>
      </trkpt>
      <trkpt lat="45.86395" lon="4.66234">
        <ele>215</ele>
        <time>2018-09-07T09:05:32Z</time>
      </trkpt>
      <trkpt lat="45.86403" lon="4.66231">
        <ele>215</ele>
        <time>2018-09-07T09:05:34Z</time>
      </trkpt>
      <trkpt lat="45.86407" lon="4.66228">
        <ele>215</ele>
        <time>2018-09-07T09:05:35Z</time>
      </trkpt>
      <trkpt lat="45.8641" lon="4.66227">
        <ele>215</ele>
        <time>2018-09-07T09:05:36Z</time>
      </trkpt>
      <trkpt lat="45.86417" lon="4.66218">
        <ele>217</ele>
        <time>2018-09-07T09:05:37Z</time>
      </trkpt>
      <trkpt lat="45.86421" lon="4.66216">
        <ele>217</ele>
        <time>2018-09-07T09:05:38Z</time>
      </trkpt>
      <trkpt lat="45.86426" lon="4.66212">
        <ele>217</ele>
        <time>2018-09-07T09:05:39Z</time>
      </trkpt>
      <trkpt lat="45.86433" lon="4.66219">
        <ele>218</ele>
        <time>2018-09-07T09:05:41Z</time>
      </trkpt>
      <trkpt lat="45.86438" lon="4.66218">
        <ele>218</ele>
        <time>2018-09-07T09:05:42Z</time>
      </trkpt>
      <trkpt lat="45.86446" lon="4.66215">
        <ele>218</ele>
        <time>2018-09-07T09:05:44Z</time>
      </trkpt>
      <trkpt lat="45.8645" lon="4.66216">
        <ele>218</ele>
        <time>2018-09-07T09:05:45Z</time>
      </trkpt>
      <trkpt lat="45.86457" lon="4.66214">
        <ele>218</ele>
        <time>2018-09-07T09:05:47Z</time>
      </trkpt>
      <trkpt lat="45.86463" lon="4.66211">
        <ele>218</ele>
        <time>2018-09-07T09:05:48Z</time>
      </trkpt>
      <trkpt lat="45.86469" lon="4.66207">
        <ele>218</ele>
        <time>2018-09-07T09:05:49Z</time>
      </trkpt>
      <trkpt lat="45.86474" lon="4.66207">
        <ele>218</ele>
        <time>2018-09-07T09:05:50Z</time>
      </trkpt>
      <trkpt lat="45.8648" lon="4.66205">
        <ele>218</ele>
        <time>2018-09-07T09:05:51Z</time>
      </trkpt>
      <trkpt lat="45.86483" lon="4.66206">
        <ele>218</ele>
        <time>2018-09-07T09:05:52Z</time>
      </trkpt>
      <trkpt lat="45.86488" lon="4.66204">
        <ele>218</ele>
        <time>2018-09-07T09:05:53Z</time>
      </trkpt>
      <trkpt lat="45.86493" lon="4.66203">
        <ele>218</ele>
        <time>2018-09-07T09:05:54Z</time>
      </trkpt>
      <trkpt lat="45.86499" lon="4.662">
        <ele>218</ele>
        <time>2018-09-07T09:05:56Z</time>
      </trkpt>
      <trkpt lat="45.86504" lon="4.66198">
        <ele>223</ele>
        <time>2018-09-07T09:05:57Z</time>
      </trkpt>
      <trkpt lat="45.86508" lon="4.66193">
        <ele>223</ele>
        <time>2018-09-07T09:05:58Z</time>
      </trkpt>
      <trkpt lat="45.86512" lon="4.66194">
        <ele>223</ele>
        <time>2018-09-07T09:05:59Z</time>
      </trkpt>
      <trkpt lat="45.86516" lon="4.66191">
        <ele>223</ele>
        <time>2018-09-07T09:06:00Z</time>
      </trkpt>
      <trkpt lat="45.86523" lon="4.66187">
        <ele>224</ele>
        <time>2018-09-07T09:06:01Z</time>
      </trkpt>
      <trkpt lat="45.8653" lon="4.66186">
        <ele>224</ele>
        <time>2018-09-07T09:06:03Z</time>
      </trkpt>
      <trkpt lat="45.86534" lon="4.66183">
        <ele>225</ele>
        <time>2018-09-07T09:06:04Z</time>
      </trkpt>
      <trkpt lat="45.86539" lon="4.66177">
        <ele>225</ele>
        <time>2018-09-07T09:06:05Z</time>
      </trkpt>
      <trkpt lat="45.86544" lon="4.66172">
        <ele>225</ele>
        <time>2018-09-07T09:06:06Z</time>
      </trkpt>
      <trkpt lat="45.86548" lon="4.66169">
        <ele>226</ele>
        <time>2018-09-07T09:06:07Z</time>
      </trkpt>
      <trkpt lat="45.86552" lon="4.66165">
        <ele>219</ele>
        <time>2018-09-07T09:06:08Z</time>
      </trkpt>
      <trkpt lat="45.86557" lon="4.66164">
        <ele>219</ele>
        <time>2018-09-07T09:06:09Z</time>
      </trkpt>
      <trkpt lat="45.86561" lon="4.66158">
        <ele>220</ele>
        <time>2018-09-07T09:06:10Z</time>
      </trkpt>
      <trkpt lat="45.86566" lon="4.66153">
        <ele>220</ele>
        <time>2018-09-07T09:06:12Z</time>
      </trkpt>
      <trkpt lat="45.86574" lon="4.66145">
        <ele>220</ele>
        <time>2018-09-07T09:06:13Z</time>
      </trkpt>
      <trkpt lat="45.86579" lon="4.6614">
        <ele>219</ele>
        <time>2018-09-07T09:06:14Z</time>
      </trkpt>
      <trkpt lat="45.86584" lon="4.66132">
        <ele>224</ele>
        <time>2018-09-07T09:06:15Z</time>
      </trkpt>
      <trkpt lat="45.86592" lon="4.66125">
        <ele>224</ele>
        <time>2018-09-07T09:06:17Z</time>
      </trkpt>
      <trkpt lat="45.86596" lon="4.66122">
        <ele>223</ele>
        <time>2018-09-07T09:06:18Z</time>
      </trkpt>
      <trkpt lat="45.86604" lon="4.66116">
        <ele>223</ele>
        <time>2018-09-07T09:06:20Z</time>
      </trkpt>
      <trkpt lat="45.86605" lon="4.66114">
        <ele>223</ele>
        <time>2018-09-07T09:06:21Z</time>
      </trkpt>
      <trkpt lat="45.86613" lon="4.66109">
        <ele>223</ele>
        <time>2018-09-07T09:06:23Z</time>
      </trkpt>
      <trkpt lat="45.86618" lon="4.66108">
        <ele>223</ele>
        <time>2018-09-07T09:06:24Z</time>
      </trkpt>
      <trkpt lat="45.86622" lon="4.66103">
        <ele>223</ele>
        <time>2018-09-07T09:06:25Z</time>
      </trkpt>
      <trkpt lat="45.86626" lon="4.66102">
        <ele>223</ele>
        <time>2018-09-07T09:06:26Z</time>
      </trkpt>
      <trkpt lat="45.86635" lon="4.66099">
        <ele>223</ele>
        <time>2018-09-07T09:06:28Z</time>
      </trkpt>
      <trkpt lat="45.86639" lon="4.66096">
        <ele>223</ele>
        <time>2018-09-07T09:06:29Z</time>
      </trkpt>
      <trkpt lat="45.86644" lon="4.66094">
        <ele>223</ele>
        <time>2018-09-07T09:06:30Z</time>
      </trkpt>
      <trkpt lat="45.86649" lon="4.6609">
        <ele>222</ele>
        <time>2018-09-07T09:06:31Z</time>
      </trkpt>
      <trkpt lat="45.86654" lon="4.66089">
        <ele>222</ele>
        <time>2018-09-07T09:06:32Z</time>
      </trkpt>
      <trkpt lat="45.8666" lon="4.66086">
        <ele>221</ele>
        <time>2018-09-07T09:06:33Z</time>
      </trkpt>
      <trkpt lat="45.86669" lon="4.66084">
        <ele>221</ele>
        <time>2018-09-07T09:06:35Z</time>
      </trkpt>
      <trkpt lat="45.86672" lon="4.66084">
        <ele>223</ele>
        <time>2018-09-07T09:06:36Z</time>
      </trkpt>
      <trkpt lat="45.86679" lon="4.66082">
        <ele>220</ele>
        <time>2018-09-07T09:06:38Z</time>
      </trkpt>
      <trkpt lat="45.86683" lon="4.6608">
        <ele>221</ele>
        <time>2018-09-07T09:06:39Z</time>
      </trkpt>
      <trkpt lat="45.86689" lon="4.66079">
        <ele>222</ele>
        <time>2018-09-07T09:06:41Z</time>
      </trkpt>
      <trkpt lat="45.86693" lon="4.66077">
        <ele>222</ele>
        <time>2018-09-07T09:06:42Z</time>
      </trkpt>
      <trkpt lat="45.867" lon="4.66074">
        <ele>223</ele>
        <time>2018-09-07T09:06:44Z</time>
      </trkpt>
      <trkpt lat="45.86705" lon="4.66072">
        <ele>223</ele>
        <time>2018-09-07T09:06:45Z</time>
      </trkpt>
      <trkpt lat="45.8671" lon="4.66069">
        <ele>224</ele>
        <time>2018-09-07T09:06:46Z</time>
      </trkpt>
      <trkpt lat="45.86716" lon="4.66066">
        <ele>225</ele>
        <time>2018-09-07T09:06:47Z</time>
      </trkpt>
      <trkpt lat="45.8672" lon="4.66061">
        <ele>225</ele>
        <time>2018-09-07T09:06:48Z</time>
      </trkpt>
      <trkpt lat="45.86724" lon="4.66057">
        <ele>225</ele>
        <time>2018-09-07T09:06:49Z</time>
      </trkpt>
      <trkpt lat="45.86729" lon="4.66054">
        <ele>225</ele>
        <time>2018-09-07T09:06:50Z</time>
      </trkpt>
      <trkpt lat="45.86733" lon="4.66052">
        <ele>225</ele>
        <time>2018-09-07T09:06:51Z</time>
      </trkpt>
      <trkpt lat="45.86741" lon="4.66046">
        <ele>224</ele>
        <time>2018-09-07T09:06:53Z</time>
      </trkpt>
      <trkpt lat="45.86743" lon="4.66046">
        <ele>224</ele>
        <time>2018-09-07T09:06:54Z</time>
      </trkpt>
      <trkpt lat="45.86749" lon="4.66041">
        <ele>224</ele>
        <time>2018-09-07T09:06:56Z</time>
      </trkpt>
      <trkpt lat="45.86753" lon="4.66039">
        <ele>233</ele>
        <time>2018-09-07T09:06:57Z</time>
      </trkpt>
      <trkpt lat="45.86756" lon="4.66034">
        <ele>232</ele>
        <time>2018-09-07T09:06:58Z</time>
      </trkpt>
      <trkpt lat="45.86761" lon="4.66031">
        <ele>232</ele>
        <time>2018-09-07T09:06:59Z</time>
      </trkpt>
      <trkpt lat="45.86765" lon="4.66025">
        <ele>231</ele>
        <time>2018-09-07T09:07:00Z</time>
      </trkpt>
      <trkpt lat="45.86768" lon="4.6602">
        <ele>230</ele>
        <time>2018-09-07T09:07:01Z</time>
      </trkpt>
      <trkpt lat="45.86775" lon="4.66012">
        <ele>230</ele>
        <time>2018-09-07T09:07:03Z</time>
      </trkpt>
      <trkpt lat="45.86777" lon="4.66009">
        <ele>231</ele>
        <time>2018-09-07T09:07:04Z</time>
      </trkpt>
      <trkpt lat="45.86784" lon="4.66002">
        <ele>232</ele>
        <time>2018-09-07T09:07:06Z</time>
      </trkpt>
      <trkpt lat="45.86788" lon="4.65996">
        <ele>222</ele>
        <time>2018-09-07T09:07:07Z</time>
      </trkpt>
      <trkpt lat="45.86791" lon="4.6599">
        <ele>223</ele>
        <time>2018-09-07T09:07:08Z</time>
      </trkpt>
      <trkpt lat="45.86794" lon="4.65985">
        <ele>223</ele>
        <time>2018-09-07T09:07:09Z</time>
      </trkpt>
      <trkpt lat="45.868" lon="4.65976">
        <ele>223</ele>
        <time>2018-09-07T09:07:11Z</time>
      </trkpt>
      <trkpt lat="45.86802" lon="4.65973">
        <ele>223</ele>
        <time>2018-09-07T09:07:12Z</time>
      </trkpt>
      <trkpt lat="45.86805" lon="4.65967">
        <ele>223</ele>
        <time>2018-09-07T09:07:13Z</time>
      </trkpt>
      <trkpt lat="45.86808" lon="4.65963">
        <ele>223</ele>
        <time>2018-09-07T09:07:14Z</time>
      </trkpt>
      <trkpt lat="45.86813" lon="4.65953">
        <ele>222</ele>
        <time>2018-09-07T09:07:16Z</time>
      </trkpt>
      <trkpt lat="45.86816" lon="4.65947">
        <ele>222</ele>
        <time>2018-09-07T09:07:17Z</time>
      </trkpt>
      <trkpt lat="45.8682" lon="4.65942">
        <ele>222</ele>
        <time>2018-09-07T09:07:18Z</time>
      </trkpt>
      <trkpt lat="45.86824" lon="4.65934">
        <ele>222</ele>
        <time>2018-09-07T09:07:19Z</time>
      </trkpt>
      <trkpt lat="45.86827" lon="4.65928">
        <ele>221</ele>
        <time>2018-09-07T09:07:20Z</time>
      </trkpt>
      <trkpt lat="45.8683" lon="4.65921">
        <ele>221</ele>
        <time>2018-09-07T09:07:21Z</time>
      </trkpt>
      <trkpt lat="45.86833" lon="4.65916">
        <ele>221</ele>
        <time>2018-09-07T09:07:22Z</time>
      </trkpt>
      <trkpt lat="45.86837" lon="4.6591">
        <ele>223</ele>
        <time>2018-09-07T09:07:23Z</time>
      </trkpt>
      <trkpt lat="45.86839" lon="4.65904">
        <ele>224</ele>
        <time>2018-09-07T09:07:24Z</time>
      </trkpt>
      <trkpt lat="45.86843" lon="4.65899">
        <ele>225</ele>
        <time>2018-09-07T09:07:25Z</time>
      </trkpt>
      <trkpt lat="45.86847" lon="4.65892">
        <ele>226</ele>
        <time>2018-09-07T09:07:26Z</time>
      </trkpt>
      <trkpt lat="45.8685" lon="4.65884">
        <ele>226</ele>
        <time>2018-09-07T09:07:27Z</time>
      </trkpt>
      <trkpt lat="45.86853" lon="4.65876">
        <ele>226</ele>
        <time>2018-09-07T09:07:28Z</time>
      </trkpt>
      <trkpt lat="45.86857" lon="4.65869">
        <ele>226</ele>
        <time>2018-09-07T09:07:29Z</time>
      </trkpt>
      <trkpt lat="45.86859" lon="4.65863">
        <ele>226</ele>
        <time>2018-09-07T09:07:30Z</time>
      </trkpt>
      <trkpt lat="45.86862" lon="4.65857">
        <ele>226</ele>
        <time>2018-09-07T09:07:31Z</time>
      </trkpt>
      <trkpt lat="45.86864" lon="4.65851">
        <ele>226</ele>
        <time>2018-09-07T09:07:32Z</time>
      </trkpt>
      <trkpt lat="45.86866" lon="4.65844">
        <ele>226</ele>
        <time>2018-09-07T09:07:33Z</time>
      </trkpt>
      <trkpt lat="45.86868" lon="4.65839">
        <ele>226</ele>
        <time>2018-09-07T09:07:34Z</time>
      </trkpt>
      <trkpt lat="45.86869" lon="4.65832">
        <ele>221</ele>
        <time>2018-09-07T09:07:35Z</time>
      </trkpt>
      <trkpt lat="45.86871" lon="4.65826">
        <ele>222</ele>
        <time>2018-09-07T09:07:36Z</time>
      </trkpt>
      <trkpt lat="45.86873" lon="4.65818">
        <ele>222</ele>
        <time>2018-09-07T09:07:37Z</time>
      </trkpt>
      <trkpt lat="45.86875" lon="4.65813">
        <ele>222</ele>
        <time>2018-09-07T09:07:38Z</time>
      </trkpt>
      <trkpt lat="45.86876" lon="4.65803">
        <ele>222</ele>
        <time>2018-09-07T09:07:39Z</time>
      </trkpt>
      <trkpt lat="45.86878" lon="4.65796">
        <ele>222</ele>
        <time>2018-09-07T09:07:40Z</time>
      </trkpt>
      <trkpt lat="45.8688" lon="4.65789">
        <ele>223</ele>
        <time>2018-09-07T09:07:41Z</time>
      </trkpt>
      <trkpt lat="45.86881" lon="4.65782">
        <ele>223</ele>
        <time>2018-09-07T09:07:42Z</time>
      </trkpt>
      <trkpt lat="45.86882" lon="4.65773">
        <ele>223</ele>
        <time>2018-09-07T09:07:43Z</time>
      </trkpt>
      <trkpt lat="45.86883" lon="4.65767">
        <ele>223</ele>
        <time>2018-09-07T09:07:44Z</time>
      </trkpt>
      <trkpt lat="45.86885" lon="4.6576">
        <ele>223</ele>
        <time>2018-09-07T09:07:45Z</time>
      </trkpt>
      <trkpt lat="45.86888" lon="4.65749">
        <ele>223</ele>
        <time>2018-09-07T09:07:47Z</time>
      </trkpt>
      <trkpt lat="45.86889" lon="4.65739">
        <ele>223</ele>
        <time>2018-09-07T09:07:48Z</time>
      </trkpt>
      <trkpt lat="45.86891" lon="4.65732">
        <ele>223</ele>
        <time>2018-09-07T09:07:49Z</time>
      </trkpt>
      <trkpt lat="45.86892" lon="4.65724">
        <ele>223</ele>
        <time>2018-09-07T09:07:50Z</time>
      </trkpt>
      <trkpt lat="45.86893" lon="4.65716">
        <ele>223</ele>
        <time>2018-09-07T09:07:51Z</time>
      </trkpt>
      <trkpt lat="45.86894" lon="4.65708">
        <ele>223</ele>
        <time>2018-09-07T09:07:52Z</time>
      </trkpt>
      <trkpt lat="45.86895" lon="4.657">
        <ele>223</ele>
        <time>2018-09-07T09:07:53Z</time>
      </trkpt>
      <trkpt lat="45.86897" lon="4.65693">
        <ele>224</ele>
        <time>2018-09-07T09:07:54Z</time>
      </trkpt>
      <trkpt lat="45.86896" lon="4.65684">
        <ele>224</ele>
        <time>2018-09-07T09:07:55Z</time>
      </trkpt>
      <trkpt lat="45.86896" lon="4.65673">
        <ele>225</ele>
        <time>2018-09-07T09:07:56Z</time>
      </trkpt>
      <trkpt lat="45.86896" lon="4.65664">
        <ele>225</ele>
        <time>2018-09-07T09:07:57Z</time>
      </trkpt>
      <trkpt lat="45.86898" lon="4.65656">
        <ele>225</ele>
        <time>2018-09-07T09:07:58Z</time>
      </trkpt>
      <trkpt lat="45.86899" lon="4.65647">
        <ele>224</ele>
        <time>2018-09-07T09:07:59Z</time>
      </trkpt>
      <trkpt lat="45.869" lon="4.65639">
        <ele>224</ele>
        <time>2018-09-07T09:08:00Z</time>
      </trkpt>
      <trkpt lat="45.869" lon="4.6563">
        <ele>223</ele>
        <time>2018-09-07T09:08:01Z</time>
      </trkpt>
      <trkpt lat="45.869" lon="4.65622">
        <ele>223</ele>
        <time>2018-09-07T09:08:02Z</time>
      </trkpt>
      <trkpt lat="45.86901" lon="4.65614">
        <ele>223</ele>
        <time>2018-09-07T09:08:03Z</time>
      </trkpt>
      <trkpt lat="45.86903" lon="4.65606">
        <ele>223</ele>
        <time>2018-09-07T09:08:04Z</time>
      </trkpt>
      <trkpt lat="45.86907" lon="4.65597">
        <ele>224</ele>
        <time>2018-09-07T09:08:05Z</time>
      </trkpt>
      <trkpt lat="45.86908" lon="4.65588">
        <ele>224</ele>
        <time>2018-09-07T09:08:06Z</time>
      </trkpt>
      <trkpt lat="45.86909" lon="4.65578">
        <ele>223</ele>
        <time>2018-09-07T09:08:07Z</time>
      </trkpt>
      <trkpt lat="45.86912" lon="4.65569">
        <ele>222</ele>
        <time>2018-09-07T09:08:08Z</time>
      </trkpt>
      <trkpt lat="45.86914" lon="4.6556">
        <ele>221</ele>
        <time>2018-09-07T09:08:09Z</time>
      </trkpt>
      <trkpt lat="45.86916" lon="4.65551">
        <ele>220</ele>
        <time>2018-09-07T09:08:10Z</time>
      </trkpt>
      <trkpt lat="45.8692" lon="4.65544">
        <ele>230</ele>
        <time>2018-09-07T09:08:11Z</time>
      </trkpt>
      <trkpt lat="45.86923" lon="4.65535">
        <ele>229</ele>
        <time>2018-09-07T09:08:12Z</time>
      </trkpt>
      <trkpt lat="45.86925" lon="4.65526">
        <ele>228</ele>
        <time>2018-09-07T09:08:13Z</time>
      </trkpt>
      <trkpt lat="45.86929" lon="4.65517">
        <ele>227</ele>
        <time>2018-09-07T09:08:14Z</time>
      </trkpt>
      <trkpt lat="45.86932" lon="4.65509">
        <ele>226</ele>
        <time>2018-09-07T09:08:15Z</time>
      </trkpt>
      <trkpt lat="45.86936" lon="4.65503">
        <ele>226</ele>
        <time>2018-09-07T09:08:16Z</time>
      </trkpt>
      <trkpt lat="45.86939" lon="4.65494">
        <ele>221</ele>
        <time>2018-09-07T09:08:17Z</time>
      </trkpt>
      <trkpt lat="45.86942" lon="4.65486">
        <ele>222</ele>
        <time>2018-09-07T09:08:18Z</time>
      </trkpt>
      <trkpt lat="45.86945" lon="4.65477">
        <ele>222</ele>
        <time>2018-09-07T09:08:19Z</time>
      </trkpt>
      <trkpt lat="45.86949" lon="4.65473">
        <ele>222</ele>
        <time>2018-09-07T09:08:20Z</time>
      </trkpt>
      <trkpt lat="45.86953" lon="4.65467">
        <ele>222</ele>
        <time>2018-09-07T09:08:21Z</time>
      </trkpt>
      <trkpt lat="45.86958" lon="4.65458">
        <ele>222</ele>
        <time>2018-09-07T09:08:22Z</time>
      </trkpt>
      <trkpt lat="45.86962" lon="4.65452">
        <ele>222</ele>
        <time>2018-09-07T09:08:23Z</time>
      </trkpt>
      <trkpt lat="45.86965" lon="4.65445">
        <ele>222</ele>
        <time>2018-09-07T09:08:24Z</time>
      </trkpt>
      <trkpt lat="45.8697" lon="4.65442">
        <ele>222</ele>
        <time>2018-09-07T09:08:25Z</time>
      </trkpt>
      <trkpt lat="45.86974" lon="4.65438">
        <ele>222</ele>
        <time>2018-09-07T09:08:26Z</time>
      </trkpt>
      <trkpt lat="45.86978" lon="4.65434">
        <ele>222</ele>
        <time>2018-09-07T09:08:27Z</time>
      </trkpt>
      <trkpt lat="45.86983" lon="4.65429">
        <ele>222</ele>
        <time>2018-09-07T09:08:28Z</time>
      </trkpt>
      <trkpt lat="45.86988" lon="4.65424">
        <ele>222</ele>
        <time>2018-09-07T09:08:29Z</time>
      </trkpt>
      <trkpt lat="45.86993" lon="4.65419">
        <ele>221</ele>
        <time>2018-09-07T09:08:30Z</time>
      </trkpt>
      <trkpt lat="45.86997" lon="4.65415">
        <ele>220</ele>
        <time>2018-09-07T09:08:31Z</time>
      </trkpt>
      <trkpt lat="45.87001" lon="4.6541">
        <ele>222</ele>
        <time>2018-09-07T09:08:32Z</time>
      </trkpt>
      <trkpt lat="45.87005" lon="4.65405">
        <ele>222</ele>
        <time>2018-09-07T09:08:33Z</time>
      </trkpt>
      <trkpt lat="45.87009" lon="4.654">
        <ele>223</ele>
        <time>2018-09-07T09:08:34Z</time>
      </trkpt>
      <trkpt lat="45.87013" lon="4.65396">
        <ele>223</ele>
        <time>2018-09-07T09:08:35Z</time>
      </trkpt>
      <trkpt lat="45.87017" lon="4.65393">
        <ele>223</ele>
        <time>2018-09-07T09:08:36Z</time>
      </trkpt>
      <trkpt lat="45.87021" lon="4.65387">
        <ele>223</ele>
        <time>2018-09-07T09:08:37Z</time>
      </trkpt>
      <trkpt lat="45.87025" lon="4.65383">
        <ele>224</ele>
        <time>2018-09-07T09:08:38Z</time>
      </trkpt>
      <trkpt lat="45.8703" lon="4.65374">
        <ele>223</ele>
        <time>2018-09-07T09:08:40Z</time>
      </trkpt>
      <trkpt lat="45.87034" lon="4.65371">
        <ele>224</ele>
        <time>2018-09-07T09:08:41Z</time>
      </trkpt>
      <trkpt lat="45.87038" lon="4.65367">
        <ele>224</ele>
        <time>2018-09-07T09:08:42Z</time>
      </trkpt>
      <trkpt lat="45.87041" lon="4.65361">
        <ele>223</ele>
        <time>2018-09-07T09:08:43Z</time>
      </trkpt>
      <trkpt lat="45.87046" lon="4.65354">
        <ele>223</ele>
        <time>2018-09-07T09:08:44Z</time>
      </trkpt>
      <trkpt lat="45.87049" lon="4.65347">
        <ele>223</ele>
        <time>2018-09-07T09:08:45Z</time>
      </trkpt>
      <trkpt lat="45.87053" lon="4.6534">
        <ele>223</ele>
        <time>2018-09-07T09:08:46Z</time>
      </trkpt>
      <trkpt lat="45.87057" lon="4.65333">
        <ele>218</ele>
        <time>2018-09-07T09:08:47Z</time>
      </trkpt>
      <trkpt lat="45.87061" lon="4.65325">
        <ele>218</ele>
        <time>2018-09-07T09:08:48Z</time>
      </trkpt>
      <trkpt lat="45.87065" lon="4.65317">
        <ele>218</ele>
        <time>2018-09-07T09:08:49Z</time>
      </trkpt>
      <trkpt lat="45.87068" lon="4.6531">
        <ele>218</ele>
        <time>2018-09-07T09:08:50Z</time>
      </trkpt>
      <trkpt lat="45.87071" lon="4.65302">
        <ele>217</ele>
        <time>2018-09-07T09:08:51Z</time>
      </trkpt>
      <trkpt lat="45.87074" lon="4.65293">
        <ele>216</ele>
        <time>2018-09-07T09:08:52Z</time>
      </trkpt>
      <trkpt lat="45.87078" lon="4.65286">
        <ele>216</ele>
        <time>2018-09-07T09:08:53Z</time>
      </trkpt>
      <trkpt lat="45.87082" lon="4.65281">
        <ele>216</ele>
        <time>2018-09-07T09:08:54Z</time>
      </trkpt>
      <trkpt lat="45.87085" lon="4.65274">
        <ele>224</ele>
        <time>2018-09-07T09:08:55Z</time>
      </trkpt>
      <trkpt lat="45.87089" lon="4.65267">
        <ele>223</ele>
        <time>2018-09-07T09:08:56Z</time>
      </trkpt>
      <trkpt lat="45.87093" lon="4.65261">
        <ele>221</ele>
        <time>2018-09-07T09:08:57Z</time>
      </trkpt>
      <trkpt lat="45.87096" lon="4.65253">
        <ele>221</ele>
        <time>2018-09-07T09:08:58Z</time>
      </trkpt>
      <trkpt lat="45.871" lon="4.65246">
        <ele>217</ele>
        <time>2018-09-07T09:08:59Z</time>
      </trkpt>
      <trkpt lat="45.87103" lon="4.65239">
        <ele>218</ele>
        <time>2018-09-07T09:09:00Z</time>
      </trkpt>
      <trkpt lat="45.87107" lon="4.65232">
        <ele>219</ele>
        <time>2018-09-07T09:09:01Z</time>
      </trkpt>
      <trkpt lat="45.87112" lon="4.65225">
        <ele>219</ele>
        <time>2018-09-07T09:09:02Z</time>
      </trkpt>
      <trkpt lat="45.87116" lon="4.65219">
        <ele>220</ele>
        <time>2018-09-07T09:09:03Z</time>
      </trkpt>
      <trkpt lat="45.8712" lon="4.65214">
        <ele>220</ele>
        <time>2018-09-07T09:09:04Z</time>
      </trkpt>
      <trkpt lat="45.87123" lon="4.65209">
        <ele>220</ele>
        <time>2018-09-07T09:09:05Z</time>
      </trkpt>
      <trkpt lat="45.87127" lon="4.65204">
        <ele>220</ele>
        <time>2018-09-07T09:09:06Z</time>
      </trkpt>
      <trkpt lat="45.87131" lon="4.652">
        <ele>220</ele>
        <time>2018-09-07T09:09:07Z</time>
      </trkpt>
      <trkpt lat="45.87134" lon="4.65196">
        <ele>220</ele>
        <time>2018-09-07T09:09:08Z</time>
      </trkpt>
      <trkpt lat="45.87138" lon="4.65192">
        <ele>220</ele>
        <time>2018-09-07T09:09:09Z</time>
      </trkpt>
      <trkpt lat="45.87142" lon="4.65189">
        <ele>220</ele>
        <time>2018-09-07T09:09:10Z</time>
      </trkpt>
      <trkpt lat="45.87147" lon="4.65183">
        <ele>220</ele>
        <time>2018-09-07T09:09:11Z</time>
      </trkpt>
      <trkpt lat="45.87151" lon="4.65179">
        <ele>220</ele>
        <time>2018-09-07T09:09:12Z</time>
      </trkpt>
      <trkpt lat="45.87157" lon="4.65174">
        <ele>220</ele>
        <time>2018-09-07T09:09:13Z</time>
      </trkpt>
      <trkpt lat="45.87161" lon="4.65169">
        <ele>220</ele>
        <time>2018-09-07T09:09:14Z</time>
      </trkpt>
      <trkpt lat="45.87165" lon="4.65164">
        <ele>219</ele>
        <time>2018-09-07T09:09:15Z</time>
      </trkpt>
      <trkpt lat="45.87169" lon="4.65159">
        <ele>221</ele>
        <time>2018-09-07T09:09:16Z</time>
      </trkpt>
      <trkpt lat="45.87174" lon="4.65155">
        <ele>221</ele>
        <time>2018-09-07T09:09:17Z</time>
      </trkpt>
      <trkpt lat="45.87181" lon="4.65151">
        <ele>221</ele>
        <time>2018-09-07T09:09:19Z</time>
      </trkpt>
      <trkpt lat="45.87184" lon="4.65136">
        <ele>221</ele>
        <time>2018-09-07T09:09:20Z</time>
      </trkpt>
      <trkpt lat="45.87192" lon="4.6514">
        <ele>222</ele>
        <time>2018-09-07T09:09:22Z</time>
      </trkpt>
      <trkpt lat="45.87198" lon="4.65135">
        <ele>222</ele>
        <time>2018-09-07T09:09:23Z</time>
      </trkpt>
      <trkpt lat="45.87201" lon="4.6513">
        <ele>222</ele>
        <time>2018-09-07T09:09:24Z</time>
      </trkpt>
      <trkpt lat="45.87204" lon="4.65125">
        <ele>222</ele>
        <time>2018-09-07T09:09:25Z</time>
      </trkpt>
      <trkpt lat="45.8721" lon="4.65121">
        <ele>222</ele>
        <time>2018-09-07T09:09:26Z</time>
      </trkpt>
      <trkpt lat="45.87214" lon="4.65119">
        <ele>222</ele>
        <time>2018-09-07T09:09:27Z</time>
      </trkpt>
      <trkpt lat="45.87221" lon="4.65116">
        <ele>222</ele>
        <time>2018-09-07T09:09:28Z</time>
      </trkpt>
      <trkpt lat="45.87226" lon="4.65113">
        <ele>222</ele>
        <time>2018-09-07T09:09:29Z</time>
      </trkpt>
      <trkpt lat="45.87232" lon="4.65111">
        <ele>222</ele>
        <time>2018-09-07T09:09:30Z</time>
      </trkpt>
      <trkpt lat="45.87235" lon="4.65109">
        <ele>222</ele>
        <time>2018-09-07T09:09:31Z</time>
      </trkpt>
      <trkpt lat="45.87239" lon="4.65103">
        <ele>221</ele>
        <time>2018-09-07T09:09:32Z</time>
      </trkpt>
      <trkpt lat="45.87242" lon="4.651">
        <ele>221</ele>
        <time>2018-09-07T09:09:33Z</time>
      </trkpt>
      <trkpt lat="45.87246" lon="4.65095">
        <ele>220</ele>
        <time>2018-09-07T09:09:34Z</time>
      </trkpt>
      <trkpt lat="45.87248" lon="4.65089">
        <ele>219</ele>
        <time>2018-09-07T09:09:35Z</time>
      </trkpt>
      <trkpt lat="45.87256" lon="4.65083">
        <ele>218</ele>
        <time>2018-09-07T09:09:37Z</time>
      </trkpt>
      <trkpt lat="45.87259" lon="4.6508">
        <ele>219</ele>
        <time>2018-09-07T09:09:38Z</time>
      </trkpt>
      <trkpt lat="45.87264" lon="4.65075">
        <ele>219</ele>
        <time>2018-09-07T09:09:44Z</time>
      </trkpt>
      <trkpt lat="45.87264" lon="4.65074">
        <ele>219</ele>
        <time>2018-09-07T09:09:45Z</time>
      </trkpt>
      <trkpt lat="45.87264" lon="4.65075">
        <ele>219</ele>
        <time>2018-09-07T09:09:46Z</time>
      </trkpt>
      <trkpt lat="45.87265" lon="4.65075">
        <ele>219</ele>
        <time>2018-09-07T09:09:47Z</time>
      </trkpt>
      <trkpt lat="45.87258" lon="4.65082">
        <ele>219</ele>
        <time>2018-09-07T09:10:02Z</time>
      </trkpt>
      <trkpt lat="45.87257" lon="4.65083">
        <ele>219</ele>
        <time>2018-09-07T09:10:03Z</time>
      </trkpt>
      <trkpt lat="45.8726" lon="4.65071">
        <ele>219</ele>
        <time>2018-09-07T09:12:53Z</time>
      </trkpt>
      <trkpt lat="45.87261" lon="4.65069">
        <ele>219</ele>
        <time>2018-09-07T09:12:54Z</time>
      </trkpt>
      <trkpt lat="45.87267" lon="4.65065">
        <ele>219</ele>
        <time>2018-09-07T09:12:57Z</time>
      </trkpt>
      <trkpt lat="45.87269" lon="4.65062">
        <ele>219</ele>
        <time>2018-09-07T09:12:58Z</time>
      </trkpt>
      <trkpt lat="45.87272" lon="4.6506">
        <ele>219</ele>
        <time>2018-09-07T09:12:59Z</time>
      </trkpt>
      <trkpt lat="45.87278" lon="4.65052">
        <ele>219</ele>
        <time>2018-09-07T09:13:00Z</time>
      </trkpt>
      <trkpt lat="45.87285" lon="4.65044">
        <ele>219</ele>
        <time>2018-09-07T09:13:02Z</time>
      </trkpt>
      <trkpt lat="45.87289" lon="4.65041">
        <ele>220</ele>
        <time>2018-09-07T09:13:03Z</time>
      </trkpt>
      <trkpt lat="45.87292" lon="4.65037">
        <ele>220</ele>
        <time>2018-09-07T09:13:04Z</time>
      </trkpt>
      <trkpt lat="45.87296" lon="4.65033">
        <ele>219</ele>
        <time>2018-09-07T09:13:05Z</time>
      </trkpt>
      <trkpt lat="45.873" lon="4.65029">
        <ele>219</ele>
        <time>2018-09-07T09:13:06Z</time>
      </trkpt>
      <trkpt lat="45.87304" lon="4.65024">
        <ele>219</ele>
        <time>2018-09-07T09:13:07Z</time>
      </trkpt>
      <trkpt lat="45.87306" lon="4.65017">
        <ele>219</ele>
        <time>2018-09-07T09:13:08Z</time>
      </trkpt>
      <trkpt lat="45.8731" lon="4.65011">
        <ele>219</ele>
        <time>2018-09-07T09:13:09Z</time>
      </trkpt>
      <trkpt lat="45.87314" lon="4.65">
        <ele>219</ele>
        <time>2018-09-07T09:13:11Z</time>
      </trkpt>
      <trkpt lat="45.87317" lon="4.64995">
        <ele>215</ele>
        <time>2018-09-07T09:13:12Z</time>
      </trkpt>
      <trkpt lat="45.87323" lon="4.64986">
        <ele>215</ele>
        <time>2018-09-07T09:13:14Z</time>
      </trkpt>
      <trkpt lat="45.87326" lon="4.64981">
        <ele>215</ele>
        <time>2018-09-07T09:13:15Z</time>
      </trkpt>
      <trkpt lat="45.87328" lon="4.64975">
        <ele>215</ele>
        <time>2018-09-07T09:13:16Z</time>
      </trkpt>
      <trkpt lat="45.87331" lon="4.6497">
        <ele>214</ele>
        <time>2018-09-07T09:13:17Z</time>
      </trkpt>
      <trkpt lat="45.87334" lon="4.64964">
        <ele>219</ele>
        <time>2018-09-07T09:13:18Z</time>
      </trkpt>
      <trkpt lat="45.87338" lon="4.64959">
        <ele>218</ele>
        <time>2018-09-07T09:13:19Z</time>
      </trkpt>
      <trkpt lat="45.87341" lon="4.64953">
        <ele>218</ele>
        <time>2018-09-07T09:13:20Z</time>
      </trkpt>
      <trkpt lat="45.87345" lon="4.64946">
        <ele>218</ele>
        <time>2018-09-07T09:13:21Z</time>
      </trkpt>
      <trkpt lat="45.87346" lon="4.6494">
        <ele>217</ele>
        <time>2018-09-07T09:13:22Z</time>
      </trkpt>
      <trkpt lat="45.87349" lon="4.64935">
        <ele>217</ele>
        <time>2018-09-07T09:13:23Z</time>
      </trkpt>
      <trkpt lat="45.87354" lon="4.64925">
        <ele>217</ele>
        <time>2018-09-07T09:13:25Z</time>
      </trkpt>
      <trkpt lat="45.87357" lon="4.64921">
        <ele>217</ele>
        <time>2018-09-07T09:13:26Z</time>
      </trkpt>
      <trkpt lat="45.87361" lon="4.64917">
        <ele>217</ele>
        <time>2018-09-07T09:13:27Z</time>
      </trkpt>
      <trkpt lat="45.87365" lon="4.64914">
        <ele>214</ele>
        <time>2018-09-07T09:13:28Z</time>
      </trkpt>
      <trkpt lat="45.87368" lon="4.64908">
        <ele>214</ele>
        <time>2018-09-07T09:13:29Z</time>
      </trkpt>
      <trkpt lat="45.87373" lon="4.64904">
        <ele>215</ele>
        <time>2018-09-07T09:13:30Z</time>
      </trkpt>
      <trkpt lat="45.87377" lon="4.64897">
        <ele>215</ele>
        <time>2018-09-07T09:13:31Z</time>
      </trkpt>
      <trkpt lat="45.87381" lon="4.64892">
        <ele>215</ele>
        <time>2018-09-07T09:13:32Z</time>
      </trkpt>
      <trkpt lat="45.87385" lon="4.64889">
        <ele>215</ele>
        <time>2018-09-07T09:13:33Z</time>
      </trkpt>
      <trkpt lat="45.8739" lon="4.64884">
        <ele>215</ele>
        <time>2018-09-07T09:13:34Z</time>
      </trkpt>
      <trkpt lat="45.87393" lon="4.64878">
        <ele>215</ele>
        <time>2018-09-07T09:13:35Z</time>
      </trkpt>
      <trkpt lat="45.87397" lon="4.64874">
        <ele>215</ele>
        <time>2018-09-07T09:13:36Z</time>
      </trkpt>
      <trkpt lat="45.87402" lon="4.6487">
        <ele>215</ele>
        <time>2018-09-07T09:13:37Z</time>
      </trkpt>
      <trkpt lat="45.87405" lon="4.64864">
        <ele>215</ele>
        <time>2018-09-07T09:13:38Z</time>
      </trkpt>
      <trkpt lat="45.87409" lon="4.64858">
        <ele>215</ele>
        <time>2018-09-07T09:13:39Z</time>
      </trkpt>
      <trkpt lat="45.87413" lon="4.64853">
        <ele>215</ele>
        <time>2018-09-07T09:13:40Z</time>
      </trkpt>
      <trkpt lat="45.87417" lon="4.64847">
        <ele>215</ele>
        <time>2018-09-07T09:13:41Z</time>
      </trkpt>
      <trkpt lat="45.8742" lon="4.64842">
        <ele>217</ele>
        <time>2018-09-07T09:13:42Z</time>
      </trkpt>
      <trkpt lat="45.87424" lon="4.64837">
        <ele>217</ele>
        <time>2018-09-07T09:13:43Z</time>
      </trkpt>
      <trkpt lat="45.87428" lon="4.64831">
        <ele>215</ele>
        <time>2018-09-07T09:13:44Z</time>
      </trkpt>
      <trkpt lat="45.87432" lon="4.64827">
        <ele>215</ele>
        <time>2018-09-07T09:13:45Z</time>
      </trkpt>
      <trkpt lat="45.87435" lon="4.6482">
        <ele>215</ele>
        <time>2018-09-07T09:13:46Z</time>
      </trkpt>
      <trkpt lat="45.87439" lon="4.64815">
        <ele>215</ele>
        <time>2018-09-07T09:13:47Z</time>
      </trkpt>
      <trkpt lat="45.87441" lon="4.6481">
        <ele>214</ele>
        <time>2018-09-07T09:13:48Z</time>
      </trkpt>
      <trkpt lat="45.87447" lon="4.64803">
        <ele>214</ele>
        <time>2018-09-07T09:13:50Z</time>
      </trkpt>
      <trkpt lat="45.87451" lon="4.64801">
        <ele>214</ele>
        <time>2018-09-07T09:13:51Z</time>
      </trkpt>
      <trkpt lat="45.87456" lon="4.64794">
        <ele>214</ele>
        <time>2018-09-07T09:13:52Z</time>
      </trkpt>
      <trkpt lat="45.8746" lon="4.6479">
        <ele>214</ele>
        <time>2018-09-07T09:13:53Z</time>
      </trkpt>
      <trkpt lat="45.87466" lon="4.64782">
        <ele>214</ele>
        <time>2018-09-07T09:13:55Z</time>
      </trkpt>
      <trkpt lat="45.8747" lon="4.64778">
        <ele>214</ele>
        <time>2018-09-07T09:13:56Z</time>
      </trkpt>
      <trkpt lat="45.87474" lon="4.64769">
        <ele>214</ele>
        <time>2018-09-07T09:13:58Z</time>
      </trkpt>
      <trkpt lat="45.87476" lon="4.64765">
        <ele>214</ele>
        <time>2018-09-07T09:13:59Z</time>
      </trkpt>
      <trkpt lat="45.87482" lon="4.64758">
        <ele>214</ele>
        <time>2018-09-07T09:14:01Z</time>
      </trkpt>
      <trkpt lat="45.87486" lon="4.64753">
        <ele>213</ele>
        <time>2018-09-07T09:14:02Z</time>
      </trkpt>
      <trkpt lat="45.87489" lon="4.64749">
        <ele>213</ele>
        <time>2018-09-07T09:14:03Z</time>
      </trkpt>
      <trkpt lat="45.87493" lon="4.64744">
        <ele>213</ele>
        <time>2018-09-07T09:14:04Z</time>
      </trkpt>
      <trkpt lat="45.87497" lon="4.64739">
        <ele>213</ele>
        <time>2018-09-07T09:14:05Z</time>
      </trkpt>
      <trkpt lat="45.87501" lon="4.64733">
        <ele>213</ele>
        <time>2018-09-07T09:14:06Z</time>
      </trkpt>
      <trkpt lat="45.87505" lon="4.6473">
        <ele>213</ele>
        <time>2018-09-07T09:14:07Z</time>
      </trkpt>
      <trkpt lat="45.87508" lon="4.64724">
        <ele>213</ele>
        <time>2018-09-07T09:14:08Z</time>
      </trkpt>
      <trkpt lat="45.87512" lon="4.64718">
        <ele>213</ele>
        <time>2018-09-07T09:14:09Z</time>
      </trkpt>
      <trkpt lat="45.87515" lon="4.64714">
        <ele>212</ele>
        <time>2018-09-07T09:14:10Z</time>
      </trkpt>
      <trkpt lat="45.87518" lon="4.64709">
        <ele>212</ele>
        <time>2018-09-07T09:14:11Z</time>
      </trkpt>
      <trkpt lat="45.87521" lon="4.64704">
        <ele>212</ele>
        <time>2018-09-07T09:14:12Z</time>
      </trkpt>
      <trkpt lat="45.87528" lon="4.64696">
        <ele>212</ele>
        <time>2018-09-07T09:14:14Z</time>
      </trkpt>
      <trkpt lat="45.87531" lon="4.64693">
        <ele>212</ele>
        <time>2018-09-07T09:14:15Z</time>
      </trkpt>
      <trkpt lat="45.87535" lon="4.6469">
        <ele>212</ele>
        <time>2018-09-07T09:14:16Z</time>
      </trkpt>
      <trkpt lat="45.87539" lon="4.64685">
        <ele>212</ele>
        <time>2018-09-07T09:14:17Z</time>
      </trkpt>
      <trkpt lat="45.87543" lon="4.6468">
        <ele>212</ele>
        <time>2018-09-07T09:14:18Z</time>
      </trkpt>
      <trkpt lat="45.87547" lon="4.64676">
        <ele>212</ele>
        <time>2018-09-07T09:14:19Z</time>
      </trkpt>
      <trkpt lat="45.87553" lon="4.64667">
        <ele>212</ele>
        <time>2018-09-07T09:14:21Z</time>
      </trkpt>
      <trkpt lat="45.87556" lon="4.64663">
        <ele>212</ele>
        <time>2018-09-07T09:14:22Z</time>
      </trkpt>
      <trkpt lat="45.87562" lon="4.64654">
        <ele>212</ele>
        <time>2018-09-07T09:14:24Z</time>
      </trkpt>
      <trkpt lat="45.87565" lon="4.6465">
        <ele>212</ele>
        <time>2018-09-07T09:14:25Z</time>
      </trkpt>
      <trkpt lat="45.87569" lon="4.64645">
        <ele>212</ele>
        <time>2018-09-07T09:14:26Z</time>
      </trkpt>
      <trkpt lat="45.87573" lon="4.64641">
        <ele>212</ele>
        <time>2018-09-07T09:14:27Z</time>
      </trkpt>
      <trkpt lat="45.87575" lon="4.64636">
        <ele>212</ele>
        <time>2018-09-07T09:14:28Z</time>
      </trkpt>
      <trkpt lat="45.87579" lon="4.64631">
        <ele>212</ele>
        <time>2018-09-07T09:14:29Z</time>
      </trkpt>
      <trkpt lat="45.87583" lon="4.64627">
        <ele>212</ele>
        <time>2018-09-07T09:14:30Z</time>
      </trkpt>
      <trkpt lat="45.87586" lon="4.64623">
        <ele>212</ele>
        <time>2018-09-07T09:14:31Z</time>
      </trkpt>
      <trkpt lat="45.8759" lon="4.64618">
        <ele>212</ele>
        <time>2018-09-07T09:14:32Z</time>
      </trkpt>
      <trkpt lat="45.87592" lon="4.64613">
        <ele>212</ele>
        <time>2018-09-07T09:14:33Z</time>
      </trkpt>
      <trkpt lat="45.87599" lon="4.64605">
        <ele>212</ele>
        <time>2018-09-07T09:14:35Z</time>
      </trkpt>
      <trkpt lat="45.87602" lon="4.64601">
        <ele>212</ele>
        <time>2018-09-07T09:14:36Z</time>
      </trkpt>
      <trkpt lat="45.87606" lon="4.64597">
        <ele>212</ele>
        <time>2018-09-07T09:14:37Z</time>
      </trkpt>
      <trkpt lat="45.8761" lon="4.64593">
        <ele>212</ele>
        <time>2018-09-07T09:14:38Z</time>
      </trkpt>
      <trkpt lat="45.87613" lon="4.64589">
        <ele>212</ele>
        <time>2018-09-07T09:14:39Z</time>
      </trkpt>
      <trkpt lat="45.87617" lon="4.64585">
        <ele>212</ele>
        <time>2018-09-07T09:14:40Z</time>
      </trkpt>
      <trkpt lat="45.87619" lon="4.64577">
        <ele>212</ele>
        <time>2018-09-07T09:14:41Z</time>
      </trkpt>
      <trkpt lat="45.87623" lon="4.64575">
        <ele>212</ele>
        <time>2018-09-07T09:14:42Z</time>
      </trkpt>
      <trkpt lat="45.87628" lon="4.64566">
        <ele>212</ele>
        <time>2018-09-07T09:14:44Z</time>
      </trkpt>
      <trkpt lat="45.87632" lon="4.64558">
        <ele>212</ele>
        <time>2018-09-07T09:14:45Z</time>
      </trkpt>
      <trkpt lat="45.87636" lon="4.64556">
        <ele>212</ele>
        <time>2018-09-07T09:14:46Z</time>
      </trkpt>
      <trkpt lat="45.8764" lon="4.6455">
        <ele>212</ele>
        <time>2018-09-07T09:14:47Z</time>
      </trkpt>
      <trkpt lat="45.87643" lon="4.64546">
        <ele>212</ele>
        <time>2018-09-07T09:14:48Z</time>
      </trkpt>
      <trkpt lat="45.87646" lon="4.6454">
        <ele>213</ele>
        <time>2018-09-07T09:14:49Z</time>
      </trkpt>
      <trkpt lat="45.8765" lon="4.64535">
        <ele>213</ele>
        <time>2018-09-07T09:14:50Z</time>
      </trkpt>
      <trkpt lat="45.87654" lon="4.64534">
        <ele>213</ele>
        <time>2018-09-07T09:14:51Z</time>
      </trkpt>
      <trkpt lat="45.87656" lon="4.64522">
        <ele>213</ele>
        <time>2018-09-07T09:14:52Z</time>
      </trkpt>
      <trkpt lat="45.87659" lon="4.64519">
        <ele>213</ele>
        <time>2018-09-07T09:14:53Z</time>
      </trkpt>
      <trkpt lat="45.87665" lon="4.64514">
        <ele>213</ele>
        <time>2018-09-07T09:14:55Z</time>
      </trkpt>
      <trkpt lat="45.87669" lon="4.64509">
        <ele>214</ele>
        <time>2018-09-07T09:14:56Z</time>
      </trkpt>
      <trkpt lat="45.87674" lon="4.64504">
        <ele>214</ele>
        <time>2018-09-07T09:14:58Z</time>
      </trkpt>
      <trkpt lat="45.87678" lon="4.645">
        <ele>214</ele>
        <time>2018-09-07T09:14:59Z</time>
      </trkpt>
      <trkpt lat="45.87684" lon="4.64499">
        <ele>214</ele>
        <time>2018-09-07T09:15:02Z</time>
      </trkpt>
      <trkpt lat="45.87691" lon="4.64505">
        <ele>215</ele>
        <time>2018-09-07T09:15:03Z</time>
      </trkpt>
      <trkpt lat="45.87694" lon="4.64516">
        <ele>215</ele>
        <time>2018-09-07T09:15:05Z</time>
      </trkpt>
      <trkpt lat="45.87695" lon="4.6452">
        <ele>215</ele>
        <time>2018-09-07T09:15:06Z</time>
      </trkpt>
      <trkpt lat="45.87699" lon="4.64526">
        <ele>215</ele>
        <time>2018-09-07T09:15:07Z</time>
      </trkpt>
      <trkpt lat="45.87702" lon="4.64531">
        <ele>216</ele>
        <time>2018-09-07T09:15:08Z</time>
      </trkpt>
      <trkpt lat="45.87708" lon="4.64541">
        <ele>216</ele>
        <time>2018-09-07T09:15:10Z</time>
      </trkpt>
      <trkpt lat="45.87712" lon="4.64544">
        <ele>216</ele>
        <time>2018-09-07T09:15:11Z</time>
      </trkpt>
      <trkpt lat="45.87718" lon="4.64553">
        <ele>216</ele>
        <time>2018-09-07T09:15:13Z</time>
      </trkpt>
      <trkpt lat="45.87721" lon="4.64558">
        <ele>216</ele>
        <time>2018-09-07T09:15:14Z</time>
      </trkpt>
      <trkpt lat="45.87723" lon="4.64564">
        <ele>217</ele>
        <time>2018-09-07T09:15:15Z</time>
      </trkpt>
      <trkpt lat="45.8772" lon="4.64571">
        <ele>217</ele>
        <time>2018-09-07T09:15:16Z</time>
      </trkpt>
      <trkpt lat="45.8772" lon="4.64577">
        <ele>217</ele>
        <time>2018-09-07T09:15:17Z</time>
      </trkpt>
      <trkpt lat="45.87719" lon="4.64584">
        <ele>217</ele>
        <time>2018-09-07T09:15:18Z</time>
      </trkpt>
      <trkpt lat="45.87718" lon="4.64595">
        <ele>217</ele>
        <time>2018-09-07T09:15:22Z</time>
      </trkpt>
      <trkpt lat="45.87719" lon="4.64608">
        <ele>217</ele>
        <time>2018-09-07T09:15:23Z</time>
      </trkpt>
      <trkpt lat="45.87718" lon="4.64613">
        <ele>217</ele>
        <time>2018-09-07T09:15:25Z</time>
      </trkpt>
      <trkpt lat="45.87723" lon="4.64625">
        <ele>217</ele>
        <time>2018-09-07T09:15:26Z</time>
      </trkpt>
      <trkpt lat="45.87728" lon="4.6463">
        <ele>217</ele>
        <time>2018-09-07T09:15:27Z</time>
      </trkpt>
      <trkpt lat="45.87729" lon="4.64639">
        <ele>217</ele>
        <time>2018-09-07T09:15:28Z</time>
      </trkpt>
      <trkpt lat="45.87728" lon="4.6465">
        <ele>217</ele>
        <time>2018-09-07T09:15:30Z</time>
      </trkpt>
      <trkpt lat="45.87728" lon="4.64658">
        <ele>217</ele>
        <time>2018-09-07T09:15:31Z</time>
      </trkpt>
      <trkpt lat="45.87728" lon="4.64671">
        <ele>216</ele>
        <time>2018-09-07T09:15:33Z</time>
      </trkpt>
      <trkpt lat="45.87727" lon="4.64677">
        <ele>216</ele>
        <time>2018-09-07T09:15:34Z</time>
      </trkpt>
      <trkpt lat="45.87727" lon="4.64685">
        <ele>216</ele>
        <time>2018-09-07T09:15:35Z</time>
      </trkpt>
      <trkpt lat="45.87727" lon="4.64693">
        <ele>216</ele>
        <time>2018-09-07T09:15:36Z</time>
      </trkpt>
      <trkpt lat="45.87727" lon="4.64705">
        <ele>215</ele>
        <time>2018-09-07T09:15:38Z</time>
      </trkpt>
      <trkpt lat="45.87727" lon="4.6471">
        <ele>215</ele>
        <time>2018-09-07T09:15:39Z</time>
      </trkpt>
      <trkpt lat="45.87726" lon="4.64716">
        <ele>215</ele>
        <time>2018-09-07T09:15:40Z</time>
      </trkpt>
      <trkpt lat="45.87727" lon="4.64723">
        <ele>215</ele>
        <time>2018-09-07T09:15:41Z</time>
      </trkpt>
      <trkpt lat="45.87729" lon="4.64731">
        <ele>214</ele>
        <time>2018-09-07T09:15:42Z</time>
      </trkpt>
      <trkpt lat="45.8773" lon="4.64737">
        <ele>214</ele>
        <time>2018-09-07T09:15:43Z</time>
      </trkpt>
      <trkpt lat="45.87731" lon="4.64744">
        <ele>214</ele>
        <time>2018-09-07T09:15:44Z</time>
      </trkpt>
      <trkpt lat="45.87733" lon="4.6475">
        <ele>214</ele>
        <time>2018-09-07T09:15:45Z</time>
      </trkpt>
      <trkpt lat="45.87735" lon="4.6476">
        <ele>213</ele>
        <time>2018-09-07T09:15:48Z</time>
      </trkpt>
      <trkpt lat="45.87736" lon="4.64764">
        <ele>213</ele>
        <time>2018-09-07T09:15:49Z</time>
      </trkpt>
      <trkpt lat="45.87739" lon="4.64775">
        <ele>213</ele>
        <time>2018-09-07T09:15:52Z</time>
      </trkpt>
      <trkpt lat="45.87741" lon="4.64779">
        <ele>213</ele>
        <time>2018-09-07T09:15:53Z</time>
      </trkpt>
      <trkpt lat="45.87744" lon="4.64787">
        <ele>213</ele>
        <time>2018-09-07T09:15:55Z</time>
      </trkpt>
      <trkpt lat="45.87748" lon="4.64798">
        <ele>214</ele>
        <time>2018-09-07T09:15:56Z</time>
      </trkpt>
      <trkpt lat="45.87752" lon="4.64805">
        <ele>214</ele>
        <time>2018-09-07T09:15:59Z</time>
      </trkpt>
      <trkpt lat="45.87756" lon="4.64812">
        <ele>214</ele>
        <time>2018-09-07T09:16:00Z</time>
      </trkpt>
      <trkpt lat="45.87761" lon="4.64821">
        <ele>214</ele>
        <time>2018-09-07T09:16:04Z</time>
      </trkpt>
      <trkpt lat="45.87763" lon="4.64824">
        <ele>214</ele>
        <time>2018-09-07T09:16:05Z</time>
      </trkpt>
      <trkpt lat="45.87769" lon="4.64831">
        <ele>214</ele>
        <time>2018-09-07T09:16:08Z</time>
      </trkpt>
      <trkpt lat="45.87772" lon="4.64833">
        <ele>214</ele>
        <time>2018-09-07T09:16:09Z</time>
      </trkpt>
      <trkpt lat="45.87777" lon="4.64842">
        <ele>217</ele>
        <time>2018-09-07T09:16:12Z</time>
      </trkpt>
      <trkpt lat="45.87778" lon="4.64845">
        <ele>217</ele>
        <time>2018-09-07T09:16:13Z</time>
      </trkpt>
      <trkpt lat="45.87782" lon="4.64854">
        <ele>218</ele>
        <time>2018-09-07T09:16:16Z</time>
      </trkpt>
      <trkpt lat="45.87783" lon="4.64857">
        <ele>218</ele>
        <time>2018-09-07T09:16:17Z</time>
      </trkpt>
      <trkpt lat="45.87788" lon="4.64866">
        <ele>218</ele>
        <time>2018-09-07T09:16:20Z</time>
      </trkpt>
      <trkpt lat="45.8779" lon="4.64869">
        <ele>218</ele>
        <time>2018-09-07T09:16:21Z</time>
      </trkpt>
      <trkpt lat="45.87794" lon="4.64877">
        <ele>219</ele>
        <time>2018-09-07T09:16:24Z</time>
      </trkpt>
      <trkpt lat="45.87795" lon="4.6488">
        <ele>219</ele>
        <time>2018-09-07T09:16:25Z</time>
      </trkpt>
      <trkpt lat="45.87799" lon="4.64889">
        <ele>219</ele>
        <time>2018-09-07T09:16:28Z</time>
      </trkpt>
      <trkpt lat="45.878" lon="4.64892">
        <ele>219</ele>
        <time>2018-09-07T09:16:29Z</time>
      </trkpt>
      <trkpt lat="45.87804" lon="4.649">
        <ele>220</ele>
        <time>2018-09-07T09:16:32Z</time>
      </trkpt>
      <trkpt lat="45.87806" lon="4.64903">
        <ele>220</ele>
        <time>2018-09-07T09:16:33Z</time>
      </trkpt>
      <trkpt lat="45.87809" lon="4.64913">
        <ele>220</ele>
        <time>2018-09-07T09:16:36Z</time>
      </trkpt>
      <trkpt lat="45.8781" lon="4.64916">
        <ele>220</ele>
        <time>2018-09-07T09:16:37Z</time>
      </trkpt>
      <trkpt lat="45.87814" lon="4.64926">
        <ele>224</ele>
        <time>2018-09-07T09:16:41Z</time>
      </trkpt>
      <trkpt lat="45.87815" lon="4.64929">
        <ele>224</ele>
        <time>2018-09-07T09:16:42Z</time>
      </trkpt>
      <trkpt lat="45.8782" lon="4.64938">
        <ele>225</ele>
        <time>2018-09-07T09:16:46Z</time>
      </trkpt>
      <trkpt lat="45.87821" lon="4.6494">
        <ele>225</ele>
        <time>2018-09-07T09:16:47Z</time>
      </trkpt>
      <trkpt lat="45.87826" lon="4.64947">
        <ele>225</ele>
        <time>2018-09-07T09:16:51Z</time>
      </trkpt>
      <trkpt lat="45.87828" lon="4.64949">
        <ele>225</ele>
        <time>2018-09-07T09:16:52Z</time>
      </trkpt>
      <trkpt lat="45.87834" lon="4.64957">
        <ele>228</ele>
        <time>2018-09-07T09:16:56Z</time>
      </trkpt>
      <trkpt lat="45.87836" lon="4.64959">
        <ele>228</ele>
        <time>2018-09-07T09:16:57Z</time>
      </trkpt>
      <trkpt lat="45.87842" lon="4.64966">
        <ele>229</ele>
        <time>2018-09-07T09:17:01Z</time>
      </trkpt>
      <trkpt lat="45.87844" lon="4.64968">
        <ele>229</ele>
        <time>2018-09-07T09:17:02Z</time>
      </trkpt>
      <trkpt lat="45.87851" lon="4.64975">
        <ele>229</ele>
        <time>2018-09-07T09:17:06Z</time>
      </trkpt>
      <trkpt lat="45.87853" lon="4.64976">
        <ele>229</ele>
        <time>2018-09-07T09:17:07Z</time>
      </trkpt>
      <trkpt lat="45.8786" lon="4.64979">
        <ele>229</ele>
        <time>2018-09-07T09:17:11Z</time>
      </trkpt>
      <trkpt lat="45.87862" lon="4.6498">
        <ele>230</ele>
        <time>2018-09-07T09:17:12Z</time>
      </trkpt>
      <trkpt lat="45.8787" lon="4.64981">
        <ele>230</ele>
        <time>2018-09-07T09:17:16Z</time>
      </trkpt>
      <trkpt lat="45.87872" lon="4.64981">
        <ele>230</ele>
        <time>2018-09-07T09:17:17Z</time>
      </trkpt>
      <trkpt lat="45.8788" lon="4.64983">
        <ele>231</ele>
        <time>2018-09-07T09:17:21Z</time>
      </trkpt>
      <trkpt lat="45.87882" lon="4.64984">
        <ele>231</ele>
        <time>2018-09-07T09:17:22Z</time>
      </trkpt>
      <trkpt lat="45.8789" lon="4.64985">
        <ele>231</ele>
        <time>2018-09-07T09:17:26Z</time>
      </trkpt>
      <trkpt lat="45.87892" lon="4.64986">
        <ele>231</ele>
        <time>2018-09-07T09:17:27Z</time>
      </trkpt>
      <trkpt lat="45.879" lon="4.64987">
        <ele>232</ele>
        <time>2018-09-07T09:17:31Z</time>
      </trkpt>
      <trkpt lat="45.87901" lon="4.64987">
        <ele>233</ele>
        <time>2018-09-07T09:17:32Z</time>
      </trkpt>
      <trkpt lat="45.87909" lon="4.64988">
        <ele>234</ele>
        <time>2018-09-07T09:17:36Z</time>
      </trkpt>
      <trkpt lat="45.87911" lon="4.64988">
        <ele>234</ele>
        <time>2018-09-07T09:17:37Z</time>
      </trkpt>
      <trkpt lat="45.87918" lon="4.64987">
        <ele>237</ele>
        <time>2018-09-07T09:17:41Z</time>
      </trkpt>
      <trkpt lat="45.8792" lon="4.64986">
        <ele>237</ele>
        <time>2018-09-07T09:17:42Z</time>
      </trkpt>
      <trkpt lat="45.87929" lon="4.64985">
        <ele>237</ele>
        <time>2018-09-07T09:17:46Z</time>
      </trkpt>
      <trkpt lat="45.87931" lon="4.64984">
        <ele>237</ele>
        <time>2018-09-07T09:17:47Z</time>
      </trkpt>
      <trkpt lat="45.87938" lon="4.64981">
        <ele>237</ele>
        <time>2018-09-07T09:17:51Z</time>
      </trkpt>
      <trkpt lat="45.8794" lon="4.64979">
        <ele>237</ele>
        <time>2018-09-07T09:17:52Z</time>
      </trkpt>
      <trkpt lat="45.87947" lon="4.64975">
        <ele>237</ele>
        <time>2018-09-07T09:17:56Z</time>
      </trkpt>
      <trkpt lat="45.87949" lon="4.64974">
        <ele>237</ele>
        <time>2018-09-07T09:17:57Z</time>
      </trkpt>
      <trkpt lat="45.87956" lon="4.64968">
        <ele>238</ele>
        <time>2018-09-07T09:18:01Z</time>
      </trkpt>
      <trkpt lat="45.87958" lon="4.64967">
        <ele>238</ele>
        <time>2018-09-07T09:18:02Z</time>
      </trkpt>
      <trkpt lat="45.87964" lon="4.6496">
        <ele>237</ele>
        <time>2018-09-07T09:18:06Z</time>
      </trkpt>
      <trkpt lat="45.87966" lon="4.64958">
        <ele>237</ele>
        <time>2018-09-07T09:18:07Z</time>
      </trkpt>
      <trkpt lat="45.87973" lon="4.64952">
        <ele>237</ele>
        <time>2018-09-07T09:18:11Z</time>
      </trkpt>
      <trkpt lat="45.87975" lon="4.6495">
        <ele>237</ele>
        <time>2018-09-07T09:18:12Z</time>
      </trkpt>
      <trkpt lat="45.87981" lon="4.64944">
        <ele>237</ele>
        <time>2018-09-07T09:18:16Z</time>
      </trkpt>
      <trkpt lat="45.87983" lon="4.64942">
        <ele>237</ele>
        <time>2018-09-07T09:18:17Z</time>
      </trkpt>
      <trkpt lat="45.87991" lon="4.64936">
        <ele>237</ele>
        <time>2018-09-07T09:18:21Z</time>
      </trkpt>
      <trkpt lat="45.87992" lon="4.64935">
        <ele>236</ele>
        <time>2018-09-07T09:18:22Z</time>
      </trkpt>
      <trkpt lat="45.87999" lon="4.64927">
        <ele>236</ele>
        <time>2018-09-07T09:18:26Z</time>
      </trkpt>
      <trkpt lat="45.88001" lon="4.64925">
        <ele>240</ele>
        <time>2018-09-07T09:18:27Z</time>
      </trkpt>
      <trkpt lat="45.88007" lon="4.64919">
        <ele>240</ele>
        <time>2018-09-07T09:18:31Z</time>
      </trkpt>
      <trkpt lat="45.88009" lon="4.64918">
        <ele>240</ele>
        <time>2018-09-07T09:18:32Z</time>
      </trkpt>
      <trkpt lat="45.88016" lon="4.64912">
        <ele>237</ele>
        <time>2018-09-07T09:18:36Z</time>
      </trkpt>
      <trkpt lat="45.88018" lon="4.64911">
        <ele>237</ele>
        <time>2018-09-07T09:18:37Z</time>
      </trkpt>
      <trkpt lat="45.88025" lon="4.64903">
        <ele>238</ele>
        <time>2018-09-07T09:18:41Z</time>
      </trkpt>
      <trkpt lat="45.88027" lon="4.64902">
        <ele>238</ele>
        <time>2018-09-07T09:18:42Z</time>
      </trkpt>
      <trkpt lat="45.88035" lon="4.64897">
        <ele>238</ele>
        <time>2018-09-07T09:18:47Z</time>
      </trkpt>
      <trkpt lat="45.88036" lon="4.64896">
        <ele>239</ele>
        <time>2018-09-07T09:18:48Z</time>
      </trkpt>
      <trkpt lat="45.88043" lon="4.64891">
        <ele>239</ele>
        <time>2018-09-07T09:18:52Z</time>
      </trkpt>
      <trkpt lat="45.88044" lon="4.64889">
        <ele>239</ele>
        <time>2018-09-07T09:18:53Z</time>
      </trkpt>
      <trkpt lat="45.8805" lon="4.64883">
        <ele>239</ele>
        <time>2018-09-07T09:18:57Z</time>
      </trkpt>
      <trkpt lat="45.88052" lon="4.64882">
        <ele>239</ele>
        <time>2018-09-07T09:18:58Z</time>
      </trkpt>
      <trkpt lat="45.88059" lon="4.64877">
        <ele>239</ele>
        <time>2018-09-07T09:19:03Z</time>
      </trkpt>
      <trkpt lat="45.88061" lon="4.64876">
        <ele>239</ele>
        <time>2018-09-07T09:19:04Z</time>
      </trkpt>
      <trkpt lat="45.88068" lon="4.64872">
        <ele>239</ele>
        <time>2018-09-07T09:19:08Z</time>
      </trkpt>
      <trkpt lat="45.88069" lon="4.64871">
        <ele>239</ele>
        <time>2018-09-07T09:19:09Z</time>
      </trkpt>
      <trkpt lat="45.88077" lon="4.64867">
        <ele>239</ele>
        <time>2018-09-07T09:19:13Z</time>
      </trkpt>
      <trkpt lat="45.88079" lon="4.64866">
        <ele>239</ele>
        <time>2018-09-07T09:19:14Z</time>
      </trkpt>
      <trkpt lat="45.88087" lon="4.64862">
        <ele>246</ele>
        <time>2018-09-07T09:19:18Z</time>
      </trkpt>
      <trkpt lat="45.88089" lon="4.64862">
        <ele>246</ele>
        <time>2018-09-07T09:19:19Z</time>
      </trkpt>
      <trkpt lat="45.88098" lon="4.64859">
        <ele>246</ele>
        <time>2018-09-07T09:19:23Z</time>
      </trkpt>
      <trkpt lat="45.881" lon="4.64859">
        <ele>246</ele>
        <time>2018-09-07T09:19:24Z</time>
      </trkpt>
      <trkpt lat="45.88107" lon="4.64856">
        <ele>246</ele>
        <time>2018-09-07T09:19:27Z</time>
      </trkpt>
      <trkpt lat="45.88109" lon="4.64854">
        <ele>246</ele>
        <time>2018-09-07T09:19:28Z</time>
      </trkpt>
      <trkpt lat="45.88118" lon="4.64852">
        <ele>247</ele>
        <time>2018-09-07T09:19:32Z</time>
      </trkpt>
      <trkpt lat="45.8812" lon="4.64852">
        <ele>247</ele>
        <time>2018-09-07T09:19:33Z</time>
      </trkpt>
      <trkpt lat="45.88129" lon="4.64851">
        <ele>247</ele>
        <time>2018-09-07T09:19:37Z</time>
      </trkpt>
      <trkpt lat="45.88131" lon="4.64851">
        <ele>247</ele>
        <time>2018-09-07T09:19:38Z</time>
      </trkpt>
      <trkpt lat="45.8814" lon="4.64849">
        <ele>248</ele>
        <time>2018-09-07T09:19:42Z</time>
      </trkpt>
      <trkpt lat="45.88142" lon="4.64849">
        <ele>248</ele>
        <time>2018-09-07T09:19:43Z</time>
      </trkpt>
      <trkpt lat="45.88149" lon="4.64847">
        <ele>247</ele>
        <time>2018-09-07T09:19:46Z</time>
      </trkpt>
      <trkpt lat="45.88151" lon="4.64846">
        <ele>247</ele>
        <time>2018-09-07T09:19:47Z</time>
      </trkpt>
      <trkpt lat="45.8816" lon="4.64845">
        <ele>247</ele>
        <time>2018-09-07T09:19:51Z</time>
      </trkpt>
      <trkpt lat="45.88162" lon="4.64844">
        <ele>247</ele>
        <time>2018-09-07T09:19:52Z</time>
      </trkpt>
      <trkpt lat="45.8817" lon="4.64843">
        <ele>249</ele>
        <time>2018-09-07T09:19:56Z</time>
      </trkpt>
      <trkpt lat="45.88172" lon="4.64842">
        <ele>250</ele>
        <time>2018-09-07T09:19:57Z</time>
      </trkpt>
      <trkpt lat="45.88179" lon="4.64841">
        <ele>251</ele>
        <time>2018-09-07T09:20:01Z</time>
      </trkpt>
      <trkpt lat="45.88181" lon="4.6484">
        <ele>251</ele>
        <time>2018-09-07T09:20:02Z</time>
      </trkpt>
      <trkpt lat="45.88189" lon="4.64839">
        <ele>253</ele>
        <time>2018-09-07T09:20:06Z</time>
      </trkpt>
      <trkpt lat="45.88191" lon="4.64838">
        <ele>253</ele>
        <time>2018-09-07T09:20:07Z</time>
      </trkpt>
      <trkpt lat="45.88199" lon="4.64836">
        <ele>254</ele>
        <time>2018-09-07T09:20:11Z</time>
      </trkpt>
      <trkpt lat="45.88201" lon="4.64836">
        <ele>255</ele>
        <time>2018-09-07T09:20:12Z</time>
      </trkpt>
      <trkpt lat="45.88208" lon="4.64834">
        <ele>256</ele>
        <time>2018-09-07T09:20:16Z</time>
      </trkpt>
      <trkpt lat="45.8821" lon="4.64833">
        <ele>246</ele>
        <time>2018-09-07T09:20:17Z</time>
      </trkpt>
      <trkpt lat="45.88218" lon="4.64831">
        <ele>247</ele>
        <time>2018-09-07T09:20:21Z</time>
      </trkpt>
      <trkpt lat="45.88219" lon="4.64831">
        <ele>248</ele>
        <time>2018-09-07T09:20:22Z</time>
      </trkpt>
      <trkpt lat="45.88228" lon="4.64828">
        <ele>249</ele>
        <time>2018-09-07T09:20:27Z</time>
      </trkpt>
      <trkpt lat="45.8823" lon="4.64828">
        <ele>249</ele>
        <time>2018-09-07T09:20:28Z</time>
      </trkpt>
      <trkpt lat="45.88239" lon="4.64826">
        <ele>251</ele>
        <time>2018-09-07T09:20:33Z</time>
      </trkpt>
      <trkpt lat="45.8824" lon="4.64826">
        <ele>252</ele>
        <time>2018-09-07T09:20:34Z</time>
      </trkpt>
      <trkpt lat="45.88247" lon="4.64821">
        <ele>252</ele>
        <time>2018-09-07T09:20:38Z</time>
      </trkpt>
      <trkpt lat="45.88249" lon="4.64819">
        <ele>251</ele>
        <time>2018-09-07T09:20:39Z</time>
      </trkpt>
      <trkpt lat="45.88258" lon="4.64817">
        <ele>257</ele>
        <time>2018-09-07T09:20:44Z</time>
      </trkpt>
      <trkpt lat="45.8826" lon="4.64817">
        <ele>257</ele>
        <time>2018-09-07T09:20:45Z</time>
      </trkpt>
      <trkpt lat="45.88267" lon="4.64816">
        <ele>257</ele>
        <time>2018-09-07T09:20:50Z</time>
      </trkpt>
      <trkpt lat="45.88269" lon="4.64816">
        <ele>257</ele>
        <time>2018-09-07T09:20:51Z</time>
      </trkpt>
      <trkpt lat="45.88277" lon="4.64813">
        <ele>258</ele>
        <time>2018-09-07T09:20:56Z</time>
      </trkpt>
      <trkpt lat="45.88279" lon="4.64812">
        <ele>258</ele>
        <time>2018-09-07T09:20:57Z</time>
      </trkpt>
      <trkpt lat="45.88287" lon="4.64812">
        <ele>259</ele>
        <time>2018-09-07T09:21:02Z</time>
      </trkpt>
      <trkpt lat="45.88289" lon="4.64812">
        <ele>259</ele>
        <time>2018-09-07T09:21:03Z</time>
      </trkpt>
      <trkpt lat="45.88297" lon="4.64812">
        <ele>260</ele>
        <time>2018-09-07T09:21:08Z</time>
      </trkpt>
      <trkpt lat="45.88299" lon="4.64811">
        <ele>260</ele>
        <time>2018-09-07T09:21:09Z</time>
      </trkpt>
      <trkpt lat="45.88306" lon="4.64807">
        <ele>260</ele>
        <time>2018-09-07T09:21:14Z</time>
      </trkpt>
      <trkpt lat="45.88307" lon="4.64806">
        <ele>260</ele>
        <time>2018-09-07T09:21:15Z</time>
      </trkpt>
      <trkpt lat="45.88313" lon="4.64801">
        <ele>260</ele>
        <time>2018-09-07T09:21:19Z</time>
      </trkpt>
      <trkpt lat="45.88315" lon="4.648">
        <ele>260</ele>
        <time>2018-09-07T09:21:20Z</time>
      </trkpt>
      <trkpt lat="45.88323" lon="4.64795">
        <ele>260</ele>
        <time>2018-09-07T09:21:24Z</time>
      </trkpt>
      <trkpt lat="45.88325" lon="4.64795">
        <ele>260</ele>
        <time>2018-09-07T09:21:25Z</time>
      </trkpt>
      <trkpt lat="45.88333" lon="4.64795">
        <ele>261</ele>
        <time>2018-09-07T09:21:29Z</time>
      </trkpt>
      <trkpt lat="45.88334" lon="4.64795">
        <ele>267</ele>
        <time>2018-09-07T09:21:30Z</time>
      </trkpt>
      <trkpt lat="45.88342" lon="4.64795">
        <ele>267</ele>
        <time>2018-09-07T09:21:34Z</time>
      </trkpt>
      <trkpt lat="45.88344" lon="4.64794">
        <ele>267</ele>
        <time>2018-09-07T09:21:35Z</time>
      </trkpt>
      <trkpt lat="45.88353" lon="4.64794">
        <ele>267</ele>
        <time>2018-09-07T09:21:40Z</time>
      </trkpt>
      <trkpt lat="45.88355" lon="4.64793">
        <ele>267</ele>
        <time>2018-09-07T09:21:41Z</time>
      </trkpt>
      <trkpt lat="45.88362" lon="4.64793">
        <ele>267</ele>
        <time>2018-09-07T09:21:46Z</time>
      </trkpt>
      <trkpt lat="45.88364" lon="4.64792">
        <ele>267</ele>
        <time>2018-09-07T09:21:47Z</time>
      </trkpt>
      <trkpt lat="45.88372" lon="4.64791">
        <ele>267</ele>
        <time>2018-09-07T09:21:51Z</time>
      </trkpt>
      <trkpt lat="45.88374" lon="4.64791">
        <ele>267</ele>
        <time>2018-09-07T09:21:52Z</time>
      </trkpt>
      <trkpt lat="45.88381" lon="4.64788">
        <ele>267</ele>
        <time>2018-09-07T09:21:56Z</time>
      </trkpt>
      <trkpt lat="45.88383" lon="4.64788">
        <ele>267</ele>
        <time>2018-09-07T09:21:57Z</time>
      </trkpt>
      <trkpt lat="45.88391" lon="4.64787">
        <ele>268</ele>
        <time>2018-09-07T09:22:01Z</time>
      </trkpt>
      <trkpt lat="45.88393" lon="4.64787">
        <ele>268</ele>
        <time>2018-09-07T09:22:02Z</time>
      </trkpt>
      <trkpt lat="45.88401" lon="4.64783">
        <ele>267</ele>
        <time>2018-09-07T09:22:07Z</time>
      </trkpt>
      <trkpt lat="45.88403" lon="4.64782">
        <ele>267</ele>
        <time>2018-09-07T09:22:08Z</time>
      </trkpt>
      <trkpt lat="45.8841" lon="4.64781">
        <ele>267</ele>
        <time>2018-09-07T09:22:12Z</time>
      </trkpt>
      <trkpt lat="45.88412" lon="4.64781">
        <ele>267</ele>
        <time>2018-09-07T09:22:13Z</time>
      </trkpt>
      <trkpt lat="45.88421" lon="4.64782">
        <ele>270</ele>
        <time>2018-09-07T09:22:18Z</time>
      </trkpt>
      <trkpt lat="45.88423" lon="4.64783">
        <ele>270</ele>
        <time>2018-09-07T09:22:19Z</time>
      </trkpt>
      <trkpt lat="45.88431" lon="4.64783">
        <ele>271</ele>
        <time>2018-09-07T09:22:24Z</time>
      </trkpt>
      <trkpt lat="45.88433" lon="4.64783">
        <ele>271</ele>
        <time>2018-09-07T09:22:25Z</time>
      </trkpt>
      <trkpt lat="45.8844" lon="4.64781">
        <ele>271</ele>
        <time>2018-09-07T09:22:29Z</time>
      </trkpt>
      <trkpt lat="45.88442" lon="4.64781">
        <ele>271</ele>
        <time>2018-09-07T09:22:30Z</time>
      </trkpt>
      <trkpt lat="45.88449" lon="4.6478">
        <ele>271</ele>
        <time>2018-09-07T09:22:34Z</time>
      </trkpt>
      <trkpt lat="45.88451" lon="4.64779">
        <ele>271</ele>
        <time>2018-09-07T09:22:35Z</time>
      </trkpt>
      <trkpt lat="45.88458" lon="4.64777">
        <ele>271</ele>
        <time>2018-09-07T09:22:39Z</time>
      </trkpt>
      <trkpt lat="45.8846" lon="4.64777">
        <ele>271</ele>
        <time>2018-09-07T09:22:40Z</time>
      </trkpt>
      <trkpt lat="45.88469" lon="4.64774">
        <ele>271</ele>
        <time>2018-09-07T09:22:44Z</time>
      </trkpt>
      <trkpt lat="45.88471" lon="4.64774">
        <ele>271</ele>
        <time>2018-09-07T09:22:45Z</time>
      </trkpt>
      <trkpt lat="45.8848" lon="4.64772">
        <ele>271</ele>
        <time>2018-09-07T09:22:49Z</time>
      </trkpt>
      <trkpt lat="45.88482" lon="4.64772">
        <ele>271</ele>
        <time>2018-09-07T09:22:50Z</time>
      </trkpt>
      <trkpt lat="45.88489" lon="4.6477">
        <ele>270</ele>
        <time>2018-09-07T09:22:53Z</time>
      </trkpt>
      <trkpt lat="45.88491" lon="4.6477">
        <ele>270</ele>
        <time>2018-09-07T09:22:54Z</time>
      </trkpt>
      <trkpt lat="45.88498" lon="4.64768">
        <ele>270</ele>
        <time>2018-09-07T09:22:57Z</time>
      </trkpt>
      <trkpt lat="45.88501" lon="4.64768">
        <ele>270</ele>
        <time>2018-09-07T09:22:58Z</time>
      </trkpt>
      <trkpt lat="45.88508" lon="4.64767">
        <ele>270</ele>
        <time>2018-09-07T09:23:01Z</time>
      </trkpt>
      <trkpt lat="45.8851" lon="4.64767">
        <ele>270</ele>
        <time>2018-09-07T09:23:02Z</time>
      </trkpt>
      <trkpt lat="45.88517" lon="4.64768">
        <ele>270</ele>
        <time>2018-09-07T09:23:05Z</time>
      </trkpt>
      <trkpt lat="45.8852" lon="4.64769">
        <ele>270</ele>
        <time>2018-09-07T09:23:06Z</time>
      </trkpt>
      <trkpt lat="45.88526" lon="4.64771">
        <ele>271</ele>
        <time>2018-09-07T09:23:09Z</time>
      </trkpt>
      <trkpt lat="45.88529" lon="4.64772">
        <ele>271</ele>
        <time>2018-09-07T09:23:10Z</time>
      </trkpt>
      <trkpt lat="45.88536" lon="4.64777">
        <ele>271</ele>
        <time>2018-09-07T09:23:14Z</time>
      </trkpt>
      <trkpt lat="45.88538" lon="4.64779">
        <ele>271</ele>
        <time>2018-09-07T09:23:15Z</time>
      </trkpt>
      <trkpt lat="45.88543" lon="4.64789">
        <ele>272</ele>
        <time>2018-09-07T09:23:19Z</time>
      </trkpt>
      <trkpt lat="45.88544" lon="4.64793">
        <ele>272</ele>
        <time>2018-09-07T09:23:20Z</time>
      </trkpt>
      <trkpt lat="45.88548" lon="4.64803">
        <ele>272</ele>
        <time>2018-09-07T09:23:24Z</time>
      </trkpt>
      <trkpt lat="45.88548" lon="4.64806">
        <ele>272</ele>
        <time>2018-09-07T09:23:25Z</time>
      </trkpt>
      <trkpt lat="45.88549" lon="4.64817">
        <ele>273</ele>
        <time>2018-09-07T09:23:29Z</time>
      </trkpt>
      <trkpt lat="45.8855" lon="4.6482">
        <ele>273</ele>
        <time>2018-09-07T09:23:30Z</time>
      </trkpt>
      <trkpt lat="45.88551" lon="4.64831">
        <ele>273</ele>
        <time>2018-09-07T09:23:34Z</time>
      </trkpt>
      <trkpt lat="45.88551" lon="4.64833">
        <ele>273</ele>
        <time>2018-09-07T09:23:35Z</time>
      </trkpt>
      <trkpt lat="45.8855" lon="4.64844">
        <ele>276</ele>
        <time>2018-09-07T09:23:39Z</time>
      </trkpt>
      <trkpt lat="45.88549" lon="4.64846">
        <ele>276</ele>
        <time>2018-09-07T09:23:40Z</time>
      </trkpt>
      <trkpt lat="45.88547" lon="4.64857">
        <ele>277</ele>
        <time>2018-09-07T09:23:44Z</time>
      </trkpt>
      <trkpt lat="45.88547" lon="4.6486">
        <ele>277</ele>
        <time>2018-09-07T09:23:45Z</time>
      </trkpt>
      <trkpt lat="45.88545" lon="4.64871">
        <ele>277</ele>
        <time>2018-09-07T09:23:49Z</time>
      </trkpt>
      <trkpt lat="45.88545" lon="4.64874">
        <ele>277</ele>
        <time>2018-09-07T09:23:50Z</time>
      </trkpt>
      <trkpt lat="45.88543" lon="4.64884">
        <ele>277</ele>
        <time>2018-09-07T09:23:54Z</time>
      </trkpt>
      <trkpt lat="45.88543" lon="4.64887">
        <ele>277</ele>
        <time>2018-09-07T09:23:55Z</time>
      </trkpt>
      <trkpt lat="45.88542" lon="4.64897">
        <ele>277</ele>
        <time>2018-09-07T09:23:59Z</time>
      </trkpt>
      <trkpt lat="45.88541" lon="4.649">
        <ele>278</ele>
        <time>2018-09-07T09:24:00Z</time>
      </trkpt>
      <trkpt lat="45.88539" lon="4.64912">
        <ele>278</ele>
        <time>2018-09-07T09:24:05Z</time>
      </trkpt>
      <trkpt lat="45.88538" lon="4.64915">
        <ele>278</ele>
        <time>2018-09-07T09:24:06Z</time>
      </trkpt>
      <trkpt lat="45.88537" lon="4.64926">
        <ele>280</ele>
        <time>2018-09-07T09:24:10Z</time>
      </trkpt>
      <trkpt lat="45.88536" lon="4.64929">
        <ele>280</ele>
        <time>2018-09-07T09:24:11Z</time>
      </trkpt>
      <trkpt lat="45.88535" lon="4.6494">
        <ele>281</ele>
        <time>2018-09-07T09:24:15Z</time>
      </trkpt>
      <trkpt lat="45.88534" lon="4.64943">
        <ele>281</ele>
        <time>2018-09-07T09:24:16Z</time>
      </trkpt>
      <trkpt lat="45.88533" lon="4.64954">
        <ele>281</ele>
        <time>2018-09-07T09:24:20Z</time>
      </trkpt>
      <trkpt lat="45.88532" lon="4.64957">
        <ele>281</ele>
        <time>2018-09-07T09:24:21Z</time>
      </trkpt>
      <trkpt lat="45.88531" lon="4.64969">
        <ele>282</ele>
        <time>2018-09-07T09:24:25Z</time>
      </trkpt>
      <trkpt lat="45.8853" lon="4.64972">
        <ele>282</ele>
        <time>2018-09-07T09:24:26Z</time>
      </trkpt>
      <trkpt lat="45.88529" lon="4.64984">
        <ele>282</ele>
        <time>2018-09-07T09:24:30Z</time>
      </trkpt>
      <trkpt lat="45.88529" lon="4.64988">
        <ele>282</ele>
        <time>2018-09-07T09:24:31Z</time>
      </trkpt>
      <trkpt lat="45.88527" lon="4.64997">
        <ele>283</ele>
        <time>2018-09-07T09:24:35Z</time>
      </trkpt>
      <trkpt lat="45.88526" lon="4.65">
        <ele>285</ele>
        <time>2018-09-07T09:24:36Z</time>
      </trkpt>
      <trkpt lat="45.88525" lon="4.65012">
        <ele>285</ele>
        <time>2018-09-07T09:24:40Z</time>
      </trkpt>
      <trkpt lat="45.88524" lon="4.65015">
        <ele>285</ele>
        <time>2018-09-07T09:24:41Z</time>
      </trkpt>
      <trkpt lat="45.88523" lon="4.65027">
        <ele>285</ele>
        <time>2018-09-07T09:24:45Z</time>
      </trkpt>
      <trkpt lat="45.88523" lon="4.6503">
        <ele>285</ele>
        <time>2018-09-07T09:24:46Z</time>
      </trkpt>
      <trkpt lat="45.8852" lon="4.65041">
        <ele>285</ele>
        <time>2018-09-07T09:24:50Z</time>
      </trkpt>
      <trkpt lat="45.88519" lon="4.65044">
        <ele>285</ele>
        <time>2018-09-07T09:24:51Z</time>
      </trkpt>
      <trkpt lat="45.88516" lon="4.65055">
        <ele>286</ele>
        <time>2018-09-07T09:24:56Z</time>
      </trkpt>
      <trkpt lat="45.88515" lon="4.65057">
        <ele>286</ele>
        <time>2018-09-07T09:24:57Z</time>
      </trkpt>
      <trkpt lat="45.88511" lon="4.65067">
        <ele>287</ele>
        <time>2018-09-07T09:25:02Z</time>
      </trkpt>
      <trkpt lat="45.8851" lon="4.65069">
        <ele>287</ele>
        <time>2018-09-07T09:25:03Z</time>
      </trkpt>
      <trkpt lat="45.88505" lon="4.6508">
        <ele>289</ele>
        <time>2018-09-07T09:25:08Z</time>
      </trkpt>
      <trkpt lat="45.88503" lon="4.65082">
        <ele>289</ele>
        <time>2018-09-07T09:25:09Z</time>
      </trkpt>
      <trkpt lat="45.88499" lon="4.65091">
        <ele>291</ele>
        <time>2018-09-07T09:25:13Z</time>
      </trkpt>
      <trkpt lat="45.88498" lon="4.65094">
        <ele>291</ele>
        <time>2018-09-07T09:25:14Z</time>
      </trkpt>
      <trkpt lat="45.88493" lon="4.65103">
        <ele>292</ele>
        <time>2018-09-07T09:25:18Z</time>
      </trkpt>
      <trkpt lat="45.88492" lon="4.65104">
        <ele>292</ele>
        <time>2018-09-07T09:25:19Z</time>
      </trkpt>
      <trkpt lat="45.88486" lon="4.65111">
        <ele>293</ele>
        <time>2018-09-07T09:25:23Z</time>
      </trkpt>
      <trkpt lat="45.88484" lon="4.65113">
        <ele>293</ele>
        <time>2018-09-07T09:25:24Z</time>
      </trkpt>
      <trkpt lat="45.88478" lon="4.65119">
        <ele>293</ele>
        <time>2018-09-07T09:25:27Z</time>
      </trkpt>
      <trkpt lat="45.88476" lon="4.65121">
        <ele>293</ele>
        <time>2018-09-07T09:25:28Z</time>
      </trkpt>
      <trkpt lat="45.88469" lon="4.65128">
        <ele>294</ele>
        <time>2018-09-07T09:25:32Z</time>
      </trkpt>
      <trkpt lat="45.88468" lon="4.6513">
        <ele>294</ele>
        <time>2018-09-07T09:25:33Z</time>
      </trkpt>
      <trkpt lat="45.88462" lon="4.65139">
        <ele>294</ele>
        <time>2018-09-07T09:25:37Z</time>
      </trkpt>
      <trkpt lat="45.8846" lon="4.65141">
        <ele>294</ele>
        <time>2018-09-07T09:25:38Z</time>
      </trkpt>
      <trkpt lat="45.88452" lon="4.65147">
        <ele>295</ele>
        <time>2018-09-07T09:25:42Z</time>
      </trkpt>
      <trkpt lat="45.88451" lon="4.65149">
        <ele>295</ele>
        <time>2018-09-07T09:25:43Z</time>
      </trkpt>
      <trkpt lat="45.88444" lon="4.65155">
        <ele>295</ele>
        <time>2018-09-07T09:25:47Z</time>
      </trkpt>
      <trkpt lat="45.88443" lon="4.65157">
        <ele>296</ele>
        <time>2018-09-07T09:25:48Z</time>
      </trkpt>
      <trkpt lat="45.88436" lon="4.65163">
        <ele>296</ele>
        <time>2018-09-07T09:25:52Z</time>
      </trkpt>
      <trkpt lat="45.88435" lon="4.65165">
        <ele>296</ele>
        <time>2018-09-07T09:25:53Z</time>
      </trkpt>
      <trkpt lat="45.88429" lon="4.65171">
        <ele>298</ele>
        <time>2018-09-07T09:25:57Z</time>
      </trkpt>
      <trkpt lat="45.88427" lon="4.65173">
        <ele>298</ele>
        <time>2018-09-07T09:25:58Z</time>
      </trkpt>
      <trkpt lat="45.8842" lon="4.65179">
        <ele>298</ele>
        <time>2018-09-07T09:26:02Z</time>
      </trkpt>
      <trkpt lat="45.88418" lon="4.65181">
        <ele>298</ele>
        <time>2018-09-07T09:26:03Z</time>
      </trkpt>
      <trkpt lat="45.88412" lon="4.65186">
        <ele>299</ele>
        <time>2018-09-07T09:26:07Z</time>
      </trkpt>
      <trkpt lat="45.88411" lon="4.65188">
        <ele>299</ele>
        <time>2018-09-07T09:26:08Z</time>
      </trkpt>
      <trkpt lat="45.88404" lon="4.65195">
        <ele>299</ele>
        <time>2018-09-07T09:26:13Z</time>
      </trkpt>
      <trkpt lat="45.88403" lon="4.65197">
        <ele>299</ele>
        <time>2018-09-07T09:26:14Z</time>
      </trkpt>
      <trkpt lat="45.88396" lon="4.65204">
        <ele>300</ele>
        <time>2018-09-07T09:26:18Z</time>
      </trkpt>
      <trkpt lat="45.88395" lon="4.65205">
        <ele>300</ele>
        <time>2018-09-07T09:26:19Z</time>
      </trkpt>
      <trkpt lat="45.88388" lon="4.65212">
        <ele>300</ele>
        <time>2018-09-07T09:26:23Z</time>
      </trkpt>
      <trkpt lat="45.88387" lon="4.65214">
        <ele>300</ele>
        <time>2018-09-07T09:26:24Z</time>
      </trkpt>
      <trkpt lat="45.8838" lon="4.65221">
        <ele>300</ele>
        <time>2018-09-07T09:26:28Z</time>
      </trkpt>
      <trkpt lat="45.88378" lon="4.65223">
        <ele>300</ele>
        <time>2018-09-07T09:26:29Z</time>
      </trkpt>
      <trkpt lat="45.88373" lon="4.6523">
        <ele>300</ele>
        <time>2018-09-07T09:26:32Z</time>
      </trkpt>
      <trkpt lat="45.88371" lon="4.65232">
        <ele>300</ele>
        <time>2018-09-07T09:26:33Z</time>
      </trkpt>
      <trkpt lat="45.88365" lon="4.65241">
        <ele>300</ele>
        <time>2018-09-07T09:26:37Z</time>
      </trkpt>
      <trkpt lat="45.88363" lon="4.65243">
        <ele>300</ele>
        <time>2018-09-07T09:26:38Z</time>
      </trkpt>
      <trkpt lat="45.88356" lon="4.65251">
        <ele>301</ele>
        <time>2018-09-07T09:26:42Z</time>
      </trkpt>
      <trkpt lat="45.88355" lon="4.65253">
        <ele>301</ele>
        <time>2018-09-07T09:26:43Z</time>
      </trkpt>
      <trkpt lat="45.88349" lon="4.65261">
        <ele>301</ele>
        <time>2018-09-07T09:26:47Z</time>
      </trkpt>
      <trkpt lat="45.88347" lon="4.65263">
        <ele>301</ele>
        <time>2018-09-07T09:26:48Z</time>
      </trkpt>
      <trkpt lat="45.8834" lon="4.6527">
        <ele>301</ele>
        <time>2018-09-07T09:26:52Z</time>
      </trkpt>
      <trkpt lat="45.88338" lon="4.65271">
        <ele>301</ele>
        <time>2018-09-07T09:26:53Z</time>
      </trkpt>
      <trkpt lat="45.8833" lon="4.65277">
        <ele>303</ele>
        <time>2018-09-07T09:26:57Z</time>
      </trkpt>
      <trkpt lat="45.88328" lon="4.65279">
        <ele>304</ele>
        <time>2018-09-07T09:26:58Z</time>
      </trkpt>
      <trkpt lat="45.88321" lon="4.65286">
        <ele>304</ele>
        <time>2018-09-07T09:27:02Z</time>
      </trkpt>
      <trkpt lat="45.88319" lon="4.65288">
        <ele>304</ele>
        <time>2018-09-07T09:27:03Z</time>
      </trkpt>
      <trkpt lat="45.88314" lon="4.65295">
        <ele>304</ele>
        <time>2018-09-07T09:27:06Z</time>
      </trkpt>
      <trkpt lat="45.88313" lon="4.65298">
        <ele>304</ele>
        <time>2018-09-07T09:27:07Z</time>
      </trkpt>
      <trkpt lat="45.88309" lon="4.65308">
        <ele>305</ele>
        <time>2018-09-07T09:27:11Z</time>
      </trkpt>
      <trkpt lat="45.88307" lon="4.65312">
        <ele>305</ele>
        <time>2018-09-07T09:27:12Z</time>
      </trkpt>
      <trkpt lat="45.88302" lon="4.65321">
        <ele>305</ele>
        <time>2018-09-07T09:27:16Z</time>
      </trkpt>
      <trkpt lat="45.88301" lon="4.65323">
        <ele>305</ele>
        <time>2018-09-07T09:27:17Z</time>
      </trkpt>
      <trkpt lat="45.88296" lon="4.65332">
        <ele>305</ele>
        <time>2018-09-07T09:27:21Z</time>
      </trkpt>
      <trkpt lat="45.88295" lon="4.65334">
        <ele>307</ele>
        <time>2018-09-07T09:27:22Z</time>
      </trkpt>
      <trkpt lat="45.88291" lon="4.65344">
        <ele>307</ele>
        <time>2018-09-07T09:27:26Z</time>
      </trkpt>
      <trkpt lat="45.8829" lon="4.65347">
        <ele>307</ele>
        <time>2018-09-07T09:27:27Z</time>
      </trkpt>
      <trkpt lat="45.88287" lon="4.65358">
        <ele>308</ele>
        <time>2018-09-07T09:27:31Z</time>
      </trkpt>
      <trkpt lat="45.88287" lon="4.65361">
        <ele>308</ele>
        <time>2018-09-07T09:27:32Z</time>
      </trkpt>
      <trkpt lat="45.88283" lon="4.65373">
        <ele>308</ele>
        <time>2018-09-07T09:27:36Z</time>
      </trkpt>
      <trkpt lat="45.88282" lon="4.65375">
        <ele>308</ele>
        <time>2018-09-07T09:27:37Z</time>
      </trkpt>
      <trkpt lat="45.88279" lon="4.65385">
        <ele>308</ele>
        <time>2018-09-07T09:27:41Z</time>
      </trkpt>
      <trkpt lat="45.88278" lon="4.65388">
        <ele>308</ele>
        <time>2018-09-07T09:27:42Z</time>
      </trkpt>
      <trkpt lat="45.88275" lon="4.65398">
        <ele>309</ele>
        <time>2018-09-07T09:27:46Z</time>
      </trkpt>
      <trkpt lat="45.88274" lon="4.654">
        <ele>309</ele>
        <time>2018-09-07T09:27:47Z</time>
      </trkpt>
      <trkpt lat="45.88271" lon="4.65411">
        <ele>309</ele>
        <time>2018-09-07T09:27:51Z</time>
      </trkpt>
      <trkpt lat="45.8827" lon="4.65414">
        <ele>309</ele>
        <time>2018-09-07T09:27:52Z</time>
      </trkpt>
      <trkpt lat="45.88266" lon="4.65423">
        <ele>311</ele>
        <time>2018-09-07T09:27:56Z</time>
      </trkpt>
      <trkpt lat="45.88264" lon="4.65425">
        <ele>311</ele>
        <time>2018-09-07T09:27:57Z</time>
      </trkpt>
      <trkpt lat="45.88261" lon="4.65435">
        <ele>311</ele>
        <time>2018-09-07T09:28:01Z</time>
      </trkpt>
      <trkpt lat="45.8826" lon="4.65438">
        <ele>311</ele>
        <time>2018-09-07T09:28:02Z</time>
      </trkpt>
      <trkpt lat="45.88257" lon="4.65447">
        <ele>311</ele>
        <time>2018-09-07T09:28:06Z</time>
      </trkpt>
      <trkpt lat="45.88257" lon="4.6545">
        <ele>311</ele>
        <time>2018-09-07T09:28:07Z</time>
      </trkpt>
      <trkpt lat="45.88255" lon="4.65461">
        <ele>311</ele>
        <time>2018-09-07T09:28:11Z</time>
      </trkpt>
      <trkpt lat="45.88254" lon="4.65464">
        <ele>311</ele>
        <time>2018-09-07T09:28:12Z</time>
      </trkpt>
      <trkpt lat="45.8825" lon="4.65475">
        <ele>312</ele>
        <time>2018-09-07T09:28:16Z</time>
      </trkpt>
      <trkpt lat="45.88249" lon="4.65478">
        <ele>316</ele>
        <time>2018-09-07T09:28:17Z</time>
      </trkpt>
      <trkpt lat="45.88246" lon="4.65489">
        <ele>316</ele>
        <time>2018-09-07T09:28:21Z</time>
      </trkpt>
      <trkpt lat="45.88245" lon="4.65491">
        <ele>316</ele>
        <time>2018-09-07T09:28:22Z</time>
      </trkpt>
      <trkpt lat="45.88241" lon="4.65501">
        <ele>317</ele>
        <time>2018-09-07T09:28:26Z</time>
      </trkpt>
      <trkpt lat="45.88241" lon="4.65504">
        <ele>317</ele>
        <time>2018-09-07T09:28:27Z</time>
      </trkpt>
      <trkpt lat="45.88239" lon="4.65514">
        <ele>318</ele>
        <time>2018-09-07T09:28:30Z</time>
      </trkpt>
      <trkpt lat="45.88239" lon="4.65517">
        <ele>318</ele>
        <time>2018-09-07T09:28:31Z</time>
      </trkpt>
      <trkpt lat="45.88237" lon="4.65529">
        <ele>319</ele>
        <time>2018-09-07T09:28:35Z</time>
      </trkpt>
      <trkpt lat="45.88236" lon="4.65532">
        <ele>319</ele>
        <time>2018-09-07T09:28:36Z</time>
      </trkpt>
      <trkpt lat="45.88234" lon="4.65543">
        <ele>320</ele>
        <time>2018-09-07T09:28:40Z</time>
      </trkpt>
      <trkpt lat="45.88233" lon="4.65545">
        <ele>320</ele>
        <time>2018-09-07T09:28:41Z</time>
      </trkpt>
      <trkpt lat="45.8823" lon="4.65555">
        <ele>320</ele>
        <time>2018-09-07T09:28:45Z</time>
      </trkpt>
      <trkpt lat="45.88229" lon="4.65557">
        <ele>320</ele>
        <time>2018-09-07T09:28:46Z</time>
      </trkpt>
      <trkpt lat="45.88225" lon="4.65566">
        <ele>320</ele>
        <time>2018-09-07T09:28:50Z</time>
      </trkpt>
      <trkpt lat="45.88224" lon="4.65568">
        <ele>320</ele>
        <time>2018-09-07T09:28:51Z</time>
      </trkpt>
      <trkpt lat="45.88221" lon="4.65579">
        <ele>320</ele>
        <time>2018-09-07T09:28:55Z</time>
      </trkpt>
      <trkpt lat="45.88221" lon="4.65581">
        <ele>320</ele>
        <time>2018-09-07T09:28:56Z</time>
      </trkpt>
      <trkpt lat="45.88217" lon="4.65591">
        <ele>321</ele>
        <time>2018-09-07T09:29:00Z</time>
      </trkpt>
      <trkpt lat="45.88216" lon="4.65594">
        <ele>321</ele>
        <time>2018-09-07T09:29:01Z</time>
      </trkpt>
      <trkpt lat="45.88213" lon="4.65605">
        <ele>321</ele>
        <time>2018-09-07T09:29:05Z</time>
      </trkpt>
      <trkpt lat="45.88212" lon="4.65607">
        <ele>321</ele>
        <time>2018-09-07T09:29:06Z</time>
      </trkpt>
      <trkpt lat="45.88207" lon="4.65617">
        <ele>321</ele>
        <time>2018-09-07T09:29:10Z</time>
      </trkpt>
      <trkpt lat="45.88206" lon="4.6562">
        <ele>321</ele>
        <time>2018-09-07T09:29:11Z</time>
      </trkpt>
      <trkpt lat="45.88202" lon="4.65631">
        <ele>321</ele>
        <time>2018-09-07T09:29:15Z</time>
      </trkpt>
      <trkpt lat="45.88201" lon="4.65634">
        <ele>321</ele>
        <time>2018-09-07T09:29:16Z</time>
      </trkpt>
      <trkpt lat="45.88197" lon="4.65644">
        <ele>322</ele>
        <time>2018-09-07T09:29:20Z</time>
      </trkpt>
      <trkpt lat="45.88196" lon="4.65646">
        <ele>322</ele>
        <time>2018-09-07T09:29:21Z</time>
      </trkpt>
      <trkpt lat="45.88191" lon="4.65656">
        <ele>322</ele>
        <time>2018-09-07T09:29:25Z</time>
      </trkpt>
      <trkpt lat="45.8819" lon="4.65658">
        <ele>322</ele>
        <time>2018-09-07T09:29:26Z</time>
      </trkpt>
      <trkpt lat="45.88185" lon="4.65667">
        <ele>322</ele>
        <time>2018-09-07T09:29:30Z</time>
      </trkpt>
      <trkpt lat="45.88184" lon="4.65669">
        <ele>322</ele>
        <time>2018-09-07T09:29:31Z</time>
      </trkpt>
      <trkpt lat="45.8818" lon="4.65678">
        <ele>323</ele>
        <time>2018-09-07T09:29:35Z</time>
      </trkpt>
      <trkpt lat="45.88178" lon="4.6568">
        <ele>322</ele>
        <time>2018-09-07T09:29:36Z</time>
      </trkpt>
      <trkpt lat="45.88173" lon="4.65688">
        <ele>322</ele>
        <time>2018-09-07T09:29:40Z</time>
      </trkpt>
      <trkpt lat="45.88172" lon="4.6569">
        <ele>322</ele>
        <time>2018-09-07T09:29:41Z</time>
      </trkpt>
      <trkpt lat="45.88166" lon="4.65698">
        <ele>330</ele>
        <time>2018-09-07T09:29:45Z</time>
      </trkpt>
      <trkpt lat="45.88165" lon="4.65701">
        <ele>330</ele>
        <time>2018-09-07T09:29:46Z</time>
      </trkpt>
      <trkpt lat="45.88161" lon="4.65709">
        <ele>331</ele>
        <time>2018-09-07T09:29:50Z</time>
      </trkpt>
      <trkpt lat="45.88159" lon="4.65711">
        <ele>331</ele>
        <time>2018-09-07T09:29:51Z</time>
      </trkpt>
      <trkpt lat="45.88153" lon="4.65718">
        <ele>331</ele>
        <time>2018-09-07T09:29:55Z</time>
      </trkpt>
      <trkpt lat="45.88152" lon="4.6572">
        <ele>331</ele>
        <time>2018-09-07T09:29:56Z</time>
      </trkpt>
      <trkpt lat="45.88146" lon="4.65728">
        <ele>331</ele>
        <time>2018-09-07T09:30:01Z</time>
      </trkpt>
      <trkpt lat="45.88145" lon="4.6573">
        <ele>331</ele>
        <time>2018-09-07T09:30:02Z</time>
      </trkpt>
      <trkpt lat="45.88138" lon="4.65736">
        <ele>332</ele>
        <time>2018-09-07T09:30:06Z</time>
      </trkpt>
      <trkpt lat="45.88136" lon="4.65738">
        <ele>332</ele>
        <time>2018-09-07T09:30:07Z</time>
      </trkpt>
      <trkpt lat="45.88129" lon="4.65744">
        <ele>333</ele>
        <time>2018-09-07T09:30:11Z</time>
      </trkpt>
      <trkpt lat="45.88127" lon="4.65746">
        <ele>334</ele>
        <time>2018-09-07T09:30:12Z</time>
      </trkpt>
      <trkpt lat="45.88121" lon="4.6575">
        <ele>335</ele>
        <time>2018-09-07T09:30:15Z</time>
      </trkpt>
      <trkpt lat="45.88119" lon="4.65752">
        <ele>334</ele>
        <time>2018-09-07T09:30:16Z</time>
      </trkpt>
      <trkpt lat="45.88113" lon="4.65761">
        <ele>335</ele>
        <time>2018-09-07T09:30:20Z</time>
      </trkpt>
      <trkpt lat="45.88112" lon="4.65763">
        <ele>335</ele>
        <time>2018-09-07T09:30:21Z</time>
      </trkpt>
      <trkpt lat="45.88108" lon="4.65773">
        <ele>335</ele>
        <time>2018-09-07T09:30:25Z</time>
      </trkpt>
      <trkpt lat="45.88107" lon="4.65775">
        <ele>335</ele>
        <time>2018-09-07T09:30:26Z</time>
      </trkpt>
      <trkpt lat="45.88101" lon="4.65784">
        <ele>334</ele>
        <time>2018-09-07T09:30:31Z</time>
      </trkpt>
      <trkpt lat="45.88099" lon="4.65785">
        <ele>334</ele>
        <time>2018-09-07T09:30:32Z</time>
      </trkpt>
      <trkpt lat="45.88093" lon="4.6579">
        <ele>334</ele>
        <time>2018-09-07T09:30:36Z</time>
      </trkpt>
      <trkpt lat="45.88091" lon="4.65791">
        <ele>334</ele>
        <time>2018-09-07T09:30:37Z</time>
      </trkpt>
      <trkpt lat="45.88084" lon="4.65796">
        <ele>334</ele>
        <time>2018-09-07T09:30:43Z</time>
      </trkpt>
      <trkpt lat="45.88082" lon="4.65797">
        <ele>342</ele>
        <time>2018-09-07T09:30:44Z</time>
      </trkpt>
      <trkpt lat="45.88074" lon="4.65803">
        <ele>341</ele>
        <time>2018-09-07T09:30:48Z</time>
      </trkpt>
      <trkpt lat="45.88072" lon="4.65804">
        <ele>341</ele>
        <time>2018-09-07T09:30:49Z</time>
      </trkpt>
      <trkpt lat="45.88065" lon="4.6581">
        <ele>341</ele>
        <time>2018-09-07T09:30:54Z</time>
      </trkpt>
      <trkpt lat="45.88063" lon="4.65811">
        <ele>341</ele>
        <time>2018-09-07T09:30:55Z</time>
      </trkpt>
      <trkpt lat="45.88054" lon="4.65815">
        <ele>342</ele>
        <time>2018-09-07T09:30:59Z</time>
      </trkpt>
      <trkpt lat="45.88052" lon="4.65816">
        <ele>342</ele>
        <time>2018-09-07T09:31:00Z</time>
      </trkpt>
      <trkpt lat="45.88045" lon="4.65821">
        <ele>343</ele>
        <time>2018-09-07T09:31:03Z</time>
      </trkpt>
      <trkpt lat="45.88043" lon="4.65822">
        <ele>343</ele>
        <time>2018-09-07T09:31:04Z</time>
      </trkpt>
      <trkpt lat="45.88037" lon="4.65827">
        <ele>343</ele>
        <time>2018-09-07T09:31:07Z</time>
      </trkpt>
      <trkpt lat="45.88035" lon="4.65829">
        <ele>343</ele>
        <time>2018-09-07T09:31:08Z</time>
      </trkpt>
      <trkpt lat="45.8803" lon="4.65835">
        <ele>339</ele>
        <time>2018-09-07T09:31:10Z</time>
      </trkpt>
      <trkpt lat="45.88027" lon="4.65837">
        <ele>339</ele>
        <time>2018-09-07T09:31:11Z</time>
      </trkpt>
      <trkpt lat="45.8802" lon="4.65842">
        <ele>340</ele>
        <time>2018-09-07T09:31:14Z</time>
      </trkpt>
      <trkpt lat="45.88018" lon="4.65843">
        <ele>340</ele>
        <time>2018-09-07T09:31:15Z</time>
      </trkpt>
      <trkpt lat="45.8801" lon="4.65847">
        <ele>340</ele>
        <time>2018-09-07T09:31:19Z</time>
      </trkpt>
      <trkpt lat="45.88008" lon="4.65848">
        <ele>341</ele>
        <time>2018-09-07T09:31:20Z</time>
      </trkpt>
      <trkpt lat="45.88001" lon="4.65852">
        <ele>340</ele>
        <time>2018-09-07T09:31:23Z</time>
      </trkpt>
      <trkpt lat="45.87999" lon="4.65853">
        <ele>344</ele>
        <time>2018-09-07T09:31:24Z</time>
      </trkpt>
      <trkpt lat="45.87991" lon="4.65857">
        <ele>344</ele>
        <time>2018-09-07T09:31:28Z</time>
      </trkpt>
      <trkpt lat="45.87989" lon="4.65858">
        <ele>344</ele>
        <time>2018-09-07T09:31:29Z</time>
      </trkpt>
      <trkpt lat="45.87982" lon="4.65865">
        <ele>344</ele>
        <time>2018-09-07T09:31:33Z</time>
      </trkpt>
      <trkpt lat="45.8798" lon="4.65867">
        <ele>344</ele>
        <time>2018-09-07T09:31:34Z</time>
      </trkpt>
      <trkpt lat="45.87974" lon="4.65876">
        <ele>343</ele>
        <time>2018-09-07T09:31:37Z</time>
      </trkpt>
      <trkpt lat="45.87972" lon="4.6588">
        <ele>343</ele>
        <time>2018-09-07T09:31:38Z</time>
      </trkpt>
      <trkpt lat="45.87967" lon="4.65889">
        <ele>343</ele>
        <time>2018-09-07T09:31:41Z</time>
      </trkpt>
      <trkpt lat="45.87965" lon="4.65892">
        <ele>343</ele>
        <time>2018-09-07T09:31:42Z</time>
      </trkpt>
      <trkpt lat="45.8796" lon="4.65899">
        <ele>343</ele>
        <time>2018-09-07T09:31:44Z</time>
      </trkpt>
      <trkpt lat="45.87952" lon="4.65909">
        <ele>343</ele>
        <time>2018-09-07T09:31:45Z</time>
      </trkpt>
      <trkpt lat="45.87947" lon="4.65918">
        <ele>341</ele>
        <time>2018-09-07T09:31:49Z</time>
      </trkpt>
      <trkpt lat="45.87945" lon="4.65921">
        <ele>341</ele>
        <time>2018-09-07T09:31:50Z</time>
      </trkpt>
      <trkpt lat="45.8794" lon="4.65931">
        <ele>341</ele>
        <time>2018-09-07T09:31:53Z</time>
      </trkpt>
      <trkpt lat="45.87939" lon="4.65935">
        <ele>341</ele>
        <time>2018-09-07T09:31:54Z</time>
      </trkpt>
      <trkpt lat="45.87935" lon="4.65943">
        <ele>341</ele>
        <time>2018-09-07T09:31:56Z</time>
      </trkpt>
      <trkpt lat="45.87934" lon="4.65946">
        <ele>341</ele>
        <time>2018-09-07T09:31:57Z</time>
      </trkpt>
      <trkpt lat="45.87929" lon="4.65957">
        <ele>341</ele>
        <time>2018-09-07T09:32:00Z</time>
      </trkpt>
      <trkpt lat="45.87928" lon="4.65961">
        <ele>341</ele>
        <time>2018-09-07T09:32:01Z</time>
      </trkpt>
      <trkpt lat="45.87925" lon="4.65971">
        <ele>341</ele>
        <time>2018-09-07T09:32:04Z</time>
      </trkpt>
      <trkpt lat="45.87924" lon="4.65975">
        <ele>341</ele>
        <time>2018-09-07T09:32:05Z</time>
      </trkpt>
      <trkpt lat="45.87924" lon="4.65986">
        <ele>342</ele>
        <time>2018-09-07T09:32:08Z</time>
      </trkpt>
      <trkpt lat="45.87924" lon="4.65989">
        <ele>342</ele>
        <time>2018-09-07T09:32:09Z</time>
      </trkpt>
      <trkpt lat="45.87923" lon="4.66002">
        <ele>343</ele>
        <time>2018-09-07T09:32:13Z</time>
      </trkpt>
      <trkpt lat="45.87923" lon="4.66005">
        <ele>342</ele>
        <time>2018-09-07T09:32:14Z</time>
      </trkpt>
      <trkpt lat="45.87923" lon="4.66018">
        <ele>342</ele>
        <time>2018-09-07T09:32:18Z</time>
      </trkpt>
      <trkpt lat="45.87923" lon="4.6602">
        <ele>342</ele>
        <time>2018-09-07T09:32:19Z</time>
      </trkpt>
      <trkpt lat="45.87923" lon="4.66033">
        <ele>342</ele>
        <time>2018-09-07T09:32:23Z</time>
      </trkpt>
      <trkpt lat="45.87923" lon="4.66036">
        <ele>342</ele>
        <time>2018-09-07T09:32:24Z</time>
      </trkpt>
      <trkpt lat="45.87924" lon="4.66047">
        <ele>342</ele>
        <time>2018-09-07T09:32:28Z</time>
      </trkpt>
      <trkpt lat="45.87925" lon="4.6605">
        <ele>342</ele>
        <time>2018-09-07T09:32:29Z</time>
      </trkpt>
      <trkpt lat="45.87926" lon="4.66061">
        <ele>342</ele>
        <time>2018-09-07T09:32:33Z</time>
      </trkpt>
      <trkpt lat="45.87926" lon="4.66064">
        <ele>343</ele>
        <time>2018-09-07T09:32:34Z</time>
      </trkpt>
      <trkpt lat="45.87925" lon="4.66076">
        <ele>343</ele>
        <time>2018-09-07T09:32:38Z</time>
      </trkpt>
      <trkpt lat="45.87925" lon="4.66078">
        <ele>343</ele>
        <time>2018-09-07T09:32:39Z</time>
      </trkpt>
      <trkpt lat="45.87925" lon="4.66089">
        <ele>345</ele>
        <time>2018-09-07T09:32:43Z</time>
      </trkpt>
      <trkpt lat="45.87925" lon="4.66092">
        <ele>345</ele>
        <time>2018-09-07T09:32:44Z</time>
      </trkpt>
      <trkpt lat="45.87925" lon="4.66104">
        <ele>346</ele>
        <time>2018-09-07T09:32:48Z</time>
      </trkpt>
      <trkpt lat="45.87925" lon="4.66107">
        <ele>346</ele>
        <time>2018-09-07T09:32:49Z</time>
      </trkpt>
      <trkpt lat="45.87925" lon="4.66119">
        <ele>347</ele>
        <time>2018-09-07T09:32:53Z</time>
      </trkpt>
      <trkpt lat="45.87926" lon="4.66122">
        <ele>348</ele>
        <time>2018-09-07T09:32:54Z</time>
      </trkpt>
      <trkpt lat="45.87929" lon="4.66131">
        <ele>348</ele>
        <time>2018-09-07T09:32:57Z</time>
      </trkpt>
      <trkpt lat="45.87931" lon="4.66134">
        <ele>348</ele>
        <time>2018-09-07T09:32:58Z</time>
      </trkpt>
      <trkpt lat="45.87939" lon="4.66139">
        <ele>349</ele>
        <time>2018-09-07T09:33:02Z</time>
      </trkpt>
      <trkpt lat="45.87941" lon="4.66139">
        <ele>349</ele>
        <time>2018-09-07T09:33:03Z</time>
      </trkpt>
      <trkpt lat="45.87947" lon="4.66141">
        <ele>349</ele>
        <time>2018-09-07T09:33:06Z</time>
      </trkpt>
      <trkpt lat="45.8795" lon="4.66141">
        <ele>348</ele>
        <time>2018-09-07T09:33:07Z</time>
      </trkpt>
      <trkpt lat="45.87958" lon="4.66142">
        <ele>348</ele>
        <time>2018-09-07T09:33:10Z</time>
      </trkpt>
      <trkpt lat="45.87961" lon="4.66142">
        <ele>348</ele>
        <time>2018-09-07T09:33:11Z</time>
      </trkpt>
      <trkpt lat="45.87969" lon="4.66141">
        <ele>348</ele>
        <time>2018-09-07T09:33:14Z</time>
      </trkpt>
      <trkpt lat="45.87971" lon="4.66141">
        <ele>348</ele>
        <time>2018-09-07T09:33:15Z</time>
      </trkpt>
      <trkpt lat="45.87979" lon="4.6614">
        <ele>348</ele>
        <time>2018-09-07T09:33:18Z</time>
      </trkpt>
      <trkpt lat="45.87982" lon="4.6614">
        <ele>348</ele>
        <time>2018-09-07T09:33:19Z</time>
      </trkpt>
      <trkpt lat="45.87991" lon="4.6614">
        <ele>348</ele>
        <time>2018-09-07T09:33:20Z</time>
      </trkpt>
      <trkpt lat="45.87999" lon="4.66139">
        <ele>348</ele>
        <time>2018-09-07T09:33:24Z</time>
      </trkpt>
      <trkpt lat="45.88002" lon="4.66139">
        <ele>348</ele>
        <time>2018-09-07T09:33:25Z</time>
      </trkpt>
      <trkpt lat="45.88009" lon="4.6614">
        <ele>348</ele>
        <time>2018-09-07T09:33:26Z</time>
      </trkpt>
      <trkpt lat="45.88013" lon="4.6614">
        <ele>348</ele>
        <time>2018-09-07T09:33:27Z</time>
      </trkpt>
      <trkpt lat="45.88021" lon="4.66139">
        <ele>348</ele>
        <time>2018-09-07T09:33:29Z</time>
      </trkpt>
      <trkpt lat="45.88025" lon="4.66139">
        <ele>348</ele>
        <time>2018-09-07T09:33:30Z</time>
      </trkpt>
      <trkpt lat="45.88032" lon="4.66137">
        <ele>347</ele>
        <time>2018-09-07T09:33:32Z</time>
      </trkpt>
      <trkpt lat="45.88036" lon="4.66136">
        <ele>347</ele>
        <time>2018-09-07T09:33:33Z</time>
      </trkpt>
      <trkpt lat="45.88043" lon="4.66135">
        <ele>347</ele>
        <time>2018-09-07T09:33:36Z</time>
      </trkpt>
      <trkpt lat="45.88046" lon="4.66135">
        <ele>347</ele>
        <time>2018-09-07T09:33:37Z</time>
      </trkpt>
      <trkpt lat="45.88055" lon="4.66134">
        <ele>347</ele>
        <time>2018-09-07T09:33:40Z</time>
      </trkpt>
      <trkpt lat="45.88058" lon="4.66133">
        <ele>347</ele>
        <time>2018-09-07T09:33:41Z</time>
      </trkpt>
      <trkpt lat="45.88064" lon="4.66133">
        <ele>347</ele>
        <time>2018-09-07T09:33:43Z</time>
      </trkpt>
      <trkpt lat="45.88072" lon="4.66133">
        <ele>348</ele>
        <time>2018-09-07T09:33:44Z</time>
      </trkpt>
      <trkpt lat="45.8808" lon="4.66133">
        <ele>348</ele>
        <time>2018-09-07T09:33:46Z</time>
      </trkpt>
      <trkpt lat="45.88084" lon="4.66133">
        <ele>348</ele>
        <time>2018-09-07T09:33:47Z</time>
      </trkpt>
      <trkpt lat="45.8809" lon="4.66132">
        <ele>348</ele>
        <time>2018-09-07T09:33:50Z</time>
      </trkpt>
      <trkpt lat="45.88093" lon="4.66132">
        <ele>348</ele>
        <time>2018-09-07T09:33:51Z</time>
      </trkpt>
      <trkpt lat="45.88098" lon="4.66131">
        <ele>348</ele>
        <time>2018-09-07T09:33:53Z</time>
      </trkpt>
      <trkpt lat="45.88107" lon="4.66131">
        <ele>348</ele>
        <time>2018-09-07T09:33:54Z</time>
      </trkpt>
      <trkpt lat="45.88114" lon="4.66131">
        <ele>348</ele>
        <time>2018-09-07T09:33:57Z</time>
      </trkpt>
      <trkpt lat="45.88117" lon="4.6613">
        <ele>348</ele>
        <time>2018-09-07T09:33:58Z</time>
      </trkpt>
      <trkpt lat="45.88124" lon="4.66128">
        <ele>348</ele>
        <time>2018-09-07T09:34:01Z</time>
      </trkpt>
      <trkpt lat="45.88127" lon="4.66128">
        <ele>348</ele>
        <time>2018-09-07T09:34:02Z</time>
      </trkpt>
      <trkpt lat="45.88133" lon="4.66127">
        <ele>349</ele>
        <time>2018-09-07T09:34:04Z</time>
      </trkpt>
      <trkpt lat="45.88137" lon="4.66127">
        <ele>349</ele>
        <time>2018-09-07T09:34:05Z</time>
      </trkpt>
      <trkpt lat="45.88143" lon="4.66128">
        <ele>349</ele>
        <time>2018-09-07T09:34:07Z</time>
      </trkpt>
      <trkpt lat="45.88146" lon="4.66128">
        <ele>349</ele>
        <time>2018-09-07T09:34:08Z</time>
      </trkpt>
      <trkpt lat="45.8815" lon="4.66128">
        <ele>349</ele>
        <time>2018-09-07T09:34:09Z</time>
      </trkpt>
      <trkpt lat="45.8816" lon="4.66129">
        <ele>349</ele>
        <time>2018-09-07T09:34:10Z</time>
      </trkpt>
      <trkpt lat="45.88166" lon="4.66128">
        <ele>349</ele>
        <time>2018-09-07T09:34:13Z</time>
      </trkpt>
      <trkpt lat="45.88174" lon="4.66128">
        <ele>350</ele>
        <time>2018-09-07T09:34:14Z</time>
      </trkpt>
      <trkpt lat="45.88182" lon="4.66127">
        <ele>350</ele>
        <time>2018-09-07T09:34:17Z</time>
      </trkpt>
      <trkpt lat="45.88184" lon="4.66127">
        <ele>350</ele>
        <time>2018-09-07T09:34:18Z</time>
      </trkpt>
      <trkpt lat="45.88191" lon="4.66128">
        <ele>350</ele>
        <time>2018-09-07T09:34:21Z</time>
      </trkpt>
      <trkpt lat="45.88194" lon="4.66128">
        <ele>350</ele>
        <time>2018-09-07T09:34:22Z</time>
      </trkpt>
      <trkpt lat="45.88202" lon="4.66128">
        <ele>349</ele>
        <time>2018-09-07T09:34:25Z</time>
      </trkpt>
      <trkpt lat="45.88204" lon="4.66127">
        <ele>349</ele>
        <time>2018-09-07T09:34:26Z</time>
      </trkpt>
      <trkpt lat="45.88213" lon="4.66128">
        <ele>349</ele>
        <time>2018-09-07T09:34:29Z</time>
      </trkpt>
      <trkpt lat="45.88216" lon="4.66129">
        <ele>349</ele>
        <time>2018-09-07T09:34:30Z</time>
      </trkpt>
      <trkpt lat="45.88224" lon="4.6613">
        <ele>350</ele>
        <time>2018-09-07T09:34:33Z</time>
      </trkpt>
      <trkpt lat="45.88227" lon="4.66131">
        <ele>350</ele>
        <time>2018-09-07T09:34:34Z</time>
      </trkpt>
      <trkpt lat="45.88235" lon="4.66133">
        <ele>350</ele>
        <time>2018-09-07T09:34:37Z</time>
      </trkpt>
      <trkpt lat="45.88238" lon="4.66133">
        <ele>350</ele>
        <time>2018-09-07T09:34:38Z</time>
      </trkpt>
      <trkpt lat="45.88246" lon="4.66135">
        <ele>350</ele>
        <time>2018-09-07T09:34:41Z</time>
      </trkpt>
      <trkpt lat="45.88249" lon="4.66135">
        <ele>350</ele>
        <time>2018-09-07T09:34:42Z</time>
      </trkpt>
      <trkpt lat="45.88257" lon="4.66135">
        <ele>352</ele>
        <time>2018-09-07T09:34:45Z</time>
      </trkpt>
      <trkpt lat="45.8826" lon="4.66135">
        <ele>352</ele>
        <time>2018-09-07T09:34:46Z</time>
      </trkpt>
      <trkpt lat="45.88268" lon="4.66136">
        <ele>352</ele>
        <time>2018-09-07T09:34:49Z</time>
      </trkpt>
      <trkpt lat="45.88271" lon="4.66136">
        <ele>352</ele>
        <time>2018-09-07T09:34:50Z</time>
      </trkpt>
      <trkpt lat="45.88279" lon="4.66136">
        <ele>352</ele>
        <time>2018-09-07T09:34:53Z</time>
      </trkpt>
      <trkpt lat="45.88282" lon="4.66137">
        <ele>352</ele>
        <time>2018-09-07T09:34:54Z</time>
      </trkpt>
      <trkpt lat="45.8829" lon="4.66137">
        <ele>352</ele>
        <time>2018-09-07T09:34:57Z</time>
      </trkpt>
      <trkpt lat="45.88293" lon="4.66138">
        <ele>352</ele>
        <time>2018-09-07T09:34:58Z</time>
      </trkpt>
      <trkpt lat="45.88301" lon="4.66138">
        <ele>353</ele>
        <time>2018-09-07T09:35:01Z</time>
      </trkpt>
      <trkpt lat="45.88303" lon="4.66139">
        <ele>353</ele>
        <time>2018-09-07T09:35:02Z</time>
      </trkpt>
      <trkpt lat="45.88311" lon="4.66139">
        <ele>353</ele>
        <time>2018-09-07T09:35:05Z</time>
      </trkpt>
      <trkpt lat="45.88313" lon="4.66139">
        <ele>353</ele>
        <time>2018-09-07T09:35:06Z</time>
      </trkpt>
      <trkpt lat="45.88321" lon="4.6614">
        <ele>354</ele>
        <time>2018-09-07T09:35:09Z</time>
      </trkpt>
      <trkpt lat="45.88323" lon="4.66139">
        <ele>354</ele>
        <time>2018-09-07T09:35:10Z</time>
      </trkpt>
      <trkpt lat="45.8833" lon="4.6614">
        <ele>354</ele>
        <time>2018-09-07T09:35:13Z</time>
      </trkpt>
      <trkpt lat="45.88332" lon="4.6614">
        <ele>354</ele>
        <time>2018-09-07T09:35:14Z</time>
      </trkpt>
      <trkpt lat="45.8834" lon="4.66142">
        <ele>357</ele>
        <time>2018-09-07T09:35:18Z</time>
      </trkpt>
      <trkpt lat="45.88343" lon="4.66143">
        <ele>357</ele>
        <time>2018-09-07T09:35:19Z</time>
      </trkpt>
      <trkpt lat="45.88351" lon="4.66142">
        <ele>357</ele>
        <time>2018-09-07T09:35:23Z</time>
      </trkpt>
      <trkpt lat="45.88353" lon="4.66142">
        <ele>357</ele>
        <time>2018-09-07T09:35:24Z</time>
      </trkpt>
      <trkpt lat="45.88361" lon="4.66142">
        <ele>357</ele>
        <time>2018-09-07T09:35:27Z</time>
      </trkpt>
      <trkpt lat="45.88363" lon="4.66142">
        <ele>357</ele>
        <time>2018-09-07T09:35:28Z</time>
      </trkpt>
      <trkpt lat="45.88371" lon="4.66142">
        <ele>357</ele>
        <time>2018-09-07T09:35:31Z</time>
      </trkpt>
      <trkpt lat="45.88373" lon="4.66142">
        <ele>357</ele>
        <time>2018-09-07T09:35:32Z</time>
      </trkpt>
      <trkpt lat="45.88382" lon="4.66142">
        <ele>357</ele>
        <time>2018-09-07T09:35:36Z</time>
      </trkpt>
      <trkpt lat="45.88384" lon="4.66142">
        <ele>357</ele>
        <time>2018-09-07T09:35:37Z</time>
      </trkpt>
      <trkpt lat="45.88393" lon="4.66141">
        <ele>358</ele>
        <time>2018-09-07T09:35:41Z</time>
      </trkpt>
      <trkpt lat="45.88395" lon="4.66141">
        <ele>358</ele>
        <time>2018-09-07T09:35:42Z</time>
      </trkpt>
      <trkpt lat="45.88403" lon="4.66141">
        <ele>358</ele>
        <time>2018-09-07T09:35:46Z</time>
      </trkpt>
      <trkpt lat="45.88406" lon="4.66141">
        <ele>358</ele>
        <time>2018-09-07T09:35:47Z</time>
      </trkpt>
      <trkpt lat="45.88414" lon="4.66142">
        <ele>359</ele>
        <time>2018-09-07T09:35:51Z</time>
      </trkpt>
      <trkpt lat="45.88416" lon="4.66142">
        <ele>359</ele>
        <time>2018-09-07T09:35:52Z</time>
      </trkpt>
      <trkpt lat="45.88424" lon="4.66143">
        <ele>361</ele>
        <time>2018-09-07T09:35:56Z</time>
      </trkpt>
      <trkpt lat="45.88426" lon="4.66143">
        <ele>361</ele>
        <time>2018-09-07T09:35:57Z</time>
      </trkpt>
      <trkpt lat="45.88435" lon="4.66144">
        <ele>361</ele>
        <time>2018-09-07T09:36:02Z</time>
      </trkpt>
      <trkpt lat="45.88436" lon="4.66145">
        <ele>361</ele>
        <time>2018-09-07T09:36:03Z</time>
      </trkpt>
      <trkpt lat="45.88444" lon="4.66146">
        <ele>361</ele>
        <time>2018-09-07T09:36:08Z</time>
      </trkpt>
      <trkpt lat="45.88446" lon="4.66146">
        <ele>361</ele>
        <time>2018-09-07T09:36:09Z</time>
      </trkpt>
      <trkpt lat="45.88454" lon="4.66148">
        <ele>361</ele>
        <time>2018-09-07T09:36:14Z</time>
      </trkpt>
      <trkpt lat="45.88456" lon="4.66149">
        <ele>361</ele>
        <time>2018-09-07T09:36:15Z</time>
      </trkpt>
      <trkpt lat="45.88464" lon="4.66153">
        <ele>362</ele>
        <time>2018-09-07T09:36:19Z</time>
      </trkpt>
      <trkpt lat="45.88466" lon="4.66154">
        <ele>362</ele>
        <time>2018-09-07T09:36:20Z</time>
      </trkpt>
      <trkpt lat="45.88474" lon="4.66156">
        <ele>362</ele>
        <time>2018-09-07T09:36:25Z</time>
      </trkpt>
      <trkpt lat="45.88475" lon="4.66156">
        <ele>362</ele>
        <time>2018-09-07T09:36:26Z</time>
      </trkpt>
      <trkpt lat="45.88483" lon="4.66162">
        <ele>364</ele>
        <time>2018-09-07T09:36:32Z</time>
      </trkpt>
      <trkpt lat="45.88484" lon="4.66163">
        <ele>364</ele>
        <time>2018-09-07T09:36:33Z</time>
      </trkpt>
      <trkpt lat="45.88492" lon="4.66168">
        <ele>368</ele>
        <time>2018-09-07T09:36:37Z</time>
      </trkpt>
      <trkpt lat="45.88493" lon="4.6617">
        <ele>368</ele>
        <time>2018-09-07T09:36:38Z</time>
      </trkpt>
      <trkpt lat="45.885" lon="4.66175">
        <ele>368</ele>
        <time>2018-09-07T09:36:42Z</time>
      </trkpt>
      <trkpt lat="45.88502" lon="4.66177">
        <ele>368</ele>
        <time>2018-09-07T09:36:43Z</time>
      </trkpt>
      <trkpt lat="45.88508" lon="4.66182">
        <ele>369</ele>
        <time>2018-09-07T09:36:47Z</time>
      </trkpt>
      <trkpt lat="45.8851" lon="4.66183">
        <ele>369</ele>
        <time>2018-09-07T09:36:48Z</time>
      </trkpt>
      <trkpt lat="45.88518" lon="4.66188">
        <ele>369</ele>
        <time>2018-09-07T09:36:53Z</time>
      </trkpt>
      <trkpt lat="45.88519" lon="4.66189">
        <ele>369</ele>
        <time>2018-09-07T09:36:54Z</time>
      </trkpt>
      <trkpt lat="45.88527" lon="4.66193">
        <ele>369</ele>
        <time>2018-09-07T09:36:58Z</time>
      </trkpt>
      <trkpt lat="45.88528" lon="4.66194">
        <ele>370</ele>
        <time>2018-09-07T09:36:59Z</time>
      </trkpt>
      <trkpt lat="45.88534" lon="4.66199">
        <ele>370</ele>
        <time>2018-09-07T09:37:03Z</time>
      </trkpt>
      <trkpt lat="45.88536" lon="4.662">
        <ele>370</ele>
        <time>2018-09-07T09:37:04Z</time>
      </trkpt>
      <trkpt lat="45.88542" lon="4.66207">
        <ele>370</ele>
        <time>2018-09-07T09:37:08Z</time>
      </trkpt>
      <trkpt lat="45.88544" lon="4.66209">
        <ele>370</ele>
        <time>2018-09-07T09:37:09Z</time>
      </trkpt>
      <trkpt lat="45.88551" lon="4.66214">
        <ele>370</ele>
        <time>2018-09-07T09:37:13Z</time>
      </trkpt>
      <trkpt lat="45.88552" lon="4.66215">
        <ele>370</ele>
        <time>2018-09-07T09:37:14Z</time>
      </trkpt>
      <trkpt lat="45.88559" lon="4.66221">
        <ele>370</ele>
        <time>2018-09-07T09:37:18Z</time>
      </trkpt>
      <trkpt lat="45.8856" lon="4.66222">
        <ele>370</ele>
        <time>2018-09-07T09:37:19Z</time>
      </trkpt>
      <trkpt lat="45.88567" lon="4.66228">
        <ele>370</ele>
        <time>2018-09-07T09:37:23Z</time>
      </trkpt>
      <trkpt lat="45.88568" lon="4.6623">
        <ele>370</ele>
        <time>2018-09-07T09:37:24Z</time>
      </trkpt>
      <trkpt lat="45.88574" lon="4.66238">
        <ele>371</ele>
        <time>2018-09-07T09:37:28Z</time>
      </trkpt>
      <trkpt lat="45.88576" lon="4.6624">
        <ele>371</ele>
        <time>2018-09-07T09:37:29Z</time>
      </trkpt>
      <trkpt lat="45.88582" lon="4.66249">
        <ele>371</ele>
        <time>2018-09-07T09:37:33Z</time>
      </trkpt>
      <trkpt lat="45.88583" lon="4.66252">
        <ele>372</ele>
        <time>2018-09-07T09:37:34Z</time>
      </trkpt>
      <trkpt lat="45.88588" lon="4.66261">
        <ele>372</ele>
        <time>2018-09-07T09:37:38Z</time>
      </trkpt>
      <trkpt lat="45.8859" lon="4.66263">
        <ele>372</ele>
        <time>2018-09-07T09:37:39Z</time>
      </trkpt>
      <trkpt lat="45.88595" lon="4.66272">
        <ele>372</ele>
        <time>2018-09-07T09:37:42Z</time>
      </trkpt>
      <trkpt lat="45.88597" lon="4.66275">
        <ele>372</ele>
        <time>2018-09-07T09:37:43Z</time>
      </trkpt>
      <trkpt lat="45.88602" lon="4.66285">
        <ele>373</ele>
        <time>2018-09-07T09:37:47Z</time>
      </trkpt>
      <trkpt lat="45.88604" lon="4.66287">
        <ele>373</ele>
        <time>2018-09-07T09:37:48Z</time>
      </trkpt>
      <trkpt lat="45.88608" lon="4.66296">
        <ele>373</ele>
        <time>2018-09-07T09:37:51Z</time>
      </trkpt>
      <trkpt lat="45.88609" lon="4.66299">
        <ele>373</ele>
        <time>2018-09-07T09:37:52Z</time>
      </trkpt>
      <trkpt lat="45.88614" lon="4.66306">
        <ele>374</ele>
        <time>2018-09-07T09:37:55Z</time>
      </trkpt>
      <trkpt lat="45.88615" lon="4.66309">
        <ele>374</ele>
        <time>2018-09-07T09:37:56Z</time>
      </trkpt>
      <trkpt lat="45.8862" lon="4.66318">
        <ele>374</ele>
        <time>2018-09-07T09:37:59Z</time>
      </trkpt>
      <trkpt lat="45.88622" lon="4.66321">
        <ele>374</ele>
        <time>2018-09-07T09:38:00Z</time>
      </trkpt>
      <trkpt lat="45.88627" lon="4.66329">
        <ele>374</ele>
        <time>2018-09-07T09:38:03Z</time>
      </trkpt>
      <trkpt lat="45.88628" lon="4.66331">
        <ele>374</ele>
        <time>2018-09-07T09:38:04Z</time>
      </trkpt>
      <trkpt lat="45.88633" lon="4.66339">
        <ele>380</ele>
        <time>2018-09-07T09:38:07Z</time>
      </trkpt>
      <trkpt lat="45.88634" lon="4.66341">
        <ele>380</ele>
        <time>2018-09-07T09:38:08Z</time>
      </trkpt>
      <trkpt lat="45.88638" lon="4.66349">
        <ele>380</ele>
        <time>2018-09-07T09:38:11Z</time>
      </trkpt>
      <trkpt lat="45.8864" lon="4.66352">
        <ele>380</ele>
        <time>2018-09-07T09:38:12Z</time>
      </trkpt>
      <trkpt lat="45.88645" lon="4.66359">
        <ele>380</ele>
        <time>2018-09-07T09:38:15Z</time>
      </trkpt>
      <trkpt lat="45.88647" lon="4.66362">
        <ele>380</ele>
        <time>2018-09-07T09:38:16Z</time>
      </trkpt>
      <trkpt lat="45.88653" lon="4.66369">
        <ele>380</ele>
        <time>2018-09-07T09:38:19Z</time>
      </trkpt>
      <trkpt lat="45.88654" lon="4.66372">
        <ele>380</ele>
        <time>2018-09-07T09:38:20Z</time>
      </trkpt>
      <trkpt lat="45.8866" lon="4.66378">
        <ele>381</ele>
        <time>2018-09-07T09:38:23Z</time>
      </trkpt>
      <trkpt lat="45.88661" lon="4.6638">
        <ele>381</ele>
        <time>2018-09-07T09:38:24Z</time>
      </trkpt>
      <trkpt lat="45.88668" lon="4.66388">
        <ele>378</ele>
        <time>2018-09-07T09:38:28Z</time>
      </trkpt>
      <trkpt lat="45.88669" lon="4.6639">
        <ele>378</ele>
        <time>2018-09-07T09:38:29Z</time>
      </trkpt>
      <trkpt lat="45.88676" lon="4.66397">
        <ele>379</ele>
        <time>2018-09-07T09:38:33Z</time>
      </trkpt>
      <trkpt lat="45.88678" lon="4.66399">
        <ele>379</ele>
        <time>2018-09-07T09:38:34Z</time>
      </trkpt>
      <trkpt lat="45.88684" lon="4.66404">
        <ele>379</ele>
        <time>2018-09-07T09:38:37Z</time>
      </trkpt>
      <trkpt lat="45.88686" lon="4.66406">
        <ele>379</ele>
        <time>2018-09-07T09:38:38Z</time>
      </trkpt>
      <trkpt lat="45.88692" lon="4.66412">
        <ele>378</ele>
        <time>2018-09-07T09:38:42Z</time>
      </trkpt>
      <trkpt lat="45.88694" lon="4.66413">
        <ele>378</ele>
        <time>2018-09-07T09:38:43Z</time>
      </trkpt>
      <trkpt lat="45.88701" lon="4.6642">
        <ele>383</ele>
        <time>2018-09-07T09:38:47Z</time>
      </trkpt>
      <trkpt lat="45.88703" lon="4.66421">
        <ele>383</ele>
        <time>2018-09-07T09:38:48Z</time>
      </trkpt>
      <trkpt lat="45.8871" lon="4.66428">
        <ele>383</ele>
        <time>2018-09-07T09:38:52Z</time>
      </trkpt>
      <trkpt lat="45.88712" lon="4.66429">
        <ele>383</ele>
        <time>2018-09-07T09:38:53Z</time>
      </trkpt>
      <trkpt lat="45.88719" lon="4.66436">
        <ele>383</ele>
        <time>2018-09-07T09:38:57Z</time>
      </trkpt>
      <trkpt lat="45.8872" lon="4.66438">
        <ele>383</ele>
        <time>2018-09-07T09:38:58Z</time>
      </trkpt>
      <trkpt lat="45.88725" lon="4.66445">
        <ele>383</ele>
        <time>2018-09-07T09:39:01Z</time>
      </trkpt>
      <trkpt lat="45.88727" lon="4.66447">
        <ele>384</ele>
        <time>2018-09-07T09:39:02Z</time>
      </trkpt>
      <trkpt lat="45.88734" lon="4.66455">
        <ele>384</ele>
        <time>2018-09-07T09:39:06Z</time>
      </trkpt>
      <trkpt lat="45.88735" lon="4.66457">
        <ele>384</ele>
        <time>2018-09-07T09:39:07Z</time>
      </trkpt>
      <trkpt lat="45.88742" lon="4.66465">
        <ele>384</ele>
        <time>2018-09-07T09:39:11Z</time>
      </trkpt>
      <trkpt lat="45.88743" lon="4.66467">
        <ele>385</ele>
        <time>2018-09-07T09:39:12Z</time>
      </trkpt>
      <trkpt lat="45.88749" lon="4.66476">
        <ele>385</ele>
        <time>2018-09-07T09:39:16Z</time>
      </trkpt>
      <trkpt lat="45.8875" lon="4.66478">
        <ele>383</ele>
        <time>2018-09-07T09:39:17Z</time>
      </trkpt>
      <trkpt lat="45.88756" lon="4.66487">
        <ele>384</ele>
        <time>2018-09-07T09:39:21Z</time>
      </trkpt>
      <trkpt lat="45.88757" lon="4.66489">
        <ele>384</ele>
        <time>2018-09-07T09:39:22Z</time>
      </trkpt>
      <trkpt lat="45.88763" lon="4.66496">
        <ele>385</ele>
        <time>2018-09-07T09:39:26Z</time>
      </trkpt>
      <trkpt lat="45.88765" lon="4.66498">
        <ele>384</ele>
        <time>2018-09-07T09:39:27Z</time>
      </trkpt>
      <trkpt lat="45.8877" lon="4.66506">
        <ele>389</ele>
        <time>2018-09-07T09:39:31Z</time>
      </trkpt>
      <trkpt lat="45.88771" lon="4.66508">
        <ele>389</ele>
        <time>2018-09-07T09:39:32Z</time>
      </trkpt>
      <trkpt lat="45.88777" lon="4.66516">
        <ele>390</ele>
        <time>2018-09-07T09:39:36Z</time>
      </trkpt>
      <trkpt lat="45.88779" lon="4.66518">
        <ele>390</ele>
        <time>2018-09-07T09:39:37Z</time>
      </trkpt>
      <trkpt lat="45.88785" lon="4.66525">
        <ele>391</ele>
        <time>2018-09-07T09:39:41Z</time>
      </trkpt>
      <trkpt lat="45.88786" lon="4.66526">
        <ele>391</ele>
        <time>2018-09-07T09:39:42Z</time>
      </trkpt>
      <trkpt lat="45.88794" lon="4.66532">
        <ele>391</ele>
        <time>2018-09-07T09:39:47Z</time>
      </trkpt>
      <trkpt lat="45.88795" lon="4.66533">
        <ele>391</ele>
        <time>2018-09-07T09:39:48Z</time>
      </trkpt>
      <trkpt lat="45.88803" lon="4.66539">
        <ele>391</ele>
        <time>2018-09-07T09:39:53Z</time>
      </trkpt>
      <trkpt lat="45.88804" lon="4.66541">
        <ele>391</ele>
        <time>2018-09-07T09:39:54Z</time>
      </trkpt>
      <trkpt lat="45.88812" lon="4.66546">
        <ele>392</ele>
        <time>2018-09-07T09:39:59Z</time>
      </trkpt>
      <trkpt lat="45.88813" lon="4.66547">
        <ele>392</ele>
        <time>2018-09-07T09:40:00Z</time>
      </trkpt>
      <trkpt lat="45.8882" lon="4.66552">
        <ele>392</ele>
        <time>2018-09-07T09:40:04Z</time>
      </trkpt>
      <trkpt lat="45.88822" lon="4.66553">
        <ele>392</ele>
        <time>2018-09-07T09:40:05Z</time>
      </trkpt>
      <trkpt lat="45.8883" lon="4.66558">
        <ele>393</ele>
        <time>2018-09-07T09:40:10Z</time>
      </trkpt>
      <trkpt lat="45.88831" lon="4.66559">
        <ele>393</ele>
        <time>2018-09-07T09:40:11Z</time>
      </trkpt>
      <trkpt lat="45.88838" lon="4.66562">
        <ele>392</ele>
        <time>2018-09-07T09:40:15Z</time>
      </trkpt>
      <trkpt lat="45.8884" lon="4.66563">
        <ele>392</ele>
        <time>2018-09-07T09:40:16Z</time>
      </trkpt>
      <trkpt lat="45.88848" lon="4.66568">
        <ele>392</ele>
        <time>2018-09-07T09:40:20Z</time>
      </trkpt>
      <trkpt lat="45.88849" lon="4.66569">
        <ele>392</ele>
        <time>2018-09-07T09:40:21Z</time>
      </trkpt>
      <trkpt lat="45.88857" lon="4.66574">
        <ele>392</ele>
        <time>2018-09-07T09:40:26Z</time>
      </trkpt>
      <trkpt lat="45.88858" lon="4.66575">
        <ele>392</ele>
        <time>2018-09-07T09:40:27Z</time>
      </trkpt>
      <trkpt lat="45.88865" lon="4.66581">
        <ele>392</ele>
        <time>2018-09-07T09:40:32Z</time>
      </trkpt>
      <trkpt lat="45.88866" lon="4.66582">
        <ele>392</ele>
        <time>2018-09-07T09:40:33Z</time>
      </trkpt>
      <trkpt lat="45.88872" lon="4.6659">
        <ele>399</ele>
        <time>2018-09-07T09:40:38Z</time>
      </trkpt>
      <trkpt lat="45.88873" lon="4.66591">
        <ele>399</ele>
        <time>2018-09-07T09:40:39Z</time>
      </trkpt>
      <trkpt lat="45.88879" lon="4.66599">
        <ele>400</ele>
        <time>2018-09-07T09:40:44Z</time>
      </trkpt>
      <trkpt lat="45.8888" lon="4.666">
        <ele>400</ele>
        <time>2018-09-07T09:40:45Z</time>
      </trkpt>
      <trkpt lat="45.88885" lon="4.66609">
        <ele>400</ele>
        <time>2018-09-07T09:40:50Z</time>
      </trkpt>
      <trkpt lat="45.88886" lon="4.66611">
        <ele>400</ele>
        <time>2018-09-07T09:40:51Z</time>
      </trkpt>
      <trkpt lat="45.8889" lon="4.6662">
        <ele>401</ele>
        <time>2018-09-07T09:40:56Z</time>
      </trkpt>
      <trkpt lat="45.88891" lon="4.66622">
        <ele>401</ele>
        <time>2018-09-07T09:40:57Z</time>
      </trkpt>
      <trkpt lat="45.88896" lon="4.6663">
        <ele>401</ele>
        <time>2018-09-07T09:41:03Z</time>
      </trkpt>
      <trkpt lat="45.88897" lon="4.66632">
        <ele>401</ele>
        <time>2018-09-07T09:41:04Z</time>
      </trkpt>
      <trkpt lat="45.88903" lon="4.6664">
        <ele>402</ele>
        <time>2018-09-07T09:41:09Z</time>
      </trkpt>
      <trkpt lat="45.88904" lon="4.66642">
        <ele>402</ele>
        <time>2018-09-07T09:41:10Z</time>
      </trkpt>
      <trkpt lat="45.8891" lon="4.66649">
        <ele>403</ele>
        <time>2018-09-07T09:41:14Z</time>
      </trkpt>
      <trkpt lat="45.88912" lon="4.6665">
        <ele>403</ele>
        <time>2018-09-07T09:41:15Z</time>
      </trkpt>
      <trkpt lat="45.8892" lon="4.66656">
        <ele>403</ele>
        <time>2018-09-07T09:41:19Z</time>
      </trkpt>
      <trkpt lat="45.88921" lon="4.66657">
        <ele>404</ele>
        <time>2018-09-07T09:41:20Z</time>
      </trkpt>
      <trkpt lat="45.88928" lon="4.66663">
        <ele>403</ele>
        <time>2018-09-07T09:41:24Z</time>
      </trkpt>
      <trkpt lat="45.8893" lon="4.66664">
        <ele>403</ele>
        <time>2018-09-07T09:41:25Z</time>
      </trkpt>
      <trkpt lat="45.88937" lon="4.66671">
        <ele>408</ele>
        <time>2018-09-07T09:41:30Z</time>
      </trkpt>
      <trkpt lat="45.88939" lon="4.66672">
        <ele>408</ele>
        <time>2018-09-07T09:41:31Z</time>
      </trkpt>
      <trkpt lat="45.88945" lon="4.66677">
        <ele>408</ele>
        <time>2018-09-07T09:41:34Z</time>
      </trkpt>
      <trkpt lat="45.88947" lon="4.66678">
        <ele>408</ele>
        <time>2018-09-07T09:41:35Z</time>
      </trkpt>
      <trkpt lat="45.88953" lon="4.66682">
        <ele>408</ele>
        <time>2018-09-07T09:41:38Z</time>
      </trkpt>
      <trkpt lat="45.88956" lon="4.66684">
        <ele>408</ele>
        <time>2018-09-07T09:41:39Z</time>
      </trkpt>
      <trkpt lat="45.88963" lon="4.66689">
        <ele>408</ele>
        <time>2018-09-07T09:41:42Z</time>
      </trkpt>
      <trkpt lat="45.88965" lon="4.6669">
        <ele>408</ele>
        <time>2018-09-07T09:41:43Z</time>
      </trkpt>
      <trkpt lat="45.88973" lon="4.66695">
        <ele>409</ele>
        <time>2018-09-07T09:41:46Z</time>
      </trkpt>
      <trkpt lat="45.88975" lon="4.66696">
        <ele>409</ele>
        <time>2018-09-07T09:41:47Z</time>
      </trkpt>
      <trkpt lat="45.88983" lon="4.667">
        <ele>409</ele>
        <time>2018-09-07T09:41:50Z</time>
      </trkpt>
      <trkpt lat="45.88986" lon="4.66702">
        <ele>409</ele>
        <time>2018-09-07T09:41:51Z</time>
      </trkpt>
      <trkpt lat="45.88994" lon="4.66705">
        <ele>409</ele>
        <time>2018-09-07T09:41:54Z</time>
      </trkpt>
      <trkpt lat="45.88997" lon="4.66707">
        <ele>409</ele>
        <time>2018-09-07T09:41:55Z</time>
      </trkpt>
      <trkpt lat="45.89004" lon="4.66709">
        <ele>407</ele>
        <time>2018-09-07T09:41:58Z</time>
      </trkpt>
      <trkpt lat="45.89006" lon="4.6671">
        <ele>407</ele>
        <time>2018-09-07T09:41:59Z</time>
      </trkpt>
      <trkpt lat="45.89013" lon="4.66713">
        <ele>407</ele>
        <time>2018-09-07T09:42:02Z</time>
      </trkpt>
      <trkpt lat="45.89016" lon="4.66714">
        <ele>407</ele>
        <time>2018-09-07T09:42:03Z</time>
      </trkpt>
      <trkpt lat="45.89023" lon="4.66717">
        <ele>407</ele>
        <time>2018-09-07T09:42:05Z</time>
      </trkpt>
      <trkpt lat="45.89026" lon="4.66717">
        <ele>407</ele>
        <time>2018-09-07T09:42:06Z</time>
      </trkpt>
      <trkpt lat="45.89033" lon="4.66721">
        <ele>407</ele>
        <time>2018-09-07T09:42:09Z</time>
      </trkpt>
      <trkpt lat="45.89035" lon="4.66723">
        <ele>407</ele>
        <time>2018-09-07T09:42:10Z</time>
      </trkpt>
      <trkpt lat="45.89042" lon="4.66729">
        <ele>407</ele>
        <time>2018-09-07T09:42:13Z</time>
      </trkpt>
      <trkpt lat="45.89052" lon="4.66735">
        <ele>407</ele>
        <time>2018-09-07T09:42:14Z</time>
      </trkpt>
      <trkpt lat="45.8906" lon="4.66741">
        <ele>407</ele>
        <time>2018-09-07T09:42:18Z</time>
      </trkpt>
      <trkpt lat="45.89062" lon="4.66743">
        <ele>407</ele>
        <time>2018-09-07T09:42:19Z</time>
      </trkpt>
      <trkpt lat="45.89067" lon="4.66751">
        <ele>411</ele>
        <time>2018-09-07T09:42:22Z</time>
      </trkpt>
      <trkpt lat="45.89069" lon="4.66754">
        <ele>411</ele>
        <time>2018-09-07T09:42:23Z</time>
      </trkpt>
      <trkpt lat="45.89077" lon="4.66763">
        <ele>411</ele>
        <time>2018-09-07T09:42:24Z</time>
      </trkpt>
      <trkpt lat="45.89085" lon="4.66767">
        <ele>409</ele>
        <time>2018-09-07T09:42:26Z</time>
      </trkpt>
      <trkpt lat="45.89087" lon="4.66768">
        <ele>409</ele>
        <time>2018-09-07T09:42:27Z</time>
      </trkpt>
      <trkpt lat="45.89091" lon="4.66771">
        <ele>410</ele>
        <time>2018-09-07T09:42:29Z</time>
      </trkpt>
      <trkpt lat="45.89097" lon="4.66777">
        <ele>410</ele>
        <time>2018-09-07T09:42:30Z</time>
      </trkpt>
      <trkpt lat="45.89103" lon="4.66785">
        <ele>410</ele>
        <time>2018-09-07T09:42:33Z</time>
      </trkpt>
      <trkpt lat="45.89105" lon="4.66787">
        <ele>410</ele>
        <time>2018-09-07T09:42:34Z</time>
      </trkpt>
      <trkpt lat="45.8911" lon="4.66793">
        <ele>410</ele>
        <time>2018-09-07T09:42:37Z</time>
      </trkpt>
      <trkpt lat="45.89112" lon="4.66795">
        <ele>410</ele>
        <time>2018-09-07T09:42:38Z</time>
      </trkpt>
      <trkpt lat="45.89119" lon="4.668">
        <ele>410</ele>
        <time>2018-09-07T09:42:41Z</time>
      </trkpt>
      <trkpt lat="45.89127" lon="4.66805">
        <ele>410</ele>
        <time>2018-09-07T09:42:42Z</time>
      </trkpt>
      <trkpt lat="45.89132" lon="4.66815">
        <ele>411</ele>
        <time>2018-09-07T09:42:47Z</time>
      </trkpt>
      <trkpt lat="45.89131" lon="4.66817">
        <ele>411</ele>
        <time>2018-09-07T09:42:48Z</time>
      </trkpt>
      <trkpt lat="45.89126" lon="4.66827">
        <ele>411</ele>
        <time>2018-09-07T09:43:09Z</time>
      </trkpt>
      <trkpt lat="45.89127" lon="4.66828">
        <ele>411</ele>
        <time>2018-09-07T09:43:10Z</time>
      </trkpt>
      <trkpt lat="45.89126" lon="4.66829">
        <ele>411</ele>
        <time>2018-09-07T09:43:15Z</time>
      </trkpt>
      <trkpt lat="45.89126" lon="4.6683">
        <ele>411</ele>
        <time>2018-09-07T09:43:16Z</time>
      </trkpt>
      <trkpt lat="45.89124" lon="4.66823">
        <ele>411</ele>
        <time>2018-09-07T09:54:53Z</time>
      </trkpt>
      <trkpt lat="45.89132" lon="4.66817">
        <ele>411</ele>
        <time>2018-09-07T09:55:33.684Z</time>
      </trkpt>
      <trkpt lat="45.89126" lon="4.66826">
        <ele>411</ele>
        <time>2018-09-07T09:55:32Z</time>
      </trkpt>
      <trkpt lat="45.89125" lon="4.66827">
        <ele>411</ele>
        <time>2018-09-07T09:55:33Z</time>
      </trkpt>
      <trkpt lat="45.89123" lon="4.6683">
        <ele>412</ele>
        <time>2018-09-07T09:56:55Z</time>
      </trkpt>
      <trkpt lat="45.89131" lon="4.66817">
        <ele>411</ele>
        <time>2018-09-07T09:57:20.458Z</time>
      </trkpt>
      <trkpt lat="45.89126" lon="4.66825">
        <ele>411</ele>
        <time>2018-09-07T09:57:24.035Z</time>
      </trkpt>
      <trkpt lat="45.89125" lon="4.66827">
        <ele>411</ele>
        <time>2018-09-07T09:57:30.915Z</time>
      </trkpt>
      <trkpt lat="45.89134" lon="4.66828">
        <ele>411</ele>
        <time>2018-09-07T09:58:29Z</time>
      </trkpt>
      <trkpt lat="45.89136" lon="4.66829">
        <ele>411</ele>
        <time>2018-09-07T09:58:30Z</time>
      </trkpt>
      <trkpt lat="45.89143" lon="4.66834">
        <ele>414</ele>
        <time>2018-09-07T09:58:33Z</time>
      </trkpt>
      <trkpt lat="45.89152" lon="4.66845">
        <ele>414</ele>
        <time>2018-09-07T09:58:34Z</time>
      </trkpt>
      <trkpt lat="45.89154" lon="4.6685">
        <ele>414</ele>
        <time>2018-09-07T09:58:36Z</time>
      </trkpt>
      <trkpt lat="45.8916" lon="4.66863">
        <ele>414</ele>
        <time>2018-09-07T09:58:37Z</time>
      </trkpt>
      <trkpt lat="45.89158" lon="4.66871">
        <ele>414</ele>
        <time>2018-09-07T09:58:38Z</time>
      </trkpt>
      <trkpt lat="45.89156" lon="4.66874">
        <ele>414</ele>
        <time>2018-09-07T09:58:39Z</time>
      </trkpt>
      <trkpt lat="45.89155" lon="4.66884">
        <ele>414</ele>
        <time>2018-09-07T09:58:41Z</time>
      </trkpt>
      <trkpt lat="45.89155" lon="4.66891">
        <ele>414</ele>
        <time>2018-09-07T09:58:42Z</time>
      </trkpt>
      <trkpt lat="45.89157" lon="4.66899">
        <ele>415</ele>
        <time>2018-09-07T09:58:43Z</time>
      </trkpt>
      <trkpt lat="45.89158" lon="4.66903">
        <ele>415</ele>
        <time>2018-09-07T09:58:44Z</time>
      </trkpt>
      <trkpt lat="45.89162" lon="4.66911">
        <ele>415</ele>
        <time>2018-09-07T09:58:46Z</time>
      </trkpt>
      <trkpt lat="45.89165" lon="4.66916">
        <ele>415</ele>
        <time>2018-09-07T09:58:47Z</time>
      </trkpt>
      <trkpt lat="45.8917" lon="4.66926">
        <ele>415</ele>
        <time>2018-09-07T09:58:49Z</time>
      </trkpt>
      <trkpt lat="45.8917" lon="4.66928">
        <ele>415</ele>
        <time>2018-09-07T09:58:50Z</time>
      </trkpt>
      <trkpt lat="45.89172" lon="4.6694">
        <ele>415</ele>
        <time>2018-09-07T09:58:52Z</time>
      </trkpt>
      <trkpt lat="45.89174" lon="4.66945">
        <ele>415</ele>
        <time>2018-09-07T09:58:53Z</time>
      </trkpt>
      <trkpt lat="45.89178" lon="4.66956">
        <ele>415</ele>
        <time>2018-09-07T09:58:55Z</time>
      </trkpt>
      <trkpt lat="45.89179" lon="4.66962">
        <ele>415</ele>
        <time>2018-09-07T09:58:56Z</time>
      </trkpt>
      <trkpt lat="45.8918" lon="4.66968">
        <ele>415</ele>
        <time>2018-09-07T09:58:57Z</time>
      </trkpt>
      <trkpt lat="45.89182" lon="4.66974">
        <ele>415</ele>
        <time>2018-09-07T09:58:58Z</time>
      </trkpt>
      <trkpt lat="45.89184" lon="4.66986">
        <ele>414</ele>
        <time>2018-09-07T09:59:01Z</time>
      </trkpt>
      <trkpt lat="45.89185" lon="4.66993">
        <ele>414</ele>
        <time>2018-09-07T09:59:02Z</time>
      </trkpt>
      <trkpt lat="45.89187" lon="4.67005">
        <ele>413</ele>
        <time>2018-09-07T09:59:04Z</time>
      </trkpt>
      <trkpt lat="45.89188" lon="4.67009">
        <ele>413</ele>
        <time>2018-09-07T09:59:05Z</time>
      </trkpt>
      <trkpt lat="45.89191" lon="4.67021">
        <ele>413</ele>
        <time>2018-09-07T09:59:07Z</time>
      </trkpt>
      <trkpt lat="45.89194" lon="4.67027">
        <ele>413</ele>
        <time>2018-09-07T09:59:08Z</time>
      </trkpt>
      <trkpt lat="45.89195" lon="4.67034">
        <ele>413</ele>
        <time>2018-09-07T09:59:09Z</time>
      </trkpt>
      <trkpt lat="45.89196" lon="4.67041">
        <ele>413</ele>
        <time>2018-09-07T09:59:10Z</time>
      </trkpt>
      <trkpt lat="45.89198" lon="4.67048">
        <ele>412</ele>
        <time>2018-09-07T09:59:11Z</time>
      </trkpt>
      <trkpt lat="45.892" lon="4.67053">
        <ele>412</ele>
        <time>2018-09-07T09:59:12Z</time>
      </trkpt>
      <trkpt lat="45.89203" lon="4.67063">
        <ele>412</ele>
        <time>2018-09-07T09:59:14Z</time>
      </trkpt>
      <trkpt lat="45.89204" lon="4.67068">
        <ele>412</ele>
        <time>2018-09-07T09:59:15Z</time>
      </trkpt>
      <trkpt lat="45.89207" lon="4.67079">
        <ele>412</ele>
        <time>2018-09-07T09:59:17Z</time>
      </trkpt>
      <trkpt lat="45.89209" lon="4.67085">
        <ele>410</ele>
        <time>2018-09-07T09:59:18Z</time>
      </trkpt>
      <trkpt lat="45.89212" lon="4.67091">
        <ele>410</ele>
        <time>2018-09-07T09:59:19Z</time>
      </trkpt>
      <trkpt lat="45.89215" lon="4.67097">
        <ele>410</ele>
        <time>2018-09-07T09:59:20Z</time>
      </trkpt>
      <trkpt lat="45.89217" lon="4.67102">
        <ele>411</ele>
        <time>2018-09-07T09:59:21Z</time>
      </trkpt>
      <trkpt lat="45.8922" lon="4.67107">
        <ele>411</ele>
        <time>2018-09-07T09:59:22Z</time>
      </trkpt>
      <trkpt lat="45.89224" lon="4.67113">
        <ele>411</ele>
        <time>2018-09-07T09:59:23Z</time>
      </trkpt>
      <trkpt lat="45.89227" lon="4.6712">
        <ele>411</ele>
        <time>2018-09-07T09:59:24Z</time>
      </trkpt>
      <trkpt lat="45.89232" lon="4.6713">
        <ele>411</ele>
        <time>2018-09-07T09:59:26Z</time>
      </trkpt>
      <trkpt lat="45.89235" lon="4.67136">
        <ele>411</ele>
        <time>2018-09-07T09:59:27Z</time>
      </trkpt>
      <trkpt lat="45.89238" lon="4.67142">
        <ele>411</ele>
        <time>2018-09-07T09:59:28Z</time>
      </trkpt>
      <trkpt lat="45.89241" lon="4.67149">
        <ele>411</ele>
        <time>2018-09-07T09:59:29Z</time>
      </trkpt>
      <trkpt lat="45.89245" lon="4.67154">
        <ele>412</ele>
        <time>2018-09-07T09:59:30Z</time>
      </trkpt>
      <trkpt lat="45.89249" lon="4.67159">
        <ele>412</ele>
        <time>2018-09-07T09:59:31Z</time>
      </trkpt>
      <trkpt lat="45.89253" lon="4.67163">
        <ele>414</ele>
        <time>2018-09-07T09:59:32Z</time>
      </trkpt>
      <trkpt lat="45.89258" lon="4.67168">
        <ele>413</ele>
        <time>2018-09-07T09:59:33Z</time>
      </trkpt>
      <trkpt lat="45.89262" lon="4.67171">
        <ele>412</ele>
        <time>2018-09-07T09:59:34Z</time>
      </trkpt>
      <trkpt lat="45.89266" lon="4.67173">
        <ele>412</ele>
        <time>2018-09-07T09:59:35Z</time>
      </trkpt>
      <trkpt lat="45.89271" lon="4.67177">
        <ele>412</ele>
        <time>2018-09-07T09:59:36Z</time>
      </trkpt>
      <trkpt lat="45.89275" lon="4.67179">
        <ele>412</ele>
        <time>2018-09-07T09:59:37Z</time>
      </trkpt>
      <trkpt lat="45.89281" lon="4.67181">
        <ele>412</ele>
        <time>2018-09-07T09:59:38Z</time>
      </trkpt>
      <trkpt lat="45.89286" lon="4.67186">
        <ele>412</ele>
        <time>2018-09-07T09:59:39Z</time>
      </trkpt>
      <trkpt lat="45.89291" lon="4.67188">
        <ele>412</ele>
        <time>2018-09-07T09:59:40Z</time>
      </trkpt>
      <trkpt lat="45.89296" lon="4.67191">
        <ele>412</ele>
        <time>2018-09-07T09:59:41Z</time>
      </trkpt>
      <trkpt lat="45.89301" lon="4.67193">
        <ele>412</ele>
        <time>2018-09-07T09:59:42Z</time>
      </trkpt>
      <trkpt lat="45.89306" lon="4.67196">
        <ele>412</ele>
        <time>2018-09-07T09:59:43Z</time>
      </trkpt>
      <trkpt lat="45.89312" lon="4.67199">
        <ele>412</ele>
        <time>2018-09-07T09:59:44Z</time>
      </trkpt>
      <trkpt lat="45.89317" lon="4.67201">
        <ele>412</ele>
        <time>2018-09-07T09:59:45Z</time>
      </trkpt>
      <trkpt lat="45.89322" lon="4.67204">
        <ele>412</ele>
        <time>2018-09-07T09:59:46Z</time>
      </trkpt>
      <trkpt lat="45.89328" lon="4.67206">
        <ele>412</ele>
        <time>2018-09-07T09:59:47Z</time>
      </trkpt>
      <trkpt lat="45.89333" lon="4.67209">
        <ele>416</ele>
        <time>2018-09-07T09:59:48Z</time>
      </trkpt>
      <trkpt lat="45.89338" lon="4.67212">
        <ele>416</ele>
        <time>2018-09-07T09:59:49Z</time>
      </trkpt>
      <trkpt lat="45.89343" lon="4.67214">
        <ele>416</ele>
        <time>2018-09-07T09:59:50Z</time>
      </trkpt>
      <trkpt lat="45.89348" lon="4.67216">
        <ele>416</ele>
        <time>2018-09-07T09:59:51Z</time>
      </trkpt>
      <trkpt lat="45.89352" lon="4.6722">
        <ele>415</ele>
        <time>2018-09-07T09:59:52Z</time>
      </trkpt>
      <trkpt lat="45.89356" lon="4.67228">
        <ele>415</ele>
        <time>2018-09-07T09:59:53Z</time>
      </trkpt>
      <trkpt lat="45.89361" lon="4.67234">
        <ele>415</ele>
        <time>2018-09-07T09:59:54Z</time>
      </trkpt>
      <trkpt lat="45.89363" lon="4.67241">
        <ele>415</ele>
        <time>2018-09-07T09:59:55Z</time>
      </trkpt>
      <trkpt lat="45.89367" lon="4.67246">
        <ele>415</ele>
        <time>2018-09-07T09:59:56Z</time>
      </trkpt>
      <trkpt lat="45.89371" lon="4.67252">
        <ele>409</ele>
        <time>2018-09-07T09:59:57Z</time>
      </trkpt>
      <trkpt lat="45.89374" lon="4.67259">
        <ele>409</ele>
        <time>2018-09-07T09:59:58Z</time>
      </trkpt>
      <trkpt lat="45.89377" lon="4.67267">
        <ele>409</ele>
        <time>2018-09-07T09:59:59Z</time>
      </trkpt>
      <trkpt lat="45.89378" lon="4.67272">
        <ele>409</ele>
        <time>2018-09-07T10:00:04Z</time>
      </trkpt>
      <trkpt lat="45.89378" lon="4.67272">
        <ele>409</ele>
        <time>2018-09-07T10:00:05Z</time>
      </trkpt>
      <trkpt lat="45.89378" lon="4.67272">
        <ele>409</ele>
        <time>2018-09-07T10:00:11Z</time>
      </trkpt>
      <trkpt lat="45.89378" lon="4.67273">
        <ele>409</ele>
        <time>2018-09-07T10:00:12Z</time>
      </trkpt>
      <trkpt lat="45.89383" lon="4.67279">
        <ele>409</ele>
        <time>2018-09-07T10:00:17Z</time>
      </trkpt>
      <trkpt lat="45.89385" lon="4.67282">
        <ele>409</ele>
        <time>2018-09-07T10:00:18Z</time>
      </trkpt>
      <trkpt lat="45.89387" lon="4.67285">
        <ele>409</ele>
        <time>2018-09-07T10:00:19Z</time>
      </trkpt>
      <trkpt lat="45.89394" lon="4.67295">
        <ele>408</ele>
        <time>2018-09-07T10:00:20Z</time>
      </trkpt>
      <trkpt lat="45.89399" lon="4.67301">
        <ele>408</ele>
        <time>2018-09-07T10:00:21Z</time>
      </trkpt>
      <trkpt lat="45.89403" lon="4.67306">
        <ele>408</ele>
        <time>2018-09-07T10:00:22Z</time>
      </trkpt>
      <trkpt lat="45.89406" lon="4.6731">
        <ele>408</ele>
        <time>2018-09-07T10:00:23Z</time>
      </trkpt>
      <trkpt lat="45.89411" lon="4.67314">
        <ele>408</ele>
        <time>2018-09-07T10:00:24Z</time>
      </trkpt>
      <trkpt lat="45.89414" lon="4.67319">
        <ele>407</ele>
        <time>2018-09-07T10:00:25Z</time>
      </trkpt>
      <trkpt lat="45.89418" lon="4.67323">
        <ele>411</ele>
        <time>2018-09-07T10:00:26Z</time>
      </trkpt>
      <trkpt lat="45.89422" lon="4.67329">
        <ele>410</ele>
        <time>2018-09-07T10:00:27Z</time>
      </trkpt>
      <trkpt lat="45.89427" lon="4.67332">
        <ele>410</ele>
        <time>2018-09-07T10:00:28Z</time>
      </trkpt>
      <trkpt lat="45.89431" lon="4.67336">
        <ele>407</ele>
        <time>2018-09-07T10:00:29Z</time>
      </trkpt>
      <trkpt lat="45.89435" lon="4.67341">
        <ele>407</ele>
        <time>2018-09-07T10:00:30Z</time>
      </trkpt>
      <trkpt lat="45.8944" lon="4.67347">
        <ele>407</ele>
        <time>2018-09-07T10:00:31Z</time>
      </trkpt>
      <trkpt lat="45.89445" lon="4.67352">
        <ele>408</ele>
        <time>2018-09-07T10:00:32Z</time>
      </trkpt>
      <trkpt lat="45.8945" lon="4.67357">
        <ele>408</ele>
        <time>2018-09-07T10:00:33Z</time>
      </trkpt>
      <trkpt lat="45.89455" lon="4.67359">
        <ele>408</ele>
        <time>2018-09-07T10:00:34Z</time>
      </trkpt>
      <trkpt lat="45.8946" lon="4.67364">
        <ele>408</ele>
        <time>2018-09-07T10:00:35Z</time>
      </trkpt>
      <trkpt lat="45.89466" lon="4.67369">
        <ele>408</ele>
        <time>2018-09-07T10:00:36Z</time>
      </trkpt>
      <trkpt lat="45.89471" lon="4.67374">
        <ele>408</ele>
        <time>2018-09-07T10:00:37Z</time>
      </trkpt>
      <trkpt lat="45.89477" lon="4.67378">
        <ele>408</ele>
        <time>2018-09-07T10:00:38Z</time>
      </trkpt>
      <trkpt lat="45.89483" lon="4.67382">
        <ele>407</ele>
        <time>2018-09-07T10:00:39Z</time>
      </trkpt>
      <trkpt lat="45.89488" lon="4.67388">
        <ele>407</ele>
        <time>2018-09-07T10:00:40Z</time>
      </trkpt>
      <trkpt lat="45.89494" lon="4.67391">
        <ele>407</ele>
        <time>2018-09-07T10:00:41Z</time>
      </trkpt>
      <trkpt lat="45.89499" lon="4.67397">
        <ele>406</ele>
        <time>2018-09-07T10:00:42Z</time>
      </trkpt>
      <trkpt lat="45.89504" lon="4.67402">
        <ele>408</ele>
        <time>2018-09-07T10:00:43Z</time>
      </trkpt>
      <trkpt lat="45.8951" lon="4.67407">
        <ele>408</ele>
        <time>2018-09-07T10:00:44Z</time>
      </trkpt>
      <trkpt lat="45.89515" lon="4.6741">
        <ele>408</ele>
        <time>2018-09-07T10:00:45Z</time>
      </trkpt>
      <trkpt lat="45.8952" lon="4.67415">
        <ele>409</ele>
        <time>2018-09-07T10:00:46Z</time>
      </trkpt>
      <trkpt lat="45.89524" lon="4.67421">
        <ele>402</ele>
        <time>2018-09-07T10:00:47Z</time>
      </trkpt>
      <trkpt lat="45.8953" lon="4.67424">
        <ele>402</ele>
        <time>2018-09-07T10:00:48Z</time>
      </trkpt>
      <trkpt lat="45.89534" lon="4.67428">
        <ele>402</ele>
        <time>2018-09-07T10:00:49Z</time>
      </trkpt>
      <trkpt lat="45.89541" lon="4.67431">
        <ele>402</ele>
        <time>2018-09-07T10:00:50Z</time>
      </trkpt>
      <trkpt lat="45.89546" lon="4.67434">
        <ele>402</ele>
        <time>2018-09-07T10:00:51Z</time>
      </trkpt>
      <trkpt lat="45.89553" lon="4.67434">
        <ele>402</ele>
        <time>2018-09-07T10:00:52Z</time>
      </trkpt>
      <trkpt lat="45.89559" lon="4.67433">
        <ele>403</ele>
        <time>2018-09-07T10:00:53Z</time>
      </trkpt>
      <trkpt lat="45.89565" lon="4.67433">
        <ele>403</ele>
        <time>2018-09-07T10:00:54Z</time>
      </trkpt>
      <trkpt lat="45.89571" lon="4.67435">
        <ele>404</ele>
        <time>2018-09-07T10:00:55Z</time>
      </trkpt>
      <trkpt lat="45.89577" lon="4.67437">
        <ele>404</ele>
        <time>2018-09-07T10:00:56Z</time>
      </trkpt>
      <trkpt lat="45.89584" lon="4.67442">
        <ele>405</ele>
        <time>2018-09-07T10:00:57Z</time>
      </trkpt>
      <trkpt lat="45.89588" lon="4.67442">
        <ele>405</ele>
        <time>2018-09-07T10:00:58Z</time>
      </trkpt>
      <trkpt lat="45.89594" lon="4.67446">
        <ele>404</ele>
        <time>2018-09-07T10:00:59Z</time>
      </trkpt>
      <trkpt lat="45.89599" lon="4.67449">
        <ele>404</ele>
        <time>2018-09-07T10:01:00Z</time>
      </trkpt>
      <trkpt lat="45.89606" lon="4.67452">
        <ele>404</ele>
        <time>2018-09-07T10:01:01Z</time>
      </trkpt>
      <trkpt lat="45.89612" lon="4.67455">
        <ele>403</ele>
        <time>2018-09-07T10:01:02Z</time>
      </trkpt>
      <trkpt lat="45.89617" lon="4.67456">
        <ele>403</ele>
        <time>2018-09-07T10:01:03Z</time>
      </trkpt>
      <trkpt lat="45.89624" lon="4.67456">
        <ele>403</ele>
        <time>2018-09-07T10:01:04Z</time>
      </trkpt>
      <trkpt lat="45.8963" lon="4.67458">
        <ele>403</ele>
        <time>2018-09-07T10:01:05Z</time>
      </trkpt>
      <trkpt lat="45.89635" lon="4.67461">
        <ele>403</ele>
        <time>2018-09-07T10:01:06Z</time>
      </trkpt>
      <trkpt lat="45.89642" lon="4.67461">
        <ele>403</ele>
        <time>2018-09-07T10:01:07Z</time>
      </trkpt>
      <trkpt lat="45.89648" lon="4.67464">
        <ele>403</ele>
        <time>2018-09-07T10:01:08Z</time>
      </trkpt>
      <trkpt lat="45.89653" lon="4.67467">
        <ele>403</ele>
        <time>2018-09-07T10:01:09Z</time>
      </trkpt>
      <trkpt lat="45.89659" lon="4.6747">
        <ele>403</ele>
        <time>2018-09-07T10:01:10Z</time>
      </trkpt>
      <trkpt lat="45.89664" lon="4.67474">
        <ele>402</ele>
        <time>2018-09-07T10:01:11Z</time>
      </trkpt>
      <trkpt lat="45.89671" lon="4.67476">
        <ele>402</ele>
        <time>2018-09-07T10:01:12Z</time>
      </trkpt>
      <trkpt lat="45.89677" lon="4.67478">
        <ele>402</ele>
        <time>2018-09-07T10:01:13Z</time>
      </trkpt>
      <trkpt lat="45.89683" lon="4.6748">
        <ele>402</ele>
        <time>2018-09-07T10:01:14Z</time>
      </trkpt>
      <trkpt lat="45.8969" lon="4.67482">
        <ele>402</ele>
        <time>2018-09-07T10:01:15Z</time>
      </trkpt>
      <trkpt lat="45.89696" lon="4.67486">
        <ele>402</ele>
        <time>2018-09-07T10:01:16Z</time>
      </trkpt>
      <trkpt lat="45.89702" lon="4.67488">
        <ele>402</ele>
        <time>2018-09-07T10:01:17Z</time>
      </trkpt>
      <trkpt lat="45.89708" lon="4.67491">
        <ele>402</ele>
        <time>2018-09-07T10:01:18Z</time>
      </trkpt>
      <trkpt lat="45.89715" lon="4.67492">
        <ele>402</ele>
        <time>2018-09-07T10:01:19Z</time>
      </trkpt>
      <trkpt lat="45.8972" lon="4.67496">
        <ele>402</ele>
        <time>2018-09-07T10:01:20Z</time>
      </trkpt>
      <trkpt lat="45.89728" lon="4.67497">
        <ele>401</ele>
        <time>2018-09-07T10:01:21Z</time>
      </trkpt>
      <trkpt lat="45.89734" lon="4.67498">
        <ele>401</ele>
        <time>2018-09-07T10:01:22Z</time>
      </trkpt>
      <trkpt lat="45.89742" lon="4.67497">
        <ele>400</ele>
        <time>2018-09-07T10:01:23Z</time>
      </trkpt>
      <trkpt lat="45.89749" lon="4.67497">
        <ele>400</ele>
        <time>2018-09-07T10:01:24Z</time>
      </trkpt>
      <trkpt lat="45.89756" lon="4.67495">
        <ele>399</ele>
        <time>2018-09-07T10:01:25Z</time>
      </trkpt>
      <trkpt lat="45.89763" lon="4.67494">
        <ele>399</ele>
        <time>2018-09-07T10:01:26Z</time>
      </trkpt>
      <trkpt lat="45.8977" lon="4.67493">
        <ele>399</ele>
        <time>2018-09-07T10:01:27Z</time>
      </trkpt>
      <trkpt lat="45.89776" lon="4.67492">
        <ele>399</ele>
        <time>2018-09-07T10:01:28Z</time>
      </trkpt>
      <trkpt lat="45.89784" lon="4.6749">
        <ele>399</ele>
        <time>2018-09-07T10:01:29Z</time>
      </trkpt>
      <trkpt lat="45.89791" lon="4.67488">
        <ele>399</ele>
        <time>2018-09-07T10:01:30Z</time>
      </trkpt>
      <trkpt lat="45.89798" lon="4.67482">
        <ele>399</ele>
        <time>2018-09-07T10:01:31Z</time>
      </trkpt>
      <trkpt lat="45.89804" lon="4.67475">
        <ele>399</ele>
        <time>2018-09-07T10:01:32Z</time>
      </trkpt>
      <trkpt lat="45.89809" lon="4.67468">
        <ele>399</ele>
        <time>2018-09-07T10:01:33Z</time>
      </trkpt>
      <trkpt lat="45.89813" lon="4.67457">
        <ele>399</ele>
        <time>2018-09-07T10:01:34Z</time>
      </trkpt>
      <trkpt lat="45.89816" lon="4.67446">
        <ele>399</ele>
        <time>2018-09-07T10:01:35Z</time>
      </trkpt>
      <trkpt lat="45.89818" lon="4.67436">
        <ele>399</ele>
        <time>2018-09-07T10:01:36Z</time>
      </trkpt>
      <trkpt lat="45.8982" lon="4.67427">
        <ele>398</ele>
        <time>2018-09-07T10:01:37Z</time>
      </trkpt>
      <trkpt lat="45.89821" lon="4.67417">
        <ele>398</ele>
        <time>2018-09-07T10:01:38Z</time>
      </trkpt>
      <trkpt lat="45.89824" lon="4.67408">
        <ele>401</ele>
        <time>2018-09-07T10:01:39Z</time>
      </trkpt>
      <trkpt lat="45.89826" lon="4.674">
        <ele>402</ele>
        <time>2018-09-07T10:01:40Z</time>
      </trkpt>
      <trkpt lat="45.89829" lon="4.67391">
        <ele>403</ele>
        <time>2018-09-07T10:01:41Z</time>
      </trkpt>
      <trkpt lat="45.89833" lon="4.67383">
        <ele>404</ele>
        <time>2018-09-07T10:01:42Z</time>
      </trkpt>
      <trkpt lat="45.89839" lon="4.67376">
        <ele>398</ele>
        <time>2018-09-07T10:01:43Z</time>
      </trkpt>
      <trkpt lat="45.89845" lon="4.67368">
        <ele>399</ele>
        <time>2018-09-07T10:01:44Z</time>
      </trkpt>
      <trkpt lat="45.8985" lon="4.67363">
        <ele>399</ele>
        <time>2018-09-07T10:01:45Z</time>
      </trkpt>
      <trkpt lat="45.89856" lon="4.67358">
        <ele>399</ele>
        <time>2018-09-07T10:01:46Z</time>
      </trkpt>
      <trkpt lat="45.89863" lon="4.67355">
        <ele>399</ele>
        <time>2018-09-07T10:01:47Z</time>
      </trkpt>
      <trkpt lat="45.89869" lon="4.67353">
        <ele>399</ele>
        <time>2018-09-07T10:01:48Z</time>
      </trkpt>
      <trkpt lat="45.89878" lon="4.6735">
        <ele>398</ele>
        <time>2018-09-07T10:01:49Z</time>
      </trkpt>
      <trkpt lat="45.89886" lon="4.67348">
        <ele>398</ele>
        <time>2018-09-07T10:01:50Z</time>
      </trkpt>
      <trkpt lat="45.89893" lon="4.6735">
        <ele>398</ele>
        <time>2018-09-07T10:01:51Z</time>
      </trkpt>
      <trkpt lat="45.89902" lon="4.6735">
        <ele>398</ele>
        <time>2018-09-07T10:01:52Z</time>
      </trkpt>
      <trkpt lat="45.89908" lon="4.67353">
        <ele>398</ele>
        <time>2018-09-07T10:01:53Z</time>
      </trkpt>
      <trkpt lat="45.89915" lon="4.67355">
        <ele>398</ele>
        <time>2018-09-07T10:01:54Z</time>
      </trkpt>
      <trkpt lat="45.89923" lon="4.67355">
        <ele>396</ele>
        <time>2018-09-07T10:01:55Z</time>
      </trkpt>
      <trkpt lat="45.8993" lon="4.67359">
        <ele>395</ele>
        <time>2018-09-07T10:01:56Z</time>
      </trkpt>
      <trkpt lat="45.89939" lon="4.67359">
        <ele>395</ele>
        <time>2018-09-07T10:01:57Z</time>
      </trkpt>
      <trkpt lat="45.89947" lon="4.67361">
        <ele>395</ele>
        <time>2018-09-07T10:01:58Z</time>
      </trkpt>
      <trkpt lat="45.89954" lon="4.67366">
        <ele>394</ele>
        <time>2018-09-07T10:01:59Z</time>
      </trkpt>
      <trkpt lat="45.89961" lon="4.67369">
        <ele>394</ele>
        <time>2018-09-07T10:02:00Z</time>
      </trkpt>
      <trkpt lat="45.89968" lon="4.67375">
        <ele>394</ele>
        <time>2018-09-07T10:02:01Z</time>
      </trkpt>
      <trkpt lat="45.89978" lon="4.67372">
        <ele>394</ele>
        <time>2018-09-07T10:02:02Z</time>
      </trkpt>
      <trkpt lat="45.89987" lon="4.67374">
        <ele>394</ele>
        <time>2018-09-07T10:02:03Z</time>
      </trkpt>
      <trkpt lat="45.89994" lon="4.67381">
        <ele>393</ele>
        <time>2018-09-07T10:02:04Z</time>
      </trkpt>
      <trkpt lat="45.90002" lon="4.67385">
        <ele>395</ele>
        <time>2018-09-07T10:02:05Z</time>
      </trkpt>
      <trkpt lat="45.90012" lon="4.67389">
        <ele>395</ele>
        <time>2018-09-07T10:02:06Z</time>
      </trkpt>
      <trkpt lat="45.90019" lon="4.67395">
        <ele>394</ele>
        <time>2018-09-07T10:02:07Z</time>
      </trkpt>
      <trkpt lat="45.90028" lon="4.67397">
        <ele>395</ele>
        <time>2018-09-07T10:02:08Z</time>
      </trkpt>
      <trkpt lat="45.90037" lon="4.67404">
        <ele>395</ele>
        <time>2018-09-07T10:02:09Z</time>
      </trkpt>
      <trkpt lat="45.90044" lon="4.6741">
        <ele>396</ele>
        <time>2018-09-07T10:02:10Z</time>
      </trkpt>
      <trkpt lat="45.90051" lon="4.6742">
        <ele>386</ele>
        <time>2018-09-07T10:02:11Z</time>
      </trkpt>
      <trkpt lat="45.90057" lon="4.67429">
        <ele>386</ele>
        <time>2018-09-07T10:02:12Z</time>
      </trkpt>
      <trkpt lat="45.90065" lon="4.67434">
        <ele>386</ele>
        <time>2018-09-07T10:02:13Z</time>
      </trkpt>
      <trkpt lat="45.9007" lon="4.67443">
        <ele>385</ele>
        <time>2018-09-07T10:02:14Z</time>
      </trkpt>
      <trkpt lat="45.90077" lon="4.67452">
        <ele>384</ele>
        <time>2018-09-07T10:02:15Z</time>
      </trkpt>
      <trkpt lat="45.90085" lon="4.67457">
        <ele>389</ele>
        <time>2018-09-07T10:02:16Z</time>
      </trkpt>
      <trkpt lat="45.90091" lon="4.67466">
        <ele>387</ele>
        <time>2018-09-07T10:02:17Z</time>
      </trkpt>
      <trkpt lat="45.90098" lon="4.67472">
        <ele>387</ele>
        <time>2018-09-07T10:02:18Z</time>
      </trkpt>
      <trkpt lat="45.90105" lon="4.67478">
        <ele>386</ele>
        <time>2018-09-07T10:02:19Z</time>
      </trkpt>
      <trkpt lat="45.90111" lon="4.67488">
        <ele>386</ele>
        <time>2018-09-07T10:02:20Z</time>
      </trkpt>
      <trkpt lat="45.90116" lon="4.67498">
        <ele>386</ele>
        <time>2018-09-07T10:02:21Z</time>
      </trkpt>
      <trkpt lat="45.90121" lon="4.67508">
        <ele>378</ele>
        <time>2018-09-07T10:02:22Z</time>
      </trkpt>
      <trkpt lat="45.90126" lon="4.67518">
        <ele>378</ele>
        <time>2018-09-07T10:02:23Z</time>
      </trkpt>
      <trkpt lat="45.90131" lon="4.67527">
        <ele>378</ele>
        <time>2018-09-07T10:02:24Z</time>
      </trkpt>
      <trkpt lat="45.90136" lon="4.67537">
        <ele>378</ele>
        <time>2018-09-07T10:02:25Z</time>
      </trkpt>
      <trkpt lat="45.9014" lon="4.67545">
        <ele>377</ele>
        <time>2018-09-07T10:02:26Z</time>
      </trkpt>
      <trkpt lat="45.90146" lon="4.67554">
        <ele>377</ele>
        <time>2018-09-07T10:02:27Z</time>
      </trkpt>
      <trkpt lat="45.90152" lon="4.67564">
        <ele>377</ele>
        <time>2018-09-07T10:02:28Z</time>
      </trkpt>
      <trkpt lat="45.90159" lon="4.67574">
        <ele>376</ele>
        <time>2018-09-07T10:02:29Z</time>
      </trkpt>
      <trkpt lat="45.90165" lon="4.67582">
        <ele>376</ele>
        <time>2018-09-07T10:02:30Z</time>
      </trkpt>
      <trkpt lat="45.90171" lon="4.67591">
        <ele>376</ele>
        <time>2018-09-07T10:02:31Z</time>
      </trkpt>
      <trkpt lat="45.90179" lon="4.67599">
        <ele>376</ele>
        <time>2018-09-07T10:02:32Z</time>
      </trkpt>
      <trkpt lat="45.90186" lon="4.67607">
        <ele>376</ele>
        <time>2018-09-07T10:02:33Z</time>
      </trkpt>
      <trkpt lat="45.90192" lon="4.67616">
        <ele>376</ele>
        <time>2018-09-07T10:02:34Z</time>
      </trkpt>
      <trkpt lat="45.90199" lon="4.67623">
        <ele>376</ele>
        <time>2018-09-07T10:02:35Z</time>
      </trkpt>
      <trkpt lat="45.90205" lon="4.6763">
        <ele>376</ele>
        <time>2018-09-07T10:02:36Z</time>
      </trkpt>
      <trkpt lat="45.90212" lon="4.67639">
        <ele>375</ele>
        <time>2018-09-07T10:02:37Z</time>
      </trkpt>
      <trkpt lat="45.90219" lon="4.67645">
        <ele>375</ele>
        <time>2018-09-07T10:02:38Z</time>
      </trkpt>
      <trkpt lat="45.90226" lon="4.67653">
        <ele>375</ele>
        <time>2018-09-07T10:02:39Z</time>
      </trkpt>
      <trkpt lat="45.90232" lon="4.6766">
        <ele>375</ele>
        <time>2018-09-07T10:02:40Z</time>
      </trkpt>
      <trkpt lat="45.9024" lon="4.67667">
        <ele>373</ele>
        <time>2018-09-07T10:02:41Z</time>
      </trkpt>
      <trkpt lat="45.90247" lon="4.67672">
        <ele>374</ele>
        <time>2018-09-07T10:02:42Z</time>
      </trkpt>
      <trkpt lat="45.90254" lon="4.67677">
        <ele>374</ele>
        <time>2018-09-07T10:02:43Z</time>
      </trkpt>
      <trkpt lat="45.90261" lon="4.67681">
        <ele>374</ele>
        <time>2018-09-07T10:02:44Z</time>
      </trkpt>
      <trkpt lat="45.90269" lon="4.67684">
        <ele>374</ele>
        <time>2018-09-07T10:02:45Z</time>
      </trkpt>
      <trkpt lat="45.90276" lon="4.67686">
        <ele>374</ele>
        <time>2018-09-07T10:02:46Z</time>
      </trkpt>
      <trkpt lat="45.90283" lon="4.67689">
        <ele>374</ele>
        <time>2018-09-07T10:02:47Z</time>
      </trkpt>
      <trkpt lat="45.90289" lon="4.67693">
        <ele>374</ele>
        <time>2018-09-07T10:02:48Z</time>
      </trkpt>
      <trkpt lat="45.90296" lon="4.67695">
        <ele>374</ele>
        <time>2018-09-07T10:02:49Z</time>
      </trkpt>
      <trkpt lat="45.90303" lon="4.67698">
        <ele>374</ele>
        <time>2018-09-07T10:02:50Z</time>
      </trkpt>
      <trkpt lat="45.9031" lon="4.677">
        <ele>374</ele>
        <time>2018-09-07T10:02:51Z</time>
      </trkpt>
      <trkpt lat="45.90317" lon="4.67704">
        <ele>374</ele>
        <time>2018-09-07T10:02:52Z</time>
      </trkpt>
      <trkpt lat="45.90324" lon="4.67707">
        <ele>374</ele>
        <time>2018-09-07T10:02:53Z</time>
      </trkpt>
      <trkpt lat="45.90331" lon="4.67709">
        <ele>373</ele>
        <time>2018-09-07T10:02:54Z</time>
      </trkpt>
      <trkpt lat="45.90339" lon="4.67711">
        <ele>372</ele>
        <time>2018-09-07T10:02:55Z</time>
      </trkpt>
      <trkpt lat="45.90347" lon="4.67714">
        <ele>372</ele>
        <time>2018-09-07T10:02:56Z</time>
      </trkpt>
      <trkpt lat="45.90355" lon="4.67716">
        <ele>371</ele>
        <time>2018-09-07T10:02:57Z</time>
      </trkpt>
      <trkpt lat="45.90363" lon="4.67718">
        <ele>371</ele>
        <time>2018-09-07T10:02:58Z</time>
      </trkpt>
      <trkpt lat="45.90371" lon="4.67721">
        <ele>371</ele>
        <time>2018-09-07T10:02:59Z</time>
      </trkpt>
      <trkpt lat="45.90379" lon="4.67723">
        <ele>370</ele>
        <time>2018-09-07T10:03:00Z</time>
      </trkpt>
      <trkpt lat="45.90387" lon="4.67725">
        <ele>370</ele>
        <time>2018-09-07T10:03:01Z</time>
      </trkpt>
      <trkpt lat="45.90395" lon="4.67727">
        <ele>369</ele>
        <time>2018-09-07T10:03:02Z</time>
      </trkpt>
      <trkpt lat="45.90403" lon="4.6773">
        <ele>369</ele>
        <time>2018-09-07T10:03:03Z</time>
      </trkpt>
      <trkpt lat="45.90411" lon="4.67733">
        <ele>368</ele>
        <time>2018-09-07T10:03:04Z</time>
      </trkpt>
      <trkpt lat="45.90419" lon="4.67737">
        <ele>366</ele>
        <time>2018-09-07T10:03:05Z</time>
      </trkpt>
      <trkpt lat="45.90428" lon="4.67741">
        <ele>366</ele>
        <time>2018-09-07T10:03:06Z</time>
      </trkpt>
      <trkpt lat="45.90436" lon="4.67744">
        <ele>366</ele>
        <time>2018-09-07T10:03:07Z</time>
      </trkpt>
      <trkpt lat="45.90444" lon="4.67747">
        <ele>367</ele>
        <time>2018-09-07T10:03:08Z</time>
      </trkpt>
      <trkpt lat="45.90452" lon="4.6775">
        <ele>367</ele>
        <time>2018-09-07T10:03:09Z</time>
      </trkpt>
      <trkpt lat="45.9046" lon="4.67752">
        <ele>364</ele>
        <time>2018-09-07T10:03:10Z</time>
      </trkpt>
      <trkpt lat="45.90467" lon="4.67756">
        <ele>364</ele>
        <time>2018-09-07T10:03:11Z</time>
      </trkpt>
      <trkpt lat="45.90474" lon="4.6776">
        <ele>364</ele>
        <time>2018-09-07T10:03:12Z</time>
      </trkpt>
      <trkpt lat="45.90482" lon="4.67763">
        <ele>364</ele>
        <time>2018-09-07T10:03:13Z</time>
      </trkpt>
      <trkpt lat="45.90491" lon="4.67765">
        <ele>364</ele>
        <time>2018-09-07T10:03:14Z</time>
      </trkpt>
      <trkpt lat="45.90498" lon="4.67768">
        <ele>364</ele>
        <time>2018-09-07T10:03:15Z</time>
      </trkpt>
      <trkpt lat="45.90505" lon="4.67771">
        <ele>364</ele>
        <time>2018-09-07T10:03:16Z</time>
      </trkpt>
      <trkpt lat="45.90513" lon="4.67773">
        <ele>365</ele>
        <time>2018-09-07T10:03:17Z</time>
      </trkpt>
      <trkpt lat="45.90519" lon="4.67775">
        <ele>365</ele>
        <time>2018-09-07T10:03:18Z</time>
      </trkpt>
      <trkpt lat="45.90526" lon="4.67778">
        <ele>365</ele>
        <time>2018-09-07T10:03:19Z</time>
      </trkpt>
      <trkpt lat="45.90533" lon="4.6778">
        <ele>365</ele>
        <time>2018-09-07T10:03:20Z</time>
      </trkpt>
      <trkpt lat="45.9054" lon="4.67782">
        <ele>365</ele>
        <time>2018-09-07T10:03:21Z</time>
      </trkpt>
      <trkpt lat="45.90546" lon="4.67783">
        <ele>365</ele>
        <time>2018-09-07T10:03:22Z</time>
      </trkpt>
      <trkpt lat="45.90552" lon="4.67784">
        <ele>365</ele>
        <time>2018-09-07T10:03:23Z</time>
      </trkpt>
      <trkpt lat="45.90558" lon="4.67785">
        <ele>365</ele>
        <time>2018-09-07T10:03:24Z</time>
      </trkpt>
      <trkpt lat="45.90562" lon="4.67788">
        <ele>365</ele>
        <time>2018-09-07T10:03:25Z</time>
      </trkpt>
      <trkpt lat="45.90568" lon="4.67789">
        <ele>365</ele>
        <time>2018-09-07T10:03:26Z</time>
      </trkpt>
      <trkpt lat="45.90572" lon="4.6779">
        <ele>365</ele>
        <time>2018-09-07T10:03:27Z</time>
      </trkpt>
      <trkpt lat="45.90577" lon="4.67791">
        <ele>366</ele>
        <time>2018-09-07T10:03:28Z</time>
      </trkpt>
      <trkpt lat="45.90586" lon="4.67793">
        <ele>367</ele>
        <time>2018-09-07T10:03:30Z</time>
      </trkpt>
      <trkpt lat="45.90591" lon="4.67792">
        <ele>367</ele>
        <time>2018-09-07T10:03:31Z</time>
      </trkpt>
      <trkpt lat="45.90595" lon="4.67792">
        <ele>367</ele>
        <time>2018-09-07T10:03:32Z</time>
      </trkpt>
      <trkpt lat="45.906" lon="4.67791">
        <ele>367</ele>
        <time>2018-09-07T10:03:33Z</time>
      </trkpt>
      <trkpt lat="45.90605" lon="4.67791">
        <ele>367</ele>
        <time>2018-09-07T10:03:34Z</time>
      </trkpt>
      <trkpt lat="45.9061" lon="4.67791">
        <ele>367</ele>
        <time>2018-09-07T10:03:35Z</time>
      </trkpt>
      <trkpt lat="45.90618" lon="4.67791">
        <ele>367</ele>
        <time>2018-09-07T10:03:37Z</time>
      </trkpt>
      <trkpt lat="45.90623" lon="4.67791">
        <ele>367</ele>
        <time>2018-09-07T10:03:38Z</time>
      </trkpt>
      <trkpt lat="45.90631" lon="4.67791">
        <ele>367</ele>
        <time>2018-09-07T10:03:40Z</time>
      </trkpt>
      <trkpt lat="45.90635" lon="4.67792">
        <ele>367</ele>
        <time>2018-09-07T10:03:41Z</time>
      </trkpt>
      <trkpt lat="45.90641" lon="4.67792">
        <ele>367</ele>
        <time>2018-09-07T10:03:43Z</time>
      </trkpt>
      <trkpt lat="45.90645" lon="4.67792">
        <ele>367</ele>
        <time>2018-09-07T10:03:44Z</time>
      </trkpt>
      <trkpt lat="45.90653" lon="4.67793">
        <ele>367</ele>
        <time>2018-09-07T10:03:46Z</time>
      </trkpt>
      <trkpt lat="45.90658" lon="4.67791">
        <ele>367</ele>
        <time>2018-09-07T10:03:47Z</time>
      </trkpt>
      <trkpt lat="45.90666" lon="4.67793">
        <ele>368</ele>
        <time>2018-09-07T10:03:49Z</time>
      </trkpt>
      <trkpt lat="45.9067" lon="4.67795">
        <ele>368</ele>
        <time>2018-09-07T10:03:50Z</time>
      </trkpt>
      <trkpt lat="45.90677" lon="4.67797">
        <ele>368</ele>
        <time>2018-09-07T10:03:52Z</time>
      </trkpt>
      <trkpt lat="45.90679" lon="4.67797">
        <ele>368</ele>
        <time>2018-09-07T10:03:53Z</time>
      </trkpt>
      <trkpt lat="45.90687" lon="4.67798">
        <ele>368</ele>
        <time>2018-09-07T10:03:56Z</time>
      </trkpt>
      <trkpt lat="45.90695" lon="4.678">
        <ele>368</ele>
        <time>2018-09-07T10:03:57Z</time>
      </trkpt>
      <trkpt lat="45.90701" lon="4.67803">
        <ele>368</ele>
        <time>2018-09-07T10:04:00Z</time>
      </trkpt>
      <trkpt lat="45.90708" lon="4.67806">
        <ele>368</ele>
        <time>2018-09-07T10:04:01Z</time>
      </trkpt>
      <trkpt lat="45.90716" lon="4.67809">
        <ele>368</ele>
        <time>2018-09-07T10:04:04Z</time>
      </trkpt>
      <trkpt lat="45.90719" lon="4.6781">
        <ele>369</ele>
        <time>2018-09-07T10:04:05Z</time>
      </trkpt>
      <trkpt lat="45.90726" lon="4.67813">
        <ele>369</ele>
        <time>2018-09-07T10:04:06Z</time>
      </trkpt>
      <trkpt lat="45.90729" lon="4.67814">
        <ele>369</ele>
        <time>2018-09-07T10:04:07Z</time>
      </trkpt>
      <trkpt lat="45.90737" lon="4.67817">
        <ele>369</ele>
        <time>2018-09-07T10:04:09Z</time>
      </trkpt>
      <trkpt lat="45.90741" lon="4.67818">
        <ele>369</ele>
        <time>2018-09-07T10:04:10Z</time>
      </trkpt>
      <trkpt lat="45.90748" lon="4.67821">
        <ele>370</ele>
        <time>2018-09-07T10:04:12Z</time>
      </trkpt>
      <trkpt lat="45.90752" lon="4.67823">
        <ele>370</ele>
        <time>2018-09-07T10:04:13Z</time>
      </trkpt>
      <trkpt lat="45.9076" lon="4.67825">
        <ele>369</ele>
        <time>2018-09-07T10:04:15Z</time>
      </trkpt>
      <trkpt lat="45.90764" lon="4.67826">
        <ele>369</ele>
        <time>2018-09-07T10:04:16Z</time>
      </trkpt>
      <trkpt lat="45.90771" lon="4.6783">
        <ele>369</ele>
        <time>2018-09-07T10:04:18Z</time>
      </trkpt>
      <trkpt lat="45.90775" lon="4.67832">
        <ele>369</ele>
        <time>2018-09-07T10:04:19Z</time>
      </trkpt>
      <trkpt lat="45.90781" lon="4.67834">
        <ele>371</ele>
        <time>2018-09-07T10:04:21Z</time>
      </trkpt>
      <trkpt lat="45.90786" lon="4.67836">
        <ele>371</ele>
        <time>2018-09-07T10:04:22Z</time>
      </trkpt>
      <trkpt lat="45.90793" lon="4.67838">
        <ele>371</ele>
        <time>2018-09-07T10:04:24Z</time>
      </trkpt>
      <trkpt lat="45.90797" lon="4.6784">
        <ele>371</ele>
        <time>2018-09-07T10:04:25Z</time>
      </trkpt>
      <trkpt lat="45.90805" lon="4.67844">
        <ele>371</ele>
        <time>2018-09-07T10:04:28Z</time>
      </trkpt>
      <trkpt lat="45.9081" lon="4.67846">
        <ele>371</ele>
        <time>2018-09-07T10:04:29Z</time>
      </trkpt>
      <trkpt lat="45.90818" lon="4.67846">
        <ele>370</ele>
        <time>2018-09-07T10:04:31Z</time>
      </trkpt>
      <trkpt lat="45.90823" lon="4.67847">
        <ele>370</ele>
        <time>2018-09-07T10:04:32Z</time>
      </trkpt>
      <trkpt lat="45.90832" lon="4.67849">
        <ele>370</ele>
        <time>2018-09-07T10:04:34Z</time>
      </trkpt>
      <trkpt lat="45.90836" lon="4.67851">
        <ele>370</ele>
        <time>2018-09-07T10:04:35Z</time>
      </trkpt>
      <trkpt lat="45.90841" lon="4.67853">
        <ele>370</ele>
        <time>2018-09-07T10:04:36Z</time>
      </trkpt>
      <trkpt lat="45.90845" lon="4.67853">
        <ele>370</ele>
        <time>2018-09-07T10:04:37Z</time>
      </trkpt>
      <trkpt lat="45.90849" lon="4.67855">
        <ele>370</ele>
        <time>2018-09-07T10:04:38Z</time>
      </trkpt>
      <trkpt lat="45.90854" lon="4.67856">
        <ele>370</ele>
        <time>2018-09-07T10:04:39Z</time>
      </trkpt>
      <trkpt lat="45.90859" lon="4.67858">
        <ele>370</ele>
        <time>2018-09-07T10:04:40Z</time>
      </trkpt>
      <trkpt lat="45.90864" lon="4.6786">
        <ele>370</ele>
        <time>2018-09-07T10:04:41Z</time>
      </trkpt>
      <trkpt lat="45.9087" lon="4.67862">
        <ele>370</ele>
        <time>2018-09-07T10:04:42Z</time>
      </trkpt>
      <trkpt lat="45.90874" lon="4.67865">
        <ele>370</ele>
        <time>2018-09-07T10:04:43Z</time>
      </trkpt>
      <trkpt lat="45.90879" lon="4.67868">
        <ele>370</ele>
        <time>2018-09-07T10:04:44Z</time>
      </trkpt>
      <trkpt lat="45.90884" lon="4.67868">
        <ele>370</ele>
        <time>2018-09-07T10:04:45Z</time>
      </trkpt>
      <trkpt lat="45.90892" lon="4.6787">
        <ele>370</ele>
        <time>2018-09-07T10:04:47Z</time>
      </trkpt>
      <trkpt lat="45.90897" lon="4.67871">
        <ele>370</ele>
        <time>2018-09-07T10:04:48Z</time>
      </trkpt>
      <trkpt lat="45.90904" lon="4.67876">
        <ele>370</ele>
        <time>2018-09-07T10:04:50Z</time>
      </trkpt>
      <trkpt lat="45.90908" lon="4.67877">
        <ele>370</ele>
        <time>2018-09-07T10:04:51Z</time>
      </trkpt>
      <trkpt lat="45.90917" lon="4.67879">
        <ele>370</ele>
        <time>2018-09-07T10:04:53Z</time>
      </trkpt>
      <trkpt lat="45.90921" lon="4.6788">
        <ele>369</ele>
        <time>2018-09-07T10:04:54Z</time>
      </trkpt>
      <trkpt lat="45.90929" lon="4.67882">
        <ele>369</ele>
        <time>2018-09-07T10:04:56Z</time>
      </trkpt>
      <trkpt lat="45.90932" lon="4.67884">
        <ele>369</ele>
        <time>2018-09-07T10:04:57Z</time>
      </trkpt>
      <trkpt lat="45.9094" lon="4.67889">
        <ele>370</ele>
        <time>2018-09-07T10:04:59Z</time>
      </trkpt>
      <trkpt lat="45.90944" lon="4.6789">
        <ele>370</ele>
        <time>2018-09-07T10:05:00Z</time>
      </trkpt>
      <trkpt lat="45.90952" lon="4.67894">
        <ele>370</ele>
        <time>2018-09-07T10:05:02Z</time>
      </trkpt>
      <trkpt lat="45.90955" lon="4.67896">
        <ele>370</ele>
        <time>2018-09-07T10:05:03Z</time>
      </trkpt>
      <trkpt lat="45.90963" lon="4.67899">
        <ele>370</ele>
        <time>2018-09-07T10:05:05Z</time>
      </trkpt>
      <trkpt lat="45.90967" lon="4.67901">
        <ele>370</ele>
        <time>2018-09-07T10:05:06Z</time>
      </trkpt>
      <trkpt lat="45.90974" lon="4.67905">
        <ele>370</ele>
        <time>2018-09-07T10:05:08Z</time>
      </trkpt>
      <trkpt lat="45.90978" lon="4.67907">
        <ele>370</ele>
        <time>2018-09-07T10:05:09Z</time>
      </trkpt>
      <trkpt lat="45.90983" lon="4.6791">
        <ele>371</ele>
        <time>2018-09-07T10:05:11Z</time>
      </trkpt>
      <trkpt lat="45.90988" lon="4.67913">
        <ele>371</ele>
        <time>2018-09-07T10:05:12Z</time>
      </trkpt>
      <trkpt lat="45.90995" lon="4.67917">
        <ele>372</ele>
        <time>2018-09-07T10:05:15Z</time>
      </trkpt>
      <trkpt lat="45.90998" lon="4.67919">
        <ele>372</ele>
        <time>2018-09-07T10:05:16Z</time>
      </trkpt>
      <trkpt lat="45.91" lon="4.6792">
        <ele>372</ele>
        <time>2018-09-07T10:05:17Z</time>
      </trkpt>
      <trkpt lat="45.91008" lon="4.67924">
        <ele>373</ele>
        <time>2018-09-07T10:05:18Z</time>
      </trkpt>
      <trkpt lat="45.91014" lon="4.67926">
        <ele>373</ele>
        <time>2018-09-07T10:05:20Z</time>
      </trkpt>
      <trkpt lat="45.91019" lon="4.67929">
        <ele>373</ele>
        <time>2018-09-07T10:05:21Z</time>
      </trkpt>
      <trkpt lat="45.91025" lon="4.67934">
        <ele>374</ele>
        <time>2018-09-07T10:05:24Z</time>
      </trkpt>
      <trkpt lat="45.91031" lon="4.67938">
        <ele>374</ele>
        <time>2018-09-07T10:05:25Z</time>
      </trkpt>
      <trkpt lat="45.91035" lon="4.6794">
        <ele>374</ele>
        <time>2018-09-07T10:05:27Z</time>
      </trkpt>
      <trkpt lat="45.91042" lon="4.67943">
        <ele>374</ele>
        <time>2018-09-07T10:05:28Z</time>
      </trkpt>
      <trkpt lat="45.91049" lon="4.67946">
        <ele>374</ele>
        <time>2018-09-07T10:05:30Z</time>
      </trkpt>
      <trkpt lat="45.91051" lon="4.67947">
        <ele>375</ele>
        <time>2018-09-07T10:05:31Z</time>
      </trkpt>
      <trkpt lat="45.91058" lon="4.67949">
        <ele>375</ele>
        <time>2018-09-07T10:05:33Z</time>
      </trkpt>
      <trkpt lat="45.9106" lon="4.6795">
        <ele>375</ele>
        <time>2018-09-07T10:05:34Z</time>
      </trkpt>
      <trkpt lat="45.91068" lon="4.67952">
        <ele>375</ele>
        <time>2018-09-07T10:05:37Z</time>
      </trkpt>
      <trkpt lat="45.9107" lon="4.67952">
        <ele>375</ele>
        <time>2018-09-07T10:05:38Z</time>
      </trkpt>
      <trkpt lat="45.91079" lon="4.67953">
        <ele>375</ele>
        <time>2018-09-07T10:05:41Z</time>
      </trkpt>
      <trkpt lat="45.91082" lon="4.67953">
        <ele>375</ele>
        <time>2018-09-07T10:05:42Z</time>
      </trkpt>
      <trkpt lat="45.9109" lon="4.67954">
        <ele>376</ele>
        <time>2018-09-07T10:05:45Z</time>
      </trkpt>
      <trkpt lat="45.91093" lon="4.67954">
        <ele>376</ele>
        <time>2018-09-07T10:05:46Z</time>
      </trkpt>
      <trkpt lat="45.91102" lon="4.67955">
        <ele>376</ele>
        <time>2018-09-07T10:05:49Z</time>
      </trkpt>
      <trkpt lat="45.91105" lon="4.67956">
        <ele>377</ele>
        <time>2018-09-07T10:05:50Z</time>
      </trkpt>
      <trkpt lat="45.91111" lon="4.67958">
        <ele>377</ele>
        <time>2018-09-07T10:05:52Z</time>
      </trkpt>
      <trkpt lat="45.91114" lon="4.67959">
        <ele>377</ele>
        <time>2018-09-07T10:05:53Z</time>
      </trkpt>
      <trkpt lat="45.9112" lon="4.67961">
        <ele>377</ele>
        <time>2018-09-07T10:05:55Z</time>
      </trkpt>
      <trkpt lat="45.91123" lon="4.67963">
        <ele>377</ele>
        <time>2018-09-07T10:05:56Z</time>
      </trkpt>
      <trkpt lat="45.9113" lon="4.67965">
        <ele>377</ele>
        <time>2018-09-07T10:05:58Z</time>
      </trkpt>
      <trkpt lat="45.91134" lon="4.67967">
        <ele>377</ele>
        <time>2018-09-07T10:05:59Z</time>
      </trkpt>
      <trkpt lat="45.91141" lon="4.6797">
        <ele>377</ele>
        <time>2018-09-07T10:06:01Z</time>
      </trkpt>
      <trkpt lat="45.9115" lon="4.67975">
        <ele>378</ele>
        <time>2018-09-07T10:06:02Z</time>
      </trkpt>
      <trkpt lat="45.91157" lon="4.67978">
        <ele>378</ele>
        <time>2018-09-07T10:06:05Z</time>
      </trkpt>
      <trkpt lat="45.91159" lon="4.67979">
        <ele>378</ele>
        <time>2018-09-07T10:06:06Z</time>
      </trkpt>
      <trkpt lat="45.91168" lon="4.67984">
        <ele>380</ele>
        <time>2018-09-07T10:06:09Z</time>
      </trkpt>
      <trkpt lat="45.9117" lon="4.67986">
        <ele>380</ele>
        <time>2018-09-07T10:06:10Z</time>
      </trkpt>
      <trkpt lat="45.91177" lon="4.6799">
        <ele>380</ele>
        <time>2018-09-07T10:06:12Z</time>
      </trkpt>
      <trkpt lat="45.9118" lon="4.67992">
        <ele>380</ele>
        <time>2018-09-07T10:06:13Z</time>
      </trkpt>
      <trkpt lat="45.91186" lon="4.67996">
        <ele>380</ele>
        <time>2018-09-07T10:06:15Z</time>
      </trkpt>
      <trkpt lat="45.91189" lon="4.67998">
        <ele>380</ele>
        <time>2018-09-07T10:06:16Z</time>
      </trkpt>
      <trkpt lat="45.91195" lon="4.68002">
        <ele>383</ele>
        <time>2018-09-07T10:06:18Z</time>
      </trkpt>
      <trkpt lat="45.91198" lon="4.68004">
        <ele>383</ele>
        <time>2018-09-07T10:06:19Z</time>
      </trkpt>
      <trkpt lat="45.91204" lon="4.68007">
        <ele>383</ele>
        <time>2018-09-07T10:06:21Z</time>
      </trkpt>
      <trkpt lat="45.91208" lon="4.68009">
        <ele>383</ele>
        <time>2018-09-07T10:06:22Z</time>
      </trkpt>
      <trkpt lat="45.91214" lon="4.68011">
        <ele>383</ele>
        <time>2018-09-07T10:06:24Z</time>
      </trkpt>
      <trkpt lat="45.91217" lon="4.68012">
        <ele>383</ele>
        <time>2018-09-07T10:06:25Z</time>
      </trkpt>
      <trkpt lat="45.91225" lon="4.68016">
        <ele>384</ele>
        <time>2018-09-07T10:06:28Z</time>
      </trkpt>
      <trkpt lat="45.91228" lon="4.68017">
        <ele>384</ele>
        <time>2018-09-07T10:06:29Z</time>
      </trkpt>
      <trkpt lat="45.91236" lon="4.68021">
        <ele>384</ele>
        <time>2018-09-07T10:06:32Z</time>
      </trkpt>
      <trkpt lat="45.91238" lon="4.68023">
        <ele>384</ele>
        <time>2018-09-07T10:06:33Z</time>
      </trkpt>
      <trkpt lat="45.91244" lon="4.68027">
        <ele>384</ele>
        <time>2018-09-07T10:06:35Z</time>
      </trkpt>
      <trkpt lat="45.91247" lon="4.68029">
        <ele>384</ele>
        <time>2018-09-07T10:06:36Z</time>
      </trkpt>
      <trkpt lat="45.91254" lon="4.68032">
        <ele>385</ele>
        <time>2018-09-07T10:06:38Z</time>
      </trkpt>
      <trkpt lat="45.91257" lon="4.68033">
        <ele>385</ele>
        <time>2018-09-07T10:06:39Z</time>
      </trkpt>
      <trkpt lat="45.9126" lon="4.68034">
        <ele>385</ele>
        <time>2018-09-07T10:06:40Z</time>
      </trkpt>
      <trkpt lat="45.91269" lon="4.68037">
        <ele>385</ele>
        <time>2018-09-07T10:06:41Z</time>
      </trkpt>
      <trkpt lat="45.91273" lon="4.68039">
        <ele>385</ele>
        <time>2018-09-07T10:06:43Z</time>
      </trkpt>
      <trkpt lat="45.91279" lon="4.68043">
        <ele>385</ele>
        <time>2018-09-07T10:06:44Z</time>
      </trkpt>
      <trkpt lat="45.91283" lon="4.68045">
        <ele>385</ele>
        <time>2018-09-07T10:06:46Z</time>
      </trkpt>
      <trkpt lat="45.91289" lon="4.6805">
        <ele>385</ele>
        <time>2018-09-07T10:06:47Z</time>
      </trkpt>
      <trkpt lat="45.91295" lon="4.68053">
        <ele>385</ele>
        <time>2018-09-07T10:06:49Z</time>
      </trkpt>
      <trkpt lat="45.913" lon="4.68055">
        <ele>385</ele>
        <time>2018-09-07T10:06:50Z</time>
      </trkpt>
      <trkpt lat="45.91308" lon="4.68059">
        <ele>385</ele>
        <time>2018-09-07T10:06:52Z</time>
      </trkpt>
      <trkpt lat="45.91312" lon="4.68061">
        <ele>385</ele>
        <time>2018-09-07T10:06:53Z</time>
      </trkpt>
      <trkpt lat="45.91319" lon="4.68064">
        <ele>385</ele>
        <time>2018-09-07T10:06:55Z</time>
      </trkpt>
      <trkpt lat="45.91321" lon="4.68065">
        <ele>385</ele>
        <time>2018-09-07T10:06:56Z</time>
      </trkpt>
      <trkpt lat="45.91328" lon="4.68068">
        <ele>385</ele>
        <time>2018-09-07T10:06:58Z</time>
      </trkpt>
      <trkpt lat="45.9133" lon="4.68069">
        <ele>385</ele>
        <time>2018-09-07T10:06:59Z</time>
      </trkpt>
      <trkpt lat="45.91337" lon="4.68073">
        <ele>385</ele>
        <time>2018-09-07T10:07:02Z</time>
      </trkpt>
      <trkpt lat="45.9134" lon="4.68074">
        <ele>385</ele>
        <time>2018-09-07T10:07:03Z</time>
      </trkpt>
      <trkpt lat="45.91348" lon="4.68077">
        <ele>385</ele>
        <time>2018-09-07T10:07:04Z</time>
      </trkpt>
      <trkpt lat="45.91352" lon="4.68079">
        <ele>385</ele>
        <time>2018-09-07T10:07:05Z</time>
      </trkpt>
      <trkpt lat="45.9136" lon="4.68082">
        <ele>385</ele>
        <time>2018-09-07T10:07:07Z</time>
      </trkpt>
      <trkpt lat="45.91365" lon="4.68085">
        <ele>386</ele>
        <time>2018-09-07T10:07:08Z</time>
      </trkpt>
      <trkpt lat="45.91373" lon="4.68086">
        <ele>386</ele>
        <time>2018-09-07T10:07:10Z</time>
      </trkpt>
      <trkpt lat="45.91378" lon="4.68086">
        <ele>386</ele>
        <time>2018-09-07T10:07:11Z</time>
      </trkpt>
      <trkpt lat="45.91382" lon="4.68086">
        <ele>386</ele>
        <time>2018-09-07T10:07:12Z</time>
      </trkpt>
      <trkpt lat="45.91387" lon="4.68086">
        <ele>386</ele>
        <time>2018-09-07T10:07:13Z</time>
      </trkpt>
      <trkpt lat="45.91392" lon="4.68087">
        <ele>386</ele>
        <time>2018-09-07T10:07:14Z</time>
      </trkpt>
      <trkpt lat="45.91397" lon="4.68089">
        <ele>386</ele>
        <time>2018-09-07T10:07:15Z</time>
      </trkpt>
      <trkpt lat="45.91402" lon="4.68088">
        <ele>386</ele>
        <time>2018-09-07T10:07:16Z</time>
      </trkpt>
      <trkpt lat="45.91406" lon="4.68087">
        <ele>386</ele>
        <time>2018-09-07T10:07:17Z</time>
      </trkpt>
      <trkpt lat="45.91411" lon="4.68084">
        <ele>386</ele>
        <time>2018-09-07T10:07:18Z</time>
      </trkpt>
      <trkpt lat="45.91416" lon="4.68083">
        <ele>386</ele>
        <time>2018-09-07T10:07:19Z</time>
      </trkpt>
      <trkpt lat="45.91422" lon="4.6808">
        <ele>386</ele>
        <time>2018-09-07T10:07:20Z</time>
      </trkpt>
      <trkpt lat="45.91427" lon="4.68079">
        <ele>385</ele>
        <time>2018-09-07T10:07:21Z</time>
      </trkpt>
      <trkpt lat="45.91432" lon="4.68081">
        <ele>385</ele>
        <time>2018-09-07T10:07:22Z</time>
      </trkpt>
      <trkpt lat="45.91437" lon="4.68081">
        <ele>385</ele>
        <time>2018-09-07T10:07:23Z</time>
      </trkpt>
      <trkpt lat="45.91441" lon="4.68083">
        <ele>384</ele>
        <time>2018-09-07T10:07:24Z</time>
      </trkpt>
      <trkpt lat="45.91446" lon="4.68085">
        <ele>384</ele>
        <time>2018-09-07T10:07:25Z</time>
      </trkpt>
      <trkpt lat="45.9145" lon="4.68087">
        <ele>384</ele>
        <time>2018-09-07T10:07:26Z</time>
      </trkpt>
      <trkpt lat="45.91455" lon="4.68089">
        <ele>384</ele>
        <time>2018-09-07T10:07:27Z</time>
      </trkpt>
      <trkpt lat="45.9146" lon="4.68093">
        <ele>384</ele>
        <time>2018-09-07T10:07:28Z</time>
      </trkpt>
      <trkpt lat="45.91465" lon="4.68097">
        <ele>384</ele>
        <time>2018-09-07T10:07:29Z</time>
      </trkpt>
      <trkpt lat="45.9147" lon="4.681">
        <ele>384</ele>
        <time>2018-09-07T10:07:30Z</time>
      </trkpt>
      <trkpt lat="45.91475" lon="4.68104">
        <ele>384</ele>
        <time>2018-09-07T10:07:31Z</time>
      </trkpt>
      <trkpt lat="45.91482" lon="4.68107">
        <ele>383</ele>
        <time>2018-09-07T10:07:32Z</time>
      </trkpt>
      <trkpt lat="45.91488" lon="4.68111">
        <ele>383</ele>
        <time>2018-09-07T10:07:33Z</time>
      </trkpt>
      <trkpt lat="45.91493" lon="4.68114">
        <ele>383</ele>
        <time>2018-09-07T10:07:34Z</time>
      </trkpt>
      <trkpt lat="45.915" lon="4.68119">
        <ele>383</ele>
        <time>2018-09-07T10:07:35Z</time>
      </trkpt>
      <trkpt lat="45.91507" lon="4.68122">
        <ele>380</ele>
        <time>2018-09-07T10:07:36Z</time>
      </trkpt>
      <trkpt lat="45.91513" lon="4.68127">
        <ele>380</ele>
        <time>2018-09-07T10:07:37Z</time>
      </trkpt>
      <trkpt lat="45.9152" lon="4.68131">
        <ele>380</ele>
        <time>2018-09-07T10:07:38Z</time>
      </trkpt>
      <trkpt lat="45.91527" lon="4.68133">
        <ele>379</ele>
        <time>2018-09-07T10:07:39Z</time>
      </trkpt>
      <trkpt lat="45.91535" lon="4.68136">
        <ele>379</ele>
        <time>2018-09-07T10:07:40Z</time>
      </trkpt>
      <trkpt lat="45.91543" lon="4.6814">
        <ele>379</ele>
        <time>2018-09-07T10:07:41Z</time>
      </trkpt>
      <trkpt lat="45.91551" lon="4.68143">
        <ele>379</ele>
        <time>2018-09-07T10:07:42Z</time>
      </trkpt>
      <trkpt lat="45.91557" lon="4.68147">
        <ele>379</ele>
        <time>2018-09-07T10:07:43Z</time>
      </trkpt>
      <trkpt lat="45.91565" lon="4.68151">
        <ele>378</ele>
        <time>2018-09-07T10:07:44Z</time>
      </trkpt>
      <trkpt lat="45.91572" lon="4.68155">
        <ele>378</ele>
        <time>2018-09-07T10:07:45Z</time>
      </trkpt>
      <trkpt lat="45.9158" lon="4.68159">
        <ele>378</ele>
        <time>2018-09-07T10:07:46Z</time>
      </trkpt>
      <trkpt lat="45.91588" lon="4.68164">
        <ele>377</ele>
        <time>2018-09-07T10:07:47Z</time>
      </trkpt>
      <trkpt lat="45.91596" lon="4.68169">
        <ele>377</ele>
        <time>2018-09-07T10:07:48Z</time>
      </trkpt>
      <trkpt lat="45.91604" lon="4.68176">
        <ele>376</ele>
        <time>2018-09-07T10:07:49Z</time>
      </trkpt>
      <trkpt lat="45.91611" lon="4.68182">
        <ele>375</ele>
        <time>2018-09-07T10:07:50Z</time>
      </trkpt>
      <trkpt lat="45.91619" lon="4.68188">
        <ele>375</ele>
        <time>2018-09-07T10:07:51Z</time>
      </trkpt>
      <trkpt lat="45.91626" lon="4.68194">
        <ele>375</ele>
        <time>2018-09-07T10:07:52Z</time>
      </trkpt>
      <trkpt lat="45.91634" lon="4.68201">
        <ele>374</ele>
        <time>2018-09-07T10:07:53Z</time>
      </trkpt>
      <trkpt lat="45.91644" lon="4.68206">
        <ele>374</ele>
        <time>2018-09-07T10:07:54Z</time>
      </trkpt>
      <trkpt lat="45.91652" lon="4.68212">
        <ele>374</ele>
        <time>2018-09-07T10:07:55Z</time>
      </trkpt>
      <trkpt lat="45.91661" lon="4.68216">
        <ele>374</ele>
        <time>2018-09-07T10:07:56Z</time>
      </trkpt>
      <trkpt lat="45.91669" lon="4.68222">
        <ele>371</ele>
        <time>2018-09-07T10:07:57Z</time>
      </trkpt>
      <trkpt lat="45.91677" lon="4.68228">
        <ele>371</ele>
        <time>2018-09-07T10:07:58Z</time>
      </trkpt>
      <trkpt lat="45.91685" lon="4.68233">
        <ele>371</ele>
        <time>2018-09-07T10:07:59Z</time>
      </trkpt>
      <trkpt lat="45.91693" lon="4.68238">
        <ele>371</ele>
        <time>2018-09-07T10:08:00Z</time>
      </trkpt>
      <trkpt lat="45.917" lon="4.68243">
        <ele>370</ele>
        <time>2018-09-07T10:08:01Z</time>
      </trkpt>
      <trkpt lat="45.91706" lon="4.68248">
        <ele>370</ele>
        <time>2018-09-07T10:08:02Z</time>
      </trkpt>
      <trkpt lat="45.91713" lon="4.68252">
        <ele>373</ele>
        <time>2018-09-07T10:08:03Z</time>
      </trkpt>
      <trkpt lat="45.91722" lon="4.68254">
        <ele>372</ele>
        <time>2018-09-07T10:08:04Z</time>
      </trkpt>
      <trkpt lat="45.91729" lon="4.68257">
        <ele>372</ele>
        <time>2018-09-07T10:08:05Z</time>
      </trkpt>
      <trkpt lat="45.91737" lon="4.68259">
        <ele>372</ele>
        <time>2018-09-07T10:08:06Z</time>
      </trkpt>
      <trkpt lat="45.91745" lon="4.68262">
        <ele>371</ele>
        <time>2018-09-07T10:08:07Z</time>
      </trkpt>
      <trkpt lat="45.91752" lon="4.68263">
        <ele>371</ele>
        <time>2018-09-07T10:08:08Z</time>
      </trkpt>
      <trkpt lat="45.91759" lon="4.68263">
        <ele>371</ele>
        <time>2018-09-07T10:08:09Z</time>
      </trkpt>
      <trkpt lat="45.91766" lon="4.68265">
        <ele>372</ele>
        <time>2018-09-07T10:08:10Z</time>
      </trkpt>
      <trkpt lat="45.91772" lon="4.68267">
        <ele>372</ele>
        <time>2018-09-07T10:08:11Z</time>
      </trkpt>
      <trkpt lat="45.91778" lon="4.68267">
        <ele>372</ele>
        <time>2018-09-07T10:08:12Z</time>
      </trkpt>
      <trkpt lat="45.91784" lon="4.68269">
        <ele>372</ele>
        <time>2018-09-07T10:08:13Z</time>
      </trkpt>
      <trkpt lat="45.91788" lon="4.68272">
        <ele>372</ele>
        <time>2018-09-07T10:08:14Z</time>
      </trkpt>
      <trkpt lat="45.91794" lon="4.68273">
        <ele>372</ele>
        <time>2018-09-07T10:08:15Z</time>
      </trkpt>
      <trkpt lat="45.91799" lon="4.68274">
        <ele>372</ele>
        <time>2018-09-07T10:08:16Z</time>
      </trkpt>
      <trkpt lat="45.91806" lon="4.68275">
        <ele>372</ele>
        <time>2018-09-07T10:08:17Z</time>
      </trkpt>
      <trkpt lat="45.91811" lon="4.68274">
        <ele>372</ele>
        <time>2018-09-07T10:08:18Z</time>
      </trkpt>
      <trkpt lat="45.91816" lon="4.68276">
        <ele>372</ele>
        <time>2018-09-07T10:08:19Z</time>
      </trkpt>
      <trkpt lat="45.91822" lon="4.68277">
        <ele>372</ele>
        <time>2018-09-07T10:08:20Z</time>
      </trkpt>
      <trkpt lat="45.91829" lon="4.68278">
        <ele>372</ele>
        <time>2018-09-07T10:08:22Z</time>
      </trkpt>
      <trkpt lat="45.91833" lon="4.68281">
        <ele>374</ele>
        <time>2018-09-07T10:08:23Z</time>
      </trkpt>
      <trkpt lat="45.91838" lon="4.6828">
        <ele>374</ele>
        <time>2018-09-07T10:08:24Z</time>
      </trkpt>
      <trkpt lat="45.91843" lon="4.68284">
        <ele>375</ele>
        <time>2018-09-07T10:08:25Z</time>
      </trkpt>
      <trkpt lat="45.9185" lon="4.68286">
        <ele>375</ele>
        <time>2018-09-07T10:08:27Z</time>
      </trkpt>
      <trkpt lat="45.91853" lon="4.68286">
        <ele>375</ele>
        <time>2018-09-07T10:08:28Z</time>
      </trkpt>
      <trkpt lat="45.91858" lon="4.68286">
        <ele>375</ele>
        <time>2018-09-07T10:08:29Z</time>
      </trkpt>
      <trkpt lat="45.91862" lon="4.68287">
        <ele>375</ele>
        <time>2018-09-07T10:08:30Z</time>
      </trkpt>
      <trkpt lat="45.91871" lon="4.68288">
        <ele>376</ele>
        <time>2018-09-07T10:08:32Z</time>
      </trkpt>
      <trkpt lat="45.91875" lon="4.68289">
        <ele>376</ele>
        <time>2018-09-07T10:08:33Z</time>
      </trkpt>
      <trkpt lat="45.91881" lon="4.6829">
        <ele>376</ele>
        <time>2018-09-07T10:08:35Z</time>
      </trkpt>
      <trkpt lat="45.91886" lon="4.68292">
        <ele>376</ele>
        <time>2018-09-07T10:08:36Z</time>
      </trkpt>
      <trkpt lat="45.91892" lon="4.68292">
        <ele>376</ele>
        <time>2018-09-07T10:08:39Z</time>
      </trkpt>
      <trkpt lat="45.91898" lon="4.68292">
        <ele>376</ele>
        <time>2018-09-07T10:08:40Z</time>
      </trkpt>
      <trkpt lat="45.91907" lon="4.68293">
        <ele>377</ele>
        <time>2018-09-07T10:08:44Z</time>
      </trkpt>
      <trkpt lat="45.91909" lon="4.68294">
        <ele>377</ele>
        <time>2018-09-07T10:08:45Z</time>
      </trkpt>
      <trkpt lat="45.91912" lon="4.68294">
        <ele>377</ele>
        <time>2018-09-07T10:08:46Z</time>
      </trkpt>
      <trkpt lat="45.91922" lon="4.68295">
        <ele>379</ele>
        <time>2018-09-07T10:08:47Z</time>
      </trkpt>
      <trkpt lat="45.9193" lon="4.68297">
        <ele>379</ele>
        <time>2018-09-07T10:08:51Z</time>
      </trkpt>
      <trkpt lat="45.91933" lon="4.68298">
        <ele>379</ele>
        <time>2018-09-07T10:08:52Z</time>
      </trkpt>
      <trkpt lat="45.91942" lon="4.683">
        <ele>379</ele>
        <time>2018-09-07T10:08:55Z</time>
      </trkpt>
      <trkpt lat="45.91951" lon="4.68302">
        <ele>379</ele>
        <time>2018-09-07T10:08:56Z</time>
      </trkpt>
      <trkpt lat="45.91959" lon="4.68304">
        <ele>379</ele>
        <time>2018-09-07T10:09:00Z</time>
      </trkpt>
      <trkpt lat="45.91962" lon="4.68304">
        <ele>379</ele>
        <time>2018-09-07T10:09:01Z</time>
      </trkpt>
      <trkpt lat="45.91964" lon="4.68305">
        <ele>380</ele>
        <time>2018-09-07T10:09:02Z</time>
      </trkpt>
      <trkpt lat="45.91973" lon="4.68306">
        <ele>380</ele>
        <time>2018-09-07T10:09:03Z</time>
      </trkpt>
      <trkpt lat="45.91981" lon="4.68308">
        <ele>380</ele>
        <time>2018-09-07T10:09:06Z</time>
      </trkpt>
      <trkpt lat="45.91987" lon="4.68309">
        <ele>380</ele>
        <time>2018-09-07T10:09:07Z</time>
      </trkpt>
      <trkpt lat="45.91994" lon="4.68311">
        <ele>381</ele>
        <time>2018-09-07T10:09:10Z</time>
      </trkpt>
      <trkpt lat="45.91997" lon="4.68312">
        <ele>381</ele>
        <time>2018-09-07T10:09:11Z</time>
      </trkpt>
      <trkpt lat="45.91999" lon="4.68313">
        <ele>381</ele>
        <time>2018-09-07T10:09:12Z</time>
      </trkpt>
      <trkpt lat="45.92008" lon="4.68316">
        <ele>381</ele>
        <time>2018-09-07T10:09:13Z</time>
      </trkpt>
      <trkpt lat="45.92016" lon="4.68316">
        <ele>380</ele>
        <time>2018-09-07T10:09:15Z</time>
      </trkpt>
      <trkpt lat="45.9202" lon="4.68316">
        <ele>380</ele>
        <time>2018-09-07T10:09:16Z</time>
      </trkpt>
      <trkpt lat="45.92026" lon="4.68314">
        <ele>380</ele>
        <time>2018-09-07T10:09:17Z</time>
      </trkpt>
      <trkpt lat="45.9203" lon="4.68314">
        <ele>380</ele>
        <time>2018-09-07T10:09:18Z</time>
      </trkpt>
      <trkpt lat="45.92038" lon="4.68316">
        <ele>379</ele>
        <time>2018-09-07T10:09:20Z</time>
      </trkpt>
      <trkpt lat="45.92042" lon="4.68316">
        <ele>379</ele>
        <time>2018-09-07T10:09:21Z</time>
      </trkpt>
      <trkpt lat="45.9205" lon="4.68319">
        <ele>379</ele>
        <time>2018-09-07T10:09:23Z</time>
      </trkpt>
      <trkpt lat="45.92053" lon="4.68318">
        <ele>379</ele>
        <time>2018-09-07T10:09:24Z</time>
      </trkpt>
      <trkpt lat="45.92062" lon="4.6832">
        <ele>380</ele>
        <time>2018-09-07T10:09:26Z</time>
      </trkpt>
      <trkpt lat="45.92066" lon="4.68322">
        <ele>380</ele>
        <time>2018-09-07T10:09:27Z</time>
      </trkpt>
      <trkpt lat="45.92071" lon="4.68324">
        <ele>380</ele>
        <time>2018-09-07T10:09:28Z</time>
      </trkpt>
      <trkpt lat="45.92076" lon="4.68326">
        <ele>381</ele>
        <time>2018-09-07T10:09:29Z</time>
      </trkpt>
      <trkpt lat="45.92081" lon="4.68328">
        <ele>381</ele>
        <time>2018-09-07T10:09:30Z</time>
      </trkpt>
      <trkpt lat="45.92086" lon="4.68329">
        <ele>381</ele>
        <time>2018-09-07T10:09:31Z</time>
      </trkpt>
      <trkpt lat="45.92094" lon="4.68333">
        <ele>380</ele>
        <time>2018-09-07T10:09:33Z</time>
      </trkpt>
      <trkpt lat="45.92098" lon="4.68334">
        <ele>383</ele>
        <time>2018-09-07T10:09:34Z</time>
      </trkpt>
      <trkpt lat="45.92107" lon="4.68336">
        <ele>383</ele>
        <time>2018-09-07T10:09:36Z</time>
      </trkpt>
      <trkpt lat="45.92112" lon="4.68338">
        <ele>383</ele>
        <time>2018-09-07T10:09:37Z</time>
      </trkpt>
      <trkpt lat="45.92117" lon="4.68339">
        <ele>383</ele>
        <time>2018-09-07T10:09:38Z</time>
      </trkpt>
      <trkpt lat="45.92122" lon="4.68342">
        <ele>383</ele>
        <time>2018-09-07T10:09:39Z</time>
      </trkpt>
      <trkpt lat="45.92126" lon="4.68345">
        <ele>383</ele>
        <time>2018-09-07T10:09:40Z</time>
      </trkpt>
      <trkpt lat="45.92131" lon="4.68346">
        <ele>383</ele>
        <time>2018-09-07T10:09:41Z</time>
      </trkpt>
      <trkpt lat="45.92138" lon="4.68353">
        <ele>383</ele>
        <time>2018-09-07T10:09:43Z</time>
      </trkpt>
      <trkpt lat="45.92143" lon="4.68357">
        <ele>383</ele>
        <time>2018-09-07T10:09:44Z</time>
      </trkpt>
      <trkpt lat="45.92146" lon="4.6836">
        <ele>383</ele>
        <time>2018-09-07T10:09:45Z</time>
      </trkpt>
      <trkpt lat="45.9215" lon="4.68364">
        <ele>383</ele>
        <time>2018-09-07T10:09:46Z</time>
      </trkpt>
      <trkpt lat="45.92153" lon="4.68369">
        <ele>383</ele>
        <time>2018-09-07T10:09:47Z</time>
      </trkpt>
      <trkpt lat="45.92157" lon="4.68373">
        <ele>383</ele>
        <time>2018-09-07T10:09:48Z</time>
      </trkpt>
      <trkpt lat="45.9216" lon="4.68377">
        <ele>384</ele>
        <time>2018-09-07T10:09:49Z</time>
      </trkpt>
      <trkpt lat="45.92165" lon="4.68382">
        <ele>384</ele>
        <time>2018-09-07T10:09:50Z</time>
      </trkpt>
      <trkpt lat="45.92168" lon="4.68386">
        <ele>383</ele>
        <time>2018-09-07T10:09:51Z</time>
      </trkpt>
      <trkpt lat="45.92172" lon="4.68391">
        <ele>383</ele>
        <time>2018-09-07T10:09:52Z</time>
      </trkpt>
      <trkpt lat="45.92175" lon="4.68397">
        <ele>383</ele>
        <time>2018-09-07T10:09:53Z</time>
      </trkpt>
      <trkpt lat="45.92178" lon="4.68403">
        <ele>384</ele>
        <time>2018-09-07T10:09:54Z</time>
      </trkpt>
      <trkpt lat="45.92181" lon="4.68409">
        <ele>384</ele>
        <time>2018-09-07T10:09:55Z</time>
      </trkpt>
      <trkpt lat="45.92185" lon="4.68414">
        <ele>384</ele>
        <time>2018-09-07T10:09:56Z</time>
      </trkpt>
      <trkpt lat="45.92192" lon="4.68416">
        <ele>383</ele>
        <time>2018-09-07T10:09:58Z</time>
      </trkpt>
      <trkpt lat="45.92196" lon="4.68418">
        <ele>386</ele>
        <time>2018-09-07T10:09:59Z</time>
      </trkpt>
      <trkpt lat="45.92205" lon="4.68418">
        <ele>386</ele>
        <time>2018-09-07T10:10:01Z</time>
      </trkpt>
      <trkpt lat="45.92208" lon="4.6842">
        <ele>386</ele>
        <time>2018-09-07T10:10:02Z</time>
      </trkpt>
      <trkpt lat="45.92213" lon="4.68422">
        <ele>385</ele>
        <time>2018-09-07T10:10:03Z</time>
      </trkpt>
      <trkpt lat="45.92216" lon="4.68425">
        <ele>385</ele>
        <time>2018-09-07T10:10:04Z</time>
      </trkpt>
      <trkpt lat="45.9222" lon="4.68428">
        <ele>385</ele>
        <time>2018-09-07T10:10:05Z</time>
      </trkpt>
      <trkpt lat="45.92224" lon="4.68432">
        <ele>385</ele>
        <time>2018-09-07T10:10:06Z</time>
      </trkpt>
      <trkpt lat="45.92229" lon="4.68435">
        <ele>385</ele>
        <time>2018-09-07T10:10:07Z</time>
      </trkpt>
      <trkpt lat="45.92232" lon="4.68438">
        <ele>385</ele>
        <time>2018-09-07T10:10:08Z</time>
      </trkpt>
      <trkpt lat="45.9224" lon="4.68443">
        <ele>385</ele>
        <time>2018-09-07T10:10:10Z</time>
      </trkpt>
      <trkpt lat="45.92243" lon="4.68446">
        <ele>385</ele>
        <time>2018-09-07T10:10:11Z</time>
      </trkpt>
      <trkpt lat="45.92249" lon="4.68453">
        <ele>385</ele>
        <time>2018-09-07T10:10:14Z</time>
      </trkpt>
      <trkpt lat="45.92254" lon="4.68458">
        <ele>383</ele>
        <time>2018-09-07T10:10:15Z</time>
      </trkpt>
      <trkpt lat="45.9226" lon="4.68466">
        <ele>383</ele>
        <time>2018-09-07T10:10:17Z</time>
      </trkpt>
      <trkpt lat="45.92264" lon="4.6847">
        <ele>383</ele>
        <time>2018-09-07T10:10:18Z</time>
      </trkpt>
      <trkpt lat="45.92267" lon="4.68477">
        <ele>384</ele>
        <time>2018-09-07T10:10:19Z</time>
      </trkpt>
      <trkpt lat="45.92271" lon="4.68481">
        <ele>384</ele>
        <time>2018-09-07T10:10:20Z</time>
      </trkpt>
      <trkpt lat="45.92277" lon="4.68487">
        <ele>384</ele>
        <time>2018-09-07T10:10:22Z</time>
      </trkpt>
      <trkpt lat="45.92281" lon="4.6849">
        <ele>384</ele>
        <time>2018-09-07T10:10:23Z</time>
      </trkpt>
      <trkpt lat="45.92287" lon="4.68497">
        <ele>383</ele>
        <time>2018-09-07T10:10:25Z</time>
      </trkpt>
      <trkpt lat="45.92289" lon="4.68498">
        <ele>383</ele>
        <time>2018-09-07T10:10:26Z</time>
      </trkpt>
      <trkpt lat="45.92293" lon="4.68502">
        <ele>387</ele>
        <time>2018-09-07T10:10:28Z</time>
      </trkpt>
      <trkpt lat="45.923" lon="4.68509">
        <ele>387</ele>
        <time>2018-09-07T10:10:29Z</time>
      </trkpt>
      <trkpt lat="45.92307" lon="4.68514">
        <ele>387</ele>
        <time>2018-09-07T10:10:31Z</time>
      </trkpt>
      <trkpt lat="45.92311" lon="4.68517">
        <ele>386</ele>
        <time>2018-09-07T10:10:32Z</time>
      </trkpt>
      <trkpt lat="45.92318" lon="4.68525">
        <ele>387</ele>
        <time>2018-09-07T10:10:34Z</time>
      </trkpt>
      <trkpt lat="45.92322" lon="4.6853">
        <ele>387</ele>
        <time>2018-09-07T10:10:35Z</time>
      </trkpt>
      <trkpt lat="45.92326" lon="4.68534">
        <ele>387</ele>
        <time>2018-09-07T10:10:36Z</time>
      </trkpt>
      <trkpt lat="45.9233" lon="4.68538">
        <ele>388</ele>
        <time>2018-09-07T10:10:37Z</time>
      </trkpt>
      <trkpt lat="45.92337" lon="4.68545">
        <ele>384</ele>
        <time>2018-09-07T10:10:39Z</time>
      </trkpt>
      <trkpt lat="45.9234" lon="4.68547">
        <ele>385</ele>
        <time>2018-09-07T10:10:40Z</time>
      </trkpt>
      <trkpt lat="45.92347" lon="4.68554">
        <ele>385</ele>
        <time>2018-09-07T10:10:42Z</time>
      </trkpt>
      <trkpt lat="45.9235" lon="4.68557">
        <ele>385</ele>
        <time>2018-09-07T10:10:43Z</time>
      </trkpt>
      <trkpt lat="45.92357" lon="4.68563">
        <ele>385</ele>
        <time>2018-09-07T10:10:45Z</time>
      </trkpt>
      <trkpt lat="45.9236" lon="4.68567">
        <ele>385</ele>
        <time>2018-09-07T10:10:46Z</time>
      </trkpt>
      <trkpt lat="45.92368" lon="4.68572">
        <ele>385</ele>
        <time>2018-09-07T10:10:48Z</time>
      </trkpt>
      <trkpt lat="45.92372" lon="4.68577">
        <ele>384</ele>
        <time>2018-09-07T10:10:49Z</time>
      </trkpt>
      <trkpt lat="45.92377" lon="4.68578">
        <ele>384</ele>
        <time>2018-09-07T10:10:50Z</time>
      </trkpt>
      <trkpt lat="45.92382" lon="4.6858">
        <ele>384</ele>
        <time>2018-09-07T10:10:51Z</time>
      </trkpt>
      <trkpt lat="45.92388" lon="4.68582">
        <ele>383</ele>
        <time>2018-09-07T10:10:52Z</time>
      </trkpt>
      <trkpt lat="45.92392" lon="4.68586">
        <ele>386</ele>
        <time>2018-09-07T10:10:53Z</time>
      </trkpt>
      <trkpt lat="45.92398" lon="4.68589">
        <ele>386</ele>
        <time>2018-09-07T10:10:54Z</time>
      </trkpt>
      <trkpt lat="45.92402" lon="4.68591">
        <ele>385</ele>
        <time>2018-09-07T10:10:55Z</time>
      </trkpt>
      <trkpt lat="45.92408" lon="4.68593">
        <ele>385</ele>
        <time>2018-09-07T10:10:56Z</time>
      </trkpt>
      <trkpt lat="45.92414" lon="4.68596">
        <ele>384</ele>
        <time>2018-09-07T10:10:57Z</time>
      </trkpt>
      <trkpt lat="45.92419" lon="4.68599">
        <ele>381</ele>
        <time>2018-09-07T10:10:58Z</time>
      </trkpt>
      <trkpt lat="45.92425" lon="4.68602">
        <ele>381</ele>
        <time>2018-09-07T10:10:59Z</time>
      </trkpt>
      <trkpt lat="45.9243" lon="4.68604">
        <ele>381</ele>
        <time>2018-09-07T10:11:00Z</time>
      </trkpt>
      <trkpt lat="45.92435" lon="4.68608">
        <ele>381</ele>
        <time>2018-09-07T10:11:01Z</time>
      </trkpt>
      <trkpt lat="45.92442" lon="4.68611">
        <ele>380</ele>
        <time>2018-09-07T10:11:02Z</time>
      </trkpt>
      <trkpt lat="45.92447" lon="4.68615">
        <ele>380</ele>
        <time>2018-09-07T10:11:03Z</time>
      </trkpt>
      <trkpt lat="45.92454" lon="4.68619">
        <ele>380</ele>
        <time>2018-09-07T10:11:04Z</time>
      </trkpt>
      <trkpt lat="45.9246" lon="4.68623">
        <ele>380</ele>
        <time>2018-09-07T10:11:05Z</time>
      </trkpt>
      <trkpt lat="45.92467" lon="4.68627">
        <ele>380</ele>
        <time>2018-09-07T10:11:06Z</time>
      </trkpt>
      <trkpt lat="45.92474" lon="4.6863">
        <ele>379</ele>
        <time>2018-09-07T10:11:07Z</time>
      </trkpt>
      <trkpt lat="45.92482" lon="4.68632">
        <ele>379</ele>
        <time>2018-09-07T10:11:08Z</time>
      </trkpt>
      <trkpt lat="45.92488" lon="4.68635">
        <ele>379</ele>
        <time>2018-09-07T10:11:09Z</time>
      </trkpt>
      <trkpt lat="45.92495" lon="4.68638">
        <ele>379</ele>
        <time>2018-09-07T10:11:10Z</time>
      </trkpt>
      <trkpt lat="45.92501" lon="4.6864">
        <ele>375</ele>
        <time>2018-09-07T10:11:11Z</time>
      </trkpt>
      <trkpt lat="45.92507" lon="4.68641">
        <ele>375</ele>
        <time>2018-09-07T10:11:12Z</time>
      </trkpt>
      <trkpt lat="45.92514" lon="4.68644">
        <ele>375</ele>
        <time>2018-09-07T10:11:13Z</time>
      </trkpt>
      <trkpt lat="45.92522" lon="4.68645">
        <ele>375</ele>
        <time>2018-09-07T10:11:14Z</time>
      </trkpt>
      <trkpt lat="45.92528" lon="4.68646">
        <ele>375</ele>
        <time>2018-09-07T10:11:15Z</time>
      </trkpt>
      <trkpt lat="45.92535" lon="4.68647">
        <ele>375</ele>
        <time>2018-09-07T10:11:16Z</time>
      </trkpt>
      <trkpt lat="45.92541" lon="4.68648">
        <ele>374</ele>
        <time>2018-09-07T10:11:17Z</time>
      </trkpt>
      <trkpt lat="45.92546" lon="4.68649">
        <ele>374</ele>
        <time>2018-09-07T10:11:18Z</time>
      </trkpt>
      <trkpt lat="45.92555" lon="4.68653">
        <ele>374</ele>
        <time>2018-09-07T10:11:19Z</time>
      </trkpt>
      <trkpt lat="45.9256" lon="4.68652">
        <ele>374</ele>
        <time>2018-09-07T10:11:20Z</time>
      </trkpt>
      <trkpt lat="45.92566" lon="4.68651">
        <ele>374</ele>
        <time>2018-09-07T10:11:21Z</time>
      </trkpt>
      <trkpt lat="45.92571" lon="4.68649">
        <ele>374</ele>
        <time>2018-09-07T10:11:22Z</time>
      </trkpt>
      <trkpt lat="45.92576" lon="4.68644">
        <ele>373</ele>
        <time>2018-09-07T10:11:23Z</time>
      </trkpt>
      <trkpt lat="45.92585" lon="4.68641">
        <ele>370</ele>
        <time>2018-09-07T10:11:25Z</time>
      </trkpt>
      <trkpt lat="45.92588" lon="4.68639">
        <ele>370</ele>
        <time>2018-09-07T10:11:26Z</time>
      </trkpt>
      <trkpt lat="45.92596" lon="4.68637">
        <ele>370</ele>
        <time>2018-09-07T10:11:29Z</time>
      </trkpt>
      <trkpt lat="45.92599" lon="4.68636">
        <ele>370</ele>
        <time>2018-09-07T10:11:30Z</time>
      </trkpt>
      <trkpt lat="45.92607" lon="4.68631">
        <ele>369</ele>
        <time>2018-09-07T10:11:34Z</time>
      </trkpt>
      <trkpt lat="45.92615" lon="4.68628">
        <ele>369</ele>
        <time>2018-09-07T10:11:35Z</time>
      </trkpt>
      <trkpt lat="45.92623" lon="4.68623">
        <ele>368</ele>
        <time>2018-09-07T10:11:37Z</time>
      </trkpt>
      <trkpt lat="45.92627" lon="4.68621">
        <ele>368</ele>
        <time>2018-09-07T10:11:38Z</time>
      </trkpt>
      <trkpt lat="45.92632" lon="4.6862">
        <ele>368</ele>
        <time>2018-09-07T10:11:39Z</time>
      </trkpt>
      <trkpt lat="45.92636" lon="4.68619">
        <ele>368</ele>
        <time>2018-09-07T10:11:40Z</time>
      </trkpt>
      <trkpt lat="45.92645" lon="4.68617">
        <ele>367</ele>
        <time>2018-09-07T10:11:42Z</time>
      </trkpt>
      <trkpt lat="45.9265" lon="4.68615">
        <ele>367</ele>
        <time>2018-09-07T10:11:43Z</time>
      </trkpt>
      <trkpt lat="45.92654" lon="4.68613">
        <ele>367</ele>
        <time>2018-09-07T10:11:44Z</time>
      </trkpt>
      <trkpt lat="45.92658" lon="4.68611">
        <ele>367</ele>
        <time>2018-09-07T10:11:45Z</time>
      </trkpt>
      <trkpt lat="45.92663" lon="4.68609">
        <ele>367</ele>
        <time>2018-09-07T10:11:46Z</time>
      </trkpt>
      <trkpt lat="45.92668" lon="4.68607">
        <ele>364</ele>
        <time>2018-09-07T10:11:47Z</time>
      </trkpt>
      <trkpt lat="45.92673" lon="4.68604">
        <ele>364</ele>
        <time>2018-09-07T10:11:48Z</time>
      </trkpt>
      <trkpt lat="45.92678" lon="4.68601">
        <ele>364</ele>
        <time>2018-09-07T10:11:49Z</time>
      </trkpt>
      <trkpt lat="45.92684" lon="4.68599">
        <ele>364</ele>
        <time>2018-09-07T10:11:50Z</time>
      </trkpt>
      <trkpt lat="45.92688" lon="4.68597">
        <ele>364</ele>
        <time>2018-09-07T10:11:51Z</time>
      </trkpt>
      <trkpt lat="45.92695" lon="4.68592">
        <ele>364</ele>
        <time>2018-09-07T10:11:52Z</time>
      </trkpt>
      <trkpt lat="45.927" lon="4.6859">
        <ele>364</ele>
        <time>2018-09-07T10:11:53Z</time>
      </trkpt>
      <trkpt lat="45.92705" lon="4.68587">
        <ele>364</ele>
        <time>2018-09-07T10:11:54Z</time>
      </trkpt>
      <trkpt lat="45.9271" lon="4.68585">
        <ele>364</ele>
        <time>2018-09-07T10:11:55Z</time>
      </trkpt>
      <trkpt lat="45.92715" lon="4.68582">
        <ele>366</ele>
        <time>2018-09-07T10:11:56Z</time>
      </trkpt>
      <trkpt lat="45.9272" lon="4.6858">
        <ele>366</ele>
        <time>2018-09-07T10:11:57Z</time>
      </trkpt>
      <trkpt lat="45.92729" lon="4.68579">
        <ele>366</ele>
        <time>2018-09-07T10:11:59Z</time>
      </trkpt>
      <trkpt lat="45.92734" lon="4.68577">
        <ele>366</ele>
        <time>2018-09-07T10:12:00Z</time>
      </trkpt>
      <trkpt lat="45.9274" lon="4.68575">
        <ele>366</ele>
        <time>2018-09-07T10:12:01Z</time>
      </trkpt>
      <trkpt lat="45.92745" lon="4.68574">
        <ele>366</ele>
        <time>2018-09-07T10:12:02Z</time>
      </trkpt>
      <trkpt lat="45.9275" lon="4.68574">
        <ele>366</ele>
        <time>2018-09-07T10:12:03Z</time>
      </trkpt>
      <trkpt lat="45.92757" lon="4.68572">
        <ele>366</ele>
        <time>2018-09-07T10:12:04Z</time>
      </trkpt>
      <trkpt lat="45.92763" lon="4.68572">
        <ele>365</ele>
        <time>2018-09-07T10:12:05Z</time>
      </trkpt>
      <trkpt lat="45.92768" lon="4.68574">
        <ele>365</ele>
        <time>2018-09-07T10:12:06Z</time>
      </trkpt>
      <trkpt lat="45.92774" lon="4.68574">
        <ele>365</ele>
        <time>2018-09-07T10:12:07Z</time>
      </trkpt>
      <trkpt lat="45.9278" lon="4.68575">
        <ele>365</ele>
        <time>2018-09-07T10:12:08Z</time>
      </trkpt>
      <trkpt lat="45.92786" lon="4.68578">
        <ele>365</ele>
        <time>2018-09-07T10:12:09Z</time>
      </trkpt>
      <trkpt lat="45.92792" lon="4.6858">
        <ele>364</ele>
        <time>2018-09-07T10:12:10Z</time>
      </trkpt>
      <trkpt lat="45.92798" lon="4.68581">
        <ele>364</ele>
        <time>2018-09-07T10:12:11Z</time>
      </trkpt>
      <trkpt lat="45.92804" lon="4.6858">
        <ele>364</ele>
        <time>2018-09-07T10:12:12Z</time>
      </trkpt>
      <trkpt lat="45.92811" lon="4.68579">
        <ele>363</ele>
        <time>2018-09-07T10:12:13Z</time>
      </trkpt>
      <trkpt lat="45.92817" lon="4.68579">
        <ele>363</ele>
        <time>2018-09-07T10:12:14Z</time>
      </trkpt>
      <trkpt lat="45.92823" lon="4.6858">
        <ele>362</ele>
        <time>2018-09-07T10:12:15Z</time>
      </trkpt>
      <trkpt lat="45.9283" lon="4.68582">
        <ele>362</ele>
        <time>2018-09-07T10:12:16Z</time>
      </trkpt>
      <trkpt lat="45.92836" lon="4.68583">
        <ele>361</ele>
        <time>2018-09-07T10:12:17Z</time>
      </trkpt>
      <trkpt lat="45.92842" lon="4.68584">
        <ele>360</ele>
        <time>2018-09-07T10:12:18Z</time>
      </trkpt>
      <trkpt lat="45.92848" lon="4.68584">
        <ele>360</ele>
        <time>2018-09-07T10:12:19Z</time>
      </trkpt>
      <trkpt lat="45.92854" lon="4.68583">
        <ele>359</ele>
        <time>2018-09-07T10:12:20Z</time>
      </trkpt>
      <trkpt lat="45.92861" lon="4.68587">
        <ele>359</ele>
        <time>2018-09-07T10:12:21Z</time>
      </trkpt>
      <trkpt lat="45.92867" lon="4.68588">
        <ele>359</ele>
        <time>2018-09-07T10:12:22Z</time>
      </trkpt>
      <trkpt lat="45.92873" lon="4.68589">
        <ele>359</ele>
        <time>2018-09-07T10:12:23Z</time>
      </trkpt>
      <trkpt lat="45.9288" lon="4.68591">
        <ele>358</ele>
        <time>2018-09-07T10:12:24Z</time>
      </trkpt>
      <trkpt lat="45.92887" lon="4.68592">
        <ele>358</ele>
        <time>2018-09-07T10:12:25Z</time>
      </trkpt>
      <trkpt lat="45.92894" lon="4.68595">
        <ele>358</ele>
        <time>2018-09-07T10:12:26Z</time>
      </trkpt>
      <trkpt lat="45.929" lon="4.68596">
        <ele>358</ele>
        <time>2018-09-07T10:12:27Z</time>
      </trkpt>
      <trkpt lat="45.92907" lon="4.68597">
        <ele>358</ele>
        <time>2018-09-07T10:12:28Z</time>
      </trkpt>
      <trkpt lat="45.92913" lon="4.68599">
        <ele>358</ele>
        <time>2018-09-07T10:12:29Z</time>
      </trkpt>
      <trkpt lat="45.9292" lon="4.68601">
        <ele>359</ele>
        <time>2018-09-07T10:12:30Z</time>
      </trkpt>
      <trkpt lat="45.92927" lon="4.686">
        <ele>359</ele>
        <time>2018-09-07T10:12:31Z</time>
      </trkpt>
      <trkpt lat="45.92934" lon="4.68601">
        <ele>358</ele>
        <time>2018-09-07T10:12:32Z</time>
      </trkpt>
      <trkpt lat="45.92941" lon="4.68602">
        <ele>358</ele>
        <time>2018-09-07T10:12:33Z</time>
      </trkpt>
      <trkpt lat="45.92948" lon="4.68603">
        <ele>358</ele>
        <time>2018-09-07T10:12:34Z</time>
      </trkpt>
      <trkpt lat="45.92955" lon="4.68604">
        <ele>358</ele>
        <time>2018-09-07T10:12:35Z</time>
      </trkpt>
      <trkpt lat="45.92962" lon="4.68604">
        <ele>358</ele>
        <time>2018-09-07T10:12:36Z</time>
      </trkpt>
      <trkpt lat="45.9297" lon="4.68605">
        <ele>358</ele>
        <time>2018-09-07T10:12:37Z</time>
      </trkpt>
      <trkpt lat="45.92976" lon="4.68608">
        <ele>358</ele>
        <time>2018-09-07T10:12:38Z</time>
      </trkpt>
      <trkpt lat="45.92983" lon="4.6861">
        <ele>358</ele>
        <time>2018-09-07T10:12:39Z</time>
      </trkpt>
      <trkpt lat="45.92991" lon="4.6861">
        <ele>358</ele>
        <time>2018-09-07T10:12:40Z</time>
      </trkpt>
      <trkpt lat="45.92998" lon="4.68612">
        <ele>358</ele>
        <time>2018-09-07T10:12:41Z</time>
      </trkpt>
      <trkpt lat="45.93005" lon="4.68615">
        <ele>356</ele>
        <time>2018-09-07T10:12:42Z</time>
      </trkpt>
      <trkpt lat="45.93012" lon="4.68615">
        <ele>356</ele>
        <time>2018-09-07T10:12:43Z</time>
      </trkpt>
      <trkpt lat="45.9302" lon="4.68621">
        <ele>356</ele>
        <time>2018-09-07T10:12:44Z</time>
      </trkpt>
      <trkpt lat="45.93027" lon="4.68622">
        <ele>356</ele>
        <time>2018-09-07T10:12:45Z</time>
      </trkpt>
      <trkpt lat="45.93034" lon="4.68623">
        <ele>355</ele>
        <time>2018-09-07T10:12:46Z</time>
      </trkpt>
      <trkpt lat="45.93041" lon="4.68626">
        <ele>355</ele>
        <time>2018-09-07T10:12:47Z</time>
      </trkpt>
      <trkpt lat="45.93047" lon="4.68628">
        <ele>355</ele>
        <time>2018-09-07T10:12:48Z</time>
      </trkpt>
      <trkpt lat="45.93054" lon="4.6863">
        <ele>355</ele>
        <time>2018-09-07T10:12:49Z</time>
      </trkpt>
      <trkpt lat="45.93061" lon="4.68631">
        <ele>354</ele>
        <time>2018-09-07T10:12:50Z</time>
      </trkpt>
      <trkpt lat="45.93069" lon="4.68633">
        <ele>354</ele>
        <time>2018-09-07T10:12:51Z</time>
      </trkpt>
      <trkpt lat="45.93076" lon="4.68634">
        <ele>354</ele>
        <time>2018-09-07T10:12:52Z</time>
      </trkpt>
      <trkpt lat="45.93084" lon="4.68635">
        <ele>349</ele>
        <time>2018-09-07T10:12:53Z</time>
      </trkpt>
      <trkpt lat="45.93094" lon="4.68635">
        <ele>349</ele>
        <time>2018-09-07T10:12:54Z</time>
      </trkpt>
      <trkpt lat="45.93103" lon="4.68637">
        <ele>349</ele>
        <time>2018-09-07T10:12:55Z</time>
      </trkpt>
      <trkpt lat="45.93112" lon="4.68637">
        <ele>348</ele>
        <time>2018-09-07T10:12:56Z</time>
      </trkpt>
      <trkpt lat="45.93121" lon="4.68639">
        <ele>348</ele>
        <time>2018-09-07T10:12:57Z</time>
      </trkpt>
      <trkpt lat="45.9313" lon="4.68641">
        <ele>348</ele>
        <time>2018-09-07T10:12:58Z</time>
      </trkpt>
      <trkpt lat="45.93139" lon="4.68643">
        <ele>347</ele>
        <time>2018-09-07T10:12:59Z</time>
      </trkpt>
      <trkpt lat="45.9315" lon="4.68648">
        <ele>347</ele>
        <time>2018-09-07T10:13:00Z</time>
      </trkpt>
      <trkpt lat="45.93159" lon="4.6865">
        <ele>347</ele>
        <time>2018-09-07T10:13:01Z</time>
      </trkpt>
      <trkpt lat="45.93169" lon="4.6865">
        <ele>345</ele>
        <time>2018-09-07T10:13:02Z</time>
      </trkpt>
      <trkpt lat="45.93179" lon="4.68653">
        <ele>345</ele>
        <time>2018-09-07T10:13:03Z</time>
      </trkpt>
      <trkpt lat="45.93188" lon="4.68655">
        <ele>345</ele>
        <time>2018-09-07T10:13:04Z</time>
      </trkpt>
      <trkpt lat="45.93197" lon="4.68656">
        <ele>345</ele>
        <time>2018-09-07T10:13:05Z</time>
      </trkpt>
      <trkpt lat="45.93207" lon="4.68658">
        <ele>344</ele>
        <time>2018-09-07T10:13:06Z</time>
      </trkpt>
      <trkpt lat="45.93216" lon="4.68661">
        <ele>344</ele>
        <time>2018-09-07T10:13:07Z</time>
      </trkpt>
      <trkpt lat="45.93224" lon="4.68663">
        <ele>344</ele>
        <time>2018-09-07T10:13:08Z</time>
      </trkpt>
      <trkpt lat="45.93233" lon="4.68666">
        <ele>344</ele>
        <time>2018-09-07T10:13:09Z</time>
      </trkpt>
      <trkpt lat="45.93242" lon="4.68666">
        <ele>344</ele>
        <time>2018-09-07T10:13:10Z</time>
      </trkpt>
      <trkpt lat="45.93251" lon="4.68668">
        <ele>344</ele>
        <time>2018-09-07T10:13:11Z</time>
      </trkpt>
      <trkpt lat="45.93259" lon="4.6867">
        <ele>344</ele>
        <time>2018-09-07T10:13:12Z</time>
      </trkpt>
      <trkpt lat="45.93268" lon="4.68672">
        <ele>344</ele>
        <time>2018-09-07T10:13:13Z</time>
      </trkpt>
      <trkpt lat="45.93276" lon="4.68673">
        <ele>344</ele>
        <time>2018-09-07T10:13:14Z</time>
      </trkpt>
      <trkpt lat="45.93283" lon="4.68675">
        <ele>344</ele>
        <time>2018-09-07T10:13:15Z</time>
      </trkpt>
      <trkpt lat="45.93291" lon="4.68677">
        <ele>344</ele>
        <time>2018-09-07T10:13:16Z</time>
      </trkpt>
      <trkpt lat="45.93298" lon="4.68679">
        <ele>344</ele>
        <time>2018-09-07T10:13:17Z</time>
      </trkpt>
      <trkpt lat="45.93305" lon="4.6868">
        <ele>344</ele>
        <time>2018-09-07T10:13:18Z</time>
      </trkpt>
      <trkpt lat="45.93312" lon="4.68682">
        <ele>344</ele>
        <time>2018-09-07T10:13:19Z</time>
      </trkpt>
      <trkpt lat="45.93318" lon="4.68683">
        <ele>344</ele>
        <time>2018-09-07T10:13:20Z</time>
      </trkpt>
      <trkpt lat="45.93325" lon="4.68686">
        <ele>344</ele>
        <time>2018-09-07T10:13:21Z</time>
      </trkpt>
      <trkpt lat="45.93332" lon="4.68687">
        <ele>344</ele>
        <time>2018-09-07T10:13:22Z</time>
      </trkpt>
      <trkpt lat="45.93338" lon="4.68689">
        <ele>344</ele>
        <time>2018-09-07T10:13:23Z</time>
      </trkpt>
      <trkpt lat="45.93344" lon="4.6869">
        <ele>344</ele>
        <time>2018-09-07T10:13:24Z</time>
      </trkpt>
      <trkpt lat="45.9335" lon="4.68691">
        <ele>344</ele>
        <time>2018-09-07T10:13:25Z</time>
      </trkpt>
      <trkpt lat="45.93356" lon="4.68692">
        <ele>344</ele>
        <time>2018-09-07T10:13:26Z</time>
      </trkpt>
      <trkpt lat="45.93362" lon="4.68694">
        <ele>344</ele>
        <time>2018-09-07T10:13:27Z</time>
      </trkpt>
      <trkpt lat="45.93368" lon="4.68695">
        <ele>344</ele>
        <time>2018-09-07T10:13:28Z</time>
      </trkpt>
      <trkpt lat="45.93374" lon="4.68697">
        <ele>344</ele>
        <time>2018-09-07T10:13:29Z</time>
      </trkpt>
      <trkpt lat="45.9338" lon="4.68698">
        <ele>344</ele>
        <time>2018-09-07T10:13:30Z</time>
      </trkpt>
      <trkpt lat="45.93385" lon="4.687">
        <ele>344</ele>
        <time>2018-09-07T10:13:31Z</time>
      </trkpt>
      <trkpt lat="45.93391" lon="4.68702">
        <ele>344</ele>
        <time>2018-09-07T10:13:32Z</time>
      </trkpt>
      <trkpt lat="45.93396" lon="4.68704">
        <ele>344</ele>
        <time>2018-09-07T10:13:33Z</time>
      </trkpt>
      <trkpt lat="45.93402" lon="4.68706">
        <ele>344</ele>
        <time>2018-09-07T10:13:34Z</time>
      </trkpt>
      <trkpt lat="45.93407" lon="4.68707">
        <ele>344</ele>
        <time>2018-09-07T10:13:35Z</time>
      </trkpt>
      <trkpt lat="45.93413" lon="4.68708">
        <ele>344</ele>
        <time>2018-09-07T10:13:36Z</time>
      </trkpt>
      <trkpt lat="45.93419" lon="4.68709">
        <ele>343</ele>
        <time>2018-09-07T10:13:37Z</time>
      </trkpt>
      <trkpt lat="45.93424" lon="4.68711">
        <ele>343</ele>
        <time>2018-09-07T10:13:38Z</time>
      </trkpt>
      <trkpt lat="45.93431" lon="4.68712">
        <ele>343</ele>
        <time>2018-09-07T10:13:39Z</time>
      </trkpt>
      <trkpt lat="45.93437" lon="4.68714">
        <ele>343</ele>
        <time>2018-09-07T10:13:40Z</time>
      </trkpt>
      <trkpt lat="45.93443" lon="4.68716">
        <ele>343</ele>
        <time>2018-09-07T10:13:41Z</time>
      </trkpt>
      <trkpt lat="45.93449" lon="4.68717">
        <ele>343</ele>
        <time>2018-09-07T10:13:42Z</time>
      </trkpt>
      <trkpt lat="45.93454" lon="4.68719">
        <ele>342</ele>
        <time>2018-09-07T10:13:43Z</time>
      </trkpt>
      <trkpt lat="45.9346" lon="4.68718">
        <ele>342</ele>
        <time>2018-09-07T10:13:44Z</time>
      </trkpt>
      <trkpt lat="45.93465" lon="4.68719">
        <ele>342</ele>
        <time>2018-09-07T10:13:45Z</time>
      </trkpt>
      <trkpt lat="45.93471" lon="4.6872">
        <ele>342</ele>
        <time>2018-09-07T10:13:46Z</time>
      </trkpt>
      <trkpt lat="45.93476" lon="4.68721">
        <ele>342</ele>
        <time>2018-09-07T10:13:47Z</time>
      </trkpt>
      <trkpt lat="45.93481" lon="4.68723">
        <ele>342</ele>
        <time>2018-09-07T10:13:48Z</time>
      </trkpt>
      <trkpt lat="45.93485" lon="4.68724">
        <ele>342</ele>
        <time>2018-09-07T10:13:49Z</time>
      </trkpt>
      <trkpt lat="45.93491" lon="4.68726">
        <ele>342</ele>
        <time>2018-09-07T10:13:50Z</time>
      </trkpt>
      <trkpt lat="45.93495" lon="4.68727">
        <ele>342</ele>
        <time>2018-09-07T10:13:51Z</time>
      </trkpt>
      <trkpt lat="45.93503" lon="4.68731">
        <ele>342</ele>
        <time>2018-09-07T10:13:53Z</time>
      </trkpt>
      <trkpt lat="45.93508" lon="4.68732">
        <ele>342</ele>
        <time>2018-09-07T10:13:54Z</time>
      </trkpt>
      <trkpt lat="45.93515" lon="4.68731">
        <ele>342</ele>
        <time>2018-09-07T10:13:55Z</time>
      </trkpt>
      <trkpt lat="45.93521" lon="4.68733">
        <ele>342</ele>
        <time>2018-09-07T10:13:56Z</time>
      </trkpt>
      <trkpt lat="45.93527" lon="4.68735">
        <ele>342</ele>
        <time>2018-09-07T10:13:57Z</time>
      </trkpt>
      <trkpt lat="45.93533" lon="4.68736">
        <ele>342</ele>
        <time>2018-09-07T10:13:58Z</time>
      </trkpt>
      <trkpt lat="45.93539" lon="4.68738">
        <ele>342</ele>
        <time>2018-09-07T10:13:59Z</time>
      </trkpt>
      <trkpt lat="45.93545" lon="4.68738">
        <ele>342</ele>
        <time>2018-09-07T10:14:00Z</time>
      </trkpt>
      <trkpt lat="45.93549" lon="4.6874">
        <ele>342</ele>
        <time>2018-09-07T10:14:01Z</time>
      </trkpt>
      <trkpt lat="45.93555" lon="4.68741">
        <ele>342</ele>
        <time>2018-09-07T10:14:02Z</time>
      </trkpt>
      <trkpt lat="45.9356" lon="4.68742">
        <ele>342</ele>
        <time>2018-09-07T10:14:03Z</time>
      </trkpt>
      <trkpt lat="45.93566" lon="4.68745">
        <ele>343</ele>
        <time>2018-09-07T10:14:04Z</time>
      </trkpt>
      <trkpt lat="45.93571" lon="4.68747">
        <ele>343</ele>
        <time>2018-09-07T10:14:05Z</time>
      </trkpt>
      <trkpt lat="45.93578" lon="4.68746">
        <ele>343</ele>
        <time>2018-09-07T10:14:06Z</time>
      </trkpt>
      <trkpt lat="45.93584" lon="4.68748">
        <ele>344</ele>
        <time>2018-09-07T10:14:07Z</time>
      </trkpt>
      <trkpt lat="45.93589" lon="4.68749">
        <ele>343</ele>
        <time>2018-09-07T10:14:08Z</time>
      </trkpt>
      <trkpt lat="45.93593" lon="4.68752">
        <ele>344</ele>
        <time>2018-09-07T10:14:09Z</time>
      </trkpt>
      <trkpt lat="45.93599" lon="4.68753">
        <ele>344</ele>
        <time>2018-09-07T10:14:10Z</time>
      </trkpt>
      <trkpt lat="45.93605" lon="4.68754">
        <ele>344</ele>
        <time>2018-09-07T10:14:11Z</time>
      </trkpt>
      <trkpt lat="45.93611" lon="4.68754">
        <ele>344</ele>
        <time>2018-09-07T10:14:12Z</time>
      </trkpt>
      <trkpt lat="45.93616" lon="4.68755">
        <ele>343</ele>
        <time>2018-09-07T10:14:13Z</time>
      </trkpt>
      <trkpt lat="45.93621" lon="4.68756">
        <ele>343</ele>
        <time>2018-09-07T10:14:14Z</time>
      </trkpt>
      <trkpt lat="45.93626" lon="4.68758">
        <ele>343</ele>
        <time>2018-09-07T10:14:15Z</time>
      </trkpt>
      <trkpt lat="45.93632" lon="4.68761">
        <ele>343</ele>
        <time>2018-09-07T10:14:16Z</time>
      </trkpt>
      <trkpt lat="45.93637" lon="4.68764">
        <ele>343</ele>
        <time>2018-09-07T10:14:17Z</time>
      </trkpt>
      <trkpt lat="45.93642" lon="4.68766">
        <ele>343</ele>
        <time>2018-09-07T10:14:18Z</time>
      </trkpt>
      <trkpt lat="45.93648" lon="4.68769">
        <ele>343</ele>
        <time>2018-09-07T10:14:19Z</time>
      </trkpt>
      <trkpt lat="45.93653" lon="4.68771">
        <ele>343</ele>
        <time>2018-09-07T10:14:20Z</time>
      </trkpt>
      <trkpt lat="45.93659" lon="4.68771">
        <ele>343</ele>
        <time>2018-09-07T10:14:21Z</time>
      </trkpt>
      <trkpt lat="45.93666" lon="4.68769">
        <ele>343</ele>
        <time>2018-09-07T10:14:22Z</time>
      </trkpt>
      <trkpt lat="45.93671" lon="4.68771">
        <ele>342</ele>
        <time>2018-09-07T10:14:23Z</time>
      </trkpt>
      <trkpt lat="45.93675" lon="4.6877">
        <ele>342</ele>
        <time>2018-09-07T10:14:24Z</time>
      </trkpt>
      <trkpt lat="45.9368" lon="4.6877">
        <ele>342</ele>
        <time>2018-09-07T10:14:25Z</time>
      </trkpt>
      <trkpt lat="45.93684" lon="4.68771">
        <ele>342</ele>
        <time>2018-09-07T10:14:26Z</time>
      </trkpt>
      <trkpt lat="45.93693" lon="4.68773">
        <ele>342</ele>
        <time>2018-09-07T10:14:28Z</time>
      </trkpt>
      <trkpt lat="45.93697" lon="4.68774">
        <ele>342</ele>
        <time>2018-09-07T10:14:29Z</time>
      </trkpt>
      <trkpt lat="45.93702" lon="4.68777">
        <ele>342</ele>
        <time>2018-09-07T10:14:30Z</time>
      </trkpt>
      <trkpt lat="45.93707" lon="4.68779">
        <ele>342</ele>
        <time>2018-09-07T10:14:31Z</time>
      </trkpt>
      <trkpt lat="45.93712" lon="4.68781">
        <ele>342</ele>
        <time>2018-09-07T10:14:32Z</time>
      </trkpt>
      <trkpt lat="45.93718" lon="4.68783">
        <ele>342</ele>
        <time>2018-09-07T10:14:33Z</time>
      </trkpt>
      <trkpt lat="45.93724" lon="4.68784">
        <ele>342</ele>
        <time>2018-09-07T10:14:34Z</time>
      </trkpt>
      <trkpt lat="45.9373" lon="4.68786">
        <ele>342</ele>
        <time>2018-09-07T10:14:35Z</time>
      </trkpt>
      <trkpt lat="45.93735" lon="4.68788">
        <ele>342</ele>
        <time>2018-09-07T10:14:36Z</time>
      </trkpt>
      <trkpt lat="45.93741" lon="4.6879">
        <ele>342</ele>
        <time>2018-09-07T10:14:37Z</time>
      </trkpt>
      <trkpt lat="45.93746" lon="4.68792">
        <ele>342</ele>
        <time>2018-09-07T10:14:38Z</time>
      </trkpt>
      <trkpt lat="45.93752" lon="4.68793">
        <ele>341</ele>
        <time>2018-09-07T10:14:39Z</time>
      </trkpt>
      <trkpt lat="45.93758" lon="4.68797">
        <ele>341</ele>
        <time>2018-09-07T10:14:40Z</time>
      </trkpt>
      <trkpt lat="45.93764" lon="4.68798">
        <ele>341</ele>
        <time>2018-09-07T10:14:41Z</time>
      </trkpt>
      <trkpt lat="45.9377" lon="4.688">
        <ele>341</ele>
        <time>2018-09-07T10:14:42Z</time>
      </trkpt>
      <trkpt lat="45.93776" lon="4.68804">
        <ele>341</ele>
        <time>2018-09-07T10:14:43Z</time>
      </trkpt>
      <trkpt lat="45.93781" lon="4.68807">
        <ele>341</ele>
        <time>2018-09-07T10:14:44Z</time>
      </trkpt>
      <trkpt lat="45.93786" lon="4.68807">
        <ele>341</ele>
        <time>2018-09-07T10:14:45Z</time>
      </trkpt>
      <trkpt lat="45.93791" lon="4.6881">
        <ele>341</ele>
        <time>2018-09-07T10:14:46Z</time>
      </trkpt>
      <trkpt lat="45.93798" lon="4.68814">
        <ele>341</ele>
        <time>2018-09-07T10:14:47Z</time>
      </trkpt>
      <trkpt lat="45.93803" lon="4.68818">
        <ele>341</ele>
        <time>2018-09-07T10:14:48Z</time>
      </trkpt>
      <trkpt lat="45.9381" lon="4.68825">
        <ele>341</ele>
        <time>2018-09-07T10:14:49Z</time>
      </trkpt>
      <trkpt lat="45.93815" lon="4.68827">
        <ele>341</ele>
        <time>2018-09-07T10:14:50Z</time>
      </trkpt>
      <trkpt lat="45.93819" lon="4.6883">
        <ele>341</ele>
        <time>2018-09-07T10:14:51Z</time>
      </trkpt>
      <trkpt lat="45.93826" lon="4.68833">
        <ele>342</ele>
        <time>2018-09-07T10:14:52Z</time>
      </trkpt>
      <trkpt lat="45.93831" lon="4.68836">
        <ele>342</ele>
        <time>2018-09-07T10:14:53Z</time>
      </trkpt>
      <trkpt lat="45.93837" lon="4.68839">
        <ele>342</ele>
        <time>2018-09-07T10:14:54Z</time>
      </trkpt>
      <trkpt lat="45.93842" lon="4.68843">
        <ele>342</ele>
        <time>2018-09-07T10:14:55Z</time>
      </trkpt>
      <trkpt lat="45.93846" lon="4.68845">
        <ele>342</ele>
        <time>2018-09-07T10:14:56Z</time>
      </trkpt>
      <trkpt lat="45.93851" lon="4.68848">
        <ele>342</ele>
        <time>2018-09-07T10:14:57Z</time>
      </trkpt>
      <trkpt lat="45.93859" lon="4.68851">
        <ele>342</ele>
        <time>2018-09-07T10:14:59Z</time>
      </trkpt>
      <trkpt lat="45.93864" lon="4.68853">
        <ele>342</ele>
        <time>2018-09-07T10:15:00Z</time>
      </trkpt>
      <trkpt lat="45.93868" lon="4.68856">
        <ele>342</ele>
        <time>2018-09-07T10:15:01Z</time>
      </trkpt>
      <trkpt lat="45.93873" lon="4.6886">
        <ele>342</ele>
        <time>2018-09-07T10:15:02Z</time>
      </trkpt>
      <trkpt lat="45.93878" lon="4.68862">
        <ele>343</ele>
        <time>2018-09-07T10:15:03Z</time>
      </trkpt>
      <trkpt lat="45.93882" lon="4.68866">
        <ele>343</ele>
        <time>2018-09-07T10:15:04Z</time>
      </trkpt>
      <trkpt lat="45.93887" lon="4.68869">
        <ele>343</ele>
        <time>2018-09-07T10:15:05Z</time>
      </trkpt>
      <trkpt lat="45.93891" lon="4.68872">
        <ele>343</ele>
        <time>2018-09-07T10:15:06Z</time>
      </trkpt>
      <trkpt lat="45.93899" lon="4.68877">
        <ele>342</ele>
        <time>2018-09-07T10:15:08Z</time>
      </trkpt>
      <trkpt lat="45.93904" lon="4.6888">
        <ele>342</ele>
        <time>2018-09-07T10:15:09Z</time>
      </trkpt>
      <trkpt lat="45.93909" lon="4.68882">
        <ele>342</ele>
        <time>2018-09-07T10:15:10Z</time>
      </trkpt>
      <trkpt lat="45.93913" lon="4.68883">
        <ele>342</ele>
        <time>2018-09-07T10:15:11Z</time>
      </trkpt>
      <trkpt lat="45.93918" lon="4.68885">
        <ele>342</ele>
        <time>2018-09-07T10:15:12Z</time>
      </trkpt>
      <trkpt lat="45.93922" lon="4.68887">
        <ele>342</ele>
        <time>2018-09-07T10:15:13Z</time>
      </trkpt>
      <trkpt lat="45.93926" lon="4.68889">
        <ele>342</ele>
        <time>2018-09-07T10:15:14Z</time>
      </trkpt>
      <trkpt lat="45.93931" lon="4.68891">
        <ele>342</ele>
        <time>2018-09-07T10:15:15Z</time>
      </trkpt>
      <trkpt lat="45.93936" lon="4.68891">
        <ele>342</ele>
        <time>2018-09-07T10:15:16Z</time>
      </trkpt>
      <trkpt lat="45.93941" lon="4.68892">
        <ele>342</ele>
        <time>2018-09-07T10:15:17Z</time>
      </trkpt>
      <trkpt lat="45.93948" lon="4.68892">
        <ele>342</ele>
        <time>2018-09-07T10:15:18Z</time>
      </trkpt>
      <trkpt lat="45.93953" lon="4.68892">
        <ele>342</ele>
        <time>2018-09-07T10:15:19Z</time>
      </trkpt>
      <trkpt lat="45.93959" lon="4.68893">
        <ele>342</ele>
        <time>2018-09-07T10:15:20Z</time>
      </trkpt>
      <trkpt lat="45.93963" lon="4.68896">
        <ele>342</ele>
        <time>2018-09-07T10:15:21Z</time>
      </trkpt>
      <trkpt lat="45.93967" lon="4.68899">
        <ele>342</ele>
        <time>2018-09-07T10:15:22Z</time>
      </trkpt>
      <trkpt lat="45.93972" lon="4.68899">
        <ele>342</ele>
        <time>2018-09-07T10:15:23Z</time>
      </trkpt>
      <trkpt lat="45.93979" lon="4.68902">
        <ele>342</ele>
        <time>2018-09-07T10:15:25Z</time>
      </trkpt>
      <trkpt lat="45.93981" lon="4.68902">
        <ele>342</ele>
        <time>2018-09-07T10:15:26Z</time>
      </trkpt>
      <trkpt lat="45.93986" lon="4.68903">
        <ele>342</ele>
        <time>2018-09-07T10:15:27Z</time>
      </trkpt>
      <trkpt lat="45.9399" lon="4.68906">
        <ele>342</ele>
        <time>2018-09-07T10:15:28Z</time>
      </trkpt>
      <trkpt lat="45.93997" lon="4.68909">
        <ele>342</ele>
        <time>2018-09-07T10:15:30Z</time>
      </trkpt>
      <trkpt lat="45.93999" lon="4.68911">
        <ele>342</ele>
        <time>2018-09-07T10:15:31Z</time>
      </trkpt>
      <trkpt lat="45.94006" lon="4.68914">
        <ele>342</ele>
        <time>2018-09-07T10:15:33Z</time>
      </trkpt>
      <trkpt lat="45.94007" lon="4.68915">
        <ele>341</ele>
        <time>2018-09-07T10:15:34Z</time>
      </trkpt>
      <trkpt lat="45.94014" lon="4.68919">
        <ele>342</ele>
        <time>2018-09-07T10:15:39Z</time>
      </trkpt>
      <trkpt lat="45.94015" lon="4.68919">
        <ele>342</ele>
        <time>2018-09-07T10:15:40Z</time>
      </trkpt>
      <trkpt lat="45.94016" lon="4.68919">
        <ele>342</ele>
        <time>2018-09-07T10:16:14Z</time>
      </trkpt>
      <trkpt lat="45.94016" lon="4.68919">
        <ele>341</ele>
        <time>2018-09-07T10:16:15Z</time>
      </trkpt>
      <trkpt lat="45.94024" lon="4.68921">
        <ele>341</ele>
        <time>2018-09-07T10:16:19Z</time>
      </trkpt>
      <trkpt lat="45.94032" lon="4.68924">
        <ele>341</ele>
        <time>2018-09-07T10:16:20Z</time>
      </trkpt>
      <trkpt lat="45.9404" lon="4.68927">
        <ele>341</ele>
        <time>2018-09-07T10:16:22Z</time>
      </trkpt>
      <trkpt lat="45.94045" lon="4.68929">
        <ele>341</ele>
        <time>2018-09-07T10:16:23Z</time>
      </trkpt>
      <trkpt lat="45.9405" lon="4.68932">
        <ele>341</ele>
        <time>2018-09-07T10:16:24Z</time>
      </trkpt>
      <trkpt lat="45.94056" lon="4.68935">
        <ele>341</ele>
        <time>2018-09-07T10:16:25Z</time>
      </trkpt>
      <trkpt lat="45.94061" lon="4.68939">
        <ele>341</ele>
        <time>2018-09-07T10:16:26Z</time>
      </trkpt>
      <trkpt lat="45.94067" lon="4.68943">
        <ele>341</ele>
        <time>2018-09-07T10:16:27Z</time>
      </trkpt>
      <trkpt lat="45.94073" lon="4.68945">
        <ele>341</ele>
        <time>2018-09-07T10:16:28Z</time>
      </trkpt>
      <trkpt lat="45.94079" lon="4.68945">
        <ele>341</ele>
        <time>2018-09-07T10:16:29Z</time>
      </trkpt>
      <trkpt lat="45.94085" lon="4.68944">
        <ele>340</ele>
        <time>2018-09-07T10:16:30Z</time>
      </trkpt>
      <trkpt lat="45.94091" lon="4.68945">
        <ele>340</ele>
        <time>2018-09-07T10:16:31Z</time>
      </trkpt>
      <trkpt lat="45.94096" lon="4.68946">
        <ele>340</ele>
        <time>2018-09-07T10:16:32Z</time>
      </trkpt>
      <trkpt lat="45.94101" lon="4.68947">
        <ele>340</ele>
        <time>2018-09-07T10:16:33Z</time>
      </trkpt>
      <trkpt lat="45.94106" lon="4.68949">
        <ele>340</ele>
        <time>2018-09-07T10:16:34Z</time>
      </trkpt>
      <trkpt lat="45.94111" lon="4.6895">
        <ele>340</ele>
        <time>2018-09-07T10:16:35Z</time>
      </trkpt>
      <trkpt lat="45.94116" lon="4.68952">
        <ele>340</ele>
        <time>2018-09-07T10:16:36Z</time>
      </trkpt>
      <trkpt lat="45.94123" lon="4.68953">
        <ele>340</ele>
        <time>2018-09-07T10:16:37Z</time>
      </trkpt>
      <trkpt lat="45.94128" lon="4.68955">
        <ele>340</ele>
        <time>2018-09-07T10:16:38Z</time>
      </trkpt>
      <trkpt lat="45.94133" lon="4.68957">
        <ele>340</ele>
        <time>2018-09-07T10:16:39Z</time>
      </trkpt>
      <trkpt lat="45.94138" lon="4.68961">
        <ele>340</ele>
        <time>2018-09-07T10:16:40Z</time>
      </trkpt>
      <trkpt lat="45.94143" lon="4.68964">
        <ele>340</ele>
        <time>2018-09-07T10:16:41Z</time>
      </trkpt>
      <trkpt lat="45.94148" lon="4.68967">
        <ele>340</ele>
        <time>2018-09-07T10:16:42Z</time>
      </trkpt>
      <trkpt lat="45.94155" lon="4.68969">
        <ele>340</ele>
        <time>2018-09-07T10:16:43Z</time>
      </trkpt>
      <trkpt lat="45.94161" lon="4.68972">
        <ele>340</ele>
        <time>2018-09-07T10:16:44Z</time>
      </trkpt>
      <trkpt lat="45.94168" lon="4.68976">
        <ele>339</ele>
        <time>2018-09-07T10:16:45Z</time>
      </trkpt>
      <trkpt lat="45.94175" lon="4.68977">
        <ele>339</ele>
        <time>2018-09-07T10:16:46Z</time>
      </trkpt>
      <trkpt lat="45.94181" lon="4.68979">
        <ele>339</ele>
        <time>2018-09-07T10:16:47Z</time>
      </trkpt>
      <trkpt lat="45.94186" lon="4.6898">
        <ele>338</ele>
        <time>2018-09-07T10:16:48Z</time>
      </trkpt>
      <trkpt lat="45.94192" lon="4.68982">
        <ele>338</ele>
        <time>2018-09-07T10:16:49Z</time>
      </trkpt>
      <trkpt lat="45.94197" lon="4.68984">
        <ele>338</ele>
        <time>2018-09-07T10:16:50Z</time>
      </trkpt>
      <trkpt lat="45.94202" lon="4.68986">
        <ele>338</ele>
        <time>2018-09-07T10:16:51Z</time>
      </trkpt>
      <trkpt lat="45.94208" lon="4.68987">
        <ele>338</ele>
        <time>2018-09-07T10:16:52Z</time>
      </trkpt>
      <trkpt lat="45.94212" lon="4.68988">
        <ele>338</ele>
        <time>2018-09-07T10:16:53Z</time>
      </trkpt>
      <trkpt lat="45.94217" lon="4.68989">
        <ele>338</ele>
        <time>2018-09-07T10:16:54Z</time>
      </trkpt>
      <trkpt lat="45.94223" lon="4.68988">
        <ele>338</ele>
        <time>2018-09-07T10:16:55Z</time>
      </trkpt>
      <trkpt lat="45.94228" lon="4.68989">
        <ele>338</ele>
        <time>2018-09-07T10:16:56Z</time>
      </trkpt>
      <trkpt lat="45.94234" lon="4.68991">
        <ele>338</ele>
        <time>2018-09-07T10:16:57Z</time>
      </trkpt>
      <trkpt lat="45.9424" lon="4.6899">
        <ele>338</ele>
        <time>2018-09-07T10:16:58Z</time>
      </trkpt>
      <trkpt lat="45.94246" lon="4.68991">
        <ele>338</ele>
        <time>2018-09-07T10:16:59Z</time>
      </trkpt>
      <trkpt lat="45.94252" lon="4.68994">
        <ele>338</ele>
        <time>2018-09-07T10:17:00Z</time>
      </trkpt>
      <trkpt lat="45.94257" lon="4.68995">
        <ele>337</ele>
        <time>2018-09-07T10:17:01Z</time>
      </trkpt>
      <trkpt lat="45.94263" lon="4.68996">
        <ele>337</ele>
        <time>2018-09-07T10:17:02Z</time>
      </trkpt>
      <trkpt lat="45.94269" lon="4.68998">
        <ele>337</ele>
        <time>2018-09-07T10:17:03Z</time>
      </trkpt>
      <trkpt lat="45.94273" lon="4.68999">
        <ele>337</ele>
        <time>2018-09-07T10:17:04Z</time>
      </trkpt>
      <trkpt lat="45.94278" lon="4.69">
        <ele>337</ele>
        <time>2018-09-07T10:17:05Z</time>
      </trkpt>
      <trkpt lat="45.94283" lon="4.69001">
        <ele>337</ele>
        <time>2018-09-07T10:17:06Z</time>
      </trkpt>
      <trkpt lat="45.94289" lon="4.69001">
        <ele>337</ele>
        <time>2018-09-07T10:17:07Z</time>
      </trkpt>
      <trkpt lat="45.94294" lon="4.69001">
        <ele>337</ele>
        <time>2018-09-07T10:17:08Z</time>
      </trkpt>
      <trkpt lat="45.94298" lon="4.69002">
        <ele>337</ele>
        <time>2018-09-07T10:17:09Z</time>
      </trkpt>
      <trkpt lat="45.94304" lon="4.69003">
        <ele>337</ele>
        <time>2018-09-07T10:17:10Z</time>
      </trkpt>
      <trkpt lat="45.94309" lon="4.69004">
        <ele>337</ele>
        <time>2018-09-07T10:17:11Z</time>
      </trkpt>
      <trkpt lat="45.94315" lon="4.69005">
        <ele>337</ele>
        <time>2018-09-07T10:17:12Z</time>
      </trkpt>
      <trkpt lat="45.9432" lon="4.69004">
        <ele>337</ele>
        <time>2018-09-07T10:17:13Z</time>
      </trkpt>
      <trkpt lat="45.94325" lon="4.69004">
        <ele>337</ele>
        <time>2018-09-07T10:17:14Z</time>
      </trkpt>
      <trkpt lat="45.94331" lon="4.69003">
        <ele>337</ele>
        <time>2018-09-07T10:17:15Z</time>
      </trkpt>
      <trkpt lat="45.94337" lon="4.69005">
        <ele>337</ele>
        <time>2018-09-07T10:17:16Z</time>
      </trkpt>
      <trkpt lat="45.94342" lon="4.69005">
        <ele>337</ele>
        <time>2018-09-07T10:17:17Z</time>
      </trkpt>
      <trkpt lat="45.94348" lon="4.69005">
        <ele>338</ele>
        <time>2018-09-07T10:17:18Z</time>
      </trkpt>
      <trkpt lat="45.94354" lon="4.69006">
        <ele>338</ele>
        <time>2018-09-07T10:17:19Z</time>
      </trkpt>
      <trkpt lat="45.94359" lon="4.69006">
        <ele>338</ele>
        <time>2018-09-07T10:17:20Z</time>
      </trkpt>
      <trkpt lat="45.94364" lon="4.69006">
        <ele>338</ele>
        <time>2018-09-07T10:17:21Z</time>
      </trkpt>
      <trkpt lat="45.94369" lon="4.69006">
        <ele>338</ele>
        <time>2018-09-07T10:17:22Z</time>
      </trkpt>
      <trkpt lat="45.94374" lon="4.69006">
        <ele>338</ele>
        <time>2018-09-07T10:17:23Z</time>
      </trkpt>
      <trkpt lat="45.94378" lon="4.69006">
        <ele>338</ele>
        <time>2018-09-07T10:17:24Z</time>
      </trkpt>
      <trkpt lat="45.94384" lon="4.69004">
        <ele>338</ele>
        <time>2018-09-07T10:17:25Z</time>
      </trkpt>
      <trkpt lat="45.94389" lon="4.69004">
        <ele>338</ele>
        <time>2018-09-07T10:17:26Z</time>
      </trkpt>
      <trkpt lat="45.94394" lon="4.69003">
        <ele>339</ele>
        <time>2018-09-07T10:17:27Z</time>
      </trkpt>
      <trkpt lat="45.94402" lon="4.69004">
        <ele>339</ele>
        <time>2018-09-07T10:17:29Z</time>
      </trkpt>
      <trkpt lat="45.94407" lon="4.69004">
        <ele>339</ele>
        <time>2018-09-07T10:17:30Z</time>
      </trkpt>
      <trkpt lat="45.94412" lon="4.69004">
        <ele>339</ele>
        <time>2018-09-07T10:17:31Z</time>
      </trkpt>
      <trkpt lat="45.94416" lon="4.69005">
        <ele>339</ele>
        <time>2018-09-07T10:17:32Z</time>
      </trkpt>
      <trkpt lat="45.94425" lon="4.69003">
        <ele>339</ele>
        <time>2018-09-07T10:17:34Z</time>
      </trkpt>
      <trkpt lat="45.94429" lon="4.69003">
        <ele>340</ele>
        <time>2018-09-07T10:17:35Z</time>
      </trkpt>
      <trkpt lat="45.94434" lon="4.69003">
        <ele>340</ele>
        <time>2018-09-07T10:17:36Z</time>
      </trkpt>
      <trkpt lat="45.94439" lon="4.69004">
        <ele>340</ele>
        <time>2018-09-07T10:17:37Z</time>
      </trkpt>
      <trkpt lat="45.94447" lon="4.69006">
        <ele>340</ele>
        <time>2018-09-07T10:17:39Z</time>
      </trkpt>
      <trkpt lat="45.94453" lon="4.69005">
        <ele>340</ele>
        <time>2018-09-07T10:17:40Z</time>
      </trkpt>
      <trkpt lat="45.94457" lon="4.69005">
        <ele>340</ele>
        <time>2018-09-07T10:17:41Z</time>
      </trkpt>
      <trkpt lat="45.94462" lon="4.69004">
        <ele>341</ele>
        <time>2018-09-07T10:17:42Z</time>
      </trkpt>
      <trkpt lat="45.94471" lon="4.69006">
        <ele>341</ele>
        <time>2018-09-07T10:17:44Z</time>
      </trkpt>
      <trkpt lat="45.94475" lon="4.69005">
        <ele>341</ele>
        <time>2018-09-07T10:17:45Z</time>
      </trkpt>
      <trkpt lat="45.9448" lon="4.69006">
        <ele>341</ele>
        <time>2018-09-07T10:17:46Z</time>
      </trkpt>
      <trkpt lat="45.94485" lon="4.69006">
        <ele>341</ele>
        <time>2018-09-07T10:17:47Z</time>
      </trkpt>
      <trkpt lat="45.94491" lon="4.69006">
        <ele>341</ele>
        <time>2018-09-07T10:17:48Z</time>
      </trkpt>
      <trkpt lat="45.94494" lon="4.69008">
        <ele>341</ele>
        <time>2018-09-07T10:17:49Z</time>
      </trkpt>
      <trkpt lat="45.94499" lon="4.6901">
        <ele>341</ele>
        <time>2018-09-07T10:17:50Z</time>
      </trkpt>
      <trkpt lat="45.94504" lon="4.69011">
        <ele>341</ele>
        <time>2018-09-07T10:17:51Z</time>
      </trkpt>
      <trkpt lat="45.94508" lon="4.69013">
        <ele>341</ele>
        <time>2018-09-07T10:17:52Z</time>
      </trkpt>
      <trkpt lat="45.94513" lon="4.69014">
        <ele>342</ele>
        <time>2018-09-07T10:17:53Z</time>
      </trkpt>
      <trkpt lat="45.94521" lon="4.69015">
        <ele>342</ele>
        <time>2018-09-07T10:17:55Z</time>
      </trkpt>
      <trkpt lat="45.94526" lon="4.69017">
        <ele>342</ele>
        <time>2018-09-07T10:17:56Z</time>
      </trkpt>
      <trkpt lat="45.94533" lon="4.69019">
        <ele>342</ele>
        <time>2018-09-07T10:17:58Z</time>
      </trkpt>
      <trkpt lat="45.94537" lon="4.69021">
        <ele>342</ele>
        <time>2018-09-07T10:17:59Z</time>
      </trkpt>
      <trkpt lat="45.94543" lon="4.69022">
        <ele>342</ele>
        <time>2018-09-07T10:18:00Z</time>
      </trkpt>
      <trkpt lat="45.94548" lon="4.69022">
        <ele>342</ele>
        <time>2018-09-07T10:18:01Z</time>
      </trkpt>
      <trkpt lat="45.94552" lon="4.69023">
        <ele>342</ele>
        <time>2018-09-07T10:18:02Z</time>
      </trkpt>
      <trkpt lat="45.94557" lon="4.69025">
        <ele>342</ele>
        <time>2018-09-07T10:18:03Z</time>
      </trkpt>
      <trkpt lat="45.94564" lon="4.69028">
        <ele>342</ele>
        <time>2018-09-07T10:18:05Z</time>
      </trkpt>
      <trkpt lat="45.94568" lon="4.69029">
        <ele>342</ele>
        <time>2018-09-07T10:18:06Z</time>
      </trkpt>
      <trkpt lat="45.94576" lon="4.69033">
        <ele>342</ele>
        <time>2018-09-07T10:18:08Z</time>
      </trkpt>
      <trkpt lat="45.94579" lon="4.69033">
        <ele>342</ele>
        <time>2018-09-07T10:18:09Z</time>
      </trkpt>
      <trkpt lat="45.94583" lon="4.69036">
        <ele>342</ele>
        <time>2018-09-07T10:18:10Z</time>
      </trkpt>
      <trkpt lat="45.94588" lon="4.69038">
        <ele>342</ele>
        <time>2018-09-07T10:18:11Z</time>
      </trkpt>
      <trkpt lat="45.94593" lon="4.69038">
        <ele>342</ele>
        <time>2018-09-07T10:18:12Z</time>
      </trkpt>
      <trkpt lat="45.94597" lon="4.6904">
        <ele>342</ele>
        <time>2018-09-07T10:18:13Z</time>
      </trkpt>
      <trkpt lat="45.94602" lon="4.69041">
        <ele>342</ele>
        <time>2018-09-07T10:18:14Z</time>
      </trkpt>
      <trkpt lat="45.94607" lon="4.69042">
        <ele>342</ele>
        <time>2018-09-07T10:18:15Z</time>
      </trkpt>
      <trkpt lat="45.94613" lon="4.69044">
        <ele>342</ele>
        <time>2018-09-07T10:18:16Z</time>
      </trkpt>
      <trkpt lat="45.94619" lon="4.69045">
        <ele>342</ele>
        <time>2018-09-07T10:18:17Z</time>
      </trkpt>
      <trkpt lat="45.94625" lon="4.69047">
        <ele>342</ele>
        <time>2018-09-07T10:18:18Z</time>
      </trkpt>
      <trkpt lat="45.94629" lon="4.6905">
        <ele>342</ele>
        <time>2018-09-07T10:18:19Z</time>
      </trkpt>
      <trkpt lat="45.94635" lon="4.69051">
        <ele>342</ele>
        <time>2018-09-07T10:18:20Z</time>
      </trkpt>
      <trkpt lat="45.94639" lon="4.69053">
        <ele>342</ele>
        <time>2018-09-07T10:18:21Z</time>
      </trkpt>
      <trkpt lat="45.94647" lon="4.69056">
        <ele>342</ele>
        <time>2018-09-07T10:18:23Z</time>
      </trkpt>
      <trkpt lat="45.94651" lon="4.69057">
        <ele>342</ele>
        <time>2018-09-07T10:18:24Z</time>
      </trkpt>
      <trkpt lat="45.94655" lon="4.69059">
        <ele>342</ele>
        <time>2018-09-07T10:18:25Z</time>
      </trkpt>
      <trkpt lat="45.9466" lon="4.6906">
        <ele>342</ele>
        <time>2018-09-07T10:18:26Z</time>
      </trkpt>
      <trkpt lat="45.94668" lon="4.69063">
        <ele>342</ele>
        <time>2018-09-07T10:18:28Z</time>
      </trkpt>
      <trkpt lat="45.94672" lon="4.69062">
        <ele>342</ele>
        <time>2018-09-07T10:18:29Z</time>
      </trkpt>
      <trkpt lat="45.9468" lon="4.69064">
        <ele>342</ele>
        <time>2018-09-07T10:18:31Z</time>
      </trkpt>
      <trkpt lat="45.94684" lon="4.69066">
        <ele>342</ele>
        <time>2018-09-07T10:18:32Z</time>
      </trkpt>
      <trkpt lat="45.94691" lon="4.69069">
        <ele>342</ele>
        <time>2018-09-07T10:18:34Z</time>
      </trkpt>
      <trkpt lat="45.94696" lon="4.69071">
        <ele>342</ele>
        <time>2018-09-07T10:18:35Z</time>
      </trkpt>
      <trkpt lat="45.94701" lon="4.69073">
        <ele>342</ele>
        <time>2018-09-07T10:18:36Z</time>
      </trkpt>
      <trkpt lat="45.94705" lon="4.69074">
        <ele>342</ele>
        <time>2018-09-07T10:18:37Z</time>
      </trkpt>
      <trkpt lat="45.9471" lon="4.69075">
        <ele>343</ele>
        <time>2018-09-07T10:18:38Z</time>
      </trkpt>
      <trkpt lat="45.94715" lon="4.69077">
        <ele>343</ele>
        <time>2018-09-07T10:18:39Z</time>
      </trkpt>
      <trkpt lat="45.94723" lon="4.69079">
        <ele>343</ele>
        <time>2018-09-07T10:18:41Z</time>
      </trkpt>
      <trkpt lat="45.94727" lon="4.69081">
        <ele>343</ele>
        <time>2018-09-07T10:18:42Z</time>
      </trkpt>
      <trkpt lat="45.94731" lon="4.69083">
        <ele>343</ele>
        <time>2018-09-07T10:18:43Z</time>
      </trkpt>
      <trkpt lat="45.94736" lon="4.69084">
        <ele>344</ele>
        <time>2018-09-07T10:18:44Z</time>
      </trkpt>
      <trkpt lat="45.94743" lon="4.69085">
        <ele>345</ele>
        <time>2018-09-07T10:18:46Z</time>
      </trkpt>
      <trkpt lat="45.94748" lon="4.69088">
        <ele>345</ele>
        <time>2018-09-07T10:18:47Z</time>
      </trkpt>
      <trkpt lat="45.94756" lon="4.69092">
        <ele>345</ele>
        <time>2018-09-07T10:18:49Z</time>
      </trkpt>
      <trkpt lat="45.94761" lon="4.69093">
        <ele>345</ele>
        <time>2018-09-07T10:18:50Z</time>
      </trkpt>
      <trkpt lat="45.94765" lon="4.69095">
        <ele>344</ele>
        <time>2018-09-07T10:18:51Z</time>
      </trkpt>
      <trkpt lat="45.9477" lon="4.69097">
        <ele>344</ele>
        <time>2018-09-07T10:18:52Z</time>
      </trkpt>
      <trkpt lat="45.94774" lon="4.69099">
        <ele>344</ele>
        <time>2018-09-07T10:18:53Z</time>
      </trkpt>
      <trkpt lat="45.9478" lon="4.691">
        <ele>344</ele>
        <time>2018-09-07T10:18:54Z</time>
      </trkpt>
      <trkpt lat="45.94784" lon="4.69102">
        <ele>344</ele>
        <time>2018-09-07T10:18:55Z</time>
      </trkpt>
      <trkpt lat="45.94789" lon="4.69103">
        <ele>344</ele>
        <time>2018-09-07T10:18:56Z</time>
      </trkpt>
      <trkpt lat="45.94794" lon="4.69104">
        <ele>344</ele>
        <time>2018-09-07T10:18:57Z</time>
      </trkpt>
      <trkpt lat="45.94799" lon="4.69105">
        <ele>344</ele>
        <time>2018-09-07T10:18:58Z</time>
      </trkpt>
      <trkpt lat="45.94803" lon="4.69107">
        <ele>344</ele>
        <time>2018-09-07T10:18:59Z</time>
      </trkpt>
      <trkpt lat="45.94807" lon="4.69108">
        <ele>344</ele>
        <time>2018-09-07T10:19:00Z</time>
      </trkpt>
      <trkpt lat="45.94816" lon="4.69112">
        <ele>344</ele>
        <time>2018-09-07T10:19:02Z</time>
      </trkpt>
      <trkpt lat="45.9482" lon="4.69113">
        <ele>344</ele>
        <time>2018-09-07T10:19:03Z</time>
      </trkpt>
      <trkpt lat="45.94824" lon="4.69116">
        <ele>344</ele>
        <time>2018-09-07T10:19:04Z</time>
      </trkpt>
      <trkpt lat="45.94829" lon="4.69116">
        <ele>344</ele>
        <time>2018-09-07T10:19:05Z</time>
      </trkpt>
      <trkpt lat="45.94835" lon="4.69118">
        <ele>342</ele>
        <time>2018-09-07T10:19:06Z</time>
      </trkpt>
      <trkpt lat="45.9484" lon="4.6912">
        <ele>342</ele>
        <time>2018-09-07T10:19:07Z</time>
      </trkpt>
      <trkpt lat="45.94846" lon="4.69122">
        <ele>342</ele>
        <time>2018-09-07T10:19:08Z</time>
      </trkpt>
      <trkpt lat="45.94852" lon="4.69124">
        <ele>342</ele>
        <time>2018-09-07T10:19:09Z</time>
      </trkpt>
      <trkpt lat="45.94857" lon="4.69127">
        <ele>342</ele>
        <time>2018-09-07T10:19:10Z</time>
      </trkpt>
      <trkpt lat="45.94862" lon="4.69129">
        <ele>342</ele>
        <time>2018-09-07T10:19:11Z</time>
      </trkpt>
      <trkpt lat="45.94868" lon="4.69131">
        <ele>342</ele>
        <time>2018-09-07T10:19:12Z</time>
      </trkpt>
      <trkpt lat="45.94874" lon="4.69133">
        <ele>342</ele>
        <time>2018-09-07T10:19:13Z</time>
      </trkpt>
      <trkpt lat="45.94879" lon="4.69135">
        <ele>342</ele>
        <time>2018-09-07T10:19:14Z</time>
      </trkpt>
      <trkpt lat="45.94885" lon="4.69136">
        <ele>342</ele>
        <time>2018-09-07T10:19:15Z</time>
      </trkpt>
      <trkpt lat="45.9489" lon="4.69137">
        <ele>342</ele>
        <time>2018-09-07T10:19:16Z</time>
      </trkpt>
      <trkpt lat="45.94895" lon="4.6914">
        <ele>342</ele>
        <time>2018-09-07T10:19:17Z</time>
      </trkpt>
      <trkpt lat="45.949" lon="4.69142">
        <ele>342</ele>
        <time>2018-09-07T10:19:18Z</time>
      </trkpt>
      <trkpt lat="45.94906" lon="4.69146">
        <ele>342</ele>
        <time>2018-09-07T10:19:19Z</time>
      </trkpt>
      <trkpt lat="45.94911" lon="4.6915">
        <ele>342</ele>
        <time>2018-09-07T10:19:20Z</time>
      </trkpt>
      <trkpt lat="45.94916" lon="4.69153">
        <ele>342</ele>
        <time>2018-09-07T10:19:21Z</time>
      </trkpt>
      <trkpt lat="45.94922" lon="4.69157">
        <ele>340</ele>
        <time>2018-09-07T10:19:22Z</time>
      </trkpt>
      <trkpt lat="45.94928" lon="4.69161">
        <ele>340</ele>
        <time>2018-09-07T10:19:23Z</time>
      </trkpt>
      <trkpt lat="45.94933" lon="4.69166">
        <ele>340</ele>
        <time>2018-09-07T10:19:24Z</time>
      </trkpt>
      <trkpt lat="45.94939" lon="4.6917">
        <ele>341</ele>
        <time>2018-09-07T10:19:25Z</time>
      </trkpt>
      <trkpt lat="45.94945" lon="4.69174">
        <ele>341</ele>
        <time>2018-09-07T10:19:26Z</time>
      </trkpt>
      <trkpt lat="45.9495" lon="4.6918">
        <ele>340</ele>
        <time>2018-09-07T10:19:27Z</time>
      </trkpt>
      <trkpt lat="45.94956" lon="4.69184">
        <ele>340</ele>
        <time>2018-09-07T10:19:28Z</time>
      </trkpt>
      <trkpt lat="45.94962" lon="4.69189">
        <ele>340</ele>
        <time>2018-09-07T10:19:29Z</time>
      </trkpt>
      <trkpt lat="45.94967" lon="4.69195">
        <ele>340</ele>
        <time>2018-09-07T10:19:30Z</time>
      </trkpt>
      <trkpt lat="45.94972" lon="4.69199">
        <ele>340</ele>
        <time>2018-09-07T10:19:31Z</time>
      </trkpt>
      <trkpt lat="45.94979" lon="4.69204">
        <ele>340</ele>
        <time>2018-09-07T10:19:32Z</time>
      </trkpt>
      <trkpt lat="45.94985" lon="4.69209">
        <ele>340</ele>
        <time>2018-09-07T10:19:33Z</time>
      </trkpt>
      <trkpt lat="45.94991" lon="4.69211">
        <ele>340</ele>
        <time>2018-09-07T10:19:34Z</time>
      </trkpt>
      <trkpt lat="45.94997" lon="4.69215">
        <ele>340</ele>
        <time>2018-09-07T10:19:35Z</time>
      </trkpt>
      <trkpt lat="45.95005" lon="4.69218">
        <ele>337</ele>
        <time>2018-09-07T10:19:36Z</time>
      </trkpt>
      <trkpt lat="45.95011" lon="4.69222">
        <ele>337</ele>
        <time>2018-09-07T10:19:37Z</time>
      </trkpt>
      <trkpt lat="45.95018" lon="4.69227">
        <ele>337</ele>
        <time>2018-09-07T10:19:38Z</time>
      </trkpt>
      <trkpt lat="45.95024" lon="4.69232">
        <ele>337</ele>
        <time>2018-09-07T10:19:39Z</time>
      </trkpt>
      <trkpt lat="45.9503" lon="4.69239">
        <ele>337</ele>
        <time>2018-09-07T10:19:40Z</time>
      </trkpt>
      <trkpt lat="45.95038" lon="4.69246">
        <ele>336</ele>
        <time>2018-09-07T10:19:41Z</time>
      </trkpt>
      <trkpt lat="45.95045" lon="4.69254">
        <ele>337</ele>
        <time>2018-09-07T10:19:42Z</time>
      </trkpt>
      <trkpt lat="45.95052" lon="4.69261">
        <ele>337</ele>
        <time>2018-09-07T10:19:43Z</time>
      </trkpt>
      <trkpt lat="45.95058" lon="4.69268">
        <ele>336</ele>
        <time>2018-09-07T10:19:44Z</time>
      </trkpt>
      <trkpt lat="45.95065" lon="4.69274">
        <ele>336</ele>
        <time>2018-09-07T10:19:45Z</time>
      </trkpt>
      <trkpt lat="45.95072" lon="4.6928">
        <ele>336</ele>
        <time>2018-09-07T10:19:46Z</time>
      </trkpt>
      <trkpt lat="45.95079" lon="4.69286">
        <ele>336</ele>
        <time>2018-09-07T10:19:47Z</time>
      </trkpt>
      <trkpt lat="45.95085" lon="4.69292">
        <ele>334</ele>
        <time>2018-09-07T10:19:48Z</time>
      </trkpt>
      <trkpt lat="45.95092" lon="4.69299">
        <ele>334</ele>
        <time>2018-09-07T10:19:49Z</time>
      </trkpt>
      <trkpt lat="45.95098" lon="4.69304">
        <ele>334</ele>
        <time>2018-09-07T10:19:50Z</time>
      </trkpt>
      <trkpt lat="45.95103" lon="4.69311">
        <ele>334</ele>
        <time>2018-09-07T10:19:51Z</time>
      </trkpt>
      <trkpt lat="45.95109" lon="4.69317">
        <ele>334</ele>
        <time>2018-09-07T10:19:52Z</time>
      </trkpt>
      <trkpt lat="45.95114" lon="4.69323">
        <ele>334</ele>
        <time>2018-09-07T10:19:53Z</time>
      </trkpt>
      <trkpt lat="45.95119" lon="4.6933">
        <ele>334</ele>
        <time>2018-09-07T10:19:54Z</time>
      </trkpt>
      <trkpt lat="45.95125" lon="4.69336">
        <ele>336</ele>
        <time>2018-09-07T10:19:55Z</time>
      </trkpt>
      <trkpt lat="45.9513" lon="4.69342">
        <ele>337</ele>
        <time>2018-09-07T10:19:56Z</time>
      </trkpt>
      <trkpt lat="45.95135" lon="4.69349">
        <ele>337</ele>
        <time>2018-09-07T10:19:57Z</time>
      </trkpt>
      <trkpt lat="45.95139" lon="4.69356">
        <ele>337</ele>
        <time>2018-09-07T10:19:58Z</time>
      </trkpt>
      <trkpt lat="45.95145" lon="4.69358">
        <ele>337</ele>
        <time>2018-09-07T10:19:59Z</time>
      </trkpt>
      <trkpt lat="45.9515" lon="4.69362">
        <ele>337</ele>
        <time>2018-09-07T10:20:00Z</time>
      </trkpt>
      <trkpt lat="45.95155" lon="4.69366">
        <ele>337</ele>
        <time>2018-09-07T10:20:01Z</time>
      </trkpt>
      <trkpt lat="45.95159" lon="4.69371">
        <ele>337</ele>
        <time>2018-09-07T10:20:02Z</time>
      </trkpt>
      <trkpt lat="45.95164" lon="4.69374">
        <ele>337</ele>
        <time>2018-09-07T10:20:03Z</time>
      </trkpt>
      <trkpt lat="45.95168" lon="4.69378">
        <ele>337</ele>
        <time>2018-09-07T10:20:04Z</time>
      </trkpt>
      <trkpt lat="45.95174" lon="4.69387">
        <ele>337</ele>
        <time>2018-09-07T10:20:06Z</time>
      </trkpt>
      <trkpt lat="45.95179" lon="4.6939">
        <ele>337</ele>
        <time>2018-09-07T10:20:07Z</time>
      </trkpt>
      <trkpt lat="45.95183" lon="4.69393">
        <ele>337</ele>
        <time>2018-09-07T10:20:08Z</time>
      </trkpt>
      <trkpt lat="45.95188" lon="4.69395">
        <ele>337</ele>
        <time>2018-09-07T10:20:09Z</time>
      </trkpt>
      <trkpt lat="45.95193" lon="4.69398">
        <ele>337</ele>
        <time>2018-09-07T10:20:10Z</time>
      </trkpt>
      <trkpt lat="45.95197" lon="4.69401">
        <ele>337</ele>
        <time>2018-09-07T10:20:11Z</time>
      </trkpt>
      <trkpt lat="45.95203" lon="4.69405">
        <ele>337</ele>
        <time>2018-09-07T10:20:12Z</time>
      </trkpt>
      <trkpt lat="45.95209" lon="4.69406">
        <ele>337</ele>
        <time>2018-09-07T10:20:13Z</time>
      </trkpt>
      <trkpt lat="45.95213" lon="4.69408">
        <ele>337</ele>
        <time>2018-09-07T10:20:14Z</time>
      </trkpt>
      <trkpt lat="45.95217" lon="4.69411">
        <ele>337</ele>
        <time>2018-09-07T10:20:15Z</time>
      </trkpt>
      <trkpt lat="45.95222" lon="4.69413">
        <ele>337</ele>
        <time>2018-09-07T10:20:16Z</time>
      </trkpt>
      <trkpt lat="45.95226" lon="4.69417">
        <ele>337</ele>
        <time>2018-09-07T10:20:17Z</time>
      </trkpt>
      <trkpt lat="45.95231" lon="4.69418">
        <ele>339</ele>
        <time>2018-09-07T10:20:18Z</time>
      </trkpt>
      <trkpt lat="45.95235" lon="4.6942">
        <ele>339</ele>
        <time>2018-09-07T10:20:19Z</time>
      </trkpt>
      <trkpt lat="45.95241" lon="4.69423">
        <ele>339</ele>
        <time>2018-09-07T10:20:20Z</time>
      </trkpt>
      <trkpt lat="45.95246" lon="4.69423">
        <ele>339</ele>
        <time>2018-09-07T10:20:21Z</time>
      </trkpt>
      <trkpt lat="45.95251" lon="4.69425">
        <ele>338</ele>
        <time>2018-09-07T10:20:22Z</time>
      </trkpt>
      <trkpt lat="45.95255" lon="4.69428">
        <ele>338</ele>
        <time>2018-09-07T10:20:23Z</time>
      </trkpt>
      <trkpt lat="45.9526" lon="4.69431">
        <ele>338</ele>
        <time>2018-09-07T10:20:24Z</time>
      </trkpt>
      <trkpt lat="45.95266" lon="4.69434">
        <ele>338</ele>
        <time>2018-09-07T10:20:25Z</time>
      </trkpt>
      <trkpt lat="45.95271" lon="4.69436">
        <ele>338</ele>
        <time>2018-09-07T10:20:26Z</time>
      </trkpt>
      <trkpt lat="45.95276" lon="4.69438">
        <ele>338</ele>
        <time>2018-09-07T10:20:27Z</time>
      </trkpt>
      <trkpt lat="45.9528" lon="4.69441">
        <ele>338</ele>
        <time>2018-09-07T10:20:28Z</time>
      </trkpt>
      <trkpt lat="45.95285" lon="4.69443">
        <ele>338</ele>
        <time>2018-09-07T10:20:29Z</time>
      </trkpt>
      <trkpt lat="45.95291" lon="4.69445">
        <ele>338</ele>
        <time>2018-09-07T10:20:30Z</time>
      </trkpt>
      <trkpt lat="45.95295" lon="4.69448">
        <ele>338</ele>
        <time>2018-09-07T10:20:31Z</time>
      </trkpt>
      <trkpt lat="45.953" lon="4.69451">
        <ele>338</ele>
        <time>2018-09-07T10:20:32Z</time>
      </trkpt>
      <trkpt lat="45.95305" lon="4.69453">
        <ele>338</ele>
        <time>2018-09-07T10:20:33Z</time>
      </trkpt>
      <trkpt lat="45.9531" lon="4.69456">
        <ele>338</ele>
        <time>2018-09-07T10:20:34Z</time>
      </trkpt>
      <trkpt lat="45.95315" lon="4.69458">
        <ele>338</ele>
        <time>2018-09-07T10:20:35Z</time>
      </trkpt>
      <trkpt lat="45.95321" lon="4.69461">
        <ele>338</ele>
        <time>2018-09-07T10:20:36Z</time>
      </trkpt>
      <trkpt lat="45.95326" lon="4.69464">
        <ele>339</ele>
        <time>2018-09-07T10:20:37Z</time>
      </trkpt>
      <trkpt lat="45.95331" lon="4.69466">
        <ele>339</ele>
        <time>2018-09-07T10:20:38Z</time>
      </trkpt>
      <trkpt lat="45.95337" lon="4.69469">
        <ele>337</ele>
        <time>2018-09-07T10:20:39Z</time>
      </trkpt>
      <trkpt lat="45.95343" lon="4.69472">
        <ele>337</ele>
        <time>2018-09-07T10:20:40Z</time>
      </trkpt>
      <trkpt lat="45.95349" lon="4.69475">
        <ele>337</ele>
        <time>2018-09-07T10:20:41Z</time>
      </trkpt>
      <trkpt lat="45.95354" lon="4.69479">
        <ele>337</ele>
        <time>2018-09-07T10:20:42Z</time>
      </trkpt>
      <trkpt lat="45.95357" lon="4.69483">
        <ele>337</ele>
        <time>2018-09-07T10:20:43Z</time>
      </trkpt>
      <trkpt lat="45.95362" lon="4.69488">
        <ele>337</ele>
        <time>2018-09-07T10:20:44Z</time>
      </trkpt>
      <trkpt lat="45.95366" lon="4.69493">
        <ele>337</ele>
        <time>2018-09-07T10:20:45Z</time>
      </trkpt>
      <trkpt lat="45.95372" lon="4.69495">
        <ele>337</ele>
        <time>2018-09-07T10:20:46Z</time>
      </trkpt>
      <trkpt lat="45.95378" lon="4.69501">
        <ele>340</ele>
        <time>2018-09-07T10:20:47Z</time>
      </trkpt>
      <trkpt lat="45.95383" lon="4.69505">
        <ele>340</ele>
        <time>2018-09-07T10:20:48Z</time>
      </trkpt>
      <trkpt lat="45.95389" lon="4.69508">
        <ele>340</ele>
        <time>2018-09-07T10:20:49Z</time>
      </trkpt>
      <trkpt lat="45.95394" lon="4.69512">
        <ele>339</ele>
        <time>2018-09-07T10:20:50Z</time>
      </trkpt>
      <trkpt lat="45.95399" lon="4.69516">
        <ele>339</ele>
        <time>2018-09-07T10:20:51Z</time>
      </trkpt>
      <trkpt lat="45.95403" lon="4.6952">
        <ele>339</ele>
        <time>2018-09-07T10:20:52Z</time>
      </trkpt>
      <trkpt lat="45.95409" lon="4.69525">
        <ele>339</ele>
        <time>2018-09-07T10:20:53Z</time>
      </trkpt>
      <trkpt lat="45.95415" lon="4.69528">
        <ele>339</ele>
        <time>2018-09-07T10:20:54Z</time>
      </trkpt>
      <trkpt lat="45.9542" lon="4.69531">
        <ele>337</ele>
        <time>2018-09-07T10:20:55Z</time>
      </trkpt>
      <trkpt lat="45.95425" lon="4.69534">
        <ele>337</ele>
        <time>2018-09-07T10:20:56Z</time>
      </trkpt>
      <trkpt lat="45.95431" lon="4.69534">
        <ele>337</ele>
        <time>2018-09-07T10:20:57Z</time>
      </trkpt>
      <trkpt lat="45.95438" lon="4.69539">
        <ele>337</ele>
        <time>2018-09-07T10:20:59Z</time>
      </trkpt>
      <trkpt lat="45.95446" lon="4.69543">
        <ele>337</ele>
        <time>2018-09-07T10:21:00Z</time>
      </trkpt>
      <trkpt lat="45.9545" lon="4.69545">
        <ele>337</ele>
        <time>2018-09-07T10:21:01Z</time>
      </trkpt>
      <trkpt lat="45.95455" lon="4.69547">
        <ele>337</ele>
        <time>2018-09-07T10:21:02Z</time>
      </trkpt>
      <trkpt lat="45.9546" lon="4.6955">
        <ele>337</ele>
        <time>2018-09-07T10:21:03Z</time>
      </trkpt>
      <trkpt lat="45.95466" lon="4.69552">
        <ele>337</ele>
        <time>2018-09-07T10:21:04Z</time>
      </trkpt>
      <trkpt lat="45.95471" lon="4.69554">
        <ele>336</ele>
        <time>2018-09-07T10:21:05Z</time>
      </trkpt>
      <trkpt lat="45.95477" lon="4.69555">
        <ele>336</ele>
        <time>2018-09-07T10:21:06Z</time>
      </trkpt>
      <trkpt lat="45.95483" lon="4.69558">
        <ele>336</ele>
        <time>2018-09-07T10:21:07Z</time>
      </trkpt>
      <trkpt lat="45.95488" lon="4.69561">
        <ele>336</ele>
        <time>2018-09-07T10:21:08Z</time>
      </trkpt>
      <trkpt lat="45.95494" lon="4.69563">
        <ele>336</ele>
        <time>2018-09-07T10:21:09Z</time>
      </trkpt>
      <trkpt lat="45.95501" lon="4.69567">
        <ele>334</ele>
        <time>2018-09-07T10:21:10Z</time>
      </trkpt>
      <trkpt lat="45.95506" lon="4.69572">
        <ele>334</ele>
        <time>2018-09-07T10:21:11Z</time>
      </trkpt>
      <trkpt lat="45.95513" lon="4.69574">
        <ele>334</ele>
        <time>2018-09-07T10:21:12Z</time>
      </trkpt>
      <trkpt lat="45.95519" lon="4.69576">
        <ele>333</ele>
        <time>2018-09-07T10:21:13Z</time>
      </trkpt>
      <trkpt lat="45.95525" lon="4.69577">
        <ele>333</ele>
        <time>2018-09-07T10:21:14Z</time>
      </trkpt>
      <trkpt lat="45.95532" lon="4.69579">
        <ele>332</ele>
        <time>2018-09-07T10:21:15Z</time>
      </trkpt>
      <trkpt lat="45.9554" lon="4.69584">
        <ele>332</ele>
        <time>2018-09-07T10:21:16Z</time>
      </trkpt>
      <trkpt lat="45.95547" lon="4.69587">
        <ele>331</ele>
        <time>2018-09-07T10:21:17Z</time>
      </trkpt>
      <trkpt lat="45.95554" lon="4.6959">
        <ele>331</ele>
        <time>2018-09-07T10:21:18Z</time>
      </trkpt>
      <trkpt lat="45.95561" lon="4.69591">
        <ele>330</ele>
        <time>2018-09-07T10:21:19Z</time>
      </trkpt>
      <trkpt lat="45.95568" lon="4.69595">
        <ele>330</ele>
        <time>2018-09-07T10:21:20Z</time>
      </trkpt>
      <trkpt lat="45.95575" lon="4.696">
        <ele>330</ele>
        <time>2018-09-07T10:21:21Z</time>
      </trkpt>
      <trkpt lat="45.95582" lon="4.69603">
        <ele>330</ele>
        <time>2018-09-07T10:21:22Z</time>
      </trkpt>
      <trkpt lat="45.95589" lon="4.69606">
        <ele>328</ele>
        <time>2018-09-07T10:21:23Z</time>
      </trkpt>
      <trkpt lat="45.95596" lon="4.69608">
        <ele>328</ele>
        <time>2018-09-07T10:21:24Z</time>
      </trkpt>
      <trkpt lat="45.95603" lon="4.69611">
        <ele>328</ele>
        <time>2018-09-07T10:21:25Z</time>
      </trkpt>
      <trkpt lat="45.9561" lon="4.69612">
        <ele>328</ele>
        <time>2018-09-07T10:21:26Z</time>
      </trkpt>
      <trkpt lat="45.95616" lon="4.69616">
        <ele>328</ele>
        <time>2018-09-07T10:21:27Z</time>
      </trkpt>
      <trkpt lat="45.95624" lon="4.6962">
        <ele>328</ele>
        <time>2018-09-07T10:21:28Z</time>
      </trkpt>
      <trkpt lat="45.9563" lon="4.69623">
        <ele>328</ele>
        <time>2018-09-07T10:21:29Z</time>
      </trkpt>
      <trkpt lat="45.95637" lon="4.69625">
        <ele>328</ele>
        <time>2018-09-07T10:21:30Z</time>
      </trkpt>
      <trkpt lat="45.95643" lon="4.69628">
        <ele>328</ele>
        <time>2018-09-07T10:21:31Z</time>
      </trkpt>
      <trkpt lat="45.95649" lon="4.69631">
        <ele>328</ele>
        <time>2018-09-07T10:21:32Z</time>
      </trkpt>
      <trkpt lat="45.95655" lon="4.69633">
        <ele>328</ele>
        <time>2018-09-07T10:21:33Z</time>
      </trkpt>
      <trkpt lat="45.95661" lon="4.69637">
        <ele>327</ele>
        <time>2018-09-07T10:21:34Z</time>
      </trkpt>
      <trkpt lat="45.95669" lon="4.69636">
        <ele>326</ele>
        <time>2018-09-07T10:21:35Z</time>
      </trkpt>
      <trkpt lat="45.95675" lon="4.69639">
        <ele>326</ele>
        <time>2018-09-07T10:21:36Z</time>
      </trkpt>
      <trkpt lat="45.95683" lon="4.69642">
        <ele>326</ele>
        <time>2018-09-07T10:21:37Z</time>
      </trkpt>
      <trkpt lat="45.95688" lon="4.69645">
        <ele>326</ele>
        <time>2018-09-07T10:21:38Z</time>
      </trkpt>
      <trkpt lat="45.95695" lon="4.69647">
        <ele>326</ele>
        <time>2018-09-07T10:21:39Z</time>
      </trkpt>
      <trkpt lat="45.95702" lon="4.69649">
        <ele>326</ele>
        <time>2018-09-07T10:21:40Z</time>
      </trkpt>
      <trkpt lat="45.95708" lon="4.69651">
        <ele>326</ele>
        <time>2018-09-07T10:21:41Z</time>
      </trkpt>
      <trkpt lat="45.95714" lon="4.69654">
        <ele>326</ele>
        <time>2018-09-07T10:21:42Z</time>
      </trkpt>
      <trkpt lat="45.9572" lon="4.69654">
        <ele>326</ele>
        <time>2018-09-07T10:21:43Z</time>
      </trkpt>
      <trkpt lat="45.95726" lon="4.69656">
        <ele>326</ele>
        <time>2018-09-07T10:21:44Z</time>
      </trkpt>
      <trkpt lat="45.95732" lon="4.69659">
        <ele>326</ele>
        <time>2018-09-07T10:21:45Z</time>
      </trkpt>
      <trkpt lat="45.95738" lon="4.69661">
        <ele>326</ele>
        <time>2018-09-07T10:21:46Z</time>
      </trkpt>
      <trkpt lat="45.95743" lon="4.69667">
        <ele>326</ele>
        <time>2018-09-07T10:21:47Z</time>
      </trkpt>
      <trkpt lat="45.95748" lon="4.6967">
        <ele>326</ele>
        <time>2018-09-07T10:21:48Z</time>
      </trkpt>
      <trkpt lat="45.95753" lon="4.69673">
        <ele>326</ele>
        <time>2018-09-07T10:21:49Z</time>
      </trkpt>
      <trkpt lat="45.95758" lon="4.69677">
        <ele>326</ele>
        <time>2018-09-07T10:21:50Z</time>
      </trkpt>
      <trkpt lat="45.95765" lon="4.69682">
        <ele>326</ele>
        <time>2018-09-07T10:21:52Z</time>
      </trkpt>
      <trkpt lat="45.95769" lon="4.69681">
        <ele>326</ele>
        <time>2018-09-07T10:21:53Z</time>
      </trkpt>
      <trkpt lat="45.95775" lon="4.69688">
        <ele>326</ele>
        <time>2018-09-07T10:21:55Z</time>
      </trkpt>
      <trkpt lat="45.9578" lon="4.69692">
        <ele>326</ele>
        <time>2018-09-07T10:21:56Z</time>
      </trkpt>
      <trkpt lat="45.95784" lon="4.69697">
        <ele>326</ele>
        <time>2018-09-07T10:21:57Z</time>
      </trkpt>
      <trkpt lat="45.95788" lon="4.69704">
        <ele>326</ele>
        <time>2018-09-07T10:21:58Z</time>
      </trkpt>
      <trkpt lat="45.95792" lon="4.69708">
        <ele>326</ele>
        <time>2018-09-07T10:21:59Z</time>
      </trkpt>
      <trkpt lat="45.95795" lon="4.69713">
        <ele>326</ele>
        <time>2018-09-07T10:22:00Z</time>
      </trkpt>
      <trkpt lat="45.95798" lon="4.69719">
        <ele>326</ele>
        <time>2018-09-07T10:22:01Z</time>
      </trkpt>
      <trkpt lat="45.95801" lon="4.69725">
        <ele>326</ele>
        <time>2018-09-07T10:22:02Z</time>
      </trkpt>
      <trkpt lat="45.95806" lon="4.69731">
        <ele>326</ele>
        <time>2018-09-07T10:22:03Z</time>
      </trkpt>
      <trkpt lat="45.95811" lon="4.69736">
        <ele>327</ele>
        <time>2018-09-07T10:22:04Z</time>
      </trkpt>
      <trkpt lat="45.95815" lon="4.69742">
        <ele>327</ele>
        <time>2018-09-07T10:22:05Z</time>
      </trkpt>
      <trkpt lat="45.9582" lon="4.69747">
        <ele>327</ele>
        <time>2018-09-07T10:22:06Z</time>
      </trkpt>
      <trkpt lat="45.95824" lon="4.69753">
        <ele>327</ele>
        <time>2018-09-07T10:22:07Z</time>
      </trkpt>
      <trkpt lat="45.95828" lon="4.69759">
        <ele>328</ele>
        <time>2018-09-07T10:22:08Z</time>
      </trkpt>
      <trkpt lat="45.95833" lon="4.69765">
        <ele>328</ele>
        <time>2018-09-07T10:22:09Z</time>
      </trkpt>
      <trkpt lat="45.95836" lon="4.6977">
        <ele>327</ele>
        <time>2018-09-07T10:22:10Z</time>
      </trkpt>
      <trkpt lat="45.95839" lon="4.69777">
        <ele>327</ele>
        <time>2018-09-07T10:22:11Z</time>
      </trkpt>
      <trkpt lat="45.95842" lon="4.69782">
        <ele>327</ele>
        <time>2018-09-07T10:22:12Z</time>
      </trkpt>
      <trkpt lat="45.95844" lon="4.69787">
        <ele>327</ele>
        <time>2018-09-07T10:22:13Z</time>
      </trkpt>
      <trkpt lat="45.95848" lon="4.69792">
        <ele>327</ele>
        <time>2018-09-07T10:22:14Z</time>
      </trkpt>
      <trkpt lat="45.9585" lon="4.69799">
        <ele>327</ele>
        <time>2018-09-07T10:22:15Z</time>
      </trkpt>
      <trkpt lat="45.95853" lon="4.69805">
        <ele>327</ele>
        <time>2018-09-07T10:22:16Z</time>
      </trkpt>
      <trkpt lat="45.95856" lon="4.6981">
        <ele>327</ele>
        <time>2018-09-07T10:22:17Z</time>
      </trkpt>
      <trkpt lat="45.95859" lon="4.69817">
        <ele>328</ele>
        <time>2018-09-07T10:22:18Z</time>
      </trkpt>
      <trkpt lat="45.95864" lon="4.69827">
        <ele>328</ele>
        <time>2018-09-07T10:22:20Z</time>
      </trkpt>
      <trkpt lat="45.95866" lon="4.69833">
        <ele>328</ele>
        <time>2018-09-07T10:22:21Z</time>
      </trkpt>
      <trkpt lat="45.9587" lon="4.69844">
        <ele>329</ele>
        <time>2018-09-07T10:22:23Z</time>
      </trkpt>
      <trkpt lat="45.95872" lon="4.69849">
        <ele>329</ele>
        <time>2018-09-07T10:22:24Z</time>
      </trkpt>
      <trkpt lat="45.95875" lon="4.69856">
        <ele>329</ele>
        <time>2018-09-07T10:22:25Z</time>
      </trkpt>
      <trkpt lat="45.95877" lon="4.69863">
        <ele>329</ele>
        <time>2018-09-07T10:22:26Z</time>
      </trkpt>
      <trkpt lat="45.95878" lon="4.6987">
        <ele>329</ele>
        <time>2018-09-07T10:22:27Z</time>
      </trkpt>
      <trkpt lat="45.9588" lon="4.69877">
        <ele>329</ele>
        <time>2018-09-07T10:22:28Z</time>
      </trkpt>
      <trkpt lat="45.95882" lon="4.69884">
        <ele>329</ele>
        <time>2018-09-07T10:22:29Z</time>
      </trkpt>
      <trkpt lat="45.95884" lon="4.69891">
        <ele>329</ele>
        <time>2018-09-07T10:22:30Z</time>
      </trkpt>
      <trkpt lat="45.95886" lon="4.69903">
        <ele>329</ele>
        <time>2018-09-07T10:22:32Z</time>
      </trkpt>
      <trkpt lat="45.95886" lon="4.69909">
        <ele>329</ele>
        <time>2018-09-07T10:22:33Z</time>
      </trkpt>
      <trkpt lat="45.95889" lon="4.69921">
        <ele>328</ele>
        <time>2018-09-07T10:22:35Z</time>
      </trkpt>
      <trkpt lat="45.9589" lon="4.69926">
        <ele>328</ele>
        <time>2018-09-07T10:22:36Z</time>
      </trkpt>
      <trkpt lat="45.95892" lon="4.69939">
        <ele>328</ele>
        <time>2018-09-07T10:22:38Z</time>
      </trkpt>
      <trkpt lat="45.95894" lon="4.69945">
        <ele>328</ele>
        <time>2018-09-07T10:22:39Z</time>
      </trkpt>
      <trkpt lat="45.95895" lon="4.69952">
        <ele>328</ele>
        <time>2018-09-07T10:22:40Z</time>
      </trkpt>
      <trkpt lat="45.95896" lon="4.69958">
        <ele>328</ele>
        <time>2018-09-07T10:22:41Z</time>
      </trkpt>
      <trkpt lat="45.95899" lon="4.69964">
        <ele>328</ele>
        <time>2018-09-07T10:22:42Z</time>
      </trkpt>
      <trkpt lat="45.959" lon="4.69971">
        <ele>328</ele>
        <time>2018-09-07T10:22:43Z</time>
      </trkpt>
      <trkpt lat="45.95901" lon="4.69977">
        <ele>328</ele>
        <time>2018-09-07T10:22:44Z</time>
      </trkpt>
      <trkpt lat="45.95903" lon="4.69983">
        <ele>328</ele>
        <time>2018-09-07T10:22:45Z</time>
      </trkpt>
      <trkpt lat="45.95905" lon="4.69989">
        <ele>328</ele>
        <time>2018-09-07T10:22:46Z</time>
      </trkpt>
      <trkpt lat="45.95907" lon="4.69995">
        <ele>328</ele>
        <time>2018-09-07T10:22:47Z</time>
      </trkpt>
      <trkpt lat="45.9591" lon="4.70003">
        <ele>328</ele>
        <time>2018-09-07T10:22:48Z</time>
      </trkpt>
      <trkpt lat="45.95913" lon="4.70009">
        <ele>328</ele>
        <time>2018-09-07T10:22:49Z</time>
      </trkpt>
      <trkpt lat="45.95916" lon="4.70015">
        <ele>328</ele>
        <time>2018-09-07T10:22:50Z</time>
      </trkpt>
      <trkpt lat="45.95919" lon="4.70022">
        <ele>328</ele>
        <time>2018-09-07T10:22:51Z</time>
      </trkpt>
      <trkpt lat="45.95923" lon="4.70029">
        <ele>328</ele>
        <time>2018-09-07T10:22:52Z</time>
      </trkpt>
      <trkpt lat="45.95926" lon="4.70036">
        <ele>328</ele>
        <time>2018-09-07T10:22:53Z</time>
      </trkpt>
      <trkpt lat="45.9593" lon="4.70042">
        <ele>328</ele>
        <time>2018-09-07T10:22:54Z</time>
      </trkpt>
      <trkpt lat="45.95934" lon="4.70048">
        <ele>328</ele>
        <time>2018-09-07T10:22:55Z</time>
      </trkpt>
      <trkpt lat="45.95938" lon="4.70054">
        <ele>328</ele>
        <time>2018-09-07T10:22:56Z</time>
      </trkpt>
      <trkpt lat="45.95941" lon="4.70059">
        <ele>328</ele>
        <time>2018-09-07T10:22:57Z</time>
      </trkpt>
      <trkpt lat="45.95948" lon="4.70067">
        <ele>328</ele>
        <time>2018-09-07T10:22:59Z</time>
      </trkpt>
      <trkpt lat="45.95951" lon="4.70072">
        <ele>328</ele>
        <time>2018-09-07T10:23:00Z</time>
      </trkpt>
      <trkpt lat="45.95956" lon="4.70081">
        <ele>328</ele>
        <time>2018-09-07T10:23:02Z</time>
      </trkpt>
      <trkpt lat="45.9596" lon="4.70086">
        <ele>328</ele>
        <time>2018-09-07T10:23:03Z</time>
      </trkpt>
      <trkpt lat="45.95967" lon="4.70092">
        <ele>328</ele>
        <time>2018-09-07T10:23:05Z</time>
      </trkpt>
      <trkpt lat="45.9597" lon="4.70096">
        <ele>328</ele>
        <time>2018-09-07T10:23:06Z</time>
      </trkpt>
      <trkpt lat="45.95974" lon="4.701">
        <ele>328</ele>
        <time>2018-09-07T10:23:07Z</time>
      </trkpt>
      <trkpt lat="45.95978" lon="4.70104">
        <ele>328</ele>
        <time>2018-09-07T10:23:08Z</time>
      </trkpt>
      <trkpt lat="45.95984" lon="4.70113">
        <ele>328</ele>
        <time>2018-09-07T10:23:10Z</time>
      </trkpt>
      <trkpt lat="45.95988" lon="4.70116">
        <ele>328</ele>
        <time>2018-09-07T10:23:11Z</time>
      </trkpt>
      <trkpt lat="45.95991" lon="4.7012">
        <ele>328</ele>
        <time>2018-09-07T10:23:12Z</time>
      </trkpt>
      <trkpt lat="45.95996" lon="4.70124">
        <ele>328</ele>
        <time>2018-09-07T10:23:13Z</time>
      </trkpt>
      <trkpt lat="45.96003" lon="4.70131">
        <ele>328</ele>
        <time>2018-09-07T10:23:15Z</time>
      </trkpt>
      <trkpt lat="45.96006" lon="4.70134">
        <ele>328</ele>
        <time>2018-09-07T10:23:16Z</time>
      </trkpt>
      <trkpt lat="45.96011" lon="4.70137">
        <ele>328</ele>
        <time>2018-09-07T10:23:17Z</time>
      </trkpt>
      <trkpt lat="45.96015" lon="4.7014">
        <ele>329</ele>
        <time>2018-09-07T10:23:18Z</time>
      </trkpt>
      <trkpt lat="45.9602" lon="4.70143">
        <ele>329</ele>
        <time>2018-09-07T10:23:19Z</time>
      </trkpt>
      <trkpt lat="45.96024" lon="4.70146">
        <ele>329</ele>
        <time>2018-09-07T10:23:20Z</time>
      </trkpt>
      <trkpt lat="45.96029" lon="4.70151">
        <ele>329</ele>
        <time>2018-09-07T10:23:21Z</time>
      </trkpt>
      <trkpt lat="45.96032" lon="4.70157">
        <ele>329</ele>
        <time>2018-09-07T10:23:22Z</time>
      </trkpt>
      <trkpt lat="45.96037" lon="4.70161">
        <ele>329</ele>
        <time>2018-09-07T10:23:23Z</time>
      </trkpt>
      <trkpt lat="45.96042" lon="4.70166">
        <ele>329</ele>
        <time>2018-09-07T10:23:24Z</time>
      </trkpt>
      <trkpt lat="45.96047" lon="4.70172">
        <ele>327</ele>
        <time>2018-09-07T10:23:25Z</time>
      </trkpt>
      <trkpt lat="45.96051" lon="4.70177">
        <ele>327</ele>
        <time>2018-09-07T10:23:26Z</time>
      </trkpt>
      <trkpt lat="45.96053" lon="4.70182">
        <ele>327</ele>
        <time>2018-09-07T10:23:27Z</time>
      </trkpt>
      <trkpt lat="45.96058" lon="4.70187">
        <ele>327</ele>
        <time>2018-09-07T10:23:28Z</time>
      </trkpt>
      <trkpt lat="45.96062" lon="4.70192">
        <ele>327</ele>
        <time>2018-09-07T10:23:29Z</time>
      </trkpt>
      <trkpt lat="45.96068" lon="4.70195">
        <ele>327</ele>
        <time>2018-09-07T10:23:30Z</time>
      </trkpt>
      <trkpt lat="45.96072" lon="4.70199">
        <ele>327</ele>
        <time>2018-09-07T10:23:31Z</time>
      </trkpt>
      <trkpt lat="45.96077" lon="4.70202">
        <ele>327</ele>
        <time>2018-09-07T10:23:32Z</time>
      </trkpt>
      <trkpt lat="45.96083" lon="4.70204">
        <ele>327</ele>
        <time>2018-09-07T10:23:33Z</time>
      </trkpt>
      <trkpt lat="45.96089" lon="4.70205">
        <ele>327</ele>
        <time>2018-09-07T10:23:34Z</time>
      </trkpt>
      <trkpt lat="45.96094" lon="4.70208">
        <ele>327</ele>
        <time>2018-09-07T10:23:35Z</time>
      </trkpt>
      <trkpt lat="45.96099" lon="4.70212">
        <ele>327</ele>
        <time>2018-09-07T10:23:36Z</time>
      </trkpt>
      <trkpt lat="45.96105" lon="4.70217">
        <ele>327</ele>
        <time>2018-09-07T10:23:37Z</time>
      </trkpt>
      <trkpt lat="45.96109" lon="4.70222">
        <ele>327</ele>
        <time>2018-09-07T10:23:38Z</time>
      </trkpt>
      <trkpt lat="45.96115" lon="4.70225">
        <ele>327</ele>
        <time>2018-09-07T10:23:39Z</time>
      </trkpt>
      <trkpt lat="45.9612" lon="4.70228">
        <ele>327</ele>
        <time>2018-09-07T10:23:40Z</time>
      </trkpt>
      <trkpt lat="45.96125" lon="4.70232">
        <ele>327</ele>
        <time>2018-09-07T10:23:41Z</time>
      </trkpt>
      <trkpt lat="45.9613" lon="4.70238">
        <ele>327</ele>
        <time>2018-09-07T10:23:42Z</time>
      </trkpt>
      <trkpt lat="45.96135" lon="4.70242">
        <ele>327</ele>
        <time>2018-09-07T10:23:43Z</time>
      </trkpt>
      <trkpt lat="45.9614" lon="4.70247">
        <ele>327</ele>
        <time>2018-09-07T10:23:44Z</time>
      </trkpt>
      <trkpt lat="45.96146" lon="4.70253">
        <ele>324</ele>
        <time>2018-09-07T10:23:45Z</time>
      </trkpt>
      <trkpt lat="45.96151" lon="4.70259">
        <ele>325</ele>
        <time>2018-09-07T10:23:46Z</time>
      </trkpt>
      <trkpt lat="45.96156" lon="4.70265">
        <ele>324</ele>
        <time>2018-09-07T10:23:47Z</time>
      </trkpt>
      <trkpt lat="45.9616" lon="4.70269">
        <ele>324</ele>
        <time>2018-09-07T10:23:48Z</time>
      </trkpt>
      <trkpt lat="45.96165" lon="4.70274">
        <ele>324</ele>
        <time>2018-09-07T10:23:49Z</time>
      </trkpt>
      <trkpt lat="45.9617" lon="4.70279">
        <ele>327</ele>
        <time>2018-09-07T10:23:50Z</time>
      </trkpt>
      <trkpt lat="45.96175" lon="4.70284">
        <ele>326</ele>
        <time>2018-09-07T10:23:51Z</time>
      </trkpt>
      <trkpt lat="45.96178" lon="4.70291">
        <ele>326</ele>
        <time>2018-09-07T10:23:52Z</time>
      </trkpt>
      <trkpt lat="45.96185" lon="4.70297">
        <ele>326</ele>
        <time>2018-09-07T10:23:53Z</time>
      </trkpt>
      <trkpt lat="45.96188" lon="4.70304">
        <ele>326</ele>
        <time>2018-09-07T10:23:54Z</time>
      </trkpt>
      <trkpt lat="45.96192" lon="4.70312">
        <ele>325</ele>
        <time>2018-09-07T10:23:55Z</time>
      </trkpt>
      <trkpt lat="45.96197" lon="4.70318">
        <ele>325</ele>
        <time>2018-09-07T10:23:56Z</time>
      </trkpt>
      <trkpt lat="45.96201" lon="4.70325">
        <ele>326</ele>
        <time>2018-09-07T10:23:57Z</time>
      </trkpt>
      <trkpt lat="45.96206" lon="4.70332">
        <ele>326</ele>
        <time>2018-09-07T10:23:58Z</time>
      </trkpt>
      <trkpt lat="45.9621" lon="4.70338">
        <ele>321</ele>
        <time>2018-09-07T10:23:59Z</time>
      </trkpt>
      <trkpt lat="45.96214" lon="4.70345">
        <ele>321</ele>
        <time>2018-09-07T10:24:00Z</time>
      </trkpt>
      <trkpt lat="45.96218" lon="4.70354">
        <ele>321</ele>
        <time>2018-09-07T10:24:01Z</time>
      </trkpt>
      <trkpt lat="45.96223" lon="4.70361">
        <ele>321</ele>
        <time>2018-09-07T10:24:02Z</time>
      </trkpt>
      <trkpt lat="45.96228" lon="4.70368">
        <ele>321</ele>
        <time>2018-09-07T10:24:03Z</time>
      </trkpt>
      <trkpt lat="45.96234" lon="4.70375">
        <ele>321</ele>
        <time>2018-09-07T10:24:04Z</time>
      </trkpt>
      <trkpt lat="45.96238" lon="4.70382">
        <ele>320</ele>
        <time>2018-09-07T10:24:05Z</time>
      </trkpt>
      <trkpt lat="45.96243" lon="4.70389">
        <ele>320</ele>
        <time>2018-09-07T10:24:06Z</time>
      </trkpt>
      <trkpt lat="45.96246" lon="4.70396">
        <ele>320</ele>
        <time>2018-09-07T10:24:07Z</time>
      </trkpt>
      <trkpt lat="45.96251" lon="4.70404">
        <ele>323</ele>
        <time>2018-09-07T10:24:08Z</time>
      </trkpt>
      <trkpt lat="45.96256" lon="4.70411">
        <ele>322</ele>
        <time>2018-09-07T10:24:09Z</time>
      </trkpt>
      <trkpt lat="45.9626" lon="4.70418">
        <ele>320</ele>
        <time>2018-09-07T10:24:10Z</time>
      </trkpt>
      <trkpt lat="45.96268" lon="4.70424">
        <ele>321</ele>
        <time>2018-09-07T10:24:11Z</time>
      </trkpt>
      <trkpt lat="45.96273" lon="4.70431">
        <ele>321</ele>
        <time>2018-09-07T10:24:12Z</time>
      </trkpt>
      <trkpt lat="45.96278" lon="4.70439">
        <ele>321</ele>
        <time>2018-09-07T10:24:13Z</time>
      </trkpt>
      <trkpt lat="45.96282" lon="4.70446">
        <ele>321</ele>
        <time>2018-09-07T10:24:14Z</time>
      </trkpt>
      <trkpt lat="45.96287" lon="4.70454">
        <ele>321</ele>
        <time>2018-09-07T10:24:15Z</time>
      </trkpt>
      <trkpt lat="45.96292" lon="4.70462">
        <ele>321</ele>
        <time>2018-09-07T10:24:16Z</time>
      </trkpt>
      <trkpt lat="45.96297" lon="4.70469">
        <ele>321</ele>
        <time>2018-09-07T10:24:17Z</time>
      </trkpt>
      <trkpt lat="45.96302" lon="4.70476">
        <ele>320</ele>
        <time>2018-09-07T10:24:18Z</time>
      </trkpt>
      <trkpt lat="45.96306" lon="4.70483">
        <ele>320</ele>
        <time>2018-09-07T10:24:19Z</time>
      </trkpt>
      <trkpt lat="45.96311" lon="4.7049">
        <ele>320</ele>
        <time>2018-09-07T10:24:20Z</time>
      </trkpt>
      <trkpt lat="45.96315" lon="4.70497">
        <ele>320</ele>
        <time>2018-09-07T10:24:21Z</time>
      </trkpt>
      <trkpt lat="45.96321" lon="4.70504">
        <ele>317</ele>
        <time>2018-09-07T10:24:22Z</time>
      </trkpt>
      <trkpt lat="45.96325" lon="4.7051">
        <ele>317</ele>
        <time>2018-09-07T10:24:23Z</time>
      </trkpt>
      <trkpt lat="45.96331" lon="4.70518">
        <ele>316</ele>
        <time>2018-09-07T10:24:24Z</time>
      </trkpt>
      <trkpt lat="45.96336" lon="4.70523">
        <ele>319</ele>
        <time>2018-09-07T10:24:25Z</time>
      </trkpt>
      <trkpt lat="45.96341" lon="4.70531">
        <ele>319</ele>
        <time>2018-09-07T10:24:26Z</time>
      </trkpt>
      <trkpt lat="45.96348" lon="4.70539">
        <ele>319</ele>
        <time>2018-09-07T10:24:27Z</time>
      </trkpt>
      <trkpt lat="45.96354" lon="4.70546">
        <ele>318</ele>
        <time>2018-09-07T10:24:28Z</time>
      </trkpt>
      <trkpt lat="45.96358" lon="4.70555">
        <ele>318</ele>
        <time>2018-09-07T10:24:29Z</time>
      </trkpt>
      <trkpt lat="45.96365" lon="4.70563">
        <ele>318</ele>
        <time>2018-09-07T10:24:30Z</time>
      </trkpt>
      <trkpt lat="45.96372" lon="4.70571">
        <ele>318</ele>
        <time>2018-09-07T10:24:31Z</time>
      </trkpt>
      <trkpt lat="45.96378" lon="4.70576">
        <ele>318</ele>
        <time>2018-09-07T10:24:32Z</time>
      </trkpt>
      <trkpt lat="45.96384" lon="4.70584">
        <ele>312</ele>
        <time>2018-09-07T10:24:33Z</time>
      </trkpt>
      <trkpt lat="45.96391" lon="4.70592">
        <ele>312</ele>
        <time>2018-09-07T10:24:34Z</time>
      </trkpt>
      <trkpt lat="45.96397" lon="4.70601">
        <ele>312</ele>
        <time>2018-09-07T10:24:35Z</time>
      </trkpt>
      <trkpt lat="45.96404" lon="4.70609">
        <ele>312</ele>
        <time>2018-09-07T10:24:36Z</time>
      </trkpt>
      <trkpt lat="45.9641" lon="4.70617">
        <ele>311</ele>
        <time>2018-09-07T10:24:37Z</time>
      </trkpt>
      <trkpt lat="45.96417" lon="4.70625">
        <ele>314</ele>
        <time>2018-09-07T10:24:38Z</time>
      </trkpt>
      <trkpt lat="45.96425" lon="4.70633">
        <ele>313</ele>
        <time>2018-09-07T10:24:39Z</time>
      </trkpt>
      <trkpt lat="45.96432" lon="4.70641">
        <ele>313</ele>
        <time>2018-09-07T10:24:40Z</time>
      </trkpt>
      <trkpt lat="45.9644" lon="4.70648">
        <ele>312</ele>
        <time>2018-09-07T10:24:41Z</time>
      </trkpt>
      <trkpt lat="45.96448" lon="4.70655">
        <ele>312</ele>
        <time>2018-09-07T10:24:42Z</time>
      </trkpt>
      <trkpt lat="45.96457" lon="4.70663">
        <ele>312</ele>
        <time>2018-09-07T10:24:43Z</time>
      </trkpt>
      <trkpt lat="45.96464" lon="4.7067">
        <ele>306</ele>
        <time>2018-09-07T10:24:44Z</time>
      </trkpt>
      <trkpt lat="45.96474" lon="4.70676">
        <ele>306</ele>
        <time>2018-09-07T10:24:45Z</time>
      </trkpt>
      <trkpt lat="45.96482" lon="4.70683">
        <ele>306</ele>
        <time>2018-09-07T10:24:46Z</time>
      </trkpt>
      <trkpt lat="45.96491" lon="4.70692">
        <ele>305</ele>
        <time>2018-09-07T10:24:47Z</time>
      </trkpt>
      <trkpt lat="45.96499" lon="4.707">
        <ele>305</ele>
        <time>2018-09-07T10:24:48Z</time>
      </trkpt>
      <trkpt lat="45.96509" lon="4.70708">
        <ele>306</ele>
        <time>2018-09-07T10:24:49Z</time>
      </trkpt>
      <trkpt lat="45.96518" lon="4.70716">
        <ele>306</ele>
        <time>2018-09-07T10:24:50Z</time>
      </trkpt>
      <trkpt lat="45.96527" lon="4.70723">
        <ele>305</ele>
        <time>2018-09-07T10:24:51Z</time>
      </trkpt>
      <trkpt lat="45.96536" lon="4.70731">
        <ele>305</ele>
        <time>2018-09-07T10:24:52Z</time>
      </trkpt>
      <trkpt lat="45.96545" lon="4.70738">
        <ele>305</ele>
        <time>2018-09-07T10:24:53Z</time>
      </trkpt>
      <trkpt lat="45.96554" lon="4.70746">
        <ele>305</ele>
        <time>2018-09-07T10:24:54Z</time>
      </trkpt>
      <trkpt lat="45.96564" lon="4.70754">
        <ele>299</ele>
        <time>2018-09-07T10:24:55Z</time>
      </trkpt>
      <trkpt lat="45.96573" lon="4.70762">
        <ele>300</ele>
        <time>2018-09-07T10:24:56Z</time>
      </trkpt>
      <trkpt lat="45.96582" lon="4.70769">
        <ele>299</ele>
        <time>2018-09-07T10:24:57Z</time>
      </trkpt>
      <trkpt lat="45.96592" lon="4.70775">
        <ele>300</ele>
        <time>2018-09-07T10:24:58Z</time>
      </trkpt>
      <trkpt lat="45.96602" lon="4.70782">
        <ele>299</ele>
        <time>2018-09-07T10:24:59Z</time>
      </trkpt>
      <trkpt lat="45.96612" lon="4.70789">
        <ele>299</ele>
        <time>2018-09-07T10:25:00Z</time>
      </trkpt>
      <trkpt lat="45.96622" lon="4.70798">
        <ele>298</ele>
        <time>2018-09-07T10:25:01Z</time>
      </trkpt>
      <trkpt lat="45.96631" lon="4.70805">
        <ele>298</ele>
        <time>2018-09-07T10:25:02Z</time>
      </trkpt>
      <trkpt lat="45.96641" lon="4.7081">
        <ele>298</ele>
        <time>2018-09-07T10:25:03Z</time>
      </trkpt>
      <trkpt lat="45.9665" lon="4.70816">
        <ele>297</ele>
        <time>2018-09-07T10:25:04Z</time>
      </trkpt>
      <trkpt lat="45.9666" lon="4.70824">
        <ele>296</ele>
        <time>2018-09-07T10:25:05Z</time>
      </trkpt>
      <trkpt lat="45.96669" lon="4.70829">
        <ele>296</ele>
        <time>2018-09-07T10:25:06Z</time>
      </trkpt>
      <trkpt lat="45.96679" lon="4.70835">
        <ele>292</ele>
        <time>2018-09-07T10:25:07Z</time>
      </trkpt>
      <trkpt lat="45.96688" lon="4.70841">
        <ele>291</ele>
        <time>2018-09-07T10:25:08Z</time>
      </trkpt>
      <trkpt lat="45.96698" lon="4.70848">
        <ele>290</ele>
        <time>2018-09-07T10:25:09Z</time>
      </trkpt>
      <trkpt lat="45.96708" lon="4.70855">
        <ele>290</ele>
        <time>2018-09-07T10:25:10Z</time>
      </trkpt>
      <trkpt lat="45.96717" lon="4.70861">
        <ele>289</ele>
        <time>2018-09-07T10:25:11Z</time>
      </trkpt>
      <trkpt lat="45.96727" lon="4.70867">
        <ele>289</ele>
        <time>2018-09-07T10:25:12Z</time>
      </trkpt>
      <trkpt lat="45.96737" lon="4.70874">
        <ele>288</ele>
        <time>2018-09-07T10:25:13Z</time>
      </trkpt>
      <trkpt lat="45.96746" lon="4.7088">
        <ele>288</ele>
        <time>2018-09-07T10:25:14Z</time>
      </trkpt>
      <trkpt lat="45.96754" lon="4.70886">
        <ele>288</ele>
        <time>2018-09-07T10:25:15Z</time>
      </trkpt>
      <trkpt lat="45.96766" lon="4.70888">
        <ele>288</ele>
        <time>2018-09-07T10:25:16Z</time>
      </trkpt>
      <trkpt lat="45.96775" lon="4.70894">
        <ele>288</ele>
        <time>2018-09-07T10:25:17Z</time>
      </trkpt>
      <trkpt lat="45.96785" lon="4.70899">
        <ele>288</ele>
        <time>2018-09-07T10:25:18Z</time>
      </trkpt>
      <trkpt lat="45.96794" lon="4.70904">
        <ele>288</ele>
        <time>2018-09-07T10:25:19Z</time>
      </trkpt>
      <trkpt lat="45.96803" lon="4.7091">
        <ele>288</ele>
        <time>2018-09-07T10:25:20Z</time>
      </trkpt>
      <trkpt lat="45.96812" lon="4.70915">
        <ele>288</ele>
        <time>2018-09-07T10:25:21Z</time>
      </trkpt>
      <trkpt lat="45.96821" lon="4.70921">
        <ele>283</ele>
        <time>2018-09-07T10:25:22Z</time>
      </trkpt>
      <trkpt lat="45.96832" lon="4.70926">
        <ele>283</ele>
        <time>2018-09-07T10:25:23Z</time>
      </trkpt>
      <trkpt lat="45.96841" lon="4.70933">
        <ele>282</ele>
        <time>2018-09-07T10:25:24Z</time>
      </trkpt>
      <trkpt lat="45.96849" lon="4.70939">
        <ele>281</ele>
        <time>2018-09-07T10:25:25Z</time>
      </trkpt>
      <trkpt lat="45.96859" lon="4.70945">
        <ele>280</ele>
        <time>2018-09-07T10:25:26Z</time>
      </trkpt>
      <trkpt lat="45.96867" lon="4.70953">
        <ele>280</ele>
        <time>2018-09-07T10:25:27Z</time>
      </trkpt>
      <trkpt lat="45.96876" lon="4.70957">
        <ele>279</ele>
        <time>2018-09-07T10:25:28Z</time>
      </trkpt>
      <trkpt lat="45.96887" lon="4.70962">
        <ele>279</ele>
        <time>2018-09-07T10:25:29Z</time>
      </trkpt>
      <trkpt lat="45.96895" lon="4.70971">
        <ele>278</ele>
        <time>2018-09-07T10:25:30Z</time>
      </trkpt>
      <trkpt lat="45.96905" lon="4.70974">
        <ele>278</ele>
        <time>2018-09-07T10:25:31Z</time>
      </trkpt>
      <trkpt lat="45.96914" lon="4.70977">
        <ele>277</ele>
        <time>2018-09-07T10:25:32Z</time>
      </trkpt>
      <trkpt lat="45.96924" lon="4.7098">
        <ele>275</ele>
        <time>2018-09-07T10:25:33Z</time>
      </trkpt>
      <trkpt lat="45.96933" lon="4.70983">
        <ele>275</ele>
        <time>2018-09-07T10:25:34Z</time>
      </trkpt>
      <trkpt lat="45.96943" lon="4.70985">
        <ele>275</ele>
        <time>2018-09-07T10:25:35Z</time>
      </trkpt>
      <trkpt lat="45.96953" lon="4.70988">
        <ele>275</ele>
        <time>2018-09-07T10:25:36Z</time>
      </trkpt>
      <trkpt lat="45.96962" lon="4.70992">
        <ele>274</ele>
        <time>2018-09-07T10:25:37Z</time>
      </trkpt>
      <trkpt lat="45.96972" lon="4.70994">
        <ele>273</ele>
        <time>2018-09-07T10:25:38Z</time>
      </trkpt>
      <trkpt lat="45.96985" lon="4.70983">
        <ele>273</ele>
        <time>2018-09-07T10:25:39Z</time>
      </trkpt>
      <trkpt lat="45.96993" lon="4.70984">
        <ele>272</ele>
        <time>2018-09-07T10:25:40Z</time>
      </trkpt>
      <trkpt lat="45.97003" lon="4.70983">
        <ele>269</ele>
        <time>2018-09-07T10:25:41Z</time>
      </trkpt>
      <trkpt lat="45.97013" lon="4.70983">
        <ele>270</ele>
        <time>2018-09-07T10:25:42Z</time>
      </trkpt>
      <trkpt lat="45.97023" lon="4.70981">
        <ele>270</ele>
        <time>2018-09-07T10:25:43Z</time>
      </trkpt>
      <trkpt lat="45.97033" lon="4.70981">
        <ele>270</ele>
        <time>2018-09-07T10:25:44Z</time>
      </trkpt>
      <trkpt lat="45.97042" lon="4.7098">
        <ele>269</ele>
        <time>2018-09-07T10:25:45Z</time>
      </trkpt>
      <trkpt lat="45.97052" lon="4.70979">
        <ele>269</ele>
        <time>2018-09-07T10:25:46Z</time>
      </trkpt>
      <trkpt lat="45.97062" lon="4.70977">
        <ele>269</ele>
        <time>2018-09-07T10:25:47Z</time>
      </trkpt>
      <trkpt lat="45.97073" lon="4.70976">
        <ele>268</ele>
        <time>2018-09-07T10:25:48Z</time>
      </trkpt>
      <trkpt lat="45.97083" lon="4.70974">
        <ele>268</ele>
        <time>2018-09-07T10:25:49Z</time>
      </trkpt>
      <trkpt lat="45.97093" lon="4.7097">
        <ele>265</ele>
        <time>2018-09-07T10:25:50Z</time>
      </trkpt>
      <trkpt lat="45.97103" lon="4.70967">
        <ele>265</ele>
        <time>2018-09-07T10:25:51Z</time>
      </trkpt>
      <trkpt lat="45.97114" lon="4.70965">
        <ele>264</ele>
        <time>2018-09-07T10:25:52Z</time>
      </trkpt>
      <trkpt lat="45.97124" lon="4.70964">
        <ele>264</ele>
        <time>2018-09-07T10:25:53Z</time>
      </trkpt>
      <trkpt lat="45.97135" lon="4.70959">
        <ele>264</ele>
        <time>2018-09-07T10:25:54Z</time>
      </trkpt>
      <trkpt lat="45.97146" lon="4.70953">
        <ele>263</ele>
        <time>2018-09-07T10:25:55Z</time>
      </trkpt>
      <trkpt lat="45.97155" lon="4.70949">
        <ele>263</ele>
        <time>2018-09-07T10:25:56Z</time>
      </trkpt>
      <trkpt lat="45.97163" lon="4.70946">
        <ele>263</ele>
        <time>2018-09-07T10:25:57Z</time>
      </trkpt>
      <trkpt lat="45.97172" lon="4.70941">
        <ele>258</ele>
        <time>2018-09-07T10:25:58Z</time>
      </trkpt>
      <trkpt lat="45.9718" lon="4.70936">
        <ele>258</ele>
        <time>2018-09-07T10:25:59Z</time>
      </trkpt>
      <trkpt lat="45.97188" lon="4.70928">
        <ele>258</ele>
        <time>2018-09-07T10:26:00Z</time>
      </trkpt>
      <trkpt lat="45.97195" lon="4.70923">
        <ele>257</ele>
        <time>2018-09-07T10:26:01Z</time>
      </trkpt>
      <trkpt lat="45.97203" lon="4.70917">
        <ele>261</ele>
        <time>2018-09-07T10:26:02Z</time>
      </trkpt>
      <trkpt lat="45.97211" lon="4.70909">
        <ele>260</ele>
        <time>2018-09-07T10:26:03Z</time>
      </trkpt>
      <trkpt lat="45.97218" lon="4.70902">
        <ele>259</ele>
        <time>2018-09-07T10:26:04Z</time>
      </trkpt>
      <trkpt lat="45.97225" lon="4.70895">
        <ele>259</ele>
        <time>2018-09-07T10:26:05Z</time>
      </trkpt>
      <trkpt lat="45.97233" lon="4.70887">
        <ele>259</ele>
        <time>2018-09-07T10:26:06Z</time>
      </trkpt>
      <trkpt lat="45.9724" lon="4.70878">
        <ele>259</ele>
        <time>2018-09-07T10:26:07Z</time>
      </trkpt>
      <trkpt lat="45.97248" lon="4.70865">
        <ele>259</ele>
        <time>2018-09-07T10:26:08Z</time>
      </trkpt>
      <trkpt lat="45.97255" lon="4.70856">
        <ele>253</ele>
        <time>2018-09-07T10:26:09Z</time>
      </trkpt>
      <trkpt lat="45.97262" lon="4.70845">
        <ele>254</ele>
        <time>2018-09-07T10:26:10Z</time>
      </trkpt>
      <trkpt lat="45.97268" lon="4.70836">
        <ele>254</ele>
        <time>2018-09-07T10:26:11Z</time>
      </trkpt>
      <trkpt lat="45.97274" lon="4.70826">
        <ele>255</ele>
        <time>2018-09-07T10:26:12Z</time>
      </trkpt>
      <trkpt lat="45.97281" lon="4.70817">
        <ele>254</ele>
        <time>2018-09-07T10:26:13Z</time>
      </trkpt>
      <trkpt lat="45.97287" lon="4.70809">
        <ele>254</ele>
        <time>2018-09-07T10:26:14Z</time>
      </trkpt>
      <trkpt lat="45.97294" lon="4.70801">
        <ele>253</ele>
        <time>2018-09-07T10:26:15Z</time>
      </trkpt>
      <trkpt lat="45.973" lon="4.70794">
        <ele>253</ele>
        <time>2018-09-07T10:26:16Z</time>
      </trkpt>
      <trkpt lat="45.97305" lon="4.70789">
        <ele>253</ele>
        <time>2018-09-07T10:26:17Z</time>
      </trkpt>
      <trkpt lat="45.97311" lon="4.70784">
        <ele>253</ele>
        <time>2018-09-07T10:26:18Z</time>
      </trkpt>
      <trkpt lat="45.97316" lon="4.70779">
        <ele>252</ele>
        <time>2018-09-07T10:26:19Z</time>
      </trkpt>
      <trkpt lat="45.9732" lon="4.70776">
        <ele>252</ele>
        <time>2018-09-07T10:26:20Z</time>
      </trkpt>
      <trkpt lat="45.97326" lon="4.70771">
        <ele>252</ele>
        <time>2018-09-07T10:26:21Z</time>
      </trkpt>
      <trkpt lat="45.97332" lon="4.70767">
        <ele>251</ele>
        <time>2018-09-07T10:26:22Z</time>
      </trkpt>
      <trkpt lat="45.97338" lon="4.70763">
        <ele>247</ele>
        <time>2018-09-07T10:26:23Z</time>
      </trkpt>
      <trkpt lat="45.97346" lon="4.70759">
        <ele>247</ele>
        <time>2018-09-07T10:26:24Z</time>
      </trkpt>
      <trkpt lat="45.97353" lon="4.70755">
        <ele>246</ele>
        <time>2018-09-07T10:26:25Z</time>
      </trkpt>
      <trkpt lat="45.97363" lon="4.70751">
        <ele>245</ele>
        <time>2018-09-07T10:26:26Z</time>
      </trkpt>
      <trkpt lat="45.9737" lon="4.70747">
        <ele>245</ele>
        <time>2018-09-07T10:26:27Z</time>
      </trkpt>
      <trkpt lat="45.97378" lon="4.70746">
        <ele>244</ele>
        <time>2018-09-07T10:26:28Z</time>
      </trkpt>
      <trkpt lat="45.97386" lon="4.70745">
        <ele>243</ele>
        <time>2018-09-07T10:26:29Z</time>
      </trkpt>
      <trkpt lat="45.97394" lon="4.70744">
        <ele>243</ele>
        <time>2018-09-07T10:26:30Z</time>
      </trkpt>
      <trkpt lat="45.97402" lon="4.70745">
        <ele>242</ele>
        <time>2018-09-07T10:26:31Z</time>
      </trkpt>
      <trkpt lat="45.97412" lon="4.70746">
        <ele>241</ele>
        <time>2018-09-07T10:26:32Z</time>
      </trkpt>
      <trkpt lat="45.9742" lon="4.70746">
        <ele>240</ele>
        <time>2018-09-07T10:26:33Z</time>
      </trkpt>
      <trkpt lat="45.97429" lon="4.70746">
        <ele>239</ele>
        <time>2018-09-07T10:26:34Z</time>
      </trkpt>
      <trkpt lat="45.97438" lon="4.70747">
        <ele>239</ele>
        <time>2018-09-07T10:26:35Z</time>
      </trkpt>
      <trkpt lat="45.97447" lon="4.70749">
        <ele>238</ele>
        <time>2018-09-07T10:26:36Z</time>
      </trkpt>
      <trkpt lat="45.97455" lon="4.70749">
        <ele>238</ele>
        <time>2018-09-07T10:26:37Z</time>
      </trkpt>
      <trkpt lat="45.97464" lon="4.70749">
        <ele>238</ele>
        <time>2018-09-07T10:26:38Z</time>
      </trkpt>
      <trkpt lat="45.9747" lon="4.7075">
        <ele>238</ele>
        <time>2018-09-07T10:26:39Z</time>
      </trkpt>
      <trkpt lat="45.97477" lon="4.70749">
        <ele>237</ele>
        <time>2018-09-07T10:26:40Z</time>
      </trkpt>
      <trkpt lat="45.97486" lon="4.70742">
        <ele>237</ele>
        <time>2018-09-07T10:26:41Z</time>
      </trkpt>
      <trkpt lat="45.97493" lon="4.70741">
        <ele>237</ele>
        <time>2018-09-07T10:26:42Z</time>
      </trkpt>
      <trkpt lat="45.975" lon="4.70741">
        <ele>235</ele>
        <time>2018-09-07T10:26:43Z</time>
      </trkpt>
      <trkpt lat="45.97507" lon="4.7074">
        <ele>235</ele>
        <time>2018-09-07T10:26:44Z</time>
      </trkpt>
      <trkpt lat="45.97513" lon="4.70738">
        <ele>235</ele>
        <time>2018-09-07T10:26:45Z</time>
      </trkpt>
      <trkpt lat="45.97521" lon="4.70737">
        <ele>234</ele>
        <time>2018-09-07T10:26:46Z</time>
      </trkpt>
      <trkpt lat="45.97527" lon="4.70736">
        <ele>234</ele>
        <time>2018-09-07T10:26:47Z</time>
      </trkpt>
      <trkpt lat="45.97533" lon="4.70737">
        <ele>234</ele>
        <time>2018-09-07T10:26:48Z</time>
      </trkpt>
      <trkpt lat="45.97539" lon="4.70736">
        <ele>234</ele>
        <time>2018-09-07T10:26:49Z</time>
      </trkpt>
      <trkpt lat="45.97545" lon="4.70734">
        <ele>233</ele>
        <time>2018-09-07T10:26:50Z</time>
      </trkpt>
      <trkpt lat="45.97551" lon="4.70733">
        <ele>233</ele>
        <time>2018-09-07T10:26:51Z</time>
      </trkpt>
      <trkpt lat="45.97557" lon="4.70732">
        <ele>233</ele>
        <time>2018-09-07T10:26:52Z</time>
      </trkpt>
      <trkpt lat="45.97564" lon="4.7073">
        <ele>233</ele>
        <time>2018-09-07T10:26:53Z</time>
      </trkpt>
      <trkpt lat="45.9757" lon="4.70728">
        <ele>233</ele>
        <time>2018-09-07T10:26:54Z</time>
      </trkpt>
      <trkpt lat="45.97577" lon="4.70727">
        <ele>232</ele>
        <time>2018-09-07T10:26:55Z</time>
      </trkpt>
      <trkpt lat="45.97585" lon="4.70728">
        <ele>229</ele>
        <time>2018-09-07T10:26:56Z</time>
      </trkpt>
      <trkpt lat="45.97592" lon="4.70728">
        <ele>229</ele>
        <time>2018-09-07T10:26:57Z</time>
      </trkpt>
      <trkpt lat="45.97599" lon="4.70729">
        <ele>229</ele>
        <time>2018-09-07T10:26:58Z</time>
      </trkpt>
      <trkpt lat="45.97607" lon="4.7073">
        <ele>229</ele>
        <time>2018-09-07T10:26:59Z</time>
      </trkpt>
      <trkpt lat="45.97614" lon="4.70732">
        <ele>228</ele>
        <time>2018-09-07T10:27:00Z</time>
      </trkpt>
      <trkpt lat="45.97622" lon="4.70734">
        <ele>228</ele>
        <time>2018-09-07T10:27:01Z</time>
      </trkpt>
      <trkpt lat="45.97631" lon="4.70732">
        <ele>228</ele>
        <time>2018-09-07T10:27:02Z</time>
      </trkpt>
      <trkpt lat="45.9764" lon="4.70735">
        <ele>227</ele>
        <time>2018-09-07T10:27:03Z</time>
      </trkpt>
      <trkpt lat="45.97648" lon="4.70738">
        <ele>226</ele>
        <time>2018-09-07T10:27:04Z</time>
      </trkpt>
      <trkpt lat="45.97655" lon="4.70742">
        <ele>226</ele>
        <time>2018-09-07T10:27:05Z</time>
      </trkpt>
      <trkpt lat="45.97663" lon="4.70746">
        <ele>225</ele>
        <time>2018-09-07T10:27:06Z</time>
      </trkpt>
      <trkpt lat="45.97671" lon="4.7075">
        <ele>224</ele>
        <time>2018-09-07T10:27:07Z</time>
      </trkpt>
      <trkpt lat="45.97679" lon="4.70754">
        <ele>223</ele>
        <time>2018-09-07T10:27:08Z</time>
      </trkpt>
      <trkpt lat="45.97687" lon="4.70757">
        <ele>223</ele>
        <time>2018-09-07T10:27:09Z</time>
      </trkpt>
      <trkpt lat="45.97695" lon="4.7076">
        <ele>223</ele>
        <time>2018-09-07T10:27:10Z</time>
      </trkpt>
      <trkpt lat="45.97702" lon="4.70763">
        <ele>223</ele>
        <time>2018-09-07T10:27:11Z</time>
      </trkpt>
      <trkpt lat="45.9771" lon="4.70766">
        <ele>223</ele>
        <time>2018-09-07T10:27:12Z</time>
      </trkpt>
      <trkpt lat="45.97718" lon="4.70769">
        <ele>222</ele>
        <time>2018-09-07T10:27:13Z</time>
      </trkpt>
      <trkpt lat="45.97725" lon="4.70772">
        <ele>222</ele>
        <time>2018-09-07T10:27:14Z</time>
      </trkpt>
      <trkpt lat="45.97733" lon="4.70775">
        <ele>222</ele>
        <time>2018-09-07T10:27:15Z</time>
      </trkpt>
      <trkpt lat="45.97741" lon="4.70778">
        <ele>222</ele>
        <time>2018-09-07T10:27:16Z</time>
      </trkpt>
      <trkpt lat="45.97749" lon="4.70781">
        <ele>222</ele>
        <time>2018-09-07T10:27:17Z</time>
      </trkpt>
      <trkpt lat="45.97755" lon="4.70782">
        <ele>221</ele>
        <time>2018-09-07T10:27:18Z</time>
      </trkpt>
      <trkpt lat="45.97761" lon="4.70784">
        <ele>221</ele>
        <time>2018-09-07T10:27:19Z</time>
      </trkpt>
      <trkpt lat="45.97769" lon="4.70786">
        <ele>221</ele>
        <time>2018-09-07T10:27:20Z</time>
      </trkpt>
      <trkpt lat="45.97775" lon="4.70787">
        <ele>221</ele>
        <time>2018-09-07T10:27:21Z</time>
      </trkpt>
      <trkpt lat="45.97782" lon="4.70792">
        <ele>221</ele>
        <time>2018-09-07T10:27:22Z</time>
      </trkpt>
      <trkpt lat="45.97788" lon="4.70795">
        <ele>221</ele>
        <time>2018-09-07T10:27:23Z</time>
      </trkpt>
      <trkpt lat="45.97792" lon="4.70799">
        <ele>221</ele>
        <time>2018-09-07T10:27:24Z</time>
      </trkpt>
      <trkpt lat="45.97798" lon="4.70803">
        <ele>221</ele>
        <time>2018-09-07T10:27:25Z</time>
      </trkpt>
      <trkpt lat="45.97803" lon="4.70809">
        <ele>221</ele>
        <time>2018-09-07T10:27:26Z</time>
      </trkpt>
      <trkpt lat="45.97806" lon="4.70815">
        <ele>221</ele>
        <time>2018-09-07T10:27:27Z</time>
      </trkpt>
      <trkpt lat="45.97809" lon="4.70823">
        <ele>221</ele>
        <time>2018-09-07T10:27:28Z</time>
      </trkpt>
      <trkpt lat="45.97811" lon="4.70831">
        <ele>221</ele>
        <time>2018-09-07T10:27:29Z</time>
      </trkpt>
      <trkpt lat="45.97814" lon="4.7084">
        <ele>220</ele>
        <time>2018-09-07T10:27:30Z</time>
      </trkpt>
      <trkpt lat="45.97815" lon="4.70848">
        <ele>220</ele>
        <time>2018-09-07T10:27:31Z</time>
      </trkpt>
      <trkpt lat="45.97817" lon="4.70856">
        <ele>220</ele>
        <time>2018-09-07T10:27:32Z</time>
      </trkpt>
      <trkpt lat="45.97818" lon="4.70865">
        <ele>220</ele>
        <time>2018-09-07T10:27:33Z</time>
      </trkpt>
      <trkpt lat="45.97819" lon="4.70875">
        <ele>220</ele>
        <time>2018-09-07T10:27:34Z</time>
      </trkpt>
      <trkpt lat="45.97819" lon="4.70883">
        <ele>220</ele>
        <time>2018-09-07T10:27:35Z</time>
      </trkpt>
      <trkpt lat="45.9782" lon="4.70892">
        <ele>220</ele>
        <time>2018-09-07T10:27:36Z</time>
      </trkpt>
      <trkpt lat="45.9782" lon="4.70901">
        <ele>220</ele>
        <time>2018-09-07T10:27:37Z</time>
      </trkpt>
      <trkpt lat="45.97819" lon="4.70911">
        <ele>219</ele>
        <time>2018-09-07T10:27:38Z</time>
      </trkpt>
      <trkpt lat="45.97819" lon="4.70921">
        <ele>219</ele>
        <time>2018-09-07T10:27:39Z</time>
      </trkpt>
      <trkpt lat="45.97821" lon="4.70931">
        <ele>219</ele>
        <time>2018-09-07T10:27:40Z</time>
      </trkpt>
      <trkpt lat="45.97825" lon="4.7094">
        <ele>218</ele>
        <time>2018-09-07T10:27:41Z</time>
      </trkpt>
      <trkpt lat="45.97828" lon="4.70949">
        <ele>218</ele>
        <time>2018-09-07T10:27:42Z</time>
      </trkpt>
      <trkpt lat="45.97832" lon="4.7096">
        <ele>218</ele>
        <time>2018-09-07T10:27:43Z</time>
      </trkpt>
      <trkpt lat="45.97833" lon="4.7097">
        <ele>217</ele>
        <time>2018-09-07T10:27:44Z</time>
      </trkpt>
      <trkpt lat="45.97836" lon="4.70981">
        <ele>217</ele>
        <time>2018-09-07T10:27:45Z</time>
      </trkpt>
      <trkpt lat="45.97837" lon="4.70993">
        <ele>216</ele>
        <time>2018-09-07T10:27:46Z</time>
      </trkpt>
      <trkpt lat="45.97838" lon="4.71005">
        <ele>216</ele>
        <time>2018-09-07T10:27:47Z</time>
      </trkpt>
      <trkpt lat="45.97839" lon="4.71016">
        <ele>216</ele>
        <time>2018-09-07T10:27:48Z</time>
      </trkpt>
      <trkpt lat="45.9784" lon="4.71028">
        <ele>216</ele>
        <time>2018-09-07T10:27:49Z</time>
      </trkpt>
      <trkpt lat="45.97841" lon="4.7104">
        <ele>216</ele>
        <time>2018-09-07T10:27:50Z</time>
      </trkpt>
      <trkpt lat="45.97841" lon="4.71051">
        <ele>215</ele>
        <time>2018-09-07T10:27:51Z</time>
      </trkpt>
      <trkpt lat="45.97843" lon="4.71062">
        <ele>215</ele>
        <time>2018-09-07T10:27:52Z</time>
      </trkpt>
      <trkpt lat="45.97844" lon="4.71073">
        <ele>215</ele>
        <time>2018-09-07T10:27:53Z</time>
      </trkpt>
      <trkpt lat="45.97845" lon="4.71083">
        <ele>215</ele>
        <time>2018-09-07T10:27:54Z</time>
      </trkpt>
      <trkpt lat="45.97847" lon="4.71093">
        <ele>213</ele>
        <time>2018-09-07T10:27:55Z</time>
      </trkpt>
      <trkpt lat="45.97848" lon="4.71102">
        <ele>213</ele>
        <time>2018-09-07T10:27:56Z</time>
      </trkpt>
      <trkpt lat="45.97848" lon="4.71111">
        <ele>213</ele>
        <time>2018-09-07T10:27:57Z</time>
      </trkpt>
      <trkpt lat="45.97848" lon="4.71121">
        <ele>213</ele>
        <time>2018-09-07T10:27:58Z</time>
      </trkpt>
      <trkpt lat="45.97849" lon="4.7113">
        <ele>212</ele>
        <time>2018-09-07T10:27:59Z</time>
      </trkpt>
      <trkpt lat="45.9785" lon="4.71139">
        <ele>212</ele>
        <time>2018-09-07T10:28:00Z</time>
      </trkpt>
      <trkpt lat="45.97851" lon="4.71149">
        <ele>212</ele>
        <time>2018-09-07T10:28:01Z</time>
      </trkpt>
      <trkpt lat="45.97851" lon="4.71158">
        <ele>212</ele>
        <time>2018-09-07T10:28:02Z</time>
      </trkpt>
      <trkpt lat="45.97851" lon="4.71166">
        <ele>212</ele>
        <time>2018-09-07T10:28:03Z</time>
      </trkpt>
      <trkpt lat="45.97852" lon="4.71175">
        <ele>210</ele>
        <time>2018-09-07T10:28:04Z</time>
      </trkpt>
      <trkpt lat="45.97853" lon="4.71184">
        <ele>209</ele>
        <time>2018-09-07T10:28:05Z</time>
      </trkpt>
      <trkpt lat="45.97853" lon="4.71193">
        <ele>209</ele>
        <time>2018-09-07T10:28:06Z</time>
      </trkpt>
      <trkpt lat="45.97853" lon="4.71204">
        <ele>209</ele>
        <time>2018-09-07T10:28:07Z</time>
      </trkpt>
      <trkpt lat="45.97853" lon="4.71213">
        <ele>208</ele>
        <time>2018-09-07T10:28:08Z</time>
      </trkpt>
      <trkpt lat="45.97853" lon="4.71223">
        <ele>208</ele>
        <time>2018-09-07T10:28:09Z</time>
      </trkpt>
      <trkpt lat="45.97853" lon="4.71233">
        <ele>208</ele>
        <time>2018-09-07T10:28:10Z</time>
      </trkpt>
      <trkpt lat="45.97853" lon="4.71244">
        <ele>208</ele>
        <time>2018-09-07T10:28:11Z</time>
      </trkpt>
      <trkpt lat="45.97853" lon="4.71254">
        <ele>207</ele>
        <time>2018-09-07T10:28:12Z</time>
      </trkpt>
      <trkpt lat="45.97853" lon="4.71266">
        <ele>206</ele>
        <time>2018-09-07T10:28:13Z</time>
      </trkpt>
      <trkpt lat="45.97853" lon="4.71276">
        <ele>206</ele>
        <time>2018-09-07T10:28:14Z</time>
      </trkpt>
      <trkpt lat="45.97853" lon="4.71287">
        <ele>206</ele>
        <time>2018-09-07T10:28:15Z</time>
      </trkpt>
      <trkpt lat="45.97854" lon="4.71297">
        <ele>206</ele>
        <time>2018-09-07T10:28:16Z</time>
      </trkpt>
      <trkpt lat="45.97852" lon="4.71308">
        <ele>205</ele>
        <time>2018-09-07T10:28:17Z</time>
      </trkpt>
      <trkpt lat="45.97852" lon="4.71319">
        <ele>205</ele>
        <time>2018-09-07T10:28:18Z</time>
      </trkpt>
      <trkpt lat="45.97852" lon="4.7133">
        <ele>205</ele>
        <time>2018-09-07T10:28:19Z</time>
      </trkpt>
      <trkpt lat="45.97852" lon="4.7134">
        <ele>204</ele>
        <time>2018-09-07T10:28:20Z</time>
      </trkpt>
      <trkpt lat="45.97851" lon="4.71351">
        <ele>204</ele>
        <time>2018-09-07T10:28:21Z</time>
      </trkpt>
      <trkpt lat="45.97852" lon="4.71363">
        <ele>204</ele>
        <time>2018-09-07T10:28:22Z</time>
      </trkpt>
      <trkpt lat="45.97852" lon="4.71374">
        <ele>203</ele>
        <time>2018-09-07T10:28:23Z</time>
      </trkpt>
      <trkpt lat="45.97852" lon="4.71385">
        <ele>203</ele>
        <time>2018-09-07T10:28:24Z</time>
      </trkpt>
      <trkpt lat="45.97853" lon="4.71396">
        <ele>203</ele>
        <time>2018-09-07T10:28:25Z</time>
      </trkpt>
      <trkpt lat="45.97854" lon="4.71406">
        <ele>203</ele>
        <time>2018-09-07T10:28:26Z</time>
      </trkpt>
      <trkpt lat="45.97856" lon="4.71418">
        <ele>202</ele>
        <time>2018-09-07T10:28:27Z</time>
      </trkpt>
      <trkpt lat="45.97857" lon="4.71428">
        <ele>201</ele>
        <time>2018-09-07T10:28:28Z</time>
      </trkpt>
      <trkpt lat="45.97858" lon="4.71438">
        <ele>201</ele>
        <time>2018-09-07T10:28:29Z</time>
      </trkpt>
      <trkpt lat="45.9786" lon="4.71448">
        <ele>201</ele>
        <time>2018-09-07T10:28:30Z</time>
      </trkpt>
      <trkpt lat="45.97861" lon="4.71459">
        <ele>201</ele>
        <time>2018-09-07T10:28:31Z</time>
      </trkpt>
      <trkpt lat="45.97863" lon="4.71469">
        <ele>201</ele>
        <time>2018-09-07T10:28:32Z</time>
      </trkpt>
      <trkpt lat="45.97865" lon="4.71479">
        <ele>201</ele>
        <time>2018-09-07T10:28:33Z</time>
      </trkpt>
      <trkpt lat="45.97868" lon="4.71491">
        <ele>201</ele>
        <time>2018-09-07T10:28:34Z</time>
      </trkpt>
      <trkpt lat="45.9787" lon="4.71502">
        <ele>199</ele>
        <time>2018-09-07T10:28:35Z</time>
      </trkpt>
      <trkpt lat="45.97872" lon="4.71512">
        <ele>199</ele>
        <time>2018-09-07T10:28:36Z</time>
      </trkpt>
      <trkpt lat="45.97873" lon="4.71523">
        <ele>199</ele>
        <time>2018-09-07T10:28:37Z</time>
      </trkpt>
      <trkpt lat="45.97876" lon="4.71533">
        <ele>199</ele>
        <time>2018-09-07T10:28:38Z</time>
      </trkpt>
      <trkpt lat="45.97877" lon="4.71542">
        <ele>199</ele>
        <time>2018-09-07T10:28:39Z</time>
      </trkpt>
      <trkpt lat="45.9788" lon="4.71553">
        <ele>198</ele>
        <time>2018-09-07T10:28:40Z</time>
      </trkpt>
      <trkpt lat="45.9788" lon="4.71563">
        <ele>198</ele>
        <time>2018-09-07T10:28:41Z</time>
      </trkpt>
      <trkpt lat="45.97881" lon="4.71573">
        <ele>198</ele>
        <time>2018-09-07T10:28:42Z</time>
      </trkpt>
      <trkpt lat="45.97881" lon="4.71583">
        <ele>198</ele>
        <time>2018-09-07T10:28:43Z</time>
      </trkpt>
      <trkpt lat="45.97882" lon="4.71593">
        <ele>197</ele>
        <time>2018-09-07T10:28:44Z</time>
      </trkpt>
      <trkpt lat="45.97882" lon="4.71603">
        <ele>197</ele>
        <time>2018-09-07T10:28:45Z</time>
      </trkpt>
      <trkpt lat="45.97883" lon="4.71613">
        <ele>197</ele>
        <time>2018-09-07T10:28:46Z</time>
      </trkpt>
      <trkpt lat="45.97883" lon="4.71623">
        <ele>197</ele>
        <time>2018-09-07T10:28:47Z</time>
      </trkpt>
      <trkpt lat="45.97882" lon="4.71632">
        <ele>197</ele>
        <time>2018-09-07T10:28:48Z</time>
      </trkpt>
      <trkpt lat="45.97882" lon="4.71642">
        <ele>197</ele>
        <time>2018-09-07T10:28:49Z</time>
      </trkpt>
      <trkpt lat="45.9788" lon="4.71651">
        <ele>197</ele>
        <time>2018-09-07T10:28:50Z</time>
      </trkpt>
      <trkpt lat="45.97878" lon="4.71661">
        <ele>197</ele>
        <time>2018-09-07T10:28:51Z</time>
      </trkpt>
      <trkpt lat="45.97875" lon="4.71669">
        <ele>196</ele>
        <time>2018-09-07T10:28:52Z</time>
      </trkpt>
      <trkpt lat="45.97874" lon="4.71677">
        <ele>196</ele>
        <time>2018-09-07T10:28:53Z</time>
      </trkpt>
      <trkpt lat="45.97872" lon="4.71685">
        <ele>196</ele>
        <time>2018-09-07T10:28:54Z</time>
      </trkpt>
      <trkpt lat="45.9787" lon="4.71694">
        <ele>196</ele>
        <time>2018-09-07T10:28:55Z</time>
      </trkpt>
      <trkpt lat="45.97869" lon="4.71701">
        <ele>196</ele>
        <time>2018-09-07T10:28:56Z</time>
      </trkpt>
      <trkpt lat="45.97867" lon="4.71709">
        <ele>196</ele>
        <time>2018-09-07T10:28:57Z</time>
      </trkpt>
      <trkpt lat="45.97864" lon="4.71715">
        <ele>196</ele>
        <time>2018-09-07T10:28:58Z</time>
      </trkpt>
      <trkpt lat="45.97861" lon="4.7172">
        <ele>196</ele>
        <time>2018-09-07T10:28:59Z</time>
      </trkpt>
      <trkpt lat="45.97857" lon="4.71725">
        <ele>196</ele>
        <time>2018-09-07T10:29:00Z</time>
      </trkpt>
      <trkpt lat="45.97854" lon="4.71731">
        <ele>196</ele>
        <time>2018-09-07T10:29:01Z</time>
      </trkpt>
      <trkpt lat="45.97851" lon="4.71737">
        <ele>196</ele>
        <time>2018-09-07T10:29:02Z</time>
      </trkpt>
      <trkpt lat="45.97846" lon="4.71738">
        <ele>195</ele>
        <time>2018-09-07T10:29:03Z</time>
      </trkpt>
      <trkpt lat="45.97841" lon="4.71742">
        <ele>195</ele>
        <time>2018-09-07T10:29:04Z</time>
      </trkpt>
      <trkpt lat="45.97839" lon="4.71741">
        <ele>195</ele>
        <time>2018-09-07T10:29:05Z</time>
      </trkpt>
      <trkpt lat="45.97831" lon="4.71741">
        <ele>195</ele>
        <time>2018-09-07T10:29:06Z</time>
      </trkpt>
      <trkpt lat="45.97825" lon="4.7174">
        <ele>196</ele>
        <time>2018-09-07T10:29:07Z</time>
      </trkpt>
      <trkpt lat="45.9782" lon="4.7174">
        <ele>196</ele>
        <time>2018-09-07T10:29:08Z</time>
      </trkpt>
      <trkpt lat="45.97814" lon="4.7174">
        <ele>196</ele>
        <time>2018-09-07T10:29:09Z</time>
      </trkpt>
      <trkpt lat="45.97807" lon="4.7174">
        <ele>196</ele>
        <time>2018-09-07T10:29:10Z</time>
      </trkpt>
      <trkpt lat="45.97802" lon="4.7174">
        <ele>196</ele>
        <time>2018-09-07T10:29:11Z</time>
      </trkpt>
      <trkpt lat="45.97795" lon="4.71738">
        <ele>196</ele>
        <time>2018-09-07T10:29:12Z</time>
      </trkpt>
      <trkpt lat="45.97789" lon="4.71738">
        <ele>196</ele>
        <time>2018-09-07T10:29:13Z</time>
      </trkpt>
      <trkpt lat="45.97784" lon="4.71737">
        <ele>196</ele>
        <time>2018-09-07T10:29:14Z</time>
      </trkpt>
      <trkpt lat="45.97779" lon="4.71737">
        <ele>196</ele>
        <time>2018-09-07T10:29:15Z</time>
      </trkpt>
      <trkpt lat="45.97773" lon="4.71737">
        <ele>196</ele>
        <time>2018-09-07T10:29:16Z</time>
      </trkpt>
      <trkpt lat="45.97768" lon="4.71736">
        <ele>196</ele>
        <time>2018-09-07T10:29:17Z</time>
      </trkpt>
      <trkpt lat="45.97763" lon="4.71736">
        <ele>196</ele>
        <time>2018-09-07T10:29:18Z</time>
      </trkpt>
      <trkpt lat="45.97757" lon="4.71734">
        <ele>196</ele>
        <time>2018-09-07T10:29:19Z</time>
      </trkpt>
      <trkpt lat="45.97751" lon="4.71732">
        <ele>196</ele>
        <time>2018-09-07T10:29:20Z</time>
      </trkpt>
      <trkpt lat="45.97745" lon="4.71733">
        <ele>196</ele>
        <time>2018-09-07T10:29:21Z</time>
      </trkpt>
      <trkpt lat="45.97739" lon="4.71732">
        <ele>196</ele>
        <time>2018-09-07T10:29:22Z</time>
      </trkpt>
      <trkpt lat="45.97733" lon="4.71731">
        <ele>196</ele>
        <time>2018-09-07T10:29:23Z</time>
      </trkpt>
      <trkpt lat="45.97727" lon="4.7173">
        <ele>196</ele>
        <time>2018-09-07T10:29:24Z</time>
      </trkpt>
      <trkpt lat="45.97722" lon="4.71732">
        <ele>196</ele>
        <time>2018-09-07T10:29:25Z</time>
      </trkpt>
      <trkpt lat="45.97717" lon="4.71731">
        <ele>196</ele>
        <time>2018-09-07T10:29:26Z</time>
      </trkpt>
      <trkpt lat="45.97712" lon="4.7173">
        <ele>196</ele>
        <time>2018-09-07T10:29:27Z</time>
      </trkpt>
      <trkpt lat="45.97706" lon="4.7173">
        <ele>196</ele>
        <time>2018-09-07T10:29:28Z</time>
      </trkpt>
      <trkpt lat="45.97699" lon="4.71729">
        <ele>196</ele>
        <time>2018-09-07T10:29:29Z</time>
      </trkpt>
      <trkpt lat="45.97695" lon="4.71729">
        <ele>196</ele>
        <time>2018-09-07T10:29:30Z</time>
      </trkpt>
      <trkpt lat="45.97687" lon="4.71728">
        <ele>196</ele>
        <time>2018-09-07T10:29:31Z</time>
      </trkpt>
      <trkpt lat="45.97682" lon="4.71727">
        <ele>196</ele>
        <time>2018-09-07T10:29:32Z</time>
      </trkpt>
      <trkpt lat="45.97676" lon="4.71728">
        <ele>196</ele>
        <time>2018-09-07T10:29:33Z</time>
      </trkpt>
      <trkpt lat="45.97672" lon="4.71726">
        <ele>196</ele>
        <time>2018-09-07T10:29:34Z</time>
      </trkpt>
      <trkpt lat="45.97668" lon="4.71726">
        <ele>196</ele>
        <time>2018-09-07T10:29:35Z</time>
      </trkpt>
      <trkpt lat="45.97662" lon="4.71725">
        <ele>196</ele>
        <time>2018-09-07T10:29:36Z</time>
      </trkpt>
      <trkpt lat="45.97656" lon="4.71724">
        <ele>196</ele>
        <time>2018-09-07T10:29:37Z</time>
      </trkpt>
      <trkpt lat="45.9765" lon="4.71723">
        <ele>196</ele>
        <time>2018-09-07T10:29:38Z</time>
      </trkpt>
      <trkpt lat="45.97645" lon="4.7172">
        <ele>196</ele>
        <time>2018-09-07T10:29:40Z</time>
      </trkpt>
      <trkpt lat="45.97639" lon="4.71716">
        <ele>197</ele>
        <time>2018-09-07T10:29:41Z</time>
      </trkpt>
      <trkpt lat="45.97632" lon="4.71709">
        <ele>197</ele>
        <time>2018-09-07T10:29:43Z</time>
      </trkpt>
      <trkpt lat="45.97626" lon="4.71707">
        <ele>197</ele>
        <time>2018-09-07T10:29:44Z</time>
      </trkpt>
      <trkpt lat="45.9762" lon="4.71706">
        <ele>197</ele>
        <time>2018-09-07T10:29:45Z</time>
      </trkpt>
      <trkpt lat="45.97614" lon="4.71707">
        <ele>197</ele>
        <time>2018-09-07T10:29:46Z</time>
      </trkpt>
      <trkpt lat="45.9761" lon="4.71708">
        <ele>197</ele>
        <time>2018-09-07T10:29:47Z</time>
      </trkpt>
      <trkpt lat="45.97604" lon="4.71711">
        <ele>197</ele>
        <time>2018-09-07T10:29:48Z</time>
      </trkpt>
      <trkpt lat="45.97597" lon="4.71714">
        <ele>197</ele>
        <time>2018-09-07T10:29:49Z</time>
      </trkpt>
      <trkpt lat="45.97591" lon="4.71716">
        <ele>197</ele>
        <time>2018-09-07T10:29:50Z</time>
      </trkpt>
      <trkpt lat="45.97587" lon="4.71718">
        <ele>197</ele>
        <time>2018-09-07T10:29:51Z</time>
      </trkpt>
      <trkpt lat="45.9758" lon="4.71716">
        <ele>198</ele>
        <time>2018-09-07T10:29:52Z</time>
      </trkpt>
      <trkpt lat="45.97574" lon="4.71716">
        <ele>198</ele>
        <time>2018-09-07T10:29:53Z</time>
      </trkpt>
      <trkpt lat="45.97568" lon="4.71717">
        <ele>198</ele>
        <time>2018-09-07T10:29:54Z</time>
      </trkpt>
      <trkpt lat="45.97561" lon="4.71717">
        <ele>198</ele>
        <time>2018-09-07T10:29:55Z</time>
      </trkpt>
      <trkpt lat="45.97558" lon="4.71717">
        <ele>198</ele>
        <time>2018-09-07T10:29:56Z</time>
      </trkpt>
      <trkpt lat="45.97549" lon="4.71717">
        <ele>198</ele>
        <time>2018-09-07T10:29:57Z</time>
      </trkpt>
      <trkpt lat="45.97545" lon="4.71718">
        <ele>198</ele>
        <time>2018-09-07T10:29:58Z</time>
      </trkpt>
      <trkpt lat="45.9754" lon="4.71717">
        <ele>198</ele>
        <time>2018-09-07T10:29:59Z</time>
      </trkpt>
      <trkpt lat="45.97535" lon="4.71717">
        <ele>198</ele>
        <time>2018-09-07T10:30:00Z</time>
      </trkpt>
      <trkpt lat="45.97527" lon="4.71714">
        <ele>198</ele>
        <time>2018-09-07T10:30:02Z</time>
      </trkpt>
      <trkpt lat="45.97523" lon="4.71713">
        <ele>199</ele>
        <time>2018-09-07T10:30:03Z</time>
      </trkpt>
      <trkpt lat="45.97517" lon="4.71714">
        <ele>198</ele>
        <time>2018-09-07T10:30:04Z</time>
      </trkpt>
      <trkpt lat="45.97513" lon="4.71714">
        <ele>199</ele>
        <time>2018-09-07T10:30:05Z</time>
      </trkpt>
      <trkpt lat="45.97507" lon="4.71713">
        <ele>199</ele>
        <time>2018-09-07T10:30:06Z</time>
      </trkpt>
      <trkpt lat="45.97502" lon="4.71714">
        <ele>199</ele>
        <time>2018-09-07T10:30:07Z</time>
      </trkpt>
      <trkpt lat="45.97497" lon="4.71714">
        <ele>198</ele>
        <time>2018-09-07T10:30:08Z</time>
      </trkpt>
      <trkpt lat="45.97492" lon="4.71713">
        <ele>198</ele>
        <time>2018-09-07T10:30:09Z</time>
      </trkpt>
      <trkpt lat="45.97488" lon="4.71714">
        <ele>198</ele>
        <time>2018-09-07T10:30:10Z</time>
      </trkpt>
      <trkpt lat="45.97483" lon="4.71713">
        <ele>198</ele>
        <time>2018-09-07T10:30:11Z</time>
      </trkpt>
      <trkpt lat="45.97478" lon="4.71713">
        <ele>198</ele>
        <time>2018-09-07T10:30:12Z</time>
      </trkpt>
      <trkpt lat="45.97474" lon="4.71711">
        <ele>198</ele>
        <time>2018-09-07T10:30:13Z</time>
      </trkpt>
      <trkpt lat="45.9747" lon="4.71712">
        <ele>197</ele>
        <time>2018-09-07T10:30:14Z</time>
      </trkpt>
      <trkpt lat="45.97464" lon="4.71711">
        <ele>197</ele>
        <time>2018-09-07T10:30:15Z</time>
      </trkpt>
      <trkpt lat="45.97458" lon="4.71711">
        <ele>197</ele>
        <time>2018-09-07T10:30:16Z</time>
      </trkpt>
      <trkpt lat="45.97453" lon="4.71711">
        <ele>197</ele>
        <time>2018-09-07T10:30:17Z</time>
      </trkpt>
      <trkpt lat="45.97448" lon="4.7171">
        <ele>197</ele>
        <time>2018-09-07T10:30:18Z</time>
      </trkpt>
      <trkpt lat="45.97443" lon="4.7171">
        <ele>197</ele>
        <time>2018-09-07T10:30:19Z</time>
      </trkpt>
      <trkpt lat="45.97437" lon="4.71709">
        <ele>197</ele>
        <time>2018-09-07T10:30:20Z</time>
      </trkpt>
      <trkpt lat="45.97433" lon="4.71709">
        <ele>197</ele>
        <time>2018-09-07T10:30:21Z</time>
      </trkpt>
      <trkpt lat="45.97428" lon="4.71709">
        <ele>197</ele>
        <time>2018-09-07T10:30:22Z</time>
      </trkpt>
      <trkpt lat="45.97423" lon="4.71709">
        <ele>196</ele>
        <time>2018-09-07T10:30:23Z</time>
      </trkpt>
      <trkpt lat="45.97417" lon="4.71709">
        <ele>196</ele>
        <time>2018-09-07T10:30:24Z</time>
      </trkpt>
      <trkpt lat="45.97412" lon="4.71708">
        <ele>195</ele>
        <time>2018-09-07T10:30:25Z</time>
      </trkpt>
      <trkpt lat="45.97407" lon="4.71707">
        <ele>195</ele>
        <time>2018-09-07T10:30:26Z</time>
      </trkpt>
      <trkpt lat="45.97402" lon="4.71706">
        <ele>195</ele>
        <time>2018-09-07T10:30:27Z</time>
      </trkpt>
      <trkpt lat="45.97397" lon="4.71706">
        <ele>195</ele>
        <time>2018-09-07T10:30:28Z</time>
      </trkpt>
      <trkpt lat="45.97392" lon="4.71705">
        <ele>195</ele>
        <time>2018-09-07T10:30:29Z</time>
      </trkpt>
      <trkpt lat="45.97387" lon="4.71705">
        <ele>195</ele>
        <time>2018-09-07T10:30:30Z</time>
      </trkpt>
      <trkpt lat="45.97382" lon="4.71706">
        <ele>195</ele>
        <time>2018-09-07T10:30:31Z</time>
      </trkpt>
      <trkpt lat="45.97374" lon="4.71704">
        <ele>195</ele>
        <time>2018-09-07T10:30:33Z</time>
      </trkpt>
      <trkpt lat="45.97369" lon="4.71704">
        <ele>195</ele>
        <time>2018-09-07T10:30:34Z</time>
      </trkpt>
      <trkpt lat="45.97364" lon="4.71704">
        <ele>195</ele>
        <time>2018-09-07T10:30:35Z</time>
      </trkpt>
      <trkpt lat="45.97357" lon="4.71705">
        <ele>195</ele>
        <time>2018-09-07T10:30:36Z</time>
      </trkpt>
      <trkpt lat="45.97351" lon="4.71704">
        <ele>195</ele>
        <time>2018-09-07T10:30:37Z</time>
      </trkpt>
      <trkpt lat="45.97346" lon="4.71703">
        <ele>195</ele>
        <time>2018-09-07T10:30:38Z</time>
      </trkpt>
      <trkpt lat="45.9734" lon="4.71703">
        <ele>195</ele>
        <time>2018-09-07T10:30:39Z</time>
      </trkpt>
      <trkpt lat="45.97334" lon="4.71703">
        <ele>195</ele>
        <time>2018-09-07T10:30:40Z</time>
      </trkpt>
      <trkpt lat="45.97326" lon="4.717">
        <ele>196</ele>
        <time>2018-09-07T10:30:42Z</time>
      </trkpt>
      <trkpt lat="45.97325" lon="4.717">
        <ele>196</ele>
        <time>2018-09-07T10:30:43Z</time>
      </trkpt>
      <trkpt lat="45.97318" lon="4.71694">
        <ele>196</ele>
        <time>2018-09-07T10:30:45Z</time>
      </trkpt>
      <trkpt lat="45.97314" lon="4.71691">
        <ele>196</ele>
        <time>2018-09-07T10:30:46Z</time>
      </trkpt>
      <trkpt lat="45.97311" lon="4.71688">
        <ele>196</ele>
        <time>2018-09-07T10:30:48Z</time>
      </trkpt>
      <trkpt lat="45.97302" lon="4.71687">
        <ele>197</ele>
        <time>2018-09-07T10:30:49Z</time>
      </trkpt>
      <trkpt lat="45.97299" lon="4.71689">
        <ele>197</ele>
        <time>2018-09-07T10:30:50Z</time>
      </trkpt>
      <trkpt lat="45.97293" lon="4.71692">
        <ele>197</ele>
        <time>2018-09-07T10:30:51Z</time>
      </trkpt>
      <trkpt lat="45.97289" lon="4.71695">
        <ele>197</ele>
        <time>2018-09-07T10:30:52Z</time>
      </trkpt>
      <trkpt lat="45.97284" lon="4.71698">
        <ele>197</ele>
        <time>2018-09-07T10:30:53Z</time>
      </trkpt>
      <trkpt lat="45.97276" lon="4.71699">
        <ele>197</ele>
        <time>2018-09-07T10:30:55Z</time>
      </trkpt>
      <trkpt lat="45.9727" lon="4.71697">
        <ele>197</ele>
        <time>2018-09-07T10:30:56Z</time>
      </trkpt>
      <trkpt lat="45.97266" lon="4.71695">
        <ele>197</ele>
        <time>2018-09-07T10:30:57Z</time>
      </trkpt>
      <trkpt lat="45.9726" lon="4.71694">
        <ele>197</ele>
        <time>2018-09-07T10:30:58Z</time>
      </trkpt>
      <trkpt lat="45.97252" lon="4.71694">
        <ele>197</ele>
        <time>2018-09-07T10:30:59Z</time>
      </trkpt>
      <trkpt lat="45.97247" lon="4.71693">
        <ele>197</ele>
        <time>2018-09-07T10:31:00Z</time>
      </trkpt>
      <trkpt lat="45.97242" lon="4.71692">
        <ele>197</ele>
        <time>2018-09-07T10:31:01Z</time>
      </trkpt>
      <trkpt lat="45.97235" lon="4.71692">
        <ele>197</ele>
        <time>2018-09-07T10:31:02Z</time>
      </trkpt>
      <trkpt lat="45.97228" lon="4.71692">
        <ele>197</ele>
        <time>2018-09-07T10:31:03Z</time>
      </trkpt>
      <trkpt lat="45.97221" lon="4.7169">
        <ele>197</ele>
        <time>2018-09-07T10:31:04Z</time>
      </trkpt>
      <trkpt lat="45.97214" lon="4.7169">
        <ele>197</ele>
        <time>2018-09-07T10:31:05Z</time>
      </trkpt>
      <trkpt lat="45.97208" lon="4.71689">
        <ele>197</ele>
        <time>2018-09-07T10:31:06Z</time>
      </trkpt>
      <trkpt lat="45.972" lon="4.71691">
        <ele>197</ele>
        <time>2018-09-07T10:31:07Z</time>
      </trkpt>
      <trkpt lat="45.97195" lon="4.71691">
        <ele>197</ele>
        <time>2018-09-07T10:31:08Z</time>
      </trkpt>
      <trkpt lat="45.97188" lon="4.7169">
        <ele>197</ele>
        <time>2018-09-07T10:31:09Z</time>
      </trkpt>
      <trkpt lat="45.97181" lon="4.71689">
        <ele>197</ele>
        <time>2018-09-07T10:31:10Z</time>
      </trkpt>
      <trkpt lat="45.97175" lon="4.71689">
        <ele>197</ele>
        <time>2018-09-07T10:31:11Z</time>
      </trkpt>
      <trkpt lat="45.9717" lon="4.71689">
        <ele>197</ele>
        <time>2018-09-07T10:31:12Z</time>
      </trkpt>
      <trkpt lat="45.97164" lon="4.71689">
        <ele>196</ele>
        <time>2018-09-07T10:31:13Z</time>
      </trkpt>
      <trkpt lat="45.97156" lon="4.71685">
        <ele>196</ele>
        <time>2018-09-07T10:31:14Z</time>
      </trkpt>
      <trkpt lat="45.97147" lon="4.71686">
        <ele>195</ele>
        <time>2018-09-07T10:31:15Z</time>
      </trkpt>
      <trkpt lat="45.9714" lon="4.71685">
        <ele>195</ele>
        <time>2018-09-07T10:31:16Z</time>
      </trkpt>
      <trkpt lat="45.97134" lon="4.71684">
        <ele>195</ele>
        <time>2018-09-07T10:31:17Z</time>
      </trkpt>
      <trkpt lat="45.97127" lon="4.71683">
        <ele>195</ele>
        <time>2018-09-07T10:31:18Z</time>
      </trkpt>
      <trkpt lat="45.97122" lon="4.71683">
        <ele>195</ele>
        <time>2018-09-07T10:31:19Z</time>
      </trkpt>
      <trkpt lat="45.97114" lon="4.71683">
        <ele>194</ele>
        <time>2018-09-07T10:31:20Z</time>
      </trkpt>
      <trkpt lat="45.97108" lon="4.71684">
        <ele>194</ele>
        <time>2018-09-07T10:31:21Z</time>
      </trkpt>
      <trkpt lat="45.97103" lon="4.71682">
        <ele>194</ele>
        <time>2018-09-07T10:31:22Z</time>
      </trkpt>
      <trkpt lat="45.97096" lon="4.71681">
        <ele>194</ele>
        <time>2018-09-07T10:31:23Z</time>
      </trkpt>
      <trkpt lat="45.9709" lon="4.71681">
        <ele>194</ele>
        <time>2018-09-07T10:31:24Z</time>
      </trkpt>
      <trkpt lat="45.97083" lon="4.7168">
        <ele>194</ele>
        <time>2018-09-07T10:31:25Z</time>
      </trkpt>
      <trkpt lat="45.97076" lon="4.71681">
        <ele>194</ele>
        <time>2018-09-07T10:31:26Z</time>
      </trkpt>
      <trkpt lat="45.97071" lon="4.71679">
        <ele>193</ele>
        <time>2018-09-07T10:31:27Z</time>
      </trkpt>
      <trkpt lat="45.97065" lon="4.71678">
        <ele>193</ele>
        <time>2018-09-07T10:31:28Z</time>
      </trkpt>
      <trkpt lat="45.9706" lon="4.71675">
        <ele>193</ele>
        <time>2018-09-07T10:31:29Z</time>
      </trkpt>
      <trkpt lat="45.97055" lon="4.71674">
        <ele>193</ele>
        <time>2018-09-07T10:31:30Z</time>
      </trkpt>
      <trkpt lat="45.97047" lon="4.71674">
        <ele>193</ele>
        <time>2018-09-07T10:31:31Z</time>
      </trkpt>
      <trkpt lat="45.97042" lon="4.71672">
        <ele>193</ele>
        <time>2018-09-07T10:31:32Z</time>
      </trkpt>
      <trkpt lat="45.97036" lon="4.71672">
        <ele>193</ele>
        <time>2018-09-07T10:31:33Z</time>
      </trkpt>
      <trkpt lat="45.9703" lon="4.71672">
        <ele>193</ele>
        <time>2018-09-07T10:31:34Z</time>
      </trkpt>
      <trkpt lat="45.97024" lon="4.71671">
        <ele>193</ele>
        <time>2018-09-07T10:31:35Z</time>
      </trkpt>
      <trkpt lat="45.97016" lon="4.71671">
        <ele>193</ele>
        <time>2018-09-07T10:31:36Z</time>
      </trkpt>
      <trkpt lat="45.97008" lon="4.71672">
        <ele>193</ele>
        <time>2018-09-07T10:31:37Z</time>
      </trkpt>
      <trkpt lat="45.97001" lon="4.71672">
        <ele>194</ele>
        <time>2018-09-07T10:31:38Z</time>
      </trkpt>
      <trkpt lat="45.96994" lon="4.71673">
        <ele>193</ele>
        <time>2018-09-07T10:31:39Z</time>
      </trkpt>
      <trkpt lat="45.96986" lon="4.71673">
        <ele>193</ele>
        <time>2018-09-07T10:31:40Z</time>
      </trkpt>
      <trkpt lat="45.96979" lon="4.71673">
        <ele>192</ele>
        <time>2018-09-07T10:31:41Z</time>
      </trkpt>
      <trkpt lat="45.96972" lon="4.71671">
        <ele>192</ele>
        <time>2018-09-07T10:31:42Z</time>
      </trkpt>
      <trkpt lat="45.96965" lon="4.7167">
        <ele>192</ele>
        <time>2018-09-07T10:31:43Z</time>
      </trkpt>
      <trkpt lat="45.96958" lon="4.7167">
        <ele>192</ele>
        <time>2018-09-07T10:31:44Z</time>
      </trkpt>
      <trkpt lat="45.96951" lon="4.7167">
        <ele>192</ele>
        <time>2018-09-07T10:31:45Z</time>
      </trkpt>
      <trkpt lat="45.96944" lon="4.71669">
        <ele>192</ele>
        <time>2018-09-07T10:31:46Z</time>
      </trkpt>
      <trkpt lat="45.96936" lon="4.71667">
        <ele>195</ele>
        <time>2018-09-07T10:31:47Z</time>
      </trkpt>
      <trkpt lat="45.9693" lon="4.71664">
        <ele>195</ele>
        <time>2018-09-07T10:31:48Z</time>
      </trkpt>
      <trkpt lat="45.96926" lon="4.71665">
        <ele>195</ele>
        <time>2018-09-07T10:31:49Z</time>
      </trkpt>
      <trkpt lat="45.96919" lon="4.71665">
        <ele>195</ele>
        <time>2018-09-07T10:31:50Z</time>
      </trkpt>
      <trkpt lat="45.96914" lon="4.71664">
        <ele>195</ele>
        <time>2018-09-07T10:31:51Z</time>
      </trkpt>
      <trkpt lat="45.96907" lon="4.71663">
        <ele>195</ele>
        <time>2018-09-07T10:31:52Z</time>
      </trkpt>
      <trkpt lat="45.96898" lon="4.71663">
        <ele>195</ele>
        <time>2018-09-07T10:31:53Z</time>
      </trkpt>
      <trkpt lat="45.9689" lon="4.71663">
        <ele>195</ele>
        <time>2018-09-07T10:31:54Z</time>
      </trkpt>
      <trkpt lat="45.96883" lon="4.71663">
        <ele>195</ele>
        <time>2018-09-07T10:31:55Z</time>
      </trkpt>
      <trkpt lat="45.96876" lon="4.71662">
        <ele>195</ele>
        <time>2018-09-07T10:31:56Z</time>
      </trkpt>
      <trkpt lat="45.9687" lon="4.71661">
        <ele>195</ele>
        <time>2018-09-07T10:31:57Z</time>
      </trkpt>
      <trkpt lat="45.96863" lon="4.7166">
        <ele>195</ele>
        <time>2018-09-07T10:31:58Z</time>
      </trkpt>
      <trkpt lat="45.96856" lon="4.71659">
        <ele>194</ele>
        <time>2018-09-07T10:31:59Z</time>
      </trkpt>
      <trkpt lat="45.96849" lon="4.71658">
        <ele>194</ele>
        <time>2018-09-07T10:32:00Z</time>
      </trkpt>
      <trkpt lat="45.96841" lon="4.71658">
        <ele>193</ele>
        <time>2018-09-07T10:32:01Z</time>
      </trkpt>
      <trkpt lat="45.96835" lon="4.71656">
        <ele>193</ele>
        <time>2018-09-07T10:32:02Z</time>
      </trkpt>
      <trkpt lat="45.96829" lon="4.71655">
        <ele>193</ele>
        <time>2018-09-07T10:32:03Z</time>
      </trkpt>
      <trkpt lat="45.96821" lon="4.71654">
        <ele>193</ele>
        <time>2018-09-07T10:32:04Z</time>
      </trkpt>
      <trkpt lat="45.96814" lon="4.71653">
        <ele>193</ele>
        <time>2018-09-07T10:32:05Z</time>
      </trkpt>
      <trkpt lat="45.96807" lon="4.71652">
        <ele>193</ele>
        <time>2018-09-07T10:32:06Z</time>
      </trkpt>
      <trkpt lat="45.96801" lon="4.71651">
        <ele>193</ele>
        <time>2018-09-07T10:32:07Z</time>
      </trkpt>
      <trkpt lat="45.96794" lon="4.7165">
        <ele>193</ele>
        <time>2018-09-07T10:32:08Z</time>
      </trkpt>
      <trkpt lat="45.96788" lon="4.71649">
        <ele>192</ele>
        <time>2018-09-07T10:32:09Z</time>
      </trkpt>
      <trkpt lat="45.96782" lon="4.71647">
        <ele>192</ele>
        <time>2018-09-07T10:32:10Z</time>
      </trkpt>
      <trkpt lat="45.96774" lon="4.71646">
        <ele>192</ele>
        <time>2018-09-07T10:32:11Z</time>
      </trkpt>
      <trkpt lat="45.96766" lon="4.71645">
        <ele>192</ele>
        <time>2018-09-07T10:32:12Z</time>
      </trkpt>
      <trkpt lat="45.96759" lon="4.71643">
        <ele>192</ele>
        <time>2018-09-07T10:32:13Z</time>
      </trkpt>
      <trkpt lat="45.96751" lon="4.71642">
        <ele>192</ele>
        <time>2018-09-07T10:32:14Z</time>
      </trkpt>
      <trkpt lat="45.96742" lon="4.71642">
        <ele>190</ele>
        <time>2018-09-07T10:32:15Z</time>
      </trkpt>
      <trkpt lat="45.96735" lon="4.7164">
        <ele>190</ele>
        <time>2018-09-07T10:32:16Z</time>
      </trkpt>
      <trkpt lat="45.96728" lon="4.7164">
        <ele>190</ele>
        <time>2018-09-07T10:32:17Z</time>
      </trkpt>
      <trkpt lat="45.9672" lon="4.71638">
        <ele>190</ele>
        <time>2018-09-07T10:32:18Z</time>
      </trkpt>
      <trkpt lat="45.96713" lon="4.71638">
        <ele>190</ele>
        <time>2018-09-07T10:32:19Z</time>
      </trkpt>
      <trkpt lat="45.96705" lon="4.71637">
        <ele>190</ele>
        <time>2018-09-07T10:32:20Z</time>
      </trkpt>
      <trkpt lat="45.96698" lon="4.71636">
        <ele>190</ele>
        <time>2018-09-07T10:32:21Z</time>
      </trkpt>
      <trkpt lat="45.96691" lon="4.71634">
        <ele>190</ele>
        <time>2018-09-07T10:32:22Z</time>
      </trkpt>
      <trkpt lat="45.96684" lon="4.71633">
        <ele>190</ele>
        <time>2018-09-07T10:32:23Z</time>
      </trkpt>
      <trkpt lat="45.96676" lon="4.71632">
        <ele>190</ele>
        <time>2018-09-07T10:32:24Z</time>
      </trkpt>
      <trkpt lat="45.96669" lon="4.7163">
        <ele>190</ele>
        <time>2018-09-07T10:32:25Z</time>
      </trkpt>
      <trkpt lat="45.96661" lon="4.7163">
        <ele>188</ele>
        <time>2018-09-07T10:32:26Z</time>
      </trkpt>
      <trkpt lat="45.96655" lon="4.71628">
        <ele>188</ele>
        <time>2018-09-07T10:32:27Z</time>
      </trkpt>
      <trkpt lat="45.96647" lon="4.71627">
        <ele>188</ele>
        <time>2018-09-07T10:32:28Z</time>
      </trkpt>
      <trkpt lat="45.9664" lon="4.71626">
        <ele>188</ele>
        <time>2018-09-07T10:32:29Z</time>
      </trkpt>
      <trkpt lat="45.96633" lon="4.71626">
        <ele>188</ele>
        <time>2018-09-07T10:32:30Z</time>
      </trkpt>
      <trkpt lat="45.96626" lon="4.71625">
        <ele>188</ele>
        <time>2018-09-07T10:32:31Z</time>
      </trkpt>
      <trkpt lat="45.96619" lon="4.71624">
        <ele>188</ele>
        <time>2018-09-07T10:32:32Z</time>
      </trkpt>
      <trkpt lat="45.96612" lon="4.71623">
        <ele>188</ele>
        <time>2018-09-07T10:32:33Z</time>
      </trkpt>
      <trkpt lat="45.96604" lon="4.71622">
        <ele>187</ele>
        <time>2018-09-07T10:32:34Z</time>
      </trkpt>
      <trkpt lat="45.96596" lon="4.71621">
        <ele>187</ele>
        <time>2018-09-07T10:32:35Z</time>
      </trkpt>
      <trkpt lat="45.96589" lon="4.7162">
        <ele>187</ele>
        <time>2018-09-07T10:32:36Z</time>
      </trkpt>
      <trkpt lat="45.96582" lon="4.71619">
        <ele>185</ele>
        <time>2018-09-07T10:32:37Z</time>
      </trkpt>
      <trkpt lat="45.96577" lon="4.71617">
        <ele>185</ele>
        <time>2018-09-07T10:32:38Z</time>
      </trkpt>
      <trkpt lat="45.96571" lon="4.71616">
        <ele>185</ele>
        <time>2018-09-07T10:32:39Z</time>
      </trkpt>
      <trkpt lat="45.96564" lon="4.71616">
        <ele>185</ele>
        <time>2018-09-07T10:32:40Z</time>
      </trkpt>
      <trkpt lat="45.96557" lon="4.71614">
        <ele>185</ele>
        <time>2018-09-07T10:32:41Z</time>
      </trkpt>
      <trkpt lat="45.96551" lon="4.71612">
        <ele>185</ele>
        <time>2018-09-07T10:32:42Z</time>
      </trkpt>
      <trkpt lat="45.96546" lon="4.71607">
        <ele>185</ele>
        <time>2018-09-07T10:32:43Z</time>
      </trkpt>
      <trkpt lat="45.96542" lon="4.71602">
        <ele>185</ele>
        <time>2018-09-07T10:32:44Z</time>
      </trkpt>
      <trkpt lat="45.96536" lon="4.71598">
        <ele>185</ele>
        <time>2018-09-07T10:32:45Z</time>
      </trkpt>
      <trkpt lat="45.96531" lon="4.71595">
        <ele>185</ele>
        <time>2018-09-07T10:32:46Z</time>
      </trkpt>
      <trkpt lat="45.96524" lon="4.71597">
        <ele>185</ele>
        <time>2018-09-07T10:32:47Z</time>
      </trkpt>
      <trkpt lat="45.96514" lon="4.71602">
        <ele>185</ele>
        <time>2018-09-07T10:32:48Z</time>
      </trkpt>
      <trkpt lat="45.96508" lon="4.71604">
        <ele>184</ele>
        <time>2018-09-07T10:32:49Z</time>
      </trkpt>
      <trkpt lat="45.96502" lon="4.71604">
        <ele>184</ele>
        <time>2018-09-07T10:32:50Z</time>
      </trkpt>
      <trkpt lat="45.96493" lon="4.71602">
        <ele>184</ele>
        <time>2018-09-07T10:32:51Z</time>
      </trkpt>
      <trkpt lat="45.96487" lon="4.71601">
        <ele>184</ele>
        <time>2018-09-07T10:32:52Z</time>
      </trkpt>
      <trkpt lat="45.9648" lon="4.71599">
        <ele>183</ele>
        <time>2018-09-07T10:32:53Z</time>
      </trkpt>
      <trkpt lat="45.96474" lon="4.71599">
        <ele>183</ele>
        <time>2018-09-07T10:32:54Z</time>
      </trkpt>
      <trkpt lat="45.96467" lon="4.71597">
        <ele>183</ele>
        <time>2018-09-07T10:32:55Z</time>
      </trkpt>
      <trkpt lat="45.96461" lon="4.71596">
        <ele>183</ele>
        <time>2018-09-07T10:32:56Z</time>
      </trkpt>
      <trkpt lat="45.96455" lon="4.71595">
        <ele>183</ele>
        <time>2018-09-07T10:32:57Z</time>
      </trkpt>
      <trkpt lat="45.96448" lon="4.71594">
        <ele>183</ele>
        <time>2018-09-07T10:32:58Z</time>
      </trkpt>
      <trkpt lat="45.96442" lon="4.71593">
        <ele>183</ele>
        <time>2018-09-07T10:32:59Z</time>
      </trkpt>
      <trkpt lat="45.96433" lon="4.71594">
        <ele>184</ele>
        <time>2018-09-07T10:33:00Z</time>
      </trkpt>
      <trkpt lat="45.96427" lon="4.71593">
        <ele>184</ele>
        <time>2018-09-07T10:33:01Z</time>
      </trkpt>
      <trkpt lat="45.9642" lon="4.71593">
        <ele>184</ele>
        <time>2018-09-07T10:33:02Z</time>
      </trkpt>
      <trkpt lat="45.96411" lon="4.71592">
        <ele>184</ele>
        <time>2018-09-07T10:33:03Z</time>
      </trkpt>
      <trkpt lat="45.96404" lon="4.71592">
        <ele>183</ele>
        <time>2018-09-07T10:33:04Z</time>
      </trkpt>
      <trkpt lat="45.96398" lon="4.7159">
        <ele>183</ele>
        <time>2018-09-07T10:33:05Z</time>
      </trkpt>
      <trkpt lat="45.9639" lon="4.71589">
        <ele>183</ele>
        <time>2018-09-07T10:33:06Z</time>
      </trkpt>
      <trkpt lat="45.96383" lon="4.71588">
        <ele>183</ele>
        <time>2018-09-07T10:33:07Z</time>
      </trkpt>
      <trkpt lat="45.96376" lon="4.71587">
        <ele>182</ele>
        <time>2018-09-07T10:33:08Z</time>
      </trkpt>
      <trkpt lat="45.96369" lon="4.71586">
        <ele>182</ele>
        <time>2018-09-07T10:33:09Z</time>
      </trkpt>
      <trkpt lat="45.96362" lon="4.71588">
        <ele>182</ele>
        <time>2018-09-07T10:33:10Z</time>
      </trkpt>
      <trkpt lat="45.96355" lon="4.71586">
        <ele>182</ele>
        <time>2018-09-07T10:33:11Z</time>
      </trkpt>
      <trkpt lat="45.96349" lon="4.71585">
        <ele>182</ele>
        <time>2018-09-07T10:33:12Z</time>
      </trkpt>
      <trkpt lat="45.96343" lon="4.71583">
        <ele>184</ele>
        <time>2018-09-07T10:33:13Z</time>
      </trkpt>
      <trkpt lat="45.96336" lon="4.71582">
        <ele>183</ele>
        <time>2018-09-07T10:33:14Z</time>
      </trkpt>
      <trkpt lat="45.96329" lon="4.71581">
        <ele>183</ele>
        <time>2018-09-07T10:33:15Z</time>
      </trkpt>
      <trkpt lat="45.96322" lon="4.7158">
        <ele>184</ele>
        <time>2018-09-07T10:33:16Z</time>
      </trkpt>
      <trkpt lat="45.96316" lon="4.7158">
        <ele>184</ele>
        <time>2018-09-07T10:33:17Z</time>
      </trkpt>
      <trkpt lat="45.96309" lon="4.7158">
        <ele>184</ele>
        <time>2018-09-07T10:33:18Z</time>
      </trkpt>
      <trkpt lat="45.96304" lon="4.71579">
        <ele>184</ele>
        <time>2018-09-07T10:33:19Z</time>
      </trkpt>
      <trkpt lat="45.96297" lon="4.71579">
        <ele>184</ele>
        <time>2018-09-07T10:33:20Z</time>
      </trkpt>
      <trkpt lat="45.9629" lon="4.71578">
        <ele>184</ele>
        <time>2018-09-07T10:33:21Z</time>
      </trkpt>
      <trkpt lat="45.96285" lon="4.71574">
        <ele>184</ele>
        <time>2018-09-07T10:33:22Z</time>
      </trkpt>
      <trkpt lat="45.9628" lon="4.71573">
        <ele>184</ele>
        <time>2018-09-07T10:33:23Z</time>
      </trkpt>
      <trkpt lat="45.96272" lon="4.71573">
        <ele>184</ele>
        <time>2018-09-07T10:33:24Z</time>
      </trkpt>
      <trkpt lat="45.96266" lon="4.71571">
        <ele>183</ele>
        <time>2018-09-07T10:33:25Z</time>
      </trkpt>
      <trkpt lat="45.96261" lon="4.71571">
        <ele>183</ele>
        <time>2018-09-07T10:33:26Z</time>
      </trkpt>
      <trkpt lat="45.96255" lon="4.71571">
        <ele>183</ele>
        <time>2018-09-07T10:33:27Z</time>
      </trkpt>
      <trkpt lat="45.9625" lon="4.71569">
        <ele>183</ele>
        <time>2018-09-07T10:33:28Z</time>
      </trkpt>
      <trkpt lat="45.96245" lon="4.71566">
        <ele>183</ele>
        <time>2018-09-07T10:33:29Z</time>
      </trkpt>
      <trkpt lat="45.9624" lon="4.71565">
        <ele>183</ele>
        <time>2018-09-07T10:33:30Z</time>
      </trkpt>
      <trkpt lat="45.96234" lon="4.71563">
        <ele>183</ele>
        <time>2018-09-07T10:33:31Z</time>
      </trkpt>
      <trkpt lat="45.96226" lon="4.71562">
        <ele>183</ele>
        <time>2018-09-07T10:33:32Z</time>
      </trkpt>
      <trkpt lat="45.96219" lon="4.71561">
        <ele>183</ele>
        <time>2018-09-07T10:33:33Z</time>
      </trkpt>
      <trkpt lat="45.96212" lon="4.7156">
        <ele>183</ele>
        <time>2018-09-07T10:33:34Z</time>
      </trkpt>
      <trkpt lat="45.96206" lon="4.71559">
        <ele>183</ele>
        <time>2018-09-07T10:33:35Z</time>
      </trkpt>
      <trkpt lat="45.96199" lon="4.71561">
        <ele>183</ele>
        <time>2018-09-07T10:33:36Z</time>
      </trkpt>
      <trkpt lat="45.96193" lon="4.71559">
        <ele>183</ele>
        <time>2018-09-07T10:33:37Z</time>
      </trkpt>
      <trkpt lat="45.96189" lon="4.71553">
        <ele>184</ele>
        <time>2018-09-07T10:33:38Z</time>
      </trkpt>
      <trkpt lat="45.96183" lon="4.71551">
        <ele>184</ele>
        <time>2018-09-07T10:33:39Z</time>
      </trkpt>
      <trkpt lat="45.96177" lon="4.71551">
        <ele>184</ele>
        <time>2018-09-07T10:33:40Z</time>
      </trkpt>
      <trkpt lat="45.9617" lon="4.7155">
        <ele>184</ele>
        <time>2018-09-07T10:33:41Z</time>
      </trkpt>
      <trkpt lat="45.96164" lon="4.71548">
        <ele>184</ele>
        <time>2018-09-07T10:33:42Z</time>
      </trkpt>
      <trkpt lat="45.96159" lon="4.71548">
        <ele>184</ele>
        <time>2018-09-07T10:33:43Z</time>
      </trkpt>
      <trkpt lat="45.96153" lon="4.71548">
        <ele>184</ele>
        <time>2018-09-07T10:33:44Z</time>
      </trkpt>
      <trkpt lat="45.96147" lon="4.71549">
        <ele>184</ele>
        <time>2018-09-07T10:33:45Z</time>
      </trkpt>
      <trkpt lat="45.96143" lon="4.7155">
        <ele>184</ele>
        <time>2018-09-07T10:33:46Z</time>
      </trkpt>
      <trkpt lat="45.96139" lon="4.71548">
        <ele>184</ele>
        <time>2018-09-07T10:33:47Z</time>
      </trkpt>
      <trkpt lat="45.96134" lon="4.71547">
        <ele>184</ele>
        <time>2018-09-07T10:33:48Z</time>
      </trkpt>
      <trkpt lat="45.96128" lon="4.71545">
        <ele>185</ele>
        <time>2018-09-07T10:33:49Z</time>
      </trkpt>
      <trkpt lat="45.96122" lon="4.71545">
        <ele>185</ele>
        <time>2018-09-07T10:33:50Z</time>
      </trkpt>
      <trkpt lat="45.96115" lon="4.71545">
        <ele>185</ele>
        <time>2018-09-07T10:33:51Z</time>
      </trkpt>
      <trkpt lat="45.96109" lon="4.71544">
        <ele>185</ele>
        <time>2018-09-07T10:33:52Z</time>
      </trkpt>
      <trkpt lat="45.96103" lon="4.71541">
        <ele>185</ele>
        <time>2018-09-07T10:33:53Z</time>
      </trkpt>
      <trkpt lat="45.96097" lon="4.7154">
        <ele>185</ele>
        <time>2018-09-07T10:33:54Z</time>
      </trkpt>
      <trkpt lat="45.96092" lon="4.71539">
        <ele>185</ele>
        <time>2018-09-07T10:33:55Z</time>
      </trkpt>
      <trkpt lat="45.96087" lon="4.71537">
        <ele>185</ele>
        <time>2018-09-07T10:33:56Z</time>
      </trkpt>
      <trkpt lat="45.96082" lon="4.71536">
        <ele>186</ele>
        <time>2018-09-07T10:33:57Z</time>
      </trkpt>
      <trkpt lat="45.96077" lon="4.71534">
        <ele>186</ele>
        <time>2018-09-07T10:33:58Z</time>
      </trkpt>
      <trkpt lat="45.96071" lon="4.71534">
        <ele>186</ele>
        <time>2018-09-07T10:33:59Z</time>
      </trkpt>
      <trkpt lat="45.96065" lon="4.71533">
        <ele>186</ele>
        <time>2018-09-07T10:34:00Z</time>
      </trkpt>
      <trkpt lat="45.96059" lon="4.71533">
        <ele>186</ele>
        <time>2018-09-07T10:34:01Z</time>
      </trkpt>
      <trkpt lat="45.96052" lon="4.71533">
        <ele>186</ele>
        <time>2018-09-07T10:34:02Z</time>
      </trkpt>
      <trkpt lat="45.96046" lon="4.71531">
        <ele>186</ele>
        <time>2018-09-07T10:34:03Z</time>
      </trkpt>
      <trkpt lat="45.96041" lon="4.7153">
        <ele>186</ele>
        <time>2018-09-07T10:34:04Z</time>
      </trkpt>
      <trkpt lat="45.96035" lon="4.71528">
        <ele>186</ele>
        <time>2018-09-07T10:34:05Z</time>
      </trkpt>
      <trkpt lat="45.96029" lon="4.71527">
        <ele>186</ele>
        <time>2018-09-07T10:34:06Z</time>
      </trkpt>
      <trkpt lat="45.96023" lon="4.71526">
        <ele>186</ele>
        <time>2018-09-07T10:34:07Z</time>
      </trkpt>
      <trkpt lat="45.96015" lon="4.71525">
        <ele>186</ele>
        <time>2018-09-07T10:34:08Z</time>
      </trkpt>
      <trkpt lat="45.96011" lon="4.71522">
        <ele>186</ele>
        <time>2018-09-07T10:34:09Z</time>
      </trkpt>
      <trkpt lat="45.96005" lon="4.7152">
        <ele>186</ele>
        <time>2018-09-07T10:34:10Z</time>
      </trkpt>
      <trkpt lat="45.96" lon="4.71519">
        <ele>186</ele>
        <time>2018-09-07T10:34:11Z</time>
      </trkpt>
      <trkpt lat="45.95995" lon="4.71518">
        <ele>186</ele>
        <time>2018-09-07T10:34:12Z</time>
      </trkpt>
      <trkpt lat="45.95989" lon="4.71512">
        <ele>186</ele>
        <time>2018-09-07T10:34:14Z</time>
      </trkpt>
      <trkpt lat="45.95985" lon="4.71508">
        <ele>186</ele>
        <time>2018-09-07T10:34:15Z</time>
      </trkpt>
      <trkpt lat="45.95979" lon="4.7151">
        <ele>185</ele>
        <time>2018-09-07T10:34:16Z</time>
      </trkpt>
      <trkpt lat="45.95974" lon="4.7151">
        <ele>185</ele>
        <time>2018-09-07T10:34:17Z</time>
      </trkpt>
      <trkpt lat="45.95968" lon="4.71513">
        <ele>185</ele>
        <time>2018-09-07T10:34:18Z</time>
      </trkpt>
      <trkpt lat="45.95965" lon="4.71516">
        <ele>184</ele>
        <time>2018-09-07T10:34:19Z</time>
      </trkpt>
      <trkpt lat="45.95959" lon="4.71519">
        <ele>184</ele>
        <time>2018-09-07T10:34:20Z</time>
      </trkpt>
      <trkpt lat="45.95951" lon="4.71519">
        <ele>184</ele>
        <time>2018-09-07T10:34:21Z</time>
      </trkpt>
      <trkpt lat="45.95945" lon="4.7152">
        <ele>184</ele>
        <time>2018-09-07T10:34:22Z</time>
      </trkpt>
      <trkpt lat="45.95938" lon="4.71521">
        <ele>184</ele>
        <time>2018-09-07T10:34:23Z</time>
      </trkpt>
      <trkpt lat="45.95931" lon="4.71521">
        <ele>184</ele>
        <time>2018-09-07T10:34:24Z</time>
      </trkpt>
      <trkpt lat="45.95924" lon="4.71522">
        <ele>184</ele>
        <time>2018-09-07T10:34:25Z</time>
      </trkpt>
      <trkpt lat="45.95917" lon="4.71522">
        <ele>183</ele>
        <time>2018-09-07T10:34:26Z</time>
      </trkpt>
      <trkpt lat="45.95909" lon="4.71522">
        <ele>183</ele>
        <time>2018-09-07T10:34:27Z</time>
      </trkpt>
      <trkpt lat="45.95902" lon="4.71522">
        <ele>182</ele>
        <time>2018-09-07T10:34:28Z</time>
      </trkpt>
      <trkpt lat="45.95898" lon="4.71523">
        <ele>182</ele>
        <time>2018-09-07T10:34:29Z</time>
      </trkpt>
      <trkpt lat="45.9589" lon="4.71522">
        <ele>182</ele>
        <time>2018-09-07T10:34:30Z</time>
      </trkpt>
      <trkpt lat="45.95883" lon="4.71521">
        <ele>182</ele>
        <time>2018-09-07T10:34:31Z</time>
      </trkpt>
      <trkpt lat="45.95876" lon="4.71521">
        <ele>182</ele>
        <time>2018-09-07T10:34:32Z</time>
      </trkpt>
      <trkpt lat="45.95869" lon="4.71522">
        <ele>182</ele>
        <time>2018-09-07T10:34:33Z</time>
      </trkpt>
      <trkpt lat="45.95861" lon="4.71523">
        <ele>182</ele>
        <time>2018-09-07T10:34:34Z</time>
      </trkpt>
      <trkpt lat="45.95854" lon="4.71522">
        <ele>182</ele>
        <time>2018-09-07T10:34:35Z</time>
      </trkpt>
      <trkpt lat="45.95847" lon="4.71523">
        <ele>182</ele>
        <time>2018-09-07T10:34:36Z</time>
      </trkpt>
      <trkpt lat="45.9584" lon="4.71522">
        <ele>182</ele>
        <time>2018-09-07T10:34:37Z</time>
      </trkpt>
      <trkpt lat="45.95833" lon="4.71521">
        <ele>182</ele>
        <time>2018-09-07T10:34:38Z</time>
      </trkpt>
      <trkpt lat="45.95825" lon="4.71522">
        <ele>182</ele>
        <time>2018-09-07T10:34:39Z</time>
      </trkpt>
      <trkpt lat="45.95817" lon="4.71521">
        <ele>181</ele>
        <time>2018-09-07T10:34:40Z</time>
      </trkpt>
      <trkpt lat="45.95809" lon="4.7152">
        <ele>181</ele>
        <time>2018-09-07T10:34:41Z</time>
      </trkpt>
      <trkpt lat="45.95801" lon="4.7152">
        <ele>181</ele>
        <time>2018-09-07T10:34:42Z</time>
      </trkpt>
      <trkpt lat="45.95793" lon="4.71519">
        <ele>181</ele>
        <time>2018-09-07T10:34:43Z</time>
      </trkpt>
      <trkpt lat="45.95786" lon="4.71517">
        <ele>181</ele>
        <time>2018-09-07T10:34:44Z</time>
      </trkpt>
      <trkpt lat="45.95778" lon="4.71516">
        <ele>181</ele>
        <time>2018-09-07T10:34:45Z</time>
      </trkpt>
      <trkpt lat="45.95766" lon="4.71518">
        <ele>181</ele>
        <time>2018-09-07T10:34:46Z</time>
      </trkpt>
      <trkpt lat="45.95759" lon="4.71517">
        <ele>181</ele>
        <time>2018-09-07T10:34:47Z</time>
      </trkpt>
      <trkpt lat="45.95751" lon="4.71515">
        <ele>181</ele>
        <time>2018-09-07T10:34:48Z</time>
      </trkpt>
      <trkpt lat="45.95745" lon="4.71515">
        <ele>181</ele>
        <time>2018-09-07T10:34:49Z</time>
      </trkpt>
      <trkpt lat="45.95737" lon="4.71513">
        <ele>181</ele>
        <time>2018-09-07T10:34:50Z</time>
      </trkpt>
      <trkpt lat="45.95729" lon="4.71513">
        <ele>180</ele>
        <time>2018-09-07T10:34:51Z</time>
      </trkpt>
      <trkpt lat="45.95721" lon="4.71512">
        <ele>180</ele>
        <time>2018-09-07T10:34:52Z</time>
      </trkpt>
      <trkpt lat="45.95714" lon="4.71511">
        <ele>180</ele>
        <time>2018-09-07T10:34:53Z</time>
      </trkpt>
      <trkpt lat="45.95706" lon="4.7151">
        <ele>180</ele>
        <time>2018-09-07T10:34:54Z</time>
      </trkpt>
      <trkpt lat="45.95699" lon="4.7151">
        <ele>180</ele>
        <time>2018-09-07T10:34:55Z</time>
      </trkpt>
      <trkpt lat="45.95692" lon="4.71509">
        <ele>180</ele>
        <time>2018-09-07T10:34:56Z</time>
      </trkpt>
      <trkpt lat="45.95684" lon="4.71509">
        <ele>181</ele>
        <time>2018-09-07T10:34:57Z</time>
      </trkpt>
      <trkpt lat="45.95675" lon="4.71508">
        <ele>181</ele>
        <time>2018-09-07T10:34:58Z</time>
      </trkpt>
      <trkpt lat="45.95668" lon="4.71507">
        <ele>181</ele>
        <time>2018-09-07T10:34:59Z</time>
      </trkpt>
      <trkpt lat="45.9566" lon="4.71506">
        <ele>181</ele>
        <time>2018-09-07T10:35:00Z</time>
      </trkpt>
      <trkpt lat="45.95652" lon="4.71506">
        <ele>180</ele>
        <time>2018-09-07T10:35:01Z</time>
      </trkpt>
      <trkpt lat="45.95644" lon="4.71505">
        <ele>180</ele>
        <time>2018-09-07T10:35:02Z</time>
      </trkpt>
      <trkpt lat="45.95637" lon="4.71503">
        <ele>180</ele>
        <time>2018-09-07T10:35:03Z</time>
      </trkpt>
      <trkpt lat="45.95627" lon="4.715">
        <ele>182</ele>
        <time>2018-09-07T10:35:04Z</time>
      </trkpt>
      <trkpt lat="45.95618" lon="4.71502">
        <ele>180</ele>
        <time>2018-09-07T10:35:05Z</time>
      </trkpt>
      <trkpt lat="45.9561" lon="4.71502">
        <ele>179</ele>
        <time>2018-09-07T10:35:06Z</time>
      </trkpt>
      <trkpt lat="45.95603" lon="4.71501">
        <ele>179</ele>
        <time>2018-09-07T10:35:07Z</time>
      </trkpt>
      <trkpt lat="45.95594" lon="4.71502">
        <ele>180</ele>
        <time>2018-09-07T10:35:08Z</time>
      </trkpt>
      <trkpt lat="45.95589" lon="4.715">
        <ele>180</ele>
        <time>2018-09-07T10:35:09Z</time>
      </trkpt>
      <trkpt lat="45.95582" lon="4.71499">
        <ele>180</ele>
        <time>2018-09-07T10:35:10Z</time>
      </trkpt>
      <trkpt lat="45.95575" lon="4.71497">
        <ele>180</ele>
        <time>2018-09-07T10:35:11Z</time>
      </trkpt>
      <trkpt lat="45.95568" lon="4.71497">
        <ele>180</ele>
        <time>2018-09-07T10:35:12Z</time>
      </trkpt>
      <trkpt lat="45.95563" lon="4.71497">
        <ele>179</ele>
        <time>2018-09-07T10:35:13Z</time>
      </trkpt>
      <trkpt lat="45.95556" lon="4.71496">
        <ele>179</ele>
        <time>2018-09-07T10:35:14Z</time>
      </trkpt>
      <trkpt lat="45.95549" lon="4.71496">
        <ele>179</ele>
        <time>2018-09-07T10:35:15Z</time>
      </trkpt>
      <trkpt lat="45.95541" lon="4.71496">
        <ele>179</ele>
        <time>2018-09-07T10:35:16Z</time>
      </trkpt>
      <trkpt lat="45.95533" lon="4.71495">
        <ele>179</ele>
        <time>2018-09-07T10:35:17Z</time>
      </trkpt>
      <trkpt lat="45.95526" lon="4.71495">
        <ele>178</ele>
        <time>2018-09-07T10:35:18Z</time>
      </trkpt>
      <trkpt lat="45.95519" lon="4.71495">
        <ele>178</ele>
        <time>2018-09-07T10:35:19Z</time>
      </trkpt>
      <trkpt lat="45.95511" lon="4.71497">
        <ele>178</ele>
        <time>2018-09-07T10:35:20Z</time>
      </trkpt>
      <trkpt lat="45.95504" lon="4.71497">
        <ele>177</ele>
        <time>2018-09-07T10:35:21Z</time>
      </trkpt>
      <trkpt lat="45.95497" lon="4.71496">
        <ele>177</ele>
        <time>2018-09-07T10:35:22Z</time>
      </trkpt>
      <trkpt lat="45.95489" lon="4.71495">
        <ele>177</ele>
        <time>2018-09-07T10:35:23Z</time>
      </trkpt>
      <trkpt lat="45.95481" lon="4.71495">
        <ele>176</ele>
        <time>2018-09-07T10:35:24Z</time>
      </trkpt>
      <trkpt lat="45.95474" lon="4.71495">
        <ele>176</ele>
        <time>2018-09-07T10:35:25Z</time>
      </trkpt>
      <trkpt lat="45.95468" lon="4.71495">
        <ele>176</ele>
        <time>2018-09-07T10:35:26Z</time>
      </trkpt>
      <trkpt lat="45.9546" lon="4.71496">
        <ele>176</ele>
        <time>2018-09-07T10:35:27Z</time>
      </trkpt>
      <trkpt lat="45.95453" lon="4.71495">
        <ele>176</ele>
        <time>2018-09-07T10:35:28Z</time>
      </trkpt>
      <trkpt lat="45.95446" lon="4.71494">
        <ele>176</ele>
        <time>2018-09-07T10:35:29Z</time>
      </trkpt>
      <trkpt lat="45.95439" lon="4.71494">
        <ele>175</ele>
        <time>2018-09-07T10:35:30Z</time>
      </trkpt>
      <trkpt lat="45.95432" lon="4.71494">
        <ele>175</ele>
        <time>2018-09-07T10:35:31Z</time>
      </trkpt>
      <trkpt lat="45.95425" lon="4.71494">
        <ele>175</ele>
        <time>2018-09-07T10:35:32Z</time>
      </trkpt>
      <trkpt lat="45.95418" lon="4.71493">
        <ele>175</ele>
        <time>2018-09-07T10:35:33Z</time>
      </trkpt>
      <trkpt lat="45.95411" lon="4.71493">
        <ele>174</ele>
        <time>2018-09-07T10:35:34Z</time>
      </trkpt>
      <trkpt lat="45.95404" lon="4.71492">
        <ele>175</ele>
        <time>2018-09-07T10:35:35Z</time>
      </trkpt>
      <trkpt lat="45.95395" lon="4.71492">
        <ele>175</ele>
        <time>2018-09-07T10:35:36Z</time>
      </trkpt>
      <trkpt lat="45.95388" lon="4.71491">
        <ele>175</ele>
        <time>2018-09-07T10:35:37Z</time>
      </trkpt>
      <trkpt lat="45.95382" lon="4.7149">
        <ele>175</ele>
        <time>2018-09-07T10:35:38Z</time>
      </trkpt>
      <trkpt lat="45.95374" lon="4.7149">
        <ele>175</ele>
        <time>2018-09-07T10:35:39Z</time>
      </trkpt>
      <trkpt lat="45.95367" lon="4.71488">
        <ele>175</ele>
        <time>2018-09-07T10:35:40Z</time>
      </trkpt>
      <trkpt lat="45.95361" lon="4.71487">
        <ele>175</ele>
        <time>2018-09-07T10:35:41Z</time>
      </trkpt>
      <trkpt lat="45.95353" lon="4.71486">
        <ele>175</ele>
        <time>2018-09-07T10:35:42Z</time>
      </trkpt>
      <trkpt lat="45.95346" lon="4.71485">
        <ele>175</ele>
        <time>2018-09-07T10:35:43Z</time>
      </trkpt>
      <trkpt lat="45.95339" lon="4.71485">
        <ele>175</ele>
        <time>2018-09-07T10:35:44Z</time>
      </trkpt>
      <trkpt lat="45.95332" lon="4.71484">
        <ele>175</ele>
        <time>2018-09-07T10:35:45Z</time>
      </trkpt>
      <trkpt lat="45.95326" lon="4.71483">
        <ele>175</ele>
        <time>2018-09-07T10:35:46Z</time>
      </trkpt>
      <trkpt lat="45.95319" lon="4.71483">
        <ele>175</ele>
        <time>2018-09-07T10:35:47Z</time>
      </trkpt>
      <trkpt lat="45.95313" lon="4.71481">
        <ele>175</ele>
        <time>2018-09-07T10:35:48Z</time>
      </trkpt>
      <trkpt lat="45.95306" lon="4.71482">
        <ele>175</ele>
        <time>2018-09-07T10:35:49Z</time>
      </trkpt>
      <trkpt lat="45.953" lon="4.71483">
        <ele>176</ele>
        <time>2018-09-07T10:35:50Z</time>
      </trkpt>
      <trkpt lat="45.95294" lon="4.71481">
        <ele>176</ele>
        <time>2018-09-07T10:35:51Z</time>
      </trkpt>
      <trkpt lat="45.95287" lon="4.71481">
        <ele>176</ele>
        <time>2018-09-07T10:35:52Z</time>
      </trkpt>
      <trkpt lat="45.95281" lon="4.7148">
        <ele>176</ele>
        <time>2018-09-07T10:35:53Z</time>
      </trkpt>
      <trkpt lat="45.95274" lon="4.71481">
        <ele>176</ele>
        <time>2018-09-07T10:35:54Z</time>
      </trkpt>
      <trkpt lat="45.95265" lon="4.71481">
        <ele>176</ele>
        <time>2018-09-07T10:35:56Z</time>
      </trkpt>
      <trkpt lat="45.9526" lon="4.7148">
        <ele>176</ele>
        <time>2018-09-07T10:35:57Z</time>
      </trkpt>
      <trkpt lat="45.95256" lon="4.7148">
        <ele>176</ele>
        <time>2018-09-07T10:35:58Z</time>
      </trkpt>
      <trkpt lat="45.95251" lon="4.71479">
        <ele>176</ele>
        <time>2018-09-07T10:35:59Z</time>
      </trkpt>
      <trkpt lat="45.95245" lon="4.71478">
        <ele>177</ele>
        <time>2018-09-07T10:36:00Z</time>
      </trkpt>
      <trkpt lat="45.9524" lon="4.71477">
        <ele>177</ele>
        <time>2018-09-07T10:36:01Z</time>
      </trkpt>
      <trkpt lat="45.95235" lon="4.71478">
        <ele>177</ele>
        <time>2018-09-07T10:36:02Z</time>
      </trkpt>
      <trkpt lat="45.9523" lon="4.71477">
        <ele>177</ele>
        <time>2018-09-07T10:36:03Z</time>
      </trkpt>
      <trkpt lat="45.95225" lon="4.71477">
        <ele>177</ele>
        <time>2018-09-07T10:36:04Z</time>
      </trkpt>
      <trkpt lat="45.9522" lon="4.7148">
        <ele>177</ele>
        <time>2018-09-07T10:36:05Z</time>
      </trkpt>
      <trkpt lat="45.95215" lon="4.71481">
        <ele>177</ele>
        <time>2018-09-07T10:36:06Z</time>
      </trkpt>
      <trkpt lat="45.95209" lon="4.71481">
        <ele>177</ele>
        <time>2018-09-07T10:36:07Z</time>
      </trkpt>
      <trkpt lat="45.95204" lon="4.71482">
        <ele>177</ele>
        <time>2018-09-07T10:36:08Z</time>
      </trkpt>
      <trkpt lat="45.95198" lon="4.71481">
        <ele>177</ele>
        <time>2018-09-07T10:36:09Z</time>
      </trkpt>
      <trkpt lat="45.95192" lon="4.71479">
        <ele>177</ele>
        <time>2018-09-07T10:36:10Z</time>
      </trkpt>
      <trkpt lat="45.95186" lon="4.71479">
        <ele>177</ele>
        <time>2018-09-07T10:36:11Z</time>
      </trkpt>
      <trkpt lat="45.9518" lon="4.71478">
        <ele>177</ele>
        <time>2018-09-07T10:36:12Z</time>
      </trkpt>
      <trkpt lat="45.95175" lon="4.71477">
        <ele>177</ele>
        <time>2018-09-07T10:36:13Z</time>
      </trkpt>
      <trkpt lat="45.95169" lon="4.71475">
        <ele>177</ele>
        <time>2018-09-07T10:36:14Z</time>
      </trkpt>
      <trkpt lat="45.95164" lon="4.71474">
        <ele>178</ele>
        <time>2018-09-07T10:36:15Z</time>
      </trkpt>
      <trkpt lat="45.95158" lon="4.71474">
        <ele>178</ele>
        <time>2018-09-07T10:36:16Z</time>
      </trkpt>
      <trkpt lat="45.95152" lon="4.71475">
        <ele>178</ele>
        <time>2018-09-07T10:36:17Z</time>
      </trkpt>
      <trkpt lat="45.95147" lon="4.71474">
        <ele>178</ele>
        <time>2018-09-07T10:36:18Z</time>
      </trkpt>
      <trkpt lat="45.95141" lon="4.71476">
        <ele>178</ele>
        <time>2018-09-07T10:36:19Z</time>
      </trkpt>
      <trkpt lat="45.95132" lon="4.71474">
        <ele>178</ele>
        <time>2018-09-07T10:36:21Z</time>
      </trkpt>
      <trkpt lat="45.95126" lon="4.71473">
        <ele>178</ele>
        <time>2018-09-07T10:36:22Z</time>
      </trkpt>
      <trkpt lat="45.95121" lon="4.71472">
        <ele>178</ele>
        <time>2018-09-07T10:36:23Z</time>
      </trkpt>
      <trkpt lat="45.95115" lon="4.71472">
        <ele>179</ele>
        <time>2018-09-07T10:36:24Z</time>
      </trkpt>
      <trkpt lat="45.9511" lon="4.71471">
        <ele>179</ele>
        <time>2018-09-07T10:36:25Z</time>
      </trkpt>
      <trkpt lat="45.95105" lon="4.71471">
        <ele>179</ele>
        <time>2018-09-07T10:36:26Z</time>
      </trkpt>
      <trkpt lat="45.951" lon="4.7147">
        <ele>179</ele>
        <time>2018-09-07T10:36:27Z</time>
      </trkpt>
      <trkpt lat="45.95095" lon="4.7147">
        <ele>179</ele>
        <time>2018-09-07T10:36:28Z</time>
      </trkpt>
      <trkpt lat="45.95086" lon="4.71471">
        <ele>179</ele>
        <time>2018-09-07T10:36:30Z</time>
      </trkpt>
      <trkpt lat="45.95081" lon="4.71469">
        <ele>181</ele>
        <time>2018-09-07T10:36:31Z</time>
      </trkpt>
      <trkpt lat="45.95074" lon="4.71469">
        <ele>181</ele>
        <time>2018-09-07T10:36:32Z</time>
      </trkpt>
      <trkpt lat="45.9507" lon="4.71468">
        <ele>181</ele>
        <time>2018-09-07T10:36:33Z</time>
      </trkpt>
      <trkpt lat="45.95062" lon="4.71467">
        <ele>181</ele>
        <time>2018-09-07T10:36:35Z</time>
      </trkpt>
      <trkpt lat="45.95057" lon="4.71467">
        <ele>181</ele>
        <time>2018-09-07T10:36:36Z</time>
      </trkpt>
      <trkpt lat="45.95053" lon="4.71467">
        <ele>181</ele>
        <time>2018-09-07T10:36:37Z</time>
      </trkpt>
      <trkpt lat="45.95048" lon="4.71466">
        <ele>181</ele>
        <time>2018-09-07T10:36:38Z</time>
      </trkpt>
      <trkpt lat="45.9504" lon="4.71464">
        <ele>182</ele>
        <time>2018-09-07T10:36:40Z</time>
      </trkpt>
      <trkpt lat="45.95038" lon="4.71464">
        <ele>182</ele>
        <time>2018-09-07T10:36:41Z</time>
      </trkpt>
      <trkpt lat="45.95032" lon="4.71462">
        <ele>182</ele>
        <time>2018-09-07T10:36:43Z</time>
      </trkpt>
      <trkpt lat="45.95027" lon="4.71461">
        <ele>182</ele>
        <time>2018-09-07T10:36:44Z</time>
      </trkpt>
      <trkpt lat="45.95019" lon="4.71459">
        <ele>182</ele>
        <time>2018-09-07T10:36:46Z</time>
      </trkpt>
      <trkpt lat="45.95013" lon="4.71457">
        <ele>182</ele>
        <time>2018-09-07T10:36:47Z</time>
      </trkpt>
      <trkpt lat="45.95006" lon="4.71457">
        <ele>182</ele>
        <time>2018-09-07T10:36:49Z</time>
      </trkpt>
      <trkpt lat="45.95001" lon="4.71455">
        <ele>183</ele>
        <time>2018-09-07T10:36:50Z</time>
      </trkpt>
      <trkpt lat="45.94995" lon="4.71451">
        <ele>184</ele>
        <time>2018-09-07T10:36:52Z</time>
      </trkpt>
      <trkpt lat="45.94993" lon="4.71447">
        <ele>184</ele>
        <time>2018-09-07T10:36:53Z</time>
      </trkpt>
      <trkpt lat="45.94989" lon="4.71442">
        <ele>184</ele>
        <time>2018-09-07T10:36:54Z</time>
      </trkpt>
      <trkpt lat="45.94986" lon="4.71437">
        <ele>185</ele>
        <time>2018-09-07T10:36:55Z</time>
      </trkpt>
      <trkpt lat="45.94979" lon="4.71429">
        <ele>185</ele>
        <time>2018-09-07T10:36:57Z</time>
      </trkpt>
      <trkpt lat="45.94974" lon="4.71428">
        <ele>185</ele>
        <time>2018-09-07T10:36:58Z</time>
      </trkpt>
      <trkpt lat="45.94969" lon="4.71427">
        <ele>185</ele>
        <time>2018-09-07T10:36:59Z</time>
      </trkpt>
      <trkpt lat="45.94964" lon="4.71427">
        <ele>185</ele>
        <time>2018-09-07T10:37:00Z</time>
      </trkpt>
      <trkpt lat="45.94959" lon="4.71428">
        <ele>185</ele>
        <time>2018-09-07T10:37:01Z</time>
      </trkpt>
      <trkpt lat="45.94952" lon="4.71431">
        <ele>185</ele>
        <time>2018-09-07T10:37:02Z</time>
      </trkpt>
      <trkpt lat="45.94947" lon="4.71436">
        <ele>184</ele>
        <time>2018-09-07T10:37:03Z</time>
      </trkpt>
      <trkpt lat="45.94944" lon="4.71442">
        <ele>184</ele>
        <time>2018-09-07T10:37:04Z</time>
      </trkpt>
      <trkpt lat="45.94938" lon="4.7145">
        <ele>184</ele>
        <time>2018-09-07T10:37:06Z</time>
      </trkpt>
      <trkpt lat="45.94932" lon="4.71452">
        <ele>184</ele>
        <time>2018-09-07T10:37:07Z</time>
      </trkpt>
      <trkpt lat="45.94927" lon="4.71452">
        <ele>184</ele>
        <time>2018-09-07T10:37:08Z</time>
      </trkpt>
      <trkpt lat="45.94922" lon="4.71453">
        <ele>184</ele>
        <time>2018-09-07T10:37:09Z</time>
      </trkpt>
      <trkpt lat="45.94917" lon="4.71454">
        <ele>184</ele>
        <time>2018-09-07T10:37:10Z</time>
      </trkpt>
      <trkpt lat="45.94913" lon="4.71454">
        <ele>184</ele>
        <time>2018-09-07T10:37:11Z</time>
      </trkpt>
      <trkpt lat="45.94907" lon="4.71454">
        <ele>184</ele>
        <time>2018-09-07T10:37:12Z</time>
      </trkpt>
      <trkpt lat="45.94903" lon="4.71455">
        <ele>184</ele>
        <time>2018-09-07T10:37:13Z</time>
      </trkpt>
      <trkpt lat="45.94897" lon="4.71454">
        <ele>184</ele>
        <time>2018-09-07T10:37:14Z</time>
      </trkpt>
      <trkpt lat="45.94891" lon="4.71454">
        <ele>184</ele>
        <time>2018-09-07T10:37:15Z</time>
      </trkpt>
      <trkpt lat="45.94887" lon="4.71453">
        <ele>184</ele>
        <time>2018-09-07T10:37:16Z</time>
      </trkpt>
      <trkpt lat="45.9488" lon="4.71453">
        <ele>184</ele>
        <time>2018-09-07T10:37:17Z</time>
      </trkpt>
      <trkpt lat="45.94875" lon="4.71453">
        <ele>184</ele>
        <time>2018-09-07T10:37:18Z</time>
      </trkpt>
      <trkpt lat="45.94869" lon="4.71452">
        <ele>184</ele>
        <time>2018-09-07T10:37:19Z</time>
      </trkpt>
      <trkpt lat="45.94864" lon="4.71451">
        <ele>184</ele>
        <time>2018-09-07T10:37:20Z</time>
      </trkpt>
      <trkpt lat="45.9486" lon="4.71448">
        <ele>184</ele>
        <time>2018-09-07T10:37:21Z</time>
      </trkpt>
      <trkpt lat="45.94855" lon="4.71448">
        <ele>184</ele>
        <time>2018-09-07T10:37:22Z</time>
      </trkpt>
      <trkpt lat="45.9485" lon="4.71449">
        <ele>184</ele>
        <time>2018-09-07T10:37:23Z</time>
      </trkpt>
      <trkpt lat="45.94845" lon="4.71448">
        <ele>184</ele>
        <time>2018-09-07T10:37:24Z</time>
      </trkpt>
      <trkpt lat="45.9484" lon="4.7145">
        <ele>184</ele>
        <time>2018-09-07T10:37:25Z</time>
      </trkpt>
      <trkpt lat="45.94831" lon="4.71449">
        <ele>184</ele>
        <time>2018-09-07T10:37:27Z</time>
      </trkpt>
      <trkpt lat="45.94825" lon="4.7145">
        <ele>184</ele>
        <time>2018-09-07T10:37:28Z</time>
      </trkpt>
      <trkpt lat="45.94816" lon="4.71449">
        <ele>184</ele>
        <time>2018-09-07T10:37:30Z</time>
      </trkpt>
      <trkpt lat="45.94811" lon="4.7145">
        <ele>183</ele>
        <time>2018-09-07T10:37:31Z</time>
      </trkpt>
      <trkpt lat="45.94806" lon="4.71449">
        <ele>183</ele>
        <time>2018-09-07T10:37:32Z</time>
      </trkpt>
      <trkpt lat="45.94801" lon="4.71449">
        <ele>183</ele>
        <time>2018-09-07T10:37:33Z</time>
      </trkpt>
      <trkpt lat="45.94796" lon="4.71449">
        <ele>183</ele>
        <time>2018-09-07T10:37:34Z</time>
      </trkpt>
      <trkpt lat="45.94791" lon="4.71449">
        <ele>183</ele>
        <time>2018-09-07T10:37:35Z</time>
      </trkpt>
      <trkpt lat="45.94786" lon="4.71449">
        <ele>183</ele>
        <time>2018-09-07T10:37:36Z</time>
      </trkpt>
      <trkpt lat="45.94781" lon="4.71447">
        <ele>183</ele>
        <time>2018-09-07T10:37:37Z</time>
      </trkpt>
      <trkpt lat="45.94776" lon="4.71447">
        <ele>183</ele>
        <time>2018-09-07T10:37:38Z</time>
      </trkpt>
      <trkpt lat="45.94771" lon="4.71446">
        <ele>183</ele>
        <time>2018-09-07T10:37:39Z</time>
      </trkpt>
      <trkpt lat="45.94766" lon="4.71446">
        <ele>183</ele>
        <time>2018-09-07T10:37:40Z</time>
      </trkpt>
      <trkpt lat="45.94761" lon="4.71446">
        <ele>184</ele>
        <time>2018-09-07T10:37:41Z</time>
      </trkpt>
      <trkpt lat="45.94753" lon="4.71445">
        <ele>184</ele>
        <time>2018-09-07T10:37:43Z</time>
      </trkpt>
      <trkpt lat="45.94747" lon="4.71445">
        <ele>183</ele>
        <time>2018-09-07T10:37:44Z</time>
      </trkpt>
      <trkpt lat="45.94742" lon="4.71441">
        <ele>183</ele>
        <time>2018-09-07T10:37:45Z</time>
      </trkpt>
      <trkpt lat="45.94735" lon="4.7144">
        <ele>183</ele>
        <time>2018-09-07T10:37:46Z</time>
      </trkpt>
      <trkpt lat="45.9473" lon="4.71439">
        <ele>183</ele>
        <time>2018-09-07T10:37:47Z</time>
      </trkpt>
      <trkpt lat="45.94724" lon="4.71439">
        <ele>183</ele>
        <time>2018-09-07T10:37:48Z</time>
      </trkpt>
      <trkpt lat="45.94719" lon="4.71441">
        <ele>182</ele>
        <time>2018-09-07T10:37:49Z</time>
      </trkpt>
      <trkpt lat="45.94714" lon="4.71441">
        <ele>182</ele>
        <time>2018-09-07T10:37:50Z</time>
      </trkpt>
      <trkpt lat="45.94709" lon="4.7144">
        <ele>182</ele>
        <time>2018-09-07T10:37:51Z</time>
      </trkpt>
      <trkpt lat="45.94704" lon="4.7144">
        <ele>182</ele>
        <time>2018-09-07T10:37:52Z</time>
      </trkpt>
      <trkpt lat="45.94699" lon="4.7144">
        <ele>182</ele>
        <time>2018-09-07T10:37:53Z</time>
      </trkpt>
      <trkpt lat="45.94694" lon="4.71441">
        <ele>182</ele>
        <time>2018-09-07T10:37:54Z</time>
      </trkpt>
      <trkpt lat="45.94689" lon="4.7144">
        <ele>182</ele>
        <time>2018-09-07T10:37:55Z</time>
      </trkpt>
      <trkpt lat="45.94684" lon="4.7144">
        <ele>182</ele>
        <time>2018-09-07T10:37:56Z</time>
      </trkpt>
      <trkpt lat="45.94675" lon="4.71441">
        <ele>182</ele>
        <time>2018-09-07T10:37:58Z</time>
      </trkpt>
      <trkpt lat="45.9467" lon="4.7144">
        <ele>182</ele>
        <time>2018-09-07T10:37:59Z</time>
      </trkpt>
      <trkpt lat="45.94665" lon="4.71439">
        <ele>182</ele>
        <time>2018-09-07T10:38:00Z</time>
      </trkpt>
      <trkpt lat="45.9466" lon="4.71439">
        <ele>182</ele>
        <time>2018-09-07T10:38:01Z</time>
      </trkpt>
      <trkpt lat="45.94654" lon="4.7144">
        <ele>182</ele>
        <time>2018-09-07T10:38:02Z</time>
      </trkpt>
      <trkpt lat="45.94649" lon="4.71441">
        <ele>181</ele>
        <time>2018-09-07T10:38:03Z</time>
      </trkpt>
      <trkpt lat="45.94643" lon="4.71441">
        <ele>181</ele>
        <time>2018-09-07T10:38:04Z</time>
      </trkpt>
      <trkpt lat="45.94638" lon="4.71442">
        <ele>181</ele>
        <time>2018-09-07T10:38:05Z</time>
      </trkpt>
      <trkpt lat="45.94633" lon="4.71441">
        <ele>181</ele>
        <time>2018-09-07T10:38:06Z</time>
      </trkpt>
      <trkpt lat="45.94628" lon="4.71441">
        <ele>181</ele>
        <time>2018-09-07T10:38:07Z</time>
      </trkpt>
      <trkpt lat="45.94621" lon="4.71439">
        <ele>181</ele>
        <time>2018-09-07T10:38:09Z</time>
      </trkpt>
      <trkpt lat="45.94616" lon="4.71437">
        <ele>182</ele>
        <time>2018-09-07T10:38:10Z</time>
      </trkpt>
      <trkpt lat="45.94609" lon="4.71437">
        <ele>182</ele>
        <time>2018-09-07T10:38:11Z</time>
      </trkpt>
      <trkpt lat="45.94601" lon="4.71437">
        <ele>182</ele>
        <time>2018-09-07T10:38:12Z</time>
      </trkpt>
      <trkpt lat="45.94594" lon="4.71437">
        <ele>182</ele>
        <time>2018-09-07T10:38:13Z</time>
      </trkpt>
      <trkpt lat="45.94588" lon="4.71436">
        <ele>182</ele>
        <time>2018-09-07T10:38:14Z</time>
      </trkpt>
      <trkpt lat="45.9458" lon="4.71437">
        <ele>182</ele>
        <time>2018-09-07T10:38:15Z</time>
      </trkpt>
      <trkpt lat="45.94574" lon="4.71441">
        <ele>182</ele>
        <time>2018-09-07T10:38:16Z</time>
      </trkpt>
      <trkpt lat="45.94567" lon="4.71441">
        <ele>181</ele>
        <time>2018-09-07T10:38:17Z</time>
      </trkpt>
      <trkpt lat="45.9456" lon="4.71443">
        <ele>181</ele>
        <time>2018-09-07T10:38:18Z</time>
      </trkpt>
      <trkpt lat="45.94553" lon="4.71443">
        <ele>181</ele>
        <time>2018-09-07T10:38:19Z</time>
      </trkpt>
      <trkpt lat="45.94545" lon="4.71444">
        <ele>181</ele>
        <time>2018-09-07T10:38:20Z</time>
      </trkpt>
      <trkpt lat="45.94537" lon="4.71445">
        <ele>180</ele>
        <time>2018-09-07T10:38:21Z</time>
      </trkpt>
      <trkpt lat="45.9453" lon="4.71447">
        <ele>180</ele>
        <time>2018-09-07T10:38:22Z</time>
      </trkpt>
      <trkpt lat="45.94521" lon="4.71449">
        <ele>180</ele>
        <time>2018-09-07T10:38:23Z</time>
      </trkpt>
      <trkpt lat="45.94512" lon="4.71451">
        <ele>180</ele>
        <time>2018-09-07T10:38:24Z</time>
      </trkpt>
      <trkpt lat="45.94505" lon="4.71454">
        <ele>180</ele>
        <time>2018-09-07T10:38:25Z</time>
      </trkpt>
      <trkpt lat="45.94497" lon="4.71458">
        <ele>179</ele>
        <time>2018-09-07T10:38:26Z</time>
      </trkpt>
      <trkpt lat="45.94489" lon="4.71461">
        <ele>179</ele>
        <time>2018-09-07T10:38:27Z</time>
      </trkpt>
      <trkpt lat="45.94482" lon="4.71464">
        <ele>179</ele>
        <time>2018-09-07T10:38:28Z</time>
      </trkpt>
      <trkpt lat="45.94473" lon="4.71467">
        <ele>179</ele>
        <time>2018-09-07T10:38:29Z</time>
      </trkpt>
      <trkpt lat="45.94465" lon="4.71469">
        <ele>179</ele>
        <time>2018-09-07T10:38:30Z</time>
      </trkpt>
      <trkpt lat="45.94457" lon="4.71474">
        <ele>179</ele>
        <time>2018-09-07T10:38:31Z</time>
      </trkpt>
      <trkpt lat="45.94449" lon="4.71476">
        <ele>179</ele>
        <time>2018-09-07T10:38:32Z</time>
      </trkpt>
      <trkpt lat="45.9444" lon="4.71479">
        <ele>179</ele>
        <time>2018-09-07T10:38:33Z</time>
      </trkpt>
      <trkpt lat="45.94432" lon="4.71482">
        <ele>179</ele>
        <time>2018-09-07T10:38:34Z</time>
      </trkpt>
      <trkpt lat="45.94423" lon="4.71484">
        <ele>178</ele>
        <time>2018-09-07T10:38:35Z</time>
      </trkpt>
      <trkpt lat="45.94414" lon="4.71487">
        <ele>178</ele>
        <time>2018-09-07T10:38:36Z</time>
      </trkpt>
      <trkpt lat="45.94406" lon="4.71491">
        <ele>178</ele>
        <time>2018-09-07T10:38:37Z</time>
      </trkpt>
      <trkpt lat="45.94398" lon="4.71494">
        <ele>178</ele>
        <time>2018-09-07T10:38:38Z</time>
      </trkpt>
      <trkpt lat="45.94392" lon="4.71499">
        <ele>177</ele>
        <time>2018-09-07T10:38:39Z</time>
      </trkpt>
      <trkpt lat="45.94383" lon="4.71502">
        <ele>177</ele>
        <time>2018-09-07T10:38:40Z</time>
      </trkpt>
      <trkpt lat="45.94375" lon="4.71505">
        <ele>177</ele>
        <time>2018-09-07T10:38:41Z</time>
      </trkpt>
      <trkpt lat="45.94368" lon="4.71508">
        <ele>176</ele>
        <time>2018-09-07T10:38:42Z</time>
      </trkpt>
      <trkpt lat="45.9436" lon="4.71511">
        <ele>176</ele>
        <time>2018-09-07T10:38:43Z</time>
      </trkpt>
      <trkpt lat="45.94352" lon="4.71516">
        <ele>176</ele>
        <time>2018-09-07T10:38:44Z</time>
      </trkpt>
      <trkpt lat="45.94343" lon="4.71519">
        <ele>176</ele>
        <time>2018-09-07T10:38:45Z</time>
      </trkpt>
      <trkpt lat="45.94336" lon="4.71521">
        <ele>176</ele>
        <time>2018-09-07T10:38:46Z</time>
      </trkpt>
      <trkpt lat="45.94328" lon="4.71525">
        <ele>176</ele>
        <time>2018-09-07T10:38:47Z</time>
      </trkpt>
      <trkpt lat="45.94319" lon="4.71527">
        <ele>176</ele>
        <time>2018-09-07T10:38:48Z</time>
      </trkpt>
      <trkpt lat="45.94311" lon="4.7153">
        <ele>175</ele>
        <time>2018-09-07T10:38:49Z</time>
      </trkpt>
      <trkpt lat="45.94303" lon="4.71534">
        <ele>175</ele>
        <time>2018-09-07T10:38:50Z</time>
      </trkpt>
      <trkpt lat="45.94295" lon="4.71537">
        <ele>175</ele>
        <time>2018-09-07T10:38:51Z</time>
      </trkpt>
      <trkpt lat="45.9429" lon="4.71541">
        <ele>175</ele>
        <time>2018-09-07T10:38:52Z</time>
      </trkpt>
      <trkpt lat="45.94282" lon="4.71545">
        <ele>175</ele>
        <time>2018-09-07T10:38:53Z</time>
      </trkpt>
      <trkpt lat="45.94275" lon="4.71547">
        <ele>175</ele>
        <time>2018-09-07T10:38:54Z</time>
      </trkpt>
      <trkpt lat="45.94267" lon="4.71549">
        <ele>175</ele>
        <time>2018-09-07T10:38:55Z</time>
      </trkpt>
      <trkpt lat="45.94259" lon="4.71552">
        <ele>175</ele>
        <time>2018-09-07T10:38:56Z</time>
      </trkpt>
      <trkpt lat="45.94252" lon="4.71555">
        <ele>175</ele>
        <time>2018-09-07T10:38:57Z</time>
      </trkpt>
      <trkpt lat="45.94244" lon="4.71559">
        <ele>174</ele>
        <time>2018-09-07T10:38:58Z</time>
      </trkpt>
      <trkpt lat="45.94237" lon="4.71562">
        <ele>174</ele>
        <time>2018-09-07T10:38:59Z</time>
      </trkpt>
      <trkpt lat="45.94229" lon="4.71566">
        <ele>174</ele>
        <time>2018-09-07T10:39:00Z</time>
      </trkpt>
      <trkpt lat="45.94222" lon="4.71569">
        <ele>174</ele>
        <time>2018-09-07T10:39:01Z</time>
      </trkpt>
      <trkpt lat="45.94216" lon="4.71573">
        <ele>174</ele>
        <time>2018-09-07T10:39:02Z</time>
      </trkpt>
      <trkpt lat="45.94207" lon="4.71577">
        <ele>174</ele>
        <time>2018-09-07T10:39:03Z</time>
      </trkpt>
      <trkpt lat="45.942" lon="4.7158">
        <ele>174</ele>
        <time>2018-09-07T10:39:04Z</time>
      </trkpt>
      <trkpt lat="45.94194" lon="4.71582">
        <ele>174</ele>
        <time>2018-09-07T10:39:05Z</time>
      </trkpt>
      <trkpt lat="45.94187" lon="4.71584">
        <ele>173</ele>
        <time>2018-09-07T10:39:06Z</time>
      </trkpt>
      <trkpt lat="45.9418" lon="4.71586">
        <ele>173</ele>
        <time>2018-09-07T10:39:07Z</time>
      </trkpt>
      <trkpt lat="45.94174" lon="4.71589">
        <ele>174</ele>
        <time>2018-09-07T10:39:08Z</time>
      </trkpt>
      <trkpt lat="45.94167" lon="4.71592">
        <ele>174</ele>
        <time>2018-09-07T10:39:09Z</time>
      </trkpt>
      <trkpt lat="45.9416" lon="4.71595">
        <ele>173</ele>
        <time>2018-09-07T10:39:10Z</time>
      </trkpt>
      <trkpt lat="45.94154" lon="4.71598">
        <ele>173</ele>
        <time>2018-09-07T10:39:11Z</time>
      </trkpt>
      <trkpt lat="45.94148" lon="4.716">
        <ele>173</ele>
        <time>2018-09-07T10:39:12Z</time>
      </trkpt>
      <trkpt lat="45.94141" lon="4.71601">
        <ele>173</ele>
        <time>2018-09-07T10:39:13Z</time>
      </trkpt>
      <trkpt lat="45.94134" lon="4.71603">
        <ele>173</ele>
        <time>2018-09-07T10:39:14Z</time>
      </trkpt>
      <trkpt lat="45.94128" lon="4.71606">
        <ele>173</ele>
        <time>2018-09-07T10:39:15Z</time>
      </trkpt>
      <trkpt lat="45.94121" lon="4.71607">
        <ele>173</ele>
        <time>2018-09-07T10:39:16Z</time>
      </trkpt>
      <trkpt lat="45.94116" lon="4.7161">
        <ele>173</ele>
        <time>2018-09-07T10:39:17Z</time>
      </trkpt>
      <trkpt lat="45.94109" lon="4.71612">
        <ele>173</ele>
        <time>2018-09-07T10:39:18Z</time>
      </trkpt>
      <trkpt lat="45.94102" lon="4.71614">
        <ele>173</ele>
        <time>2018-09-07T10:39:19Z</time>
      </trkpt>
      <trkpt lat="45.94096" lon="4.71618">
        <ele>173</ele>
        <time>2018-09-07T10:39:20Z</time>
      </trkpt>
      <trkpt lat="45.94089" lon="4.71622">
        <ele>173</ele>
        <time>2018-09-07T10:39:21Z</time>
      </trkpt>
      <trkpt lat="45.94082" lon="4.71624">
        <ele>174</ele>
        <time>2018-09-07T10:39:22Z</time>
      </trkpt>
      <trkpt lat="45.94076" lon="4.71626">
        <ele>174</ele>
        <time>2018-09-07T10:39:23Z</time>
      </trkpt>
      <trkpt lat="45.9407" lon="4.71628">
        <ele>174</ele>
        <time>2018-09-07T10:39:24Z</time>
      </trkpt>
      <trkpt lat="45.94063" lon="4.71629">
        <ele>174</ele>
        <time>2018-09-07T10:39:25Z</time>
      </trkpt>
      <trkpt lat="45.94057" lon="4.71631">
        <ele>174</ele>
        <time>2018-09-07T10:39:26Z</time>
      </trkpt>
      <trkpt lat="45.94052" lon="4.71632">
        <ele>175</ele>
        <time>2018-09-07T10:39:27Z</time>
      </trkpt>
      <trkpt lat="45.94046" lon="4.71634">
        <ele>175</ele>
        <time>2018-09-07T10:39:28Z</time>
      </trkpt>
      <trkpt lat="45.94039" lon="4.71637">
        <ele>175</ele>
        <time>2018-09-07T10:39:29Z</time>
      </trkpt>
      <trkpt lat="45.94033" lon="4.71639">
        <ele>175</ele>
        <time>2018-09-07T10:39:30Z</time>
      </trkpt>
      <trkpt lat="45.94026" lon="4.71641">
        <ele>175</ele>
        <time>2018-09-07T10:39:31Z</time>
      </trkpt>
      <trkpt lat="45.9402" lon="4.71643">
        <ele>175</ele>
        <time>2018-09-07T10:39:32Z</time>
      </trkpt>
      <trkpt lat="45.94014" lon="4.71646">
        <ele>176</ele>
        <time>2018-09-07T10:39:33Z</time>
      </trkpt>
      <trkpt lat="45.94009" lon="4.71648">
        <ele>176</ele>
        <time>2018-09-07T10:39:34Z</time>
      </trkpt>
      <trkpt lat="45.94005" lon="4.71652">
        <ele>176</ele>
        <time>2018-09-07T10:39:35Z</time>
      </trkpt>
      <trkpt lat="45.94" lon="4.71655">
        <ele>176</ele>
        <time>2018-09-07T10:39:36Z</time>
      </trkpt>
      <trkpt lat="45.93996" lon="4.71657">
        <ele>177</ele>
        <time>2018-09-07T10:39:37Z</time>
      </trkpt>
      <trkpt lat="45.93991" lon="4.71659">
        <ele>177</ele>
        <time>2018-09-07T10:39:38Z</time>
      </trkpt>
      <trkpt lat="45.93983" lon="4.71659">
        <ele>177</ele>
        <time>2018-09-07T10:39:39Z</time>
      </trkpt>
      <trkpt lat="45.93977" lon="4.71661">
        <ele>177</ele>
        <time>2018-09-07T10:39:40Z</time>
      </trkpt>
      <trkpt lat="45.93971" lon="4.71663">
        <ele>177</ele>
        <time>2018-09-07T10:39:41Z</time>
      </trkpt>
      <trkpt lat="45.93965" lon="4.71665">
        <ele>177</ele>
        <time>2018-09-07T10:39:42Z</time>
      </trkpt>
      <trkpt lat="45.93958" lon="4.71667">
        <ele>175</ele>
        <time>2018-09-07T10:39:43Z</time>
      </trkpt>
      <trkpt lat="45.93954" lon="4.71669">
        <ele>175</ele>
        <time>2018-09-07T10:39:44Z</time>
      </trkpt>
      <trkpt lat="45.93949" lon="4.71669">
        <ele>175</ele>
        <time>2018-09-07T10:39:45Z</time>
      </trkpt>
      <trkpt lat="45.93943" lon="4.71673">
        <ele>175</ele>
        <time>2018-09-07T10:39:46Z</time>
      </trkpt>
      <trkpt lat="45.93939" lon="4.71676">
        <ele>175</ele>
        <time>2018-09-07T10:39:47Z</time>
      </trkpt>
      <trkpt lat="45.93934" lon="4.71677">
        <ele>175</ele>
        <time>2018-09-07T10:39:48Z</time>
      </trkpt>
      <trkpt lat="45.93928" lon="4.71679">
        <ele>175</ele>
        <time>2018-09-07T10:39:49Z</time>
      </trkpt>
      <trkpt lat="45.93921" lon="4.71681">
        <ele>175</ele>
        <time>2018-09-07T10:39:50Z</time>
      </trkpt>
      <trkpt lat="45.93915" lon="4.71684">
        <ele>175</ele>
        <time>2018-09-07T10:39:51Z</time>
      </trkpt>
      <trkpt lat="45.93908" lon="4.71686">
        <ele>174</ele>
        <time>2018-09-07T10:39:52Z</time>
      </trkpt>
      <trkpt lat="45.93902" lon="4.71689">
        <ele>174</ele>
        <time>2018-09-07T10:39:53Z</time>
      </trkpt>
      <trkpt lat="45.93898" lon="4.71693">
        <ele>174</ele>
        <time>2018-09-07T10:39:54Z</time>
      </trkpt>
      <trkpt lat="45.93892" lon="4.71695">
        <ele>174</ele>
        <time>2018-09-07T10:39:55Z</time>
      </trkpt>
      <trkpt lat="45.93886" lon="4.71698">
        <ele>174</ele>
        <time>2018-09-07T10:39:56Z</time>
      </trkpt>
      <trkpt lat="45.9388" lon="4.71699">
        <ele>174</ele>
        <time>2018-09-07T10:39:57Z</time>
      </trkpt>
      <trkpt lat="45.93874" lon="4.71701">
        <ele>174</ele>
        <time>2018-09-07T10:39:58Z</time>
      </trkpt>
      <trkpt lat="45.93869" lon="4.71703">
        <ele>174</ele>
        <time>2018-09-07T10:39:59Z</time>
      </trkpt>
      <trkpt lat="45.93865" lon="4.71706">
        <ele>174</ele>
        <time>2018-09-07T10:40:00Z</time>
      </trkpt>
      <trkpt lat="45.9386" lon="4.71708">
        <ele>174</ele>
        <time>2018-09-07T10:40:01Z</time>
      </trkpt>
      <trkpt lat="45.93855" lon="4.7171">
        <ele>174</ele>
        <time>2018-09-07T10:40:02Z</time>
      </trkpt>
      <trkpt lat="45.93848" lon="4.71712">
        <ele>174</ele>
        <time>2018-09-07T10:40:03Z</time>
      </trkpt>
      <trkpt lat="45.93845" lon="4.71714">
        <ele>174</ele>
        <time>2018-09-07T10:40:04Z</time>
      </trkpt>
      <trkpt lat="45.93841" lon="4.71716">
        <ele>174</ele>
        <time>2018-09-07T10:40:05Z</time>
      </trkpt>
      <trkpt lat="45.93834" lon="4.71717">
        <ele>175</ele>
        <time>2018-09-07T10:40:06Z</time>
      </trkpt>
      <trkpt lat="45.93825" lon="4.71722">
        <ele>175</ele>
        <time>2018-09-07T10:40:08Z</time>
      </trkpt>
      <trkpt lat="45.93818" lon="4.71725">
        <ele>175</ele>
        <time>2018-09-07T10:40:09Z</time>
      </trkpt>
      <trkpt lat="45.93811" lon="4.71727">
        <ele>175</ele>
        <time>2018-09-07T10:40:10Z</time>
      </trkpt>
      <trkpt lat="45.93806" lon="4.71729">
        <ele>175</ele>
        <time>2018-09-07T10:40:11Z</time>
      </trkpt>
      <trkpt lat="45.93799" lon="4.71731">
        <ele>175</ele>
        <time>2018-09-07T10:40:12Z</time>
      </trkpt>
      <trkpt lat="45.93793" lon="4.71733">
        <ele>175</ele>
        <time>2018-09-07T10:40:13Z</time>
      </trkpt>
      <trkpt lat="45.93789" lon="4.71735">
        <ele>175</ele>
        <time>2018-09-07T10:40:14Z</time>
      </trkpt>
      <trkpt lat="45.93784" lon="4.71736">
        <ele>175</ele>
        <time>2018-09-07T10:40:15Z</time>
      </trkpt>
      <trkpt lat="45.93778" lon="4.71741">
        <ele>175</ele>
        <time>2018-09-07T10:40:16Z</time>
      </trkpt>
      <trkpt lat="45.93773" lon="4.71741">
        <ele>175</ele>
        <time>2018-09-07T10:40:17Z</time>
      </trkpt>
      <trkpt lat="45.93767" lon="4.71742">
        <ele>175</ele>
        <time>2018-09-07T10:40:18Z</time>
      </trkpt>
      <trkpt lat="45.93763" lon="4.71743">
        <ele>175</ele>
        <time>2018-09-07T10:40:19Z</time>
      </trkpt>
      <trkpt lat="45.93758" lon="4.71746">
        <ele>175</ele>
        <time>2018-09-07T10:40:20Z</time>
      </trkpt>
      <trkpt lat="45.93753" lon="4.71747">
        <ele>175</ele>
        <time>2018-09-07T10:40:21Z</time>
      </trkpt>
      <trkpt lat="45.93749" lon="4.71748">
        <ele>175</ele>
        <time>2018-09-07T10:40:22Z</time>
      </trkpt>
      <trkpt lat="45.93744" lon="4.7175">
        <ele>175</ele>
        <time>2018-09-07T10:40:23Z</time>
      </trkpt>
      <trkpt lat="45.9374" lon="4.71752">
        <ele>175</ele>
        <time>2018-09-07T10:40:24Z</time>
      </trkpt>
      <trkpt lat="45.93735" lon="4.71754">
        <ele>176</ele>
        <time>2018-09-07T10:40:25Z</time>
      </trkpt>
      <trkpt lat="45.93729" lon="4.71764">
        <ele>176</ele>
        <time>2018-09-07T10:40:28Z</time>
      </trkpt>
      <trkpt lat="45.93728" lon="4.71766">
        <ele>176</ele>
        <time>2018-09-07T10:40:29Z</time>
      </trkpt>
      <trkpt lat="45.9372" lon="4.71772">
        <ele>176</ele>
        <time>2018-09-07T10:40:36Z</time>
      </trkpt>
      <trkpt lat="45.93719" lon="4.71774">
        <ele>176</ele>
        <time>2018-09-07T10:40:37Z</time>
      </trkpt>
      <trkpt lat="45.93714" lon="4.71783">
        <ele>176</ele>
        <time>2018-09-07T10:40:40Z</time>
      </trkpt>
      <trkpt lat="45.9371" lon="4.71793">
        <ele>176</ele>
        <time>2018-09-07T10:40:41Z</time>
      </trkpt>
      <trkpt lat="45.93708" lon="4.71804">
        <ele>176</ele>
        <time>2018-09-07T10:40:43Z</time>
      </trkpt>
      <trkpt lat="45.93707" lon="4.71809">
        <ele>176</ele>
        <time>2018-09-07T10:40:44Z</time>
      </trkpt>
      <trkpt lat="45.93704" lon="4.71816">
        <ele>176</ele>
        <time>2018-09-07T10:40:45Z</time>
      </trkpt>
      <trkpt lat="45.93702" lon="4.71823">
        <ele>176</ele>
        <time>2018-09-07T10:40:46Z</time>
      </trkpt>
      <trkpt lat="45.93697" lon="4.71828">
        <ele>176</ele>
        <time>2018-09-07T10:40:47Z</time>
      </trkpt>
      <trkpt lat="45.93694" lon="4.71834">
        <ele>175</ele>
        <time>2018-09-07T10:40:48Z</time>
      </trkpt>
      <trkpt lat="45.93691" lon="4.71842">
        <ele>175</ele>
        <time>2018-09-07T10:40:49Z</time>
      </trkpt>
      <trkpt lat="45.9369" lon="4.71852">
        <ele>175</ele>
        <time>2018-09-07T10:40:50Z</time>
      </trkpt>
      <trkpt lat="45.93687" lon="4.7186">
        <ele>175</ele>
        <time>2018-09-07T10:40:51Z</time>
      </trkpt>
      <trkpt lat="45.93684" lon="4.7187">
        <ele>175</ele>
        <time>2018-09-07T10:40:52Z</time>
      </trkpt>
      <trkpt lat="45.93681" lon="4.71874">
        <ele>175</ele>
        <time>2018-09-07T10:40:53Z</time>
      </trkpt>
      <trkpt lat="45.9368" lon="4.71882">
        <ele>175</ele>
        <time>2018-09-07T10:40:54Z</time>
      </trkpt>
      <trkpt lat="45.93676" lon="4.71891">
        <ele>175</ele>
        <time>2018-09-07T10:40:55Z</time>
      </trkpt>
      <trkpt lat="45.93674" lon="4.71899">
        <ele>175</ele>
        <time>2018-09-07T10:40:56Z</time>
      </trkpt>
      <trkpt lat="45.9367" lon="4.71907">
        <ele>175</ele>
        <time>2018-09-07T10:40:57Z</time>
      </trkpt>
      <trkpt lat="45.93668" lon="4.71916">
        <ele>175</ele>
        <time>2018-09-07T10:40:58Z</time>
      </trkpt>
      <trkpt lat="45.93664" lon="4.71925">
        <ele>175</ele>
        <time>2018-09-07T10:40:59Z</time>
      </trkpt>
      <trkpt lat="45.9366" lon="4.71933">
        <ele>175</ele>
        <time>2018-09-07T10:41:00Z</time>
      </trkpt>
      <trkpt lat="45.93655" lon="4.7194">
        <ele>175</ele>
        <time>2018-09-07T10:41:01Z</time>
      </trkpt>
      <trkpt lat="45.93651" lon="4.71948">
        <ele>175</ele>
        <time>2018-09-07T10:41:02Z</time>
      </trkpt>
      <trkpt lat="45.93647" lon="4.71955">
        <ele>175</ele>
        <time>2018-09-07T10:41:03Z</time>
      </trkpt>
      <trkpt lat="45.93644" lon="4.71963">
        <ele>175</ele>
        <time>2018-09-07T10:41:04Z</time>
      </trkpt>
      <trkpt lat="45.93642" lon="4.7197">
        <ele>175</ele>
        <time>2018-09-07T10:41:05Z</time>
      </trkpt>
      <trkpt lat="45.93638" lon="4.71977">
        <ele>175</ele>
        <time>2018-09-07T10:41:06Z</time>
      </trkpt>
      <trkpt lat="45.93638" lon="4.71986">
        <ele>175</ele>
        <time>2018-09-07T10:41:07Z</time>
      </trkpt>
      <trkpt lat="45.93635" lon="4.71994">
        <ele>175</ele>
        <time>2018-09-07T10:41:08Z</time>
      </trkpt>
      <trkpt lat="45.93633" lon="4.72">
        <ele>174</ele>
        <time>2018-09-07T10:41:09Z</time>
      </trkpt>
      <trkpt lat="45.9363" lon="4.72007">
        <ele>175</ele>
        <time>2018-09-07T10:41:10Z</time>
      </trkpt>
      <trkpt lat="45.93627" lon="4.72013">
        <ele>175</ele>
        <time>2018-09-07T10:41:11Z</time>
      </trkpt>
      <trkpt lat="45.93626" lon="4.72019">
        <ele>175</ele>
        <time>2018-09-07T10:41:12Z</time>
      </trkpt>
      <trkpt lat="45.93623" lon="4.72026">
        <ele>175</ele>
        <time>2018-09-07T10:41:13Z</time>
      </trkpt>
      <trkpt lat="45.9362" lon="4.72034">
        <ele>175</ele>
        <time>2018-09-07T10:41:14Z</time>
      </trkpt>
      <trkpt lat="45.93617" lon="4.72041">
        <ele>175</ele>
        <time>2018-09-07T10:41:15Z</time>
      </trkpt>
      <trkpt lat="45.93616" lon="4.72049">
        <ele>175</ele>
        <time>2018-09-07T10:41:16Z</time>
      </trkpt>
      <trkpt lat="45.93612" lon="4.72055">
        <ele>175</ele>
        <time>2018-09-07T10:41:17Z</time>
      </trkpt>
      <trkpt lat="45.93609" lon="4.72061">
        <ele>175</ele>
        <time>2018-09-07T10:41:18Z</time>
      </trkpt>
      <trkpt lat="45.93606" lon="4.72067">
        <ele>175</ele>
        <time>2018-09-07T10:41:19Z</time>
      </trkpt>
      <trkpt lat="45.93605" lon="4.72074">
        <ele>175</ele>
        <time>2018-09-07T10:41:20Z</time>
      </trkpt>
      <trkpt lat="45.93602" lon="4.7208">
        <ele>175</ele>
        <time>2018-09-07T10:41:21Z</time>
      </trkpt>
      <trkpt lat="45.936" lon="4.72086">
        <ele>175</ele>
        <time>2018-09-07T10:41:22Z</time>
      </trkpt>
      <trkpt lat="45.93596" lon="4.72093">
        <ele>175</ele>
        <time>2018-09-07T10:41:23Z</time>
      </trkpt>
      <trkpt lat="45.93594" lon="4.72097">
        <ele>175</ele>
        <time>2018-09-07T10:41:24Z</time>
      </trkpt>
      <trkpt lat="45.93591" lon="4.72104">
        <ele>174</ele>
        <time>2018-09-07T10:41:25Z</time>
      </trkpt>
      <trkpt lat="45.93588" lon="4.7211">
        <ele>174</ele>
        <time>2018-09-07T10:41:26Z</time>
      </trkpt>
      <trkpt lat="45.93586" lon="4.72116">
        <ele>174</ele>
        <time>2018-09-07T10:41:27Z</time>
      </trkpt>
      <trkpt lat="45.93582" lon="4.72121">
        <ele>175</ele>
        <time>2018-09-07T10:41:28Z</time>
      </trkpt>
      <trkpt lat="45.93579" lon="4.72127">
        <ele>174</ele>
        <time>2018-09-07T10:41:29Z</time>
      </trkpt>
      <trkpt lat="45.93578" lon="4.72137">
        <ele>174</ele>
        <time>2018-09-07T10:41:30Z</time>
      </trkpt>
      <trkpt lat="45.93575" lon="4.72143">
        <ele>174</ele>
        <time>2018-09-07T10:41:31Z</time>
      </trkpt>
      <trkpt lat="45.93572" lon="4.7215">
        <ele>174</ele>
        <time>2018-09-07T10:41:32Z</time>
      </trkpt>
      <trkpt lat="45.9357" lon="4.72155">
        <ele>174</ele>
        <time>2018-09-07T10:41:33Z</time>
      </trkpt>
      <trkpt lat="45.93566" lon="4.72162">
        <ele>174</ele>
        <time>2018-09-07T10:41:34Z</time>
      </trkpt>
      <trkpt lat="45.93564" lon="4.7217">
        <ele>173</ele>
        <time>2018-09-07T10:41:35Z</time>
      </trkpt>
      <trkpt lat="45.93562" lon="4.72177">
        <ele>173</ele>
        <time>2018-09-07T10:41:36Z</time>
      </trkpt>
      <trkpt lat="45.9356" lon="4.72184">
        <ele>173</ele>
        <time>2018-09-07T10:41:37Z</time>
      </trkpt>
      <trkpt lat="45.93558" lon="4.72191">
        <ele>173</ele>
        <time>2018-09-07T10:41:38Z</time>
      </trkpt>
      <trkpt lat="45.93554" lon="4.72199">
        <ele>173</ele>
        <time>2018-09-07T10:41:39Z</time>
      </trkpt>
      <trkpt lat="45.93553" lon="4.72206">
        <ele>173</ele>
        <time>2018-09-07T10:41:40Z</time>
      </trkpt>
      <trkpt lat="45.93549" lon="4.72214">
        <ele>173</ele>
        <time>2018-09-07T10:41:41Z</time>
      </trkpt>
      <trkpt lat="45.93548" lon="4.7222">
        <ele>172</ele>
        <time>2018-09-07T10:41:42Z</time>
      </trkpt>
      <trkpt lat="45.93546" lon="4.72229">
        <ele>172</ele>
        <time>2018-09-07T10:41:43Z</time>
      </trkpt>
      <trkpt lat="45.93543" lon="4.72234">
        <ele>172</ele>
        <time>2018-09-07T10:41:44Z</time>
      </trkpt>
      <trkpt lat="45.93538" lon="4.72245">
        <ele>172</ele>
        <time>2018-09-07T10:41:46Z</time>
      </trkpt>
      <trkpt lat="45.93536" lon="4.72252">
        <ele>172</ele>
        <time>2018-09-07T10:41:47Z</time>
      </trkpt>
      <trkpt lat="45.93532" lon="4.72258">
        <ele>172</ele>
        <time>2018-09-07T10:41:48Z</time>
      </trkpt>
      <trkpt lat="45.9353" lon="4.72265">
        <ele>172</ele>
        <time>2018-09-07T10:41:49Z</time>
      </trkpt>
      <trkpt lat="45.93528" lon="4.72272">
        <ele>172</ele>
        <time>2018-09-07T10:41:50Z</time>
      </trkpt>
      <trkpt lat="45.93524" lon="4.72279">
        <ele>172</ele>
        <time>2018-09-07T10:41:51Z</time>
      </trkpt>
      <trkpt lat="45.93521" lon="4.72285">
        <ele>172</ele>
        <time>2018-09-07T10:41:52Z</time>
      </trkpt>
      <trkpt lat="45.93518" lon="4.72292">
        <ele>172</ele>
        <time>2018-09-07T10:41:53Z</time>
      </trkpt>
      <trkpt lat="45.93514" lon="4.72298">
        <ele>172</ele>
        <time>2018-09-07T10:41:54Z</time>
      </trkpt>
      <trkpt lat="45.9351" lon="4.72304">
        <ele>173</ele>
        <time>2018-09-07T10:41:55Z</time>
      </trkpt>
      <trkpt lat="45.93505" lon="4.7231">
        <ele>173</ele>
        <time>2018-09-07T10:41:56Z</time>
      </trkpt>
      <trkpt lat="45.93501" lon="4.72317">
        <ele>173</ele>
        <time>2018-09-07T10:41:57Z</time>
      </trkpt>
      <trkpt lat="45.93496" lon="4.72324">
        <ele>173</ele>
        <time>2018-09-07T10:41:58Z</time>
      </trkpt>
      <trkpt lat="45.93491" lon="4.7233">
        <ele>173</ele>
        <time>2018-09-07T10:41:59Z</time>
      </trkpt>
      <trkpt lat="45.93487" lon="4.72336">
        <ele>173</ele>
        <time>2018-09-07T10:42:00Z</time>
      </trkpt>
      <trkpt lat="45.93482" lon="4.72342">
        <ele>173</ele>
        <time>2018-09-07T10:42:01Z</time>
      </trkpt>
      <trkpt lat="45.93477" lon="4.72349">
        <ele>173</ele>
        <time>2018-09-07T10:42:02Z</time>
      </trkpt>
      <trkpt lat="45.93473" lon="4.72355">
        <ele>173</ele>
        <time>2018-09-07T10:42:03Z</time>
      </trkpt>
      <trkpt lat="45.93468" lon="4.72359">
        <ele>173</ele>
        <time>2018-09-07T10:42:04Z</time>
      </trkpt>
      <trkpt lat="45.93465" lon="4.72366">
        <ele>173</ele>
        <time>2018-09-07T10:42:05Z</time>
      </trkpt>
      <trkpt lat="45.9346" lon="4.72373">
        <ele>173</ele>
        <time>2018-09-07T10:42:06Z</time>
      </trkpt>
      <trkpt lat="45.93456" lon="4.72378">
        <ele>173</ele>
        <time>2018-09-07T10:42:07Z</time>
      </trkpt>
      <trkpt lat="45.93452" lon="4.72383">
        <ele>173</ele>
        <time>2018-09-07T10:42:08Z</time>
      </trkpt>
      <trkpt lat="45.93447" lon="4.72387">
        <ele>173</ele>
        <time>2018-09-07T10:42:09Z</time>
      </trkpt>
      <trkpt lat="45.93441" lon="4.72393">
        <ele>173</ele>
        <time>2018-09-07T10:42:10Z</time>
      </trkpt>
      <trkpt lat="45.93436" lon="4.72396">
        <ele>173</ele>
        <time>2018-09-07T10:42:11Z</time>
      </trkpt>
      <trkpt lat="45.9343" lon="4.72399">
        <ele>174</ele>
        <time>2018-09-07T10:42:12Z</time>
      </trkpt>
      <trkpt lat="45.93424" lon="4.72403">
        <ele>174</ele>
        <time>2018-09-07T10:42:13Z</time>
      </trkpt>
      <trkpt lat="45.93419" lon="4.72405">
        <ele>174</ele>
        <time>2018-09-07T10:42:14Z</time>
      </trkpt>
      <trkpt lat="45.93413" lon="4.72406">
        <ele>174</ele>
        <time>2018-09-07T10:42:15Z</time>
      </trkpt>
      <trkpt lat="45.93404" lon="4.72407">
        <ele>174</ele>
        <time>2018-09-07T10:42:17Z</time>
      </trkpt>
      <trkpt lat="45.93397" lon="4.72406">
        <ele>174</ele>
        <time>2018-09-07T10:42:18Z</time>
      </trkpt>
      <trkpt lat="45.93389" lon="4.72406">
        <ele>174</ele>
        <time>2018-09-07T10:42:20Z</time>
      </trkpt>
      <trkpt lat="45.93385" lon="4.72408">
        <ele>174</ele>
        <time>2018-09-07T10:42:21Z</time>
      </trkpt>
      <trkpt lat="45.93384" lon="4.72414">
        <ele>174</ele>
        <time>2018-09-07T10:42:22Z</time>
      </trkpt>
      <trkpt lat="45.93384" lon="4.72422">
        <ele>173</ele>
        <time>2018-09-07T10:42:23Z</time>
      </trkpt>
      <trkpt lat="45.93385" lon="4.72429">
        <ele>173</ele>
        <time>2018-09-07T10:42:24Z</time>
      </trkpt>
      <trkpt lat="45.93387" lon="4.72435">
        <ele>173</ele>
        <time>2018-09-07T10:42:25Z</time>
      </trkpt>
      <trkpt lat="45.9339" lon="4.72443">
        <ele>173</ele>
        <time>2018-09-07T10:42:26Z</time>
      </trkpt>
      <trkpt lat="45.93391" lon="4.7245">
        <ele>173</ele>
        <time>2018-09-07T10:42:27Z</time>
      </trkpt>
      <trkpt lat="45.9339" lon="4.72458">
        <ele>173</ele>
        <time>2018-09-07T10:42:28Z</time>
      </trkpt>
      <trkpt lat="45.93388" lon="4.72465">
        <ele>173</ele>
        <time>2018-09-07T10:42:29Z</time>
      </trkpt>
      <trkpt lat="45.93384" lon="4.72471">
        <ele>173</ele>
        <time>2018-09-07T10:42:30Z</time>
      </trkpt>
      <trkpt lat="45.9338" lon="4.72475">
        <ele>173</ele>
        <time>2018-09-07T10:42:31Z</time>
      </trkpt>
      <trkpt lat="45.93375" lon="4.7248">
        <ele>173</ele>
        <time>2018-09-07T10:42:32Z</time>
      </trkpt>
      <trkpt lat="45.9337" lon="4.72486">
        <ele>173</ele>
        <time>2018-09-07T10:42:33Z</time>
      </trkpt>
      <trkpt lat="45.93365" lon="4.72489">
        <ele>173</ele>
        <time>2018-09-07T10:42:34Z</time>
      </trkpt>
      <trkpt lat="45.9336" lon="4.72493">
        <ele>173</ele>
        <time>2018-09-07T10:42:35Z</time>
      </trkpt>
      <trkpt lat="45.93357" lon="4.72499">
        <ele>173</ele>
        <time>2018-09-07T10:42:36Z</time>
      </trkpt>
      <trkpt lat="45.93352" lon="4.72504">
        <ele>172</ele>
        <time>2018-09-07T10:42:37Z</time>
      </trkpt>
      <trkpt lat="45.93348" lon="4.72509">
        <ele>172</ele>
        <time>2018-09-07T10:42:38Z</time>
      </trkpt>
      <trkpt lat="45.93345" lon="4.72514">
        <ele>172</ele>
        <time>2018-09-07T10:42:39Z</time>
      </trkpt>
      <trkpt lat="45.93341" lon="4.72518">
        <ele>172</ele>
        <time>2018-09-07T10:42:40Z</time>
      </trkpt>
      <trkpt lat="45.93337" lon="4.72523">
        <ele>172</ele>
        <time>2018-09-07T10:42:41Z</time>
      </trkpt>
      <trkpt lat="45.93331" lon="4.72531">
        <ele>172</ele>
        <time>2018-09-07T10:42:43Z</time>
      </trkpt>
      <trkpt lat="45.93327" lon="4.72535">
        <ele>172</ele>
        <time>2018-09-07T10:42:44Z</time>
      </trkpt>
      <trkpt lat="45.93322" lon="4.7254">
        <ele>172</ele>
        <time>2018-09-07T10:42:45Z</time>
      </trkpt>
      <trkpt lat="45.93318" lon="4.72545">
        <ele>172</ele>
        <time>2018-09-07T10:42:46Z</time>
      </trkpt>
      <trkpt lat="45.93313" lon="4.72549">
        <ele>172</ele>
        <time>2018-09-07T10:42:47Z</time>
      </trkpt>
      <trkpt lat="45.93309" lon="4.72553">
        <ele>172</ele>
        <time>2018-09-07T10:42:48Z</time>
      </trkpt>
      <trkpt lat="45.93305" lon="4.72558">
        <ele>172</ele>
        <time>2018-09-07T10:42:49Z</time>
      </trkpt>
      <trkpt lat="45.933" lon="4.72562">
        <ele>172</ele>
        <time>2018-09-07T10:42:50Z</time>
      </trkpt>
      <trkpt lat="45.93295" lon="4.72571">
        <ele>172</ele>
        <time>2018-09-07T10:42:51Z</time>
      </trkpt>
      <trkpt lat="45.93292" lon="4.72577">
        <ele>171</ele>
        <time>2018-09-07T10:42:52Z</time>
      </trkpt>
      <trkpt lat="45.93286" lon="4.72583">
        <ele>171</ele>
        <time>2018-09-07T10:42:53Z</time>
      </trkpt>
      <trkpt lat="45.93282" lon="4.72588">
        <ele>170</ele>
        <time>2018-09-07T10:42:54Z</time>
      </trkpt>
      <trkpt lat="45.93277" lon="4.72593">
        <ele>170</ele>
        <time>2018-09-07T10:42:55Z</time>
      </trkpt>
      <trkpt lat="45.93272" lon="4.726">
        <ele>170</ele>
        <time>2018-09-07T10:42:56Z</time>
      </trkpt>
      <trkpt lat="45.93268" lon="4.72605">
        <ele>170</ele>
        <time>2018-09-07T10:42:57Z</time>
      </trkpt>
      <trkpt lat="45.93264" lon="4.72609">
        <ele>170</ele>
        <time>2018-09-07T10:42:58Z</time>
      </trkpt>
      <trkpt lat="45.9326" lon="4.72613">
        <ele>170</ele>
        <time>2018-09-07T10:42:59Z</time>
      </trkpt>
      <trkpt lat="45.93255" lon="4.72619">
        <ele>170</ele>
        <time>2018-09-07T10:43:00Z</time>
      </trkpt>
      <trkpt lat="45.93251" lon="4.72625">
        <ele>170</ele>
        <time>2018-09-07T10:43:01Z</time>
      </trkpt>
      <trkpt lat="45.93247" lon="4.7263">
        <ele>170</ele>
        <time>2018-09-07T10:43:02Z</time>
      </trkpt>
      <trkpt lat="45.93242" lon="4.72634">
        <ele>170</ele>
        <time>2018-09-07T10:43:03Z</time>
      </trkpt>
      <trkpt lat="45.93237" lon="4.7264">
        <ele>170</ele>
        <time>2018-09-07T10:43:04Z</time>
      </trkpt>
      <trkpt lat="45.93233" lon="4.72646">
        <ele>170</ele>
        <time>2018-09-07T10:43:05Z</time>
      </trkpt>
      <trkpt lat="45.93228" lon="4.72652">
        <ele>170</ele>
        <time>2018-09-07T10:43:06Z</time>
      </trkpt>
      <trkpt lat="45.93223" lon="4.72658">
        <ele>170</ele>
        <time>2018-09-07T10:43:07Z</time>
      </trkpt>
      <trkpt lat="45.93218" lon="4.72663">
        <ele>170</ele>
        <time>2018-09-07T10:43:08Z</time>
      </trkpt>
      <trkpt lat="45.93213" lon="4.72668">
        <ele>169</ele>
        <time>2018-09-07T10:43:09Z</time>
      </trkpt>
      <trkpt lat="45.93209" lon="4.72674">
        <ele>169</ele>
        <time>2018-09-07T10:43:10Z</time>
      </trkpt>
      <trkpt lat="45.93204" lon="4.72679">
        <ele>169</ele>
        <time>2018-09-07T10:43:11Z</time>
      </trkpt>
      <trkpt lat="45.93199" lon="4.72685">
        <ele>169</ele>
        <time>2018-09-07T10:43:12Z</time>
      </trkpt>
      <trkpt lat="45.93195" lon="4.72688">
        <ele>169</ele>
        <time>2018-09-07T10:43:13Z</time>
      </trkpt>
      <trkpt lat="45.93192" lon="4.72693">
        <ele>169</ele>
        <time>2018-09-07T10:43:14Z</time>
      </trkpt>
      <trkpt lat="45.93188" lon="4.72698">
        <ele>169</ele>
        <time>2018-09-07T10:43:15Z</time>
      </trkpt>
      <trkpt lat="45.93184" lon="4.72702">
        <ele>169</ele>
        <time>2018-09-07T10:43:16Z</time>
      </trkpt>
      <trkpt lat="45.9318" lon="4.72706">
        <ele>169</ele>
        <time>2018-09-07T10:43:17Z</time>
      </trkpt>
      <trkpt lat="45.93176" lon="4.7271">
        <ele>169</ele>
        <time>2018-09-07T10:43:18Z</time>
      </trkpt>
      <trkpt lat="45.93171" lon="4.72715">
        <ele>170</ele>
        <time>2018-09-07T10:43:19Z</time>
      </trkpt>
      <trkpt lat="45.93167" lon="4.7272">
        <ele>170</ele>
        <time>2018-09-07T10:43:20Z</time>
      </trkpt>
      <trkpt lat="45.93163" lon="4.72725">
        <ele>170</ele>
        <time>2018-09-07T10:43:21Z</time>
      </trkpt>
      <trkpt lat="45.93157" lon="4.72729">
        <ele>170</ele>
        <time>2018-09-07T10:43:22Z</time>
      </trkpt>
      <trkpt lat="45.93152" lon="4.72736">
        <ele>170</ele>
        <time>2018-09-07T10:43:23Z</time>
      </trkpt>
      <trkpt lat="45.93148" lon="4.72741">
        <ele>170</ele>
        <time>2018-09-07T10:43:24Z</time>
      </trkpt>
      <trkpt lat="45.93143" lon="4.72746">
        <ele>170</ele>
        <time>2018-09-07T10:43:25Z</time>
      </trkpt>
      <trkpt lat="45.93138" lon="4.72751">
        <ele>171</ele>
        <time>2018-09-07T10:43:26Z</time>
      </trkpt>
      <trkpt lat="45.93134" lon="4.72756">
        <ele>171</ele>
        <time>2018-09-07T10:43:27Z</time>
      </trkpt>
      <trkpt lat="45.9313" lon="4.72762">
        <ele>171</ele>
        <time>2018-09-07T10:43:28Z</time>
      </trkpt>
      <trkpt lat="45.93126" lon="4.72768">
        <ele>171</ele>
        <time>2018-09-07T10:43:29Z</time>
      </trkpt>
      <trkpt lat="45.93123" lon="4.72775">
        <ele>171</ele>
        <time>2018-09-07T10:43:30Z</time>
      </trkpt>
      <trkpt lat="45.93118" lon="4.7278">
        <ele>171</ele>
        <time>2018-09-07T10:43:31Z</time>
      </trkpt>
      <trkpt lat="45.93114" lon="4.72786">
        <ele>171</ele>
        <time>2018-09-07T10:43:32Z</time>
      </trkpt>
      <trkpt lat="45.93111" lon="4.72791">
        <ele>171</ele>
        <time>2018-09-07T10:43:33Z</time>
      </trkpt>
      <trkpt lat="45.93106" lon="4.72794">
        <ele>171</ele>
        <time>2018-09-07T10:43:34Z</time>
      </trkpt>
      <trkpt lat="45.93102" lon="4.72799">
        <ele>171</ele>
        <time>2018-09-07T10:43:35Z</time>
      </trkpt>
      <trkpt lat="45.93098" lon="4.72805">
        <ele>171</ele>
        <time>2018-09-07T10:43:36Z</time>
      </trkpt>
      <trkpt lat="45.93094" lon="4.72811">
        <ele>172</ele>
        <time>2018-09-07T10:43:37Z</time>
      </trkpt>
      <trkpt lat="45.93089" lon="4.72816">
        <ele>172</ele>
        <time>2018-09-07T10:43:38Z</time>
      </trkpt>
      <trkpt lat="45.93085" lon="4.72821">
        <ele>172</ele>
        <time>2018-09-07T10:43:39Z</time>
      </trkpt>
      <trkpt lat="45.93081" lon="4.72825">
        <ele>173</ele>
        <time>2018-09-07T10:43:40Z</time>
      </trkpt>
      <trkpt lat="45.9304" lon="4.72871">
        <ele>172</ele>
        <time>2018-09-07T10:43:49Z</time>
      </trkpt>
      <trkpt lat="45.93035" lon="4.72882">
        <ele>172</ele>
        <time>2018-09-07T10:43:51Z</time>
      </trkpt>
      <trkpt lat="45.93031" lon="4.72885">
        <ele>172</ele>
        <time>2018-09-07T10:43:52Z</time>
      </trkpt>
      <trkpt lat="45.93026" lon="4.72894">
        <ele>172</ele>
        <time>2018-09-07T10:43:53Z</time>
      </trkpt>
      <trkpt lat="45.93021" lon="4.72896">
        <ele>172</ele>
        <time>2018-09-07T10:43:54Z</time>
      </trkpt>
      <trkpt lat="45.93016" lon="4.729">
        <ele>172</ele>
        <time>2018-09-07T10:43:55Z</time>
      </trkpt>
      <trkpt lat="45.93012" lon="4.72905">
        <ele>171</ele>
        <time>2018-09-07T10:43:56Z</time>
      </trkpt>
      <trkpt lat="45.93008" lon="4.7291">
        <ele>171</ele>
        <time>2018-09-07T10:43:57Z</time>
      </trkpt>
      <trkpt lat="45.93004" lon="4.72915">
        <ele>171</ele>
        <time>2018-09-07T10:43:58Z</time>
      </trkpt>
      <trkpt lat="45.93" lon="4.72919">
        <ele>171</ele>
        <time>2018-09-07T10:43:59Z</time>
      </trkpt>
      <trkpt lat="45.92995" lon="4.72922">
        <ele>171</ele>
        <time>2018-09-07T10:44:00Z</time>
      </trkpt>
      <trkpt lat="45.92992" lon="4.72928">
        <ele>171</ele>
        <time>2018-09-07T10:44:01Z</time>
      </trkpt>
      <trkpt lat="45.92989" lon="4.72934">
        <ele>171</ele>
        <time>2018-09-07T10:44:02Z</time>
      </trkpt>
      <trkpt lat="45.92985" lon="4.72939">
        <ele>171</ele>
        <time>2018-09-07T10:44:03Z</time>
      </trkpt>
      <trkpt lat="45.9298" lon="4.72943">
        <ele>171</ele>
        <time>2018-09-07T10:44:04Z</time>
      </trkpt>
      <trkpt lat="45.92975" lon="4.72948">
        <ele>171</ele>
        <time>2018-09-07T10:44:05Z</time>
      </trkpt>
      <trkpt lat="45.92971" lon="4.72954">
        <ele>171</ele>
        <time>2018-09-07T10:44:06Z</time>
      </trkpt>
      <trkpt lat="45.92966" lon="4.72959">
        <ele>171</ele>
        <time>2018-09-07T10:44:07Z</time>
      </trkpt>
      <trkpt lat="45.92961" lon="4.72965">
        <ele>171</ele>
        <time>2018-09-07T10:44:08Z</time>
      </trkpt>
      <trkpt lat="45.92957" lon="4.72971">
        <ele>171</ele>
        <time>2018-09-07T10:44:09Z</time>
      </trkpt>
      <trkpt lat="45.92952" lon="4.72978">
        <ele>171</ele>
        <time>2018-09-07T10:44:10Z</time>
      </trkpt>
      <trkpt lat="45.92948" lon="4.72983">
        <ele>171</ele>
        <time>2018-09-07T10:44:11Z</time>
      </trkpt>
      <trkpt lat="45.92943" lon="4.72989">
        <ele>171</ele>
        <time>2018-09-07T10:44:12Z</time>
      </trkpt>
      <trkpt lat="45.92939" lon="4.72994">
        <ele>171</ele>
        <time>2018-09-07T10:44:13Z</time>
      </trkpt>
      <trkpt lat="45.92935" lon="4.73">
        <ele>171</ele>
        <time>2018-09-07T10:44:14Z</time>
      </trkpt>
      <trkpt lat="45.92929" lon="4.73005">
        <ele>172</ele>
        <time>2018-09-07T10:44:15Z</time>
      </trkpt>
      <trkpt lat="45.92926" lon="4.73012">
        <ele>172</ele>
        <time>2018-09-07T10:44:16Z</time>
      </trkpt>
      <trkpt lat="45.92921" lon="4.73017">
        <ele>172</ele>
        <time>2018-09-07T10:44:17Z</time>
      </trkpt>
      <trkpt lat="45.92916" lon="4.73021">
        <ele>172</ele>
        <time>2018-09-07T10:44:18Z</time>
      </trkpt>
      <trkpt lat="45.92912" lon="4.73026">
        <ele>172</ele>
        <time>2018-09-07T10:44:19Z</time>
      </trkpt>
      <trkpt lat="45.92909" lon="4.73031">
        <ele>172</ele>
        <time>2018-09-07T10:44:20Z</time>
      </trkpt>
      <trkpt lat="45.92905" lon="4.73036">
        <ele>172</ele>
        <time>2018-09-07T10:44:21Z</time>
      </trkpt>
      <trkpt lat="45.92901" lon="4.7304">
        <ele>172</ele>
        <time>2018-09-07T10:44:22Z</time>
      </trkpt>
      <trkpt lat="45.92898" lon="4.73046">
        <ele>172</ele>
        <time>2018-09-07T10:44:23Z</time>
      </trkpt>
      <trkpt lat="45.92895" lon="4.73053">
        <ele>172</ele>
        <time>2018-09-07T10:44:24Z</time>
      </trkpt>
      <trkpt lat="45.9289" lon="4.73063">
        <ele>172</ele>
        <time>2018-09-07T10:44:26Z</time>
      </trkpt>
      <trkpt lat="45.92888" lon="4.73069">
        <ele>172</ele>
        <time>2018-09-07T10:44:27Z</time>
      </trkpt>
      <trkpt lat="45.92881" lon="4.73076">
        <ele>172</ele>
        <time>2018-09-07T10:44:29Z</time>
      </trkpt>
      <trkpt lat="45.92879" lon="4.73081">
        <ele>172</ele>
        <time>2018-09-07T10:44:30Z</time>
      </trkpt>
      <trkpt lat="45.92873" lon="4.7309">
        <ele>172</ele>
        <time>2018-09-07T10:44:32Z</time>
      </trkpt>
      <trkpt lat="45.92869" lon="4.73095">
        <ele>172</ele>
        <time>2018-09-07T10:44:33Z</time>
      </trkpt>
      <trkpt lat="45.92865" lon="4.73099">
        <ele>171</ele>
        <time>2018-09-07T10:44:34Z</time>
      </trkpt>
      <trkpt lat="45.9286" lon="4.73102">
        <ele>171</ele>
        <time>2018-09-07T10:44:35Z</time>
      </trkpt>
      <trkpt lat="45.92853" lon="4.73106">
        <ele>171</ele>
        <time>2018-09-07T10:44:37Z</time>
      </trkpt>
      <trkpt lat="45.92851" lon="4.73106">
        <ele>171</ele>
        <time>2018-09-07T10:44:38Z</time>
      </trkpt>
      <trkpt lat="45.92846" lon="4.73097">
        <ele>171</ele>
        <time>2018-09-07T10:44:40Z</time>
      </trkpt>
      <trkpt lat="45.92845" lon="4.7309">
        <ele>171</ele>
        <time>2018-09-07T10:44:41Z</time>
      </trkpt>
      <trkpt lat="45.92844" lon="4.73082">
        <ele>171</ele>
        <time>2018-09-07T10:44:42Z</time>
      </trkpt>
      <trkpt lat="45.92843" lon="4.73075">
        <ele>171</ele>
        <time>2018-09-07T10:44:43Z</time>
      </trkpt>
      <trkpt lat="45.92842" lon="4.73067">
        <ele>171</ele>
        <time>2018-09-07T10:44:44Z</time>
      </trkpt>
      <trkpt lat="45.92841" lon="4.7306">
        <ele>171</ele>
        <time>2018-09-07T10:44:45Z</time>
      </trkpt>
      <trkpt lat="45.9284" lon="4.73053">
        <ele>171</ele>
        <time>2018-09-07T10:44:46Z</time>
      </trkpt>
      <trkpt lat="45.92839" lon="4.73045">
        <ele>171</ele>
        <time>2018-09-07T10:44:47Z</time>
      </trkpt>
      <trkpt lat="45.92838" lon="4.73038">
        <ele>171</ele>
        <time>2018-09-07T10:44:48Z</time>
      </trkpt>
      <trkpt lat="45.92837" lon="4.73031">
        <ele>171</ele>
        <time>2018-09-07T10:44:49Z</time>
      </trkpt>
      <trkpt lat="45.92836" lon="4.73024">
        <ele>171</ele>
        <time>2018-09-07T10:44:50Z</time>
      </trkpt>
      <trkpt lat="45.92835" lon="4.73018">
        <ele>171</ele>
        <time>2018-09-07T10:44:51Z</time>
      </trkpt>
      <trkpt lat="45.92832" lon="4.73006">
        <ele>170</ele>
        <time>2018-09-07T10:44:56Z</time>
      </trkpt>
      <trkpt lat="45.92832" lon="4.73005">
        <ele>170</ele>
        <time>2018-09-07T10:44:57Z</time>
      </trkpt>
      <trkpt lat="45.92829" lon="4.72994">
        <ele>170</ele>
        <time>2018-09-07T10:45:50Z</time>
      </trkpt>
      <trkpt lat="45.92829" lon="4.72993">
        <ele>170</ele>
        <time>2018-09-07T10:45:51Z</time>
      </trkpt>
      <trkpt lat="45.92828" lon="4.72981">
        <ele>170</ele>
        <time>2018-09-07T10:45:55Z</time>
      </trkpt>
      <trkpt lat="45.92828" lon="4.7298">
        <ele>170</ele>
        <time>2018-09-07T10:45:59.218Z</time>
      </trkpt>
      <trkpt lat="45.92827" lon="4.72968">
        <ele>170</ele>
        <time>2018-09-07T10:45:58Z</time>
      </trkpt>
      <trkpt lat="45.92826" lon="4.72955">
        <ele>170</ele>
        <time>2018-09-07T10:45:59Z</time>
      </trkpt>
      <trkpt lat="45.92825" lon="4.72948">
        <ele>170</ele>
        <time>2018-09-07T10:46:00Z</time>
      </trkpt>
      <trkpt lat="45.92825" lon="4.72942">
        <ele>170</ele>
        <time>2018-09-07T10:46:01Z</time>
      </trkpt>
      <trkpt lat="45.92824" lon="4.7293">
        <ele>170</ele>
        <time>2018-09-07T10:46:03Z</time>
      </trkpt>
      <trkpt lat="45.92823" lon="4.72923">
        <ele>170</ele>
        <time>2018-09-07T10:46:04Z</time>
      </trkpt>
      <trkpt lat="45.92821" lon="4.72911">
        <ele>170</ele>
        <time>2018-09-07T10:46:06Z</time>
      </trkpt>
      <trkpt lat="45.92822" lon="4.72905">
        <ele>170</ele>
        <time>2018-09-07T10:46:07Z</time>
      </trkpt>
      <trkpt lat="45.92821" lon="4.72898">
        <ele>170</ele>
        <time>2018-09-07T10:46:08Z</time>
      </trkpt>
      <trkpt lat="45.9282" lon="4.72891">
        <ele>170</ele>
        <time>2018-09-07T10:46:09Z</time>
      </trkpt>
      <trkpt lat="45.92817" lon="4.72881">
        <ele>170</ele>
        <time>2018-09-07T10:46:11Z</time>
      </trkpt>
      <trkpt lat="45.92816" lon="4.72875">
        <ele>170</ele>
        <time>2018-09-07T10:46:12Z</time>
      </trkpt>
      <trkpt lat="45.92815" lon="4.72869">
        <ele>170</ele>
        <time>2018-09-07T10:46:13Z</time>
      </trkpt>
      <trkpt lat="45.92812" lon="4.72864">
        <ele>170</ele>
        <time>2018-09-07T10:46:14Z</time>
      </trkpt>
      <trkpt lat="45.92808" lon="4.72853">
        <ele>170</ele>
        <time>2018-09-07T10:46:16Z</time>
      </trkpt>
      <trkpt lat="45.92807" lon="4.72846">
        <ele>170</ele>
        <time>2018-09-07T10:46:17Z</time>
      </trkpt>
      <trkpt lat="45.92806" lon="4.72834">
        <ele>170</ele>
        <time>2018-09-07T10:46:19Z</time>
      </trkpt>
      <trkpt lat="45.92803" lon="4.7283">
        <ele>170</ele>
        <time>2018-09-07T10:46:20Z</time>
      </trkpt>
      <trkpt lat="45.92803" lon="4.72823">
        <ele>170</ele>
        <time>2018-09-07T10:46:21Z</time>
      </trkpt>
      <trkpt lat="45.92803" lon="4.72816">
        <ele>170</ele>
        <time>2018-09-07T10:46:22Z</time>
      </trkpt>
      <trkpt lat="45.92801" lon="4.72804">
        <ele>171</ele>
        <time>2018-09-07T10:46:24Z</time>
      </trkpt>
      <trkpt lat="45.928" lon="4.72797">
        <ele>171</ele>
        <time>2018-09-07T10:46:25Z</time>
      </trkpt>
      <trkpt lat="45.92794" lon="4.72787">
        <ele>171</ele>
        <time>2018-09-07T10:46:28Z</time>
      </trkpt>
      <trkpt lat="45.92793" lon="4.72787">
        <ele>171</ele>
        <time>2018-09-07T10:46:29Z</time>
      </trkpt>
      <trkpt lat="45.92788" lon="4.72793">
        <ele>170</ele>
        <time>2018-09-07T10:46:30Z</time>
      </trkpt>
      <trkpt lat="45.92786" lon="4.72796">
        <ele>170</ele>
        <time>2018-09-07T10:46:31Z</time>
      </trkpt>
      <trkpt lat="45.92777" lon="4.72803">
        <ele>170</ele>
        <time>2018-09-07T10:46:32Z</time>
      </trkpt>
      <trkpt lat="45.92774" lon="4.72807">
        <ele>170</ele>
        <time>2018-09-07T10:46:33Z</time>
      </trkpt>
      <trkpt lat="45.92768" lon="4.7281">
        <ele>170</ele>
        <time>2018-09-07T10:46:34Z</time>
      </trkpt>
      <trkpt lat="45.92761" lon="4.72818">
        <ele>170</ele>
        <time>2018-09-07T10:46:36Z</time>
      </trkpt>
      <trkpt lat="45.92754" lon="4.72821">
        <ele>170</ele>
        <time>2018-09-07T10:46:37Z</time>
      </trkpt>
      <trkpt lat="45.92749" lon="4.72826">
        <ele>169</ele>
        <time>2018-09-07T10:46:38Z</time>
      </trkpt>
      <trkpt lat="45.92744" lon="4.7283">
        <ele>169</ele>
        <time>2018-09-07T10:46:39Z</time>
      </trkpt>
      <trkpt lat="45.92738" lon="4.72834">
        <ele>169</ele>
        <time>2018-09-07T10:46:40Z</time>
      </trkpt>
      <trkpt lat="45.92733" lon="4.72838">
        <ele>169</ele>
        <time>2018-09-07T10:46:41Z</time>
      </trkpt>
      <trkpt lat="45.92727" lon="4.72842">
        <ele>169</ele>
        <time>2018-09-07T10:46:42Z</time>
      </trkpt>
      <trkpt lat="45.92722" lon="4.72846">
        <ele>169</ele>
        <time>2018-09-07T10:46:43Z</time>
      </trkpt>
      <trkpt lat="45.92717" lon="4.72852">
        <ele>169</ele>
        <time>2018-09-07T10:46:44Z</time>
      </trkpt>
      <trkpt lat="45.92712" lon="4.72857">
        <ele>169</ele>
        <time>2018-09-07T10:46:45Z</time>
      </trkpt>
      <trkpt lat="45.92707" lon="4.7286">
        <ele>169</ele>
        <time>2018-09-07T10:46:46Z</time>
      </trkpt>
      <trkpt lat="45.92702" lon="4.72864">
        <ele>169</ele>
        <time>2018-09-07T10:46:47Z</time>
      </trkpt>
      <trkpt lat="45.92698" lon="4.72866">
        <ele>169</ele>
        <time>2018-09-07T10:46:48Z</time>
      </trkpt>
      <trkpt lat="45.92693" lon="4.72869">
        <ele>169</ele>
        <time>2018-09-07T10:46:49Z</time>
      </trkpt>
      <trkpt lat="45.92689" lon="4.72872">
        <ele>169</ele>
        <time>2018-09-07T10:46:50Z</time>
      </trkpt>
      <trkpt lat="45.92687" lon="4.72881">
        <ele>170</ele>
        <time>2018-09-07T10:46:51Z</time>
      </trkpt>
      <trkpt lat="45.92682" lon="4.72883">
        <ele>170</ele>
        <time>2018-09-07T10:46:52Z</time>
      </trkpt>
      <trkpt lat="45.92679" lon="4.72887">
        <ele>170</ele>
        <time>2018-09-07T10:46:53Z</time>
      </trkpt>
      <trkpt lat="45.92675" lon="4.72894">
        <ele>170</ele>
        <time>2018-09-07T10:46:54Z</time>
      </trkpt>
      <trkpt lat="45.9267" lon="4.72898">
        <ele>170</ele>
        <time>2018-09-07T10:46:55Z</time>
      </trkpt>
      <trkpt lat="45.92666" lon="4.72902">
        <ele>170</ele>
        <time>2018-09-07T10:46:56Z</time>
      </trkpt>
      <trkpt lat="45.92662" lon="4.72905">
        <ele>170</ele>
        <time>2018-09-07T10:46:57Z</time>
      </trkpt>
      <trkpt lat="45.92658" lon="4.72907">
        <ele>170</ele>
        <time>2018-09-07T10:46:58Z</time>
      </trkpt>
      <trkpt lat="45.92653" lon="4.72911">
        <ele>170</ele>
        <time>2018-09-07T10:46:59Z</time>
      </trkpt>
      <trkpt lat="45.92649" lon="4.72915">
        <ele>170</ele>
        <time>2018-09-07T10:47:00Z</time>
      </trkpt>
      <trkpt lat="45.92644" lon="4.72918">
        <ele>170</ele>
        <time>2018-09-07T10:47:01Z</time>
      </trkpt>
      <trkpt lat="45.9264" lon="4.72922">
        <ele>170</ele>
        <time>2018-09-07T10:47:02Z</time>
      </trkpt>
      <trkpt lat="45.92635" lon="4.72925">
        <ele>170</ele>
        <time>2018-09-07T10:47:03Z</time>
      </trkpt>
      <trkpt lat="45.92631" lon="4.72929">
        <ele>170</ele>
        <time>2018-09-07T10:47:04Z</time>
      </trkpt>
      <trkpt lat="45.92626" lon="4.72934">
        <ele>170</ele>
        <time>2018-09-07T10:47:05Z</time>
      </trkpt>
      <trkpt lat="45.92621" lon="4.72938">
        <ele>169</ele>
        <time>2018-09-07T10:47:06Z</time>
      </trkpt>
      <trkpt lat="45.92615" lon="4.72942">
        <ele>169</ele>
        <time>2018-09-07T10:47:07Z</time>
      </trkpt>
      <trkpt lat="45.9261" lon="4.72947">
        <ele>169</ele>
        <time>2018-09-07T10:47:08Z</time>
      </trkpt>
      <trkpt lat="45.92606" lon="4.72954">
        <ele>169</ele>
        <time>2018-09-07T10:47:09Z</time>
      </trkpt>
      <trkpt lat="45.92601" lon="4.72958">
        <ele>169</ele>
        <time>2018-09-07T10:47:10Z</time>
      </trkpt>
      <trkpt lat="45.92599" lon="4.72965">
        <ele>169</ele>
        <time>2018-09-07T10:47:11Z</time>
      </trkpt>
      <trkpt lat="45.92595" lon="4.7297">
        <ele>169</ele>
        <time>2018-09-07T10:47:12Z</time>
      </trkpt>
      <trkpt lat="45.92589" lon="4.72974">
        <ele>169</ele>
        <time>2018-09-07T10:47:13Z</time>
      </trkpt>
      <trkpt lat="45.92585" lon="4.72979">
        <ele>169</ele>
        <time>2018-09-07T10:47:14Z</time>
      </trkpt>
      <trkpt lat="45.9258" lon="4.72983">
        <ele>169</ele>
        <time>2018-09-07T10:47:15Z</time>
      </trkpt>
      <trkpt lat="45.92575" lon="4.72987">
        <ele>169</ele>
        <time>2018-09-07T10:47:16Z</time>
      </trkpt>
      <trkpt lat="45.9257" lon="4.7299">
        <ele>169</ele>
        <time>2018-09-07T10:47:17Z</time>
      </trkpt>
      <trkpt lat="45.92566" lon="4.72996">
        <ele>169</ele>
        <time>2018-09-07T10:47:18Z</time>
      </trkpt>
      <trkpt lat="45.92561" lon="4.73">
        <ele>169</ele>
        <time>2018-09-07T10:47:19Z</time>
      </trkpt>
      <trkpt lat="45.92558" lon="4.73006">
        <ele>169</ele>
        <time>2018-09-07T10:47:20Z</time>
      </trkpt>
      <trkpt lat="45.92552" lon="4.73011">
        <ele>169</ele>
        <time>2018-09-07T10:47:21Z</time>
      </trkpt>
      <trkpt lat="45.92547" lon="4.73014">
        <ele>169</ele>
        <time>2018-09-07T10:47:22Z</time>
      </trkpt>
      <trkpt lat="45.92542" lon="4.7302">
        <ele>169</ele>
        <time>2018-09-07T10:47:23Z</time>
      </trkpt>
      <trkpt lat="45.92536" lon="4.73023">
        <ele>169</ele>
        <time>2018-09-07T10:47:24Z</time>
      </trkpt>
      <trkpt lat="45.92531" lon="4.73027">
        <ele>169</ele>
        <time>2018-09-07T10:47:25Z</time>
      </trkpt>
      <trkpt lat="45.92526" lon="4.73033">
        <ele>169</ele>
        <time>2018-09-07T10:47:26Z</time>
      </trkpt>
      <trkpt lat="45.92522" lon="4.73038">
        <ele>169</ele>
        <time>2018-09-07T10:47:27Z</time>
      </trkpt>
      <trkpt lat="45.92517" lon="4.73042">
        <ele>170</ele>
        <time>2018-09-07T10:47:28Z</time>
      </trkpt>
      <trkpt lat="45.92512" lon="4.73046">
        <ele>170</ele>
        <time>2018-09-07T10:47:29Z</time>
      </trkpt>
      <trkpt lat="45.92508" lon="4.73051">
        <ele>170</ele>
        <time>2018-09-07T10:47:30Z</time>
      </trkpt>
      <trkpt lat="45.92502" lon="4.73054">
        <ele>170</ele>
        <time>2018-09-07T10:47:31Z</time>
      </trkpt>
      <trkpt lat="45.92496" lon="4.73059">
        <ele>170</ele>
        <time>2018-09-07T10:47:32Z</time>
      </trkpt>
      <trkpt lat="45.92491" lon="4.73063">
        <ele>170</ele>
        <time>2018-09-07T10:47:33Z</time>
      </trkpt>
      <trkpt lat="45.92487" lon="4.73069">
        <ele>170</ele>
        <time>2018-09-07T10:47:34Z</time>
      </trkpt>
      <trkpt lat="45.92482" lon="4.73073">
        <ele>170</ele>
        <time>2018-09-07T10:47:35Z</time>
      </trkpt>
      <trkpt lat="45.92477" lon="4.73076">
        <ele>170</ele>
        <time>2018-09-07T10:47:36Z</time>
      </trkpt>
      <trkpt lat="45.92472" lon="4.7308">
        <ele>170</ele>
        <time>2018-09-07T10:47:37Z</time>
      </trkpt>
      <trkpt lat="45.92468" lon="4.73084">
        <ele>170</ele>
        <time>2018-09-07T10:47:38Z</time>
      </trkpt>
      <trkpt lat="45.92462" lon="4.73088">
        <ele>170</ele>
        <time>2018-09-07T10:47:39Z</time>
      </trkpt>
      <trkpt lat="45.92457" lon="4.7309">
        <ele>170</ele>
        <time>2018-09-07T10:47:40Z</time>
      </trkpt>
      <trkpt lat="45.92453" lon="4.73094">
        <ele>170</ele>
        <time>2018-09-07T10:47:41Z</time>
      </trkpt>
      <trkpt lat="45.92448" lon="4.73099">
        <ele>170</ele>
        <time>2018-09-07T10:47:42Z</time>
      </trkpt>
      <trkpt lat="45.92444" lon="4.73101">
        <ele>170</ele>
        <time>2018-09-07T10:47:43Z</time>
      </trkpt>
      <trkpt lat="45.92439" lon="4.73106">
        <ele>170</ele>
        <time>2018-09-07T10:47:44Z</time>
      </trkpt>
      <trkpt lat="45.92434" lon="4.73107">
        <ele>170</ele>
        <time>2018-09-07T10:47:45Z</time>
      </trkpt>
      <trkpt lat="45.92429" lon="4.73111">
        <ele>170</ele>
        <time>2018-09-07T10:47:46Z</time>
      </trkpt>
      <trkpt lat="45.92423" lon="4.73119">
        <ele>170</ele>
        <time>2018-09-07T10:47:47Z</time>
      </trkpt>
      <trkpt lat="45.92419" lon="4.73122">
        <ele>170</ele>
        <time>2018-09-07T10:47:48Z</time>
      </trkpt>
      <trkpt lat="45.92415" lon="4.73126">
        <ele>171</ele>
        <time>2018-09-07T10:47:49Z</time>
      </trkpt>
      <trkpt lat="45.92412" lon="4.7313">
        <ele>171</ele>
        <time>2018-09-07T10:47:50Z</time>
      </trkpt>
      <trkpt lat="45.9241" lon="4.73137">
        <ele>171</ele>
        <time>2018-09-07T10:47:51Z</time>
      </trkpt>
      <trkpt lat="45.9241" lon="4.73144">
        <ele>171</ele>
        <time>2018-09-07T10:47:52Z</time>
      </trkpt>
      <trkpt lat="45.9241" lon="4.7315">
        <ele>171</ele>
        <time>2018-09-07T10:47:53Z</time>
      </trkpt>
      <trkpt lat="45.92411" lon="4.73158">
        <ele>170</ele>
        <time>2018-09-07T10:47:54Z</time>
      </trkpt>
      <trkpt lat="45.9241" lon="4.73165">
        <ele>170</ele>
        <time>2018-09-07T10:47:55Z</time>
      </trkpt>
      <trkpt lat="45.9241" lon="4.73171">
        <ele>170</ele>
        <time>2018-09-07T10:47:56Z</time>
      </trkpt>
      <trkpt lat="45.92411" lon="4.73178">
        <ele>171</ele>
        <time>2018-09-07T10:47:57Z</time>
      </trkpt>
      <trkpt lat="45.9241" lon="4.73184">
        <ele>171</ele>
        <time>2018-09-07T10:47:58Z</time>
      </trkpt>
      <trkpt lat="45.92411" lon="4.73191">
        <ele>171</ele>
        <time>2018-09-07T10:47:59Z</time>
      </trkpt>
      <trkpt lat="45.92411" lon="4.73203">
        <ele>171</ele>
        <time>2018-09-07T10:48:01Z</time>
      </trkpt>
      <trkpt lat="45.92413" lon="4.73208">
        <ele>171</ele>
        <time>2018-09-07T10:48:02Z</time>
      </trkpt>
      <trkpt lat="45.92413" lon="4.73214">
        <ele>171</ele>
        <time>2018-09-07T10:48:03Z</time>
      </trkpt>
      <trkpt lat="45.92414" lon="4.73221">
        <ele>171</ele>
        <time>2018-09-07T10:48:04Z</time>
      </trkpt>
      <trkpt lat="45.92414" lon="4.73228">
        <ele>171</ele>
        <time>2018-09-07T10:48:05Z</time>
      </trkpt>
      <trkpt lat="45.92415" lon="4.73235">
        <ele>171</ele>
        <time>2018-09-07T10:48:06Z</time>
      </trkpt>
      <trkpt lat="45.92415" lon="4.73243">
        <ele>171</ele>
        <time>2018-09-07T10:48:07Z</time>
      </trkpt>
      <trkpt lat="45.92415" lon="4.73251">
        <ele>171</ele>
        <time>2018-09-07T10:48:08Z</time>
      </trkpt>
      <trkpt lat="45.92415" lon="4.73258">
        <ele>171</ele>
        <time>2018-09-07T10:48:09Z</time>
      </trkpt>
      <trkpt lat="45.92415" lon="4.73266">
        <ele>171</ele>
        <time>2018-09-07T10:48:10Z</time>
      </trkpt>
      <trkpt lat="45.92415" lon="4.73274">
        <ele>171</ele>
        <time>2018-09-07T10:48:11Z</time>
      </trkpt>
      <trkpt lat="45.92416" lon="4.73281">
        <ele>171</ele>
        <time>2018-09-07T10:48:12Z</time>
      </trkpt>
      <trkpt lat="45.92416" lon="4.73289">
        <ele>171</ele>
        <time>2018-09-07T10:48:13Z</time>
      </trkpt>
      <trkpt lat="45.92416" lon="4.73296">
        <ele>171</ele>
        <time>2018-09-07T10:48:14Z</time>
      </trkpt>
      <trkpt lat="45.92417" lon="4.73309">
        <ele>171</ele>
        <time>2018-09-07T10:48:16Z</time>
      </trkpt>
      <trkpt lat="45.92418" lon="4.73315">
        <ele>171</ele>
        <time>2018-09-07T10:48:17Z</time>
      </trkpt>
      <trkpt lat="45.92419" lon="4.73325">
        <ele>171</ele>
        <time>2018-09-07T10:48:19Z</time>
      </trkpt>
      <trkpt lat="45.92419" lon="4.73331">
        <ele>171</ele>
        <time>2018-09-07T10:48:20Z</time>
      </trkpt>
      <trkpt lat="45.92419" lon="4.73337">
        <ele>171</ele>
        <time>2018-09-07T10:48:21Z</time>
      </trkpt>
      <trkpt lat="45.9242" lon="4.73344">
        <ele>171</ele>
        <time>2018-09-07T10:48:22Z</time>
      </trkpt>
      <trkpt lat="45.92422" lon="4.73351">
        <ele>171</ele>
        <time>2018-09-07T10:48:23Z</time>
      </trkpt>
      <trkpt lat="45.92422" lon="4.73359">
        <ele>171</ele>
        <time>2018-09-07T10:48:24Z</time>
      </trkpt>
      <trkpt lat="45.92422" lon="4.73367">
        <ele>172</ele>
        <time>2018-09-07T10:48:25Z</time>
      </trkpt>
      <trkpt lat="45.92423" lon="4.73375">
        <ele>172</ele>
        <time>2018-09-07T10:48:26Z</time>
      </trkpt>
      <trkpt lat="45.92424" lon="4.73382">
        <ele>172</ele>
        <time>2018-09-07T10:48:27Z</time>
      </trkpt>
      <trkpt lat="45.92426" lon="4.73389">
        <ele>172</ele>
        <time>2018-09-07T10:48:28Z</time>
      </trkpt>
      <trkpt lat="45.92428" lon="4.73395">
        <ele>172</ele>
        <time>2018-09-07T10:48:29Z</time>
      </trkpt>
      <trkpt lat="45.9243" lon="4.73402">
        <ele>172</ele>
        <time>2018-09-07T10:48:30Z</time>
      </trkpt>
      <trkpt lat="45.92434" lon="4.73406">
        <ele>172</ele>
        <time>2018-09-07T10:48:31Z</time>
      </trkpt>
      <trkpt lat="45.92437" lon="4.73411">
        <ele>172</ele>
        <time>2018-09-07T10:48:32Z</time>
      </trkpt>
      <trkpt lat="45.92442" lon="4.73414">
        <ele>172</ele>
        <time>2018-09-07T10:48:33Z</time>
      </trkpt>
      <trkpt lat="45.92447" lon="4.73417">
        <ele>173</ele>
        <time>2018-09-07T10:48:34Z</time>
      </trkpt>
      <trkpt lat="45.92451" lon="4.73421">
        <ele>173</ele>
        <time>2018-09-07T10:48:35Z</time>
      </trkpt>
      <trkpt lat="45.92455" lon="4.73424">
        <ele>173</ele>
        <time>2018-09-07T10:48:36Z</time>
      </trkpt>
      <trkpt lat="45.92458" lon="4.73431">
        <ele>173</ele>
        <time>2018-09-07T10:48:38Z</time>
      </trkpt>
      <trkpt lat="45.92461" lon="4.73435">
        <ele>173</ele>
        <time>2018-09-07T10:48:39Z</time>
      </trkpt>
      <trkpt lat="45.92463" lon="4.73441">
        <ele>173</ele>
        <time>2018-09-07T10:48:40Z</time>
      </trkpt>
      <trkpt lat="45.92465" lon="4.73447">
        <ele>173</ele>
        <time>2018-09-07T10:48:41Z</time>
      </trkpt>
      <trkpt lat="45.92466" lon="4.73454">
        <ele>173</ele>
        <time>2018-09-07T10:48:42Z</time>
      </trkpt>
      <trkpt lat="45.92467" lon="4.73462">
        <ele>173</ele>
        <time>2018-09-07T10:48:43Z</time>
      </trkpt>
      <trkpt lat="45.92469" lon="4.73469">
        <ele>173</ele>
        <time>2018-09-07T10:48:44Z</time>
      </trkpt>
      <trkpt lat="45.92469" lon="4.73477">
        <ele>173</ele>
        <time>2018-09-07T10:48:45Z</time>
      </trkpt>
      <trkpt lat="45.92469" lon="4.73483">
        <ele>173</ele>
        <time>2018-09-07T10:48:46Z</time>
      </trkpt>
      <trkpt lat="45.92469" lon="4.7349">
        <ele>173</ele>
        <time>2018-09-07T10:48:47Z</time>
      </trkpt>
      <trkpt lat="45.92468" lon="4.73503">
        <ele>174</ele>
        <time>2018-09-07T10:48:49Z</time>
      </trkpt>
      <trkpt lat="45.92467" lon="4.73509">
        <ele>174</ele>
        <time>2018-09-07T10:48:50Z</time>
      </trkpt>
      <trkpt lat="45.92467" lon="4.73522">
        <ele>174</ele>
        <time>2018-09-07T10:48:52Z</time>
      </trkpt>
      <trkpt lat="45.92467" lon="4.73528">
        <ele>174</ele>
        <time>2018-09-07T10:48:53Z</time>
      </trkpt>
      <trkpt lat="45.92467" lon="4.73535">
        <ele>174</ele>
        <time>2018-09-07T10:48:54Z</time>
      </trkpt>
      <trkpt lat="45.92466" lon="4.73541">
        <ele>174</ele>
        <time>2018-09-07T10:48:55Z</time>
      </trkpt>
      <trkpt lat="45.92466" lon="4.73553">
        <ele>173</ele>
        <time>2018-09-07T10:48:57Z</time>
      </trkpt>
      <trkpt lat="45.92466" lon="4.7356">
        <ele>173</ele>
        <time>2018-09-07T10:48:58Z</time>
      </trkpt>
      <trkpt lat="45.92466" lon="4.73568">
        <ele>173</ele>
        <time>2018-09-07T10:48:59Z</time>
      </trkpt>
      <trkpt lat="45.92467" lon="4.73575">
        <ele>173</ele>
        <time>2018-09-07T10:49:00Z</time>
      </trkpt>
      <trkpt lat="45.92469" lon="4.73583">
        <ele>173</ele>
        <time>2018-09-07T10:49:01Z</time>
      </trkpt>
      <trkpt lat="45.92469" lon="4.73591">
        <ele>174</ele>
        <time>2018-09-07T10:49:02Z</time>
      </trkpt>
      <trkpt lat="45.92469" lon="4.73599">
        <ele>174</ele>
        <time>2018-09-07T10:49:03Z</time>
      </trkpt>
      <trkpt lat="45.9247" lon="4.73608">
        <ele>174</ele>
        <time>2018-09-07T10:49:04Z</time>
      </trkpt>
      <trkpt lat="45.9247" lon="4.73617">
        <ele>174</ele>
        <time>2018-09-07T10:49:05Z</time>
      </trkpt>
      <trkpt lat="45.9247" lon="4.73624">
        <ele>174</ele>
        <time>2018-09-07T10:49:06Z</time>
      </trkpt>
      <trkpt lat="45.92471" lon="4.73632">
        <ele>174</ele>
        <time>2018-09-07T10:49:07Z</time>
      </trkpt>
      <trkpt lat="45.9247" lon="4.73641">
        <ele>174</ele>
        <time>2018-09-07T10:49:08Z</time>
      </trkpt>
      <trkpt lat="45.92471" lon="4.73653">
        <ele>174</ele>
        <time>2018-09-07T10:49:10Z</time>
      </trkpt>
      <trkpt lat="45.92472" lon="4.73661">
        <ele>174</ele>
        <time>2018-09-07T10:49:11Z</time>
      </trkpt>
      <trkpt lat="45.92471" lon="4.73673">
        <ele>174</ele>
        <time>2018-09-07T10:49:13Z</time>
      </trkpt>
      <trkpt lat="45.9247" lon="4.7368">
        <ele>174</ele>
        <time>2018-09-07T10:49:14Z</time>
      </trkpt>
      <trkpt lat="45.92469" lon="4.73693">
        <ele>174</ele>
        <time>2018-09-07T10:49:16Z</time>
      </trkpt>
      <trkpt lat="45.92469" lon="4.73699">
        <ele>174</ele>
        <time>2018-09-07T10:49:17Z</time>
      </trkpt>
      <trkpt lat="45.92467" lon="4.73709">
        <ele>174</ele>
        <time>2018-09-07T10:49:23Z</time>
      </trkpt>
      <trkpt lat="45.92467" lon="4.7371">
        <ele>174</ele>
        <time>2018-09-07T10:49:24Z</time>
      </trkpt>
      <trkpt lat="45.92467" lon="4.7371">
        <ele>174</ele>
        <time>2018-09-07T10:49:26Z</time>
      </trkpt>
      <trkpt lat="45.92467" lon="4.7371">
        <ele>174</ele>
        <time>2018-09-07T10:49:27Z</time>
      </trkpt>
      <trkpt lat="45.92461" lon="4.73711">
        <ele>174</ele>
        <time>2018-09-07T10:49:45Z</time>
      </trkpt>
      <trkpt lat="45.92461" lon="4.73711">
        <ele>174</ele>
        <time>2018-09-07T10:49:46Z</time>
      </trkpt>
      <trkpt lat="45.92459" lon="4.73712">
        <ele>174</ele>
        <time>2018-09-07T10:50:01.532Z</time>
      </trkpt>
    </trkseg>
  </trk>
</gpx>